<?xml version="1.0" encoding="UTF-8" standalone="no" ?>
<gpx xmlns="http://www.topografix.com/GPX/1/1" xmlns:xsi="http://www.w3.org/2001/XMLSchema-instance" xsi:schemaLocation="http://www.topografix.com/GPX/1/1 http://www.topografix.com/GPX/1/1/gpx.xsd" version="1.1" creator="VisuGPX - https://www.visugpx.com">
  <metadata>
    <name>La Chambotte avec Flora</name>
  </metadata>
  <trk>
    <name><![CDATA[La Chambotte avec Flora_1]]></name>
    <trkseg>
      <trkpt lat="45.64981" lon="5.91307">
        <ele>288</ele>
        <time>2022-05-01T09:09:54.361Z</time>
      </trkpt>
      <trkpt lat="45.64981" lon="5.91307">
        <ele>288</ele>
        <time>2022-05-01T09:09:55.361Z</time>
      </trkpt>
      <trkpt lat="45.64981" lon="5.91308">
        <ele>288</ele>
        <time>2022-05-01T09:09:56.361Z</time>
      </trkpt>
      <trkpt lat="45.6498" lon="5.91309">
        <ele>288</ele>
        <time>2022-05-01T09:09:57.362Z</time>
      </trkpt>
      <trkpt lat="45.64979" lon="5.91309">
        <ele>288</ele>
        <time>2022-05-01T09:09:58.362Z</time>
      </trkpt>
      <trkpt lat="45.64978" lon="5.91309">
        <ele>288</ele>
        <time>2022-05-01T09:09:59.362Z</time>
      </trkpt>
      <trkpt lat="45.64976" lon="5.9131">
        <ele>288</ele>
        <time>2022-05-01T09:10:00.361Z</time>
      </trkpt>
      <trkpt lat="45.64975" lon="5.91309">
        <ele>288</ele>
        <time>2022-05-01T09:10:01.361Z</time>
      </trkpt>
      <trkpt lat="45.64975" lon="5.91309">
        <ele>288</ele>
        <time>2022-05-01T09:10:02.361Z</time>
      </trkpt>
      <trkpt lat="45.64975" lon="5.91309">
        <ele>288</ele>
        <time>2022-05-01T09:10:03.361Z</time>
      </trkpt>
      <trkpt lat="45.64974" lon="5.91309">
        <ele>288</ele>
        <time>2022-05-01T09:10:04.361Z</time>
      </trkpt>
      <trkpt lat="45.64974" lon="5.91309">
        <ele>287</ele>
        <time>2022-05-01T09:10:05.361Z</time>
      </trkpt>
      <trkpt lat="45.64972" lon="5.91309">
        <ele>287</ele>
        <time>2022-05-01T09:10:06.362Z</time>
      </trkpt>
      <trkpt lat="45.64971" lon="5.91309">
        <ele>286</ele>
        <time>2022-05-01T09:10:07.362Z</time>
      </trkpt>
      <trkpt lat="45.64969" lon="5.91308">
        <ele>285</ele>
        <time>2022-05-01T09:10:08.362Z</time>
      </trkpt>
      <trkpt lat="45.64968" lon="5.91307">
        <ele>285</ele>
        <time>2022-05-01T09:10:09.361Z</time>
      </trkpt>
      <trkpt lat="45.64967" lon="5.91306">
        <ele>284</ele>
        <time>2022-05-01T09:10:10.362Z</time>
      </trkpt>
      <trkpt lat="45.64965" lon="5.91305">
        <ele>283</ele>
        <time>2022-05-01T09:10:11.362Z</time>
      </trkpt>
      <trkpt lat="45.64963" lon="5.91304">
        <ele>282</ele>
        <time>2022-05-01T09:10:12.362Z</time>
      </trkpt>
      <trkpt lat="45.64961" lon="5.91303">
        <ele>281</ele>
        <time>2022-05-01T09:10:13.361Z</time>
      </trkpt>
      <trkpt lat="45.64959" lon="5.91303">
        <ele>280</ele>
        <time>2022-05-01T09:10:14.362Z</time>
      </trkpt>
      <trkpt lat="45.64957" lon="5.91303">
        <ele>280</ele>
        <time>2022-05-01T09:10:15.361Z</time>
      </trkpt>
      <trkpt lat="45.64956" lon="5.91304">
        <ele>279</ele>
        <time>2022-05-01T09:10:16.362Z</time>
      </trkpt>
      <trkpt lat="45.64954" lon="5.91303">
        <ele>278</ele>
        <time>2022-05-01T09:10:17.362Z</time>
      </trkpt>
      <trkpt lat="45.64954" lon="5.91302">
        <ele>277</ele>
        <time>2022-05-01T09:10:18.362Z</time>
      </trkpt>
      <trkpt lat="45.64953" lon="5.91301">
        <ele>276</ele>
        <time>2022-05-01T09:10:19.361Z</time>
      </trkpt>
      <trkpt lat="45.64953" lon="5.913">
        <ele>275</ele>
        <time>2022-05-01T09:10:20.362Z</time>
      </trkpt>
      <trkpt lat="45.64953" lon="5.91299">
        <ele>274</ele>
        <time>2022-05-01T09:10:21.362Z</time>
      </trkpt>
      <trkpt lat="45.64953" lon="5.91296">
        <ele>274</ele>
        <time>2022-05-01T09:10:22.362Z</time>
      </trkpt>
      <trkpt lat="45.64953" lon="5.91294">
        <ele>273</ele>
        <time>2022-05-01T09:10:23.361Z</time>
      </trkpt>
      <trkpt lat="45.64954" lon="5.91291">
        <ele>273</ele>
        <time>2022-05-01T09:10:24.361Z</time>
      </trkpt>
      <trkpt lat="45.64954" lon="5.91289">
        <ele>272</ele>
        <time>2022-05-01T09:10:25.361Z</time>
      </trkpt>
      <trkpt lat="45.64955" lon="5.91285">
        <ele>272</ele>
        <time>2022-05-01T09:10:26.362Z</time>
      </trkpt>
      <trkpt lat="45.64955" lon="5.91283">
        <ele>272</ele>
        <time>2022-05-01T09:10:27.362Z</time>
      </trkpt>
      <trkpt lat="45.64956" lon="5.9128">
        <ele>271</ele>
        <time>2022-05-01T09:10:28.362Z</time>
      </trkpt>
      <trkpt lat="45.64957" lon="5.91277">
        <ele>271</ele>
        <time>2022-05-01T09:10:29.362Z</time>
      </trkpt>
      <trkpt lat="45.64957" lon="5.91274">
        <ele>271</ele>
        <time>2022-05-01T09:10:30.362Z</time>
      </trkpt>
      <trkpt lat="45.64958" lon="5.9127">
        <ele>270</ele>
        <time>2022-05-01T09:10:31.362Z</time>
      </trkpt>
      <trkpt lat="45.64959" lon="5.91265">
        <ele>269</ele>
        <time>2022-05-01T09:10:32.361Z</time>
      </trkpt>
      <trkpt lat="45.6496" lon="5.91261">
        <ele>269</ele>
        <time>2022-05-01T09:10:33.362Z</time>
      </trkpt>
      <trkpt lat="45.6496" lon="5.91256">
        <ele>268</ele>
        <time>2022-05-01T09:10:34.362Z</time>
      </trkpt>
      <trkpt lat="45.64961" lon="5.91252">
        <ele>267</ele>
        <time>2022-05-01T09:10:35.361Z</time>
      </trkpt>
      <trkpt lat="45.64961" lon="5.91248">
        <ele>267</ele>
        <time>2022-05-01T09:10:36.362Z</time>
      </trkpt>
      <trkpt lat="45.64961" lon="5.91243">
        <ele>266</ele>
        <time>2022-05-01T09:10:37.362Z</time>
      </trkpt>
      <trkpt lat="45.64961" lon="5.91239">
        <ele>266</ele>
        <time>2022-05-01T09:10:38.361Z</time>
      </trkpt>
      <trkpt lat="45.64962" lon="5.91234">
        <ele>266</ele>
        <time>2022-05-01T09:10:39.362Z</time>
      </trkpt>
      <trkpt lat="45.64962" lon="5.91228">
        <ele>265</ele>
        <time>2022-05-01T09:10:40.362Z</time>
      </trkpt>
      <trkpt lat="45.64962" lon="5.91223">
        <ele>265</ele>
        <time>2022-05-01T09:10:41.362Z</time>
      </trkpt>
      <trkpt lat="45.64961" lon="5.91218">
        <ele>264</ele>
        <time>2022-05-01T09:10:42.361Z</time>
      </trkpt>
      <trkpt lat="45.64961" lon="5.91214">
        <ele>264</ele>
        <time>2022-05-01T09:10:43.361Z</time>
      </trkpt>
      <trkpt lat="45.6496" lon="5.91208">
        <ele>263</ele>
        <time>2022-05-01T09:10:44.361Z</time>
      </trkpt>
      <trkpt lat="45.6496" lon="5.91204">
        <ele>263</ele>
        <time>2022-05-01T09:10:45.361Z</time>
      </trkpt>
      <trkpt lat="45.64959" lon="5.91198">
        <ele>263</ele>
        <time>2022-05-01T09:10:46.361Z</time>
      </trkpt>
      <trkpt lat="45.64959" lon="5.91194">
        <ele>263</ele>
        <time>2022-05-01T09:10:47.361Z</time>
      </trkpt>
      <trkpt lat="45.64959" lon="5.91189">
        <ele>263</ele>
        <time>2022-05-01T09:10:48.362Z</time>
      </trkpt>
      <trkpt lat="45.64959" lon="5.91184">
        <ele>263</ele>
        <time>2022-05-01T09:10:49.362Z</time>
      </trkpt>
      <trkpt lat="45.64958" lon="5.91179">
        <ele>264</ele>
        <time>2022-05-01T09:10:50.362Z</time>
      </trkpt>
      <trkpt lat="45.64958" lon="5.91175">
        <ele>265</ele>
        <time>2022-05-01T09:10:51.362Z</time>
      </trkpt>
      <trkpt lat="45.64958" lon="5.91171">
        <ele>266</ele>
        <time>2022-05-01T09:10:52.362Z</time>
      </trkpt>
      <trkpt lat="45.64958" lon="5.91165">
        <ele>266</ele>
        <time>2022-05-01T09:10:53.361Z</time>
      </trkpt>
      <trkpt lat="45.64958" lon="5.91161">
        <ele>267</ele>
        <time>2022-05-01T09:10:54.362Z</time>
      </trkpt>
      <trkpt lat="45.64959" lon="5.91157">
        <ele>267</ele>
        <time>2022-05-01T09:10:55.361Z</time>
      </trkpt>
      <trkpt lat="45.64959" lon="5.91152">
        <ele>268</ele>
        <time>2022-05-01T09:10:56.362Z</time>
      </trkpt>
      <trkpt lat="45.6496" lon="5.91149">
        <ele>268</ele>
        <time>2022-05-01T09:10:57.362Z</time>
      </trkpt>
      <trkpt lat="45.64961" lon="5.91144">
        <ele>269</ele>
        <time>2022-05-01T09:10:58.362Z</time>
      </trkpt>
      <trkpt lat="45.64963" lon="5.9114">
        <ele>269</ele>
        <time>2022-05-01T09:10:59.362Z</time>
      </trkpt>
      <trkpt lat="45.64964" lon="5.91136">
        <ele>270</ele>
        <time>2022-05-01T09:11:00.362Z</time>
      </trkpt>
      <trkpt lat="45.64965" lon="5.91132">
        <ele>270</ele>
        <time>2022-05-01T09:11:01.362Z</time>
      </trkpt>
      <trkpt lat="45.64967" lon="5.91127">
        <ele>270</ele>
        <time>2022-05-01T09:11:02.362Z</time>
      </trkpt>
      <trkpt lat="45.64969" lon="5.91123">
        <ele>270</ele>
        <time>2022-05-01T09:11:03.362Z</time>
      </trkpt>
      <trkpt lat="45.64971" lon="5.91119">
        <ele>270</ele>
        <time>2022-05-01T09:11:04.361Z</time>
      </trkpt>
      <trkpt lat="45.64973" lon="5.91115">
        <ele>270</ele>
        <time>2022-05-01T09:11:05.361Z</time>
      </trkpt>
      <trkpt lat="45.64975" lon="5.91111">
        <ele>270</ele>
        <time>2022-05-01T09:11:06.362Z</time>
      </trkpt>
      <trkpt lat="45.64978" lon="5.91106">
        <ele>270</ele>
        <time>2022-05-01T09:11:07.361Z</time>
      </trkpt>
      <trkpt lat="45.6498" lon="5.91101">
        <ele>270</ele>
        <time>2022-05-01T09:11:08.362Z</time>
      </trkpt>
      <trkpt lat="45.64982" lon="5.91097">
        <ele>270</ele>
        <time>2022-05-01T09:11:09.362Z</time>
      </trkpt>
      <trkpt lat="45.64985" lon="5.91093">
        <ele>269</ele>
        <time>2022-05-01T09:11:10.362Z</time>
      </trkpt>
      <trkpt lat="45.64987" lon="5.91088">
        <ele>270</ele>
        <time>2022-05-01T09:11:11.362Z</time>
      </trkpt>
      <trkpt lat="45.64989" lon="5.91083">
        <ele>270</ele>
        <time>2022-05-01T09:11:12.361Z</time>
      </trkpt>
      <trkpt lat="45.64992" lon="5.91078">
        <ele>270</ele>
        <time>2022-05-01T09:11:13.362Z</time>
      </trkpt>
      <trkpt lat="45.64994" lon="5.91074">
        <ele>271</ele>
        <time>2022-05-01T09:11:14.362Z</time>
      </trkpt>
      <trkpt lat="45.64996" lon="5.91069">
        <ele>272</ele>
        <time>2022-05-01T09:11:15.362Z</time>
      </trkpt>
      <trkpt lat="45.64999" lon="5.91063">
        <ele>272</ele>
        <time>2022-05-01T09:11:16.362Z</time>
      </trkpt>
      <trkpt lat="45.65002" lon="5.91058">
        <ele>272</ele>
        <time>2022-05-01T09:11:17.362Z</time>
      </trkpt>
      <trkpt lat="45.65004" lon="5.91053">
        <ele>272</ele>
        <time>2022-05-01T09:11:18.362Z</time>
      </trkpt>
      <trkpt lat="45.65006" lon="5.91049">
        <ele>272</ele>
        <time>2022-05-01T09:11:19.362Z</time>
      </trkpt>
      <trkpt lat="45.65009" lon="5.91043">
        <ele>272</ele>
        <time>2022-05-01T09:11:20.361Z</time>
      </trkpt>
      <trkpt lat="45.65011" lon="5.91038">
        <ele>272</ele>
        <time>2022-05-01T09:11:21.361Z</time>
      </trkpt>
      <trkpt lat="45.65013" lon="5.91033">
        <ele>272</ele>
        <time>2022-05-01T09:11:22.362Z</time>
      </trkpt>
      <trkpt lat="45.65015" lon="5.91029">
        <ele>272</ele>
        <time>2022-05-01T09:11:23.362Z</time>
      </trkpt>
      <trkpt lat="45.65017" lon="5.91024">
        <ele>272</ele>
        <time>2022-05-01T09:11:24.362Z</time>
      </trkpt>
      <trkpt lat="45.6502" lon="5.91021">
        <ele>272</ele>
        <time>2022-05-01T09:11:25.362Z</time>
      </trkpt>
      <trkpt lat="45.65022" lon="5.9102">
        <ele>272</ele>
        <time>2022-05-01T09:11:26.362Z</time>
      </trkpt>
      <trkpt lat="45.65025" lon="5.91021">
        <ele>272</ele>
        <time>2022-05-01T09:11:27.362Z</time>
      </trkpt>
      <trkpt lat="45.65028" lon="5.91023">
        <ele>271</ele>
        <time>2022-05-01T09:11:28.362Z</time>
      </trkpt>
      <trkpt lat="45.6503" lon="5.91025">
        <ele>271</ele>
        <time>2022-05-01T09:11:29.362Z</time>
      </trkpt>
      <trkpt lat="45.65033" lon="5.91028">
        <ele>271</ele>
        <time>2022-05-01T09:11:30.362Z</time>
      </trkpt>
      <trkpt lat="45.65035" lon="5.91031">
        <ele>272</ele>
        <time>2022-05-01T09:11:31.362Z</time>
      </trkpt>
      <trkpt lat="45.65038" lon="5.91034">
        <ele>272</ele>
        <time>2022-05-01T09:11:32.362Z</time>
      </trkpt>
      <trkpt lat="45.65041" lon="5.91037">
        <ele>271</ele>
        <time>2022-05-01T09:11:33.362Z</time>
      </trkpt>
      <trkpt lat="45.65044" lon="5.9104">
        <ele>271</ele>
        <time>2022-05-01T09:11:34.362Z</time>
      </trkpt>
      <trkpt lat="45.65046" lon="5.91043">
        <ele>271</ele>
        <time>2022-05-01T09:11:35.362Z</time>
      </trkpt>
      <trkpt lat="45.65049" lon="5.91046">
        <ele>271</ele>
        <time>2022-05-01T09:11:36.361Z</time>
      </trkpt>
      <trkpt lat="45.65052" lon="5.91049">
        <ele>270</ele>
        <time>2022-05-01T09:11:37.362Z</time>
      </trkpt>
      <trkpt lat="45.65054" lon="5.91052">
        <ele>270</ele>
        <time>2022-05-01T09:11:38.362Z</time>
      </trkpt>
      <trkpt lat="45.65057" lon="5.91055">
        <ele>270</ele>
        <time>2022-05-01T09:11:39.362Z</time>
      </trkpt>
      <trkpt lat="45.65059" lon="5.91058">
        <ele>269</ele>
        <time>2022-05-01T09:11:40.361Z</time>
      </trkpt>
      <trkpt lat="45.65061" lon="5.91061">
        <ele>269</ele>
        <time>2022-05-01T09:11:41.362Z</time>
      </trkpt>
      <trkpt lat="45.65064" lon="5.91063">
        <ele>269</ele>
        <time>2022-05-01T09:11:42.362Z</time>
      </trkpt>
      <trkpt lat="45.65066" lon="5.91066">
        <ele>269</ele>
        <time>2022-05-01T09:11:43.362Z</time>
      </trkpt>
      <trkpt lat="45.65069" lon="5.91069">
        <ele>269</ele>
        <time>2022-05-01T09:11:44.362Z</time>
      </trkpt>
      <trkpt lat="45.6507" lon="5.91071">
        <ele>270</ele>
        <time>2022-05-01T09:11:45.362Z</time>
      </trkpt>
      <trkpt lat="45.65072" lon="5.91073">
        <ele>271</ele>
        <time>2022-05-01T09:11:46.361Z</time>
      </trkpt>
      <trkpt lat="45.65074" lon="5.91076">
        <ele>271</ele>
        <time>2022-05-01T09:11:47.361Z</time>
      </trkpt>
      <trkpt lat="45.65076" lon="5.91078">
        <ele>272</ele>
        <time>2022-05-01T09:11:48.362Z</time>
      </trkpt>
      <trkpt lat="45.65078" lon="5.9108">
        <ele>273</ele>
        <time>2022-05-01T09:11:49.362Z</time>
      </trkpt>
      <trkpt lat="45.65079" lon="5.91082">
        <ele>273</ele>
        <time>2022-05-01T09:11:50.362Z</time>
      </trkpt>
      <trkpt lat="45.65082" lon="5.91085">
        <ele>274</ele>
        <time>2022-05-01T09:11:51.362Z</time>
      </trkpt>
      <trkpt lat="45.65084" lon="5.91088">
        <ele>274</ele>
        <time>2022-05-01T09:11:52.361Z</time>
      </trkpt>
      <trkpt lat="45.65086" lon="5.9109">
        <ele>274</ele>
        <time>2022-05-01T09:11:53.362Z</time>
      </trkpt>
      <trkpt lat="45.65088" lon="5.91092">
        <ele>275</ele>
        <time>2022-05-01T09:11:54.362Z</time>
      </trkpt>
      <trkpt lat="45.6509" lon="5.91094">
        <ele>276</ele>
        <time>2022-05-01T09:11:55.362Z</time>
      </trkpt>
      <trkpt lat="45.65092" lon="5.91096">
        <ele>276</ele>
        <time>2022-05-01T09:11:56.361Z</time>
      </trkpt>
      <trkpt lat="45.65094" lon="5.91098">
        <ele>276</ele>
        <time>2022-05-01T09:11:57.362Z</time>
      </trkpt>
      <trkpt lat="45.65096" lon="5.911">
        <ele>276</ele>
        <time>2022-05-01T09:11:58.362Z</time>
      </trkpt>
      <trkpt lat="45.65098" lon="5.91103">
        <ele>277</ele>
        <time>2022-05-01T09:11:59.361Z</time>
      </trkpt>
      <trkpt lat="45.651" lon="5.91105">
        <ele>277</ele>
        <time>2022-05-01T09:12:00.362Z</time>
      </trkpt>
      <trkpt lat="45.65101" lon="5.91107">
        <ele>277</ele>
        <time>2022-05-01T09:12:01.362Z</time>
      </trkpt>
      <trkpt lat="45.65103" lon="5.91109">
        <ele>277</ele>
        <time>2022-05-01T09:12:02.362Z</time>
      </trkpt>
      <trkpt lat="45.65105" lon="5.91112">
        <ele>276</ele>
        <time>2022-05-01T09:12:03.361Z</time>
      </trkpt>
      <trkpt lat="45.65107" lon="5.91114">
        <ele>276</ele>
        <time>2022-05-01T09:12:04.361Z</time>
      </trkpt>
      <trkpt lat="45.65108" lon="5.91115">
        <ele>276</ele>
        <time>2022-05-01T09:12:05.361Z</time>
      </trkpt>
      <trkpt lat="45.6511" lon="5.91118">
        <ele>276</ele>
        <time>2022-05-01T09:12:06.362Z</time>
      </trkpt>
      <trkpt lat="45.65112" lon="5.9112">
        <ele>276</ele>
        <time>2022-05-01T09:12:07.361Z</time>
      </trkpt>
      <trkpt lat="45.65113" lon="5.91122">
        <ele>277</ele>
        <time>2022-05-01T09:12:08.362Z</time>
      </trkpt>
      <trkpt lat="45.65115" lon="5.91124">
        <ele>277</ele>
        <time>2022-05-01T09:12:09.362Z</time>
      </trkpt>
      <trkpt lat="45.65117" lon="5.91127">
        <ele>278</ele>
        <time>2022-05-01T09:12:10.362Z</time>
      </trkpt>
      <trkpt lat="45.65118" lon="5.91129">
        <ele>278</ele>
        <time>2022-05-01T09:12:11.362Z</time>
      </trkpt>
      <trkpt lat="45.6512" lon="5.91132">
        <ele>278</ele>
        <time>2022-05-01T09:12:12.361Z</time>
      </trkpt>
      <trkpt lat="45.65122" lon="5.91135">
        <ele>279</ele>
        <time>2022-05-01T09:12:13.362Z</time>
      </trkpt>
      <trkpt lat="45.65124" lon="5.91138">
        <ele>279</ele>
        <time>2022-05-01T09:12:14.362Z</time>
      </trkpt>
      <trkpt lat="45.65126" lon="5.91141">
        <ele>279</ele>
        <time>2022-05-01T09:12:15.361Z</time>
      </trkpt>
      <trkpt lat="45.65128" lon="5.91144">
        <ele>279</ele>
        <time>2022-05-01T09:12:16.362Z</time>
      </trkpt>
      <trkpt lat="45.65131" lon="5.91146">
        <ele>279</ele>
        <time>2022-05-01T09:12:17.362Z</time>
      </trkpt>
      <trkpt lat="45.65133" lon="5.91149">
        <ele>280</ele>
        <time>2022-05-01T09:12:18.362Z</time>
      </trkpt>
      <trkpt lat="45.65136" lon="5.91152">
        <ele>280</ele>
        <time>2022-05-01T09:12:19.361Z</time>
      </trkpt>
      <trkpt lat="45.65138" lon="5.91155">
        <ele>280</ele>
        <time>2022-05-01T09:12:20.362Z</time>
      </trkpt>
      <trkpt lat="45.65141" lon="5.91158">
        <ele>280</ele>
        <time>2022-05-01T09:12:21.362Z</time>
      </trkpt>
      <trkpt lat="45.65144" lon="5.91161">
        <ele>280</ele>
        <time>2022-05-01T09:12:22.362Z</time>
      </trkpt>
      <trkpt lat="45.65147" lon="5.91164">
        <ele>280</ele>
        <time>2022-05-01T09:12:23.362Z</time>
      </trkpt>
      <trkpt lat="45.6515" lon="5.91166">
        <ele>280</ele>
        <time>2022-05-01T09:12:24.362Z</time>
      </trkpt>
      <trkpt lat="45.65153" lon="5.91169">
        <ele>280</ele>
        <time>2022-05-01T09:12:25.362Z</time>
      </trkpt>
      <trkpt lat="45.65156" lon="5.91171">
        <ele>280</ele>
        <time>2022-05-01T09:12:26.361Z</time>
      </trkpt>
      <trkpt lat="45.65159" lon="5.91173">
        <ele>280</ele>
        <time>2022-05-01T09:12:27.361Z</time>
      </trkpt>
      <trkpt lat="45.65162" lon="5.91176">
        <ele>280</ele>
        <time>2022-05-01T09:12:28.362Z</time>
      </trkpt>
      <trkpt lat="45.65165" lon="5.91178">
        <ele>281</ele>
        <time>2022-05-01T09:12:29.362Z</time>
      </trkpt>
      <trkpt lat="45.65167" lon="5.9118">
        <ele>281</ele>
        <time>2022-05-01T09:12:30.362Z</time>
      </trkpt>
      <trkpt lat="45.6517" lon="5.91183">
        <ele>281</ele>
        <time>2022-05-01T09:12:31.362Z</time>
      </trkpt>
      <trkpt lat="45.65173" lon="5.91185">
        <ele>281</ele>
        <time>2022-05-01T09:12:32.361Z</time>
      </trkpt>
      <trkpt lat="45.65176" lon="5.91186">
        <ele>281</ele>
        <time>2022-05-01T09:12:33.362Z</time>
      </trkpt>
      <trkpt lat="45.65179" lon="5.91188">
        <ele>281</ele>
        <time>2022-05-01T09:12:34.361Z</time>
      </trkpt>
      <trkpt lat="45.65182" lon="5.91189">
        <ele>281</ele>
        <time>2022-05-01T09:12:35.361Z</time>
      </trkpt>
      <trkpt lat="45.65185" lon="5.91192">
        <ele>282</ele>
        <time>2022-05-01T09:12:36.362Z</time>
      </trkpt>
      <trkpt lat="45.65188" lon="5.91194">
        <ele>282</ele>
        <time>2022-05-01T09:12:37.362Z</time>
      </trkpt>
      <trkpt lat="45.65191" lon="5.91196">
        <ele>282</ele>
        <time>2022-05-01T09:12:38.362Z</time>
      </trkpt>
      <trkpt lat="45.65194" lon="5.91197">
        <ele>282</ele>
        <time>2022-05-01T09:12:39.362Z</time>
      </trkpt>
      <trkpt lat="45.65197" lon="5.91199">
        <ele>282</ele>
        <time>2022-05-01T09:12:40.362Z</time>
      </trkpt>
      <trkpt lat="45.652" lon="5.91201">
        <ele>282</ele>
        <time>2022-05-01T09:12:41.361Z</time>
      </trkpt>
      <trkpt lat="45.65202" lon="5.91202">
        <ele>282</ele>
        <time>2022-05-01T09:12:42.362Z</time>
      </trkpt>
      <trkpt lat="45.65205" lon="5.91204">
        <ele>283</ele>
        <time>2022-05-01T09:12:43.362Z</time>
      </trkpt>
      <trkpt lat="45.65208" lon="5.91205">
        <ele>283</ele>
        <time>2022-05-01T09:12:44.362Z</time>
      </trkpt>
      <trkpt lat="45.65211" lon="5.91207">
        <ele>283</ele>
        <time>2022-05-01T09:12:45.361Z</time>
      </trkpt>
      <trkpt lat="45.65214" lon="5.91208">
        <ele>284</ele>
        <time>2022-05-01T09:12:46.361Z</time>
      </trkpt>
      <trkpt lat="45.65217" lon="5.91209">
        <ele>284</ele>
        <time>2022-05-01T09:12:47.362Z</time>
      </trkpt>
      <trkpt lat="45.65219" lon="5.9121">
        <ele>284</ele>
        <time>2022-05-01T09:12:48.362Z</time>
      </trkpt>
      <trkpt lat="45.65222" lon="5.91211">
        <ele>284</ele>
        <time>2022-05-01T09:12:49.362Z</time>
      </trkpt>
      <trkpt lat="45.65225" lon="5.91212">
        <ele>284</ele>
        <time>2022-05-01T09:12:50.362Z</time>
      </trkpt>
      <trkpt lat="45.65228" lon="5.91213">
        <ele>284</ele>
        <time>2022-05-01T09:12:51.362Z</time>
      </trkpt>
      <trkpt lat="45.65231" lon="5.91214">
        <ele>284</ele>
        <time>2022-05-01T09:12:52.362Z</time>
      </trkpt>
      <trkpt lat="45.65235" lon="5.91215">
        <ele>284</ele>
        <time>2022-05-01T09:12:53.361Z</time>
      </trkpt>
      <trkpt lat="45.65238" lon="5.91216">
        <ele>285</ele>
        <time>2022-05-01T09:12:54.362Z</time>
      </trkpt>
      <trkpt lat="45.65242" lon="5.91217">
        <ele>285</ele>
        <time>2022-05-01T09:12:55.362Z</time>
      </trkpt>
      <trkpt lat="45.65245" lon="5.91218">
        <ele>285</ele>
        <time>2022-05-01T09:12:56.361Z</time>
      </trkpt>
      <trkpt lat="45.65249" lon="5.91219">
        <ele>285</ele>
        <time>2022-05-01T09:12:57.361Z</time>
      </trkpt>
      <trkpt lat="45.65252" lon="5.9122">
        <ele>284</ele>
        <time>2022-05-01T09:12:58.361Z</time>
      </trkpt>
      <trkpt lat="45.65256" lon="5.91221">
        <ele>284</ele>
        <time>2022-05-01T09:12:59.362Z</time>
      </trkpt>
      <trkpt lat="45.6526" lon="5.91222">
        <ele>285</ele>
        <time>2022-05-01T09:13:00.361Z</time>
      </trkpt>
      <trkpt lat="45.65264" lon="5.91223">
        <ele>285</ele>
        <time>2022-05-01T09:13:01.361Z</time>
      </trkpt>
      <trkpt lat="45.65268" lon="5.91224">
        <ele>285</ele>
        <time>2022-05-01T09:13:02.362Z</time>
      </trkpt>
      <trkpt lat="45.65272" lon="5.91225">
        <ele>285</ele>
        <time>2022-05-01T09:13:03.361Z</time>
      </trkpt>
      <trkpt lat="45.65276" lon="5.91226">
        <ele>285</ele>
        <time>2022-05-01T09:13:04.362Z</time>
      </trkpt>
      <trkpt lat="45.6528" lon="5.91227">
        <ele>286</ele>
        <time>2022-05-01T09:13:05.362Z</time>
      </trkpt>
      <trkpt lat="45.65284" lon="5.91228">
        <ele>286</ele>
        <time>2022-05-01T09:13:06.362Z</time>
      </trkpt>
      <trkpt lat="45.65288" lon="5.9123">
        <ele>286</ele>
        <time>2022-05-01T09:13:07.361Z</time>
      </trkpt>
      <trkpt lat="45.65292" lon="5.91231">
        <ele>287</ele>
        <time>2022-05-01T09:13:08.361Z</time>
      </trkpt>
      <trkpt lat="45.65296" lon="5.91232">
        <ele>287</ele>
        <time>2022-05-01T09:13:09.362Z</time>
      </trkpt>
      <trkpt lat="45.65299" lon="5.91234">
        <ele>286</ele>
        <time>2022-05-01T09:13:10.362Z</time>
      </trkpt>
      <trkpt lat="45.65303" lon="5.91235">
        <ele>286</ele>
        <time>2022-05-01T09:13:11.362Z</time>
      </trkpt>
      <trkpt lat="45.65306" lon="5.91236">
        <ele>286</ele>
        <time>2022-05-01T09:13:12.362Z</time>
      </trkpt>
      <trkpt lat="45.6531" lon="5.91237">
        <ele>286</ele>
        <time>2022-05-01T09:13:13.362Z</time>
      </trkpt>
      <trkpt lat="45.65314" lon="5.91238">
        <ele>286</ele>
        <time>2022-05-01T09:13:14.362Z</time>
      </trkpt>
      <trkpt lat="45.65317" lon="5.91239">
        <ele>286</ele>
        <time>2022-05-01T09:13:15.362Z</time>
      </trkpt>
      <trkpt lat="45.6532" lon="5.91241">
        <ele>286</ele>
        <time>2022-05-01T09:13:16.362Z</time>
      </trkpt>
      <trkpt lat="45.65323" lon="5.91242">
        <ele>286</ele>
        <time>2022-05-01T09:13:17.362Z</time>
      </trkpt>
      <trkpt lat="45.65327" lon="5.91244">
        <ele>286</ele>
        <time>2022-05-01T09:13:18.362Z</time>
      </trkpt>
      <trkpt lat="45.6533" lon="5.91246">
        <ele>286</ele>
        <time>2022-05-01T09:13:19.362Z</time>
      </trkpt>
      <trkpt lat="45.65333" lon="5.91248">
        <ele>286</ele>
        <time>2022-05-01T09:13:20.362Z</time>
      </trkpt>
      <trkpt lat="45.65336" lon="5.91249">
        <ele>286</ele>
        <time>2022-05-01T09:13:21.362Z</time>
      </trkpt>
      <trkpt lat="45.65339" lon="5.9125">
        <ele>285</ele>
        <time>2022-05-01T09:13:22.362Z</time>
      </trkpt>
      <trkpt lat="45.65343" lon="5.91252">
        <ele>285</ele>
        <time>2022-05-01T09:13:23.362Z</time>
      </trkpt>
      <trkpt lat="45.65346" lon="5.91253">
        <ele>285</ele>
        <time>2022-05-01T09:13:24.362Z</time>
      </trkpt>
      <trkpt lat="45.65349" lon="5.91255">
        <ele>285</ele>
        <time>2022-05-01T09:13:25.361Z</time>
      </trkpt>
      <trkpt lat="45.65353" lon="5.91256">
        <ele>285</ele>
        <time>2022-05-01T09:13:26.362Z</time>
      </trkpt>
      <trkpt lat="45.65356" lon="5.91257">
        <ele>285</ele>
        <time>2022-05-01T09:13:27.361Z</time>
      </trkpt>
      <trkpt lat="45.6536" lon="5.91259">
        <ele>285</ele>
        <time>2022-05-01T09:13:28.362Z</time>
      </trkpt>
      <trkpt lat="45.65364" lon="5.9126">
        <ele>284</ele>
        <time>2022-05-01T09:13:29.362Z</time>
      </trkpt>
      <trkpt lat="45.65368" lon="5.91262">
        <ele>284</ele>
        <time>2022-05-01T09:13:30.362Z</time>
      </trkpt>
      <trkpt lat="45.65373" lon="5.91263">
        <ele>284</ele>
        <time>2022-05-01T09:13:31.362Z</time>
      </trkpt>
      <trkpt lat="45.65377" lon="5.91265">
        <ele>285</ele>
        <time>2022-05-01T09:13:32.362Z</time>
      </trkpt>
      <trkpt lat="45.65383" lon="5.91267">
        <ele>285</ele>
        <time>2022-05-01T09:13:33.362Z</time>
      </trkpt>
      <trkpt lat="45.65388" lon="5.91268">
        <ele>284</ele>
        <time>2022-05-01T09:13:34.362Z</time>
      </trkpt>
      <trkpt lat="45.65394" lon="5.9127">
        <ele>284</ele>
        <time>2022-05-01T09:13:35.362Z</time>
      </trkpt>
      <trkpt lat="45.65399" lon="5.91271">
        <ele>283</ele>
        <time>2022-05-01T09:13:36.362Z</time>
      </trkpt>
      <trkpt lat="45.65405" lon="5.91273">
        <ele>283</ele>
        <time>2022-05-01T09:13:37.362Z</time>
      </trkpt>
      <trkpt lat="45.6541" lon="5.91276">
        <ele>283</ele>
        <time>2022-05-01T09:13:38.362Z</time>
      </trkpt>
      <trkpt lat="45.65416" lon="5.91279">
        <ele>283</ele>
        <time>2022-05-01T09:13:39.362Z</time>
      </trkpt>
      <trkpt lat="45.65422" lon="5.91282">
        <ele>283</ele>
        <time>2022-05-01T09:13:40.362Z</time>
      </trkpt>
      <trkpt lat="45.65427" lon="5.91286">
        <ele>283</ele>
        <time>2022-05-01T09:13:41.361Z</time>
      </trkpt>
      <trkpt lat="45.65432" lon="5.91291">
        <ele>283</ele>
        <time>2022-05-01T09:13:42.362Z</time>
      </trkpt>
      <trkpt lat="45.65436" lon="5.91297">
        <ele>283</ele>
        <time>2022-05-01T09:13:43.361Z</time>
      </trkpt>
      <trkpt lat="45.6544" lon="5.91302">
        <ele>282</ele>
        <time>2022-05-01T09:13:44.362Z</time>
      </trkpt>
      <trkpt lat="45.65446" lon="5.91309">
        <ele>282</ele>
        <time>2022-05-01T09:13:45.362Z</time>
      </trkpt>
      <trkpt lat="45.6545" lon="5.91316">
        <ele>281</ele>
        <time>2022-05-01T09:13:46.362Z</time>
      </trkpt>
      <trkpt lat="45.65454" lon="5.91323">
        <ele>281</ele>
        <time>2022-05-01T09:13:47.362Z</time>
      </trkpt>
      <trkpt lat="45.65457" lon="5.91329">
        <ele>281</ele>
        <time>2022-05-01T09:13:48.362Z</time>
      </trkpt>
      <trkpt lat="45.65459" lon="5.91336">
        <ele>280</ele>
        <time>2022-05-01T09:13:49.362Z</time>
      </trkpt>
      <trkpt lat="45.65461" lon="5.91344">
        <ele>280</ele>
        <time>2022-05-01T09:13:50.362Z</time>
      </trkpt>
      <trkpt lat="45.65462" lon="5.91348">
        <ele>280</ele>
        <time>2022-05-01T09:13:51.362Z</time>
      </trkpt>
      <trkpt lat="45.65463" lon="5.91351">
        <ele>279</ele>
        <time>2022-05-01T09:13:52.362Z</time>
      </trkpt>
      <trkpt lat="45.65464" lon="5.91354">
        <ele>279</ele>
        <time>2022-05-01T09:13:53.362Z</time>
      </trkpt>
      <trkpt lat="45.65465" lon="5.91356">
        <ele>278</ele>
        <time>2022-05-01T09:13:54.362Z</time>
      </trkpt>
      <trkpt lat="45.65466" lon="5.91357">
        <ele>277</ele>
        <time>2022-05-01T09:13:55.362Z</time>
      </trkpt>
      <trkpt lat="45.65468" lon="5.91359">
        <ele>276</ele>
        <time>2022-05-01T09:13:56.362Z</time>
      </trkpt>
      <trkpt lat="45.6547" lon="5.91361">
        <ele>276</ele>
        <time>2022-05-01T09:13:57.362Z</time>
      </trkpt>
      <trkpt lat="45.65473" lon="5.91361">
        <ele>275</ele>
        <time>2022-05-01T09:13:58.361Z</time>
      </trkpt>
      <trkpt lat="45.65477" lon="5.91361">
        <ele>275</ele>
        <time>2022-05-01T09:13:59.362Z</time>
      </trkpt>
      <trkpt lat="45.6548" lon="5.91361">
        <ele>275</ele>
        <time>2022-05-01T09:14:00.362Z</time>
      </trkpt>
      <trkpt lat="45.65484" lon="5.91361">
        <ele>275</ele>
        <time>2022-05-01T09:14:01.362Z</time>
      </trkpt>
      <trkpt lat="45.65489" lon="5.91361">
        <ele>274</ele>
        <time>2022-05-01T09:14:02.362Z</time>
      </trkpt>
      <trkpt lat="45.65495" lon="5.9136">
        <ele>274</ele>
        <time>2022-05-01T09:14:03.361Z</time>
      </trkpt>
      <trkpt lat="45.65502" lon="5.9136">
        <ele>275</ele>
        <time>2022-05-01T09:14:04.362Z</time>
      </trkpt>
      <trkpt lat="45.65508" lon="5.91359">
        <ele>275</ele>
        <time>2022-05-01T09:14:05.362Z</time>
      </trkpt>
      <trkpt lat="45.65514" lon="5.91359">
        <ele>276</ele>
        <time>2022-05-01T09:14:06.362Z</time>
      </trkpt>
      <trkpt lat="45.65519" lon="5.91359">
        <ele>276</ele>
        <time>2022-05-01T09:14:07.362Z</time>
      </trkpt>
      <trkpt lat="45.65525" lon="5.91359">
        <ele>276</ele>
        <time>2022-05-01T09:14:08.362Z</time>
      </trkpt>
      <trkpt lat="45.65533" lon="5.91361">
        <ele>276</ele>
        <time>2022-05-01T09:14:09.362Z</time>
      </trkpt>
      <trkpt lat="45.65539" lon="5.91363">
        <ele>276</ele>
        <time>2022-05-01T09:14:10.362Z</time>
      </trkpt>
      <trkpt lat="45.65545" lon="5.91365">
        <ele>276</ele>
        <time>2022-05-01T09:14:11.362Z</time>
      </trkpt>
      <trkpt lat="45.65549" lon="5.91367">
        <ele>276</ele>
        <time>2022-05-01T09:14:12.362Z</time>
      </trkpt>
      <trkpt lat="45.65554" lon="5.91371">
        <ele>275</ele>
        <time>2022-05-01T09:14:13.362Z</time>
      </trkpt>
      <trkpt lat="45.65559" lon="5.91378">
        <ele>275</ele>
        <time>2022-05-01T09:14:14.362Z</time>
      </trkpt>
      <trkpt lat="45.65563" lon="5.91384">
        <ele>275</ele>
        <time>2022-05-01T09:14:15.362Z</time>
      </trkpt>
      <trkpt lat="45.65567" lon="5.91391">
        <ele>275</ele>
        <time>2022-05-01T09:14:16.362Z</time>
      </trkpt>
      <trkpt lat="45.6557" lon="5.91396">
        <ele>275</ele>
        <time>2022-05-01T09:14:17.361Z</time>
      </trkpt>
      <trkpt lat="45.65576" lon="5.91401">
        <ele>274</ele>
        <time>2022-05-01T09:14:18.362Z</time>
      </trkpt>
      <trkpt lat="45.65581" lon="5.91405">
        <ele>274</ele>
        <time>2022-05-01T09:14:19.362Z</time>
      </trkpt>
      <trkpt lat="45.65587" lon="5.91407">
        <ele>274</ele>
        <time>2022-05-01T09:14:20.361Z</time>
      </trkpt>
      <trkpt lat="45.65592" lon="5.91408">
        <ele>274</ele>
        <time>2022-05-01T09:14:21.362Z</time>
      </trkpt>
      <trkpt lat="45.65598" lon="5.91409">
        <ele>275</ele>
        <time>2022-05-01T09:14:22.361Z</time>
      </trkpt>
      <trkpt lat="45.65603" lon="5.91412">
        <ele>275</ele>
        <time>2022-05-01T09:14:23.361Z</time>
      </trkpt>
      <trkpt lat="45.65609" lon="5.91415">
        <ele>275</ele>
        <time>2022-05-01T09:14:24.362Z</time>
      </trkpt>
      <trkpt lat="45.65614" lon="5.91419">
        <ele>274</ele>
        <time>2022-05-01T09:14:25.362Z</time>
      </trkpt>
      <trkpt lat="45.65619" lon="5.91423">
        <ele>274</ele>
        <time>2022-05-01T09:14:26.362Z</time>
      </trkpt>
      <trkpt lat="45.65625" lon="5.91426">
        <ele>274</ele>
        <time>2022-05-01T09:14:27.362Z</time>
      </trkpt>
      <trkpt lat="45.6563" lon="5.9143">
        <ele>274</ele>
        <time>2022-05-01T09:14:28.362Z</time>
      </trkpt>
      <trkpt lat="45.65636" lon="5.91433">
        <ele>274</ele>
        <time>2022-05-01T09:14:29.362Z</time>
      </trkpt>
      <trkpt lat="45.65641" lon="5.91435">
        <ele>274</ele>
        <time>2022-05-01T09:14:30.362Z</time>
      </trkpt>
      <trkpt lat="45.65646" lon="5.91438">
        <ele>274</ele>
        <time>2022-05-01T09:14:31.361Z</time>
      </trkpt>
      <trkpt lat="45.65651" lon="5.9144">
        <ele>273</ele>
        <time>2022-05-01T09:14:32.362Z</time>
      </trkpt>
      <trkpt lat="45.65658" lon="5.91442">
        <ele>273</ele>
        <time>2022-05-01T09:14:33.362Z</time>
      </trkpt>
      <trkpt lat="45.65662" lon="5.91443">
        <ele>273</ele>
        <time>2022-05-01T09:14:34.362Z</time>
      </trkpt>
      <trkpt lat="45.65667" lon="5.91444">
        <ele>273</ele>
        <time>2022-05-01T09:14:35.362Z</time>
      </trkpt>
      <trkpt lat="45.65672" lon="5.91444">
        <ele>273</ele>
        <time>2022-05-01T09:14:36.362Z</time>
      </trkpt>
      <trkpt lat="45.65678" lon="5.91444">
        <ele>274</ele>
        <time>2022-05-01T09:14:37.361Z</time>
      </trkpt>
      <trkpt lat="45.65683" lon="5.91443">
        <ele>274</ele>
        <time>2022-05-01T09:14:38.361Z</time>
      </trkpt>
      <trkpt lat="45.65688" lon="5.91443">
        <ele>274</ele>
        <time>2022-05-01T09:14:39.362Z</time>
      </trkpt>
      <trkpt lat="45.65693" lon="5.91442">
        <ele>274</ele>
        <time>2022-05-01T09:14:40.362Z</time>
      </trkpt>
      <trkpt lat="45.65698" lon="5.91441">
        <ele>274</ele>
        <time>2022-05-01T09:14:41.362Z</time>
      </trkpt>
      <trkpt lat="45.65703" lon="5.9144">
        <ele>273</ele>
        <time>2022-05-01T09:14:42.361Z</time>
      </trkpt>
      <trkpt lat="45.65708" lon="5.91439">
        <ele>273</ele>
        <time>2022-05-01T09:14:43.362Z</time>
      </trkpt>
      <trkpt lat="45.65712" lon="5.91438">
        <ele>273</ele>
        <time>2022-05-01T09:14:44.361Z</time>
      </trkpt>
      <trkpt lat="45.65717" lon="5.91437">
        <ele>273</ele>
        <time>2022-05-01T09:14:45.362Z</time>
      </trkpt>
      <trkpt lat="45.65723" lon="5.91436">
        <ele>273</ele>
        <time>2022-05-01T09:14:46.361Z</time>
      </trkpt>
      <trkpt lat="45.65728" lon="5.91435">
        <ele>273</ele>
        <time>2022-05-01T09:14:47.361Z</time>
      </trkpt>
      <trkpt lat="45.65733" lon="5.91434">
        <ele>273</ele>
        <time>2022-05-01T09:14:48.362Z</time>
      </trkpt>
      <trkpt lat="45.65738" lon="5.91434">
        <ele>273</ele>
        <time>2022-05-01T09:14:49.362Z</time>
      </trkpt>
      <trkpt lat="45.65743" lon="5.91433">
        <ele>273</ele>
        <time>2022-05-01T09:14:50.361Z</time>
      </trkpt>
      <trkpt lat="45.65748" lon="5.91433">
        <ele>273</ele>
        <time>2022-05-01T09:14:51.362Z</time>
      </trkpt>
      <trkpt lat="45.65753" lon="5.91433">
        <ele>272</ele>
        <time>2022-05-01T09:14:52.362Z</time>
      </trkpt>
      <trkpt lat="45.65757" lon="5.91435">
        <ele>272</ele>
        <time>2022-05-01T09:14:53.362Z</time>
      </trkpt>
      <trkpt lat="45.65762" lon="5.91439">
        <ele>272</ele>
        <time>2022-05-01T09:14:54.362Z</time>
      </trkpt>
      <trkpt lat="45.65766" lon="5.91442">
        <ele>272</ele>
        <time>2022-05-01T09:14:55.361Z</time>
      </trkpt>
      <trkpt lat="45.6577" lon="5.91446">
        <ele>272</ele>
        <time>2022-05-01T09:14:56.362Z</time>
      </trkpt>
      <trkpt lat="45.65774" lon="5.91449">
        <ele>271</ele>
        <time>2022-05-01T09:14:57.362Z</time>
      </trkpt>
      <trkpt lat="45.65779" lon="5.91451">
        <ele>272</ele>
        <time>2022-05-01T09:14:58.361Z</time>
      </trkpt>
      <trkpt lat="45.65783" lon="5.91453">
        <ele>272</ele>
        <time>2022-05-01T09:14:59.362Z</time>
      </trkpt>
      <trkpt lat="45.65787" lon="5.91454">
        <ele>272</ele>
        <time>2022-05-01T09:15:00.361Z</time>
      </trkpt>
      <trkpt lat="45.65792" lon="5.91457">
        <ele>272</ele>
        <time>2022-05-01T09:15:01.362Z</time>
      </trkpt>
      <trkpt lat="45.65796" lon="5.9146">
        <ele>272</ele>
        <time>2022-05-01T09:15:02.362Z</time>
      </trkpt>
      <trkpt lat="45.65799" lon="5.91463">
        <ele>272</ele>
        <time>2022-05-01T09:15:03.362Z</time>
      </trkpt>
      <trkpt lat="45.65803" lon="5.91467">
        <ele>273</ele>
        <time>2022-05-01T09:15:04.361Z</time>
      </trkpt>
      <trkpt lat="45.65806" lon="5.91472">
        <ele>273</ele>
        <time>2022-05-01T09:15:05.361Z</time>
      </trkpt>
      <trkpt lat="45.65809" lon="5.91476">
        <ele>274</ele>
        <time>2022-05-01T09:15:06.362Z</time>
      </trkpt>
      <trkpt lat="45.65811" lon="5.91481">
        <ele>274</ele>
        <time>2022-05-01T09:15:07.361Z</time>
      </trkpt>
      <trkpt lat="45.65813" lon="5.91486">
        <ele>275</ele>
        <time>2022-05-01T09:15:08.361Z</time>
      </trkpt>
      <trkpt lat="45.65815" lon="5.91491">
        <ele>275</ele>
        <time>2022-05-01T09:15:09.362Z</time>
      </trkpt>
      <trkpt lat="45.65817" lon="5.91496">
        <ele>275</ele>
        <time>2022-05-01T09:15:10.362Z</time>
      </trkpt>
      <trkpt lat="45.65819" lon="5.91501">
        <ele>275</ele>
        <time>2022-05-01T09:15:11.362Z</time>
      </trkpt>
      <trkpt lat="45.6582" lon="5.91506">
        <ele>275</ele>
        <time>2022-05-01T09:15:12.362Z</time>
      </trkpt>
      <trkpt lat="45.65822" lon="5.91512">
        <ele>275</ele>
        <time>2022-05-01T09:15:13.362Z</time>
      </trkpt>
      <trkpt lat="45.65823" lon="5.91517">
        <ele>274</ele>
        <time>2022-05-01T09:15:14.362Z</time>
      </trkpt>
      <trkpt lat="45.65825" lon="5.91523">
        <ele>274</ele>
        <time>2022-05-01T09:15:15.362Z</time>
      </trkpt>
      <trkpt lat="45.65826" lon="5.91529">
        <ele>275</ele>
        <time>2022-05-01T09:15:16.361Z</time>
      </trkpt>
      <trkpt lat="45.65828" lon="5.91534">
        <ele>275</ele>
        <time>2022-05-01T09:15:17.361Z</time>
      </trkpt>
      <trkpt lat="45.6583" lon="5.9154">
        <ele>276</ele>
        <time>2022-05-01T09:15:18.362Z</time>
      </trkpt>
      <trkpt lat="45.65832" lon="5.91546">
        <ele>276</ele>
        <time>2022-05-01T09:15:19.362Z</time>
      </trkpt>
      <trkpt lat="45.65834" lon="5.91552">
        <ele>276</ele>
        <time>2022-05-01T09:15:20.362Z</time>
      </trkpt>
      <trkpt lat="45.65837" lon="5.91558">
        <ele>277</ele>
        <time>2022-05-01T09:15:21.362Z</time>
      </trkpt>
      <trkpt lat="45.6584" lon="5.91564">
        <ele>277</ele>
        <time>2022-05-01T09:15:22.362Z</time>
      </trkpt>
      <trkpt lat="45.65843" lon="5.9157">
        <ele>277</ele>
        <time>2022-05-01T09:15:23.362Z</time>
      </trkpt>
      <trkpt lat="45.65846" lon="5.91576">
        <ele>278</ele>
        <time>2022-05-01T09:15:24.362Z</time>
      </trkpt>
      <trkpt lat="45.65849" lon="5.91582">
        <ele>277</ele>
        <time>2022-05-01T09:15:25.362Z</time>
      </trkpt>
      <trkpt lat="45.65852" lon="5.91589">
        <ele>277</ele>
        <time>2022-05-01T09:15:26.362Z</time>
      </trkpt>
      <trkpt lat="45.65855" lon="5.91596">
        <ele>277</ele>
        <time>2022-05-01T09:15:27.362Z</time>
      </trkpt>
      <trkpt lat="45.65859" lon="5.91603">
        <ele>277</ele>
        <time>2022-05-01T09:15:28.361Z</time>
      </trkpt>
      <trkpt lat="45.65863" lon="5.91611">
        <ele>277</ele>
        <time>2022-05-01T09:15:29.362Z</time>
      </trkpt>
      <trkpt lat="45.65866" lon="5.91618">
        <ele>277</ele>
        <time>2022-05-01T09:15:30.362Z</time>
      </trkpt>
      <trkpt lat="45.6587" lon="5.91626">
        <ele>277</ele>
        <time>2022-05-01T09:15:31.362Z</time>
      </trkpt>
      <trkpt lat="45.65873" lon="5.91634">
        <ele>277</ele>
        <time>2022-05-01T09:15:32.361Z</time>
      </trkpt>
      <trkpt lat="45.65875" lon="5.91642">
        <ele>277</ele>
        <time>2022-05-01T09:15:33.361Z</time>
      </trkpt>
      <trkpt lat="45.65877" lon="5.9165">
        <ele>276</ele>
        <time>2022-05-01T09:15:34.362Z</time>
      </trkpt>
      <trkpt lat="45.65879" lon="5.91657">
        <ele>276</ele>
        <time>2022-05-01T09:15:35.361Z</time>
      </trkpt>
      <trkpt lat="45.6588" lon="5.91665">
        <ele>276</ele>
        <time>2022-05-01T09:15:36.362Z</time>
      </trkpt>
      <trkpt lat="45.65882" lon="5.91671">
        <ele>275</ele>
        <time>2022-05-01T09:15:37.362Z</time>
      </trkpt>
      <trkpt lat="45.65885" lon="5.91679">
        <ele>275</ele>
        <time>2022-05-01T09:15:38.362Z</time>
      </trkpt>
      <trkpt lat="45.65887" lon="5.91684">
        <ele>275</ele>
        <time>2022-05-01T09:15:39.362Z</time>
      </trkpt>
      <trkpt lat="45.65891" lon="5.91691">
        <ele>275</ele>
        <time>2022-05-01T09:15:40.362Z</time>
      </trkpt>
      <trkpt lat="45.65893" lon="5.91698">
        <ele>275</ele>
        <time>2022-05-01T09:15:41.362Z</time>
      </trkpt>
      <trkpt lat="45.65895" lon="5.91703">
        <ele>275</ele>
        <time>2022-05-01T09:15:42.362Z</time>
      </trkpt>
      <trkpt lat="45.65897" lon="5.91709">
        <ele>275</ele>
        <time>2022-05-01T09:15:43.361Z</time>
      </trkpt>
      <trkpt lat="45.65899" lon="5.91715">
        <ele>275</ele>
        <time>2022-05-01T09:15:44.361Z</time>
      </trkpt>
      <trkpt lat="45.65901" lon="5.9172">
        <ele>275</ele>
        <time>2022-05-01T09:15:45.361Z</time>
      </trkpt>
      <trkpt lat="45.65903" lon="5.91727">
        <ele>275</ele>
        <time>2022-05-01T09:15:46.362Z</time>
      </trkpt>
      <trkpt lat="45.65905" lon="5.91731">
        <ele>275</ele>
        <time>2022-05-01T09:15:47.361Z</time>
      </trkpt>
      <trkpt lat="45.65907" lon="5.91735">
        <ele>275</ele>
        <time>2022-05-01T09:15:48.361Z</time>
      </trkpt>
      <trkpt lat="45.65909" lon="5.9174">
        <ele>274</ele>
        <time>2022-05-01T09:15:49.362Z</time>
      </trkpt>
      <trkpt lat="45.65911" lon="5.91746">
        <ele>274</ele>
        <time>2022-05-01T09:15:50.362Z</time>
      </trkpt>
      <trkpt lat="45.65913" lon="5.91751">
        <ele>274</ele>
        <time>2022-05-01T09:15:51.362Z</time>
      </trkpt>
      <trkpt lat="45.65915" lon="5.91756">
        <ele>275</ele>
        <time>2022-05-01T09:15:52.361Z</time>
      </trkpt>
      <trkpt lat="45.65917" lon="5.9176">
        <ele>275</ele>
        <time>2022-05-01T09:15:53.361Z</time>
      </trkpt>
      <trkpt lat="45.6592" lon="5.91766">
        <ele>275</ele>
        <time>2022-05-01T09:15:54.362Z</time>
      </trkpt>
      <trkpt lat="45.65922" lon="5.91769">
        <ele>275</ele>
        <time>2022-05-01T09:15:55.362Z</time>
      </trkpt>
      <trkpt lat="45.65925" lon="5.91775">
        <ele>275</ele>
        <time>2022-05-01T09:15:56.362Z</time>
      </trkpt>
      <trkpt lat="45.65927" lon="5.91778">
        <ele>276</ele>
        <time>2022-05-01T09:15:57.362Z</time>
      </trkpt>
      <trkpt lat="45.65929" lon="5.91782">
        <ele>277</ele>
        <time>2022-05-01T09:15:58.362Z</time>
      </trkpt>
      <trkpt lat="45.65933" lon="5.91787">
        <ele>277</ele>
        <time>2022-05-01T09:15:59.362Z</time>
      </trkpt>
      <trkpt lat="45.65935" lon="5.91791">
        <ele>278</ele>
        <time>2022-05-01T09:16:00.362Z</time>
      </trkpt>
      <trkpt lat="45.65938" lon="5.91795">
        <ele>279</ele>
        <time>2022-05-01T09:16:01.361Z</time>
      </trkpt>
      <trkpt lat="45.65939" lon="5.91799">
        <ele>279</ele>
        <time>2022-05-01T09:16:02.362Z</time>
      </trkpt>
      <trkpt lat="45.65942" lon="5.91803">
        <ele>279</ele>
        <time>2022-05-01T09:16:03.362Z</time>
      </trkpt>
      <trkpt lat="45.65944" lon="5.91808">
        <ele>278</ele>
        <time>2022-05-01T09:16:04.362Z</time>
      </trkpt>
      <trkpt lat="45.65946" lon="5.91813">
        <ele>278</ele>
        <time>2022-05-01T09:16:05.362Z</time>
      </trkpt>
      <trkpt lat="45.65948" lon="5.91818">
        <ele>277</ele>
        <time>2022-05-01T09:16:06.362Z</time>
      </trkpt>
      <trkpt lat="45.6595" lon="5.91822">
        <ele>277</ele>
        <time>2022-05-01T09:16:07.362Z</time>
      </trkpt>
      <trkpt lat="45.65952" lon="5.91827">
        <ele>277</ele>
        <time>2022-05-01T09:16:08.362Z</time>
      </trkpt>
      <trkpt lat="45.65954" lon="5.91832">
        <ele>277</ele>
        <time>2022-05-01T09:16:09.362Z</time>
      </trkpt>
      <trkpt lat="45.65955" lon="5.91837">
        <ele>277</ele>
        <time>2022-05-01T09:16:10.362Z</time>
      </trkpt>
      <trkpt lat="45.65957" lon="5.91843">
        <ele>276</ele>
        <time>2022-05-01T09:16:11.362Z</time>
      </trkpt>
      <trkpt lat="45.65959" lon="5.91847">
        <ele>276</ele>
        <time>2022-05-01T09:16:12.361Z</time>
      </trkpt>
      <trkpt lat="45.6596" lon="5.91851">
        <ele>276</ele>
        <time>2022-05-01T09:16:13.362Z</time>
      </trkpt>
      <trkpt lat="45.65962" lon="5.91857">
        <ele>276</ele>
        <time>2022-05-01T09:16:14.361Z</time>
      </trkpt>
      <trkpt lat="45.65964" lon="5.91861">
        <ele>276</ele>
        <time>2022-05-01T09:16:15.362Z</time>
      </trkpt>
      <trkpt lat="45.65965" lon="5.91865">
        <ele>277</ele>
        <time>2022-05-01T09:16:16.362Z</time>
      </trkpt>
      <trkpt lat="45.65967" lon="5.9187">
        <ele>277</ele>
        <time>2022-05-01T09:16:17.362Z</time>
      </trkpt>
      <trkpt lat="45.65968" lon="5.91875">
        <ele>277</ele>
        <time>2022-05-01T09:16:18.361Z</time>
      </trkpt>
      <trkpt lat="45.65969" lon="5.91881">
        <ele>277</ele>
        <time>2022-05-01T09:16:19.362Z</time>
      </trkpt>
      <trkpt lat="45.6597" lon="5.91886">
        <ele>277</ele>
        <time>2022-05-01T09:16:20.362Z</time>
      </trkpt>
      <trkpt lat="45.65971" lon="5.9189">
        <ele>277</ele>
        <time>2022-05-01T09:16:21.361Z</time>
      </trkpt>
      <trkpt lat="45.65972" lon="5.91896">
        <ele>277</ele>
        <time>2022-05-01T09:16:22.362Z</time>
      </trkpt>
      <trkpt lat="45.65973" lon="5.919">
        <ele>277</ele>
        <time>2022-05-01T09:16:23.362Z</time>
      </trkpt>
      <trkpt lat="45.65974" lon="5.91905">
        <ele>277</ele>
        <time>2022-05-01T09:16:24.362Z</time>
      </trkpt>
      <trkpt lat="45.65974" lon="5.91908">
        <ele>277</ele>
        <time>2022-05-01T09:16:25.362Z</time>
      </trkpt>
      <trkpt lat="45.65975" lon="5.91913">
        <ele>278</ele>
        <time>2022-05-01T09:16:26.362Z</time>
      </trkpt>
      <trkpt lat="45.65975" lon="5.91918">
        <ele>278</ele>
        <time>2022-05-01T09:16:27.362Z</time>
      </trkpt>
      <trkpt lat="45.65975" lon="5.91924">
        <ele>278</ele>
        <time>2022-05-01T09:16:28.362Z</time>
      </trkpt>
      <trkpt lat="45.65975" lon="5.91928">
        <ele>278</ele>
        <time>2022-05-01T09:16:29.362Z</time>
      </trkpt>
      <trkpt lat="45.65975" lon="5.91933">
        <ele>278</ele>
        <time>2022-05-01T09:16:30.362Z</time>
      </trkpt>
      <trkpt lat="45.65974" lon="5.91938">
        <ele>278</ele>
        <time>2022-05-01T09:16:31.362Z</time>
      </trkpt>
      <trkpt lat="45.65974" lon="5.91943">
        <ele>278</ele>
        <time>2022-05-01T09:16:32.362Z</time>
      </trkpt>
      <trkpt lat="45.65974" lon="5.91948">
        <ele>278</ele>
        <time>2022-05-01T09:16:33.362Z</time>
      </trkpt>
      <trkpt lat="45.65973" lon="5.91953">
        <ele>278</ele>
        <time>2022-05-01T09:16:34.362Z</time>
      </trkpt>
      <trkpt lat="45.65973" lon="5.91958">
        <ele>278</ele>
        <time>2022-05-01T09:16:35.362Z</time>
      </trkpt>
      <trkpt lat="45.65973" lon="5.91963">
        <ele>278</ele>
        <time>2022-05-01T09:16:36.361Z</time>
      </trkpt>
      <trkpt lat="45.65972" lon="5.91968">
        <ele>279</ele>
        <time>2022-05-01T09:16:37.362Z</time>
      </trkpt>
      <trkpt lat="45.65972" lon="5.91973">
        <ele>279</ele>
        <time>2022-05-01T09:16:38.362Z</time>
      </trkpt>
      <trkpt lat="45.65971" lon="5.91978">
        <ele>279</ele>
        <time>2022-05-01T09:16:39.361Z</time>
      </trkpt>
      <trkpt lat="45.6597" lon="5.91982">
        <ele>279</ele>
        <time>2022-05-01T09:16:40.362Z</time>
      </trkpt>
      <trkpt lat="45.6597" lon="5.91988">
        <ele>279</ele>
        <time>2022-05-01T09:16:41.361Z</time>
      </trkpt>
      <trkpt lat="45.6597" lon="5.91992">
        <ele>279</ele>
        <time>2022-05-01T09:16:42.362Z</time>
      </trkpt>
      <trkpt lat="45.65969" lon="5.91997">
        <ele>278</ele>
        <time>2022-05-01T09:16:43.362Z</time>
      </trkpt>
      <trkpt lat="45.65969" lon="5.92002">
        <ele>279</ele>
        <time>2022-05-01T09:16:44.362Z</time>
      </trkpt>
      <trkpt lat="45.65968" lon="5.92007">
        <ele>279</ele>
        <time>2022-05-01T09:16:45.361Z</time>
      </trkpt>
      <trkpt lat="45.65968" lon="5.92013">
        <ele>279</ele>
        <time>2022-05-01T09:16:46.362Z</time>
      </trkpt>
      <trkpt lat="45.65968" lon="5.92017">
        <ele>279</ele>
        <time>2022-05-01T09:16:47.362Z</time>
      </trkpt>
      <trkpt lat="45.65968" lon="5.92022">
        <ele>280</ele>
        <time>2022-05-01T09:16:48.361Z</time>
      </trkpt>
      <trkpt lat="45.65968" lon="5.92027">
        <ele>280</ele>
        <time>2022-05-01T09:16:49.361Z</time>
      </trkpt>
      <trkpt lat="45.65968" lon="5.92032">
        <ele>281</ele>
        <time>2022-05-01T09:16:50.362Z</time>
      </trkpt>
      <trkpt lat="45.65968" lon="5.92038">
        <ele>281</ele>
        <time>2022-05-01T09:16:51.361Z</time>
      </trkpt>
      <trkpt lat="45.65968" lon="5.92043">
        <ele>281</ele>
        <time>2022-05-01T09:16:52.362Z</time>
      </trkpt>
      <trkpt lat="45.65969" lon="5.92048">
        <ele>281</ele>
        <time>2022-05-01T09:16:53.362Z</time>
      </trkpt>
      <trkpt lat="45.6597" lon="5.92052">
        <ele>281</ele>
        <time>2022-05-01T09:16:54.362Z</time>
      </trkpt>
      <trkpt lat="45.65971" lon="5.92056">
        <ele>281</ele>
        <time>2022-05-01T09:16:55.361Z</time>
      </trkpt>
      <trkpt lat="45.65972" lon="5.92061">
        <ele>281</ele>
        <time>2022-05-01T09:16:56.362Z</time>
      </trkpt>
      <trkpt lat="45.65974" lon="5.92065">
        <ele>281</ele>
        <time>2022-05-01T09:16:57.362Z</time>
      </trkpt>
      <trkpt lat="45.65975" lon="5.9207">
        <ele>281</ele>
        <time>2022-05-01T09:16:58.362Z</time>
      </trkpt>
      <trkpt lat="45.65976" lon="5.92074">
        <ele>282</ele>
        <time>2022-05-01T09:16:59.361Z</time>
      </trkpt>
      <trkpt lat="45.65977" lon="5.92078">
        <ele>282</ele>
        <time>2022-05-01T09:17:00.362Z</time>
      </trkpt>
      <trkpt lat="45.65978" lon="5.92082">
        <ele>282</ele>
        <time>2022-05-01T09:17:01.361Z</time>
      </trkpt>
      <trkpt lat="45.6598" lon="5.92086">
        <ele>282</ele>
        <time>2022-05-01T09:17:02.362Z</time>
      </trkpt>
      <trkpt lat="45.65981" lon="5.9209">
        <ele>282</ele>
        <time>2022-05-01T09:17:03.362Z</time>
      </trkpt>
      <trkpt lat="45.65983" lon="5.92094">
        <ele>282</ele>
        <time>2022-05-01T09:17:04.362Z</time>
      </trkpt>
      <trkpt lat="45.65985" lon="5.92098">
        <ele>282</ele>
        <time>2022-05-01T09:17:05.362Z</time>
      </trkpt>
      <trkpt lat="45.65988" lon="5.92101">
        <ele>282</ele>
        <time>2022-05-01T09:17:06.361Z</time>
      </trkpt>
      <trkpt lat="45.65991" lon="5.92103">
        <ele>283</ele>
        <time>2022-05-01T09:17:07.362Z</time>
      </trkpt>
      <trkpt lat="45.65994" lon="5.92104">
        <ele>283</ele>
        <time>2022-05-01T09:17:08.362Z</time>
      </trkpt>
      <trkpt lat="45.65997" lon="5.92104">
        <ele>283</ele>
        <time>2022-05-01T09:17:09.362Z</time>
      </trkpt>
      <trkpt lat="45.66001" lon="5.92105">
        <ele>283</ele>
        <time>2022-05-01T09:17:10.362Z</time>
      </trkpt>
      <trkpt lat="45.66005" lon="5.92105">
        <ele>283</ele>
        <time>2022-05-01T09:17:11.361Z</time>
      </trkpt>
      <trkpt lat="45.66009" lon="5.92104">
        <ele>283</ele>
        <time>2022-05-01T09:17:12.361Z</time>
      </trkpt>
      <trkpt lat="45.66013" lon="5.92104">
        <ele>283</ele>
        <time>2022-05-01T09:17:13.361Z</time>
      </trkpt>
      <trkpt lat="45.66017" lon="5.92103">
        <ele>283</ele>
        <time>2022-05-01T09:17:14.362Z</time>
      </trkpt>
      <trkpt lat="45.66021" lon="5.92104">
        <ele>283</ele>
        <time>2022-05-01T09:17:15.361Z</time>
      </trkpt>
      <trkpt lat="45.66025" lon="5.92105">
        <ele>283</ele>
        <time>2022-05-01T09:17:16.362Z</time>
      </trkpt>
      <trkpt lat="45.66028" lon="5.92107">
        <ele>283</ele>
        <time>2022-05-01T09:17:17.362Z</time>
      </trkpt>
      <trkpt lat="45.6603" lon="5.9211">
        <ele>283</ele>
        <time>2022-05-01T09:17:18.362Z</time>
      </trkpt>
      <trkpt lat="45.66032" lon="5.92114">
        <ele>283</ele>
        <time>2022-05-01T09:17:19.362Z</time>
      </trkpt>
      <trkpt lat="45.66034" lon="5.92118">
        <ele>283</ele>
        <time>2022-05-01T09:17:20.362Z</time>
      </trkpt>
      <trkpt lat="45.66035" lon="5.92123">
        <ele>283</ele>
        <time>2022-05-01T09:17:21.361Z</time>
      </trkpt>
      <trkpt lat="45.66035" lon="5.92128">
        <ele>283</ele>
        <time>2022-05-01T09:17:22.361Z</time>
      </trkpt>
      <trkpt lat="45.66035" lon="5.92133">
        <ele>283</ele>
        <time>2022-05-01T09:17:23.362Z</time>
      </trkpt>
      <trkpt lat="45.66035" lon="5.92138">
        <ele>283</ele>
        <time>2022-05-01T09:17:24.362Z</time>
      </trkpt>
      <trkpt lat="45.66035" lon="5.92142">
        <ele>283</ele>
        <time>2022-05-01T09:17:25.361Z</time>
      </trkpt>
      <trkpt lat="45.66035" lon="5.92147">
        <ele>283</ele>
        <time>2022-05-01T09:17:26.361Z</time>
      </trkpt>
      <trkpt lat="45.66035" lon="5.92152">
        <ele>283</ele>
        <time>2022-05-01T09:17:27.362Z</time>
      </trkpt>
      <trkpt lat="45.66035" lon="5.92157">
        <ele>283</ele>
        <time>2022-05-01T09:17:28.362Z</time>
      </trkpt>
      <trkpt lat="45.66035" lon="5.92162">
        <ele>283</ele>
        <time>2022-05-01T09:17:29.361Z</time>
      </trkpt>
      <trkpt lat="45.66034" lon="5.92167">
        <ele>283</ele>
        <time>2022-05-01T09:17:30.362Z</time>
      </trkpt>
      <trkpt lat="45.66034" lon="5.92172">
        <ele>283</ele>
        <time>2022-05-01T09:17:31.362Z</time>
      </trkpt>
      <trkpt lat="45.66033" lon="5.92176">
        <ele>283</ele>
        <time>2022-05-01T09:17:32.361Z</time>
      </trkpt>
      <trkpt lat="45.66032" lon="5.92181">
        <ele>283</ele>
        <time>2022-05-01T09:17:33.361Z</time>
      </trkpt>
      <trkpt lat="45.66032" lon="5.92186">
        <ele>284</ele>
        <time>2022-05-01T09:17:34.361Z</time>
      </trkpt>
      <trkpt lat="45.66031" lon="5.9219">
        <ele>284</ele>
        <time>2022-05-01T09:17:35.362Z</time>
      </trkpt>
      <trkpt lat="45.6603" lon="5.92195">
        <ele>284</ele>
        <time>2022-05-01T09:17:36.362Z</time>
      </trkpt>
      <trkpt lat="45.6603" lon="5.92199">
        <ele>284</ele>
        <time>2022-05-01T09:17:37.361Z</time>
      </trkpt>
      <trkpt lat="45.6603" lon="5.92203">
        <ele>284</ele>
        <time>2022-05-01T09:17:38.361Z</time>
      </trkpt>
      <trkpt lat="45.66031" lon="5.92207">
        <ele>285</ele>
        <time>2022-05-01T09:17:39.362Z</time>
      </trkpt>
      <trkpt lat="45.66033" lon="5.92211">
        <ele>285</ele>
        <time>2022-05-01T09:17:40.362Z</time>
      </trkpt>
      <trkpt lat="45.66035" lon="5.92215">
        <ele>284</ele>
        <time>2022-05-01T09:17:41.362Z</time>
      </trkpt>
      <trkpt lat="45.66037" lon="5.92219">
        <ele>285</ele>
        <time>2022-05-01T09:17:42.361Z</time>
      </trkpt>
      <trkpt lat="45.66039" lon="5.92223">
        <ele>285</ele>
        <time>2022-05-01T09:17:43.362Z</time>
      </trkpt>
      <trkpt lat="45.66041" lon="5.92226">
        <ele>285</ele>
        <time>2022-05-01T09:17:44.362Z</time>
      </trkpt>
      <trkpt lat="45.66044" lon="5.92229">
        <ele>285</ele>
        <time>2022-05-01T09:17:45.362Z</time>
      </trkpt>
      <trkpt lat="45.66046" lon="5.92231">
        <ele>286</ele>
        <time>2022-05-01T09:17:46.361Z</time>
      </trkpt>
      <trkpt lat="45.66048" lon="5.92235">
        <ele>286</ele>
        <time>2022-05-01T09:17:47.362Z</time>
      </trkpt>
      <trkpt lat="45.6605" lon="5.92238">
        <ele>286</ele>
        <time>2022-05-01T09:17:48.361Z</time>
      </trkpt>
      <trkpt lat="45.66052" lon="5.92241">
        <ele>286</ele>
        <time>2022-05-01T09:17:49.362Z</time>
      </trkpt>
      <trkpt lat="45.66053" lon="5.92244">
        <ele>286</ele>
        <time>2022-05-01T09:17:50.361Z</time>
      </trkpt>
      <trkpt lat="45.66055" lon="5.92248">
        <ele>286</ele>
        <time>2022-05-01T09:17:51.362Z</time>
      </trkpt>
      <trkpt lat="45.66057" lon="5.92251">
        <ele>286</ele>
        <time>2022-05-01T09:17:52.362Z</time>
      </trkpt>
      <trkpt lat="45.66059" lon="5.92254">
        <ele>286</ele>
        <time>2022-05-01T09:17:53.361Z</time>
      </trkpt>
      <trkpt lat="45.66061" lon="5.92257">
        <ele>287</ele>
        <time>2022-05-01T09:17:54.362Z</time>
      </trkpt>
      <trkpt lat="45.66063" lon="5.92259">
        <ele>287</ele>
        <time>2022-05-01T09:17:55.361Z</time>
      </trkpt>
      <trkpt lat="45.66065" lon="5.92262">
        <ele>287</ele>
        <time>2022-05-01T09:17:56.362Z</time>
      </trkpt>
      <trkpt lat="45.66067" lon="5.92265">
        <ele>287</ele>
        <time>2022-05-01T09:17:57.362Z</time>
      </trkpt>
      <trkpt lat="45.66069" lon="5.92268">
        <ele>287</ele>
        <time>2022-05-01T09:17:58.362Z</time>
      </trkpt>
      <trkpt lat="45.6607" lon="5.9227">
        <ele>287</ele>
        <time>2022-05-01T09:17:59.361Z</time>
      </trkpt>
      <trkpt lat="45.66072" lon="5.92273">
        <ele>287</ele>
        <time>2022-05-01T09:18:00.361Z</time>
      </trkpt>
      <trkpt lat="45.66073" lon="5.92276">
        <ele>287</ele>
        <time>2022-05-01T09:18:01.361Z</time>
      </trkpt>
      <trkpt lat="45.66075" lon="5.92278">
        <ele>288</ele>
        <time>2022-05-01T09:18:02.361Z</time>
      </trkpt>
      <trkpt lat="45.66076" lon="5.92281">
        <ele>288</ele>
        <time>2022-05-01T09:18:03.361Z</time>
      </trkpt>
      <trkpt lat="45.66077" lon="5.92283">
        <ele>289</ele>
        <time>2022-05-01T09:18:04.361Z</time>
      </trkpt>
      <trkpt lat="45.66079" lon="5.92286">
        <ele>290</ele>
        <time>2022-05-01T09:18:05.361Z</time>
      </trkpt>
      <trkpt lat="45.6608" lon="5.92289">
        <ele>290</ele>
        <time>2022-05-01T09:18:06.361Z</time>
      </trkpt>
      <trkpt lat="45.66082" lon="5.92291">
        <ele>291</ele>
        <time>2022-05-01T09:18:07.362Z</time>
      </trkpt>
      <trkpt lat="45.66083" lon="5.92293">
        <ele>291</ele>
        <time>2022-05-01T09:18:08.362Z</time>
      </trkpt>
      <trkpt lat="45.66084" lon="5.92296">
        <ele>291</ele>
        <time>2022-05-01T09:18:09.362Z</time>
      </trkpt>
      <trkpt lat="45.66085" lon="5.92299">
        <ele>291</ele>
        <time>2022-05-01T09:18:10.362Z</time>
      </trkpt>
      <trkpt lat="45.66087" lon="5.92302">
        <ele>291</ele>
        <time>2022-05-01T09:18:11.362Z</time>
      </trkpt>
      <trkpt lat="45.66088" lon="5.92304">
        <ele>292</ele>
        <time>2022-05-01T09:18:12.362Z</time>
      </trkpt>
      <trkpt lat="45.6609" lon="5.92307">
        <ele>292</ele>
        <time>2022-05-01T09:18:13.362Z</time>
      </trkpt>
      <trkpt lat="45.66091" lon="5.92309">
        <ele>292</ele>
        <time>2022-05-01T09:18:14.362Z</time>
      </trkpt>
      <trkpt lat="45.66093" lon="5.92312">
        <ele>292</ele>
        <time>2022-05-01T09:18:15.362Z</time>
      </trkpt>
      <trkpt lat="45.66094" lon="5.92314">
        <ele>291</ele>
        <time>2022-05-01T09:18:16.361Z</time>
      </trkpt>
      <trkpt lat="45.66096" lon="5.92316">
        <ele>292</ele>
        <time>2022-05-01T09:18:17.362Z</time>
      </trkpt>
      <trkpt lat="45.66097" lon="5.92318">
        <ele>292</ele>
        <time>2022-05-01T09:18:18.361Z</time>
      </trkpt>
      <trkpt lat="45.66099" lon="5.9232">
        <ele>293</ele>
        <time>2022-05-01T09:18:19.361Z</time>
      </trkpt>
      <trkpt lat="45.66101" lon="5.92322">
        <ele>293</ele>
        <time>2022-05-01T09:18:20.362Z</time>
      </trkpt>
      <trkpt lat="45.66102" lon="5.92324">
        <ele>293</ele>
        <time>2022-05-01T09:18:21.362Z</time>
      </trkpt>
      <trkpt lat="45.66103" lon="5.92325">
        <ele>293</ele>
        <time>2022-05-01T09:18:22.361Z</time>
      </trkpt>
      <trkpt lat="45.66105" lon="5.92327">
        <ele>293</ele>
        <time>2022-05-01T09:18:23.362Z</time>
      </trkpt>
      <trkpt lat="45.66107" lon="5.92329">
        <ele>293</ele>
        <time>2022-05-01T09:18:24.362Z</time>
      </trkpt>
      <trkpt lat="45.66109" lon="5.9233">
        <ele>294</ele>
        <time>2022-05-01T09:18:25.362Z</time>
      </trkpt>
      <trkpt lat="45.66111" lon="5.92331">
        <ele>294</ele>
        <time>2022-05-01T09:18:26.361Z</time>
      </trkpt>
      <trkpt lat="45.66113" lon="5.92332">
        <ele>294</ele>
        <time>2022-05-01T09:18:27.361Z</time>
      </trkpt>
      <trkpt lat="45.66114" lon="5.92334">
        <ele>294</ele>
        <time>2022-05-01T09:18:28.362Z</time>
      </trkpt>
      <trkpt lat="45.66116" lon="5.92335">
        <ele>294</ele>
        <time>2022-05-01T09:18:29.362Z</time>
      </trkpt>
      <trkpt lat="45.66119" lon="5.92336">
        <ele>294</ele>
        <time>2022-05-01T09:18:30.361Z</time>
      </trkpt>
      <trkpt lat="45.66121" lon="5.92337">
        <ele>294</ele>
        <time>2022-05-01T09:18:31.361Z</time>
      </trkpt>
      <trkpt lat="45.66123" lon="5.92338">
        <ele>294</ele>
        <time>2022-05-01T09:18:32.362Z</time>
      </trkpt>
      <trkpt lat="45.66124" lon="5.92339">
        <ele>294</ele>
        <time>2022-05-01T09:18:33.362Z</time>
      </trkpt>
      <trkpt lat="45.66126" lon="5.92339">
        <ele>295</ele>
        <time>2022-05-01T09:18:34.362Z</time>
      </trkpt>
      <trkpt lat="45.66128" lon="5.9234">
        <ele>295</ele>
        <time>2022-05-01T09:18:35.361Z</time>
      </trkpt>
      <trkpt lat="45.6613" lon="5.9234">
        <ele>295</ele>
        <time>2022-05-01T09:18:36.362Z</time>
      </trkpt>
      <trkpt lat="45.66132" lon="5.92341">
        <ele>295</ele>
        <time>2022-05-01T09:18:37.362Z</time>
      </trkpt>
      <trkpt lat="45.66134" lon="5.92341">
        <ele>295</ele>
        <time>2022-05-01T09:18:38.362Z</time>
      </trkpt>
      <trkpt lat="45.66136" lon="5.92341">
        <ele>295</ele>
        <time>2022-05-01T09:18:39.362Z</time>
      </trkpt>
      <trkpt lat="45.66138" lon="5.92341">
        <ele>295</ele>
        <time>2022-05-01T09:18:40.362Z</time>
      </trkpt>
      <trkpt lat="45.6614" lon="5.92341">
        <ele>296</ele>
        <time>2022-05-01T09:18:41.362Z</time>
      </trkpt>
      <trkpt lat="45.66142" lon="5.9234">
        <ele>296</ele>
        <time>2022-05-01T09:18:42.361Z</time>
      </trkpt>
      <trkpt lat="45.66143" lon="5.92339">
        <ele>297</ele>
        <time>2022-05-01T09:18:43.362Z</time>
      </trkpt>
      <trkpt lat="45.66145" lon="5.92339">
        <ele>298</ele>
        <time>2022-05-01T09:18:44.361Z</time>
      </trkpt>
      <trkpt lat="45.66147" lon="5.92338">
        <ele>299</ele>
        <time>2022-05-01T09:18:45.362Z</time>
      </trkpt>
      <trkpt lat="45.66149" lon="5.92336">
        <ele>300</ele>
        <time>2022-05-01T09:18:46.361Z</time>
      </trkpt>
      <trkpt lat="45.66152" lon="5.92335">
        <ele>301</ele>
        <time>2022-05-01T09:18:47.361Z</time>
      </trkpt>
      <trkpt lat="45.66154" lon="5.92334">
        <ele>302</ele>
        <time>2022-05-01T09:18:48.362Z</time>
      </trkpt>
      <trkpt lat="45.66156" lon="5.92333">
        <ele>303</ele>
        <time>2022-05-01T09:18:49.362Z</time>
      </trkpt>
      <trkpt lat="45.66158" lon="5.92332">
        <ele>303</ele>
        <time>2022-05-01T09:18:50.362Z</time>
      </trkpt>
      <trkpt lat="45.6616" lon="5.9233">
        <ele>303</ele>
        <time>2022-05-01T09:18:51.362Z</time>
      </trkpt>
      <trkpt lat="45.66162" lon="5.92328">
        <ele>302</ele>
        <time>2022-05-01T09:18:52.361Z</time>
      </trkpt>
      <trkpt lat="45.66163" lon="5.92327">
        <ele>302</ele>
        <time>2022-05-01T09:18:53.362Z</time>
      </trkpt>
      <trkpt lat="45.66165" lon="5.92327">
        <ele>302</ele>
        <time>2022-05-01T09:18:54.362Z</time>
      </trkpt>
      <trkpt lat="45.66167" lon="5.92326">
        <ele>303</ele>
        <time>2022-05-01T09:18:55.362Z</time>
      </trkpt>
      <trkpt lat="45.66169" lon="5.92324">
        <ele>303</ele>
        <time>2022-05-01T09:18:56.362Z</time>
      </trkpt>
      <trkpt lat="45.6617" lon="5.92323">
        <ele>304</ele>
        <time>2022-05-01T09:18:57.362Z</time>
      </trkpt>
      <trkpt lat="45.66172" lon="5.92322">
        <ele>305</ele>
        <time>2022-05-01T09:18:58.362Z</time>
      </trkpt>
      <trkpt lat="45.66173" lon="5.92321">
        <ele>306</ele>
        <time>2022-05-01T09:18:59.362Z</time>
      </trkpt>
      <trkpt lat="45.66176" lon="5.92319">
        <ele>307</ele>
        <time>2022-05-01T09:19:00.362Z</time>
      </trkpt>
      <trkpt lat="45.66178" lon="5.92318">
        <ele>307</ele>
        <time>2022-05-01T09:19:01.362Z</time>
      </trkpt>
      <trkpt lat="45.6618" lon="5.92317">
        <ele>308</ele>
        <time>2022-05-01T09:19:02.361Z</time>
      </trkpt>
      <trkpt lat="45.66182" lon="5.92317">
        <ele>307</ele>
        <time>2022-05-01T09:19:03.362Z</time>
      </trkpt>
      <trkpt lat="45.66184" lon="5.92316">
        <ele>307</ele>
        <time>2022-05-01T09:19:04.362Z</time>
      </trkpt>
      <trkpt lat="45.66186" lon="5.92315">
        <ele>307</ele>
        <time>2022-05-01T09:19:05.361Z</time>
      </trkpt>
      <trkpt lat="45.66188" lon="5.92315">
        <ele>307</ele>
        <time>2022-05-01T09:19:06.362Z</time>
      </trkpt>
      <trkpt lat="45.6619" lon="5.92314">
        <ele>307</ele>
        <time>2022-05-01T09:19:07.361Z</time>
      </trkpt>
      <trkpt lat="45.66192" lon="5.92314">
        <ele>307</ele>
        <time>2022-05-01T09:19:08.362Z</time>
      </trkpt>
      <trkpt lat="45.66195" lon="5.92314">
        <ele>307</ele>
        <time>2022-05-01T09:19:09.362Z</time>
      </trkpt>
      <trkpt lat="45.66197" lon="5.92314">
        <ele>307</ele>
        <time>2022-05-01T09:19:10.362Z</time>
      </trkpt>
      <trkpt lat="45.66199" lon="5.92314">
        <ele>307</ele>
        <time>2022-05-01T09:19:11.361Z</time>
      </trkpt>
      <trkpt lat="45.66202" lon="5.92314">
        <ele>307</ele>
        <time>2022-05-01T09:19:12.361Z</time>
      </trkpt>
      <trkpt lat="45.66204" lon="5.92314">
        <ele>307</ele>
        <time>2022-05-01T09:19:13.362Z</time>
      </trkpt>
      <trkpt lat="45.66206" lon="5.92314">
        <ele>308</ele>
        <time>2022-05-01T09:19:14.361Z</time>
      </trkpt>
      <trkpt lat="45.66209" lon="5.92314">
        <ele>308</ele>
        <time>2022-05-01T09:19:15.362Z</time>
      </trkpt>
      <trkpt lat="45.66211" lon="5.92314">
        <ele>309</ele>
        <time>2022-05-01T09:19:16.362Z</time>
      </trkpt>
      <trkpt lat="45.66213" lon="5.92315">
        <ele>309</ele>
        <time>2022-05-01T09:19:17.361Z</time>
      </trkpt>
      <trkpt lat="45.66216" lon="5.92315">
        <ele>308</ele>
        <time>2022-05-01T09:19:18.361Z</time>
      </trkpt>
      <trkpt lat="45.66218" lon="5.92315">
        <ele>309</ele>
        <time>2022-05-01T09:19:19.361Z</time>
      </trkpt>
      <trkpt lat="45.66221" lon="5.92316">
        <ele>309</ele>
        <time>2022-05-01T09:19:20.362Z</time>
      </trkpt>
      <trkpt lat="45.66223" lon="5.92316">
        <ele>308</ele>
        <time>2022-05-01T09:19:21.362Z</time>
      </trkpt>
      <trkpt lat="45.66225" lon="5.92317">
        <ele>308</ele>
        <time>2022-05-01T09:19:22.362Z</time>
      </trkpt>
      <trkpt lat="45.66228" lon="5.92317">
        <ele>309</ele>
        <time>2022-05-01T09:19:23.362Z</time>
      </trkpt>
      <trkpt lat="45.66231" lon="5.92317">
        <ele>309</ele>
        <time>2022-05-01T09:19:24.362Z</time>
      </trkpt>
      <trkpt lat="45.66233" lon="5.92317">
        <ele>310</ele>
        <time>2022-05-01T09:19:25.362Z</time>
      </trkpt>
      <trkpt lat="45.66235" lon="5.92318">
        <ele>309</ele>
        <time>2022-05-01T09:19:26.361Z</time>
      </trkpt>
      <trkpt lat="45.66238" lon="5.92318">
        <ele>310</ele>
        <time>2022-05-01T09:19:27.362Z</time>
      </trkpt>
      <trkpt lat="45.6624" lon="5.92318">
        <ele>310</ele>
        <time>2022-05-01T09:19:28.362Z</time>
      </trkpt>
      <trkpt lat="45.66243" lon="5.92318">
        <ele>310</ele>
        <time>2022-05-01T09:19:29.362Z</time>
      </trkpt>
      <trkpt lat="45.66245" lon="5.92319">
        <ele>310</ele>
        <time>2022-05-01T09:19:30.361Z</time>
      </trkpt>
      <trkpt lat="45.66248" lon="5.92319">
        <ele>311</ele>
        <time>2022-05-01T09:19:31.361Z</time>
      </trkpt>
      <trkpt lat="45.6625" lon="5.92319">
        <ele>311</ele>
        <time>2022-05-01T09:19:32.361Z</time>
      </trkpt>
      <trkpt lat="45.66252" lon="5.92319">
        <ele>312</ele>
        <time>2022-05-01T09:19:33.362Z</time>
      </trkpt>
      <trkpt lat="45.66255" lon="5.92319">
        <ele>312</ele>
        <time>2022-05-01T09:19:34.362Z</time>
      </trkpt>
      <trkpt lat="45.66257" lon="5.92319">
        <ele>313</ele>
        <time>2022-05-01T09:19:35.362Z</time>
      </trkpt>
      <trkpt lat="45.66259" lon="5.9232">
        <ele>312</ele>
        <time>2022-05-01T09:19:36.361Z</time>
      </trkpt>
      <trkpt lat="45.66262" lon="5.9232">
        <ele>312</ele>
        <time>2022-05-01T09:19:37.362Z</time>
      </trkpt>
      <trkpt lat="45.66264" lon="5.9232">
        <ele>312</ele>
        <time>2022-05-01T09:19:38.362Z</time>
      </trkpt>
      <trkpt lat="45.66267" lon="5.92321">
        <ele>312</ele>
        <time>2022-05-01T09:19:39.361Z</time>
      </trkpt>
      <trkpt lat="45.66269" lon="5.92321">
        <ele>312</ele>
        <time>2022-05-01T09:19:40.362Z</time>
      </trkpt>
      <trkpt lat="45.66272" lon="5.92321">
        <ele>312</ele>
        <time>2022-05-01T09:19:41.362Z</time>
      </trkpt>
      <trkpt lat="45.66274" lon="5.92321">
        <ele>311</ele>
        <time>2022-05-01T09:19:42.362Z</time>
      </trkpt>
      <trkpt lat="45.66277" lon="5.92321">
        <ele>311</ele>
        <time>2022-05-01T09:19:43.362Z</time>
      </trkpt>
      <trkpt lat="45.66279" lon="5.92322">
        <ele>311</ele>
        <time>2022-05-01T09:19:44.362Z</time>
      </trkpt>
      <trkpt lat="45.66281" lon="5.92322">
        <ele>312</ele>
        <time>2022-05-01T09:19:45.361Z</time>
      </trkpt>
      <trkpt lat="45.66284" lon="5.92323">
        <ele>312</ele>
        <time>2022-05-01T09:19:46.362Z</time>
      </trkpt>
      <trkpt lat="45.66287" lon="5.92323">
        <ele>312</ele>
        <time>2022-05-01T09:19:47.361Z</time>
      </trkpt>
      <trkpt lat="45.66289" lon="5.92323">
        <ele>313</ele>
        <time>2022-05-01T09:19:48.362Z</time>
      </trkpt>
      <trkpt lat="45.66292" lon="5.92323">
        <ele>313</ele>
        <time>2022-05-01T09:19:49.362Z</time>
      </trkpt>
      <trkpt lat="45.66294" lon="5.92323">
        <ele>314</ele>
        <time>2022-05-01T09:19:50.362Z</time>
      </trkpt>
      <trkpt lat="45.66297" lon="5.92323">
        <ele>315</ele>
        <time>2022-05-01T09:19:51.362Z</time>
      </trkpt>
      <trkpt lat="45.66299" lon="5.92323">
        <ele>315</ele>
        <time>2022-05-01T09:19:52.361Z</time>
      </trkpt>
      <trkpt lat="45.66302" lon="5.92323">
        <ele>315</ele>
        <time>2022-05-01T09:19:53.362Z</time>
      </trkpt>
      <trkpt lat="45.66304" lon="5.92323">
        <ele>316</ele>
        <time>2022-05-01T09:19:54.362Z</time>
      </trkpt>
      <trkpt lat="45.66306" lon="5.92323">
        <ele>316</ele>
        <time>2022-05-01T09:19:55.362Z</time>
      </trkpt>
      <trkpt lat="45.66308" lon="5.92324">
        <ele>317</ele>
        <time>2022-05-01T09:19:56.362Z</time>
      </trkpt>
      <trkpt lat="45.66311" lon="5.92324">
        <ele>317</ele>
        <time>2022-05-01T09:19:57.361Z</time>
      </trkpt>
      <trkpt lat="45.66313" lon="5.92325">
        <ele>317</ele>
        <time>2022-05-01T09:19:58.362Z</time>
      </trkpt>
      <trkpt lat="45.66315" lon="5.92325">
        <ele>317</ele>
        <time>2022-05-01T09:19:59.362Z</time>
      </trkpt>
      <trkpt lat="45.66318" lon="5.92325">
        <ele>317</ele>
        <time>2022-05-01T09:20:00.362Z</time>
      </trkpt>
      <trkpt lat="45.6632" lon="5.92325">
        <ele>317</ele>
        <time>2022-05-01T09:20:01.362Z</time>
      </trkpt>
      <trkpt lat="45.66322" lon="5.92325">
        <ele>317</ele>
        <time>2022-05-01T09:20:02.362Z</time>
      </trkpt>
      <trkpt lat="45.66324" lon="5.92326">
        <ele>317</ele>
        <time>2022-05-01T09:20:03.361Z</time>
      </trkpt>
      <trkpt lat="45.66327" lon="5.92326">
        <ele>317</ele>
        <time>2022-05-01T09:20:04.361Z</time>
      </trkpt>
      <trkpt lat="45.66329" lon="5.92326">
        <ele>317</ele>
        <time>2022-05-01T09:20:05.362Z</time>
      </trkpt>
      <trkpt lat="45.66332" lon="5.92326">
        <ele>317</ele>
        <time>2022-05-01T09:20:06.362Z</time>
      </trkpt>
      <trkpt lat="45.66334" lon="5.92326">
        <ele>317</ele>
        <time>2022-05-01T09:20:07.362Z</time>
      </trkpt>
      <trkpt lat="45.66336" lon="5.92327">
        <ele>317</ele>
        <time>2022-05-01T09:20:08.362Z</time>
      </trkpt>
      <trkpt lat="45.66338" lon="5.92327">
        <ele>317</ele>
        <time>2022-05-01T09:20:09.362Z</time>
      </trkpt>
      <trkpt lat="45.66341" lon="5.92329">
        <ele>317</ele>
        <time>2022-05-01T09:20:10.362Z</time>
      </trkpt>
      <trkpt lat="45.66342" lon="5.92331">
        <ele>317</ele>
        <time>2022-05-01T09:20:11.362Z</time>
      </trkpt>
      <trkpt lat="45.66343" lon="5.92334">
        <ele>317</ele>
        <time>2022-05-01T09:20:12.362Z</time>
      </trkpt>
      <trkpt lat="45.66343" lon="5.92337">
        <ele>317</ele>
        <time>2022-05-01T09:20:13.362Z</time>
      </trkpt>
      <trkpt lat="45.66343" lon="5.9234">
        <ele>317</ele>
        <time>2022-05-01T09:20:14.362Z</time>
      </trkpt>
      <trkpt lat="45.66343" lon="5.92342">
        <ele>317</ele>
        <time>2022-05-01T09:20:15.362Z</time>
      </trkpt>
      <trkpt lat="45.66343" lon="5.92345">
        <ele>317</ele>
        <time>2022-05-01T09:20:16.362Z</time>
      </trkpt>
      <trkpt lat="45.66344" lon="5.92348">
        <ele>317</ele>
        <time>2022-05-01T09:20:17.361Z</time>
      </trkpt>
      <trkpt lat="45.66344" lon="5.92351">
        <ele>317</ele>
        <time>2022-05-01T09:20:18.362Z</time>
      </trkpt>
      <trkpt lat="45.66344" lon="5.92354">
        <ele>317</ele>
        <time>2022-05-01T09:20:19.362Z</time>
      </trkpt>
      <trkpt lat="45.66345" lon="5.92357">
        <ele>318</ele>
        <time>2022-05-01T09:20:20.362Z</time>
      </trkpt>
      <trkpt lat="45.66345" lon="5.92359">
        <ele>318</ele>
        <time>2022-05-01T09:20:21.362Z</time>
      </trkpt>
      <trkpt lat="45.66345" lon="5.92362">
        <ele>318</ele>
        <time>2022-05-01T09:20:22.362Z</time>
      </trkpt>
      <trkpt lat="45.66345" lon="5.92365">
        <ele>318</ele>
        <time>2022-05-01T09:20:23.362Z</time>
      </trkpt>
      <trkpt lat="45.66346" lon="5.92367">
        <ele>319</ele>
        <time>2022-05-01T09:20:24.362Z</time>
      </trkpt>
      <trkpt lat="45.66346" lon="5.9237">
        <ele>318</ele>
        <time>2022-05-01T09:20:25.362Z</time>
      </trkpt>
      <trkpt lat="45.66346" lon="5.92372">
        <ele>318</ele>
        <time>2022-05-01T09:20:26.361Z</time>
      </trkpt>
      <trkpt lat="45.66347" lon="5.92375">
        <ele>318</ele>
        <time>2022-05-01T09:20:27.361Z</time>
      </trkpt>
      <trkpt lat="45.66347" lon="5.92377">
        <ele>318</ele>
        <time>2022-05-01T09:20:28.362Z</time>
      </trkpt>
      <trkpt lat="45.66347" lon="5.9238">
        <ele>318</ele>
        <time>2022-05-01T09:20:29.361Z</time>
      </trkpt>
      <trkpt lat="45.66347" lon="5.92383">
        <ele>318</ele>
        <time>2022-05-01T09:20:30.362Z</time>
      </trkpt>
      <trkpt lat="45.66347" lon="5.92385">
        <ele>318</ele>
        <time>2022-05-01T09:20:31.362Z</time>
      </trkpt>
      <trkpt lat="45.66348" lon="5.92388">
        <ele>318</ele>
        <time>2022-05-01T09:20:32.361Z</time>
      </trkpt>
      <trkpt lat="45.66348" lon="5.92391">
        <ele>318</ele>
        <time>2022-05-01T09:20:33.362Z</time>
      </trkpt>
      <trkpt lat="45.66349" lon="5.92393">
        <ele>318</ele>
        <time>2022-05-01T09:20:34.361Z</time>
      </trkpt>
      <trkpt lat="45.66349" lon="5.92396">
        <ele>318</ele>
        <time>2022-05-01T09:20:35.362Z</time>
      </trkpt>
      <trkpt lat="45.6635" lon="5.92398">
        <ele>318</ele>
        <time>2022-05-01T09:20:36.362Z</time>
      </trkpt>
      <trkpt lat="45.6635" lon="5.92401">
        <ele>318</ele>
        <time>2022-05-01T09:20:37.362Z</time>
      </trkpt>
      <trkpt lat="45.6635" lon="5.92404">
        <ele>318</ele>
        <time>2022-05-01T09:20:38.362Z</time>
      </trkpt>
      <trkpt lat="45.66351" lon="5.92407">
        <ele>318</ele>
        <time>2022-05-01T09:20:39.362Z</time>
      </trkpt>
      <trkpt lat="45.66351" lon="5.92409">
        <ele>318</ele>
        <time>2022-05-01T09:20:40.362Z</time>
      </trkpt>
      <trkpt lat="45.66352" lon="5.92411">
        <ele>318</ele>
        <time>2022-05-01T09:20:41.361Z</time>
      </trkpt>
      <trkpt lat="45.66353" lon="5.92413">
        <ele>319</ele>
        <time>2022-05-01T09:20:42.362Z</time>
      </trkpt>
      <trkpt lat="45.66354" lon="5.92415">
        <ele>319</ele>
        <time>2022-05-01T09:20:43.361Z</time>
      </trkpt>
      <trkpt lat="45.66355" lon="5.92418">
        <ele>319</ele>
        <time>2022-05-01T09:20:44.361Z</time>
      </trkpt>
      <trkpt lat="45.66355" lon="5.92419">
        <ele>320</ele>
        <time>2022-05-01T09:20:45.362Z</time>
      </trkpt>
      <trkpt lat="45.66356" lon="5.92422">
        <ele>320</ele>
        <time>2022-05-01T09:20:46.362Z</time>
      </trkpt>
      <trkpt lat="45.66357" lon="5.92425">
        <ele>320</ele>
        <time>2022-05-01T09:20:47.361Z</time>
      </trkpt>
      <trkpt lat="45.66358" lon="5.92427">
        <ele>320</ele>
        <time>2022-05-01T09:20:48.362Z</time>
      </trkpt>
      <trkpt lat="45.66359" lon="5.92429">
        <ele>320</ele>
        <time>2022-05-01T09:20:49.362Z</time>
      </trkpt>
      <trkpt lat="45.6636" lon="5.92431">
        <ele>320</ele>
        <time>2022-05-01T09:20:50.361Z</time>
      </trkpt>
      <trkpt lat="45.66361" lon="5.92433">
        <ele>319</ele>
        <time>2022-05-01T09:20:51.362Z</time>
      </trkpt>
      <trkpt lat="45.66362" lon="5.92436">
        <ele>319</ele>
        <time>2022-05-01T09:20:52.362Z</time>
      </trkpt>
      <trkpt lat="45.66364" lon="5.92438">
        <ele>319</ele>
        <time>2022-05-01T09:20:53.362Z</time>
      </trkpt>
      <trkpt lat="45.66365" lon="5.92441">
        <ele>319</ele>
        <time>2022-05-01T09:20:54.362Z</time>
      </trkpt>
      <trkpt lat="45.66366" lon="5.92443">
        <ele>320</ele>
        <time>2022-05-01T09:20:55.362Z</time>
      </trkpt>
      <trkpt lat="45.66367" lon="5.92445">
        <ele>320</ele>
        <time>2022-05-01T09:20:56.362Z</time>
      </trkpt>
      <trkpt lat="45.66368" lon="5.92448">
        <ele>320</ele>
        <time>2022-05-01T09:20:57.362Z</time>
      </trkpt>
      <trkpt lat="45.6637" lon="5.9245">
        <ele>320</ele>
        <time>2022-05-01T09:20:58.361Z</time>
      </trkpt>
      <trkpt lat="45.66371" lon="5.92452">
        <ele>320</ele>
        <time>2022-05-01T09:20:59.362Z</time>
      </trkpt>
      <trkpt lat="45.66373" lon="5.92454">
        <ele>320</ele>
        <time>2022-05-01T09:21:00.361Z</time>
      </trkpt>
      <trkpt lat="45.66374" lon="5.92457">
        <ele>320</ele>
        <time>2022-05-01T09:21:01.362Z</time>
      </trkpt>
      <trkpt lat="45.66376" lon="5.92459">
        <ele>321</ele>
        <time>2022-05-01T09:21:02.361Z</time>
      </trkpt>
      <trkpt lat="45.66377" lon="5.92461">
        <ele>321</ele>
        <time>2022-05-01T09:21:03.362Z</time>
      </trkpt>
      <trkpt lat="45.66379" lon="5.92464">
        <ele>322</ele>
        <time>2022-05-01T09:21:04.362Z</time>
      </trkpt>
      <trkpt lat="45.6638" lon="5.92466">
        <ele>322</ele>
        <time>2022-05-01T09:21:05.362Z</time>
      </trkpt>
      <trkpt lat="45.66382" lon="5.92468">
        <ele>322</ele>
        <time>2022-05-01T09:21:06.362Z</time>
      </trkpt>
      <trkpt lat="45.66383" lon="5.92471">
        <ele>323</ele>
        <time>2022-05-01T09:21:07.361Z</time>
      </trkpt>
      <trkpt lat="45.66384" lon="5.92473">
        <ele>323</ele>
        <time>2022-05-01T09:21:08.362Z</time>
      </trkpt>
      <trkpt lat="45.66386" lon="5.92476">
        <ele>323</ele>
        <time>2022-05-01T09:21:09.362Z</time>
      </trkpt>
      <trkpt lat="45.66387" lon="5.92478">
        <ele>323</ele>
        <time>2022-05-01T09:21:10.362Z</time>
      </trkpt>
      <trkpt lat="45.66388" lon="5.92481">
        <ele>324</ele>
        <time>2022-05-01T09:21:11.362Z</time>
      </trkpt>
      <trkpt lat="45.6639" lon="5.92483">
        <ele>324</ele>
        <time>2022-05-01T09:21:12.362Z</time>
      </trkpt>
      <trkpt lat="45.66391" lon="5.92486">
        <ele>324</ele>
        <time>2022-05-01T09:21:13.362Z</time>
      </trkpt>
      <trkpt lat="45.66392" lon="5.92489">
        <ele>324</ele>
        <time>2022-05-01T09:21:14.361Z</time>
      </trkpt>
      <trkpt lat="45.66394" lon="5.92492">
        <ele>325</ele>
        <time>2022-05-01T09:21:15.361Z</time>
      </trkpt>
      <trkpt lat="45.66395" lon="5.92494">
        <ele>325</ele>
        <time>2022-05-01T09:21:16.362Z</time>
      </trkpt>
      <trkpt lat="45.66396" lon="5.92497">
        <ele>325</ele>
        <time>2022-05-01T09:21:17.362Z</time>
      </trkpt>
      <trkpt lat="45.66398" lon="5.925">
        <ele>325</ele>
        <time>2022-05-01T09:21:18.361Z</time>
      </trkpt>
      <trkpt lat="45.66399" lon="5.92503">
        <ele>325</ele>
        <time>2022-05-01T09:21:19.362Z</time>
      </trkpt>
      <trkpt lat="45.664" lon="5.92506">
        <ele>325</ele>
        <time>2022-05-01T09:21:20.362Z</time>
      </trkpt>
      <trkpt lat="45.66401" lon="5.9251">
        <ele>325</ele>
        <time>2022-05-01T09:21:21.362Z</time>
      </trkpt>
      <trkpt lat="45.66402" lon="5.92512">
        <ele>326</ele>
        <time>2022-05-01T09:21:22.362Z</time>
      </trkpt>
      <trkpt lat="45.66404" lon="5.92516">
        <ele>326</ele>
        <time>2022-05-01T09:21:23.362Z</time>
      </trkpt>
      <trkpt lat="45.66405" lon="5.92519">
        <ele>326</ele>
        <time>2022-05-01T09:21:24.362Z</time>
      </trkpt>
      <trkpt lat="45.66406" lon="5.92523">
        <ele>327</ele>
        <time>2022-05-01T09:21:25.362Z</time>
      </trkpt>
      <trkpt lat="45.66407" lon="5.92526">
        <ele>327</ele>
        <time>2022-05-01T09:21:26.362Z</time>
      </trkpt>
      <trkpt lat="45.66408" lon="5.9253">
        <ele>327</ele>
        <time>2022-05-01T09:21:27.361Z</time>
      </trkpt>
      <trkpt lat="45.66409" lon="5.92534">
        <ele>326</ele>
        <time>2022-05-01T09:21:28.362Z</time>
      </trkpt>
      <trkpt lat="45.6641" lon="5.92537">
        <ele>326</ele>
        <time>2022-05-01T09:21:29.362Z</time>
      </trkpt>
      <trkpt lat="45.66412" lon="5.92541">
        <ele>326</ele>
        <time>2022-05-01T09:21:30.361Z</time>
      </trkpt>
      <trkpt lat="45.66413" lon="5.92545">
        <ele>326</ele>
        <time>2022-05-01T09:21:31.362Z</time>
      </trkpt>
      <trkpt lat="45.66414" lon="5.92548">
        <ele>326</ele>
        <time>2022-05-01T09:21:32.362Z</time>
      </trkpt>
      <trkpt lat="45.66415" lon="5.92552">
        <ele>326</ele>
        <time>2022-05-01T09:21:33.362Z</time>
      </trkpt>
      <trkpt lat="45.66416" lon="5.92556">
        <ele>327</ele>
        <time>2022-05-01T09:21:34.362Z</time>
      </trkpt>
      <trkpt lat="45.66418" lon="5.9256">
        <ele>327</ele>
        <time>2022-05-01T09:21:35.362Z</time>
      </trkpt>
      <trkpt lat="45.66419" lon="5.92565">
        <ele>327</ele>
        <time>2022-05-01T09:21:36.362Z</time>
      </trkpt>
      <trkpt lat="45.66421" lon="5.92569">
        <ele>328</ele>
        <time>2022-05-01T09:21:37.362Z</time>
      </trkpt>
      <trkpt lat="45.66423" lon="5.92573">
        <ele>328</ele>
        <time>2022-05-01T09:21:38.362Z</time>
      </trkpt>
      <trkpt lat="45.66425" lon="5.92577">
        <ele>328</ele>
        <time>2022-05-01T09:21:39.362Z</time>
      </trkpt>
      <trkpt lat="45.66427" lon="5.9258">
        <ele>329</ele>
        <time>2022-05-01T09:21:40.362Z</time>
      </trkpt>
      <trkpt lat="45.6643" lon="5.92584">
        <ele>329</ele>
        <time>2022-05-01T09:21:41.362Z</time>
      </trkpt>
      <trkpt lat="45.66433" lon="5.92587">
        <ele>330</ele>
        <time>2022-05-01T09:21:42.361Z</time>
      </trkpt>
      <trkpt lat="45.66436" lon="5.92591">
        <ele>330</ele>
        <time>2022-05-01T09:21:43.362Z</time>
      </trkpt>
      <trkpt lat="45.66439" lon="5.92594">
        <ele>331</ele>
        <time>2022-05-01T09:21:44.362Z</time>
      </trkpt>
      <trkpt lat="45.66443" lon="5.92597">
        <ele>332</ele>
        <time>2022-05-01T09:21:45.361Z</time>
      </trkpt>
      <trkpt lat="45.66446" lon="5.92599">
        <ele>332</ele>
        <time>2022-05-01T09:21:46.362Z</time>
      </trkpt>
      <trkpt lat="45.6645" lon="5.92601">
        <ele>332</ele>
        <time>2022-05-01T09:21:47.362Z</time>
      </trkpt>
      <trkpt lat="45.66455" lon="5.92603">
        <ele>332</ele>
        <time>2022-05-01T09:21:48.362Z</time>
      </trkpt>
      <trkpt lat="45.6646" lon="5.92604">
        <ele>332</ele>
        <time>2022-05-01T09:21:49.362Z</time>
      </trkpt>
      <trkpt lat="45.66464" lon="5.92604">
        <ele>332</ele>
        <time>2022-05-01T09:21:50.361Z</time>
      </trkpt>
      <trkpt lat="45.66469" lon="5.92605">
        <ele>332</ele>
        <time>2022-05-01T09:21:51.361Z</time>
      </trkpt>
      <trkpt lat="45.66474" lon="5.92605">
        <ele>331</ele>
        <time>2022-05-01T09:21:52.362Z</time>
      </trkpt>
      <trkpt lat="45.6648" lon="5.92606">
        <ele>331</ele>
        <time>2022-05-01T09:21:53.361Z</time>
      </trkpt>
      <trkpt lat="45.66485" lon="5.92607">
        <ele>331</ele>
        <time>2022-05-01T09:21:54.362Z</time>
      </trkpt>
      <trkpt lat="45.66491" lon="5.92607">
        <ele>331</ele>
        <time>2022-05-01T09:21:55.361Z</time>
      </trkpt>
      <trkpt lat="45.66496" lon="5.92608">
        <ele>330</ele>
        <time>2022-05-01T09:21:56.362Z</time>
      </trkpt>
      <trkpt lat="45.66502" lon="5.92609">
        <ele>330</ele>
        <time>2022-05-01T09:21:57.362Z</time>
      </trkpt>
      <trkpt lat="45.66508" lon="5.9261">
        <ele>330</ele>
        <time>2022-05-01T09:21:58.362Z</time>
      </trkpt>
      <trkpt lat="45.66514" lon="5.92611">
        <ele>331</ele>
        <time>2022-05-01T09:21:59.362Z</time>
      </trkpt>
      <trkpt lat="45.66521" lon="5.92613">
        <ele>331</ele>
        <time>2022-05-01T09:22:00.362Z</time>
      </trkpt>
      <trkpt lat="45.66527" lon="5.92615">
        <ele>331</ele>
        <time>2022-05-01T09:22:01.362Z</time>
      </trkpt>
      <trkpt lat="45.66534" lon="5.92618">
        <ele>331</ele>
        <time>2022-05-01T09:22:02.361Z</time>
      </trkpt>
      <trkpt lat="45.66541" lon="5.92621">
        <ele>331</ele>
        <time>2022-05-01T09:22:03.362Z</time>
      </trkpt>
      <trkpt lat="45.66545" lon="5.92623">
        <ele>331</ele>
        <time>2022-05-01T09:22:04.362Z</time>
      </trkpt>
      <trkpt lat="45.66551" lon="5.92626">
        <ele>332</ele>
        <time>2022-05-01T09:22:05.361Z</time>
      </trkpt>
      <trkpt lat="45.66557" lon="5.92629">
        <ele>333</ele>
        <time>2022-05-01T09:22:06.362Z</time>
      </trkpt>
      <trkpt lat="45.66562" lon="5.92632">
        <ele>334</ele>
        <time>2022-05-01T09:22:07.362Z</time>
      </trkpt>
      <trkpt lat="45.66567" lon="5.92635">
        <ele>334</ele>
        <time>2022-05-01T09:22:08.362Z</time>
      </trkpt>
      <trkpt lat="45.66572" lon="5.92638">
        <ele>334</ele>
        <time>2022-05-01T09:22:09.362Z</time>
      </trkpt>
      <trkpt lat="45.66576" lon="5.92641">
        <ele>334</ele>
        <time>2022-05-01T09:22:10.362Z</time>
      </trkpt>
      <trkpt lat="45.6658" lon="5.92644">
        <ele>334</ele>
        <time>2022-05-01T09:22:11.362Z</time>
      </trkpt>
      <trkpt lat="45.66584" lon="5.92647">
        <ele>334</ele>
        <time>2022-05-01T09:22:12.361Z</time>
      </trkpt>
      <trkpt lat="45.66588" lon="5.9265">
        <ele>334</ele>
        <time>2022-05-01T09:22:13.361Z</time>
      </trkpt>
      <trkpt lat="45.66592" lon="5.92653">
        <ele>333</ele>
        <time>2022-05-01T09:22:14.361Z</time>
      </trkpt>
      <trkpt lat="45.66595" lon="5.92657">
        <ele>333</ele>
        <time>2022-05-01T09:22:15.362Z</time>
      </trkpt>
      <trkpt lat="45.66599" lon="5.92661">
        <ele>333</ele>
        <time>2022-05-01T09:22:16.362Z</time>
      </trkpt>
      <trkpt lat="45.66602" lon="5.92664">
        <ele>332</ele>
        <time>2022-05-01T09:22:17.361Z</time>
      </trkpt>
      <trkpt lat="45.66605" lon="5.92667">
        <ele>332</ele>
        <time>2022-05-01T09:22:18.361Z</time>
      </trkpt>
      <trkpt lat="45.66608" lon="5.9267">
        <ele>332</ele>
        <time>2022-05-01T09:22:19.361Z</time>
      </trkpt>
      <trkpt lat="45.66611" lon="5.92673">
        <ele>332</ele>
        <time>2022-05-01T09:22:20.361Z</time>
      </trkpt>
      <trkpt lat="45.66613" lon="5.92675">
        <ele>331</ele>
        <time>2022-05-01T09:22:21.362Z</time>
      </trkpt>
      <trkpt lat="45.66615" lon="5.92678">
        <ele>331</ele>
        <time>2022-05-01T09:22:22.361Z</time>
      </trkpt>
      <trkpt lat="45.66618" lon="5.92679">
        <ele>331</ele>
        <time>2022-05-01T09:22:23.362Z</time>
      </trkpt>
      <trkpt lat="45.6662" lon="5.92682">
        <ele>331</ele>
        <time>2022-05-01T09:22:24.362Z</time>
      </trkpt>
      <trkpt lat="45.66622" lon="5.92683">
        <ele>331</ele>
        <time>2022-05-01T09:22:25.362Z</time>
      </trkpt>
      <trkpt lat="45.66624" lon="5.92685">
        <ele>331</ele>
        <time>2022-05-01T09:22:26.362Z</time>
      </trkpt>
      <trkpt lat="45.66625" lon="5.92687">
        <ele>331</ele>
        <time>2022-05-01T09:22:27.361Z</time>
      </trkpt>
      <trkpt lat="45.66626" lon="5.92688">
        <ele>331</ele>
        <time>2022-05-01T09:22:28.362Z</time>
      </trkpt>
      <trkpt lat="45.66628" lon="5.92689">
        <ele>331</ele>
        <time>2022-05-01T09:22:29.361Z</time>
      </trkpt>
      <trkpt lat="45.6663" lon="5.92691">
        <ele>331</ele>
        <time>2022-05-01T09:22:30.361Z</time>
      </trkpt>
      <trkpt lat="45.66631" lon="5.92692">
        <ele>331</ele>
        <time>2022-05-01T09:22:31.362Z</time>
      </trkpt>
      <trkpt lat="45.66633" lon="5.92693">
        <ele>332</ele>
        <time>2022-05-01T09:22:32.362Z</time>
      </trkpt>
      <trkpt lat="45.66635" lon="5.92694">
        <ele>332</ele>
        <time>2022-05-01T09:22:33.362Z</time>
      </trkpt>
      <trkpt lat="45.66636" lon="5.92696">
        <ele>332</ele>
        <time>2022-05-01T09:22:34.362Z</time>
      </trkpt>
      <trkpt lat="45.66638" lon="5.92698">
        <ele>333</ele>
        <time>2022-05-01T09:22:35.362Z</time>
      </trkpt>
      <trkpt lat="45.6664" lon="5.927">
        <ele>333</ele>
        <time>2022-05-01T09:22:36.362Z</time>
      </trkpt>
      <trkpt lat="45.66642" lon="5.92702">
        <ele>334</ele>
        <time>2022-05-01T09:22:37.362Z</time>
      </trkpt>
      <trkpt lat="45.66644" lon="5.92703">
        <ele>334</ele>
        <time>2022-05-01T09:22:38.361Z</time>
      </trkpt>
      <trkpt lat="45.66646" lon="5.92705">
        <ele>335</ele>
        <time>2022-05-01T09:22:39.362Z</time>
      </trkpt>
      <trkpt lat="45.66647" lon="5.92708">
        <ele>335</ele>
        <time>2022-05-01T09:22:40.362Z</time>
      </trkpt>
      <trkpt lat="45.66649" lon="5.9271">
        <ele>336</ele>
        <time>2022-05-01T09:22:41.362Z</time>
      </trkpt>
      <trkpt lat="45.6665" lon="5.92713">
        <ele>336</ele>
        <time>2022-05-01T09:22:42.362Z</time>
      </trkpt>
      <trkpt lat="45.66651" lon="5.92717">
        <ele>337</ele>
        <time>2022-05-01T09:22:43.362Z</time>
      </trkpt>
      <trkpt lat="45.66651" lon="5.9272">
        <ele>338</ele>
        <time>2022-05-01T09:22:44.362Z</time>
      </trkpt>
      <trkpt lat="45.66651" lon="5.92724">
        <ele>339</ele>
        <time>2022-05-01T09:22:45.362Z</time>
      </trkpt>
      <trkpt lat="45.6665" lon="5.92728">
        <ele>339</ele>
        <time>2022-05-01T09:22:46.362Z</time>
      </trkpt>
      <trkpt lat="45.66649" lon="5.92732">
        <ele>340</ele>
        <time>2022-05-01T09:22:47.361Z</time>
      </trkpt>
      <trkpt lat="45.66647" lon="5.92735">
        <ele>340</ele>
        <time>2022-05-01T09:22:48.361Z</time>
      </trkpt>
      <trkpt lat="45.66645" lon="5.92738">
        <ele>341</ele>
        <time>2022-05-01T09:22:49.362Z</time>
      </trkpt>
      <trkpt lat="45.66644" lon="5.92741">
        <ele>341</ele>
        <time>2022-05-01T09:22:50.362Z</time>
      </trkpt>
      <trkpt lat="45.66643" lon="5.92743">
        <ele>340</ele>
        <time>2022-05-01T09:22:51.362Z</time>
      </trkpt>
      <trkpt lat="45.66641" lon="5.92746">
        <ele>340</ele>
        <time>2022-05-01T09:22:52.361Z</time>
      </trkpt>
      <trkpt lat="45.66639" lon="5.92748">
        <ele>340</ele>
        <time>2022-05-01T09:22:53.362Z</time>
      </trkpt>
      <trkpt lat="45.66639" lon="5.92753">
        <ele>339</ele>
        <time>2022-05-01T09:22:54.362Z</time>
      </trkpt>
      <trkpt lat="45.66637" lon="5.92756">
        <ele>339</ele>
        <time>2022-05-01T09:22:55.362Z</time>
      </trkpt>
      <trkpt lat="45.66636" lon="5.92759">
        <ele>339</ele>
        <time>2022-05-01T09:22:56.361Z</time>
      </trkpt>
      <trkpt lat="45.66634" lon="5.92762">
        <ele>340</ele>
        <time>2022-05-01T09:22:57.362Z</time>
      </trkpt>
      <trkpt lat="45.66633" lon="5.92765">
        <ele>340</ele>
        <time>2022-05-01T09:22:58.362Z</time>
      </trkpt>
      <trkpt lat="45.66632" lon="5.92767">
        <ele>340</ele>
        <time>2022-05-01T09:22:59.362Z</time>
      </trkpt>
      <trkpt lat="45.6663" lon="5.92769">
        <ele>340</ele>
        <time>2022-05-01T09:23:00.362Z</time>
      </trkpt>
      <trkpt lat="45.66628" lon="5.92771">
        <ele>341</ele>
        <time>2022-05-01T09:23:01.362Z</time>
      </trkpt>
      <trkpt lat="45.66627" lon="5.92773">
        <ele>341</ele>
        <time>2022-05-01T09:23:02.361Z</time>
      </trkpt>
      <trkpt lat="45.66625" lon="5.92775">
        <ele>342</ele>
        <time>2022-05-01T09:23:03.362Z</time>
      </trkpt>
      <trkpt lat="45.66624" lon="5.92777">
        <ele>342</ele>
        <time>2022-05-01T09:23:04.362Z</time>
      </trkpt>
      <trkpt lat="45.66622" lon="5.92779">
        <ele>342</ele>
        <time>2022-05-01T09:23:05.362Z</time>
      </trkpt>
      <trkpt lat="45.6662" lon="5.92781">
        <ele>342</ele>
        <time>2022-05-01T09:23:06.362Z</time>
      </trkpt>
      <trkpt lat="45.66618" lon="5.92782">
        <ele>342</ele>
        <time>2022-05-01T09:23:07.362Z</time>
      </trkpt>
      <trkpt lat="45.66616" lon="5.92784">
        <ele>342</ele>
        <time>2022-05-01T09:23:08.362Z</time>
      </trkpt>
      <trkpt lat="45.66614" lon="5.92785">
        <ele>342</ele>
        <time>2022-05-01T09:23:09.362Z</time>
      </trkpt>
      <trkpt lat="45.66612" lon="5.92786">
        <ele>341</ele>
        <time>2022-05-01T09:23:10.361Z</time>
      </trkpt>
      <trkpt lat="45.66609" lon="5.92787">
        <ele>341</ele>
        <time>2022-05-01T09:23:11.361Z</time>
      </trkpt>
      <trkpt lat="45.66606" lon="5.92788">
        <ele>342</ele>
        <time>2022-05-01T09:23:12.362Z</time>
      </trkpt>
      <trkpt lat="45.66604" lon="5.92788">
        <ele>342</ele>
        <time>2022-05-01T09:23:13.362Z</time>
      </trkpt>
      <trkpt lat="45.66601" lon="5.92788">
        <ele>342</ele>
        <time>2022-05-01T09:23:14.362Z</time>
      </trkpt>
      <trkpt lat="45.66599" lon="5.92789">
        <ele>342</ele>
        <time>2022-05-01T09:23:15.362Z</time>
      </trkpt>
      <trkpt lat="45.66597" lon="5.92789">
        <ele>342</ele>
        <time>2022-05-01T09:23:16.362Z</time>
      </trkpt>
      <trkpt lat="45.66595" lon="5.9279">
        <ele>343</ele>
        <time>2022-05-01T09:23:17.361Z</time>
      </trkpt>
      <trkpt lat="45.66593" lon="5.92791">
        <ele>343</ele>
        <time>2022-05-01T09:23:18.361Z</time>
      </trkpt>
      <trkpt lat="45.66592" lon="5.92791">
        <ele>343</ele>
        <time>2022-05-01T09:23:19.362Z</time>
      </trkpt>
      <trkpt lat="45.66591" lon="5.92792">
        <ele>343</ele>
        <time>2022-05-01T09:23:20.362Z</time>
      </trkpt>
      <trkpt lat="45.6659" lon="5.92792">
        <ele>343</ele>
        <time>2022-05-01T09:23:21.361Z</time>
      </trkpt>
      <trkpt lat="45.66589" lon="5.92792">
        <ele>343</ele>
        <time>2022-05-01T09:23:22.361Z</time>
      </trkpt>
      <trkpt lat="45.66588" lon="5.92793">
        <ele>343</ele>
        <time>2022-05-01T09:23:23.361Z</time>
      </trkpt>
      <trkpt lat="45.66584" lon="5.92794">
        <ele>344</ele>
        <time>2022-05-01T09:23:24.362Z</time>
      </trkpt>
      <trkpt lat="45.66582" lon="5.92795">
        <ele>344</ele>
        <time>2022-05-01T09:23:25.362Z</time>
      </trkpt>
      <trkpt lat="45.6658" lon="5.92795">
        <ele>344</ele>
        <time>2022-05-01T09:23:26.362Z</time>
      </trkpt>
      <trkpt lat="45.66578" lon="5.92796">
        <ele>344</ele>
        <time>2022-05-01T09:23:27.362Z</time>
      </trkpt>
      <trkpt lat="45.66575" lon="5.92797">
        <ele>345</ele>
        <time>2022-05-01T09:23:28.361Z</time>
      </trkpt>
      <trkpt lat="45.66574" lon="5.92798">
        <ele>345</ele>
        <time>2022-05-01T09:23:29.362Z</time>
      </trkpt>
      <trkpt lat="45.66572" lon="5.92799">
        <ele>346</ele>
        <time>2022-05-01T09:23:30.362Z</time>
      </trkpt>
      <trkpt lat="45.6657" lon="5.92799">
        <ele>346</ele>
        <time>2022-05-01T09:23:31.362Z</time>
      </trkpt>
      <trkpt lat="45.66568" lon="5.928">
        <ele>347</ele>
        <time>2022-05-01T09:23:32.362Z</time>
      </trkpt>
      <trkpt lat="45.66565" lon="5.92801">
        <ele>347</ele>
        <time>2022-05-01T09:23:33.362Z</time>
      </trkpt>
      <trkpt lat="45.66563" lon="5.92801">
        <ele>347</ele>
        <time>2022-05-01T09:23:34.362Z</time>
      </trkpt>
      <trkpt lat="45.66561" lon="5.92802">
        <ele>347</ele>
        <time>2022-05-01T09:23:35.362Z</time>
      </trkpt>
      <trkpt lat="45.66559" lon="5.92803">
        <ele>347</ele>
        <time>2022-05-01T09:23:36.362Z</time>
      </trkpt>
      <trkpt lat="45.66556" lon="5.92804">
        <ele>347</ele>
        <time>2022-05-01T09:23:37.361Z</time>
      </trkpt>
      <trkpt lat="45.66553" lon="5.92805">
        <ele>347</ele>
        <time>2022-05-01T09:23:38.361Z</time>
      </trkpt>
      <trkpt lat="45.6655" lon="5.92806">
        <ele>346</ele>
        <time>2022-05-01T09:23:39.362Z</time>
      </trkpt>
      <trkpt lat="45.66548" lon="5.92807">
        <ele>346</ele>
        <time>2022-05-01T09:23:40.362Z</time>
      </trkpt>
      <trkpt lat="45.66546" lon="5.92808">
        <ele>346</ele>
        <time>2022-05-01T09:23:41.362Z</time>
      </trkpt>
      <trkpt lat="45.66545" lon="5.92809">
        <ele>347</ele>
        <time>2022-05-01T09:23:42.361Z</time>
      </trkpt>
      <trkpt lat="45.66543" lon="5.9281">
        <ele>347</ele>
        <time>2022-05-01T09:23:43.362Z</time>
      </trkpt>
      <trkpt lat="45.6654" lon="5.92812">
        <ele>347</ele>
        <time>2022-05-01T09:23:44.361Z</time>
      </trkpt>
      <trkpt lat="45.66538" lon="5.92813">
        <ele>348</ele>
        <time>2022-05-01T09:23:45.362Z</time>
      </trkpt>
      <trkpt lat="45.66536" lon="5.92814">
        <ele>349</ele>
        <time>2022-05-01T09:23:46.362Z</time>
      </trkpt>
      <trkpt lat="45.66534" lon="5.92815">
        <ele>349</ele>
        <time>2022-05-01T09:23:47.362Z</time>
      </trkpt>
      <trkpt lat="45.66532" lon="5.92817">
        <ele>350</ele>
        <time>2022-05-01T09:23:48.361Z</time>
      </trkpt>
      <trkpt lat="45.6653" lon="5.92818">
        <ele>350</ele>
        <time>2022-05-01T09:23:49.362Z</time>
      </trkpt>
      <trkpt lat="45.66529" lon="5.92819">
        <ele>350</ele>
        <time>2022-05-01T09:23:50.361Z</time>
      </trkpt>
      <trkpt lat="45.66528" lon="5.9282">
        <ele>350</ele>
        <time>2022-05-01T09:23:51.361Z</time>
      </trkpt>
      <trkpt lat="45.66526" lon="5.92822">
        <ele>350</ele>
        <time>2022-05-01T09:23:52.362Z</time>
      </trkpt>
      <trkpt lat="45.66524" lon="5.92823">
        <ele>350</ele>
        <time>2022-05-01T09:23:53.362Z</time>
      </trkpt>
      <trkpt lat="45.66523" lon="5.92824">
        <ele>350</ele>
        <time>2022-05-01T09:23:54.362Z</time>
      </trkpt>
      <trkpt lat="45.66521" lon="5.92825">
        <ele>350</ele>
        <time>2022-05-01T09:23:55.362Z</time>
      </trkpt>
      <trkpt lat="45.66519" lon="5.92826">
        <ele>349</ele>
        <time>2022-05-01T09:23:56.361Z</time>
      </trkpt>
      <trkpt lat="45.66518" lon="5.92827">
        <ele>349</ele>
        <time>2022-05-01T09:23:57.362Z</time>
      </trkpt>
      <trkpt lat="45.66517" lon="5.92828">
        <ele>349</ele>
        <time>2022-05-01T09:23:58.362Z</time>
      </trkpt>
      <trkpt lat="45.66515" lon="5.92829">
        <ele>349</ele>
        <time>2022-05-01T09:23:59.361Z</time>
      </trkpt>
      <trkpt lat="45.66514" lon="5.9283">
        <ele>349</ele>
        <time>2022-05-01T09:24:00.361Z</time>
      </trkpt>
      <trkpt lat="45.66512" lon="5.92831">
        <ele>348</ele>
        <time>2022-05-01T09:24:01.362Z</time>
      </trkpt>
      <trkpt lat="45.6651" lon="5.92832">
        <ele>348</ele>
        <time>2022-05-01T09:24:02.361Z</time>
      </trkpt>
      <trkpt lat="45.66508" lon="5.92833">
        <ele>348</ele>
        <time>2022-05-01T09:24:03.362Z</time>
      </trkpt>
      <trkpt lat="45.66507" lon="5.92834">
        <ele>348</ele>
        <time>2022-05-01T09:24:04.361Z</time>
      </trkpt>
      <trkpt lat="45.66505" lon="5.92835">
        <ele>348</ele>
        <time>2022-05-01T09:24:05.362Z</time>
      </trkpt>
      <trkpt lat="45.66504" lon="5.92835">
        <ele>348</ele>
        <time>2022-05-01T09:24:06.361Z</time>
      </trkpt>
      <trkpt lat="45.66503" lon="5.92836">
        <ele>349</ele>
        <time>2022-05-01T09:24:07.362Z</time>
      </trkpt>
      <trkpt lat="45.66501" lon="5.92837">
        <ele>349</ele>
        <time>2022-05-01T09:24:08.362Z</time>
      </trkpt>
      <trkpt lat="45.66499" lon="5.92838">
        <ele>349</ele>
        <time>2022-05-01T09:24:09.361Z</time>
      </trkpt>
      <trkpt lat="45.66497" lon="5.92838">
        <ele>349</ele>
        <time>2022-05-01T09:24:10.361Z</time>
      </trkpt>
      <trkpt lat="45.66494" lon="5.92839">
        <ele>350</ele>
        <time>2022-05-01T09:24:11.361Z</time>
      </trkpt>
      <trkpt lat="45.66492" lon="5.92839">
        <ele>350</ele>
        <time>2022-05-01T09:24:12.362Z</time>
      </trkpt>
      <trkpt lat="45.6649" lon="5.9284">
        <ele>351</ele>
        <time>2022-05-01T09:24:13.362Z</time>
      </trkpt>
      <trkpt lat="45.66488" lon="5.92841">
        <ele>351</ele>
        <time>2022-05-01T09:24:14.362Z</time>
      </trkpt>
      <trkpt lat="45.66486" lon="5.92841">
        <ele>351</ele>
        <time>2022-05-01T09:24:15.362Z</time>
      </trkpt>
      <trkpt lat="45.66484" lon="5.92841">
        <ele>351</ele>
        <time>2022-05-01T09:24:16.361Z</time>
      </trkpt>
      <trkpt lat="45.66481" lon="5.92841">
        <ele>351</ele>
        <time>2022-05-01T09:24:17.362Z</time>
      </trkpt>
      <trkpt lat="45.66479" lon="5.92841">
        <ele>351</ele>
        <time>2022-05-01T09:24:18.362Z</time>
      </trkpt>
      <trkpt lat="45.66477" lon="5.92841">
        <ele>351</ele>
        <time>2022-05-01T09:24:19.362Z</time>
      </trkpt>
      <trkpt lat="45.66475" lon="5.92841">
        <ele>352</ele>
        <time>2022-05-01T09:24:20.362Z</time>
      </trkpt>
      <trkpt lat="45.66472" lon="5.92842">
        <ele>352</ele>
        <time>2022-05-01T09:24:21.361Z</time>
      </trkpt>
      <trkpt lat="45.6647" lon="5.92842">
        <ele>352</ele>
        <time>2022-05-01T09:24:22.362Z</time>
      </trkpt>
      <trkpt lat="45.66467" lon="5.92843">
        <ele>352</ele>
        <time>2022-05-01T09:24:23.362Z</time>
      </trkpt>
      <trkpt lat="45.66465" lon="5.92843">
        <ele>352</ele>
        <time>2022-05-01T09:24:24.362Z</time>
      </trkpt>
      <trkpt lat="45.66462" lon="5.92844">
        <ele>353</ele>
        <time>2022-05-01T09:24:25.361Z</time>
      </trkpt>
      <trkpt lat="45.6646" lon="5.92846">
        <ele>353</ele>
        <time>2022-05-01T09:24:26.361Z</time>
      </trkpt>
      <trkpt lat="45.66458" lon="5.92847">
        <ele>353</ele>
        <time>2022-05-01T09:24:27.362Z</time>
      </trkpt>
      <trkpt lat="45.66456" lon="5.92849">
        <ele>352</ele>
        <time>2022-05-01T09:24:28.362Z</time>
      </trkpt>
      <trkpt lat="45.66454" lon="5.92852">
        <ele>353</ele>
        <time>2022-05-01T09:24:29.362Z</time>
      </trkpt>
      <trkpt lat="45.66453" lon="5.92855">
        <ele>353</ele>
        <time>2022-05-01T09:24:30.362Z</time>
      </trkpt>
      <trkpt lat="45.66453" lon="5.92858">
        <ele>353</ele>
        <time>2022-05-01T09:24:31.362Z</time>
      </trkpt>
      <trkpt lat="45.66453" lon="5.9286">
        <ele>352</ele>
        <time>2022-05-01T09:24:32.361Z</time>
      </trkpt>
      <trkpt lat="45.66453" lon="5.92863">
        <ele>352</ele>
        <time>2022-05-01T09:24:33.362Z</time>
      </trkpt>
      <trkpt lat="45.66453" lon="5.92866">
        <ele>352</ele>
        <time>2022-05-01T09:24:34.362Z</time>
      </trkpt>
      <trkpt lat="45.66453" lon="5.9287">
        <ele>352</ele>
        <time>2022-05-01T09:24:35.362Z</time>
      </trkpt>
      <trkpt lat="45.66454" lon="5.92873">
        <ele>352</ele>
        <time>2022-05-01T09:24:36.362Z</time>
      </trkpt>
      <trkpt lat="45.66455" lon="5.92877">
        <ele>352</ele>
        <time>2022-05-01T09:24:37.362Z</time>
      </trkpt>
      <trkpt lat="45.66456" lon="5.92881">
        <ele>352</ele>
        <time>2022-05-01T09:24:38.362Z</time>
      </trkpt>
      <trkpt lat="45.66458" lon="5.92887">
        <ele>352</ele>
        <time>2022-05-01T09:24:39.362Z</time>
      </trkpt>
      <trkpt lat="45.66459" lon="5.9289">
        <ele>352</ele>
        <time>2022-05-01T09:24:40.362Z</time>
      </trkpt>
      <trkpt lat="45.66461" lon="5.92895">
        <ele>351</ele>
        <time>2022-05-01T09:24:41.361Z</time>
      </trkpt>
      <trkpt lat="45.66462" lon="5.929">
        <ele>351</ele>
        <time>2022-05-01T09:24:42.362Z</time>
      </trkpt>
      <trkpt lat="45.66463" lon="5.92906">
        <ele>351</ele>
        <time>2022-05-01T09:24:43.362Z</time>
      </trkpt>
      <trkpt lat="45.66464" lon="5.92913">
        <ele>351</ele>
        <time>2022-05-01T09:24:44.362Z</time>
      </trkpt>
      <trkpt lat="45.66464" lon="5.92918">
        <ele>352</ele>
        <time>2022-05-01T09:24:45.361Z</time>
      </trkpt>
      <trkpt lat="45.66465" lon="5.92924">
        <ele>352</ele>
        <time>2022-05-01T09:24:46.361Z</time>
      </trkpt>
      <trkpt lat="45.66466" lon="5.92932">
        <ele>351</ele>
        <time>2022-05-01T09:24:47.362Z</time>
      </trkpt>
      <trkpt lat="45.66467" lon="5.92939">
        <ele>351</ele>
        <time>2022-05-01T09:24:48.362Z</time>
      </trkpt>
      <trkpt lat="45.66468" lon="5.92945">
        <ele>351</ele>
        <time>2022-05-01T09:24:49.362Z</time>
      </trkpt>
      <trkpt lat="45.6647" lon="5.92953">
        <ele>351</ele>
        <time>2022-05-01T09:24:50.362Z</time>
      </trkpt>
      <trkpt lat="45.66472" lon="5.92961">
        <ele>351</ele>
        <time>2022-05-01T09:24:51.361Z</time>
      </trkpt>
      <trkpt lat="45.66475" lon="5.92969">
        <ele>350</ele>
        <time>2022-05-01T09:24:52.362Z</time>
      </trkpt>
      <trkpt lat="45.66477" lon="5.92978">
        <ele>350</ele>
        <time>2022-05-01T09:24:53.362Z</time>
      </trkpt>
      <trkpt lat="45.6648" lon="5.92988">
        <ele>349</ele>
        <time>2022-05-01T09:24:54.362Z</time>
      </trkpt>
      <trkpt lat="45.66481" lon="5.92998">
        <ele>348</ele>
        <time>2022-05-01T09:24:55.362Z</time>
      </trkpt>
      <trkpt lat="45.66483" lon="5.93008">
        <ele>348</ele>
        <time>2022-05-01T09:24:56.361Z</time>
      </trkpt>
      <trkpt lat="45.66485" lon="5.93021">
        <ele>347</ele>
        <time>2022-05-01T09:24:57.361Z</time>
      </trkpt>
      <trkpt lat="45.66486" lon="5.93031">
        <ele>347</ele>
        <time>2022-05-01T09:24:58.361Z</time>
      </trkpt>
      <trkpt lat="45.66488" lon="5.9304">
        <ele>347</ele>
        <time>2022-05-01T09:24:59.361Z</time>
      </trkpt>
      <trkpt lat="45.66489" lon="5.93047">
        <ele>347</ele>
        <time>2022-05-01T09:25:00.362Z</time>
      </trkpt>
      <trkpt lat="45.6649" lon="5.93056">
        <ele>347</ele>
        <time>2022-05-01T09:25:01.361Z</time>
      </trkpt>
      <trkpt lat="45.66491" lon="5.93062">
        <ele>347</ele>
        <time>2022-05-01T09:25:02.362Z</time>
      </trkpt>
      <trkpt lat="45.66493" lon="5.93069">
        <ele>347</ele>
        <time>2022-05-01T09:25:03.361Z</time>
      </trkpt>
      <trkpt lat="45.66493" lon="5.93074">
        <ele>348</ele>
        <time>2022-05-01T09:25:04.362Z</time>
      </trkpt>
      <trkpt lat="45.66494" lon="5.93077">
        <ele>348</ele>
        <time>2022-05-01T09:25:05.362Z</time>
      </trkpt>
      <trkpt lat="45.66494" lon="5.93082">
        <ele>348</ele>
        <time>2022-05-01T09:25:06.362Z</time>
      </trkpt>
      <trkpt lat="45.66495" lon="5.93086">
        <ele>348</ele>
        <time>2022-05-01T09:25:07.362Z</time>
      </trkpt>
      <trkpt lat="45.66495" lon="5.9309">
        <ele>348</ele>
        <time>2022-05-01T09:25:08.361Z</time>
      </trkpt>
      <trkpt lat="45.66496" lon="5.93094">
        <ele>348</ele>
        <time>2022-05-01T09:25:09.362Z</time>
      </trkpt>
      <trkpt lat="45.66496" lon="5.93097">
        <ele>347</ele>
        <time>2022-05-01T09:25:10.362Z</time>
      </trkpt>
      <trkpt lat="45.66496" lon="5.93101">
        <ele>347</ele>
        <time>2022-05-01T09:25:11.362Z</time>
      </trkpt>
      <trkpt lat="45.66497" lon="5.93104">
        <ele>347</ele>
        <time>2022-05-01T09:25:12.361Z</time>
      </trkpt>
      <trkpt lat="45.66497" lon="5.93107">
        <ele>347</ele>
        <time>2022-05-01T09:25:13.362Z</time>
      </trkpt>
      <trkpt lat="45.66498" lon="5.93112">
        <ele>347</ele>
        <time>2022-05-01T09:25:14.361Z</time>
      </trkpt>
      <trkpt lat="45.66498" lon="5.93116">
        <ele>348</ele>
        <time>2022-05-01T09:25:15.361Z</time>
      </trkpt>
      <trkpt lat="45.66498" lon="5.9312">
        <ele>348</ele>
        <time>2022-05-01T09:25:16.361Z</time>
      </trkpt>
      <trkpt lat="45.66499" lon="5.93123">
        <ele>349</ele>
        <time>2022-05-01T09:25:17.362Z</time>
      </trkpt>
      <trkpt lat="45.665" lon="5.93126">
        <ele>349</ele>
        <time>2022-05-01T09:25:18.361Z</time>
      </trkpt>
      <trkpt lat="45.665" lon="5.93129">
        <ele>350</ele>
        <time>2022-05-01T09:25:19.362Z</time>
      </trkpt>
      <trkpt lat="45.66501" lon="5.93133">
        <ele>350</ele>
        <time>2022-05-01T09:25:20.361Z</time>
      </trkpt>
      <trkpt lat="45.66501" lon="5.93136">
        <ele>350</ele>
        <time>2022-05-01T09:25:21.361Z</time>
      </trkpt>
      <trkpt lat="45.66501" lon="5.9314">
        <ele>350</ele>
        <time>2022-05-01T09:25:22.362Z</time>
      </trkpt>
      <trkpt lat="45.66501" lon="5.93142">
        <ele>350</ele>
        <time>2022-05-01T09:25:23.362Z</time>
      </trkpt>
      <trkpt lat="45.66501" lon="5.93146">
        <ele>350</ele>
        <time>2022-05-01T09:25:24.362Z</time>
      </trkpt>
      <trkpt lat="45.66501" lon="5.9315">
        <ele>350</ele>
        <time>2022-05-01T09:25:25.361Z</time>
      </trkpt>
      <trkpt lat="45.66501" lon="5.93154">
        <ele>350</ele>
        <time>2022-05-01T09:25:26.362Z</time>
      </trkpt>
      <trkpt lat="45.66501" lon="5.93157">
        <ele>350</ele>
        <time>2022-05-01T09:25:27.362Z</time>
      </trkpt>
      <trkpt lat="45.66501" lon="5.9316">
        <ele>350</ele>
        <time>2022-05-01T09:25:28.362Z</time>
      </trkpt>
      <trkpt lat="45.66501" lon="5.93164">
        <ele>350</ele>
        <time>2022-05-01T09:25:29.361Z</time>
      </trkpt>
      <trkpt lat="45.66501" lon="5.93167">
        <ele>350</ele>
        <time>2022-05-01T09:25:30.361Z</time>
      </trkpt>
      <trkpt lat="45.66501" lon="5.9317">
        <ele>350</ele>
        <time>2022-05-01T09:25:31.361Z</time>
      </trkpt>
      <trkpt lat="45.66501" lon="5.93173">
        <ele>350</ele>
        <time>2022-05-01T09:25:32.362Z</time>
      </trkpt>
      <trkpt lat="45.66501" lon="5.93176">
        <ele>350</ele>
        <time>2022-05-01T09:25:33.362Z</time>
      </trkpt>
      <trkpt lat="45.66502" lon="5.93179">
        <ele>351</ele>
        <time>2022-05-01T09:25:34.361Z</time>
      </trkpt>
      <trkpt lat="45.66502" lon="5.93182">
        <ele>351</ele>
        <time>2022-05-01T09:25:35.362Z</time>
      </trkpt>
      <trkpt lat="45.66502" lon="5.93184">
        <ele>352</ele>
        <time>2022-05-01T09:25:36.362Z</time>
      </trkpt>
      <trkpt lat="45.66502" lon="5.93187">
        <ele>352</ele>
        <time>2022-05-01T09:25:37.362Z</time>
      </trkpt>
      <trkpt lat="45.66503" lon="5.93191">
        <ele>353</ele>
        <time>2022-05-01T09:25:38.361Z</time>
      </trkpt>
      <trkpt lat="45.66503" lon="5.93194">
        <ele>353</ele>
        <time>2022-05-01T09:25:39.361Z</time>
      </trkpt>
      <trkpt lat="45.66503" lon="5.93196">
        <ele>354</ele>
        <time>2022-05-01T09:25:40.361Z</time>
      </trkpt>
      <trkpt lat="45.66503" lon="5.93198">
        <ele>354</ele>
        <time>2022-05-01T09:25:41.361Z</time>
      </trkpt>
      <trkpt lat="45.66504" lon="5.93202">
        <ele>354</ele>
        <time>2022-05-01T09:25:42.362Z</time>
      </trkpt>
      <trkpt lat="45.66504" lon="5.93204">
        <ele>355</ele>
        <time>2022-05-01T09:25:43.361Z</time>
      </trkpt>
      <trkpt lat="45.66504" lon="5.93206">
        <ele>355</ele>
        <time>2022-05-01T09:25:44.362Z</time>
      </trkpt>
      <trkpt lat="45.66506" lon="5.93208">
        <ele>355</ele>
        <time>2022-05-01T09:25:45.362Z</time>
      </trkpt>
      <trkpt lat="45.66507" lon="5.93211">
        <ele>355</ele>
        <time>2022-05-01T09:25:46.362Z</time>
      </trkpt>
      <trkpt lat="45.66509" lon="5.93213">
        <ele>355</ele>
        <time>2022-05-01T09:25:47.362Z</time>
      </trkpt>
      <trkpt lat="45.66511" lon="5.93214">
        <ele>355</ele>
        <time>2022-05-01T09:25:48.361Z</time>
      </trkpt>
      <trkpt lat="45.66514" lon="5.93216">
        <ele>356</ele>
        <time>2022-05-01T09:25:49.361Z</time>
      </trkpt>
      <trkpt lat="45.66516" lon="5.93217">
        <ele>356</ele>
        <time>2022-05-01T09:25:50.361Z</time>
      </trkpt>
      <trkpt lat="45.66518" lon="5.93217">
        <ele>356</ele>
        <time>2022-05-01T09:25:51.361Z</time>
      </trkpt>
      <trkpt lat="45.66521" lon="5.93218">
        <ele>356</ele>
        <time>2022-05-01T09:25:52.362Z</time>
      </trkpt>
      <trkpt lat="45.66523" lon="5.93219">
        <ele>356</ele>
        <time>2022-05-01T09:25:53.361Z</time>
      </trkpt>
      <trkpt lat="45.66525" lon="5.9322">
        <ele>357</ele>
        <time>2022-05-01T09:25:54.362Z</time>
      </trkpt>
      <trkpt lat="45.66528" lon="5.9322">
        <ele>357</ele>
        <time>2022-05-01T09:25:55.361Z</time>
      </trkpt>
      <trkpt lat="45.6653" lon="5.93221">
        <ele>357</ele>
        <time>2022-05-01T09:25:56.362Z</time>
      </trkpt>
      <trkpt lat="45.66533" lon="5.93222">
        <ele>356</ele>
        <time>2022-05-01T09:25:57.362Z</time>
      </trkpt>
      <trkpt lat="45.66535" lon="5.93223">
        <ele>356</ele>
        <time>2022-05-01T09:25:58.361Z</time>
      </trkpt>
      <trkpt lat="45.66537" lon="5.93224">
        <ele>356</ele>
        <time>2022-05-01T09:25:59.362Z</time>
      </trkpt>
      <trkpt lat="45.6654" lon="5.93225">
        <ele>356</ele>
        <time>2022-05-01T09:26:00.362Z</time>
      </trkpt>
      <trkpt lat="45.66543" lon="5.93226">
        <ele>356</ele>
        <time>2022-05-01T09:26:01.362Z</time>
      </trkpt>
      <trkpt lat="45.66546" lon="5.93228">
        <ele>356</ele>
        <time>2022-05-01T09:26:02.361Z</time>
      </trkpt>
      <trkpt lat="45.66549" lon="5.9323">
        <ele>356</ele>
        <time>2022-05-01T09:26:03.362Z</time>
      </trkpt>
      <trkpt lat="45.66551" lon="5.93232">
        <ele>356</ele>
        <time>2022-05-01T09:26:04.362Z</time>
      </trkpt>
      <trkpt lat="45.66554" lon="5.93233">
        <ele>356</ele>
        <time>2022-05-01T09:26:05.362Z</time>
      </trkpt>
      <trkpt lat="45.66556" lon="5.93235">
        <ele>356</ele>
        <time>2022-05-01T09:26:06.362Z</time>
      </trkpt>
      <trkpt lat="45.6656" lon="5.93237">
        <ele>356</ele>
        <time>2022-05-01T09:26:07.361Z</time>
      </trkpt>
      <trkpt lat="45.66562" lon="5.9324">
        <ele>357</ele>
        <time>2022-05-01T09:26:08.361Z</time>
      </trkpt>
      <trkpt lat="45.66564" lon="5.93241">
        <ele>357</ele>
        <time>2022-05-01T09:26:09.362Z</time>
      </trkpt>
      <trkpt lat="45.66567" lon="5.93243">
        <ele>358</ele>
        <time>2022-05-01T09:26:10.362Z</time>
      </trkpt>
      <trkpt lat="45.6657" lon="5.93246">
        <ele>358</ele>
        <time>2022-05-01T09:26:11.361Z</time>
      </trkpt>
      <trkpt lat="45.66573" lon="5.93248">
        <ele>359</ele>
        <time>2022-05-01T09:26:12.362Z</time>
      </trkpt>
      <trkpt lat="45.66576" lon="5.9325">
        <ele>359</ele>
        <time>2022-05-01T09:26:13.362Z</time>
      </trkpt>
      <trkpt lat="45.66578" lon="5.93252">
        <ele>359</ele>
        <time>2022-05-01T09:26:14.361Z</time>
      </trkpt>
      <trkpt lat="45.66581" lon="5.93256">
        <ele>359</ele>
        <time>2022-05-01T09:26:15.361Z</time>
      </trkpt>
      <trkpt lat="45.66584" lon="5.93258">
        <ele>359</ele>
        <time>2022-05-01T09:26:16.362Z</time>
      </trkpt>
      <trkpt lat="45.66587" lon="5.93261">
        <ele>358</ele>
        <time>2022-05-01T09:26:17.362Z</time>
      </trkpt>
      <trkpt lat="45.66589" lon="5.93263">
        <ele>358</ele>
        <time>2022-05-01T09:26:18.361Z</time>
      </trkpt>
      <trkpt lat="45.66592" lon="5.93265">
        <ele>358</ele>
        <time>2022-05-01T09:26:19.361Z</time>
      </trkpt>
      <trkpt lat="45.66594" lon="5.93267">
        <ele>358</ele>
        <time>2022-05-01T09:26:20.361Z</time>
      </trkpt>
      <trkpt lat="45.66598" lon="5.93269">
        <ele>358</ele>
        <time>2022-05-01T09:26:21.361Z</time>
      </trkpt>
      <trkpt lat="45.66601" lon="5.93271">
        <ele>358</ele>
        <time>2022-05-01T09:26:22.361Z</time>
      </trkpt>
      <trkpt lat="45.66603" lon="5.93273">
        <ele>358</ele>
        <time>2022-05-01T09:26:23.361Z</time>
      </trkpt>
      <trkpt lat="45.66606" lon="5.93275">
        <ele>358</ele>
        <time>2022-05-01T09:26:24.362Z</time>
      </trkpt>
      <trkpt lat="45.66608" lon="5.93276">
        <ele>358</ele>
        <time>2022-05-01T09:26:25.361Z</time>
      </trkpt>
      <trkpt lat="45.66611" lon="5.93278">
        <ele>359</ele>
        <time>2022-05-01T09:26:26.361Z</time>
      </trkpt>
      <trkpt lat="45.66613" lon="5.9328">
        <ele>359</ele>
        <time>2022-05-01T09:26:27.362Z</time>
      </trkpt>
      <trkpt lat="45.66615" lon="5.93281">
        <ele>360</ele>
        <time>2022-05-01T09:26:28.361Z</time>
      </trkpt>
      <trkpt lat="45.66618" lon="5.93283">
        <ele>360</ele>
        <time>2022-05-01T09:26:29.362Z</time>
      </trkpt>
      <trkpt lat="45.66621" lon="5.93285">
        <ele>361</ele>
        <time>2022-05-01T09:26:30.362Z</time>
      </trkpt>
      <trkpt lat="45.66623" lon="5.93286">
        <ele>361</ele>
        <time>2022-05-01T09:26:31.362Z</time>
      </trkpt>
      <trkpt lat="45.66625" lon="5.93287">
        <ele>361</ele>
        <time>2022-05-01T09:26:32.362Z</time>
      </trkpt>
      <trkpt lat="45.66627" lon="5.93288">
        <ele>362</ele>
        <time>2022-05-01T09:26:33.361Z</time>
      </trkpt>
      <trkpt lat="45.6663" lon="5.93289">
        <ele>362</ele>
        <time>2022-05-01T09:26:34.362Z</time>
      </trkpt>
      <trkpt lat="45.66632" lon="5.9329">
        <ele>362</ele>
        <time>2022-05-01T09:26:35.362Z</time>
      </trkpt>
      <trkpt lat="45.66634" lon="5.93291">
        <ele>362</ele>
        <time>2022-05-01T09:26:36.362Z</time>
      </trkpt>
      <trkpt lat="45.66637" lon="5.93292">
        <ele>362</ele>
        <time>2022-05-01T09:26:37.362Z</time>
      </trkpt>
      <trkpt lat="45.66639" lon="5.93293">
        <ele>362</ele>
        <time>2022-05-01T09:26:38.362Z</time>
      </trkpt>
      <trkpt lat="45.66642" lon="5.93294">
        <ele>362</ele>
        <time>2022-05-01T09:26:39.362Z</time>
      </trkpt>
      <trkpt lat="45.66644" lon="5.93294">
        <ele>363</ele>
        <time>2022-05-01T09:26:40.362Z</time>
      </trkpt>
      <trkpt lat="45.66647" lon="5.93295">
        <ele>363</ele>
        <time>2022-05-01T09:26:41.362Z</time>
      </trkpt>
      <trkpt lat="45.66649" lon="5.93295">
        <ele>364</ele>
        <time>2022-05-01T09:26:42.361Z</time>
      </trkpt>
      <trkpt lat="45.66652" lon="5.93295">
        <ele>364</ele>
        <time>2022-05-01T09:26:43.362Z</time>
      </trkpt>
      <trkpt lat="45.66654" lon="5.93296">
        <ele>364</ele>
        <time>2022-05-01T09:26:44.362Z</time>
      </trkpt>
      <trkpt lat="45.66656" lon="5.93296">
        <ele>364</ele>
        <time>2022-05-01T09:26:45.361Z</time>
      </trkpt>
      <trkpt lat="45.66658" lon="5.93296">
        <ele>364</ele>
        <time>2022-05-01T09:26:46.361Z</time>
      </trkpt>
      <trkpt lat="45.6666" lon="5.93296">
        <ele>364</ele>
        <time>2022-05-01T09:26:47.361Z</time>
      </trkpt>
      <trkpt lat="45.66663" lon="5.93296">
        <ele>364</ele>
        <time>2022-05-01T09:26:48.362Z</time>
      </trkpt>
      <trkpt lat="45.66665" lon="5.93297">
        <ele>364</ele>
        <time>2022-05-01T09:26:49.362Z</time>
      </trkpt>
      <trkpt lat="45.66667" lon="5.93298">
        <ele>364</ele>
        <time>2022-05-01T09:26:50.362Z</time>
      </trkpt>
      <trkpt lat="45.6667" lon="5.93298">
        <ele>364</ele>
        <time>2022-05-01T09:26:51.362Z</time>
      </trkpt>
      <trkpt lat="45.66672" lon="5.93299">
        <ele>364</ele>
        <time>2022-05-01T09:26:52.362Z</time>
      </trkpt>
      <trkpt lat="45.66675" lon="5.93299">
        <ele>364</ele>
        <time>2022-05-01T09:26:53.362Z</time>
      </trkpt>
      <trkpt lat="45.66677" lon="5.933">
        <ele>364</ele>
        <time>2022-05-01T09:26:54.362Z</time>
      </trkpt>
      <trkpt lat="45.6668" lon="5.93301">
        <ele>364</ele>
        <time>2022-05-01T09:26:55.362Z</time>
      </trkpt>
      <trkpt lat="45.66683" lon="5.93302">
        <ele>364</ele>
        <time>2022-05-01T09:26:56.361Z</time>
      </trkpt>
      <trkpt lat="45.66686" lon="5.93304">
        <ele>364</ele>
        <time>2022-05-01T09:26:57.362Z</time>
      </trkpt>
      <trkpt lat="45.66689" lon="5.93306">
        <ele>364</ele>
        <time>2022-05-01T09:26:58.362Z</time>
      </trkpt>
      <trkpt lat="45.66691" lon="5.93308">
        <ele>364</ele>
        <time>2022-05-01T09:26:59.362Z</time>
      </trkpt>
      <trkpt lat="45.66693" lon="5.9331">
        <ele>364</ele>
        <time>2022-05-01T09:27:00.362Z</time>
      </trkpt>
      <trkpt lat="45.66696" lon="5.93313">
        <ele>364</ele>
        <time>2022-05-01T09:27:01.362Z</time>
      </trkpt>
      <trkpt lat="45.66698" lon="5.93316">
        <ele>365</ele>
        <time>2022-05-01T09:27:02.362Z</time>
      </trkpt>
      <trkpt lat="45.667" lon="5.93318">
        <ele>365</ele>
        <time>2022-05-01T09:27:03.362Z</time>
      </trkpt>
      <trkpt lat="45.66702" lon="5.93321">
        <ele>365</ele>
        <time>2022-05-01T09:27:04.362Z</time>
      </trkpt>
      <trkpt lat="45.66704" lon="5.93323">
        <ele>365</ele>
        <time>2022-05-01T09:27:05.362Z</time>
      </trkpt>
      <trkpt lat="45.66706" lon="5.93326">
        <ele>366</ele>
        <time>2022-05-01T09:27:06.361Z</time>
      </trkpt>
      <trkpt lat="45.66708" lon="5.93328">
        <ele>366</ele>
        <time>2022-05-01T09:27:07.362Z</time>
      </trkpt>
      <trkpt lat="45.6671" lon="5.9333">
        <ele>366</ele>
        <time>2022-05-01T09:27:08.361Z</time>
      </trkpt>
      <trkpt lat="45.66712" lon="5.93331">
        <ele>366</ele>
        <time>2022-05-01T09:27:09.361Z</time>
      </trkpt>
      <trkpt lat="45.66715" lon="5.93333">
        <ele>365</ele>
        <time>2022-05-01T09:27:10.362Z</time>
      </trkpt>
      <trkpt lat="45.66717" lon="5.93335">
        <ele>365</ele>
        <time>2022-05-01T09:27:11.362Z</time>
      </trkpt>
      <trkpt lat="45.6672" lon="5.93335">
        <ele>365</ele>
        <time>2022-05-01T09:27:12.362Z</time>
      </trkpt>
      <trkpt lat="45.66721" lon="5.93336">
        <ele>365</ele>
        <time>2022-05-01T09:27:13.362Z</time>
      </trkpt>
      <trkpt lat="45.66724" lon="5.93336">
        <ele>364</ele>
        <time>2022-05-01T09:27:14.362Z</time>
      </trkpt>
      <trkpt lat="45.66726" lon="5.93336">
        <ele>364</ele>
        <time>2022-05-01T09:27:15.362Z</time>
      </trkpt>
      <trkpt lat="45.66728" lon="5.93336">
        <ele>364</ele>
        <time>2022-05-01T09:27:16.362Z</time>
      </trkpt>
      <trkpt lat="45.6673" lon="5.93335">
        <ele>364</ele>
        <time>2022-05-01T09:27:17.362Z</time>
      </trkpt>
      <trkpt lat="45.66733" lon="5.93335">
        <ele>364</ele>
        <time>2022-05-01T09:27:18.361Z</time>
      </trkpt>
      <trkpt lat="45.66735" lon="5.93335">
        <ele>364</ele>
        <time>2022-05-01T09:27:19.362Z</time>
      </trkpt>
      <trkpt lat="45.66737" lon="5.93334">
        <ele>364</ele>
        <time>2022-05-01T09:27:20.362Z</time>
      </trkpt>
      <trkpt lat="45.66739" lon="5.93335">
        <ele>364</ele>
        <time>2022-05-01T09:27:21.362Z</time>
      </trkpt>
      <trkpt lat="45.66742" lon="5.93335">
        <ele>365</ele>
        <time>2022-05-01T09:27:22.362Z</time>
      </trkpt>
      <trkpt lat="45.66744" lon="5.93335">
        <ele>365</ele>
        <time>2022-05-01T09:27:23.362Z</time>
      </trkpt>
      <trkpt lat="45.66747" lon="5.93335">
        <ele>365</ele>
        <time>2022-05-01T09:27:24.362Z</time>
      </trkpt>
      <trkpt lat="45.6675" lon="5.93335">
        <ele>365</ele>
        <time>2022-05-01T09:27:25.361Z</time>
      </trkpt>
      <trkpt lat="45.66752" lon="5.93335">
        <ele>365</ele>
        <time>2022-05-01T09:27:26.361Z</time>
      </trkpt>
      <trkpt lat="45.66755" lon="5.93335">
        <ele>365</ele>
        <time>2022-05-01T09:27:27.361Z</time>
      </trkpt>
      <trkpt lat="45.66758" lon="5.93335">
        <ele>366</ele>
        <time>2022-05-01T09:27:28.362Z</time>
      </trkpt>
      <trkpt lat="45.6676" lon="5.93335">
        <ele>366</ele>
        <time>2022-05-01T09:27:29.362Z</time>
      </trkpt>
      <trkpt lat="45.66763" lon="5.93334">
        <ele>366</ele>
        <time>2022-05-01T09:27:30.362Z</time>
      </trkpt>
      <trkpt lat="45.66765" lon="5.93334">
        <ele>366</ele>
        <time>2022-05-01T09:27:31.362Z</time>
      </trkpt>
      <trkpt lat="45.66768" lon="5.93333">
        <ele>367</ele>
        <time>2022-05-01T09:27:32.362Z</time>
      </trkpt>
      <trkpt lat="45.6677" lon="5.93333">
        <ele>367</ele>
        <time>2022-05-01T09:27:33.362Z</time>
      </trkpt>
      <trkpt lat="45.66773" lon="5.93333">
        <ele>367</ele>
        <time>2022-05-01T09:27:34.362Z</time>
      </trkpt>
      <trkpt lat="45.66775" lon="5.93333">
        <ele>368</ele>
        <time>2022-05-01T09:27:35.362Z</time>
      </trkpt>
      <trkpt lat="45.66778" lon="5.93333">
        <ele>368</ele>
        <time>2022-05-01T09:27:36.361Z</time>
      </trkpt>
      <trkpt lat="45.6678" lon="5.93333">
        <ele>367</ele>
        <time>2022-05-01T09:27:37.362Z</time>
      </trkpt>
      <trkpt lat="45.66783" lon="5.93333">
        <ele>367</ele>
        <time>2022-05-01T09:27:38.362Z</time>
      </trkpt>
      <trkpt lat="45.66786" lon="5.93333">
        <ele>367</ele>
        <time>2022-05-01T09:27:39.361Z</time>
      </trkpt>
      <trkpt lat="45.66788" lon="5.93333">
        <ele>367</ele>
        <time>2022-05-01T09:27:40.362Z</time>
      </trkpt>
      <trkpt lat="45.66791" lon="5.93333">
        <ele>366</ele>
        <time>2022-05-01T09:27:41.362Z</time>
      </trkpt>
      <trkpt lat="45.66793" lon="5.93333">
        <ele>366</ele>
        <time>2022-05-01T09:27:42.362Z</time>
      </trkpt>
      <trkpt lat="45.66796" lon="5.93333">
        <ele>367</ele>
        <time>2022-05-01T09:27:43.361Z</time>
      </trkpt>
      <trkpt lat="45.66798" lon="5.93332">
        <ele>367</ele>
        <time>2022-05-01T09:27:44.362Z</time>
      </trkpt>
      <trkpt lat="45.66801" lon="5.93332">
        <ele>367</ele>
        <time>2022-05-01T09:27:45.362Z</time>
      </trkpt>
      <trkpt lat="45.66803" lon="5.93332">
        <ele>367</ele>
        <time>2022-05-01T09:27:46.361Z</time>
      </trkpt>
      <trkpt lat="45.66806" lon="5.93332">
        <ele>367</ele>
        <time>2022-05-01T09:27:47.362Z</time>
      </trkpt>
      <trkpt lat="45.66809" lon="5.93332">
        <ele>367</ele>
        <time>2022-05-01T09:27:48.362Z</time>
      </trkpt>
      <trkpt lat="45.66811" lon="5.93332">
        <ele>367</ele>
        <time>2022-05-01T09:27:49.362Z</time>
      </trkpt>
      <trkpt lat="45.66814" lon="5.93332">
        <ele>367</ele>
        <time>2022-05-01T09:27:50.362Z</time>
      </trkpt>
      <trkpt lat="45.66817" lon="5.93332">
        <ele>366</ele>
        <time>2022-05-01T09:27:51.361Z</time>
      </trkpt>
      <trkpt lat="45.66819" lon="5.93332">
        <ele>367</ele>
        <time>2022-05-01T09:27:52.362Z</time>
      </trkpt>
      <trkpt lat="45.66823" lon="5.93331">
        <ele>367</ele>
        <time>2022-05-01T09:27:53.361Z</time>
      </trkpt>
      <trkpt lat="45.66825" lon="5.93331">
        <ele>367</ele>
        <time>2022-05-01T09:27:54.362Z</time>
      </trkpt>
      <trkpt lat="45.66828" lon="5.93331">
        <ele>367</ele>
        <time>2022-05-01T09:27:55.362Z</time>
      </trkpt>
      <trkpt lat="45.66831" lon="5.93331">
        <ele>367</ele>
        <time>2022-05-01T09:27:56.362Z</time>
      </trkpt>
      <trkpt lat="45.66834" lon="5.9333">
        <ele>367</ele>
        <time>2022-05-01T09:27:57.362Z</time>
      </trkpt>
      <trkpt lat="45.66837" lon="5.9333">
        <ele>367</ele>
        <time>2022-05-01T09:27:58.362Z</time>
      </trkpt>
      <trkpt lat="45.6684" lon="5.9333">
        <ele>367</ele>
        <time>2022-05-01T09:27:59.362Z</time>
      </trkpt>
      <trkpt lat="45.66843" lon="5.93329">
        <ele>368</ele>
        <time>2022-05-01T09:28:00.362Z</time>
      </trkpt>
      <trkpt lat="45.66845" lon="5.93329">
        <ele>368</ele>
        <time>2022-05-01T09:28:01.362Z</time>
      </trkpt>
      <trkpt lat="45.66848" lon="5.93329">
        <ele>368</ele>
        <time>2022-05-01T09:28:02.362Z</time>
      </trkpt>
      <trkpt lat="45.66851" lon="5.93329">
        <ele>369</ele>
        <time>2022-05-01T09:28:03.362Z</time>
      </trkpt>
      <trkpt lat="45.66853" lon="5.93329">
        <ele>369</ele>
        <time>2022-05-01T09:28:04.362Z</time>
      </trkpt>
      <trkpt lat="45.66856" lon="5.93328">
        <ele>369</ele>
        <time>2022-05-01T09:28:05.362Z</time>
      </trkpt>
      <trkpt lat="45.66858" lon="5.93328">
        <ele>369</ele>
        <time>2022-05-01T09:28:06.362Z</time>
      </trkpt>
      <trkpt lat="45.66861" lon="5.93328">
        <ele>370</ele>
        <time>2022-05-01T09:28:07.362Z</time>
      </trkpt>
      <trkpt lat="45.66863" lon="5.93328">
        <ele>370</ele>
        <time>2022-05-01T09:28:08.362Z</time>
      </trkpt>
      <trkpt lat="45.66865" lon="5.93328">
        <ele>371</ele>
        <time>2022-05-01T09:28:09.362Z</time>
      </trkpt>
      <trkpt lat="45.66868" lon="5.93328">
        <ele>371</ele>
        <time>2022-05-01T09:28:10.362Z</time>
      </trkpt>
      <trkpt lat="45.66871" lon="5.93328">
        <ele>371</ele>
        <time>2022-05-01T09:28:11.361Z</time>
      </trkpt>
      <trkpt lat="45.66872" lon="5.93328">
        <ele>371</ele>
        <time>2022-05-01T09:28:12.361Z</time>
      </trkpt>
      <trkpt lat="45.66875" lon="5.93328">
        <ele>372</ele>
        <time>2022-05-01T09:28:13.361Z</time>
      </trkpt>
      <trkpt lat="45.66877" lon="5.93328">
        <ele>372</ele>
        <time>2022-05-01T09:28:14.361Z</time>
      </trkpt>
      <trkpt lat="45.6688" lon="5.93328">
        <ele>372</ele>
        <time>2022-05-01T09:28:15.362Z</time>
      </trkpt>
      <trkpt lat="45.66883" lon="5.93328">
        <ele>372</ele>
        <time>2022-05-01T09:28:16.361Z</time>
      </trkpt>
      <trkpt lat="45.66885" lon="5.93328">
        <ele>372</ele>
        <time>2022-05-01T09:28:17.362Z</time>
      </trkpt>
      <trkpt lat="45.66887" lon="5.93328">
        <ele>372</ele>
        <time>2022-05-01T09:28:18.362Z</time>
      </trkpt>
      <trkpt lat="45.6689" lon="5.93328">
        <ele>372</ele>
        <time>2022-05-01T09:28:19.362Z</time>
      </trkpt>
      <trkpt lat="45.66893" lon="5.93328">
        <ele>372</ele>
        <time>2022-05-01T09:28:20.362Z</time>
      </trkpt>
      <trkpt lat="45.66896" lon="5.93328">
        <ele>372</ele>
        <time>2022-05-01T09:28:21.362Z</time>
      </trkpt>
      <trkpt lat="45.66898" lon="5.93328">
        <ele>371</ele>
        <time>2022-05-01T09:28:22.361Z</time>
      </trkpt>
      <trkpt lat="45.66901" lon="5.93328">
        <ele>371</ele>
        <time>2022-05-01T09:28:23.362Z</time>
      </trkpt>
      <trkpt lat="45.66903" lon="5.93328">
        <ele>371</ele>
        <time>2022-05-01T09:28:24.362Z</time>
      </trkpt>
      <trkpt lat="45.66906" lon="5.93328">
        <ele>371</ele>
        <time>2022-05-01T09:28:25.362Z</time>
      </trkpt>
      <trkpt lat="45.66909" lon="5.93328">
        <ele>371</ele>
        <time>2022-05-01T09:28:26.362Z</time>
      </trkpt>
      <trkpt lat="45.66911" lon="5.93328">
        <ele>371</ele>
        <time>2022-05-01T09:28:27.361Z</time>
      </trkpt>
      <trkpt lat="45.66914" lon="5.93328">
        <ele>371</ele>
        <time>2022-05-01T09:28:28.362Z</time>
      </trkpt>
      <trkpt lat="45.66916" lon="5.93328">
        <ele>371</ele>
        <time>2022-05-01T09:28:29.362Z</time>
      </trkpt>
      <trkpt lat="45.66919" lon="5.93328">
        <ele>371</ele>
        <time>2022-05-01T09:28:30.361Z</time>
      </trkpt>
      <trkpt lat="45.66922" lon="5.93328">
        <ele>371</ele>
        <time>2022-05-01T09:28:31.361Z</time>
      </trkpt>
      <trkpt lat="45.66924" lon="5.93328">
        <ele>372</ele>
        <time>2022-05-01T09:28:32.362Z</time>
      </trkpt>
      <trkpt lat="45.66927" lon="5.93328">
        <ele>372</ele>
        <time>2022-05-01T09:28:33.362Z</time>
      </trkpt>
      <trkpt lat="45.66929" lon="5.93328">
        <ele>373</ele>
        <time>2022-05-01T09:28:34.362Z</time>
      </trkpt>
      <trkpt lat="45.66932" lon="5.93329">
        <ele>373</ele>
        <time>2022-05-01T09:28:35.362Z</time>
      </trkpt>
      <trkpt lat="45.66934" lon="5.93329">
        <ele>373</ele>
        <time>2022-05-01T09:28:36.361Z</time>
      </trkpt>
      <trkpt lat="45.66937" lon="5.9333">
        <ele>374</ele>
        <time>2022-05-01T09:28:37.362Z</time>
      </trkpt>
      <trkpt lat="45.66939" lon="5.9333">
        <ele>374</ele>
        <time>2022-05-01T09:28:38.362Z</time>
      </trkpt>
      <trkpt lat="45.66941" lon="5.93331">
        <ele>374</ele>
        <time>2022-05-01T09:28:39.362Z</time>
      </trkpt>
      <trkpt lat="45.66944" lon="5.93331">
        <ele>374</ele>
        <time>2022-05-01T09:28:40.361Z</time>
      </trkpt>
      <trkpt lat="45.66946" lon="5.93331">
        <ele>374</ele>
        <time>2022-05-01T09:28:41.361Z</time>
      </trkpt>
      <trkpt lat="45.66949" lon="5.93331">
        <ele>374</ele>
        <time>2022-05-01T09:28:42.362Z</time>
      </trkpt>
      <trkpt lat="45.66952" lon="5.93332">
        <ele>374</ele>
        <time>2022-05-01T09:28:43.361Z</time>
      </trkpt>
      <trkpt lat="45.66955" lon="5.93332">
        <ele>374</ele>
        <time>2022-05-01T09:28:44.361Z</time>
      </trkpt>
      <trkpt lat="45.66957" lon="5.93332">
        <ele>375</ele>
        <time>2022-05-01T09:28:45.362Z</time>
      </trkpt>
      <trkpt lat="45.66959" lon="5.93333">
        <ele>375</ele>
        <time>2022-05-01T09:28:46.362Z</time>
      </trkpt>
      <trkpt lat="45.66963" lon="5.93333">
        <ele>376</ele>
        <time>2022-05-01T09:28:47.361Z</time>
      </trkpt>
      <trkpt lat="45.66966" lon="5.93333">
        <ele>376</ele>
        <time>2022-05-01T09:28:48.361Z</time>
      </trkpt>
      <trkpt lat="45.66968" lon="5.93333">
        <ele>376</ele>
        <time>2022-05-01T09:28:49.362Z</time>
      </trkpt>
      <trkpt lat="45.66971" lon="5.93333">
        <ele>376</ele>
        <time>2022-05-01T09:28:50.362Z</time>
      </trkpt>
      <trkpt lat="45.66974" lon="5.93333">
        <ele>376</ele>
        <time>2022-05-01T09:28:51.362Z</time>
      </trkpt>
      <trkpt lat="45.66977" lon="5.93332">
        <ele>376</ele>
        <time>2022-05-01T09:28:52.362Z</time>
      </trkpt>
      <trkpt lat="45.6698" lon="5.93332">
        <ele>376</ele>
        <time>2022-05-01T09:28:53.362Z</time>
      </trkpt>
      <trkpt lat="45.66983" lon="5.93332">
        <ele>375</ele>
        <time>2022-05-01T09:28:54.362Z</time>
      </trkpt>
      <trkpt lat="45.66985" lon="5.93332">
        <ele>375</ele>
        <time>2022-05-01T09:28:55.361Z</time>
      </trkpt>
      <trkpt lat="45.66988" lon="5.93332">
        <ele>375</ele>
        <time>2022-05-01T09:28:56.361Z</time>
      </trkpt>
      <trkpt lat="45.66991" lon="5.93331">
        <ele>375</ele>
        <time>2022-05-01T09:28:57.362Z</time>
      </trkpt>
      <trkpt lat="45.66994" lon="5.93331">
        <ele>374</ele>
        <time>2022-05-01T09:28:58.361Z</time>
      </trkpt>
      <trkpt lat="45.66996" lon="5.93331">
        <ele>375</ele>
        <time>2022-05-01T09:28:59.361Z</time>
      </trkpt>
      <trkpt lat="45.66999" lon="5.9333">
        <ele>375</ele>
        <time>2022-05-01T09:29:00.362Z</time>
      </trkpt>
      <trkpt lat="45.67001" lon="5.9333">
        <ele>375</ele>
        <time>2022-05-01T09:29:01.361Z</time>
      </trkpt>
      <trkpt lat="45.67004" lon="5.9333">
        <ele>375</ele>
        <time>2022-05-01T09:29:02.362Z</time>
      </trkpt>
      <trkpt lat="45.67007" lon="5.93329">
        <ele>375</ele>
        <time>2022-05-01T09:29:03.362Z</time>
      </trkpt>
      <trkpt lat="45.6701" lon="5.93329">
        <ele>375</ele>
        <time>2022-05-01T09:29:04.362Z</time>
      </trkpt>
      <trkpt lat="45.67012" lon="5.93329">
        <ele>376</ele>
        <time>2022-05-01T09:29:05.362Z</time>
      </trkpt>
      <trkpt lat="45.67015" lon="5.93329">
        <ele>376</ele>
        <time>2022-05-01T09:29:06.362Z</time>
      </trkpt>
      <trkpt lat="45.67018" lon="5.93329">
        <ele>376</ele>
        <time>2022-05-01T09:29:07.362Z</time>
      </trkpt>
      <trkpt lat="45.67021" lon="5.93328">
        <ele>377</ele>
        <time>2022-05-01T09:29:08.362Z</time>
      </trkpt>
      <trkpt lat="45.67023" lon="5.93328">
        <ele>377</ele>
        <time>2022-05-01T09:29:09.362Z</time>
      </trkpt>
      <trkpt lat="45.67027" lon="5.93329">
        <ele>378</ele>
        <time>2022-05-01T09:29:10.362Z</time>
      </trkpt>
      <trkpt lat="45.67029" lon="5.93331">
        <ele>378</ele>
        <time>2022-05-01T09:29:11.361Z</time>
      </trkpt>
      <trkpt lat="45.67032" lon="5.93333">
        <ele>379</ele>
        <time>2022-05-01T09:29:12.362Z</time>
      </trkpt>
      <trkpt lat="45.67034" lon="5.93335">
        <ele>379</ele>
        <time>2022-05-01T09:29:13.361Z</time>
      </trkpt>
      <trkpt lat="45.67036" lon="5.93338">
        <ele>380</ele>
        <time>2022-05-01T09:29:14.362Z</time>
      </trkpt>
      <trkpt lat="45.67037" lon="5.93342">
        <ele>380</ele>
        <time>2022-05-01T09:29:15.362Z</time>
      </trkpt>
      <trkpt lat="45.67038" lon="5.93345">
        <ele>380</ele>
        <time>2022-05-01T09:29:16.362Z</time>
      </trkpt>
      <trkpt lat="45.67039" lon="5.93349">
        <ele>380</ele>
        <time>2022-05-01T09:29:17.362Z</time>
      </trkpt>
      <trkpt lat="45.6704" lon="5.93353">
        <ele>380</ele>
        <time>2022-05-01T09:29:18.361Z</time>
      </trkpt>
      <trkpt lat="45.6704" lon="5.93357">
        <ele>381</ele>
        <time>2022-05-01T09:29:19.361Z</time>
      </trkpt>
      <trkpt lat="45.6704" lon="5.93361">
        <ele>381</ele>
        <time>2022-05-01T09:29:20.362Z</time>
      </trkpt>
      <trkpt lat="45.6704" lon="5.93365">
        <ele>381</ele>
        <time>2022-05-01T09:29:21.361Z</time>
      </trkpt>
      <trkpt lat="45.6704" lon="5.93369">
        <ele>381</ele>
        <time>2022-05-01T09:29:22.362Z</time>
      </trkpt>
      <trkpt lat="45.67041" lon="5.93373">
        <ele>381</ele>
        <time>2022-05-01T09:29:23.362Z</time>
      </trkpt>
      <trkpt lat="45.67041" lon="5.93377">
        <ele>381</ele>
        <time>2022-05-01T09:29:24.362Z</time>
      </trkpt>
      <trkpt lat="45.67041" lon="5.93381">
        <ele>381</ele>
        <time>2022-05-01T09:29:25.362Z</time>
      </trkpt>
      <trkpt lat="45.67041" lon="5.93385">
        <ele>381</ele>
        <time>2022-05-01T09:29:26.362Z</time>
      </trkpt>
      <trkpt lat="45.67041" lon="5.93389">
        <ele>381</ele>
        <time>2022-05-01T09:29:27.362Z</time>
      </trkpt>
      <trkpt lat="45.67042" lon="5.93394">
        <ele>381</ele>
        <time>2022-05-01T09:29:28.361Z</time>
      </trkpt>
      <trkpt lat="45.67043" lon="5.93398">
        <ele>381</ele>
        <time>2022-05-01T09:29:29.362Z</time>
      </trkpt>
      <trkpt lat="45.67043" lon="5.93402">
        <ele>381</ele>
        <time>2022-05-01T09:29:30.362Z</time>
      </trkpt>
      <trkpt lat="45.67044" lon="5.93405">
        <ele>381</ele>
        <time>2022-05-01T09:29:31.362Z</time>
      </trkpt>
      <trkpt lat="45.67044" lon="5.93409">
        <ele>381</ele>
        <time>2022-05-01T09:29:32.362Z</time>
      </trkpt>
      <trkpt lat="45.67045" lon="5.93414">
        <ele>381</ele>
        <time>2022-05-01T09:29:33.362Z</time>
      </trkpt>
      <trkpt lat="45.67046" lon="5.93418">
        <ele>381</ele>
        <time>2022-05-01T09:29:34.362Z</time>
      </trkpt>
      <trkpt lat="45.67047" lon="5.93422">
        <ele>381</ele>
        <time>2022-05-01T09:29:35.361Z</time>
      </trkpt>
      <trkpt lat="45.67048" lon="5.93426">
        <ele>381</ele>
        <time>2022-05-01T09:29:36.362Z</time>
      </trkpt>
      <trkpt lat="45.67049" lon="5.9343">
        <ele>381</ele>
        <time>2022-05-01T09:29:37.362Z</time>
      </trkpt>
      <trkpt lat="45.6705" lon="5.93434">
        <ele>381</ele>
        <time>2022-05-01T09:29:38.362Z</time>
      </trkpt>
      <trkpt lat="45.67051" lon="5.93437">
        <ele>381</ele>
        <time>2022-05-01T09:29:39.362Z</time>
      </trkpt>
      <trkpt lat="45.67052" lon="5.93441">
        <ele>381</ele>
        <time>2022-05-01T09:29:40.361Z</time>
      </trkpt>
      <trkpt lat="45.67054" lon="5.93445">
        <ele>381</ele>
        <time>2022-05-01T09:29:41.362Z</time>
      </trkpt>
      <trkpt lat="45.67056" lon="5.93449">
        <ele>381</ele>
        <time>2022-05-01T09:29:42.361Z</time>
      </trkpt>
      <trkpt lat="45.67057" lon="5.93451">
        <ele>382</ele>
        <time>2022-05-01T09:29:43.362Z</time>
      </trkpt>
      <trkpt lat="45.67058" lon="5.93454">
        <ele>382</ele>
        <time>2022-05-01T09:29:44.361Z</time>
      </trkpt>
      <trkpt lat="45.6706" lon="5.93457">
        <ele>382</ele>
        <time>2022-05-01T09:29:45.361Z</time>
      </trkpt>
      <trkpt lat="45.67061" lon="5.9346">
        <ele>383</ele>
        <time>2022-05-01T09:29:46.362Z</time>
      </trkpt>
      <trkpt lat="45.67062" lon="5.93463">
        <ele>383</ele>
        <time>2022-05-01T09:29:47.362Z</time>
      </trkpt>
      <trkpt lat="45.67063" lon="5.93465">
        <ele>383</ele>
        <time>2022-05-01T09:29:48.362Z</time>
      </trkpt>
      <trkpt lat="45.67064" lon="5.93467">
        <ele>383</ele>
        <time>2022-05-01T09:29:49.362Z</time>
      </trkpt>
      <trkpt lat="45.67065" lon="5.9347">
        <ele>383</ele>
        <time>2022-05-01T09:29:50.362Z</time>
      </trkpt>
      <trkpt lat="45.67066" lon="5.93472">
        <ele>383</ele>
        <time>2022-05-01T09:29:51.361Z</time>
      </trkpt>
      <trkpt lat="45.67067" lon="5.93475">
        <ele>383</ele>
        <time>2022-05-01T09:29:52.362Z</time>
      </trkpt>
      <trkpt lat="45.67068" lon="5.93478">
        <ele>384</ele>
        <time>2022-05-01T09:29:53.362Z</time>
      </trkpt>
      <trkpt lat="45.6707" lon="5.93481">
        <ele>384</ele>
        <time>2022-05-01T09:29:54.361Z</time>
      </trkpt>
      <trkpt lat="45.6707" lon="5.93484">
        <ele>384</ele>
        <time>2022-05-01T09:29:55.362Z</time>
      </trkpt>
      <trkpt lat="45.67071" lon="5.93487">
        <ele>385</ele>
        <time>2022-05-01T09:29:56.361Z</time>
      </trkpt>
      <trkpt lat="45.67071" lon="5.9349">
        <ele>385</ele>
        <time>2022-05-01T09:29:57.361Z</time>
      </trkpt>
      <trkpt lat="45.67072" lon="5.93493">
        <ele>385</ele>
        <time>2022-05-01T09:29:58.362Z</time>
      </trkpt>
      <trkpt lat="45.67072" lon="5.93495">
        <ele>386</ele>
        <time>2022-05-01T09:29:59.362Z</time>
      </trkpt>
      <trkpt lat="45.67073" lon="5.93498">
        <ele>386</ele>
        <time>2022-05-01T09:30:00.362Z</time>
      </trkpt>
      <trkpt lat="45.67073" lon="5.93501">
        <ele>386</ele>
        <time>2022-05-01T09:30:01.361Z</time>
      </trkpt>
      <trkpt lat="45.67073" lon="5.93504">
        <ele>386</ele>
        <time>2022-05-01T09:30:02.361Z</time>
      </trkpt>
      <trkpt lat="45.67073" lon="5.93508">
        <ele>387</ele>
        <time>2022-05-01T09:30:03.361Z</time>
      </trkpt>
      <trkpt lat="45.67073" lon="5.9351">
        <ele>387</ele>
        <time>2022-05-01T09:30:04.361Z</time>
      </trkpt>
      <trkpt lat="45.67072" lon="5.93513">
        <ele>387</ele>
        <time>2022-05-01T09:30:05.361Z</time>
      </trkpt>
      <trkpt lat="45.67071" lon="5.93516">
        <ele>388</ele>
        <time>2022-05-01T09:30:06.361Z</time>
      </trkpt>
      <trkpt lat="45.67071" lon="5.93519">
        <ele>388</ele>
        <time>2022-05-01T09:30:07.361Z</time>
      </trkpt>
      <trkpt lat="45.6707" lon="5.93521">
        <ele>388</ele>
        <time>2022-05-01T09:30:08.361Z</time>
      </trkpt>
      <trkpt lat="45.67069" lon="5.93524">
        <ele>389</ele>
        <time>2022-05-01T09:30:09.361Z</time>
      </trkpt>
      <trkpt lat="45.67068" lon="5.93526">
        <ele>389</ele>
        <time>2022-05-01T09:30:10.362Z</time>
      </trkpt>
      <trkpt lat="45.67066" lon="5.93529">
        <ele>389</ele>
        <time>2022-05-01T09:30:11.362Z</time>
      </trkpt>
      <trkpt lat="45.67064" lon="5.93532">
        <ele>389</ele>
        <time>2022-05-01T09:30:12.361Z</time>
      </trkpt>
      <trkpt lat="45.67062" lon="5.93534">
        <ele>389</ele>
        <time>2022-05-01T09:30:13.362Z</time>
      </trkpt>
      <trkpt lat="45.6706" lon="5.93535">
        <ele>389</ele>
        <time>2022-05-01T09:30:14.361Z</time>
      </trkpt>
      <trkpt lat="45.67058" lon="5.93537">
        <ele>389</ele>
        <time>2022-05-01T09:30:15.361Z</time>
      </trkpt>
      <trkpt lat="45.67056" lon="5.93538">
        <ele>389</ele>
        <time>2022-05-01T09:30:16.362Z</time>
      </trkpt>
      <trkpt lat="45.67054" lon="5.93539">
        <ele>390</ele>
        <time>2022-05-01T09:30:17.362Z</time>
      </trkpt>
      <trkpt lat="45.67052" lon="5.93539">
        <ele>390</ele>
        <time>2022-05-01T09:30:18.362Z</time>
      </trkpt>
      <trkpt lat="45.6705" lon="5.93539">
        <ele>390</ele>
        <time>2022-05-01T09:30:19.361Z</time>
      </trkpt>
      <trkpt lat="45.67049" lon="5.93539">
        <ele>390</ele>
        <time>2022-05-01T09:30:20.362Z</time>
      </trkpt>
      <trkpt lat="45.67046" lon="5.9354">
        <ele>391</ele>
        <time>2022-05-01T09:30:21.362Z</time>
      </trkpt>
      <trkpt lat="45.67043" lon="5.93541">
        <ele>391</ele>
        <time>2022-05-01T09:30:22.361Z</time>
      </trkpt>
      <trkpt lat="45.67041" lon="5.93542">
        <ele>391</ele>
        <time>2022-05-01T09:30:23.361Z</time>
      </trkpt>
      <trkpt lat="45.67038" lon="5.93543">
        <ele>391</ele>
        <time>2022-05-01T09:30:24.362Z</time>
      </trkpt>
      <trkpt lat="45.67036" lon="5.93544">
        <ele>391</ele>
        <time>2022-05-01T09:30:25.362Z</time>
      </trkpt>
      <trkpt lat="45.67033" lon="5.93545">
        <ele>390</ele>
        <time>2022-05-01T09:30:26.362Z</time>
      </trkpt>
      <trkpt lat="45.67031" lon="5.93546">
        <ele>390</ele>
        <time>2022-05-01T09:30:27.361Z</time>
      </trkpt>
      <trkpt lat="45.67029" lon="5.93546">
        <ele>390</ele>
        <time>2022-05-01T09:30:28.361Z</time>
      </trkpt>
      <trkpt lat="45.67026" lon="5.93548">
        <ele>390</ele>
        <time>2022-05-01T09:30:29.361Z</time>
      </trkpt>
      <trkpt lat="45.67024" lon="5.93548">
        <ele>390</ele>
        <time>2022-05-01T09:30:30.362Z</time>
      </trkpt>
      <trkpt lat="45.67021" lon="5.93549">
        <ele>390</ele>
        <time>2022-05-01T09:30:31.362Z</time>
      </trkpt>
      <trkpt lat="45.67019" lon="5.9355">
        <ele>390</ele>
        <time>2022-05-01T09:30:32.361Z</time>
      </trkpt>
      <trkpt lat="45.67017" lon="5.93551">
        <ele>390</ele>
        <time>2022-05-01T09:30:33.362Z</time>
      </trkpt>
      <trkpt lat="45.67014" lon="5.93552">
        <ele>391</ele>
        <time>2022-05-01T09:30:34.361Z</time>
      </trkpt>
      <trkpt lat="45.67012" lon="5.93553">
        <ele>391</ele>
        <time>2022-05-01T09:30:35.361Z</time>
      </trkpt>
      <trkpt lat="45.6701" lon="5.93554">
        <ele>391</ele>
        <time>2022-05-01T09:30:36.362Z</time>
      </trkpt>
      <trkpt lat="45.67008" lon="5.93555">
        <ele>391</ele>
        <time>2022-05-01T09:30:37.361Z</time>
      </trkpt>
      <trkpt lat="45.67006" lon="5.93557">
        <ele>391</ele>
        <time>2022-05-01T09:30:38.361Z</time>
      </trkpt>
      <trkpt lat="45.67003" lon="5.93558">
        <ele>391</ele>
        <time>2022-05-01T09:30:39.361Z</time>
      </trkpt>
      <trkpt lat="45.67001" lon="5.93559">
        <ele>391</ele>
        <time>2022-05-01T09:30:40.361Z</time>
      </trkpt>
      <trkpt lat="45.66998" lon="5.9356">
        <ele>391</ele>
        <time>2022-05-01T09:30:41.362Z</time>
      </trkpt>
      <trkpt lat="45.66996" lon="5.93562">
        <ele>391</ele>
        <time>2022-05-01T09:30:42.361Z</time>
      </trkpt>
      <trkpt lat="45.66994" lon="5.93563">
        <ele>392</ele>
        <time>2022-05-01T09:30:43.362Z</time>
      </trkpt>
      <trkpt lat="45.66992" lon="5.93564">
        <ele>392</ele>
        <time>2022-05-01T09:30:44.362Z</time>
      </trkpt>
      <trkpt lat="45.6699" lon="5.93566">
        <ele>392</ele>
        <time>2022-05-01T09:30:45.361Z</time>
      </trkpt>
      <trkpt lat="45.66989" lon="5.93566">
        <ele>393</ele>
        <time>2022-05-01T09:30:46.362Z</time>
      </trkpt>
      <trkpt lat="45.66987" lon="5.93567">
        <ele>393</ele>
        <time>2022-05-01T09:30:47.361Z</time>
      </trkpt>
      <trkpt lat="45.66985" lon="5.93569">
        <ele>394</ele>
        <time>2022-05-01T09:30:48.361Z</time>
      </trkpt>
      <trkpt lat="45.66983" lon="5.93571">
        <ele>394</ele>
        <time>2022-05-01T09:30:49.362Z</time>
      </trkpt>
      <trkpt lat="45.66982" lon="5.93572">
        <ele>394</ele>
        <time>2022-05-01T09:30:50.361Z</time>
      </trkpt>
      <trkpt lat="45.6698" lon="5.93574">
        <ele>394</ele>
        <time>2022-05-01T09:30:51.361Z</time>
      </trkpt>
      <trkpt lat="45.66978" lon="5.93577">
        <ele>394</ele>
        <time>2022-05-01T09:30:52.362Z</time>
      </trkpt>
      <trkpt lat="45.66976" lon="5.93578">
        <ele>394</ele>
        <time>2022-05-01T09:30:53.361Z</time>
      </trkpt>
      <trkpt lat="45.66974" lon="5.9358">
        <ele>394</ele>
        <time>2022-05-01T09:30:54.361Z</time>
      </trkpt>
      <trkpt lat="45.66973" lon="5.93582">
        <ele>394</ele>
        <time>2022-05-01T09:30:55.362Z</time>
      </trkpt>
      <trkpt lat="45.66971" lon="5.93585">
        <ele>394</ele>
        <time>2022-05-01T09:30:56.361Z</time>
      </trkpt>
      <trkpt lat="45.6697" lon="5.93587">
        <ele>394</ele>
        <time>2022-05-01T09:30:57.361Z</time>
      </trkpt>
      <trkpt lat="45.66969" lon="5.93589">
        <ele>394</ele>
        <time>2022-05-01T09:30:58.361Z</time>
      </trkpt>
      <trkpt lat="45.66968" lon="5.93591">
        <ele>395</ele>
        <time>2022-05-01T09:30:59.361Z</time>
      </trkpt>
      <trkpt lat="45.66966" lon="5.93594">
        <ele>395</ele>
        <time>2022-05-01T09:31:00.361Z</time>
      </trkpt>
      <trkpt lat="45.66966" lon="5.93596">
        <ele>395</ele>
        <time>2022-05-01T09:31:01.361Z</time>
      </trkpt>
      <trkpt lat="45.66965" lon="5.93599">
        <ele>395</ele>
        <time>2022-05-01T09:31:02.361Z</time>
      </trkpt>
      <trkpt lat="45.66964" lon="5.93601">
        <ele>395</ele>
        <time>2022-05-01T09:31:03.361Z</time>
      </trkpt>
      <trkpt lat="45.66963" lon="5.93603">
        <ele>396</ele>
        <time>2022-05-01T09:31:04.361Z</time>
      </trkpt>
      <trkpt lat="45.66963" lon="5.93605">
        <ele>396</ele>
        <time>2022-05-01T09:31:05.361Z</time>
      </trkpt>
      <trkpt lat="45.66962" lon="5.93608">
        <ele>396</ele>
        <time>2022-05-01T09:31:06.361Z</time>
      </trkpt>
      <trkpt lat="45.66961" lon="5.93611">
        <ele>396</ele>
        <time>2022-05-01T09:31:07.361Z</time>
      </trkpt>
      <trkpt lat="45.66961" lon="5.93614">
        <ele>396</ele>
        <time>2022-05-01T09:31:08.362Z</time>
      </trkpt>
      <trkpt lat="45.66961" lon="5.93616">
        <ele>396</ele>
        <time>2022-05-01T09:31:09.361Z</time>
      </trkpt>
      <trkpt lat="45.6696" lon="5.93619">
        <ele>396</ele>
        <time>2022-05-01T09:31:10.361Z</time>
      </trkpt>
      <trkpt lat="45.66959" lon="5.93622">
        <ele>396</ele>
        <time>2022-05-01T09:31:11.361Z</time>
      </trkpt>
      <trkpt lat="45.66959" lon="5.93624">
        <ele>396</ele>
        <time>2022-05-01T09:31:12.362Z</time>
      </trkpt>
      <trkpt lat="45.66958" lon="5.93627">
        <ele>396</ele>
        <time>2022-05-01T09:31:13.361Z</time>
      </trkpt>
      <trkpt lat="45.66958" lon="5.9363">
        <ele>397</ele>
        <time>2022-05-01T09:31:14.362Z</time>
      </trkpt>
      <trkpt lat="45.66957" lon="5.93633">
        <ele>397</ele>
        <time>2022-05-01T09:31:15.361Z</time>
      </trkpt>
      <trkpt lat="45.66957" lon="5.93636">
        <ele>397</ele>
        <time>2022-05-01T09:31:16.362Z</time>
      </trkpt>
      <trkpt lat="45.66956" lon="5.93638">
        <ele>397</ele>
        <time>2022-05-01T09:31:17.361Z</time>
      </trkpt>
      <trkpt lat="45.66955" lon="5.93641">
        <ele>397</ele>
        <time>2022-05-01T09:31:18.362Z</time>
      </trkpt>
      <trkpt lat="45.66954" lon="5.93643">
        <ele>397</ele>
        <time>2022-05-01T09:31:19.362Z</time>
      </trkpt>
      <trkpt lat="45.66953" lon="5.93646">
        <ele>397</ele>
        <time>2022-05-01T09:31:20.362Z</time>
      </trkpt>
      <trkpt lat="45.66953" lon="5.93649">
        <ele>397</ele>
        <time>2022-05-01T09:31:21.362Z</time>
      </trkpt>
      <trkpt lat="45.66952" lon="5.93652">
        <ele>397</ele>
        <time>2022-05-01T09:31:22.362Z</time>
      </trkpt>
      <trkpt lat="45.66952" lon="5.93655">
        <ele>397</ele>
        <time>2022-05-01T09:31:23.362Z</time>
      </trkpt>
      <trkpt lat="45.66951" lon="5.93657">
        <ele>397</ele>
        <time>2022-05-01T09:31:24.362Z</time>
      </trkpt>
      <trkpt lat="45.66951" lon="5.9366">
        <ele>398</ele>
        <time>2022-05-01T09:31:25.361Z</time>
      </trkpt>
      <trkpt lat="45.6695" lon="5.93663">
        <ele>398</ele>
        <time>2022-05-01T09:31:26.362Z</time>
      </trkpt>
      <trkpt lat="45.6695" lon="5.93665">
        <ele>398</ele>
        <time>2022-05-01T09:31:27.362Z</time>
      </trkpt>
      <trkpt lat="45.6695" lon="5.93668">
        <ele>398</ele>
        <time>2022-05-01T09:31:28.361Z</time>
      </trkpt>
      <trkpt lat="45.66949" lon="5.9367">
        <ele>398</ele>
        <time>2022-05-01T09:31:29.362Z</time>
      </trkpt>
      <trkpt lat="45.66948" lon="5.93672">
        <ele>398</ele>
        <time>2022-05-01T09:31:30.361Z</time>
      </trkpt>
      <trkpt lat="45.66948" lon="5.93674">
        <ele>398</ele>
        <time>2022-05-01T09:31:31.362Z</time>
      </trkpt>
      <trkpt lat="45.66947" lon="5.93677">
        <ele>399</ele>
        <time>2022-05-01T09:31:32.362Z</time>
      </trkpt>
      <trkpt lat="45.66946" lon="5.9368">
        <ele>399</ele>
        <time>2022-05-01T09:31:33.362Z</time>
      </trkpt>
      <trkpt lat="45.66946" lon="5.93682">
        <ele>399</ele>
        <time>2022-05-01T09:31:34.362Z</time>
      </trkpt>
      <trkpt lat="45.66945" lon="5.93685">
        <ele>400</ele>
        <time>2022-05-01T09:31:35.362Z</time>
      </trkpt>
      <trkpt lat="45.66945" lon="5.93687">
        <ele>400</ele>
        <time>2022-05-01T09:31:36.361Z</time>
      </trkpt>
      <trkpt lat="45.66944" lon="5.9369">
        <ele>400</ele>
        <time>2022-05-01T09:31:37.362Z</time>
      </trkpt>
      <trkpt lat="45.66944" lon="5.93692">
        <ele>401</ele>
        <time>2022-05-01T09:31:38.362Z</time>
      </trkpt>
      <trkpt lat="45.66944" lon="5.93695">
        <ele>401</ele>
        <time>2022-05-01T09:31:39.362Z</time>
      </trkpt>
      <trkpt lat="45.66943" lon="5.93697">
        <ele>401</ele>
        <time>2022-05-01T09:31:40.362Z</time>
      </trkpt>
      <trkpt lat="45.66943" lon="5.937">
        <ele>401</ele>
        <time>2022-05-01T09:31:41.362Z</time>
      </trkpt>
      <trkpt lat="45.66942" lon="5.93702">
        <ele>401</ele>
        <time>2022-05-01T09:31:42.362Z</time>
      </trkpt>
      <trkpt lat="45.66942" lon="5.93705">
        <ele>400</ele>
        <time>2022-05-01T09:31:43.362Z</time>
      </trkpt>
      <trkpt lat="45.66941" lon="5.93708">
        <ele>400</ele>
        <time>2022-05-01T09:31:44.361Z</time>
      </trkpt>
      <trkpt lat="45.66941" lon="5.9371">
        <ele>401</ele>
        <time>2022-05-01T09:31:45.362Z</time>
      </trkpt>
      <trkpt lat="45.66941" lon="5.93713">
        <ele>401</ele>
        <time>2022-05-01T09:31:46.362Z</time>
      </trkpt>
      <trkpt lat="45.6694" lon="5.93716">
        <ele>401</ele>
        <time>2022-05-01T09:31:47.361Z</time>
      </trkpt>
      <trkpt lat="45.6694" lon="5.93719">
        <ele>402</ele>
        <time>2022-05-01T09:31:48.362Z</time>
      </trkpt>
      <trkpt lat="45.6694" lon="5.93722">
        <ele>402</ele>
        <time>2022-05-01T09:31:49.362Z</time>
      </trkpt>
      <trkpt lat="45.6694" lon="5.93725">
        <ele>403</ele>
        <time>2022-05-01T09:31:50.361Z</time>
      </trkpt>
      <trkpt lat="45.6694" lon="5.93728">
        <ele>404</ele>
        <time>2022-05-01T09:31:51.361Z</time>
      </trkpt>
      <trkpt lat="45.6694" lon="5.9373">
        <ele>404</ele>
        <time>2022-05-01T09:31:52.362Z</time>
      </trkpt>
      <trkpt lat="45.6694" lon="5.93733">
        <ele>404</ele>
        <time>2022-05-01T09:31:53.362Z</time>
      </trkpt>
      <trkpt lat="45.6694" lon="5.93736">
        <ele>405</ele>
        <time>2022-05-01T09:31:54.362Z</time>
      </trkpt>
      <trkpt lat="45.66941" lon="5.93739">
        <ele>405</ele>
        <time>2022-05-01T09:31:55.362Z</time>
      </trkpt>
      <trkpt lat="45.66941" lon="5.93742">
        <ele>405</ele>
        <time>2022-05-01T09:31:56.362Z</time>
      </trkpt>
      <trkpt lat="45.66941" lon="5.93744">
        <ele>405</ele>
        <time>2022-05-01T09:31:57.362Z</time>
      </trkpt>
      <trkpt lat="45.66942" lon="5.93747">
        <ele>405</ele>
        <time>2022-05-01T09:31:58.362Z</time>
      </trkpt>
      <trkpt lat="45.66942" lon="5.9375">
        <ele>405</ele>
        <time>2022-05-01T09:31:59.361Z</time>
      </trkpt>
      <trkpt lat="45.66943" lon="5.93752">
        <ele>405</ele>
        <time>2022-05-01T09:32:00.362Z</time>
      </trkpt>
      <trkpt lat="45.66943" lon="5.93755">
        <ele>406</ele>
        <time>2022-05-01T09:32:01.362Z</time>
      </trkpt>
      <trkpt lat="45.66943" lon="5.93757">
        <ele>406</ele>
        <time>2022-05-01T09:32:02.361Z</time>
      </trkpt>
      <trkpt lat="45.66944" lon="5.9376">
        <ele>406</ele>
        <time>2022-05-01T09:32:03.361Z</time>
      </trkpt>
      <trkpt lat="45.66944" lon="5.93762">
        <ele>406</ele>
        <time>2022-05-01T09:32:04.362Z</time>
      </trkpt>
      <trkpt lat="45.66944" lon="5.93765">
        <ele>407</ele>
        <time>2022-05-01T09:32:05.362Z</time>
      </trkpt>
      <trkpt lat="45.66944" lon="5.93768">
        <ele>407</ele>
        <time>2022-05-01T09:32:06.362Z</time>
      </trkpt>
      <trkpt lat="45.66945" lon="5.9377">
        <ele>407</ele>
        <time>2022-05-01T09:32:07.362Z</time>
      </trkpt>
      <trkpt lat="45.66944" lon="5.93772">
        <ele>408</ele>
        <time>2022-05-01T09:32:08.362Z</time>
      </trkpt>
      <trkpt lat="45.66944" lon="5.93774">
        <ele>408</ele>
        <time>2022-05-01T09:32:09.362Z</time>
      </trkpt>
      <trkpt lat="45.66944" lon="5.93776">
        <ele>408</ele>
        <time>2022-05-01T09:32:10.362Z</time>
      </trkpt>
      <trkpt lat="45.66944" lon="5.93779">
        <ele>408</ele>
        <time>2022-05-01T09:32:11.361Z</time>
      </trkpt>
      <trkpt lat="45.66944" lon="5.93781">
        <ele>408</ele>
        <time>2022-05-01T09:32:12.362Z</time>
      </trkpt>
      <trkpt lat="45.66945" lon="5.93784">
        <ele>409</ele>
        <time>2022-05-01T09:32:13.362Z</time>
      </trkpt>
      <trkpt lat="45.66945" lon="5.93786">
        <ele>409</ele>
        <time>2022-05-01T09:32:14.362Z</time>
      </trkpt>
      <trkpt lat="45.66946" lon="5.93788">
        <ele>409</ele>
        <time>2022-05-01T09:32:15.362Z</time>
      </trkpt>
      <trkpt lat="45.66946" lon="5.93791">
        <ele>409</ele>
        <time>2022-05-01T09:32:16.362Z</time>
      </trkpt>
      <trkpt lat="45.66947" lon="5.93793">
        <ele>409</ele>
        <time>2022-05-01T09:32:17.362Z</time>
      </trkpt>
      <trkpt lat="45.66948" lon="5.93796">
        <ele>409</ele>
        <time>2022-05-01T09:32:18.361Z</time>
      </trkpt>
      <trkpt lat="45.66948" lon="5.93799">
        <ele>409</ele>
        <time>2022-05-01T09:32:19.362Z</time>
      </trkpt>
      <trkpt lat="45.66948" lon="5.93802">
        <ele>409</ele>
        <time>2022-05-01T09:32:20.362Z</time>
      </trkpt>
      <trkpt lat="45.66949" lon="5.93805">
        <ele>409</ele>
        <time>2022-05-01T09:32:21.361Z</time>
      </trkpt>
      <trkpt lat="45.66949" lon="5.93807">
        <ele>409</ele>
        <time>2022-05-01T09:32:22.362Z</time>
      </trkpt>
      <trkpt lat="45.6695" lon="5.9381">
        <ele>409</ele>
        <time>2022-05-01T09:32:23.362Z</time>
      </trkpt>
      <trkpt lat="45.66951" lon="5.93814">
        <ele>409</ele>
        <time>2022-05-01T09:32:24.362Z</time>
      </trkpt>
      <trkpt lat="45.66951" lon="5.93816">
        <ele>409</ele>
        <time>2022-05-01T09:32:25.362Z</time>
      </trkpt>
      <trkpt lat="45.66952" lon="5.93819">
        <ele>410</ele>
        <time>2022-05-01T09:32:26.361Z</time>
      </trkpt>
      <trkpt lat="45.66952" lon="5.93821">
        <ele>410</ele>
        <time>2022-05-01T09:32:27.362Z</time>
      </trkpt>
      <trkpt lat="45.66952" lon="5.93825">
        <ele>411</ele>
        <time>2022-05-01T09:32:28.362Z</time>
      </trkpt>
      <trkpt lat="45.66952" lon="5.93828">
        <ele>411</ele>
        <time>2022-05-01T09:32:29.362Z</time>
      </trkpt>
      <trkpt lat="45.66952" lon="5.93832">
        <ele>412</ele>
        <time>2022-05-01T09:32:30.362Z</time>
      </trkpt>
      <trkpt lat="45.66952" lon="5.93835">
        <ele>412</ele>
        <time>2022-05-01T09:32:31.362Z</time>
      </trkpt>
      <trkpt lat="45.66952" lon="5.93838">
        <ele>412</ele>
        <time>2022-05-01T09:32:32.361Z</time>
      </trkpt>
      <trkpt lat="45.66952" lon="5.93842">
        <ele>412</ele>
        <time>2022-05-01T09:32:33.362Z</time>
      </trkpt>
      <trkpt lat="45.66952" lon="5.93846">
        <ele>412</ele>
        <time>2022-05-01T09:32:34.362Z</time>
      </trkpt>
      <trkpt lat="45.66952" lon="5.93848">
        <ele>412</ele>
        <time>2022-05-01T09:32:35.362Z</time>
      </trkpt>
      <trkpt lat="45.66953" lon="5.93851">
        <ele>412</ele>
        <time>2022-05-01T09:32:36.362Z</time>
      </trkpt>
      <trkpt lat="45.66953" lon="5.93853">
        <ele>413</ele>
        <time>2022-05-01T09:32:37.362Z</time>
      </trkpt>
      <trkpt lat="45.66953" lon="5.93855">
        <ele>413</ele>
        <time>2022-05-01T09:32:38.362Z</time>
      </trkpt>
      <trkpt lat="45.66953" lon="5.93856">
        <ele>413</ele>
        <time>2022-05-01T09:32:39.362Z</time>
      </trkpt>
      <trkpt lat="45.66953" lon="5.93856">
        <ele>413</ele>
        <time>2022-05-01T09:32:40.362Z</time>
      </trkpt>
      <trkpt lat="45.66952" lon="5.93856">
        <ele>413</ele>
        <time>2022-05-01T09:32:41.361Z</time>
      </trkpt>
      <trkpt lat="45.66952" lon="5.93856">
        <ele>413</ele>
        <time>2022-05-01T09:32:42.362Z</time>
      </trkpt>
      <trkpt lat="45.66951" lon="5.93856">
        <ele>414</ele>
        <time>2022-05-01T09:32:43.362Z</time>
      </trkpt>
      <trkpt lat="45.66952" lon="5.93855">
        <ele>414</ele>
        <time>2022-05-01T09:32:47.436Z</time>
      </trkpt>
      <trkpt lat="45.66952" lon="5.93855">
        <ele>414</ele>
        <time>2022-05-01T09:32:48.437Z</time>
      </trkpt>
      <trkpt lat="45.66952" lon="5.93856">
        <ele>415</ele>
        <time>2022-05-01T09:32:51.273Z</time>
      </trkpt>
      <trkpt lat="45.66951" lon="5.93856">
        <ele>415</ele>
        <time>2022-05-01T09:32:52.274Z</time>
      </trkpt>
      <trkpt lat="45.66952" lon="5.93862">
        <ele>415</ele>
        <time>2022-05-01T09:33:42.083Z</time>
      </trkpt>
      <trkpt lat="45.66952" lon="5.93865">
        <ele>416</ele>
        <time>2022-05-01T09:33:43.084Z</time>
      </trkpt>
      <trkpt lat="45.66953" lon="5.93869">
        <ele>415</ele>
        <time>2022-05-01T09:33:44.083Z</time>
      </trkpt>
      <trkpt lat="45.66955" lon="5.93872">
        <ele>415</ele>
        <time>2022-05-01T09:33:45.084Z</time>
      </trkpt>
      <trkpt lat="45.66956" lon="5.93876">
        <ele>416</ele>
        <time>2022-05-01T09:33:46.084Z</time>
      </trkpt>
      <trkpt lat="45.66957" lon="5.9388">
        <ele>416</ele>
        <time>2022-05-01T09:33:47.084Z</time>
      </trkpt>
      <trkpt lat="45.66957" lon="5.93884">
        <ele>416</ele>
        <time>2022-05-01T09:33:48.084Z</time>
      </trkpt>
      <trkpt lat="45.66958" lon="5.93888">
        <ele>416</ele>
        <time>2022-05-01T09:33:49.084Z</time>
      </trkpt>
      <trkpt lat="45.66957" lon="5.93891">
        <ele>416</ele>
        <time>2022-05-01T09:33:50.084Z</time>
      </trkpt>
      <trkpt lat="45.66957" lon="5.93895">
        <ele>417</ele>
        <time>2022-05-01T09:33:51.083Z</time>
      </trkpt>
      <trkpt lat="45.66957" lon="5.93899">
        <ele>417</ele>
        <time>2022-05-01T09:33:52.083Z</time>
      </trkpt>
      <trkpt lat="45.66957" lon="5.93903">
        <ele>418</ele>
        <time>2022-05-01T09:33:53.083Z</time>
      </trkpt>
      <trkpt lat="45.66957" lon="5.93906">
        <ele>418</ele>
        <time>2022-05-01T09:33:54.084Z</time>
      </trkpt>
      <trkpt lat="45.66958" lon="5.9391">
        <ele>418</ele>
        <time>2022-05-01T09:33:55.083Z</time>
      </trkpt>
      <trkpt lat="45.66959" lon="5.93913">
        <ele>418</ele>
        <time>2022-05-01T09:33:56.084Z</time>
      </trkpt>
      <trkpt lat="45.6696" lon="5.93916">
        <ele>418</ele>
        <time>2022-05-01T09:33:57.084Z</time>
      </trkpt>
      <trkpt lat="45.66962" lon="5.93919">
        <ele>418</ele>
        <time>2022-05-01T09:33:58.084Z</time>
      </trkpt>
      <trkpt lat="45.66964" lon="5.9392">
        <ele>418</ele>
        <time>2022-05-01T09:33:59.084Z</time>
      </trkpt>
      <trkpt lat="45.66966" lon="5.93921">
        <ele>418</ele>
        <time>2022-05-01T09:34:00.084Z</time>
      </trkpt>
      <trkpt lat="45.66969" lon="5.93921">
        <ele>418</ele>
        <time>2022-05-01T09:34:01.083Z</time>
      </trkpt>
      <trkpt lat="45.66971" lon="5.9392">
        <ele>418</ele>
        <time>2022-05-01T09:34:02.084Z</time>
      </trkpt>
      <trkpt lat="45.66974" lon="5.93919">
        <ele>418</ele>
        <time>2022-05-01T09:34:03.083Z</time>
      </trkpt>
      <trkpt lat="45.66978" lon="5.93917">
        <ele>418</ele>
        <time>2022-05-01T09:34:04.083Z</time>
      </trkpt>
      <trkpt lat="45.66982" lon="5.93914">
        <ele>418</ele>
        <time>2022-05-01T09:34:05.084Z</time>
      </trkpt>
      <trkpt lat="45.66985" lon="5.93913">
        <ele>418</ele>
        <time>2022-05-01T09:34:06.084Z</time>
      </trkpt>
      <trkpt lat="45.66989" lon="5.93912">
        <ele>418</ele>
        <time>2022-05-01T09:34:07.084Z</time>
      </trkpt>
      <trkpt lat="45.66992" lon="5.93912">
        <ele>418</ele>
        <time>2022-05-01T09:34:08.084Z</time>
      </trkpt>
      <trkpt lat="45.66995" lon="5.93911">
        <ele>418</ele>
        <time>2022-05-01T09:34:09.083Z</time>
      </trkpt>
      <trkpt lat="45.66999" lon="5.93911">
        <ele>418</ele>
        <time>2022-05-01T09:34:10.084Z</time>
      </trkpt>
      <trkpt lat="45.67002" lon="5.9391">
        <ele>419</ele>
        <time>2022-05-01T09:34:11.084Z</time>
      </trkpt>
      <trkpt lat="45.67006" lon="5.9391">
        <ele>419</ele>
        <time>2022-05-01T09:34:12.084Z</time>
      </trkpt>
      <trkpt lat="45.67009" lon="5.93911">
        <ele>419</ele>
        <time>2022-05-01T09:34:13.083Z</time>
      </trkpt>
      <trkpt lat="45.67012" lon="5.93911">
        <ele>419</ele>
        <time>2022-05-01T09:34:14.084Z</time>
      </trkpt>
      <trkpt lat="45.67016" lon="5.93911">
        <ele>418</ele>
        <time>2022-05-01T09:34:15.083Z</time>
      </trkpt>
      <trkpt lat="45.67019" lon="5.93911">
        <ele>418</ele>
        <time>2022-05-01T09:34:16.084Z</time>
      </trkpt>
      <trkpt lat="45.67022" lon="5.93912">
        <ele>418</ele>
        <time>2022-05-01T09:34:17.084Z</time>
      </trkpt>
      <trkpt lat="45.67026" lon="5.93912">
        <ele>417</ele>
        <time>2022-05-01T09:34:18.084Z</time>
      </trkpt>
      <trkpt lat="45.67029" lon="5.93912">
        <ele>417</ele>
        <time>2022-05-01T09:34:19.083Z</time>
      </trkpt>
      <trkpt lat="45.67033" lon="5.93912">
        <ele>417</ele>
        <time>2022-05-01T09:34:20.084Z</time>
      </trkpt>
      <trkpt lat="45.67036" lon="5.93912">
        <ele>417</ele>
        <time>2022-05-01T09:34:21.084Z</time>
      </trkpt>
      <trkpt lat="45.67039" lon="5.93912">
        <ele>417</ele>
        <time>2022-05-01T09:34:22.084Z</time>
      </trkpt>
      <trkpt lat="45.67042" lon="5.93911">
        <ele>418</ele>
        <time>2022-05-01T09:34:23.084Z</time>
      </trkpt>
      <trkpt lat="45.67045" lon="5.93911">
        <ele>418</ele>
        <time>2022-05-01T09:34:24.083Z</time>
      </trkpt>
      <trkpt lat="45.67048" lon="5.93911">
        <ele>418</ele>
        <time>2022-05-01T09:34:25.084Z</time>
      </trkpt>
      <trkpt lat="45.67051" lon="5.93911">
        <ele>419</ele>
        <time>2022-05-01T09:34:26.084Z</time>
      </trkpt>
      <trkpt lat="45.67054" lon="5.93911">
        <ele>419</ele>
        <time>2022-05-01T09:34:27.083Z</time>
      </trkpt>
      <trkpt lat="45.67057" lon="5.93911">
        <ele>419</ele>
        <time>2022-05-01T09:34:28.084Z</time>
      </trkpt>
      <trkpt lat="45.6706" lon="5.93911">
        <ele>420</ele>
        <time>2022-05-01T09:34:29.083Z</time>
      </trkpt>
      <trkpt lat="45.67064" lon="5.93911">
        <ele>420</ele>
        <time>2022-05-01T09:34:30.084Z</time>
      </trkpt>
      <trkpt lat="45.67067" lon="5.93911">
        <ele>420</ele>
        <time>2022-05-01T09:34:31.084Z</time>
      </trkpt>
      <trkpt lat="45.6707" lon="5.93911">
        <ele>421</ele>
        <time>2022-05-01T09:34:32.083Z</time>
      </trkpt>
      <trkpt lat="45.67074" lon="5.93911">
        <ele>421</ele>
        <time>2022-05-01T09:34:33.084Z</time>
      </trkpt>
      <trkpt lat="45.67077" lon="5.93911">
        <ele>421</ele>
        <time>2022-05-01T09:34:34.084Z</time>
      </trkpt>
      <trkpt lat="45.67079" lon="5.93911">
        <ele>420</ele>
        <time>2022-05-01T09:34:35.084Z</time>
      </trkpt>
      <trkpt lat="45.67083" lon="5.93911">
        <ele>421</ele>
        <time>2022-05-01T09:34:36.084Z</time>
      </trkpt>
      <trkpt lat="45.67086" lon="5.93911">
        <ele>420</ele>
        <time>2022-05-01T09:34:37.084Z</time>
      </trkpt>
      <trkpt lat="45.6709" lon="5.93911">
        <ele>420</ele>
        <time>2022-05-01T09:34:38.084Z</time>
      </trkpt>
      <trkpt lat="45.67093" lon="5.93911">
        <ele>420</ele>
        <time>2022-05-01T09:34:39.084Z</time>
      </trkpt>
      <trkpt lat="45.67096" lon="5.93911">
        <ele>420</ele>
        <time>2022-05-01T09:34:40.084Z</time>
      </trkpt>
      <trkpt lat="45.67099" lon="5.93911">
        <ele>420</ele>
        <time>2022-05-01T09:34:41.083Z</time>
      </trkpt>
      <trkpt lat="45.67102" lon="5.93911">
        <ele>420</ele>
        <time>2022-05-01T09:34:42.084Z</time>
      </trkpt>
      <trkpt lat="45.67106" lon="5.93912">
        <ele>420</ele>
        <time>2022-05-01T09:34:43.083Z</time>
      </trkpt>
      <trkpt lat="45.6711" lon="5.93912">
        <ele>420</ele>
        <time>2022-05-01T09:34:44.084Z</time>
      </trkpt>
      <trkpt lat="45.67113" lon="5.93913">
        <ele>419</ele>
        <time>2022-05-01T09:34:45.083Z</time>
      </trkpt>
      <trkpt lat="45.67116" lon="5.93913">
        <ele>418</ele>
        <time>2022-05-01T09:34:46.083Z</time>
      </trkpt>
      <trkpt lat="45.6712" lon="5.93914">
        <ele>418</ele>
        <time>2022-05-01T09:34:47.083Z</time>
      </trkpt>
      <trkpt lat="45.67124" lon="5.93914">
        <ele>417</ele>
        <time>2022-05-01T09:34:48.084Z</time>
      </trkpt>
      <trkpt lat="45.67127" lon="5.93915">
        <ele>418</ele>
        <time>2022-05-01T09:34:49.083Z</time>
      </trkpt>
      <trkpt lat="45.67131" lon="5.93915">
        <ele>418</ele>
        <time>2022-05-01T09:34:50.084Z</time>
      </trkpt>
      <trkpt lat="45.67134" lon="5.93916">
        <ele>418</ele>
        <time>2022-05-01T09:34:51.083Z</time>
      </trkpt>
      <trkpt lat="45.67138" lon="5.93916">
        <ele>419</ele>
        <time>2022-05-01T09:34:52.084Z</time>
      </trkpt>
      <trkpt lat="45.67141" lon="5.93917">
        <ele>420</ele>
        <time>2022-05-01T09:34:53.084Z</time>
      </trkpt>
      <trkpt lat="45.67144" lon="5.93917">
        <ele>420</ele>
        <time>2022-05-01T09:34:54.084Z</time>
      </trkpt>
      <trkpt lat="45.67148" lon="5.93918">
        <ele>421</ele>
        <time>2022-05-01T09:34:55.083Z</time>
      </trkpt>
      <trkpt lat="45.67151" lon="5.93918">
        <ele>421</ele>
        <time>2022-05-01T09:34:56.084Z</time>
      </trkpt>
      <trkpt lat="45.67155" lon="5.93919">
        <ele>420</ele>
        <time>2022-05-01T09:34:57.084Z</time>
      </trkpt>
      <trkpt lat="45.67158" lon="5.93919">
        <ele>420</ele>
        <time>2022-05-01T09:34:58.084Z</time>
      </trkpt>
      <trkpt lat="45.67162" lon="5.9392">
        <ele>421</ele>
        <time>2022-05-01T09:34:59.084Z</time>
      </trkpt>
      <trkpt lat="45.67165" lon="5.9392">
        <ele>421</ele>
        <time>2022-05-01T09:35:00.084Z</time>
      </trkpt>
      <trkpt lat="45.67168" lon="5.93921">
        <ele>420</ele>
        <time>2022-05-01T09:35:01.084Z</time>
      </trkpt>
      <trkpt lat="45.67172" lon="5.93921">
        <ele>421</ele>
        <time>2022-05-01T09:35:02.084Z</time>
      </trkpt>
      <trkpt lat="45.67176" lon="5.93922">
        <ele>421</ele>
        <time>2022-05-01T09:35:03.084Z</time>
      </trkpt>
      <trkpt lat="45.67179" lon="5.93923">
        <ele>421</ele>
        <time>2022-05-01T09:35:04.083Z</time>
      </trkpt>
      <trkpt lat="45.67181" lon="5.93923">
        <ele>421</ele>
        <time>2022-05-01T09:35:05.084Z</time>
      </trkpt>
      <trkpt lat="45.67185" lon="5.93924">
        <ele>421</ele>
        <time>2022-05-01T09:35:06.084Z</time>
      </trkpt>
      <trkpt lat="45.67189" lon="5.93925">
        <ele>421</ele>
        <time>2022-05-01T09:35:07.084Z</time>
      </trkpt>
      <trkpt lat="45.67192" lon="5.93926">
        <ele>420</ele>
        <time>2022-05-01T09:35:08.084Z</time>
      </trkpt>
      <trkpt lat="45.67195" lon="5.93926">
        <ele>420</ele>
        <time>2022-05-01T09:35:09.084Z</time>
      </trkpt>
      <trkpt lat="45.67199" lon="5.93927">
        <ele>420</ele>
        <time>2022-05-01T09:35:10.084Z</time>
      </trkpt>
      <trkpt lat="45.67202" lon="5.93928">
        <ele>420</ele>
        <time>2022-05-01T09:35:11.084Z</time>
      </trkpt>
      <trkpt lat="45.67205" lon="5.93929">
        <ele>420</ele>
        <time>2022-05-01T09:35:12.084Z</time>
      </trkpt>
      <trkpt lat="45.67209" lon="5.9393">
        <ele>421</ele>
        <time>2022-05-01T09:35:13.084Z</time>
      </trkpt>
      <trkpt lat="45.67211" lon="5.93931">
        <ele>421</ele>
        <time>2022-05-01T09:35:14.083Z</time>
      </trkpt>
      <trkpt lat="45.67214" lon="5.93931">
        <ele>422</ele>
        <time>2022-05-01T09:35:15.083Z</time>
      </trkpt>
      <trkpt lat="45.67218" lon="5.93932">
        <ele>422</ele>
        <time>2022-05-01T09:35:16.083Z</time>
      </trkpt>
      <trkpt lat="45.67222" lon="5.93933">
        <ele>422</ele>
        <time>2022-05-01T09:35:17.084Z</time>
      </trkpt>
      <trkpt lat="45.67224" lon="5.93934">
        <ele>422</ele>
        <time>2022-05-01T09:35:18.084Z</time>
      </trkpt>
      <trkpt lat="45.67228" lon="5.93935">
        <ele>423</ele>
        <time>2022-05-01T09:35:19.084Z</time>
      </trkpt>
      <trkpt lat="45.67231" lon="5.93936">
        <ele>423</ele>
        <time>2022-05-01T09:35:20.084Z</time>
      </trkpt>
      <trkpt lat="45.67234" lon="5.93936">
        <ele>423</ele>
        <time>2022-05-01T09:35:21.084Z</time>
      </trkpt>
      <trkpt lat="45.67238" lon="5.93937">
        <ele>424</ele>
        <time>2022-05-01T09:35:22.084Z</time>
      </trkpt>
      <trkpt lat="45.67241" lon="5.93937">
        <ele>425</ele>
        <time>2022-05-01T09:35:23.083Z</time>
      </trkpt>
      <trkpt lat="45.67243" lon="5.93938">
        <ele>425</ele>
        <time>2022-05-01T09:35:24.084Z</time>
      </trkpt>
      <trkpt lat="45.67247" lon="5.93939">
        <ele>426</ele>
        <time>2022-05-01T09:35:25.083Z</time>
      </trkpt>
      <trkpt lat="45.6725" lon="5.9394">
        <ele>426</ele>
        <time>2022-05-01T09:35:26.084Z</time>
      </trkpt>
      <trkpt lat="45.67253" lon="5.93941">
        <ele>426</ele>
        <time>2022-05-01T09:35:27.084Z</time>
      </trkpt>
      <trkpt lat="45.67256" lon="5.93942">
        <ele>426</ele>
        <time>2022-05-01T09:35:28.084Z</time>
      </trkpt>
      <trkpt lat="45.67259" lon="5.93943">
        <ele>426</ele>
        <time>2022-05-01T09:35:29.084Z</time>
      </trkpt>
      <trkpt lat="45.67262" lon="5.93943">
        <ele>426</ele>
        <time>2022-05-01T09:35:30.084Z</time>
      </trkpt>
      <trkpt lat="45.67265" lon="5.93944">
        <ele>426</ele>
        <time>2022-05-01T09:35:31.084Z</time>
      </trkpt>
      <trkpt lat="45.67268" lon="5.93945">
        <ele>427</ele>
        <time>2022-05-01T09:35:32.084Z</time>
      </trkpt>
      <trkpt lat="45.67271" lon="5.93945">
        <ele>427</ele>
        <time>2022-05-01T09:35:33.083Z</time>
      </trkpt>
      <trkpt lat="45.67275" lon="5.93945">
        <ele>427</ele>
        <time>2022-05-01T09:35:34.084Z</time>
      </trkpt>
      <trkpt lat="45.67279" lon="5.93945">
        <ele>428</ele>
        <time>2022-05-01T09:35:35.084Z</time>
      </trkpt>
      <trkpt lat="45.67282" lon="5.93945">
        <ele>428</ele>
        <time>2022-05-01T09:35:36.084Z</time>
      </trkpt>
      <trkpt lat="45.67285" lon="5.93944">
        <ele>428</ele>
        <time>2022-05-01T09:35:37.084Z</time>
      </trkpt>
      <trkpt lat="45.67288" lon="5.93945">
        <ele>428</ele>
        <time>2022-05-01T09:35:38.084Z</time>
      </trkpt>
      <trkpt lat="45.67291" lon="5.93945">
        <ele>428</ele>
        <time>2022-05-01T09:35:39.084Z</time>
      </trkpt>
      <trkpt lat="45.67295" lon="5.93944">
        <ele>428</ele>
        <time>2022-05-01T09:35:40.083Z</time>
      </trkpt>
      <trkpt lat="45.67298" lon="5.93943">
        <ele>428</ele>
        <time>2022-05-01T09:35:41.083Z</time>
      </trkpt>
      <trkpt lat="45.67301" lon="5.93943">
        <ele>428</ele>
        <time>2022-05-01T09:35:42.084Z</time>
      </trkpt>
      <trkpt lat="45.67304" lon="5.93942">
        <ele>428</ele>
        <time>2022-05-01T09:35:43.084Z</time>
      </trkpt>
      <trkpt lat="45.67308" lon="5.93941">
        <ele>427</ele>
        <time>2022-05-01T09:35:44.084Z</time>
      </trkpt>
      <trkpt lat="45.67311" lon="5.9394">
        <ele>427</ele>
        <time>2022-05-01T09:35:45.084Z</time>
      </trkpt>
      <trkpt lat="45.67314" lon="5.9394">
        <ele>428</ele>
        <time>2022-05-01T09:35:46.084Z</time>
      </trkpt>
      <trkpt lat="45.67318" lon="5.93939">
        <ele>428</ele>
        <time>2022-05-01T09:35:47.084Z</time>
      </trkpt>
      <trkpt lat="45.67321" lon="5.93938">
        <ele>428</ele>
        <time>2022-05-01T09:35:48.084Z</time>
      </trkpt>
      <trkpt lat="45.67324" lon="5.93937">
        <ele>427</ele>
        <time>2022-05-01T09:35:49.084Z</time>
      </trkpt>
      <trkpt lat="45.67328" lon="5.93936">
        <ele>427</ele>
        <time>2022-05-01T09:35:50.083Z</time>
      </trkpt>
      <trkpt lat="45.67331" lon="5.93935">
        <ele>427</ele>
        <time>2022-05-01T09:35:51.084Z</time>
      </trkpt>
      <trkpt lat="45.67334" lon="5.93933">
        <ele>428</ele>
        <time>2022-05-01T09:35:52.084Z</time>
      </trkpt>
      <trkpt lat="45.67338" lon="5.93932">
        <ele>428</ele>
        <time>2022-05-01T09:35:53.084Z</time>
      </trkpt>
      <trkpt lat="45.67342" lon="5.93931">
        <ele>428</ele>
        <time>2022-05-01T09:35:54.084Z</time>
      </trkpt>
      <trkpt lat="45.67346" lon="5.93929">
        <ele>428</ele>
        <time>2022-05-01T09:35:55.084Z</time>
      </trkpt>
      <trkpt lat="45.67349" lon="5.93928">
        <ele>428</ele>
        <time>2022-05-01T09:35:56.084Z</time>
      </trkpt>
      <trkpt lat="45.67353" lon="5.93927">
        <ele>428</ele>
        <time>2022-05-01T09:35:57.084Z</time>
      </trkpt>
      <trkpt lat="45.67357" lon="5.93926">
        <ele>428</ele>
        <time>2022-05-01T09:35:58.084Z</time>
      </trkpt>
      <trkpt lat="45.67361" lon="5.93924">
        <ele>427</ele>
        <time>2022-05-01T09:35:59.084Z</time>
      </trkpt>
      <trkpt lat="45.67365" lon="5.93923">
        <ele>427</ele>
        <time>2022-05-01T09:36:00.083Z</time>
      </trkpt>
      <trkpt lat="45.67368" lon="5.93921">
        <ele>428</ele>
        <time>2022-05-01T09:36:01.084Z</time>
      </trkpt>
      <trkpt lat="45.67372" lon="5.9392">
        <ele>428</ele>
        <time>2022-05-01T09:36:02.084Z</time>
      </trkpt>
      <trkpt lat="45.67375" lon="5.93918">
        <ele>429</ele>
        <time>2022-05-01T09:36:03.084Z</time>
      </trkpt>
      <trkpt lat="45.67379" lon="5.93917">
        <ele>430</ele>
        <time>2022-05-01T09:36:04.084Z</time>
      </trkpt>
      <trkpt lat="45.67382" lon="5.93916">
        <ele>430</ele>
        <time>2022-05-01T09:36:05.084Z</time>
      </trkpt>
      <trkpt lat="45.67386" lon="5.93915">
        <ele>430</ele>
        <time>2022-05-01T09:36:06.083Z</time>
      </trkpt>
      <trkpt lat="45.6739" lon="5.93913">
        <ele>430</ele>
        <time>2022-05-01T09:36:07.083Z</time>
      </trkpt>
      <trkpt lat="45.67393" lon="5.93912">
        <ele>430</ele>
        <time>2022-05-01T09:36:08.084Z</time>
      </trkpt>
      <trkpt lat="45.67397" lon="5.93911">
        <ele>430</ele>
        <time>2022-05-01T09:36:09.084Z</time>
      </trkpt>
      <trkpt lat="45.674" lon="5.93909">
        <ele>430</ele>
        <time>2022-05-01T09:36:10.084Z</time>
      </trkpt>
      <trkpt lat="45.67404" lon="5.93908">
        <ele>430</ele>
        <time>2022-05-01T09:36:11.084Z</time>
      </trkpt>
      <trkpt lat="45.67407" lon="5.93907">
        <ele>429</ele>
        <time>2022-05-01T09:36:12.084Z</time>
      </trkpt>
      <trkpt lat="45.67412" lon="5.93905">
        <ele>429</ele>
        <time>2022-05-01T09:36:13.084Z</time>
      </trkpt>
      <trkpt lat="45.67415" lon="5.93904">
        <ele>428</ele>
        <time>2022-05-01T09:36:14.084Z</time>
      </trkpt>
      <trkpt lat="45.67418" lon="5.93903">
        <ele>428</ele>
        <time>2022-05-01T09:36:15.083Z</time>
      </trkpt>
      <trkpt lat="45.67422" lon="5.93901">
        <ele>427</ele>
        <time>2022-05-01T09:36:16.084Z</time>
      </trkpt>
      <trkpt lat="45.67425" lon="5.939">
        <ele>427</ele>
        <time>2022-05-01T09:36:17.084Z</time>
      </trkpt>
      <trkpt lat="45.67429" lon="5.93899">
        <ele>427</ele>
        <time>2022-05-01T09:36:18.084Z</time>
      </trkpt>
      <trkpt lat="45.67433" lon="5.93897">
        <ele>427</ele>
        <time>2022-05-01T09:36:19.084Z</time>
      </trkpt>
      <trkpt lat="45.67436" lon="5.93896">
        <ele>427</ele>
        <time>2022-05-01T09:36:20.083Z</time>
      </trkpt>
      <trkpt lat="45.6744" lon="5.93894">
        <ele>427</ele>
        <time>2022-05-01T09:36:21.083Z</time>
      </trkpt>
      <trkpt lat="45.67445" lon="5.93892">
        <ele>427</ele>
        <time>2022-05-01T09:36:22.084Z</time>
      </trkpt>
      <trkpt lat="45.67448" lon="5.93891">
        <ele>427</ele>
        <time>2022-05-01T09:36:23.084Z</time>
      </trkpt>
      <trkpt lat="45.67451" lon="5.9389">
        <ele>428</ele>
        <time>2022-05-01T09:36:24.083Z</time>
      </trkpt>
      <trkpt lat="45.67455" lon="5.93889">
        <ele>428</ele>
        <time>2022-05-01T09:36:25.084Z</time>
      </trkpt>
      <trkpt lat="45.6746" lon="5.93887">
        <ele>428</ele>
        <time>2022-05-01T09:36:26.084Z</time>
      </trkpt>
      <trkpt lat="45.67463" lon="5.93886">
        <ele>428</ele>
        <time>2022-05-01T09:36:27.084Z</time>
      </trkpt>
      <trkpt lat="45.67467" lon="5.93884">
        <ele>428</ele>
        <time>2022-05-01T09:36:28.084Z</time>
      </trkpt>
      <trkpt lat="45.6747" lon="5.93883">
        <ele>429</ele>
        <time>2022-05-01T09:36:29.084Z</time>
      </trkpt>
      <trkpt lat="45.67474" lon="5.93882">
        <ele>429</ele>
        <time>2022-05-01T09:36:30.084Z</time>
      </trkpt>
      <trkpt lat="45.67478" lon="5.9388">
        <ele>430</ele>
        <time>2022-05-01T09:36:31.084Z</time>
      </trkpt>
      <trkpt lat="45.67482" lon="5.93879">
        <ele>430</ele>
        <time>2022-05-01T09:36:32.084Z</time>
      </trkpt>
      <trkpt lat="45.67485" lon="5.93878">
        <ele>430</ele>
        <time>2022-05-01T09:36:33.084Z</time>
      </trkpt>
      <trkpt lat="45.6749" lon="5.93876">
        <ele>430</ele>
        <time>2022-05-01T09:36:34.084Z</time>
      </trkpt>
      <trkpt lat="45.67493" lon="5.93875">
        <ele>430</ele>
        <time>2022-05-01T09:36:35.084Z</time>
      </trkpt>
      <trkpt lat="45.67496" lon="5.93874">
        <ele>430</ele>
        <time>2022-05-01T09:36:36.084Z</time>
      </trkpt>
      <trkpt lat="45.675" lon="5.93873">
        <ele>430</ele>
        <time>2022-05-01T09:36:37.084Z</time>
      </trkpt>
      <trkpt lat="45.67503" lon="5.93872">
        <ele>430</ele>
        <time>2022-05-01T09:36:38.084Z</time>
      </trkpt>
      <trkpt lat="45.67508" lon="5.9387">
        <ele>430</ele>
        <time>2022-05-01T09:36:39.084Z</time>
      </trkpt>
      <trkpt lat="45.67512" lon="5.93869">
        <ele>430</ele>
        <time>2022-05-01T09:36:40.084Z</time>
      </trkpt>
      <trkpt lat="45.67515" lon="5.93867">
        <ele>431</ele>
        <time>2022-05-01T09:36:41.084Z</time>
      </trkpt>
      <trkpt lat="45.67518" lon="5.93866">
        <ele>431</ele>
        <time>2022-05-01T09:36:42.084Z</time>
      </trkpt>
      <trkpt lat="45.67522" lon="5.93865">
        <ele>431</ele>
        <time>2022-05-01T09:36:43.083Z</time>
      </trkpt>
      <trkpt lat="45.67526" lon="5.93864">
        <ele>431</ele>
        <time>2022-05-01T09:36:44.084Z</time>
      </trkpt>
      <trkpt lat="45.6753" lon="5.93862">
        <ele>431</ele>
        <time>2022-05-01T09:36:45.084Z</time>
      </trkpt>
      <trkpt lat="45.67534" lon="5.9386">
        <ele>431</ele>
        <time>2022-05-01T09:36:46.083Z</time>
      </trkpt>
      <trkpt lat="45.67537" lon="5.93859">
        <ele>432</ele>
        <time>2022-05-01T09:36:47.084Z</time>
      </trkpt>
      <trkpt lat="45.67542" lon="5.93857">
        <ele>432</ele>
        <time>2022-05-01T09:36:48.084Z</time>
      </trkpt>
      <trkpt lat="45.67546" lon="5.93855">
        <ele>432</ele>
        <time>2022-05-01T09:36:49.083Z</time>
      </trkpt>
      <trkpt lat="45.67549" lon="5.93854">
        <ele>432</ele>
        <time>2022-05-01T09:36:50.084Z</time>
      </trkpt>
      <trkpt lat="45.67553" lon="5.93852">
        <ele>432</ele>
        <time>2022-05-01T09:36:51.083Z</time>
      </trkpt>
      <trkpt lat="45.67557" lon="5.9385">
        <ele>432</ele>
        <time>2022-05-01T09:36:52.084Z</time>
      </trkpt>
      <trkpt lat="45.67561" lon="5.93848">
        <ele>432</ele>
        <time>2022-05-01T09:36:53.084Z</time>
      </trkpt>
      <trkpt lat="45.67565" lon="5.93846">
        <ele>432</ele>
        <time>2022-05-01T09:36:54.083Z</time>
      </trkpt>
      <trkpt lat="45.67569" lon="5.93845">
        <ele>432</ele>
        <time>2022-05-01T09:36:55.084Z</time>
      </trkpt>
      <trkpt lat="45.67573" lon="5.93843">
        <ele>431</ele>
        <time>2022-05-01T09:36:56.084Z</time>
      </trkpt>
      <trkpt lat="45.67577" lon="5.93841">
        <ele>431</ele>
        <time>2022-05-01T09:36:57.084Z</time>
      </trkpt>
      <trkpt lat="45.67581" lon="5.9384">
        <ele>431</ele>
        <time>2022-05-01T09:36:58.084Z</time>
      </trkpt>
      <trkpt lat="45.67585" lon="5.93838">
        <ele>431</ele>
        <time>2022-05-01T09:36:59.083Z</time>
      </trkpt>
      <trkpt lat="45.67589" lon="5.93836">
        <ele>431</ele>
        <time>2022-05-01T09:37:00.083Z</time>
      </trkpt>
      <trkpt lat="45.67593" lon="5.93835">
        <ele>430</ele>
        <time>2022-05-01T09:37:01.084Z</time>
      </trkpt>
      <trkpt lat="45.67597" lon="5.93833">
        <ele>430</ele>
        <time>2022-05-01T09:37:02.084Z</time>
      </trkpt>
      <trkpt lat="45.67601" lon="5.93831">
        <ele>430</ele>
        <time>2022-05-01T09:37:03.083Z</time>
      </trkpt>
      <trkpt lat="45.67606" lon="5.93828">
        <ele>430</ele>
        <time>2022-05-01T09:37:04.084Z</time>
      </trkpt>
      <trkpt lat="45.67609" lon="5.93827">
        <ele>429</ele>
        <time>2022-05-01T09:37:05.084Z</time>
      </trkpt>
      <trkpt lat="45.67615" lon="5.93824">
        <ele>430</ele>
        <time>2022-05-01T09:37:06.084Z</time>
      </trkpt>
      <trkpt lat="45.67619" lon="5.93821">
        <ele>430</ele>
        <time>2022-05-01T09:37:07.084Z</time>
      </trkpt>
      <trkpt lat="45.67623" lon="5.93819">
        <ele>430</ele>
        <time>2022-05-01T09:37:08.084Z</time>
      </trkpt>
      <trkpt lat="45.67628" lon="5.93816">
        <ele>430</ele>
        <time>2022-05-01T09:37:09.084Z</time>
      </trkpt>
      <trkpt lat="45.67632" lon="5.93814">
        <ele>429</ele>
        <time>2022-05-01T09:37:10.084Z</time>
      </trkpt>
      <trkpt lat="45.67636" lon="5.93811">
        <ele>429</ele>
        <time>2022-05-01T09:37:11.084Z</time>
      </trkpt>
      <trkpt lat="45.67641" lon="5.93808">
        <ele>429</ele>
        <time>2022-05-01T09:37:12.084Z</time>
      </trkpt>
      <trkpt lat="45.67644" lon="5.93806">
        <ele>429</ele>
        <time>2022-05-01T09:37:13.084Z</time>
      </trkpt>
      <trkpt lat="45.6765" lon="5.93802">
        <ele>430</ele>
        <time>2022-05-01T09:37:14.084Z</time>
      </trkpt>
      <trkpt lat="45.67654" lon="5.93799">
        <ele>430</ele>
        <time>2022-05-01T09:37:15.084Z</time>
      </trkpt>
      <trkpt lat="45.67658" lon="5.93796">
        <ele>431</ele>
        <time>2022-05-01T09:37:16.084Z</time>
      </trkpt>
      <trkpt lat="45.67663" lon="5.93794">
        <ele>431</ele>
        <time>2022-05-01T09:37:17.084Z</time>
      </trkpt>
      <trkpt lat="45.67667" lon="5.93791">
        <ele>431</ele>
        <time>2022-05-01T09:37:18.084Z</time>
      </trkpt>
      <trkpt lat="45.67672" lon="5.93788">
        <ele>431</ele>
        <time>2022-05-01T09:37:19.084Z</time>
      </trkpt>
      <trkpt lat="45.67676" lon="5.93785">
        <ele>431</ele>
        <time>2022-05-01T09:37:20.084Z</time>
      </trkpt>
      <trkpt lat="45.6768" lon="5.93782">
        <ele>431</ele>
        <time>2022-05-01T09:37:21.084Z</time>
      </trkpt>
      <trkpt lat="45.67684" lon="5.93779">
        <ele>431</ele>
        <time>2022-05-01T09:37:22.084Z</time>
      </trkpt>
      <trkpt lat="45.67689" lon="5.93777">
        <ele>431</ele>
        <time>2022-05-01T09:37:23.083Z</time>
      </trkpt>
      <trkpt lat="45.67693" lon="5.93775">
        <ele>431</ele>
        <time>2022-05-01T09:37:24.084Z</time>
      </trkpt>
      <trkpt lat="45.67698" lon="5.93773">
        <ele>431</ele>
        <time>2022-05-01T09:37:25.084Z</time>
      </trkpt>
      <trkpt lat="45.67702" lon="5.93772">
        <ele>431</ele>
        <time>2022-05-01T09:37:26.084Z</time>
      </trkpt>
      <trkpt lat="45.67707" lon="5.9377">
        <ele>432</ele>
        <time>2022-05-01T09:37:27.084Z</time>
      </trkpt>
      <trkpt lat="45.67711" lon="5.93768">
        <ele>432</ele>
        <time>2022-05-01T09:37:28.084Z</time>
      </trkpt>
      <trkpt lat="45.67715" lon="5.93767">
        <ele>432</ele>
        <time>2022-05-01T09:37:29.083Z</time>
      </trkpt>
      <trkpt lat="45.6772" lon="5.93765">
        <ele>432</ele>
        <time>2022-05-01T09:37:30.084Z</time>
      </trkpt>
      <trkpt lat="45.67724" lon="5.93763">
        <ele>432</ele>
        <time>2022-05-01T09:37:31.084Z</time>
      </trkpt>
      <trkpt lat="45.67729" lon="5.93761">
        <ele>432</ele>
        <time>2022-05-01T09:37:32.084Z</time>
      </trkpt>
      <trkpt lat="45.67733" lon="5.93759">
        <ele>432</ele>
        <time>2022-05-01T09:37:33.084Z</time>
      </trkpt>
      <trkpt lat="45.67737" lon="5.93757">
        <ele>432</ele>
        <time>2022-05-01T09:37:34.084Z</time>
      </trkpt>
      <trkpt lat="45.67742" lon="5.93755">
        <ele>432</ele>
        <time>2022-05-01T09:37:35.084Z</time>
      </trkpt>
      <trkpt lat="45.67747" lon="5.93752">
        <ele>432</ele>
        <time>2022-05-01T09:37:36.084Z</time>
      </trkpt>
      <trkpt lat="45.67751" lon="5.9375">
        <ele>432</ele>
        <time>2022-05-01T09:37:37.084Z</time>
      </trkpt>
      <trkpt lat="45.67756" lon="5.93748">
        <ele>432</ele>
        <time>2022-05-01T09:37:38.084Z</time>
      </trkpt>
      <trkpt lat="45.67761" lon="5.93746">
        <ele>433</ele>
        <time>2022-05-01T09:37:39.084Z</time>
      </trkpt>
      <trkpt lat="45.67766" lon="5.93744">
        <ele>433</ele>
        <time>2022-05-01T09:37:40.084Z</time>
      </trkpt>
      <trkpt lat="45.6777" lon="5.93742">
        <ele>433</ele>
        <time>2022-05-01T09:37:41.084Z</time>
      </trkpt>
      <trkpt lat="45.67775" lon="5.93741">
        <ele>433</ele>
        <time>2022-05-01T09:37:42.084Z</time>
      </trkpt>
      <trkpt lat="45.6778" lon="5.9374">
        <ele>433</ele>
        <time>2022-05-01T09:37:43.084Z</time>
      </trkpt>
      <trkpt lat="45.67784" lon="5.93738">
        <ele>434</ele>
        <time>2022-05-01T09:37:44.083Z</time>
      </trkpt>
      <trkpt lat="45.67789" lon="5.93737">
        <ele>434</ele>
        <time>2022-05-01T09:37:45.083Z</time>
      </trkpt>
      <trkpt lat="45.67794" lon="5.93736">
        <ele>435</ele>
        <time>2022-05-01T09:37:46.083Z</time>
      </trkpt>
      <trkpt lat="45.67799" lon="5.93735">
        <ele>436</ele>
        <time>2022-05-01T09:37:47.084Z</time>
      </trkpt>
      <trkpt lat="45.67803" lon="5.93734">
        <ele>436</ele>
        <time>2022-05-01T09:37:48.084Z</time>
      </trkpt>
      <trkpt lat="45.67808" lon="5.93733">
        <ele>437</ele>
        <time>2022-05-01T09:37:49.084Z</time>
      </trkpt>
      <trkpt lat="45.67812" lon="5.93733">
        <ele>438</ele>
        <time>2022-05-01T09:37:50.084Z</time>
      </trkpt>
      <trkpt lat="45.67817" lon="5.93732">
        <ele>439</ele>
        <time>2022-05-01T09:37:51.083Z</time>
      </trkpt>
      <trkpt lat="45.67822" lon="5.93731">
        <ele>439</ele>
        <time>2022-05-01T09:37:52.083Z</time>
      </trkpt>
      <trkpt lat="45.67826" lon="5.9373">
        <ele>440</ele>
        <time>2022-05-01T09:37:53.083Z</time>
      </trkpt>
      <trkpt lat="45.67831" lon="5.9373">
        <ele>441</ele>
        <time>2022-05-01T09:37:54.084Z</time>
      </trkpt>
      <trkpt lat="45.67836" lon="5.93729">
        <ele>441</ele>
        <time>2022-05-01T09:37:55.083Z</time>
      </trkpt>
      <trkpt lat="45.6784" lon="5.93729">
        <ele>441</ele>
        <time>2022-05-01T09:37:56.084Z</time>
      </trkpt>
      <trkpt lat="45.67845" lon="5.93728">
        <ele>440</ele>
        <time>2022-05-01T09:37:57.084Z</time>
      </trkpt>
      <trkpt lat="45.67849" lon="5.93728">
        <ele>440</ele>
        <time>2022-05-01T09:37:58.084Z</time>
      </trkpt>
      <trkpt lat="45.67853" lon="5.93728">
        <ele>439</ele>
        <time>2022-05-01T09:37:59.083Z</time>
      </trkpt>
      <trkpt lat="45.67858" lon="5.93727">
        <ele>439</ele>
        <time>2022-05-01T09:38:00.084Z</time>
      </trkpt>
      <trkpt lat="45.67862" lon="5.93726">
        <ele>440</ele>
        <time>2022-05-01T09:38:01.084Z</time>
      </trkpt>
      <trkpt lat="45.67867" lon="5.93726">
        <ele>440</ele>
        <time>2022-05-01T09:38:02.083Z</time>
      </trkpt>
      <trkpt lat="45.67871" lon="5.93726">
        <ele>440</ele>
        <time>2022-05-01T09:38:03.083Z</time>
      </trkpt>
      <trkpt lat="45.67876" lon="5.93726">
        <ele>440</ele>
        <time>2022-05-01T09:38:04.084Z</time>
      </trkpt>
      <trkpt lat="45.6788" lon="5.93727">
        <ele>439</ele>
        <time>2022-05-01T09:38:05.084Z</time>
      </trkpt>
      <trkpt lat="45.67885" lon="5.93727">
        <ele>439</ele>
        <time>2022-05-01T09:38:06.084Z</time>
      </trkpt>
      <trkpt lat="45.6789" lon="5.93728">
        <ele>439</ele>
        <time>2022-05-01T09:38:07.084Z</time>
      </trkpt>
      <trkpt lat="45.67894" lon="5.93728">
        <ele>438</ele>
        <time>2022-05-01T09:38:08.084Z</time>
      </trkpt>
      <trkpt lat="45.67898" lon="5.93728">
        <ele>438</ele>
        <time>2022-05-01T09:38:09.084Z</time>
      </trkpt>
      <trkpt lat="45.67903" lon="5.93729">
        <ele>438</ele>
        <time>2022-05-01T09:38:10.084Z</time>
      </trkpt>
      <trkpt lat="45.67908" lon="5.93729">
        <ele>438</ele>
        <time>2022-05-01T09:38:11.084Z</time>
      </trkpt>
      <trkpt lat="45.67912" lon="5.9373">
        <ele>438</ele>
        <time>2022-05-01T09:38:12.084Z</time>
      </trkpt>
      <trkpt lat="45.67917" lon="5.93731">
        <ele>438</ele>
        <time>2022-05-01T09:38:13.084Z</time>
      </trkpt>
      <trkpt lat="45.67922" lon="5.93731">
        <ele>438</ele>
        <time>2022-05-01T09:38:14.083Z</time>
      </trkpt>
      <trkpt lat="45.67927" lon="5.93732">
        <ele>439</ele>
        <time>2022-05-01T09:38:15.083Z</time>
      </trkpt>
      <trkpt lat="45.67932" lon="5.93733">
        <ele>439</ele>
        <time>2022-05-01T09:38:16.083Z</time>
      </trkpt>
      <trkpt lat="45.67937" lon="5.93733">
        <ele>439</ele>
        <time>2022-05-01T09:38:17.084Z</time>
      </trkpt>
      <trkpt lat="45.67942" lon="5.93733">
        <ele>439</ele>
        <time>2022-05-01T09:38:18.084Z</time>
      </trkpt>
      <trkpt lat="45.67947" lon="5.93734">
        <ele>439</ele>
        <time>2022-05-01T09:38:19.084Z</time>
      </trkpt>
      <trkpt lat="45.67952" lon="5.93735">
        <ele>439</ele>
        <time>2022-05-01T09:38:20.084Z</time>
      </trkpt>
      <trkpt lat="45.67957" lon="5.93735">
        <ele>438</ele>
        <time>2022-05-01T09:38:21.083Z</time>
      </trkpt>
      <trkpt lat="45.67962" lon="5.93736">
        <ele>438</ele>
        <time>2022-05-01T09:38:22.084Z</time>
      </trkpt>
      <trkpt lat="45.67967" lon="5.93738">
        <ele>438</ele>
        <time>2022-05-01T09:38:23.084Z</time>
      </trkpt>
      <trkpt lat="45.67972" lon="5.93739">
        <ele>437</ele>
        <time>2022-05-01T09:38:24.084Z</time>
      </trkpt>
      <trkpt lat="45.67977" lon="5.9374">
        <ele>436</ele>
        <time>2022-05-01T09:38:25.083Z</time>
      </trkpt>
      <trkpt lat="45.67983" lon="5.93741">
        <ele>436</ele>
        <time>2022-05-01T09:38:26.083Z</time>
      </trkpt>
      <trkpt lat="45.67988" lon="5.93742">
        <ele>436</ele>
        <time>2022-05-01T09:38:27.084Z</time>
      </trkpt>
      <trkpt lat="45.67994" lon="5.93743">
        <ele>435</ele>
        <time>2022-05-01T09:38:28.084Z</time>
      </trkpt>
      <trkpt lat="45.68" lon="5.93743">
        <ele>435</ele>
        <time>2022-05-01T09:38:29.084Z</time>
      </trkpt>
      <trkpt lat="45.68006" lon="5.93744">
        <ele>435</ele>
        <time>2022-05-01T09:38:30.084Z</time>
      </trkpt>
      <trkpt lat="45.68012" lon="5.93745">
        <ele>435</ele>
        <time>2022-05-01T09:38:31.084Z</time>
      </trkpt>
      <trkpt lat="45.68018" lon="5.93745">
        <ele>435</ele>
        <time>2022-05-01T09:38:32.084Z</time>
      </trkpt>
      <trkpt lat="45.68024" lon="5.93746">
        <ele>436</ele>
        <time>2022-05-01T09:38:33.083Z</time>
      </trkpt>
      <trkpt lat="45.6803" lon="5.93746">
        <ele>436</ele>
        <time>2022-05-01T09:38:34.084Z</time>
      </trkpt>
      <trkpt lat="45.68036" lon="5.93747">
        <ele>436</ele>
        <time>2022-05-01T09:38:35.084Z</time>
      </trkpt>
      <trkpt lat="45.6804" lon="5.93747">
        <ele>436</ele>
        <time>2022-05-01T09:38:36.084Z</time>
      </trkpt>
      <trkpt lat="45.68044" lon="5.93748">
        <ele>436</ele>
        <time>2022-05-01T09:38:37.084Z</time>
      </trkpt>
      <trkpt lat="45.68048" lon="5.93749">
        <ele>436</ele>
        <time>2022-05-01T09:38:38.084Z</time>
      </trkpt>
      <trkpt lat="45.68052" lon="5.93749">
        <ele>435</ele>
        <time>2022-05-01T09:38:39.084Z</time>
      </trkpt>
      <trkpt lat="45.68057" lon="5.93749">
        <ele>435</ele>
        <time>2022-05-01T09:38:40.084Z</time>
      </trkpt>
      <trkpt lat="45.68062" lon="5.9375">
        <ele>435</ele>
        <time>2022-05-01T09:38:41.084Z</time>
      </trkpt>
      <trkpt lat="45.68068" lon="5.9375">
        <ele>434</ele>
        <time>2022-05-01T09:38:42.083Z</time>
      </trkpt>
      <trkpt lat="45.68073" lon="5.93751">
        <ele>434</ele>
        <time>2022-05-01T09:38:43.083Z</time>
      </trkpt>
      <trkpt lat="45.68079" lon="5.93751">
        <ele>434</ele>
        <time>2022-05-01T09:38:44.083Z</time>
      </trkpt>
      <trkpt lat="45.68085" lon="5.93753">
        <ele>433</ele>
        <time>2022-05-01T09:38:45.084Z</time>
      </trkpt>
      <trkpt lat="45.68092" lon="5.93754">
        <ele>433</ele>
        <time>2022-05-01T09:38:46.084Z</time>
      </trkpt>
      <trkpt lat="45.68098" lon="5.93755">
        <ele>433</ele>
        <time>2022-05-01T09:38:47.084Z</time>
      </trkpt>
      <trkpt lat="45.68105" lon="5.93757">
        <ele>433</ele>
        <time>2022-05-01T09:38:48.084Z</time>
      </trkpt>
      <trkpt lat="45.68112" lon="5.93758">
        <ele>433</ele>
        <time>2022-05-01T09:38:49.084Z</time>
      </trkpt>
      <trkpt lat="45.68117" lon="5.93759">
        <ele>433</ele>
        <time>2022-05-01T09:38:50.084Z</time>
      </trkpt>
      <trkpt lat="45.68126" lon="5.93761">
        <ele>432</ele>
        <time>2022-05-01T09:38:51.083Z</time>
      </trkpt>
      <trkpt lat="45.68132" lon="5.93762">
        <ele>432</ele>
        <time>2022-05-01T09:38:52.084Z</time>
      </trkpt>
      <trkpt lat="45.68139" lon="5.93764">
        <ele>431</ele>
        <time>2022-05-01T09:38:53.083Z</time>
      </trkpt>
      <trkpt lat="45.68146" lon="5.93765">
        <ele>431</ele>
        <time>2022-05-01T09:38:54.084Z</time>
      </trkpt>
      <trkpt lat="45.68153" lon="5.93766">
        <ele>431</ele>
        <time>2022-05-01T09:38:55.083Z</time>
      </trkpt>
      <trkpt lat="45.6816" lon="5.93768">
        <ele>431</ele>
        <time>2022-05-01T09:38:56.083Z</time>
      </trkpt>
      <trkpt lat="45.68169" lon="5.93769">
        <ele>430</ele>
        <time>2022-05-01T09:38:57.084Z</time>
      </trkpt>
      <trkpt lat="45.68176" lon="5.93771">
        <ele>430</ele>
        <time>2022-05-01T09:38:58.084Z</time>
      </trkpt>
      <trkpt lat="45.68183" lon="5.93771">
        <ele>429</ele>
        <time>2022-05-01T09:38:59.083Z</time>
      </trkpt>
      <trkpt lat="45.68189" lon="5.93772">
        <ele>429</ele>
        <time>2022-05-01T09:39:00.084Z</time>
      </trkpt>
      <trkpt lat="45.68195" lon="5.93773">
        <ele>428</ele>
        <time>2022-05-01T09:39:01.084Z</time>
      </trkpt>
      <trkpt lat="45.682" lon="5.93773">
        <ele>428</ele>
        <time>2022-05-01T09:39:02.084Z</time>
      </trkpt>
      <trkpt lat="45.68204" lon="5.93773">
        <ele>428</ele>
        <time>2022-05-01T09:39:03.084Z</time>
      </trkpt>
      <trkpt lat="45.68209" lon="5.93774">
        <ele>427</ele>
        <time>2022-05-01T09:39:04.084Z</time>
      </trkpt>
      <trkpt lat="45.68214" lon="5.93775">
        <ele>427</ele>
        <time>2022-05-01T09:39:05.083Z</time>
      </trkpt>
      <trkpt lat="45.6822" lon="5.93777">
        <ele>426</ele>
        <time>2022-05-01T09:39:06.083Z</time>
      </trkpt>
      <trkpt lat="45.68225" lon="5.93779">
        <ele>426</ele>
        <time>2022-05-01T09:39:07.084Z</time>
      </trkpt>
      <trkpt lat="45.68231" lon="5.93781">
        <ele>426</ele>
        <time>2022-05-01T09:39:08.084Z</time>
      </trkpt>
      <trkpt lat="45.68237" lon="5.93783">
        <ele>425</ele>
        <time>2022-05-01T09:39:09.084Z</time>
      </trkpt>
      <trkpt lat="45.68243" lon="5.93785">
        <ele>425</ele>
        <time>2022-05-01T09:39:10.083Z</time>
      </trkpt>
      <trkpt lat="45.68249" lon="5.93787">
        <ele>424</ele>
        <time>2022-05-01T09:39:11.084Z</time>
      </trkpt>
      <trkpt lat="45.68256" lon="5.93789">
        <ele>424</ele>
        <time>2022-05-01T09:39:12.084Z</time>
      </trkpt>
      <trkpt lat="45.68263" lon="5.93791">
        <ele>424</ele>
        <time>2022-05-01T09:39:13.083Z</time>
      </trkpt>
      <trkpt lat="45.6827" lon="5.93793">
        <ele>424</ele>
        <time>2022-05-01T09:39:14.083Z</time>
      </trkpt>
      <trkpt lat="45.68277" lon="5.93795">
        <ele>423</ele>
        <time>2022-05-01T09:39:15.083Z</time>
      </trkpt>
      <trkpt lat="45.68285" lon="5.93798">
        <ele>423</ele>
        <time>2022-05-01T09:39:16.084Z</time>
      </trkpt>
      <trkpt lat="45.68293" lon="5.93801">
        <ele>423</ele>
        <time>2022-05-01T09:39:17.083Z</time>
      </trkpt>
      <trkpt lat="45.683" lon="5.93804">
        <ele>423</ele>
        <time>2022-05-01T09:39:18.084Z</time>
      </trkpt>
      <trkpt lat="45.68307" lon="5.93806">
        <ele>422</ele>
        <time>2022-05-01T09:39:19.084Z</time>
      </trkpt>
      <trkpt lat="45.68315" lon="5.93809">
        <ele>422</ele>
        <time>2022-05-01T09:39:20.084Z</time>
      </trkpt>
      <trkpt lat="45.68322" lon="5.93811">
        <ele>422</ele>
        <time>2022-05-01T09:39:21.084Z</time>
      </trkpt>
      <trkpt lat="45.68329" lon="5.93812">
        <ele>421</ele>
        <time>2022-05-01T09:39:22.084Z</time>
      </trkpt>
      <trkpt lat="45.68336" lon="5.93814">
        <ele>421</ele>
        <time>2022-05-01T09:39:23.084Z</time>
      </trkpt>
      <trkpt lat="45.68342" lon="5.93815">
        <ele>421</ele>
        <time>2022-05-01T09:39:24.084Z</time>
      </trkpt>
      <trkpt lat="45.68348" lon="5.93817">
        <ele>421</ele>
        <time>2022-05-01T09:39:25.084Z</time>
      </trkpt>
      <trkpt lat="45.68354" lon="5.93818">
        <ele>421</ele>
        <time>2022-05-01T09:39:26.084Z</time>
      </trkpt>
      <trkpt lat="45.6836" lon="5.93818">
        <ele>422</ele>
        <time>2022-05-01T09:39:27.083Z</time>
      </trkpt>
      <trkpt lat="45.68365" lon="5.93819">
        <ele>422</ele>
        <time>2022-05-01T09:39:28.083Z</time>
      </trkpt>
      <trkpt lat="45.68371" lon="5.9382">
        <ele>422</ele>
        <time>2022-05-01T09:39:29.084Z</time>
      </trkpt>
      <trkpt lat="45.68376" lon="5.93821">
        <ele>422</ele>
        <time>2022-05-01T09:39:30.084Z</time>
      </trkpt>
      <trkpt lat="45.68381" lon="5.93823">
        <ele>422</ele>
        <time>2022-05-01T09:39:31.083Z</time>
      </trkpt>
      <trkpt lat="45.68386" lon="5.93824">
        <ele>422</ele>
        <time>2022-05-01T09:39:32.083Z</time>
      </trkpt>
      <trkpt lat="45.68391" lon="5.93825">
        <ele>422</ele>
        <time>2022-05-01T09:39:33.084Z</time>
      </trkpt>
      <trkpt lat="45.68396" lon="5.93826">
        <ele>422</ele>
        <time>2022-05-01T09:39:34.083Z</time>
      </trkpt>
      <trkpt lat="45.68401" lon="5.93827">
        <ele>422</ele>
        <time>2022-05-01T09:39:35.084Z</time>
      </trkpt>
      <trkpt lat="45.68406" lon="5.93828">
        <ele>421</ele>
        <time>2022-05-01T09:39:36.084Z</time>
      </trkpt>
      <trkpt lat="45.68411" lon="5.93829">
        <ele>421</ele>
        <time>2022-05-01T09:39:37.084Z</time>
      </trkpt>
      <trkpt lat="45.68415" lon="5.9383">
        <ele>421</ele>
        <time>2022-05-01T09:39:38.084Z</time>
      </trkpt>
      <trkpt lat="45.6842" lon="5.9383">
        <ele>421</ele>
        <time>2022-05-01T09:39:39.084Z</time>
      </trkpt>
      <trkpt lat="45.68424" lon="5.93831">
        <ele>421</ele>
        <time>2022-05-01T09:39:40.084Z</time>
      </trkpt>
      <trkpt lat="45.68428" lon="5.93832">
        <ele>421</ele>
        <time>2022-05-01T09:39:41.084Z</time>
      </trkpt>
      <trkpt lat="45.68433" lon="5.93832">
        <ele>421</ele>
        <time>2022-05-01T09:39:42.084Z</time>
      </trkpt>
      <trkpt lat="45.68437" lon="5.93833">
        <ele>421</ele>
        <time>2022-05-01T09:39:43.084Z</time>
      </trkpt>
      <trkpt lat="45.68442" lon="5.93834">
        <ele>421</ele>
        <time>2022-05-01T09:39:44.084Z</time>
      </trkpt>
      <trkpt lat="45.68447" lon="5.93834">
        <ele>421</ele>
        <time>2022-05-01T09:39:45.084Z</time>
      </trkpt>
      <trkpt lat="45.68451" lon="5.93835">
        <ele>421</ele>
        <time>2022-05-01T09:39:46.083Z</time>
      </trkpt>
      <trkpt lat="45.68455" lon="5.93836">
        <ele>421</ele>
        <time>2022-05-01T09:39:47.084Z</time>
      </trkpt>
      <trkpt lat="45.68459" lon="5.93837">
        <ele>421</ele>
        <time>2022-05-01T09:39:48.084Z</time>
      </trkpt>
      <trkpt lat="45.68463" lon="5.93838">
        <ele>421</ele>
        <time>2022-05-01T09:39:49.084Z</time>
      </trkpt>
      <trkpt lat="45.68468" lon="5.93839">
        <ele>421</ele>
        <time>2022-05-01T09:39:50.084Z</time>
      </trkpt>
      <trkpt lat="45.68472" lon="5.9384">
        <ele>421</ele>
        <time>2022-05-01T09:39:51.084Z</time>
      </trkpt>
      <trkpt lat="45.68475" lon="5.93841">
        <ele>421</ele>
        <time>2022-05-01T09:39:52.084Z</time>
      </trkpt>
      <trkpt lat="45.68479" lon="5.93841">
        <ele>421</ele>
        <time>2022-05-01T09:39:53.084Z</time>
      </trkpt>
      <trkpt lat="45.68484" lon="5.93842">
        <ele>421</ele>
        <time>2022-05-01T09:39:54.084Z</time>
      </trkpt>
      <trkpt lat="45.68487" lon="5.93844">
        <ele>421</ele>
        <time>2022-05-01T09:39:55.084Z</time>
      </trkpt>
      <trkpt lat="45.68491" lon="5.93844">
        <ele>421</ele>
        <time>2022-05-01T09:39:56.084Z</time>
      </trkpt>
      <trkpt lat="45.68494" lon="5.93845">
        <ele>421</ele>
        <time>2022-05-01T09:39:57.084Z</time>
      </trkpt>
      <trkpt lat="45.68499" lon="5.93846">
        <ele>422</ele>
        <time>2022-05-01T09:39:58.084Z</time>
      </trkpt>
      <trkpt lat="45.68502" lon="5.93847">
        <ele>422</ele>
        <time>2022-05-01T09:39:59.084Z</time>
      </trkpt>
      <trkpt lat="45.68506" lon="5.93848">
        <ele>422</ele>
        <time>2022-05-01T09:40:00.084Z</time>
      </trkpt>
      <trkpt lat="45.6851" lon="5.93848">
        <ele>422</ele>
        <time>2022-05-01T09:40:01.084Z</time>
      </trkpt>
      <trkpt lat="45.68514" lon="5.93849">
        <ele>422</ele>
        <time>2022-05-01T09:40:02.084Z</time>
      </trkpt>
      <trkpt lat="45.68518" lon="5.9385">
        <ele>422</ele>
        <time>2022-05-01T09:40:03.083Z</time>
      </trkpt>
      <trkpt lat="45.68522" lon="5.93851">
        <ele>423</ele>
        <time>2022-05-01T09:40:04.084Z</time>
      </trkpt>
      <trkpt lat="45.68525" lon="5.93851">
        <ele>423</ele>
        <time>2022-05-01T09:40:05.084Z</time>
      </trkpt>
      <trkpt lat="45.68529" lon="5.93852">
        <ele>423</ele>
        <time>2022-05-01T09:40:06.084Z</time>
      </trkpt>
      <trkpt lat="45.68533" lon="5.93852">
        <ele>423</ele>
        <time>2022-05-01T09:40:07.084Z</time>
      </trkpt>
      <trkpt lat="45.68537" lon="5.93853">
        <ele>423</ele>
        <time>2022-05-01T09:40:08.083Z</time>
      </trkpt>
      <trkpt lat="45.68541" lon="5.93854">
        <ele>424</ele>
        <time>2022-05-01T09:40:09.084Z</time>
      </trkpt>
      <trkpt lat="45.68544" lon="5.93854">
        <ele>424</ele>
        <time>2022-05-01T09:40:10.084Z</time>
      </trkpt>
      <trkpt lat="45.68548" lon="5.93855">
        <ele>424</ele>
        <time>2022-05-01T09:40:11.084Z</time>
      </trkpt>
      <trkpt lat="45.68552" lon="5.93856">
        <ele>425</ele>
        <time>2022-05-01T09:40:12.084Z</time>
      </trkpt>
      <trkpt lat="45.68555" lon="5.93857">
        <ele>425</ele>
        <time>2022-05-01T09:40:13.084Z</time>
      </trkpt>
      <trkpt lat="45.68559" lon="5.93858">
        <ele>425</ele>
        <time>2022-05-01T09:40:14.084Z</time>
      </trkpt>
      <trkpt lat="45.68562" lon="5.93858">
        <ele>425</ele>
        <time>2022-05-01T09:40:15.083Z</time>
      </trkpt>
      <trkpt lat="45.68565" lon="5.93859">
        <ele>425</ele>
        <time>2022-05-01T09:40:16.084Z</time>
      </trkpt>
      <trkpt lat="45.68569" lon="5.9386">
        <ele>425</ele>
        <time>2022-05-01T09:40:17.084Z</time>
      </trkpt>
      <trkpt lat="45.68572" lon="5.9386">
        <ele>425</ele>
        <time>2022-05-01T09:40:18.084Z</time>
      </trkpt>
      <trkpt lat="45.68575" lon="5.93861">
        <ele>425</ele>
        <time>2022-05-01T09:40:19.084Z</time>
      </trkpt>
      <trkpt lat="45.68578" lon="5.93861">
        <ele>425</ele>
        <time>2022-05-01T09:40:20.084Z</time>
      </trkpt>
      <trkpt lat="45.68581" lon="5.93862">
        <ele>426</ele>
        <time>2022-05-01T09:40:21.084Z</time>
      </trkpt>
      <trkpt lat="45.68584" lon="5.93863">
        <ele>426</ele>
        <time>2022-05-01T09:40:22.084Z</time>
      </trkpt>
      <trkpt lat="45.68586" lon="5.93863">
        <ele>425</ele>
        <time>2022-05-01T09:40:23.084Z</time>
      </trkpt>
      <trkpt lat="45.68589" lon="5.93864">
        <ele>425</ele>
        <time>2022-05-01T09:40:24.084Z</time>
      </trkpt>
      <trkpt lat="45.68592" lon="5.93865">
        <ele>425</ele>
        <time>2022-05-01T09:40:25.084Z</time>
      </trkpt>
      <trkpt lat="45.68595" lon="5.93865">
        <ele>425</ele>
        <time>2022-05-01T09:40:26.084Z</time>
      </trkpt>
      <trkpt lat="45.68598" lon="5.93866">
        <ele>425</ele>
        <time>2022-05-01T09:40:27.084Z</time>
      </trkpt>
      <trkpt lat="45.68601" lon="5.93866">
        <ele>426</ele>
        <time>2022-05-01T09:40:28.084Z</time>
      </trkpt>
      <trkpt lat="45.68603" lon="5.93867">
        <ele>426</ele>
        <time>2022-05-01T09:40:29.084Z</time>
      </trkpt>
      <trkpt lat="45.68606" lon="5.93867">
        <ele>426</ele>
        <time>2022-05-01T09:40:30.084Z</time>
      </trkpt>
      <trkpt lat="45.68609" lon="5.93868">
        <ele>426</ele>
        <time>2022-05-01T09:40:31.084Z</time>
      </trkpt>
      <trkpt lat="45.68612" lon="5.93868">
        <ele>427</ele>
        <time>2022-05-01T09:40:32.084Z</time>
      </trkpt>
      <trkpt lat="45.68614" lon="5.93868">
        <ele>428</ele>
        <time>2022-05-01T09:40:33.084Z</time>
      </trkpt>
      <trkpt lat="45.68617" lon="5.93869">
        <ele>428</ele>
        <time>2022-05-01T09:40:34.083Z</time>
      </trkpt>
      <trkpt lat="45.6862" lon="5.93869">
        <ele>428</ele>
        <time>2022-05-01T09:40:35.083Z</time>
      </trkpt>
      <trkpt lat="45.68623" lon="5.9387">
        <ele>428</ele>
        <time>2022-05-01T09:40:36.083Z</time>
      </trkpt>
      <trkpt lat="45.68626" lon="5.9387">
        <ele>428</ele>
        <time>2022-05-01T09:40:37.084Z</time>
      </trkpt>
      <trkpt lat="45.68629" lon="5.93871">
        <ele>429</ele>
        <time>2022-05-01T09:40:38.084Z</time>
      </trkpt>
      <trkpt lat="45.68632" lon="5.93871">
        <ele>429</ele>
        <time>2022-05-01T09:40:39.084Z</time>
      </trkpt>
      <trkpt lat="45.68635" lon="5.93872">
        <ele>429</ele>
        <time>2022-05-01T09:40:40.084Z</time>
      </trkpt>
      <trkpt lat="45.68638" lon="5.93872">
        <ele>429</ele>
        <time>2022-05-01T09:40:41.084Z</time>
      </trkpt>
      <trkpt lat="45.68641" lon="5.93873">
        <ele>429</ele>
        <time>2022-05-01T09:40:42.084Z</time>
      </trkpt>
      <trkpt lat="45.68644" lon="5.93873">
        <ele>430</ele>
        <time>2022-05-01T09:40:43.084Z</time>
      </trkpt>
      <trkpt lat="45.68647" lon="5.93874">
        <ele>430</ele>
        <time>2022-05-01T09:40:44.084Z</time>
      </trkpt>
      <trkpt lat="45.6865" lon="5.93875">
        <ele>430</ele>
        <time>2022-05-01T09:40:45.084Z</time>
      </trkpt>
      <trkpt lat="45.68653" lon="5.93876">
        <ele>430</ele>
        <time>2022-05-01T09:40:46.084Z</time>
      </trkpt>
      <trkpt lat="45.68656" lon="5.93876">
        <ele>430</ele>
        <time>2022-05-01T09:40:47.084Z</time>
      </trkpt>
      <trkpt lat="45.68659" lon="5.93877">
        <ele>430</ele>
        <time>2022-05-01T09:40:48.083Z</time>
      </trkpt>
      <trkpt lat="45.68662" lon="5.93877">
        <ele>430</ele>
        <time>2022-05-01T09:40:49.084Z</time>
      </trkpt>
      <trkpt lat="45.68665" lon="5.93878">
        <ele>430</ele>
        <time>2022-05-01T09:40:50.083Z</time>
      </trkpt>
      <trkpt lat="45.68668" lon="5.93878">
        <ele>431</ele>
        <time>2022-05-01T09:40:51.084Z</time>
      </trkpt>
      <trkpt lat="45.68671" lon="5.93879">
        <ele>431</ele>
        <time>2022-05-01T09:40:52.084Z</time>
      </trkpt>
      <trkpt lat="45.68674" lon="5.9388">
        <ele>431</ele>
        <time>2022-05-01T09:40:53.084Z</time>
      </trkpt>
      <trkpt lat="45.68677" lon="5.9388">
        <ele>431</ele>
        <time>2022-05-01T09:40:54.084Z</time>
      </trkpt>
      <trkpt lat="45.6868" lon="5.93881">
        <ele>431</ele>
        <time>2022-05-01T09:40:55.084Z</time>
      </trkpt>
      <trkpt lat="45.68683" lon="5.93882">
        <ele>430</ele>
        <time>2022-05-01T09:40:56.084Z</time>
      </trkpt>
      <trkpt lat="45.68686" lon="5.93882">
        <ele>430</ele>
        <time>2022-05-01T09:40:57.083Z</time>
      </trkpt>
      <trkpt lat="45.6869" lon="5.93883">
        <ele>431</ele>
        <time>2022-05-01T09:40:58.083Z</time>
      </trkpt>
      <trkpt lat="45.68692" lon="5.93883">
        <ele>431</ele>
        <time>2022-05-01T09:40:59.084Z</time>
      </trkpt>
      <trkpt lat="45.68696" lon="5.93884">
        <ele>431</ele>
        <time>2022-05-01T09:41:00.083Z</time>
      </trkpt>
      <trkpt lat="45.68699" lon="5.93885">
        <ele>432</ele>
        <time>2022-05-01T09:41:01.084Z</time>
      </trkpt>
      <trkpt lat="45.68702" lon="5.93885">
        <ele>432</ele>
        <time>2022-05-01T09:41:02.083Z</time>
      </trkpt>
      <trkpt lat="45.68705" lon="5.93886">
        <ele>432</ele>
        <time>2022-05-01T09:41:03.084Z</time>
      </trkpt>
      <trkpt lat="45.68708" lon="5.93886">
        <ele>433</ele>
        <time>2022-05-01T09:41:04.084Z</time>
      </trkpt>
      <trkpt lat="45.68711" lon="5.93886">
        <ele>433</ele>
        <time>2022-05-01T09:41:05.084Z</time>
      </trkpt>
      <trkpt lat="45.68714" lon="5.93887">
        <ele>433</ele>
        <time>2022-05-01T09:41:06.083Z</time>
      </trkpt>
      <trkpt lat="45.68717" lon="5.93888">
        <ele>433</ele>
        <time>2022-05-01T09:41:07.084Z</time>
      </trkpt>
      <trkpt lat="45.6872" lon="5.93888">
        <ele>433</ele>
        <time>2022-05-01T09:41:08.084Z</time>
      </trkpt>
      <trkpt lat="45.68723" lon="5.93889">
        <ele>433</ele>
        <time>2022-05-01T09:41:09.084Z</time>
      </trkpt>
      <trkpt lat="45.68726" lon="5.9389">
        <ele>434</ele>
        <time>2022-05-01T09:41:10.084Z</time>
      </trkpt>
      <trkpt lat="45.6873" lon="5.9389">
        <ele>434</ele>
        <time>2022-05-01T09:41:11.084Z</time>
      </trkpt>
      <trkpt lat="45.68733" lon="5.93891">
        <ele>434</ele>
        <time>2022-05-01T09:41:12.084Z</time>
      </trkpt>
      <trkpt lat="45.68736" lon="5.93891">
        <ele>434</ele>
        <time>2022-05-01T09:41:13.084Z</time>
      </trkpt>
      <trkpt lat="45.68739" lon="5.93892">
        <ele>434</ele>
        <time>2022-05-01T09:41:14.083Z</time>
      </trkpt>
      <trkpt lat="45.68742" lon="5.93892">
        <ele>434</ele>
        <time>2022-05-01T09:41:15.084Z</time>
      </trkpt>
      <trkpt lat="45.68745" lon="5.93893">
        <ele>434</ele>
        <time>2022-05-01T09:41:16.084Z</time>
      </trkpt>
      <trkpt lat="45.68748" lon="5.93893">
        <ele>434</ele>
        <time>2022-05-01T09:41:17.084Z</time>
      </trkpt>
      <trkpt lat="45.68751" lon="5.93894">
        <ele>434</ele>
        <time>2022-05-01T09:41:18.084Z</time>
      </trkpt>
      <trkpt lat="45.68754" lon="5.93894">
        <ele>434</ele>
        <time>2022-05-01T09:41:19.083Z</time>
      </trkpt>
      <trkpt lat="45.68758" lon="5.93895">
        <ele>435</ele>
        <time>2022-05-01T09:41:20.083Z</time>
      </trkpt>
      <trkpt lat="45.68761" lon="5.93895">
        <ele>435</ele>
        <time>2022-05-01T09:41:21.084Z</time>
      </trkpt>
      <trkpt lat="45.68764" lon="5.93896">
        <ele>434</ele>
        <time>2022-05-01T09:41:22.084Z</time>
      </trkpt>
      <trkpt lat="45.68767" lon="5.93897">
        <ele>434</ele>
        <time>2022-05-01T09:41:23.084Z</time>
      </trkpt>
      <trkpt lat="45.6877" lon="5.93898">
        <ele>434</ele>
        <time>2022-05-01T09:41:24.084Z</time>
      </trkpt>
      <trkpt lat="45.68773" lon="5.93899">
        <ele>434</ele>
        <time>2022-05-01T09:41:25.084Z</time>
      </trkpt>
      <trkpt lat="45.68777" lon="5.93899">
        <ele>434</ele>
        <time>2022-05-01T09:41:26.084Z</time>
      </trkpt>
      <trkpt lat="45.6878" lon="5.939">
        <ele>434</ele>
        <time>2022-05-01T09:41:27.083Z</time>
      </trkpt>
      <trkpt lat="45.68783" lon="5.93901">
        <ele>434</ele>
        <time>2022-05-01T09:41:28.084Z</time>
      </trkpt>
      <trkpt lat="45.68787" lon="5.93901">
        <ele>434</ele>
        <time>2022-05-01T09:41:29.083Z</time>
      </trkpt>
      <trkpt lat="45.6879" lon="5.93902">
        <ele>435</ele>
        <time>2022-05-01T09:41:30.084Z</time>
      </trkpt>
      <trkpt lat="45.68793" lon="5.93902">
        <ele>435</ele>
        <time>2022-05-01T09:41:31.084Z</time>
      </trkpt>
      <trkpt lat="45.68797" lon="5.93903">
        <ele>435</ele>
        <time>2022-05-01T09:41:32.084Z</time>
      </trkpt>
      <trkpt lat="45.688" lon="5.93904">
        <ele>435</ele>
        <time>2022-05-01T09:41:33.084Z</time>
      </trkpt>
      <trkpt lat="45.68804" lon="5.93904">
        <ele>435</ele>
        <time>2022-05-01T09:41:34.084Z</time>
      </trkpt>
      <trkpt lat="45.68807" lon="5.93904">
        <ele>435</ele>
        <time>2022-05-01T09:41:35.084Z</time>
      </trkpt>
      <trkpt lat="45.68811" lon="5.93905">
        <ele>436</ele>
        <time>2022-05-01T09:41:36.084Z</time>
      </trkpt>
      <trkpt lat="45.68814" lon="5.93906">
        <ele>436</ele>
        <time>2022-05-01T09:41:37.084Z</time>
      </trkpt>
      <trkpt lat="45.68818" lon="5.93906">
        <ele>436</ele>
        <time>2022-05-01T09:41:38.084Z</time>
      </trkpt>
      <trkpt lat="45.68821" lon="5.93907">
        <ele>437</ele>
        <time>2022-05-01T09:41:39.084Z</time>
      </trkpt>
      <trkpt lat="45.68824" lon="5.93908">
        <ele>437</ele>
        <time>2022-05-01T09:41:40.084Z</time>
      </trkpt>
      <trkpt lat="45.68827" lon="5.93908">
        <ele>437</ele>
        <time>2022-05-01T09:41:41.084Z</time>
      </trkpt>
      <trkpt lat="45.68831" lon="5.93909">
        <ele>437</ele>
        <time>2022-05-01T09:41:42.084Z</time>
      </trkpt>
      <trkpt lat="45.68834" lon="5.9391">
        <ele>437</ele>
        <time>2022-05-01T09:41:43.084Z</time>
      </trkpt>
      <trkpt lat="45.68838" lon="5.9391">
        <ele>437</ele>
        <time>2022-05-01T09:41:44.084Z</time>
      </trkpt>
      <trkpt lat="45.68841" lon="5.93911">
        <ele>437</ele>
        <time>2022-05-01T09:41:45.083Z</time>
      </trkpt>
      <trkpt lat="45.68844" lon="5.93912">
        <ele>437</ele>
        <time>2022-05-01T09:41:46.083Z</time>
      </trkpt>
      <trkpt lat="45.68848" lon="5.93912">
        <ele>437</ele>
        <time>2022-05-01T09:41:47.084Z</time>
      </trkpt>
      <trkpt lat="45.68851" lon="5.93913">
        <ele>438</ele>
        <time>2022-05-01T09:41:48.084Z</time>
      </trkpt>
      <trkpt lat="45.68855" lon="5.93913">
        <ele>438</ele>
        <time>2022-05-01T09:41:49.084Z</time>
      </trkpt>
      <trkpt lat="45.68858" lon="5.93914">
        <ele>438</ele>
        <time>2022-05-01T09:41:50.083Z</time>
      </trkpt>
      <trkpt lat="45.68862" lon="5.93915">
        <ele>438</ele>
        <time>2022-05-01T09:41:51.084Z</time>
      </trkpt>
      <trkpt lat="45.68865" lon="5.93915">
        <ele>438</ele>
        <time>2022-05-01T09:41:52.084Z</time>
      </trkpt>
      <trkpt lat="45.68867" lon="5.93916">
        <ele>437</ele>
        <time>2022-05-01T09:41:53.084Z</time>
      </trkpt>
      <trkpt lat="45.68871" lon="5.93916">
        <ele>437</ele>
        <time>2022-05-01T09:41:54.083Z</time>
      </trkpt>
      <trkpt lat="45.68875" lon="5.93917">
        <ele>437</ele>
        <time>2022-05-01T09:41:55.084Z</time>
      </trkpt>
      <trkpt lat="45.68878" lon="5.93918">
        <ele>438</ele>
        <time>2022-05-01T09:41:56.084Z</time>
      </trkpt>
      <trkpt lat="45.68881" lon="5.93919">
        <ele>438</ele>
        <time>2022-05-01T09:41:57.083Z</time>
      </trkpt>
      <trkpt lat="45.68884" lon="5.93919">
        <ele>438</ele>
        <time>2022-05-01T09:41:58.084Z</time>
      </trkpt>
      <trkpt lat="45.68888" lon="5.9392">
        <ele>438</ele>
        <time>2022-05-01T09:41:59.083Z</time>
      </trkpt>
      <trkpt lat="45.68892" lon="5.93921">
        <ele>438</ele>
        <time>2022-05-01T09:42:00.083Z</time>
      </trkpt>
      <trkpt lat="45.68895" lon="5.93921">
        <ele>438</ele>
        <time>2022-05-01T09:42:01.083Z</time>
      </trkpt>
      <trkpt lat="45.68899" lon="5.93922">
        <ele>438</ele>
        <time>2022-05-01T09:42:02.083Z</time>
      </trkpt>
      <trkpt lat="45.68902" lon="5.93922">
        <ele>439</ele>
        <time>2022-05-01T09:42:03.083Z</time>
      </trkpt>
      <trkpt lat="45.68905" lon="5.93923">
        <ele>439</ele>
        <time>2022-05-01T09:42:04.084Z</time>
      </trkpt>
      <trkpt lat="45.68909" lon="5.93923">
        <ele>439</ele>
        <time>2022-05-01T09:42:05.084Z</time>
      </trkpt>
      <trkpt lat="45.68912" lon="5.93923">
        <ele>440</ele>
        <time>2022-05-01T09:42:06.084Z</time>
      </trkpt>
      <trkpt lat="45.68915" lon="5.93924">
        <ele>441</ele>
        <time>2022-05-01T09:42:07.084Z</time>
      </trkpt>
      <trkpt lat="45.68918" lon="5.93924">
        <ele>441</ele>
        <time>2022-05-01T09:42:08.084Z</time>
      </trkpt>
      <trkpt lat="45.68922" lon="5.93925">
        <ele>441</ele>
        <time>2022-05-01T09:42:09.084Z</time>
      </trkpt>
      <trkpt lat="45.68925" lon="5.93925">
        <ele>442</ele>
        <time>2022-05-01T09:42:10.084Z</time>
      </trkpt>
      <trkpt lat="45.68928" lon="5.93926">
        <ele>442</ele>
        <time>2022-05-01T09:42:11.084Z</time>
      </trkpt>
      <trkpt lat="45.68931" lon="5.93926">
        <ele>442</ele>
        <time>2022-05-01T09:42:12.084Z</time>
      </trkpt>
      <trkpt lat="45.68934" lon="5.93927">
        <ele>443</ele>
        <time>2022-05-01T09:42:13.084Z</time>
      </trkpt>
      <trkpt lat="45.68938" lon="5.93927">
        <ele>443</ele>
        <time>2022-05-01T09:42:14.084Z</time>
      </trkpt>
      <trkpt lat="45.68941" lon="5.93928">
        <ele>443</ele>
        <time>2022-05-01T09:42:15.084Z</time>
      </trkpt>
      <trkpt lat="45.68944" lon="5.93929">
        <ele>443</ele>
        <time>2022-05-01T09:42:16.084Z</time>
      </trkpt>
      <trkpt lat="45.68947" lon="5.9393">
        <ele>443</ele>
        <time>2022-05-01T09:42:17.084Z</time>
      </trkpt>
      <trkpt lat="45.6895" lon="5.93931">
        <ele>443</ele>
        <time>2022-05-01T09:42:18.084Z</time>
      </trkpt>
      <trkpt lat="45.68954" lon="5.93932">
        <ele>443</ele>
        <time>2022-05-01T09:42:19.084Z</time>
      </trkpt>
      <trkpt lat="45.68957" lon="5.93932">
        <ele>443</ele>
        <time>2022-05-01T09:42:20.084Z</time>
      </trkpt>
      <trkpt lat="45.6896" lon="5.93933">
        <ele>443</ele>
        <time>2022-05-01T09:42:21.083Z</time>
      </trkpt>
      <trkpt lat="45.68964" lon="5.93934">
        <ele>443</ele>
        <time>2022-05-01T09:42:22.084Z</time>
      </trkpt>
      <trkpt lat="45.68967" lon="5.93935">
        <ele>442</ele>
        <time>2022-05-01T09:42:23.084Z</time>
      </trkpt>
      <trkpt lat="45.6897" lon="5.93935">
        <ele>442</ele>
        <time>2022-05-01T09:42:24.084Z</time>
      </trkpt>
      <trkpt lat="45.68973" lon="5.93936">
        <ele>442</ele>
        <time>2022-05-01T09:42:25.084Z</time>
      </trkpt>
      <trkpt lat="45.68977" lon="5.93936">
        <ele>442</ele>
        <time>2022-05-01T09:42:26.084Z</time>
      </trkpt>
      <trkpt lat="45.6898" lon="5.93937">
        <ele>443</ele>
        <time>2022-05-01T09:42:27.084Z</time>
      </trkpt>
      <trkpt lat="45.68983" lon="5.93938">
        <ele>442</ele>
        <time>2022-05-01T09:42:28.083Z</time>
      </trkpt>
      <trkpt lat="45.68987" lon="5.93939">
        <ele>442</ele>
        <time>2022-05-01T09:42:29.084Z</time>
      </trkpt>
      <trkpt lat="45.6899" lon="5.9394">
        <ele>442</ele>
        <time>2022-05-01T09:42:30.084Z</time>
      </trkpt>
      <trkpt lat="45.68993" lon="5.93941">
        <ele>442</ele>
        <time>2022-05-01T09:42:31.083Z</time>
      </trkpt>
      <trkpt lat="45.68996" lon="5.93941">
        <ele>442</ele>
        <time>2022-05-01T09:42:32.084Z</time>
      </trkpt>
      <trkpt lat="45.68999" lon="5.93942">
        <ele>442</ele>
        <time>2022-05-01T09:42:33.084Z</time>
      </trkpt>
      <trkpt lat="45.69002" lon="5.93943">
        <ele>441</ele>
        <time>2022-05-01T09:42:34.083Z</time>
      </trkpt>
      <trkpt lat="45.69005" lon="5.93944">
        <ele>441</ele>
        <time>2022-05-01T09:42:35.084Z</time>
      </trkpt>
      <trkpt lat="45.69008" lon="5.93945">
        <ele>441</ele>
        <time>2022-05-01T09:42:36.083Z</time>
      </trkpt>
      <trkpt lat="45.69012" lon="5.93945">
        <ele>441</ele>
        <time>2022-05-01T09:42:37.084Z</time>
      </trkpt>
      <trkpt lat="45.69015" lon="5.93946">
        <ele>441</ele>
        <time>2022-05-01T09:42:38.084Z</time>
      </trkpt>
      <trkpt lat="45.69018" lon="5.93947">
        <ele>441</ele>
        <time>2022-05-01T09:42:39.083Z</time>
      </trkpt>
      <trkpt lat="45.69022" lon="5.93947">
        <ele>440</ele>
        <time>2022-05-01T09:42:40.083Z</time>
      </trkpt>
      <trkpt lat="45.69025" lon="5.93948">
        <ele>440</ele>
        <time>2022-05-01T09:42:41.084Z</time>
      </trkpt>
      <trkpt lat="45.69027" lon="5.93948">
        <ele>440</ele>
        <time>2022-05-01T09:42:42.084Z</time>
      </trkpt>
      <trkpt lat="45.69031" lon="5.93949">
        <ele>440</ele>
        <time>2022-05-01T09:42:43.084Z</time>
      </trkpt>
      <trkpt lat="45.69034" lon="5.93949">
        <ele>440</ele>
        <time>2022-05-01T09:42:44.084Z</time>
      </trkpt>
      <trkpt lat="45.69037" lon="5.9395">
        <ele>441</ele>
        <time>2022-05-01T09:42:45.083Z</time>
      </trkpt>
      <trkpt lat="45.6904" lon="5.93951">
        <ele>442</ele>
        <time>2022-05-01T09:42:46.084Z</time>
      </trkpt>
      <trkpt lat="45.69044" lon="5.93951">
        <ele>443</ele>
        <time>2022-05-01T09:42:47.083Z</time>
      </trkpt>
      <trkpt lat="45.69047" lon="5.93952">
        <ele>443</ele>
        <time>2022-05-01T09:42:48.084Z</time>
      </trkpt>
      <trkpt lat="45.69051" lon="5.93953">
        <ele>444</ele>
        <time>2022-05-01T09:42:49.084Z</time>
      </trkpt>
      <trkpt lat="45.69054" lon="5.93953">
        <ele>444</ele>
        <time>2022-05-01T09:42:50.084Z</time>
      </trkpt>
      <trkpt lat="45.69057" lon="5.93954">
        <ele>445</ele>
        <time>2022-05-01T09:42:51.084Z</time>
      </trkpt>
      <trkpt lat="45.6906" lon="5.93954">
        <ele>446</ele>
        <time>2022-05-01T09:42:52.083Z</time>
      </trkpt>
      <trkpt lat="45.69064" lon="5.93955">
        <ele>446</ele>
        <time>2022-05-01T09:42:53.084Z</time>
      </trkpt>
      <trkpt lat="45.69067" lon="5.93956">
        <ele>447</ele>
        <time>2022-05-01T09:42:54.083Z</time>
      </trkpt>
      <trkpt lat="45.6907" lon="5.93956">
        <ele>447</ele>
        <time>2022-05-01T09:42:55.084Z</time>
      </trkpt>
      <trkpt lat="45.69074" lon="5.93957">
        <ele>447</ele>
        <time>2022-05-01T09:42:56.083Z</time>
      </trkpt>
      <trkpt lat="45.69077" lon="5.93958">
        <ele>447</ele>
        <time>2022-05-01T09:42:57.084Z</time>
      </trkpt>
      <trkpt lat="45.69081" lon="5.93958">
        <ele>447</ele>
        <time>2022-05-01T09:42:58.083Z</time>
      </trkpt>
      <trkpt lat="45.69084" lon="5.93959">
        <ele>446</ele>
        <time>2022-05-01T09:42:59.084Z</time>
      </trkpt>
      <trkpt lat="45.69087" lon="5.9396">
        <ele>446</ele>
        <time>2022-05-01T09:43:00.083Z</time>
      </trkpt>
      <trkpt lat="45.6909" lon="5.9396">
        <ele>446</ele>
        <time>2022-05-01T09:43:01.083Z</time>
      </trkpt>
      <trkpt lat="45.69094" lon="5.93961">
        <ele>446</ele>
        <time>2022-05-01T09:43:02.084Z</time>
      </trkpt>
      <trkpt lat="45.69097" lon="5.93962">
        <ele>447</ele>
        <time>2022-05-01T09:43:03.084Z</time>
      </trkpt>
      <trkpt lat="45.691" lon="5.93962">
        <ele>447</ele>
        <time>2022-05-01T09:43:04.083Z</time>
      </trkpt>
      <trkpt lat="45.69103" lon="5.93963">
        <ele>446</ele>
        <time>2022-05-01T09:43:05.083Z</time>
      </trkpt>
      <trkpt lat="45.69107" lon="5.93964">
        <ele>446</ele>
        <time>2022-05-01T09:43:06.084Z</time>
      </trkpt>
      <trkpt lat="45.6911" lon="5.93965">
        <ele>446</ele>
        <time>2022-05-01T09:43:07.084Z</time>
      </trkpt>
      <trkpt lat="45.69114" lon="5.93965">
        <ele>446</ele>
        <time>2022-05-01T09:43:08.084Z</time>
      </trkpt>
      <trkpt lat="45.69117" lon="5.93966">
        <ele>446</ele>
        <time>2022-05-01T09:43:09.084Z</time>
      </trkpt>
      <trkpt lat="45.6912" lon="5.93967">
        <ele>446</ele>
        <time>2022-05-01T09:43:10.084Z</time>
      </trkpt>
      <trkpt lat="45.69123" lon="5.93968">
        <ele>446</ele>
        <time>2022-05-01T09:43:11.083Z</time>
      </trkpt>
      <trkpt lat="45.69127" lon="5.93968">
        <ele>446</ele>
        <time>2022-05-01T09:43:12.084Z</time>
      </trkpt>
      <trkpt lat="45.6913" lon="5.93969">
        <ele>446</ele>
        <time>2022-05-01T09:43:13.084Z</time>
      </trkpt>
      <trkpt lat="45.69133" lon="5.9397">
        <ele>446</ele>
        <time>2022-05-01T09:43:14.084Z</time>
      </trkpt>
      <trkpt lat="45.69137" lon="5.9397">
        <ele>446</ele>
        <time>2022-05-01T09:43:15.083Z</time>
      </trkpt>
      <trkpt lat="45.6914" lon="5.93971">
        <ele>446</ele>
        <time>2022-05-01T09:43:16.084Z</time>
      </trkpt>
      <trkpt lat="45.69143" lon="5.93972">
        <ele>446</ele>
        <time>2022-05-01T09:43:17.084Z</time>
      </trkpt>
      <trkpt lat="45.69147" lon="5.93972">
        <ele>446</ele>
        <time>2022-05-01T09:43:18.084Z</time>
      </trkpt>
      <trkpt lat="45.6915" lon="5.93973">
        <ele>446</ele>
        <time>2022-05-01T09:43:19.084Z</time>
      </trkpt>
      <trkpt lat="45.69153" lon="5.93973">
        <ele>446</ele>
        <time>2022-05-01T09:43:20.083Z</time>
      </trkpt>
      <trkpt lat="45.69157" lon="5.93974">
        <ele>447</ele>
        <time>2022-05-01T09:43:21.084Z</time>
      </trkpt>
      <trkpt lat="45.6916" lon="5.93975">
        <ele>447</ele>
        <time>2022-05-01T09:43:22.084Z</time>
      </trkpt>
      <trkpt lat="45.69163" lon="5.93975">
        <ele>447</ele>
        <time>2022-05-01T09:43:23.084Z</time>
      </trkpt>
      <trkpt lat="45.69166" lon="5.93976">
        <ele>448</ele>
        <time>2022-05-01T09:43:24.083Z</time>
      </trkpt>
      <trkpt lat="45.69168" lon="5.93976">
        <ele>449</ele>
        <time>2022-05-01T09:43:25.084Z</time>
      </trkpt>
      <trkpt lat="45.69172" lon="5.93976">
        <ele>450</ele>
        <time>2022-05-01T09:43:26.084Z</time>
      </trkpt>
      <trkpt lat="45.69175" lon="5.93977">
        <ele>451</ele>
        <time>2022-05-01T09:43:27.084Z</time>
      </trkpt>
      <trkpt lat="45.69178" lon="5.93977">
        <ele>451</ele>
        <time>2022-05-01T09:43:28.083Z</time>
      </trkpt>
      <trkpt lat="45.69181" lon="5.93977">
        <ele>452</ele>
        <time>2022-05-01T09:43:29.083Z</time>
      </trkpt>
      <trkpt lat="45.69184" lon="5.93977">
        <ele>453</ele>
        <time>2022-05-01T09:43:30.083Z</time>
      </trkpt>
      <trkpt lat="45.69187" lon="5.93977">
        <ele>454</ele>
        <time>2022-05-01T09:43:31.083Z</time>
      </trkpt>
      <trkpt lat="45.6919" lon="5.93978">
        <ele>456</ele>
        <time>2022-05-01T09:43:32.083Z</time>
      </trkpt>
      <trkpt lat="45.69193" lon="5.93978">
        <ele>456</ele>
        <time>2022-05-01T09:43:33.084Z</time>
      </trkpt>
      <trkpt lat="45.69196" lon="5.93979">
        <ele>457</ele>
        <time>2022-05-01T09:43:34.083Z</time>
      </trkpt>
      <trkpt lat="45.692" lon="5.93979">
        <ele>457</ele>
        <time>2022-05-01T09:43:35.084Z</time>
      </trkpt>
      <trkpt lat="45.69203" lon="5.9398">
        <ele>457</ele>
        <time>2022-05-01T09:43:36.083Z</time>
      </trkpt>
      <trkpt lat="45.69206" lon="5.9398">
        <ele>458</ele>
        <time>2022-05-01T09:43:37.084Z</time>
      </trkpt>
      <trkpt lat="45.6921" lon="5.93981">
        <ele>458</ele>
        <time>2022-05-01T09:43:38.084Z</time>
      </trkpt>
      <trkpt lat="45.69213" lon="5.93981">
        <ele>458</ele>
        <time>2022-05-01T09:43:39.084Z</time>
      </trkpt>
      <trkpt lat="45.69216" lon="5.93982">
        <ele>458</ele>
        <time>2022-05-01T09:43:40.083Z</time>
      </trkpt>
      <trkpt lat="45.69219" lon="5.93983">
        <ele>458</ele>
        <time>2022-05-01T09:43:41.083Z</time>
      </trkpt>
      <trkpt lat="45.69221" lon="5.93984">
        <ele>458</ele>
        <time>2022-05-01T09:43:42.084Z</time>
      </trkpt>
      <trkpt lat="45.69224" lon="5.93984">
        <ele>458</ele>
        <time>2022-05-01T09:43:43.084Z</time>
      </trkpt>
      <trkpt lat="45.69227" lon="5.93985">
        <ele>458</ele>
        <time>2022-05-01T09:43:44.084Z</time>
      </trkpt>
      <trkpt lat="45.6923" lon="5.93985">
        <ele>458</ele>
        <time>2022-05-01T09:43:45.084Z</time>
      </trkpt>
      <trkpt lat="45.69233" lon="5.93986">
        <ele>458</ele>
        <time>2022-05-01T09:43:46.084Z</time>
      </trkpt>
      <trkpt lat="45.69236" lon="5.93987">
        <ele>458</ele>
        <time>2022-05-01T09:43:47.084Z</time>
      </trkpt>
      <trkpt lat="45.6924" lon="5.93988">
        <ele>458</ele>
        <time>2022-05-01T09:43:48.083Z</time>
      </trkpt>
      <trkpt lat="45.69243" lon="5.93988">
        <ele>458</ele>
        <time>2022-05-01T09:43:49.083Z</time>
      </trkpt>
      <trkpt lat="45.69246" lon="5.93989">
        <ele>458</ele>
        <time>2022-05-01T09:43:50.083Z</time>
      </trkpt>
      <trkpt lat="45.69249" lon="5.93989">
        <ele>458</ele>
        <time>2022-05-01T09:43:51.083Z</time>
      </trkpt>
      <trkpt lat="45.69251" lon="5.9399">
        <ele>458</ele>
        <time>2022-05-01T09:43:52.084Z</time>
      </trkpt>
      <trkpt lat="45.69254" lon="5.93991">
        <ele>459</ele>
        <time>2022-05-01T09:43:53.084Z</time>
      </trkpt>
      <trkpt lat="45.69257" lon="5.93992">
        <ele>459</ele>
        <time>2022-05-01T09:43:54.084Z</time>
      </trkpt>
      <trkpt lat="45.69259" lon="5.93993">
        <ele>459</ele>
        <time>2022-05-01T09:43:55.084Z</time>
      </trkpt>
      <trkpt lat="45.69262" lon="5.93994">
        <ele>459</ele>
        <time>2022-05-01T09:43:56.084Z</time>
      </trkpt>
      <trkpt lat="45.69265" lon="5.93995">
        <ele>459</ele>
        <time>2022-05-01T09:43:57.084Z</time>
      </trkpt>
      <trkpt lat="45.69268" lon="5.93995">
        <ele>460</ele>
        <time>2022-05-01T09:43:58.084Z</time>
      </trkpt>
      <trkpt lat="45.69271" lon="5.93997">
        <ele>460</ele>
        <time>2022-05-01T09:43:59.084Z</time>
      </trkpt>
      <trkpt lat="45.69274" lon="5.93998">
        <ele>460</ele>
        <time>2022-05-01T09:44:00.084Z</time>
      </trkpt>
      <trkpt lat="45.69276" lon="5.93999">
        <ele>460</ele>
        <time>2022-05-01T09:44:01.084Z</time>
      </trkpt>
      <trkpt lat="45.69279" lon="5.94">
        <ele>460</ele>
        <time>2022-05-01T09:44:02.084Z</time>
      </trkpt>
      <trkpt lat="45.69282" lon="5.94001">
        <ele>460</ele>
        <time>2022-05-01T09:44:03.083Z</time>
      </trkpt>
      <trkpt lat="45.69285" lon="5.94002">
        <ele>460</ele>
        <time>2022-05-01T09:44:04.084Z</time>
      </trkpt>
      <trkpt lat="45.69288" lon="5.94003">
        <ele>460</ele>
        <time>2022-05-01T09:44:05.084Z</time>
      </trkpt>
      <trkpt lat="45.69291" lon="5.94004">
        <ele>461</ele>
        <time>2022-05-01T09:44:06.084Z</time>
      </trkpt>
      <trkpt lat="45.69294" lon="5.94005">
        <ele>461</ele>
        <time>2022-05-01T09:44:07.083Z</time>
      </trkpt>
      <trkpt lat="45.69297" lon="5.94005">
        <ele>461</ele>
        <time>2022-05-01T09:44:08.084Z</time>
      </trkpt>
      <trkpt lat="45.69299" lon="5.94006">
        <ele>462</ele>
        <time>2022-05-01T09:44:09.084Z</time>
      </trkpt>
      <trkpt lat="45.69302" lon="5.94007">
        <ele>462</ele>
        <time>2022-05-01T09:44:10.084Z</time>
      </trkpt>
      <trkpt lat="45.69305" lon="5.94008">
        <ele>463</ele>
        <time>2022-05-01T09:44:11.084Z</time>
      </trkpt>
      <trkpt lat="45.69308" lon="5.94008">
        <ele>464</ele>
        <time>2022-05-01T09:44:12.084Z</time>
      </trkpt>
      <trkpt lat="45.69311" lon="5.94009">
        <ele>465</ele>
        <time>2022-05-01T09:44:13.084Z</time>
      </trkpt>
      <trkpt lat="45.69314" lon="5.9401">
        <ele>466</ele>
        <time>2022-05-01T09:44:14.084Z</time>
      </trkpt>
      <trkpt lat="45.69317" lon="5.94011">
        <ele>467</ele>
        <time>2022-05-01T09:44:15.083Z</time>
      </trkpt>
      <trkpt lat="45.6932" lon="5.94012">
        <ele>468</ele>
        <time>2022-05-01T09:44:16.084Z</time>
      </trkpt>
      <trkpt lat="45.69323" lon="5.94012">
        <ele>469</ele>
        <time>2022-05-01T09:44:17.084Z</time>
      </trkpt>
      <trkpt lat="45.69326" lon="5.94013">
        <ele>470</ele>
        <time>2022-05-01T09:44:18.084Z</time>
      </trkpt>
      <trkpt lat="45.69329" lon="5.94014">
        <ele>471</ele>
        <time>2022-05-01T09:44:19.084Z</time>
      </trkpt>
      <trkpt lat="45.69333" lon="5.94015">
        <ele>472</ele>
        <time>2022-05-01T09:44:20.084Z</time>
      </trkpt>
      <trkpt lat="45.69336" lon="5.94016">
        <ele>473</ele>
        <time>2022-05-01T09:44:21.084Z</time>
      </trkpt>
      <trkpt lat="45.69339" lon="5.94017">
        <ele>473</ele>
        <time>2022-05-01T09:44:22.084Z</time>
      </trkpt>
      <trkpt lat="45.69342" lon="5.94019">
        <ele>474</ele>
        <time>2022-05-01T09:44:23.083Z</time>
      </trkpt>
      <trkpt lat="45.69345" lon="5.94021">
        <ele>473</ele>
        <time>2022-05-01T09:44:24.084Z</time>
      </trkpt>
      <trkpt lat="45.69348" lon="5.94022">
        <ele>473</ele>
        <time>2022-05-01T09:44:25.084Z</time>
      </trkpt>
      <trkpt lat="45.69351" lon="5.94024">
        <ele>473</ele>
        <time>2022-05-01T09:44:26.084Z</time>
      </trkpt>
      <trkpt lat="45.69354" lon="5.94026">
        <ele>473</ele>
        <time>2022-05-01T09:44:27.084Z</time>
      </trkpt>
      <trkpt lat="45.69356" lon="5.94027">
        <ele>473</ele>
        <time>2022-05-01T09:44:28.084Z</time>
      </trkpt>
      <trkpt lat="45.69359" lon="5.94029">
        <ele>473</ele>
        <time>2022-05-01T09:44:29.084Z</time>
      </trkpt>
      <trkpt lat="45.69361" lon="5.9403">
        <ele>472</ele>
        <time>2022-05-01T09:44:30.084Z</time>
      </trkpt>
      <trkpt lat="45.69364" lon="5.94031">
        <ele>471</ele>
        <time>2022-05-01T09:44:31.084Z</time>
      </trkpt>
      <trkpt lat="45.69367" lon="5.94031">
        <ele>470</ele>
        <time>2022-05-01T09:44:32.084Z</time>
      </trkpt>
      <trkpt lat="45.6937" lon="5.94032">
        <ele>469</ele>
        <time>2022-05-01T09:44:33.084Z</time>
      </trkpt>
      <trkpt lat="45.69373" lon="5.94032">
        <ele>469</ele>
        <time>2022-05-01T09:44:34.083Z</time>
      </trkpt>
      <trkpt lat="45.69376" lon="5.94031">
        <ele>468</ele>
        <time>2022-05-01T09:44:35.083Z</time>
      </trkpt>
      <trkpt lat="45.69379" lon="5.94031">
        <ele>468</ele>
        <time>2022-05-01T09:44:36.084Z</time>
      </trkpt>
      <trkpt lat="45.69382" lon="5.9403">
        <ele>468</ele>
        <time>2022-05-01T09:44:37.084Z</time>
      </trkpt>
      <trkpt lat="45.69384" lon="5.94029">
        <ele>467</ele>
        <time>2022-05-01T09:44:38.083Z</time>
      </trkpt>
      <trkpt lat="45.69387" lon="5.94029">
        <ele>467</ele>
        <time>2022-05-01T09:44:39.084Z</time>
      </trkpt>
      <trkpt lat="45.6939" lon="5.94027">
        <ele>467</ele>
        <time>2022-05-01T09:44:40.084Z</time>
      </trkpt>
      <trkpt lat="45.69393" lon="5.94026">
        <ele>466</ele>
        <time>2022-05-01T09:44:41.083Z</time>
      </trkpt>
      <trkpt lat="45.69397" lon="5.94025">
        <ele>467</ele>
        <time>2022-05-01T09:44:42.084Z</time>
      </trkpt>
      <trkpt lat="45.69401" lon="5.94024">
        <ele>467</ele>
        <time>2022-05-01T09:44:43.084Z</time>
      </trkpt>
      <trkpt lat="45.69404" lon="5.94023">
        <ele>467</ele>
        <time>2022-05-01T09:44:44.084Z</time>
      </trkpt>
      <trkpt lat="45.69407" lon="5.94022">
        <ele>467</ele>
        <time>2022-05-01T09:44:45.084Z</time>
      </trkpt>
      <trkpt lat="45.69409" lon="5.94021">
        <ele>467</ele>
        <time>2022-05-01T09:44:46.084Z</time>
      </trkpt>
      <trkpt lat="45.69412" lon="5.94021">
        <ele>466</ele>
        <time>2022-05-01T09:44:47.083Z</time>
      </trkpt>
      <trkpt lat="45.69415" lon="5.94021">
        <ele>466</ele>
        <time>2022-05-01T09:44:48.083Z</time>
      </trkpt>
      <trkpt lat="45.69418" lon="5.9402">
        <ele>466</ele>
        <time>2022-05-01T09:44:49.084Z</time>
      </trkpt>
      <trkpt lat="45.69421" lon="5.94019">
        <ele>466</ele>
        <time>2022-05-01T09:44:50.084Z</time>
      </trkpt>
      <trkpt lat="45.69423" lon="5.94017">
        <ele>465</ele>
        <time>2022-05-01T09:44:51.084Z</time>
      </trkpt>
      <trkpt lat="45.69425" lon="5.94014">
        <ele>465</ele>
        <time>2022-05-01T09:44:52.084Z</time>
      </trkpt>
      <trkpt lat="45.69426" lon="5.9401">
        <ele>465</ele>
        <time>2022-05-01T09:44:53.084Z</time>
      </trkpt>
      <trkpt lat="45.69428" lon="5.94006">
        <ele>464</ele>
        <time>2022-05-01T09:44:54.083Z</time>
      </trkpt>
      <trkpt lat="45.69431" lon="5.94001">
        <ele>465</ele>
        <time>2022-05-01T09:44:55.083Z</time>
      </trkpt>
      <trkpt lat="45.69434" lon="5.93995">
        <ele>465</ele>
        <time>2022-05-01T09:44:56.084Z</time>
      </trkpt>
      <trkpt lat="45.69439" lon="5.9399">
        <ele>465</ele>
        <time>2022-05-01T09:44:57.084Z</time>
      </trkpt>
      <trkpt lat="45.69444" lon="5.93986">
        <ele>465</ele>
        <time>2022-05-01T09:44:58.083Z</time>
      </trkpt>
      <trkpt lat="45.69449" lon="5.93982">
        <ele>465</ele>
        <time>2022-05-01T09:44:59.084Z</time>
      </trkpt>
      <trkpt lat="45.69458" lon="5.93978">
        <ele>464</ele>
        <time>2022-05-01T09:45:00.084Z</time>
      </trkpt>
      <trkpt lat="45.69464" lon="5.93975">
        <ele>464</ele>
        <time>2022-05-01T09:45:01.083Z</time>
      </trkpt>
      <trkpt lat="45.69472" lon="5.93972">
        <ele>463</ele>
        <time>2022-05-01T09:45:02.084Z</time>
      </trkpt>
      <trkpt lat="45.6948" lon="5.9397">
        <ele>463</ele>
        <time>2022-05-01T09:45:03.084Z</time>
      </trkpt>
      <trkpt lat="45.69488" lon="5.93967">
        <ele>463</ele>
        <time>2022-05-01T09:45:04.084Z</time>
      </trkpt>
      <trkpt lat="45.69496" lon="5.93965">
        <ele>463</ele>
        <time>2022-05-01T09:45:05.083Z</time>
      </trkpt>
      <trkpt lat="45.69504" lon="5.93963">
        <ele>462</ele>
        <time>2022-05-01T09:45:06.084Z</time>
      </trkpt>
      <trkpt lat="45.69513" lon="5.9396">
        <ele>461</ele>
        <time>2022-05-01T09:45:07.084Z</time>
      </trkpt>
      <trkpt lat="45.6952" lon="5.93958">
        <ele>461</ele>
        <time>2022-05-01T09:45:08.084Z</time>
      </trkpt>
      <trkpt lat="45.69529" lon="5.93955">
        <ele>460</ele>
        <time>2022-05-01T09:45:09.084Z</time>
      </trkpt>
      <trkpt lat="45.69537" lon="5.9395">
        <ele>460</ele>
        <time>2022-05-01T09:45:10.084Z</time>
      </trkpt>
      <trkpt lat="45.69546" lon="5.93945">
        <ele>459</ele>
        <time>2022-05-01T09:45:11.084Z</time>
      </trkpt>
      <trkpt lat="45.69554" lon="5.9394">
        <ele>458</ele>
        <time>2022-05-01T09:45:12.084Z</time>
      </trkpt>
      <trkpt lat="45.69563" lon="5.93935">
        <ele>458</ele>
        <time>2022-05-01T09:45:13.084Z</time>
      </trkpt>
      <trkpt lat="45.69571" lon="5.9393">
        <ele>457</ele>
        <time>2022-05-01T09:45:14.084Z</time>
      </trkpt>
      <trkpt lat="45.69579" lon="5.93924">
        <ele>457</ele>
        <time>2022-05-01T09:45:15.084Z</time>
      </trkpt>
      <trkpt lat="45.69587" lon="5.93918">
        <ele>456</ele>
        <time>2022-05-01T09:45:16.084Z</time>
      </trkpt>
      <trkpt lat="45.69594" lon="5.93914">
        <ele>456</ele>
        <time>2022-05-01T09:45:17.084Z</time>
      </trkpt>
      <trkpt lat="45.69604" lon="5.93907">
        <ele>456</ele>
        <time>2022-05-01T09:45:18.084Z</time>
      </trkpt>
      <trkpt lat="45.69612" lon="5.93901">
        <ele>455</ele>
        <time>2022-05-01T09:45:19.083Z</time>
      </trkpt>
      <trkpt lat="45.6962" lon="5.93894">
        <ele>454</ele>
        <time>2022-05-01T09:45:20.084Z</time>
      </trkpt>
      <trkpt lat="45.69627" lon="5.93885">
        <ele>453</ele>
        <time>2022-05-01T09:45:21.084Z</time>
      </trkpt>
      <trkpt lat="45.69633" lon="5.93876">
        <ele>452</ele>
        <time>2022-05-01T09:45:22.084Z</time>
      </trkpt>
      <trkpt lat="45.69638" lon="5.93865">
        <ele>451</ele>
        <time>2022-05-01T09:45:23.084Z</time>
      </trkpt>
      <trkpt lat="45.69641" lon="5.93856">
        <ele>449</ele>
        <time>2022-05-01T09:45:24.083Z</time>
      </trkpt>
      <trkpt lat="45.69643" lon="5.93844">
        <ele>448</ele>
        <time>2022-05-01T09:45:25.084Z</time>
      </trkpt>
      <trkpt lat="45.69644" lon="5.9383">
        <ele>446</ele>
        <time>2022-05-01T09:45:26.084Z</time>
      </trkpt>
      <trkpt lat="45.69644" lon="5.93816">
        <ele>445</ele>
        <time>2022-05-01T09:45:27.084Z</time>
      </trkpt>
      <trkpt lat="45.69644" lon="5.93799">
        <ele>444</ele>
        <time>2022-05-01T09:45:28.083Z</time>
      </trkpt>
      <trkpt lat="45.69644" lon="5.93783">
        <ele>442</ele>
        <time>2022-05-01T09:45:29.083Z</time>
      </trkpt>
      <trkpt lat="45.69643" lon="5.93772">
        <ele>441</ele>
        <time>2022-05-01T09:45:30.084Z</time>
      </trkpt>
      <trkpt lat="45.69643" lon="5.93756">
        <ele>440</ele>
        <time>2022-05-01T09:45:31.084Z</time>
      </trkpt>
      <trkpt lat="45.69642" lon="5.93741">
        <ele>439</ele>
        <time>2022-05-01T09:45:32.084Z</time>
      </trkpt>
      <trkpt lat="45.69642" lon="5.93725">
        <ele>438</ele>
        <time>2022-05-01T09:45:33.083Z</time>
      </trkpt>
      <trkpt lat="45.69641" lon="5.93709">
        <ele>437</ele>
        <time>2022-05-01T09:45:34.083Z</time>
      </trkpt>
      <trkpt lat="45.69641" lon="5.93692">
        <ele>436</ele>
        <time>2022-05-01T09:45:35.084Z</time>
      </trkpt>
      <trkpt lat="45.69641" lon="5.93676">
        <ele>436</ele>
        <time>2022-05-01T09:45:36.084Z</time>
      </trkpt>
      <trkpt lat="45.69641" lon="5.9366">
        <ele>435</ele>
        <time>2022-05-01T09:45:37.083Z</time>
      </trkpt>
      <trkpt lat="45.6964" lon="5.93644">
        <ele>434</ele>
        <time>2022-05-01T09:45:38.084Z</time>
      </trkpt>
      <trkpt lat="45.6964" lon="5.93628">
        <ele>433</ele>
        <time>2022-05-01T09:45:39.083Z</time>
      </trkpt>
      <trkpt lat="45.69639" lon="5.93612">
        <ele>433</ele>
        <time>2022-05-01T09:45:40.084Z</time>
      </trkpt>
      <trkpt lat="45.69639" lon="5.93597">
        <ele>432</ele>
        <time>2022-05-01T09:45:41.083Z</time>
      </trkpt>
      <trkpt lat="45.69639" lon="5.93581">
        <ele>431</ele>
        <time>2022-05-01T09:45:42.084Z</time>
      </trkpt>
      <trkpt lat="45.69639" lon="5.93567">
        <ele>431</ele>
        <time>2022-05-01T09:45:43.084Z</time>
      </trkpt>
      <trkpt lat="45.69639" lon="5.93553">
        <ele>430</ele>
        <time>2022-05-01T09:45:44.084Z</time>
      </trkpt>
      <trkpt lat="45.6964" lon="5.9354">
        <ele>429</ele>
        <time>2022-05-01T09:45:45.084Z</time>
      </trkpt>
      <trkpt lat="45.69643" lon="5.93527">
        <ele>428</ele>
        <time>2022-05-01T09:45:46.084Z</time>
      </trkpt>
      <trkpt lat="45.69646" lon="5.93519">
        <ele>427</ele>
        <time>2022-05-01T09:45:47.083Z</time>
      </trkpt>
      <trkpt lat="45.69651" lon="5.9351">
        <ele>427</ele>
        <time>2022-05-01T09:45:48.084Z</time>
      </trkpt>
      <trkpt lat="45.69657" lon="5.93504">
        <ele>426</ele>
        <time>2022-05-01T09:45:49.084Z</time>
      </trkpt>
      <trkpt lat="45.69664" lon="5.93499">
        <ele>426</ele>
        <time>2022-05-01T09:45:50.084Z</time>
      </trkpt>
      <trkpt lat="45.69672" lon="5.93497">
        <ele>426</ele>
        <time>2022-05-01T09:45:51.084Z</time>
      </trkpt>
      <trkpt lat="45.69681" lon="5.93495">
        <ele>425</ele>
        <time>2022-05-01T09:45:52.084Z</time>
      </trkpt>
      <trkpt lat="45.69689" lon="5.93496">
        <ele>425</ele>
        <time>2022-05-01T09:45:53.084Z</time>
      </trkpt>
      <trkpt lat="45.69696" lon="5.93496">
        <ele>425</ele>
        <time>2022-05-01T09:45:54.083Z</time>
      </trkpt>
      <trkpt lat="45.69703" lon="5.93494">
        <ele>424</ele>
        <time>2022-05-01T09:45:55.084Z</time>
      </trkpt>
      <trkpt lat="45.69709" lon="5.93489">
        <ele>424</ele>
        <time>2022-05-01T09:45:56.084Z</time>
      </trkpt>
      <trkpt lat="45.69712" lon="5.93484">
        <ele>424</ele>
        <time>2022-05-01T09:45:57.084Z</time>
      </trkpt>
      <trkpt lat="45.69713" lon="5.93477">
        <ele>423</ele>
        <time>2022-05-01T09:45:58.083Z</time>
      </trkpt>
      <trkpt lat="45.69712" lon="5.9347">
        <ele>423</ele>
        <time>2022-05-01T09:45:59.084Z</time>
      </trkpt>
      <trkpt lat="45.69709" lon="5.93464">
        <ele>422</ele>
        <time>2022-05-01T09:46:00.084Z</time>
      </trkpt>
      <trkpt lat="45.69705" lon="5.93458">
        <ele>421</ele>
        <time>2022-05-01T09:46:01.084Z</time>
      </trkpt>
      <trkpt lat="45.69699" lon="5.93454">
        <ele>420</ele>
        <time>2022-05-01T09:46:02.084Z</time>
      </trkpt>
      <trkpt lat="45.69693" lon="5.9345">
        <ele>420</ele>
        <time>2022-05-01T09:46:03.083Z</time>
      </trkpt>
      <trkpt lat="45.69686" lon="5.93444">
        <ele>419</ele>
        <time>2022-05-01T09:46:04.084Z</time>
      </trkpt>
      <trkpt lat="45.6968" lon="5.93437">
        <ele>418</ele>
        <time>2022-05-01T09:46:05.083Z</time>
      </trkpt>
      <trkpt lat="45.69673" lon="5.93429">
        <ele>417</ele>
        <time>2022-05-01T09:46:06.083Z</time>
      </trkpt>
      <trkpt lat="45.69668" lon="5.9342">
        <ele>416</ele>
        <time>2022-05-01T09:46:07.084Z</time>
      </trkpt>
      <trkpt lat="45.69662" lon="5.9341">
        <ele>415</ele>
        <time>2022-05-01T09:46:08.084Z</time>
      </trkpt>
      <trkpt lat="45.69657" lon="5.93401">
        <ele>414</ele>
        <time>2022-05-01T09:46:09.084Z</time>
      </trkpt>
      <trkpt lat="45.69653" lon="5.93391">
        <ele>412</ele>
        <time>2022-05-01T09:46:10.084Z</time>
      </trkpt>
      <trkpt lat="45.69648" lon="5.9338">
        <ele>411</ele>
        <time>2022-05-01T09:46:11.083Z</time>
      </trkpt>
      <trkpt lat="45.69643" lon="5.9337">
        <ele>410</ele>
        <time>2022-05-01T09:46:12.083Z</time>
      </trkpt>
      <trkpt lat="45.69639" lon="5.93361">
        <ele>409</ele>
        <time>2022-05-01T09:46:13.084Z</time>
      </trkpt>
      <trkpt lat="45.69635" lon="5.93353">
        <ele>408</ele>
        <time>2022-05-01T09:46:14.083Z</time>
      </trkpt>
      <trkpt lat="45.69634" lon="5.93345">
        <ele>407</ele>
        <time>2022-05-01T09:46:15.084Z</time>
      </trkpt>
      <trkpt lat="45.69633" lon="5.93339">
        <ele>406</ele>
        <time>2022-05-01T09:46:16.084Z</time>
      </trkpt>
      <trkpt lat="45.69634" lon="5.93333">
        <ele>406</ele>
        <time>2022-05-01T09:46:17.084Z</time>
      </trkpt>
      <trkpt lat="45.69637" lon="5.93329">
        <ele>405</ele>
        <time>2022-05-01T09:46:18.084Z</time>
      </trkpt>
      <trkpt lat="45.69642" lon="5.93326">
        <ele>405</ele>
        <time>2022-05-01T09:46:19.084Z</time>
      </trkpt>
      <trkpt lat="45.69646" lon="5.93326">
        <ele>404</ele>
        <time>2022-05-01T09:46:20.084Z</time>
      </trkpt>
      <trkpt lat="45.69652" lon="5.93325">
        <ele>404</ele>
        <time>2022-05-01T09:46:21.084Z</time>
      </trkpt>
      <trkpt lat="45.69658" lon="5.93325">
        <ele>404</ele>
        <time>2022-05-01T09:46:22.084Z</time>
      </trkpt>
      <trkpt lat="45.69663" lon="5.93326">
        <ele>403</ele>
        <time>2022-05-01T09:46:23.084Z</time>
      </trkpt>
      <trkpt lat="45.69669" lon="5.93326">
        <ele>403</ele>
        <time>2022-05-01T09:46:24.084Z</time>
      </trkpt>
      <trkpt lat="45.69675" lon="5.93326">
        <ele>403</ele>
        <time>2022-05-01T09:46:25.084Z</time>
      </trkpt>
      <trkpt lat="45.69681" lon="5.93326">
        <ele>403</ele>
        <time>2022-05-01T09:46:26.084Z</time>
      </trkpt>
      <trkpt lat="45.69687" lon="5.93327">
        <ele>402</ele>
        <time>2022-05-01T09:46:27.083Z</time>
      </trkpt>
      <trkpt lat="45.69693" lon="5.93327">
        <ele>402</ele>
        <time>2022-05-01T09:46:28.084Z</time>
      </trkpt>
      <trkpt lat="45.69698" lon="5.93327">
        <ele>401</ele>
        <time>2022-05-01T09:46:29.084Z</time>
      </trkpt>
      <trkpt lat="45.69704" lon="5.93327">
        <ele>402</ele>
        <time>2022-05-01T09:46:30.084Z</time>
      </trkpt>
      <trkpt lat="45.69711" lon="5.93327">
        <ele>402</ele>
        <time>2022-05-01T09:46:31.084Z</time>
      </trkpt>
      <trkpt lat="45.69717" lon="5.93327">
        <ele>402</ele>
        <time>2022-05-01T09:46:32.084Z</time>
      </trkpt>
      <trkpt lat="45.69724" lon="5.93328">
        <ele>402</ele>
        <time>2022-05-01T09:46:33.084Z</time>
      </trkpt>
      <trkpt lat="45.6973" lon="5.93328">
        <ele>402</ele>
        <time>2022-05-01T09:46:34.084Z</time>
      </trkpt>
      <trkpt lat="45.69737" lon="5.93328">
        <ele>403</ele>
        <time>2022-05-01T09:46:35.084Z</time>
      </trkpt>
      <trkpt lat="45.69743" lon="5.93328">
        <ele>403</ele>
        <time>2022-05-01T09:46:36.084Z</time>
      </trkpt>
      <trkpt lat="45.6975" lon="5.93328">
        <ele>403</ele>
        <time>2022-05-01T09:46:37.084Z</time>
      </trkpt>
      <trkpt lat="45.69757" lon="5.93329">
        <ele>403</ele>
        <time>2022-05-01T09:46:38.084Z</time>
      </trkpt>
      <trkpt lat="45.69764" lon="5.93329">
        <ele>402</ele>
        <time>2022-05-01T09:46:39.084Z</time>
      </trkpt>
      <trkpt lat="45.69773" lon="5.93329">
        <ele>402</ele>
        <time>2022-05-01T09:46:40.084Z</time>
      </trkpt>
      <trkpt lat="45.69779" lon="5.93329">
        <ele>401</ele>
        <time>2022-05-01T09:46:41.084Z</time>
      </trkpt>
      <trkpt lat="45.69787" lon="5.93329">
        <ele>400</ele>
        <time>2022-05-01T09:46:42.084Z</time>
      </trkpt>
      <trkpt lat="45.69795" lon="5.93329">
        <ele>400</ele>
        <time>2022-05-01T09:46:43.084Z</time>
      </trkpt>
      <trkpt lat="45.69802" lon="5.93329">
        <ele>399</ele>
        <time>2022-05-01T09:46:44.084Z</time>
      </trkpt>
      <trkpt lat="45.6981" lon="5.93329">
        <ele>399</ele>
        <time>2022-05-01T09:46:45.084Z</time>
      </trkpt>
      <trkpt lat="45.69818" lon="5.93329">
        <ele>399</ele>
        <time>2022-05-01T09:46:46.084Z</time>
      </trkpt>
      <trkpt lat="45.69826" lon="5.93329">
        <ele>398</ele>
        <time>2022-05-01T09:46:47.084Z</time>
      </trkpt>
      <trkpt lat="45.69834" lon="5.93329">
        <ele>398</ele>
        <time>2022-05-01T09:46:48.083Z</time>
      </trkpt>
      <trkpt lat="45.69842" lon="5.9333">
        <ele>397</ele>
        <time>2022-05-01T09:46:49.084Z</time>
      </trkpt>
      <trkpt lat="45.6985" lon="5.93331">
        <ele>397</ele>
        <time>2022-05-01T09:46:50.084Z</time>
      </trkpt>
      <trkpt lat="45.69857" lon="5.93335">
        <ele>397</ele>
        <time>2022-05-01T09:46:51.084Z</time>
      </trkpt>
      <trkpt lat="45.69864" lon="5.9334">
        <ele>396</ele>
        <time>2022-05-01T09:46:52.084Z</time>
      </trkpt>
      <trkpt lat="45.69871" lon="5.93346">
        <ele>396</ele>
        <time>2022-05-01T09:46:53.084Z</time>
      </trkpt>
      <trkpt lat="45.69877" lon="5.93352">
        <ele>395</ele>
        <time>2022-05-01T09:46:54.084Z</time>
      </trkpt>
      <trkpt lat="45.69884" lon="5.93358">
        <ele>395</ele>
        <time>2022-05-01T09:46:55.084Z</time>
      </trkpt>
      <trkpt lat="45.69891" lon="5.93364">
        <ele>395</ele>
        <time>2022-05-01T09:46:56.083Z</time>
      </trkpt>
      <trkpt lat="45.69898" lon="5.93371">
        <ele>395</ele>
        <time>2022-05-01T09:46:57.084Z</time>
      </trkpt>
      <trkpt lat="45.69905" lon="5.93378">
        <ele>394</ele>
        <time>2022-05-01T09:46:58.084Z</time>
      </trkpt>
      <trkpt lat="45.69913" lon="5.93385">
        <ele>394</ele>
        <time>2022-05-01T09:46:59.084Z</time>
      </trkpt>
      <trkpt lat="45.69922" lon="5.93393">
        <ele>393</ele>
        <time>2022-05-01T09:47:00.084Z</time>
      </trkpt>
      <trkpt lat="45.69927" lon="5.93397">
        <ele>393</ele>
        <time>2022-05-01T09:47:01.084Z</time>
      </trkpt>
      <trkpt lat="45.69935" lon="5.93402">
        <ele>392</ele>
        <time>2022-05-01T09:47:02.084Z</time>
      </trkpt>
      <trkpt lat="45.69944" lon="5.93404">
        <ele>392</ele>
        <time>2022-05-01T09:47:03.084Z</time>
      </trkpt>
      <trkpt lat="45.69949" lon="5.93403">
        <ele>392</ele>
        <time>2022-05-01T09:47:04.084Z</time>
      </trkpt>
      <trkpt lat="45.69956" lon="5.934">
        <ele>392</ele>
        <time>2022-05-01T09:47:05.084Z</time>
      </trkpt>
      <trkpt lat="45.69961" lon="5.93395">
        <ele>392</ele>
        <time>2022-05-01T09:47:06.084Z</time>
      </trkpt>
      <trkpt lat="45.69967" lon="5.93387">
        <ele>392</ele>
        <time>2022-05-01T09:47:07.083Z</time>
      </trkpt>
      <trkpt lat="45.69971" lon="5.93379">
        <ele>392</ele>
        <time>2022-05-01T09:47:08.084Z</time>
      </trkpt>
      <trkpt lat="45.69976" lon="5.93369">
        <ele>391</ele>
        <time>2022-05-01T09:47:09.084Z</time>
      </trkpt>
      <trkpt lat="45.69981" lon="5.93358">
        <ele>391</ele>
        <time>2022-05-01T09:47:10.084Z</time>
      </trkpt>
      <trkpt lat="45.69985" lon="5.9335">
        <ele>390</ele>
        <time>2022-05-01T09:47:11.084Z</time>
      </trkpt>
      <trkpt lat="45.69989" lon="5.93339">
        <ele>390</ele>
        <time>2022-05-01T09:47:12.084Z</time>
      </trkpt>
      <trkpt lat="45.69995" lon="5.93327">
        <ele>389</ele>
        <time>2022-05-01T09:47:13.083Z</time>
      </trkpt>
      <trkpt lat="45.7" lon="5.93318">
        <ele>388</ele>
        <time>2022-05-01T09:47:14.084Z</time>
      </trkpt>
      <trkpt lat="45.70005" lon="5.93309">
        <ele>387</ele>
        <time>2022-05-01T09:47:15.084Z</time>
      </trkpt>
      <trkpt lat="45.70008" lon="5.93301">
        <ele>386</ele>
        <time>2022-05-01T09:47:16.084Z</time>
      </trkpt>
      <trkpt lat="45.70012" lon="5.93291">
        <ele>385</ele>
        <time>2022-05-01T09:47:17.084Z</time>
      </trkpt>
      <trkpt lat="45.70015" lon="5.93279">
        <ele>384</ele>
        <time>2022-05-01T09:47:18.084Z</time>
      </trkpt>
      <trkpt lat="45.70018" lon="5.93268">
        <ele>383</ele>
        <time>2022-05-01T09:47:19.084Z</time>
      </trkpt>
      <trkpt lat="45.70022" lon="5.93257">
        <ele>381</ele>
        <time>2022-05-01T09:47:20.084Z</time>
      </trkpt>
      <trkpt lat="45.70025" lon="5.93246">
        <ele>380</ele>
        <time>2022-05-01T09:47:21.084Z</time>
      </trkpt>
      <trkpt lat="45.70031" lon="5.93232">
        <ele>380</ele>
        <time>2022-05-01T09:47:22.084Z</time>
      </trkpt>
      <trkpt lat="45.70036" lon="5.93221">
        <ele>379</ele>
        <time>2022-05-01T09:47:23.084Z</time>
      </trkpt>
      <trkpt lat="45.7004" lon="5.93212">
        <ele>378</ele>
        <time>2022-05-01T09:47:24.084Z</time>
      </trkpt>
      <trkpt lat="45.70045" lon="5.93201">
        <ele>377</ele>
        <time>2022-05-01T09:47:25.084Z</time>
      </trkpt>
      <trkpt lat="45.70051" lon="5.9319">
        <ele>376</ele>
        <time>2022-05-01T09:47:26.084Z</time>
      </trkpt>
      <trkpt lat="45.70058" lon="5.93177">
        <ele>375</ele>
        <time>2022-05-01T09:47:27.084Z</time>
      </trkpt>
      <trkpt lat="45.70065" lon="5.93168">
        <ele>375</ele>
        <time>2022-05-01T09:47:28.084Z</time>
      </trkpt>
      <trkpt lat="45.70072" lon="5.93159">
        <ele>374</ele>
        <time>2022-05-01T09:47:29.084Z</time>
      </trkpt>
      <trkpt lat="45.70078" lon="5.93151">
        <ele>373</ele>
        <time>2022-05-01T09:47:30.083Z</time>
      </trkpt>
      <trkpt lat="45.70085" lon="5.93142">
        <ele>372</ele>
        <time>2022-05-01T09:47:31.084Z</time>
      </trkpt>
      <trkpt lat="45.70092" lon="5.93132">
        <ele>371</ele>
        <time>2022-05-01T09:47:32.084Z</time>
      </trkpt>
      <trkpt lat="45.701" lon="5.93122">
        <ele>370</ele>
        <time>2022-05-01T09:47:33.084Z</time>
      </trkpt>
      <trkpt lat="45.70108" lon="5.93112">
        <ele>370</ele>
        <time>2022-05-01T09:47:34.084Z</time>
      </trkpt>
      <trkpt lat="45.70114" lon="5.93104">
        <ele>369</ele>
        <time>2022-05-01T09:47:35.084Z</time>
      </trkpt>
      <trkpt lat="45.70123" lon="5.93092">
        <ele>368</ele>
        <time>2022-05-01T09:47:36.084Z</time>
      </trkpt>
      <trkpt lat="45.70133" lon="5.9308">
        <ele>367</ele>
        <time>2022-05-01T09:47:37.084Z</time>
      </trkpt>
      <trkpt lat="45.70139" lon="5.93074">
        <ele>366</ele>
        <time>2022-05-01T09:47:38.084Z</time>
      </trkpt>
      <trkpt lat="45.70148" lon="5.93066">
        <ele>365</ele>
        <time>2022-05-01T09:47:39.083Z</time>
      </trkpt>
      <trkpt lat="45.70157" lon="5.93058">
        <ele>364</ele>
        <time>2022-05-01T09:47:40.083Z</time>
      </trkpt>
      <trkpt lat="45.70165" lon="5.93051">
        <ele>363</ele>
        <time>2022-05-01T09:47:41.084Z</time>
      </trkpt>
      <trkpt lat="45.70175" lon="5.93042">
        <ele>362</ele>
        <time>2022-05-01T09:47:42.084Z</time>
      </trkpt>
      <trkpt lat="45.70181" lon="5.93035">
        <ele>361</ele>
        <time>2022-05-01T09:47:43.084Z</time>
      </trkpt>
      <trkpt lat="45.70187" lon="5.93025">
        <ele>360</ele>
        <time>2022-05-01T09:47:44.084Z</time>
      </trkpt>
      <trkpt lat="45.70193" lon="5.93014">
        <ele>359</ele>
        <time>2022-05-01T09:47:45.084Z</time>
      </trkpt>
      <trkpt lat="45.70199" lon="5.93004">
        <ele>358</ele>
        <time>2022-05-01T09:47:46.084Z</time>
      </trkpt>
      <trkpt lat="45.70207" lon="5.92993">
        <ele>357</ele>
        <time>2022-05-01T09:47:47.084Z</time>
      </trkpt>
      <trkpt lat="45.70214" lon="5.92985">
        <ele>356</ele>
        <time>2022-05-01T09:47:48.084Z</time>
      </trkpt>
      <trkpt lat="45.7022" lon="5.92981">
        <ele>356</ele>
        <time>2022-05-01T09:47:49.084Z</time>
      </trkpt>
      <trkpt lat="45.70228" lon="5.92976">
        <ele>355</ele>
        <time>2022-05-01T09:47:50.083Z</time>
      </trkpt>
      <trkpt lat="45.70237" lon="5.92972">
        <ele>355</ele>
        <time>2022-05-01T09:47:51.083Z</time>
      </trkpt>
      <trkpt lat="45.70248" lon="5.92968">
        <ele>354</ele>
        <time>2022-05-01T09:47:52.084Z</time>
      </trkpt>
      <trkpt lat="45.70255" lon="5.92966">
        <ele>352</ele>
        <time>2022-05-01T09:47:53.084Z</time>
      </trkpt>
      <trkpt lat="45.70265" lon="5.92964">
        <ele>351</ele>
        <time>2022-05-01T09:47:54.084Z</time>
      </trkpt>
      <trkpt lat="45.70275" lon="5.92962">
        <ele>350</ele>
        <time>2022-05-01T09:47:55.084Z</time>
      </trkpt>
      <trkpt lat="45.70284" lon="5.9296">
        <ele>349</ele>
        <time>2022-05-01T09:47:56.084Z</time>
      </trkpt>
      <trkpt lat="45.70292" lon="5.92958">
        <ele>347</ele>
        <time>2022-05-01T09:47:57.084Z</time>
      </trkpt>
      <trkpt lat="45.703" lon="5.92958">
        <ele>346</ele>
        <time>2022-05-01T09:47:58.084Z</time>
      </trkpt>
      <trkpt lat="45.70307" lon="5.92958">
        <ele>344</ele>
        <time>2022-05-01T09:47:59.084Z</time>
      </trkpt>
      <trkpt lat="45.70313" lon="5.92959">
        <ele>344</ele>
        <time>2022-05-01T09:48:00.083Z</time>
      </trkpt>
      <trkpt lat="45.7032" lon="5.92959">
        <ele>343</ele>
        <time>2022-05-01T09:48:01.084Z</time>
      </trkpt>
      <trkpt lat="45.70325" lon="5.92957">
        <ele>342</ele>
        <time>2022-05-01T09:48:02.084Z</time>
      </trkpt>
      <trkpt lat="45.70329" lon="5.92954">
        <ele>342</ele>
        <time>2022-05-01T09:48:03.084Z</time>
      </trkpt>
      <trkpt lat="45.70334" lon="5.9295">
        <ele>341</ele>
        <time>2022-05-01T09:48:04.084Z</time>
      </trkpt>
      <trkpt lat="45.7034" lon="5.92945">
        <ele>341</ele>
        <time>2022-05-01T09:48:05.084Z</time>
      </trkpt>
      <trkpt lat="45.70345" lon="5.92941">
        <ele>341</ele>
        <time>2022-05-01T09:48:06.083Z</time>
      </trkpt>
      <trkpt lat="45.70351" lon="5.92937">
        <ele>341</ele>
        <time>2022-05-01T09:48:07.084Z</time>
      </trkpt>
      <trkpt lat="45.70357" lon="5.92932">
        <ele>340</ele>
        <time>2022-05-01T09:48:08.084Z</time>
      </trkpt>
      <trkpt lat="45.70363" lon="5.92926">
        <ele>339</ele>
        <time>2022-05-01T09:48:09.084Z</time>
      </trkpt>
      <trkpt lat="45.7037" lon="5.92919">
        <ele>339</ele>
        <time>2022-05-01T09:48:10.084Z</time>
      </trkpt>
      <trkpt lat="45.70376" lon="5.92912">
        <ele>338</ele>
        <time>2022-05-01T09:48:11.083Z</time>
      </trkpt>
      <trkpt lat="45.70381" lon="5.92905">
        <ele>337</ele>
        <time>2022-05-01T09:48:12.084Z</time>
      </trkpt>
      <trkpt lat="45.70386" lon="5.92898">
        <ele>337</ele>
        <time>2022-05-01T09:48:13.083Z</time>
      </trkpt>
      <trkpt lat="45.70392" lon="5.92891">
        <ele>337</ele>
        <time>2022-05-01T09:48:14.084Z</time>
      </trkpt>
      <trkpt lat="45.70399" lon="5.92884">
        <ele>337</ele>
        <time>2022-05-01T09:48:15.084Z</time>
      </trkpt>
      <trkpt lat="45.70407" lon="5.92876">
        <ele>336</ele>
        <time>2022-05-01T09:48:16.084Z</time>
      </trkpt>
      <trkpt lat="45.70414" lon="5.92869">
        <ele>335</ele>
        <time>2022-05-01T09:48:17.083Z</time>
      </trkpt>
      <trkpt lat="45.70419" lon="5.92864">
        <ele>335</ele>
        <time>2022-05-01T09:48:18.084Z</time>
      </trkpt>
      <trkpt lat="45.70427" lon="5.92857">
        <ele>335</ele>
        <time>2022-05-01T09:48:19.083Z</time>
      </trkpt>
      <trkpt lat="45.70435" lon="5.9285">
        <ele>334</ele>
        <time>2022-05-01T09:48:20.084Z</time>
      </trkpt>
      <trkpt lat="45.70443" lon="5.92845">
        <ele>334</ele>
        <time>2022-05-01T09:48:21.084Z</time>
      </trkpt>
      <trkpt lat="45.7045" lon="5.92841">
        <ele>333</ele>
        <time>2022-05-01T09:48:22.084Z</time>
      </trkpt>
      <trkpt lat="45.70456" lon="5.92837">
        <ele>333</ele>
        <time>2022-05-01T09:48:23.084Z</time>
      </trkpt>
      <trkpt lat="45.70463" lon="5.92834">
        <ele>332</ele>
        <time>2022-05-01T09:48:24.084Z</time>
      </trkpt>
      <trkpt lat="45.70471" lon="5.92829">
        <ele>332</ele>
        <time>2022-05-01T09:48:25.084Z</time>
      </trkpt>
      <trkpt lat="45.70477" lon="5.92826">
        <ele>332</ele>
        <time>2022-05-01T09:48:26.084Z</time>
      </trkpt>
      <trkpt lat="45.70481" lon="5.92824">
        <ele>332</ele>
        <time>2022-05-01T09:48:27.084Z</time>
      </trkpt>
      <trkpt lat="45.70487" lon="5.92822">
        <ele>332</ele>
        <time>2022-05-01T09:48:28.083Z</time>
      </trkpt>
      <trkpt lat="45.70493" lon="5.9282">
        <ele>331</ele>
        <time>2022-05-01T09:48:29.084Z</time>
      </trkpt>
      <trkpt lat="45.70498" lon="5.92819">
        <ele>331</ele>
        <time>2022-05-01T09:48:30.083Z</time>
      </trkpt>
      <trkpt lat="45.70503" lon="5.92818">
        <ele>330</ele>
        <time>2022-05-01T09:48:31.083Z</time>
      </trkpt>
      <trkpt lat="45.70507" lon="5.92817">
        <ele>330</ele>
        <time>2022-05-01T09:48:32.084Z</time>
      </trkpt>
      <trkpt lat="45.70511" lon="5.92816">
        <ele>331</ele>
        <time>2022-05-01T09:48:33.084Z</time>
      </trkpt>
      <trkpt lat="45.70515" lon="5.92815">
        <ele>331</ele>
        <time>2022-05-01T09:48:34.084Z</time>
      </trkpt>
      <trkpt lat="45.70519" lon="5.92814">
        <ele>331</ele>
        <time>2022-05-01T09:48:35.084Z</time>
      </trkpt>
      <trkpt lat="45.70523" lon="5.92814">
        <ele>331</ele>
        <time>2022-05-01T09:48:36.083Z</time>
      </trkpt>
      <trkpt lat="45.70526" lon="5.92814">
        <ele>331</ele>
        <time>2022-05-01T09:48:37.084Z</time>
      </trkpt>
      <trkpt lat="45.7053" lon="5.92813">
        <ele>331</ele>
        <time>2022-05-01T09:48:38.084Z</time>
      </trkpt>
      <trkpt lat="45.70533" lon="5.92812">
        <ele>332</ele>
        <time>2022-05-01T09:48:39.084Z</time>
      </trkpt>
      <trkpt lat="45.70536" lon="5.92811">
        <ele>332</ele>
        <time>2022-05-01T09:48:40.084Z</time>
      </trkpt>
      <trkpt lat="45.70538" lon="5.92811">
        <ele>332</ele>
        <time>2022-05-01T09:48:41.083Z</time>
      </trkpt>
      <trkpt lat="45.70541" lon="5.92809">
        <ele>333</ele>
        <time>2022-05-01T09:48:42.083Z</time>
      </trkpt>
      <trkpt lat="45.70544" lon="5.92808">
        <ele>333</ele>
        <time>2022-05-01T09:48:43.084Z</time>
      </trkpt>
      <trkpt lat="45.70546" lon="5.92808">
        <ele>333</ele>
        <time>2022-05-01T09:48:44.083Z</time>
      </trkpt>
      <trkpt lat="45.70548" lon="5.92807">
        <ele>333</ele>
        <time>2022-05-01T09:48:45.084Z</time>
      </trkpt>
      <trkpt lat="45.7055" lon="5.92807">
        <ele>333</ele>
        <time>2022-05-01T09:48:46.084Z</time>
      </trkpt>
      <trkpt lat="45.70553" lon="5.92806">
        <ele>333</ele>
        <time>2022-05-01T09:48:47.084Z</time>
      </trkpt>
      <trkpt lat="45.70555" lon="5.92806">
        <ele>333</ele>
        <time>2022-05-01T09:48:48.084Z</time>
      </trkpt>
      <trkpt lat="45.70558" lon="5.92805">
        <ele>333</ele>
        <time>2022-05-01T09:48:49.084Z</time>
      </trkpt>
      <trkpt lat="45.70561" lon="5.92804">
        <ele>333</ele>
        <time>2022-05-01T09:48:50.084Z</time>
      </trkpt>
      <trkpt lat="45.70563" lon="5.92803">
        <ele>333</ele>
        <time>2022-05-01T09:48:51.084Z</time>
      </trkpt>
      <trkpt lat="45.70566" lon="5.92802">
        <ele>333</ele>
        <time>2022-05-01T09:48:52.083Z</time>
      </trkpt>
      <trkpt lat="45.70568" lon="5.92801">
        <ele>333</ele>
        <time>2022-05-01T09:48:53.084Z</time>
      </trkpt>
      <trkpt lat="45.7057" lon="5.928">
        <ele>334</ele>
        <time>2022-05-01T09:48:54.084Z</time>
      </trkpt>
      <trkpt lat="45.70573" lon="5.92799">
        <ele>334</ele>
        <time>2022-05-01T09:48:55.084Z</time>
      </trkpt>
      <trkpt lat="45.70575" lon="5.92798">
        <ele>334</ele>
        <time>2022-05-01T09:48:56.084Z</time>
      </trkpt>
      <trkpt lat="45.70578" lon="5.92797">
        <ele>334</ele>
        <time>2022-05-01T09:48:57.084Z</time>
      </trkpt>
      <trkpt lat="45.7058" lon="5.92796">
        <ele>335</ele>
        <time>2022-05-01T09:48:58.083Z</time>
      </trkpt>
      <trkpt lat="45.70583" lon="5.92795">
        <ele>335</ele>
        <time>2022-05-01T09:48:59.084Z</time>
      </trkpt>
      <trkpt lat="45.70585" lon="5.92794">
        <ele>335</ele>
        <time>2022-05-01T09:49:00.084Z</time>
      </trkpt>
      <trkpt lat="45.70588" lon="5.92793">
        <ele>336</ele>
        <time>2022-05-01T09:49:01.084Z</time>
      </trkpt>
      <trkpt lat="45.70591" lon="5.92791">
        <ele>336</ele>
        <time>2022-05-01T09:49:02.083Z</time>
      </trkpt>
      <trkpt lat="45.70593" lon="5.9279">
        <ele>336</ele>
        <time>2022-05-01T09:49:03.084Z</time>
      </trkpt>
      <trkpt lat="45.70596" lon="5.92789">
        <ele>336</ele>
        <time>2022-05-01T09:49:04.084Z</time>
      </trkpt>
      <trkpt lat="45.70598" lon="5.92787">
        <ele>336</ele>
        <time>2022-05-01T09:49:05.084Z</time>
      </trkpt>
      <trkpt lat="45.70601" lon="5.92786">
        <ele>337</ele>
        <time>2022-05-01T09:49:06.083Z</time>
      </trkpt>
      <trkpt lat="45.70604" lon="5.92785">
        <ele>337</ele>
        <time>2022-05-01T09:49:07.084Z</time>
      </trkpt>
      <trkpt lat="45.70606" lon="5.92783">
        <ele>337</ele>
        <time>2022-05-01T09:49:08.083Z</time>
      </trkpt>
      <trkpt lat="45.70609" lon="5.92782">
        <ele>337</ele>
        <time>2022-05-01T09:49:09.084Z</time>
      </trkpt>
      <trkpt lat="45.70612" lon="5.9278">
        <ele>337</ele>
        <time>2022-05-01T09:49:10.083Z</time>
      </trkpt>
      <trkpt lat="45.70614" lon="5.92778">
        <ele>338</ele>
        <time>2022-05-01T09:49:11.083Z</time>
      </trkpt>
      <trkpt lat="45.70617" lon="5.92776">
        <ele>339</ele>
        <time>2022-05-01T09:49:12.084Z</time>
      </trkpt>
      <trkpt lat="45.7062" lon="5.92775">
        <ele>339</ele>
        <time>2022-05-01T09:49:13.083Z</time>
      </trkpt>
      <trkpt lat="45.70623" lon="5.92773">
        <ele>339</ele>
        <time>2022-05-01T09:49:14.084Z</time>
      </trkpt>
      <trkpt lat="45.70627" lon="5.92771">
        <ele>340</ele>
        <time>2022-05-01T09:49:15.084Z</time>
      </trkpt>
      <trkpt lat="45.7063" lon="5.92769">
        <ele>340</ele>
        <time>2022-05-01T09:49:16.084Z</time>
      </trkpt>
      <trkpt lat="45.70634" lon="5.92767">
        <ele>339</ele>
        <time>2022-05-01T09:49:17.084Z</time>
      </trkpt>
      <trkpt lat="45.70638" lon="5.92765">
        <ele>339</ele>
        <time>2022-05-01T09:49:18.084Z</time>
      </trkpt>
      <trkpt lat="45.70642" lon="5.92762">
        <ele>338</ele>
        <time>2022-05-01T09:49:19.084Z</time>
      </trkpt>
      <trkpt lat="45.70646" lon="5.9276">
        <ele>338</ele>
        <time>2022-05-01T09:49:20.083Z</time>
      </trkpt>
      <trkpt lat="45.70651" lon="5.92757">
        <ele>338</ele>
        <time>2022-05-01T09:49:21.083Z</time>
      </trkpt>
      <trkpt lat="45.70655" lon="5.92754">
        <ele>338</ele>
        <time>2022-05-01T09:49:22.083Z</time>
      </trkpt>
      <trkpt lat="45.7066" lon="5.92751">
        <ele>338</ele>
        <time>2022-05-01T09:49:23.084Z</time>
      </trkpt>
      <trkpt lat="45.70665" lon="5.92748">
        <ele>338</ele>
        <time>2022-05-01T09:49:24.084Z</time>
      </trkpt>
      <trkpt lat="45.7067" lon="5.92745">
        <ele>338</ele>
        <time>2022-05-01T09:49:25.084Z</time>
      </trkpt>
      <trkpt lat="45.70675" lon="5.92742">
        <ele>337</ele>
        <time>2022-05-01T09:49:26.084Z</time>
      </trkpt>
      <trkpt lat="45.70681" lon="5.92739">
        <ele>336</ele>
        <time>2022-05-01T09:49:27.084Z</time>
      </trkpt>
      <trkpt lat="45.70686" lon="5.92736">
        <ele>336</ele>
        <time>2022-05-01T09:49:28.084Z</time>
      </trkpt>
      <trkpt lat="45.70692" lon="5.92733">
        <ele>336</ele>
        <time>2022-05-01T09:49:29.083Z</time>
      </trkpt>
      <trkpt lat="45.70698" lon="5.92729">
        <ele>336</ele>
        <time>2022-05-01T09:49:30.084Z</time>
      </trkpt>
      <trkpt lat="45.70704" lon="5.92725">
        <ele>336</ele>
        <time>2022-05-01T09:49:31.084Z</time>
      </trkpt>
      <trkpt lat="45.70711" lon="5.92722">
        <ele>336</ele>
        <time>2022-05-01T09:49:32.084Z</time>
      </trkpt>
      <trkpt lat="45.70717" lon="5.92718">
        <ele>336</ele>
        <time>2022-05-01T09:49:33.084Z</time>
      </trkpt>
      <trkpt lat="45.70723" lon="5.92715">
        <ele>336</ele>
        <time>2022-05-01T09:49:34.084Z</time>
      </trkpt>
      <trkpt lat="45.7073" lon="5.92712">
        <ele>335</ele>
        <time>2022-05-01T09:49:35.084Z</time>
      </trkpt>
      <trkpt lat="45.70737" lon="5.92709">
        <ele>335</ele>
        <time>2022-05-01T09:49:36.084Z</time>
      </trkpt>
      <trkpt lat="45.70743" lon="5.92706">
        <ele>334</ele>
        <time>2022-05-01T09:49:37.084Z</time>
      </trkpt>
      <trkpt lat="45.7075" lon="5.92703">
        <ele>333</ele>
        <time>2022-05-01T09:49:38.083Z</time>
      </trkpt>
      <trkpt lat="45.70757" lon="5.927">
        <ele>333</ele>
        <time>2022-05-01T09:49:39.084Z</time>
      </trkpt>
      <trkpt lat="45.70764" lon="5.92697">
        <ele>333</ele>
        <time>2022-05-01T09:49:40.084Z</time>
      </trkpt>
      <trkpt lat="45.70771" lon="5.92694">
        <ele>333</ele>
        <time>2022-05-01T09:49:41.083Z</time>
      </trkpt>
      <trkpt lat="45.70778" lon="5.92691">
        <ele>332</ele>
        <time>2022-05-01T09:49:42.083Z</time>
      </trkpt>
      <trkpt lat="45.70785" lon="5.92689">
        <ele>332</ele>
        <time>2022-05-01T09:49:43.084Z</time>
      </trkpt>
      <trkpt lat="45.70792" lon="5.92686">
        <ele>332</ele>
        <time>2022-05-01T09:49:44.084Z</time>
      </trkpt>
      <trkpt lat="45.70799" lon="5.92683">
        <ele>332</ele>
        <time>2022-05-01T09:49:45.084Z</time>
      </trkpt>
      <trkpt lat="45.70806" lon="5.92681">
        <ele>331</ele>
        <time>2022-05-01T09:49:46.084Z</time>
      </trkpt>
      <trkpt lat="45.70814" lon="5.92678">
        <ele>331</ele>
        <time>2022-05-01T09:49:47.084Z</time>
      </trkpt>
      <trkpt lat="45.70821" lon="5.92676">
        <ele>330</ele>
        <time>2022-05-01T09:49:48.084Z</time>
      </trkpt>
      <trkpt lat="45.70829" lon="5.92673">
        <ele>330</ele>
        <time>2022-05-01T09:49:49.084Z</time>
      </trkpt>
      <trkpt lat="45.70835" lon="5.92671">
        <ele>329</ele>
        <time>2022-05-01T09:49:50.084Z</time>
      </trkpt>
      <trkpt lat="45.70842" lon="5.92669">
        <ele>329</ele>
        <time>2022-05-01T09:49:51.084Z</time>
      </trkpt>
      <trkpt lat="45.70849" lon="5.92667">
        <ele>328</ele>
        <time>2022-05-01T09:49:52.084Z</time>
      </trkpt>
      <trkpt lat="45.70856" lon="5.92665">
        <ele>328</ele>
        <time>2022-05-01T09:49:53.084Z</time>
      </trkpt>
      <trkpt lat="45.70864" lon="5.92662">
        <ele>327</ele>
        <time>2022-05-01T09:49:54.083Z</time>
      </trkpt>
      <trkpt lat="45.70871" lon="5.9266">
        <ele>327</ele>
        <time>2022-05-01T09:49:55.084Z</time>
      </trkpt>
      <trkpt lat="45.70879" lon="5.92657">
        <ele>326</ele>
        <time>2022-05-01T09:49:56.084Z</time>
      </trkpt>
      <trkpt lat="45.70886" lon="5.92655">
        <ele>325</ele>
        <time>2022-05-01T09:49:57.084Z</time>
      </trkpt>
      <trkpt lat="45.70895" lon="5.92652">
        <ele>325</ele>
        <time>2022-05-01T09:49:58.084Z</time>
      </trkpt>
      <trkpt lat="45.70903" lon="5.92649">
        <ele>324</ele>
        <time>2022-05-01T09:49:59.084Z</time>
      </trkpt>
      <trkpt lat="45.70909" lon="5.92646">
        <ele>324</ele>
        <time>2022-05-01T09:50:00.084Z</time>
      </trkpt>
      <trkpt lat="45.70917" lon="5.92643">
        <ele>324</ele>
        <time>2022-05-01T09:50:01.084Z</time>
      </trkpt>
      <trkpt lat="45.70924" lon="5.9264">
        <ele>323</ele>
        <time>2022-05-01T09:50:02.083Z</time>
      </trkpt>
      <trkpt lat="45.70931" lon="5.92636">
        <ele>323</ele>
        <time>2022-05-01T09:50:03.084Z</time>
      </trkpt>
      <trkpt lat="45.7094" lon="5.92632">
        <ele>323</ele>
        <time>2022-05-01T09:50:04.084Z</time>
      </trkpt>
      <trkpt lat="45.70945" lon="5.9263">
        <ele>322</ele>
        <time>2022-05-01T09:50:05.084Z</time>
      </trkpt>
      <trkpt lat="45.70951" lon="5.92626">
        <ele>321</ele>
        <time>2022-05-01T09:50:06.084Z</time>
      </trkpt>
      <trkpt lat="45.70957" lon="5.92623">
        <ele>320</ele>
        <time>2022-05-01T09:50:07.084Z</time>
      </trkpt>
      <trkpt lat="45.70963" lon="5.92619">
        <ele>320</ele>
        <time>2022-05-01T09:50:08.084Z</time>
      </trkpt>
      <trkpt lat="45.70968" lon="5.92614">
        <ele>319</ele>
        <time>2022-05-01T09:50:09.084Z</time>
      </trkpt>
      <trkpt lat="45.70972" lon="5.92609">
        <ele>319</ele>
        <time>2022-05-01T09:50:10.083Z</time>
      </trkpt>
      <trkpt lat="45.70975" lon="5.92604">
        <ele>319</ele>
        <time>2022-05-01T09:50:11.083Z</time>
      </trkpt>
      <trkpt lat="45.70978" lon="5.92598">
        <ele>319</ele>
        <time>2022-05-01T09:50:12.084Z</time>
      </trkpt>
      <trkpt lat="45.7098" lon="5.92593">
        <ele>318</ele>
        <time>2022-05-01T09:50:13.084Z</time>
      </trkpt>
      <trkpt lat="45.70983" lon="5.9259">
        <ele>318</ele>
        <time>2022-05-01T09:50:14.083Z</time>
      </trkpt>
      <trkpt lat="45.70987" lon="5.92587">
        <ele>317</ele>
        <time>2022-05-01T09:50:15.084Z</time>
      </trkpt>
      <trkpt lat="45.7099" lon="5.92587">
        <ele>317</ele>
        <time>2022-05-01T09:50:16.083Z</time>
      </trkpt>
      <trkpt lat="45.70994" lon="5.92587">
        <ele>316</ele>
        <time>2022-05-01T09:50:17.084Z</time>
      </trkpt>
      <trkpt lat="45.70998" lon="5.92587">
        <ele>316</ele>
        <time>2022-05-01T09:50:18.083Z</time>
      </trkpt>
      <trkpt lat="45.71002" lon="5.92586">
        <ele>315</ele>
        <time>2022-05-01T09:50:19.084Z</time>
      </trkpt>
      <trkpt lat="45.71007" lon="5.92585">
        <ele>315</ele>
        <time>2022-05-01T09:50:20.084Z</time>
      </trkpt>
      <trkpt lat="45.71012" lon="5.92582">
        <ele>315</ele>
        <time>2022-05-01T09:50:21.083Z</time>
      </trkpt>
      <trkpt lat="45.71018" lon="5.92579">
        <ele>315</ele>
        <time>2022-05-01T09:50:22.084Z</time>
      </trkpt>
      <trkpt lat="45.71023" lon="5.92578">
        <ele>314</ele>
        <time>2022-05-01T09:50:23.084Z</time>
      </trkpt>
      <trkpt lat="45.71029" lon="5.92575">
        <ele>314</ele>
        <time>2022-05-01T09:50:24.083Z</time>
      </trkpt>
      <trkpt lat="45.71036" lon="5.92572">
        <ele>314</ele>
        <time>2022-05-01T09:50:25.084Z</time>
      </trkpt>
      <trkpt lat="45.71041" lon="5.92571">
        <ele>314</ele>
        <time>2022-05-01T09:50:26.084Z</time>
      </trkpt>
      <trkpt lat="45.71048" lon="5.92569">
        <ele>313</ele>
        <time>2022-05-01T09:50:27.084Z</time>
      </trkpt>
      <trkpt lat="45.71054" lon="5.92567">
        <ele>313</ele>
        <time>2022-05-01T09:50:28.084Z</time>
      </trkpt>
      <trkpt lat="45.7106" lon="5.92565">
        <ele>313</ele>
        <time>2022-05-01T09:50:29.084Z</time>
      </trkpt>
      <trkpt lat="45.71067" lon="5.92563">
        <ele>313</ele>
        <time>2022-05-01T09:50:30.083Z</time>
      </trkpt>
      <trkpt lat="45.71073" lon="5.92562">
        <ele>312</ele>
        <time>2022-05-01T09:50:31.083Z</time>
      </trkpt>
      <trkpt lat="45.7108" lon="5.92561">
        <ele>312</ele>
        <time>2022-05-01T09:50:32.083Z</time>
      </trkpt>
      <trkpt lat="45.71086" lon="5.9256">
        <ele>312</ele>
        <time>2022-05-01T09:50:33.084Z</time>
      </trkpt>
      <trkpt lat="45.71093" lon="5.92559">
        <ele>313</ele>
        <time>2022-05-01T09:50:34.084Z</time>
      </trkpt>
      <trkpt lat="45.71099" lon="5.92559">
        <ele>313</ele>
        <time>2022-05-01T09:50:35.083Z</time>
      </trkpt>
      <trkpt lat="45.71106" lon="5.92558">
        <ele>312</ele>
        <time>2022-05-01T09:50:36.084Z</time>
      </trkpt>
      <trkpt lat="45.71112" lon="5.92558">
        <ele>311</ele>
        <time>2022-05-01T09:50:37.084Z</time>
      </trkpt>
      <trkpt lat="45.71118" lon="5.92558">
        <ele>311</ele>
        <time>2022-05-01T09:50:38.084Z</time>
      </trkpt>
      <trkpt lat="45.71124" lon="5.92557">
        <ele>311</ele>
        <time>2022-05-01T09:50:39.084Z</time>
      </trkpt>
      <trkpt lat="45.71129" lon="5.92557">
        <ele>310</ele>
        <time>2022-05-01T09:50:40.084Z</time>
      </trkpt>
      <trkpt lat="45.71135" lon="5.92557">
        <ele>310</ele>
        <time>2022-05-01T09:50:41.084Z</time>
      </trkpt>
      <trkpt lat="45.7114" lon="5.92558">
        <ele>310</ele>
        <time>2022-05-01T09:50:42.084Z</time>
      </trkpt>
      <trkpt lat="45.71146" lon="5.92558">
        <ele>309</ele>
        <time>2022-05-01T09:50:43.084Z</time>
      </trkpt>
      <trkpt lat="45.7115" lon="5.92559">
        <ele>309</ele>
        <time>2022-05-01T09:50:44.084Z</time>
      </trkpt>
      <trkpt lat="45.71155" lon="5.92559">
        <ele>309</ele>
        <time>2022-05-01T09:50:45.084Z</time>
      </trkpt>
      <trkpt lat="45.71159" lon="5.92559">
        <ele>309</ele>
        <time>2022-05-01T09:50:46.084Z</time>
      </trkpt>
      <trkpt lat="45.71164" lon="5.9256">
        <ele>309</ele>
        <time>2022-05-01T09:50:47.084Z</time>
      </trkpt>
      <trkpt lat="45.71167" lon="5.9256">
        <ele>309</ele>
        <time>2022-05-01T09:50:48.084Z</time>
      </trkpt>
      <trkpt lat="45.71171" lon="5.9256">
        <ele>309</ele>
        <time>2022-05-01T09:50:49.084Z</time>
      </trkpt>
      <trkpt lat="45.71174" lon="5.9256">
        <ele>309</ele>
        <time>2022-05-01T09:50:50.084Z</time>
      </trkpt>
      <trkpt lat="45.71177" lon="5.92558">
        <ele>309</ele>
        <time>2022-05-01T09:50:51.084Z</time>
      </trkpt>
      <trkpt lat="45.71179" lon="5.92556">
        <ele>309</ele>
        <time>2022-05-01T09:50:52.083Z</time>
      </trkpt>
      <trkpt lat="45.71182" lon="5.92552">
        <ele>309</ele>
        <time>2022-05-01T09:50:53.084Z</time>
      </trkpt>
      <trkpt lat="45.71184" lon="5.92549">
        <ele>309</ele>
        <time>2022-05-01T09:50:54.084Z</time>
      </trkpt>
      <trkpt lat="45.71187" lon="5.92545">
        <ele>309</ele>
        <time>2022-05-01T09:50:55.084Z</time>
      </trkpt>
      <trkpt lat="45.71189" lon="5.92543">
        <ele>310</ele>
        <time>2022-05-01T09:50:56.084Z</time>
      </trkpt>
      <trkpt lat="45.71192" lon="5.92542">
        <ele>310</ele>
        <time>2022-05-01T09:50:57.083Z</time>
      </trkpt>
      <trkpt lat="45.71196" lon="5.92543">
        <ele>310</ele>
        <time>2022-05-01T09:50:58.083Z</time>
      </trkpt>
      <trkpt lat="45.71198" lon="5.92544">
        <ele>310</ele>
        <time>2022-05-01T09:50:59.084Z</time>
      </trkpt>
      <trkpt lat="45.712" lon="5.92547">
        <ele>311</ele>
        <time>2022-05-01T09:51:00.083Z</time>
      </trkpt>
      <trkpt lat="45.71201" lon="5.92551">
        <ele>311</ele>
        <time>2022-05-01T09:51:01.084Z</time>
      </trkpt>
      <trkpt lat="45.71202" lon="5.92554">
        <ele>311</ele>
        <time>2022-05-01T09:51:02.084Z</time>
      </trkpt>
      <trkpt lat="45.71202" lon="5.92558">
        <ele>311</ele>
        <time>2022-05-01T09:51:03.084Z</time>
      </trkpt>
      <trkpt lat="45.71202" lon="5.92561">
        <ele>311</ele>
        <time>2022-05-01T09:51:04.084Z</time>
      </trkpt>
      <trkpt lat="45.71203" lon="5.92563">
        <ele>310</ele>
        <time>2022-05-01T09:51:05.084Z</time>
      </trkpt>
      <trkpt lat="45.71204" lon="5.92566">
        <ele>310</ele>
        <time>2022-05-01T09:51:06.084Z</time>
      </trkpt>
      <trkpt lat="45.71206" lon="5.92568">
        <ele>310</ele>
        <time>2022-05-01T09:51:07.084Z</time>
      </trkpt>
      <trkpt lat="45.71208" lon="5.92569">
        <ele>310</ele>
        <time>2022-05-01T09:51:08.084Z</time>
      </trkpt>
      <trkpt lat="45.7121" lon="5.9257">
        <ele>311</ele>
        <time>2022-05-01T09:51:09.084Z</time>
      </trkpt>
      <trkpt lat="45.71213" lon="5.92571">
        <ele>311</ele>
        <time>2022-05-01T09:51:10.084Z</time>
      </trkpt>
      <trkpt lat="45.71216" lon="5.92571">
        <ele>311</ele>
        <time>2022-05-01T09:51:11.084Z</time>
      </trkpt>
      <trkpt lat="45.7122" lon="5.92572">
        <ele>312</ele>
        <time>2022-05-01T09:51:12.084Z</time>
      </trkpt>
      <trkpt lat="45.71224" lon="5.92572">
        <ele>312</ele>
        <time>2022-05-01T09:51:13.084Z</time>
      </trkpt>
      <trkpt lat="45.71228" lon="5.92573">
        <ele>312</ele>
        <time>2022-05-01T09:51:14.083Z</time>
      </trkpt>
      <trkpt lat="45.71232" lon="5.92573">
        <ele>312</ele>
        <time>2022-05-01T09:51:15.084Z</time>
      </trkpt>
      <trkpt lat="45.71236" lon="5.92574">
        <ele>313</ele>
        <time>2022-05-01T09:51:16.084Z</time>
      </trkpt>
      <trkpt lat="45.7124" lon="5.92575">
        <ele>313</ele>
        <time>2022-05-01T09:51:17.083Z</time>
      </trkpt>
      <trkpt lat="45.71244" lon="5.92576">
        <ele>313</ele>
        <time>2022-05-01T09:51:18.084Z</time>
      </trkpt>
      <trkpt lat="45.71248" lon="5.92576">
        <ele>313</ele>
        <time>2022-05-01T09:51:19.083Z</time>
      </trkpt>
      <trkpt lat="45.71252" lon="5.92577">
        <ele>313</ele>
        <time>2022-05-01T09:51:20.084Z</time>
      </trkpt>
      <trkpt lat="45.71255" lon="5.92578">
        <ele>313</ele>
        <time>2022-05-01T09:51:21.084Z</time>
      </trkpt>
      <trkpt lat="45.71259" lon="5.92578">
        <ele>312</ele>
        <time>2022-05-01T09:51:22.084Z</time>
      </trkpt>
      <trkpt lat="45.71263" lon="5.92579">
        <ele>313</ele>
        <time>2022-05-01T09:51:23.084Z</time>
      </trkpt>
      <trkpt lat="45.71267" lon="5.9258">
        <ele>313</ele>
        <time>2022-05-01T09:51:24.084Z</time>
      </trkpt>
      <trkpt lat="45.71271" lon="5.9258">
        <ele>313</ele>
        <time>2022-05-01T09:51:25.084Z</time>
      </trkpt>
      <trkpt lat="45.71274" lon="5.92581">
        <ele>314</ele>
        <time>2022-05-01T09:51:26.084Z</time>
      </trkpt>
      <trkpt lat="45.71278" lon="5.92581">
        <ele>314</ele>
        <time>2022-05-01T09:51:27.084Z</time>
      </trkpt>
      <trkpt lat="45.71282" lon="5.92582">
        <ele>314</ele>
        <time>2022-05-01T09:51:28.084Z</time>
      </trkpt>
      <trkpt lat="45.71285" lon="5.92582">
        <ele>314</ele>
        <time>2022-05-01T09:51:29.084Z</time>
      </trkpt>
      <trkpt lat="45.71289" lon="5.92583">
        <ele>314</ele>
        <time>2022-05-01T09:51:30.084Z</time>
      </trkpt>
      <trkpt lat="45.71293" lon="5.92583">
        <ele>314</ele>
        <time>2022-05-01T09:51:31.084Z</time>
      </trkpt>
      <trkpt lat="45.71296" lon="5.92584">
        <ele>314</ele>
        <time>2022-05-01T09:51:32.084Z</time>
      </trkpt>
      <trkpt lat="45.713" lon="5.92584">
        <ele>314</ele>
        <time>2022-05-01T09:51:33.084Z</time>
      </trkpt>
      <trkpt lat="45.71304" lon="5.92585">
        <ele>314</ele>
        <time>2022-05-01T09:51:34.084Z</time>
      </trkpt>
      <trkpt lat="45.71309" lon="5.92585">
        <ele>314</ele>
        <time>2022-05-01T09:51:35.084Z</time>
      </trkpt>
      <trkpt lat="45.71313" lon="5.92586">
        <ele>314</ele>
        <time>2022-05-01T09:51:36.083Z</time>
      </trkpt>
      <trkpt lat="45.71317" lon="5.92587">
        <ele>314</ele>
        <time>2022-05-01T09:51:37.084Z</time>
      </trkpt>
      <trkpt lat="45.71321" lon="5.92588">
        <ele>314</ele>
        <time>2022-05-01T09:51:38.083Z</time>
      </trkpt>
      <trkpt lat="45.71325" lon="5.92588">
        <ele>314</ele>
        <time>2022-05-01T09:51:39.084Z</time>
      </trkpt>
      <trkpt lat="45.71329" lon="5.92589">
        <ele>313</ele>
        <time>2022-05-01T09:51:40.084Z</time>
      </trkpt>
      <trkpt lat="45.71333" lon="5.9259">
        <ele>313</ele>
        <time>2022-05-01T09:51:41.084Z</time>
      </trkpt>
      <trkpt lat="45.71337" lon="5.92591">
        <ele>313</ele>
        <time>2022-05-01T09:51:42.084Z</time>
      </trkpt>
      <trkpt lat="45.71343" lon="5.92591">
        <ele>313</ele>
        <time>2022-05-01T09:51:43.084Z</time>
      </trkpt>
      <trkpt lat="45.71346" lon="5.92591">
        <ele>313</ele>
        <time>2022-05-01T09:51:44.083Z</time>
      </trkpt>
      <trkpt lat="45.7135" lon="5.92592">
        <ele>313</ele>
        <time>2022-05-01T09:51:45.083Z</time>
      </trkpt>
      <trkpt lat="45.71356" lon="5.92593">
        <ele>313</ele>
        <time>2022-05-01T09:51:46.084Z</time>
      </trkpt>
      <trkpt lat="45.71359" lon="5.92594">
        <ele>313</ele>
        <time>2022-05-01T09:51:47.084Z</time>
      </trkpt>
      <trkpt lat="45.71364" lon="5.92594">
        <ele>313</ele>
        <time>2022-05-01T09:51:48.084Z</time>
      </trkpt>
      <trkpt lat="45.71368" lon="5.92595">
        <ele>313</ele>
        <time>2022-05-01T09:51:49.084Z</time>
      </trkpt>
      <trkpt lat="45.71373" lon="5.92596">
        <ele>313</ele>
        <time>2022-05-01T09:51:50.083Z</time>
      </trkpt>
      <trkpt lat="45.71377" lon="5.92597">
        <ele>313</ele>
        <time>2022-05-01T09:51:51.084Z</time>
      </trkpt>
      <trkpt lat="45.71382" lon="5.92598">
        <ele>313</ele>
        <time>2022-05-01T09:51:52.084Z</time>
      </trkpt>
      <trkpt lat="45.71386" lon="5.92599">
        <ele>313</ele>
        <time>2022-05-01T09:51:53.083Z</time>
      </trkpt>
      <trkpt lat="45.7139" lon="5.926">
        <ele>313</ele>
        <time>2022-05-01T09:51:54.083Z</time>
      </trkpt>
      <trkpt lat="45.71393" lon="5.92602">
        <ele>313</ele>
        <time>2022-05-01T09:51:55.084Z</time>
      </trkpt>
      <trkpt lat="45.71395" lon="5.92603">
        <ele>313</ele>
        <time>2022-05-01T09:51:56.083Z</time>
      </trkpt>
      <trkpt lat="45.71396" lon="5.92604">
        <ele>314</ele>
        <time>2022-05-01T09:51:57.084Z</time>
      </trkpt>
      <trkpt lat="45.71397" lon="5.92605">
        <ele>314</ele>
        <time>2022-05-01T09:51:58.084Z</time>
      </trkpt>
      <trkpt lat="45.71398" lon="5.92606">
        <ele>314</ele>
        <time>2022-05-01T09:51:59.084Z</time>
      </trkpt>
      <trkpt lat="45.71398" lon="5.92608">
        <ele>314</ele>
        <time>2022-05-01T09:52:00.084Z</time>
      </trkpt>
      <trkpt lat="45.71399" lon="5.9261">
        <ele>314</ele>
        <time>2022-05-01T09:52:01.083Z</time>
      </trkpt>
      <trkpt lat="45.71401" lon="5.92613">
        <ele>314</ele>
        <time>2022-05-01T09:52:02.083Z</time>
      </trkpt>
      <trkpt lat="45.71403" lon="5.92614">
        <ele>313</ele>
        <time>2022-05-01T09:52:03.084Z</time>
      </trkpt>
      <trkpt lat="45.71405" lon="5.92615">
        <ele>313</ele>
        <time>2022-05-01T09:52:04.084Z</time>
      </trkpt>
      <trkpt lat="45.71409" lon="5.92616">
        <ele>313</ele>
        <time>2022-05-01T09:52:05.083Z</time>
      </trkpt>
      <trkpt lat="45.71412" lon="5.92617">
        <ele>313</ele>
        <time>2022-05-01T09:52:06.084Z</time>
      </trkpt>
      <trkpt lat="45.71416" lon="5.92617">
        <ele>313</ele>
        <time>2022-05-01T09:52:07.084Z</time>
      </trkpt>
      <trkpt lat="45.71421" lon="5.92617">
        <ele>313</ele>
        <time>2022-05-01T09:52:08.083Z</time>
      </trkpt>
      <trkpt lat="45.71425" lon="5.92617">
        <ele>313</ele>
        <time>2022-05-01T09:52:09.084Z</time>
      </trkpt>
      <trkpt lat="45.71429" lon="5.92616">
        <ele>313</ele>
        <time>2022-05-01T09:52:10.084Z</time>
      </trkpt>
      <trkpt lat="45.71434" lon="5.92616">
        <ele>313</ele>
        <time>2022-05-01T09:52:11.084Z</time>
      </trkpt>
      <trkpt lat="45.71438" lon="5.92616">
        <ele>314</ele>
        <time>2022-05-01T09:52:12.084Z</time>
      </trkpt>
      <trkpt lat="45.71443" lon="5.92615">
        <ele>314</ele>
        <time>2022-05-01T09:52:13.084Z</time>
      </trkpt>
      <trkpt lat="45.71448" lon="5.92615">
        <ele>314</ele>
        <time>2022-05-01T09:52:14.084Z</time>
      </trkpt>
      <trkpt lat="45.71452" lon="5.92614">
        <ele>314</ele>
        <time>2022-05-01T09:52:15.083Z</time>
      </trkpt>
      <trkpt lat="45.71457" lon="5.92614">
        <ele>315</ele>
        <time>2022-05-01T09:52:16.084Z</time>
      </trkpt>
      <trkpt lat="45.71463" lon="5.92613">
        <ele>314</ele>
        <time>2022-05-01T09:52:17.084Z</time>
      </trkpt>
      <trkpt lat="45.71468" lon="5.92613">
        <ele>314</ele>
        <time>2022-05-01T09:52:18.084Z</time>
      </trkpt>
      <trkpt lat="45.71473" lon="5.92612">
        <ele>313</ele>
        <time>2022-05-01T09:52:19.084Z</time>
      </trkpt>
      <trkpt lat="45.71479" lon="5.92612">
        <ele>313</ele>
        <time>2022-05-01T09:52:20.084Z</time>
      </trkpt>
      <trkpt lat="45.71485" lon="5.92611">
        <ele>313</ele>
        <time>2022-05-01T09:52:21.083Z</time>
      </trkpt>
      <trkpt lat="45.71491" lon="5.92611">
        <ele>313</ele>
        <time>2022-05-01T09:52:22.084Z</time>
      </trkpt>
      <trkpt lat="45.71497" lon="5.92611">
        <ele>312</ele>
        <time>2022-05-01T09:52:23.084Z</time>
      </trkpt>
      <trkpt lat="45.71503" lon="5.9261">
        <ele>312</ele>
        <time>2022-05-01T09:52:24.084Z</time>
      </trkpt>
      <trkpt lat="45.71509" lon="5.92609">
        <ele>312</ele>
        <time>2022-05-01T09:52:25.084Z</time>
      </trkpt>
      <trkpt lat="45.71516" lon="5.92608">
        <ele>312</ele>
        <time>2022-05-01T09:52:26.083Z</time>
      </trkpt>
      <trkpt lat="45.71522" lon="5.92607">
        <ele>312</ele>
        <time>2022-05-01T09:52:27.083Z</time>
      </trkpt>
      <trkpt lat="45.71529" lon="5.92606">
        <ele>311</ele>
        <time>2022-05-01T09:52:28.084Z</time>
      </trkpt>
      <trkpt lat="45.71536" lon="5.92604">
        <ele>311</ele>
        <time>2022-05-01T09:52:29.084Z</time>
      </trkpt>
      <trkpt lat="45.71543" lon="5.92603">
        <ele>311</ele>
        <time>2022-05-01T09:52:30.083Z</time>
      </trkpt>
      <trkpt lat="45.71551" lon="5.92601">
        <ele>311</ele>
        <time>2022-05-01T09:52:31.083Z</time>
      </trkpt>
      <trkpt lat="45.71558" lon="5.926">
        <ele>310</ele>
        <time>2022-05-01T09:52:32.084Z</time>
      </trkpt>
      <trkpt lat="45.71565" lon="5.92598">
        <ele>310</ele>
        <time>2022-05-01T09:52:33.084Z</time>
      </trkpt>
      <trkpt lat="45.71573" lon="5.92596">
        <ele>309</ele>
        <time>2022-05-01T09:52:34.084Z</time>
      </trkpt>
      <trkpt lat="45.7158" lon="5.92595">
        <ele>309</ele>
        <time>2022-05-01T09:52:35.084Z</time>
      </trkpt>
      <trkpt lat="45.71587" lon="5.92594">
        <ele>308</ele>
        <time>2022-05-01T09:52:36.084Z</time>
      </trkpt>
      <trkpt lat="45.71594" lon="5.92593">
        <ele>308</ele>
        <time>2022-05-01T09:52:37.084Z</time>
      </trkpt>
      <trkpt lat="45.71602" lon="5.92593">
        <ele>307</ele>
        <time>2022-05-01T09:52:38.084Z</time>
      </trkpt>
      <trkpt lat="45.71609" lon="5.92592">
        <ele>307</ele>
        <time>2022-05-01T09:52:39.083Z</time>
      </trkpt>
      <trkpt lat="45.71615" lon="5.92591">
        <ele>307</ele>
        <time>2022-05-01T09:52:40.083Z</time>
      </trkpt>
      <trkpt lat="45.71622" lon="5.92591">
        <ele>306</ele>
        <time>2022-05-01T09:52:41.083Z</time>
      </trkpt>
      <trkpt lat="45.71629" lon="5.9259">
        <ele>306</ele>
        <time>2022-05-01T09:52:42.083Z</time>
      </trkpt>
      <trkpt lat="45.71636" lon="5.9259">
        <ele>306</ele>
        <time>2022-05-01T09:52:43.083Z</time>
      </trkpt>
      <trkpt lat="45.71642" lon="5.92589">
        <ele>306</ele>
        <time>2022-05-01T09:52:44.083Z</time>
      </trkpt>
      <trkpt lat="45.71649" lon="5.92588">
        <ele>306</ele>
        <time>2022-05-01T09:52:45.083Z</time>
      </trkpt>
      <trkpt lat="45.71656" lon="5.92588">
        <ele>306</ele>
        <time>2022-05-01T09:52:46.084Z</time>
      </trkpt>
      <trkpt lat="45.71662" lon="5.92587">
        <ele>306</ele>
        <time>2022-05-01T09:52:47.084Z</time>
      </trkpt>
      <trkpt lat="45.71669" lon="5.92587">
        <ele>306</ele>
        <time>2022-05-01T09:52:48.084Z</time>
      </trkpt>
      <trkpt lat="45.71675" lon="5.92587">
        <ele>306</ele>
        <time>2022-05-01T09:52:49.083Z</time>
      </trkpt>
      <trkpt lat="45.71682" lon="5.92586">
        <ele>306</ele>
        <time>2022-05-01T09:52:50.083Z</time>
      </trkpt>
      <trkpt lat="45.71688" lon="5.92585">
        <ele>306</ele>
        <time>2022-05-01T09:52:51.084Z</time>
      </trkpt>
      <trkpt lat="45.71694" lon="5.92585">
        <ele>306</ele>
        <time>2022-05-01T09:52:52.084Z</time>
      </trkpt>
      <trkpt lat="45.717" lon="5.92584">
        <ele>306</ele>
        <time>2022-05-01T09:52:53.084Z</time>
      </trkpt>
      <trkpt lat="45.71704" lon="5.92583">
        <ele>305</ele>
        <time>2022-05-01T09:52:54.084Z</time>
      </trkpt>
      <trkpt lat="45.71709" lon="5.92583">
        <ele>305</ele>
        <time>2022-05-01T09:52:55.084Z</time>
      </trkpt>
      <trkpt lat="45.71714" lon="5.92583">
        <ele>305</ele>
        <time>2022-05-01T09:52:56.084Z</time>
      </trkpt>
      <trkpt lat="45.71719" lon="5.92582">
        <ele>305</ele>
        <time>2022-05-01T09:52:57.083Z</time>
      </trkpt>
      <trkpt lat="45.71723" lon="5.92582">
        <ele>305</ele>
        <time>2022-05-01T09:52:58.084Z</time>
      </trkpt>
      <trkpt lat="45.71729" lon="5.92582">
        <ele>304</ele>
        <time>2022-05-01T09:52:59.084Z</time>
      </trkpt>
      <trkpt lat="45.71733" lon="5.92582">
        <ele>304</ele>
        <time>2022-05-01T09:53:00.084Z</time>
      </trkpt>
      <trkpt lat="45.71738" lon="5.92582">
        <ele>304</ele>
        <time>2022-05-01T09:53:01.084Z</time>
      </trkpt>
      <trkpt lat="45.71742" lon="5.92581">
        <ele>304</ele>
        <time>2022-05-01T09:53:02.083Z</time>
      </trkpt>
      <trkpt lat="45.71747" lon="5.92581">
        <ele>303</ele>
        <time>2022-05-01T09:53:03.084Z</time>
      </trkpt>
      <trkpt lat="45.71752" lon="5.92581">
        <ele>303</ele>
        <time>2022-05-01T09:53:04.084Z</time>
      </trkpt>
      <trkpt lat="45.71757" lon="5.92581">
        <ele>303</ele>
        <time>2022-05-01T09:53:05.083Z</time>
      </trkpt>
      <trkpt lat="45.71761" lon="5.92581">
        <ele>303</ele>
        <time>2022-05-01T09:53:06.084Z</time>
      </trkpt>
      <trkpt lat="45.71766" lon="5.9258">
        <ele>303</ele>
        <time>2022-05-01T09:53:07.083Z</time>
      </trkpt>
      <trkpt lat="45.71771" lon="5.9258">
        <ele>302</ele>
        <time>2022-05-01T09:53:08.084Z</time>
      </trkpt>
      <trkpt lat="45.71775" lon="5.9258">
        <ele>302</ele>
        <time>2022-05-01T09:53:09.084Z</time>
      </trkpt>
      <trkpt lat="45.7178" lon="5.9258">
        <ele>302</ele>
        <time>2022-05-01T09:53:10.084Z</time>
      </trkpt>
      <trkpt lat="45.71785" lon="5.92579">
        <ele>301</ele>
        <time>2022-05-01T09:53:11.084Z</time>
      </trkpt>
      <trkpt lat="45.7179" lon="5.92579">
        <ele>301</ele>
        <time>2022-05-01T09:53:12.084Z</time>
      </trkpt>
      <trkpt lat="45.71795" lon="5.92578">
        <ele>301</ele>
        <time>2022-05-01T09:53:13.084Z</time>
      </trkpt>
      <trkpt lat="45.718" lon="5.92578">
        <ele>301</ele>
        <time>2022-05-01T09:53:14.084Z</time>
      </trkpt>
      <trkpt lat="45.71805" lon="5.92577">
        <ele>301</ele>
        <time>2022-05-01T09:53:15.083Z</time>
      </trkpt>
      <trkpt lat="45.71811" lon="5.92577">
        <ele>302</ele>
        <time>2022-05-01T09:53:16.084Z</time>
      </trkpt>
      <trkpt lat="45.71816" lon="5.92577">
        <ele>302</ele>
        <time>2022-05-01T09:53:17.084Z</time>
      </trkpt>
      <trkpt lat="45.71821" lon="5.92576">
        <ele>302</ele>
        <time>2022-05-01T09:53:18.083Z</time>
      </trkpt>
      <trkpt lat="45.71825" lon="5.92574">
        <ele>301</ele>
        <time>2022-05-01T09:53:19.083Z</time>
      </trkpt>
      <trkpt lat="45.7183" lon="5.92572">
        <ele>301</ele>
        <time>2022-05-01T09:53:20.083Z</time>
      </trkpt>
      <trkpt lat="45.71834" lon="5.92569">
        <ele>301</ele>
        <time>2022-05-01T09:53:21.083Z</time>
      </trkpt>
      <trkpt lat="45.71838" lon="5.92565">
        <ele>301</ele>
        <time>2022-05-01T09:53:22.084Z</time>
      </trkpt>
      <trkpt lat="45.71841" lon="5.9256">
        <ele>301</ele>
        <time>2022-05-01T09:53:23.083Z</time>
      </trkpt>
      <trkpt lat="45.71844" lon="5.92553">
        <ele>301</ele>
        <time>2022-05-01T09:53:24.083Z</time>
      </trkpt>
      <trkpt lat="45.71847" lon="5.92546">
        <ele>300</ele>
        <time>2022-05-01T09:53:25.083Z</time>
      </trkpt>
      <trkpt lat="45.7185" lon="5.92539">
        <ele>300</ele>
        <time>2022-05-01T09:53:26.084Z</time>
      </trkpt>
      <trkpt lat="45.71853" lon="5.92533">
        <ele>301</ele>
        <time>2022-05-01T09:53:27.084Z</time>
      </trkpt>
      <trkpt lat="45.71857" lon="5.92529">
        <ele>301</ele>
        <time>2022-05-01T09:53:28.083Z</time>
      </trkpt>
      <trkpt lat="45.71862" lon="5.92526">
        <ele>301</ele>
        <time>2022-05-01T09:53:29.083Z</time>
      </trkpt>
      <trkpt lat="45.71867" lon="5.92526">
        <ele>300</ele>
        <time>2022-05-01T09:53:30.083Z</time>
      </trkpt>
      <trkpt lat="45.71872" lon="5.92527">
        <ele>300</ele>
        <time>2022-05-01T09:53:31.084Z</time>
      </trkpt>
      <trkpt lat="45.71877" lon="5.92529">
        <ele>300</ele>
        <time>2022-05-01T09:53:32.084Z</time>
      </trkpt>
      <trkpt lat="45.71881" lon="5.92533">
        <ele>300</ele>
        <time>2022-05-01T09:53:33.084Z</time>
      </trkpt>
      <trkpt lat="45.71884" lon="5.92537">
        <ele>300</ele>
        <time>2022-05-01T09:53:34.083Z</time>
      </trkpt>
      <trkpt lat="45.71887" lon="5.92541">
        <ele>300</ele>
        <time>2022-05-01T09:53:35.083Z</time>
      </trkpt>
      <trkpt lat="45.7189" lon="5.92545">
        <ele>299</ele>
        <time>2022-05-01T09:53:36.084Z</time>
      </trkpt>
      <trkpt lat="45.71893" lon="5.92549">
        <ele>299</ele>
        <time>2022-05-01T09:53:37.084Z</time>
      </trkpt>
      <trkpt lat="45.71896" lon="5.92554">
        <ele>300</ele>
        <time>2022-05-01T09:53:38.084Z</time>
      </trkpt>
      <trkpt lat="45.71898" lon="5.92558">
        <ele>300</ele>
        <time>2022-05-01T09:53:39.084Z</time>
      </trkpt>
      <trkpt lat="45.71901" lon="5.92562">
        <ele>300</ele>
        <time>2022-05-01T09:53:40.084Z</time>
      </trkpt>
      <trkpt lat="45.71903" lon="5.92566">
        <ele>300</ele>
        <time>2022-05-01T09:53:41.084Z</time>
      </trkpt>
      <trkpt lat="45.71906" lon="5.92569">
        <ele>300</ele>
        <time>2022-05-01T09:53:42.084Z</time>
      </trkpt>
      <trkpt lat="45.71909" lon="5.92571">
        <ele>300</ele>
        <time>2022-05-01T09:53:43.083Z</time>
      </trkpt>
      <trkpt lat="45.71913" lon="5.92574">
        <ele>301</ele>
        <time>2022-05-01T09:53:44.084Z</time>
      </trkpt>
      <trkpt lat="45.71917" lon="5.92576">
        <ele>301</ele>
        <time>2022-05-01T09:53:45.084Z</time>
      </trkpt>
      <trkpt lat="45.7192" lon="5.92577">
        <ele>301</ele>
        <time>2022-05-01T09:53:46.084Z</time>
      </trkpt>
      <trkpt lat="45.71924" lon="5.92578">
        <ele>302</ele>
        <time>2022-05-01T09:53:47.084Z</time>
      </trkpt>
      <trkpt lat="45.71928" lon="5.9258">
        <ele>302</ele>
        <time>2022-05-01T09:53:48.083Z</time>
      </trkpt>
      <trkpt lat="45.71931" lon="5.92581">
        <ele>302</ele>
        <time>2022-05-01T09:53:49.084Z</time>
      </trkpt>
      <trkpt lat="45.71934" lon="5.92582">
        <ele>302</ele>
        <time>2022-05-01T09:53:50.083Z</time>
      </trkpt>
      <trkpt lat="45.71938" lon="5.92583">
        <ele>302</ele>
        <time>2022-05-01T09:53:51.084Z</time>
      </trkpt>
      <trkpt lat="45.7194" lon="5.92583">
        <ele>302</ele>
        <time>2022-05-01T09:53:52.084Z</time>
      </trkpt>
      <trkpt lat="45.71944" lon="5.92584">
        <ele>302</ele>
        <time>2022-05-01T09:53:53.083Z</time>
      </trkpt>
      <trkpt lat="45.71946" lon="5.92584">
        <ele>302</ele>
        <time>2022-05-01T09:53:54.084Z</time>
      </trkpt>
      <trkpt lat="45.71949" lon="5.92584">
        <ele>302</ele>
        <time>2022-05-01T09:53:55.084Z</time>
      </trkpt>
      <trkpt lat="45.71952" lon="5.92585">
        <ele>302</ele>
        <time>2022-05-01T09:53:56.084Z</time>
      </trkpt>
      <trkpt lat="45.71955" lon="5.92586">
        <ele>302</ele>
        <time>2022-05-01T09:53:57.084Z</time>
      </trkpt>
      <trkpt lat="45.71958" lon="5.92587">
        <ele>302</ele>
        <time>2022-05-01T09:53:58.084Z</time>
      </trkpt>
      <trkpt lat="45.71961" lon="5.92588">
        <ele>302</ele>
        <time>2022-05-01T09:53:59.084Z</time>
      </trkpt>
      <trkpt lat="45.71964" lon="5.92589">
        <ele>302</ele>
        <time>2022-05-01T09:54:00.083Z</time>
      </trkpt>
      <trkpt lat="45.71967" lon="5.92589">
        <ele>302</ele>
        <time>2022-05-01T09:54:01.084Z</time>
      </trkpt>
      <trkpt lat="45.7197" lon="5.9259">
        <ele>302</ele>
        <time>2022-05-01T09:54:02.084Z</time>
      </trkpt>
      <trkpt lat="45.71973" lon="5.92591">
        <ele>302</ele>
        <time>2022-05-01T09:54:03.083Z</time>
      </trkpt>
      <trkpt lat="45.71976" lon="5.92591">
        <ele>302</ele>
        <time>2022-05-01T09:54:04.083Z</time>
      </trkpt>
      <trkpt lat="45.71979" lon="5.92592">
        <ele>302</ele>
        <time>2022-05-01T09:54:05.083Z</time>
      </trkpt>
      <trkpt lat="45.71982" lon="5.92592">
        <ele>303</ele>
        <time>2022-05-01T09:54:06.084Z</time>
      </trkpt>
      <trkpt lat="45.71984" lon="5.92593">
        <ele>303</ele>
        <time>2022-05-01T09:54:07.083Z</time>
      </trkpt>
      <trkpt lat="45.71987" lon="5.92594">
        <ele>304</ele>
        <time>2022-05-01T09:54:08.084Z</time>
      </trkpt>
      <trkpt lat="45.7199" lon="5.92594">
        <ele>304</ele>
        <time>2022-05-01T09:54:09.083Z</time>
      </trkpt>
      <trkpt lat="45.71993" lon="5.92594">
        <ele>305</ele>
        <time>2022-05-01T09:54:10.084Z</time>
      </trkpt>
      <trkpt lat="45.71996" lon="5.92595">
        <ele>305</ele>
        <time>2022-05-01T09:54:11.084Z</time>
      </trkpt>
      <trkpt lat="45.71998" lon="5.92596">
        <ele>305</ele>
        <time>2022-05-01T09:54:12.084Z</time>
      </trkpt>
      <trkpt lat="45.72001" lon="5.92597">
        <ele>305</ele>
        <time>2022-05-01T09:54:13.084Z</time>
      </trkpt>
      <trkpt lat="45.72003" lon="5.92598">
        <ele>304</ele>
        <time>2022-05-01T09:54:14.084Z</time>
      </trkpt>
      <trkpt lat="45.72006" lon="5.92599">
        <ele>304</ele>
        <time>2022-05-01T09:54:15.083Z</time>
      </trkpt>
      <trkpt lat="45.72009" lon="5.926">
        <ele>304</ele>
        <time>2022-05-01T09:54:16.083Z</time>
      </trkpt>
      <trkpt lat="45.72011" lon="5.92602">
        <ele>305</ele>
        <time>2022-05-01T09:54:17.084Z</time>
      </trkpt>
      <trkpt lat="45.72014" lon="5.92603">
        <ele>305</ele>
        <time>2022-05-01T09:54:18.083Z</time>
      </trkpt>
      <trkpt lat="45.72017" lon="5.92604">
        <ele>305</ele>
        <time>2022-05-01T09:54:19.084Z</time>
      </trkpt>
      <trkpt lat="45.72019" lon="5.92605">
        <ele>305</ele>
        <time>2022-05-01T09:54:20.083Z</time>
      </trkpt>
      <trkpt lat="45.72022" lon="5.92607">
        <ele>305</ele>
        <time>2022-05-01T09:54:21.083Z</time>
      </trkpt>
      <trkpt lat="45.72024" lon="5.92608">
        <ele>305</ele>
        <time>2022-05-01T09:54:22.084Z</time>
      </trkpt>
      <trkpt lat="45.72026" lon="5.92609">
        <ele>306</ele>
        <time>2022-05-01T09:54:23.083Z</time>
      </trkpt>
      <trkpt lat="45.72028" lon="5.9261">
        <ele>306</ele>
        <time>2022-05-01T09:54:24.083Z</time>
      </trkpt>
      <trkpt lat="45.7203" lon="5.92611">
        <ele>306</ele>
        <time>2022-05-01T09:54:25.083Z</time>
      </trkpt>
      <trkpt lat="45.72032" lon="5.92612">
        <ele>306</ele>
        <time>2022-05-01T09:54:26.083Z</time>
      </trkpt>
      <trkpt lat="45.72034" lon="5.92613">
        <ele>307</ele>
        <time>2022-05-01T09:54:27.083Z</time>
      </trkpt>
      <trkpt lat="45.72035" lon="5.92614">
        <ele>307</ele>
        <time>2022-05-01T09:54:28.083Z</time>
      </trkpt>
      <trkpt lat="45.72037" lon="5.92615">
        <ele>308</ele>
        <time>2022-05-01T09:54:29.083Z</time>
      </trkpt>
      <trkpt lat="45.72039" lon="5.92616">
        <ele>308</ele>
        <time>2022-05-01T09:54:30.083Z</time>
      </trkpt>
      <trkpt lat="45.72041" lon="5.92618">
        <ele>308</ele>
        <time>2022-05-01T09:54:31.084Z</time>
      </trkpt>
      <trkpt lat="45.72043" lon="5.92619">
        <ele>307</ele>
        <time>2022-05-01T09:54:32.084Z</time>
      </trkpt>
      <trkpt lat="45.72045" lon="5.92621">
        <ele>307</ele>
        <time>2022-05-01T09:54:33.084Z</time>
      </trkpt>
      <trkpt lat="45.72047" lon="5.92622">
        <ele>308</ele>
        <time>2022-05-01T09:54:34.083Z</time>
      </trkpt>
      <trkpt lat="45.72049" lon="5.92624">
        <ele>308</ele>
        <time>2022-05-01T09:54:35.083Z</time>
      </trkpt>
      <trkpt lat="45.72051" lon="5.92625">
        <ele>308</ele>
        <time>2022-05-01T09:54:36.084Z</time>
      </trkpt>
      <trkpt lat="45.72053" lon="5.92626">
        <ele>309</ele>
        <time>2022-05-01T09:54:37.084Z</time>
      </trkpt>
      <trkpt lat="45.72055" lon="5.92627">
        <ele>309</ele>
        <time>2022-05-01T09:54:38.083Z</time>
      </trkpt>
      <trkpt lat="45.72057" lon="5.92628">
        <ele>309</ele>
        <time>2022-05-01T09:54:39.083Z</time>
      </trkpt>
      <trkpt lat="45.72059" lon="5.92629">
        <ele>310</ele>
        <time>2022-05-01T09:54:40.083Z</time>
      </trkpt>
      <trkpt lat="45.72061" lon="5.92629">
        <ele>310</ele>
        <time>2022-05-01T09:54:41.084Z</time>
      </trkpt>
      <trkpt lat="45.72063" lon="5.9263">
        <ele>311</ele>
        <time>2022-05-01T09:54:42.084Z</time>
      </trkpt>
      <trkpt lat="45.72065" lon="5.9263">
        <ele>312</ele>
        <time>2022-05-01T09:54:43.083Z</time>
      </trkpt>
      <trkpt lat="45.72067" lon="5.92631">
        <ele>312</ele>
        <time>2022-05-01T09:54:44.083Z</time>
      </trkpt>
      <trkpt lat="45.72069" lon="5.92632">
        <ele>313</ele>
        <time>2022-05-01T09:54:45.083Z</time>
      </trkpt>
      <trkpt lat="45.72071" lon="5.92633">
        <ele>313</ele>
        <time>2022-05-01T09:54:46.084Z</time>
      </trkpt>
      <trkpt lat="45.72073" lon="5.92633">
        <ele>314</ele>
        <time>2022-05-01T09:54:47.083Z</time>
      </trkpt>
      <trkpt lat="45.72076" lon="5.92634">
        <ele>314</ele>
        <time>2022-05-01T09:54:48.083Z</time>
      </trkpt>
      <trkpt lat="45.72078" lon="5.92635">
        <ele>314</ele>
        <time>2022-05-01T09:54:49.083Z</time>
      </trkpt>
      <trkpt lat="45.7208" lon="5.92636">
        <ele>314</ele>
        <time>2022-05-01T09:54:50.083Z</time>
      </trkpt>
      <trkpt lat="45.72083" lon="5.92637">
        <ele>314</ele>
        <time>2022-05-01T09:54:51.084Z</time>
      </trkpt>
      <trkpt lat="45.72085" lon="5.92638">
        <ele>315</ele>
        <time>2022-05-01T09:54:52.084Z</time>
      </trkpt>
      <trkpt lat="45.72087" lon="5.92639">
        <ele>314</ele>
        <time>2022-05-01T09:54:53.083Z</time>
      </trkpt>
      <trkpt lat="45.72089" lon="5.9264">
        <ele>315</ele>
        <time>2022-05-01T09:54:54.083Z</time>
      </trkpt>
      <trkpt lat="45.72091" lon="5.92641">
        <ele>315</ele>
        <time>2022-05-01T09:54:55.084Z</time>
      </trkpt>
      <trkpt lat="45.72093" lon="5.92642">
        <ele>315</ele>
        <time>2022-05-01T09:54:56.083Z</time>
      </trkpt>
      <trkpt lat="45.72095" lon="5.92643">
        <ele>315</ele>
        <time>2022-05-01T09:54:57.084Z</time>
      </trkpt>
      <trkpt lat="45.72098" lon="5.92645">
        <ele>315</ele>
        <time>2022-05-01T09:54:58.083Z</time>
      </trkpt>
      <trkpt lat="45.721" lon="5.92646">
        <ele>316</ele>
        <time>2022-05-01T09:54:59.083Z</time>
      </trkpt>
      <trkpt lat="45.72102" lon="5.92648">
        <ele>316</ele>
        <time>2022-05-01T09:55:00.084Z</time>
      </trkpt>
      <trkpt lat="45.72104" lon="5.92649">
        <ele>316</ele>
        <time>2022-05-01T09:55:01.083Z</time>
      </trkpt>
      <trkpt lat="45.72106" lon="5.92651">
        <ele>317</ele>
        <time>2022-05-01T09:55:02.083Z</time>
      </trkpt>
      <trkpt lat="45.72107" lon="5.92653">
        <ele>317</ele>
        <time>2022-05-01T09:55:03.083Z</time>
      </trkpt>
      <trkpt lat="45.72108" lon="5.92656">
        <ele>317</ele>
        <time>2022-05-01T09:55:04.084Z</time>
      </trkpt>
      <trkpt lat="45.72109" lon="5.9266">
        <ele>317</ele>
        <time>2022-05-01T09:55:05.084Z</time>
      </trkpt>
      <trkpt lat="45.7211" lon="5.92662">
        <ele>317</ele>
        <time>2022-05-01T09:55:06.084Z</time>
      </trkpt>
      <trkpt lat="45.7211" lon="5.92665">
        <ele>317</ele>
        <time>2022-05-01T09:55:07.083Z</time>
      </trkpt>
      <trkpt lat="45.72111" lon="5.92668">
        <ele>317</ele>
        <time>2022-05-01T09:55:08.083Z</time>
      </trkpt>
      <trkpt lat="45.72112" lon="5.9267">
        <ele>317</ele>
        <time>2022-05-01T09:55:09.084Z</time>
      </trkpt>
      <trkpt lat="45.72112" lon="5.92673">
        <ele>317</ele>
        <time>2022-05-01T09:55:10.083Z</time>
      </trkpt>
      <trkpt lat="45.72113" lon="5.92675">
        <ele>317</ele>
        <time>2022-05-01T09:55:11.084Z</time>
      </trkpt>
      <trkpt lat="45.72113" lon="5.92677">
        <ele>317</ele>
        <time>2022-05-01T09:55:12.084Z</time>
      </trkpt>
      <trkpt lat="45.72115" lon="5.92679">
        <ele>317</ele>
        <time>2022-05-01T09:55:13.084Z</time>
      </trkpt>
      <trkpt lat="45.72116" lon="5.92681">
        <ele>316</ele>
        <time>2022-05-01T09:55:14.084Z</time>
      </trkpt>
      <trkpt lat="45.72118" lon="5.92682">
        <ele>316</ele>
        <time>2022-05-01T09:55:15.084Z</time>
      </trkpt>
      <trkpt lat="45.72121" lon="5.92682">
        <ele>316</ele>
        <time>2022-05-01T09:55:16.084Z</time>
      </trkpt>
      <trkpt lat="45.72124" lon="5.9268">
        <ele>316</ele>
        <time>2022-05-01T09:55:17.084Z</time>
      </trkpt>
      <trkpt lat="45.72128" lon="5.92678">
        <ele>316</ele>
        <time>2022-05-01T09:55:18.083Z</time>
      </trkpt>
      <trkpt lat="45.72132" lon="5.92675">
        <ele>316</ele>
        <time>2022-05-01T09:55:19.084Z</time>
      </trkpt>
      <trkpt lat="45.72137" lon="5.92673">
        <ele>316</ele>
        <time>2022-05-01T09:55:20.084Z</time>
      </trkpt>
      <trkpt lat="45.72142" lon="5.9267">
        <ele>315</ele>
        <time>2022-05-01T09:55:21.084Z</time>
      </trkpt>
      <trkpt lat="45.72147" lon="5.92667">
        <ele>315</ele>
        <time>2022-05-01T09:55:22.084Z</time>
      </trkpt>
      <trkpt lat="45.72153" lon="5.92663">
        <ele>314</ele>
        <time>2022-05-01T09:55:23.084Z</time>
      </trkpt>
      <trkpt lat="45.72159" lon="5.9266">
        <ele>314</ele>
        <time>2022-05-01T09:55:24.084Z</time>
      </trkpt>
      <trkpt lat="45.72165" lon="5.92658">
        <ele>313</ele>
        <time>2022-05-01T09:55:25.084Z</time>
      </trkpt>
      <trkpt lat="45.72172" lon="5.92655">
        <ele>313</ele>
        <time>2022-05-01T09:55:26.084Z</time>
      </trkpt>
      <trkpt lat="45.72178" lon="5.92652">
        <ele>312</ele>
        <time>2022-05-01T09:55:27.084Z</time>
      </trkpt>
      <trkpt lat="45.72186" lon="5.9265">
        <ele>312</ele>
        <time>2022-05-01T09:55:28.084Z</time>
      </trkpt>
      <trkpt lat="45.72193" lon="5.92647">
        <ele>312</ele>
        <time>2022-05-01T09:55:29.084Z</time>
      </trkpt>
      <trkpt lat="45.72201" lon="5.92644">
        <ele>311</ele>
        <time>2022-05-01T09:55:30.084Z</time>
      </trkpt>
      <trkpt lat="45.72209" lon="5.92641">
        <ele>311</ele>
        <time>2022-05-01T09:55:31.083Z</time>
      </trkpt>
      <trkpt lat="45.72217" lon="5.92638">
        <ele>311</ele>
        <time>2022-05-01T09:55:32.083Z</time>
      </trkpt>
      <trkpt lat="45.72225" lon="5.92635">
        <ele>310</ele>
        <time>2022-05-01T09:55:33.083Z</time>
      </trkpt>
      <trkpt lat="45.72233" lon="5.92632">
        <ele>310</ele>
        <time>2022-05-01T09:55:34.083Z</time>
      </trkpt>
      <trkpt lat="45.72242" lon="5.92629">
        <ele>310</ele>
        <time>2022-05-01T09:55:35.083Z</time>
      </trkpt>
      <trkpt lat="45.7225" lon="5.92627">
        <ele>310</ele>
        <time>2022-05-01T09:55:36.083Z</time>
      </trkpt>
      <trkpt lat="45.72259" lon="5.92627">
        <ele>309</ele>
        <time>2022-05-01T09:55:37.084Z</time>
      </trkpt>
      <trkpt lat="45.72268" lon="5.92629">
        <ele>309</ele>
        <time>2022-05-01T09:55:38.084Z</time>
      </trkpt>
      <trkpt lat="45.72277" lon="5.92633">
        <ele>308</ele>
        <time>2022-05-01T09:55:39.084Z</time>
      </trkpt>
      <trkpt lat="45.72285" lon="5.92638">
        <ele>307</ele>
        <time>2022-05-01T09:55:40.084Z</time>
      </trkpt>
      <trkpt lat="45.72293" lon="5.92643">
        <ele>307</ele>
        <time>2022-05-01T09:55:41.084Z</time>
      </trkpt>
      <trkpt lat="45.72301" lon="5.92649">
        <ele>306</ele>
        <time>2022-05-01T09:55:42.084Z</time>
      </trkpt>
      <trkpt lat="45.72307" lon="5.92655">
        <ele>306</ele>
        <time>2022-05-01T09:55:43.084Z</time>
      </trkpt>
      <trkpt lat="45.72314" lon="5.92661">
        <ele>305</ele>
        <time>2022-05-01T09:55:44.084Z</time>
      </trkpt>
      <trkpt lat="45.7232" lon="5.92667">
        <ele>304</ele>
        <time>2022-05-01T09:55:45.084Z</time>
      </trkpt>
      <trkpt lat="45.72324" lon="5.92672">
        <ele>304</ele>
        <time>2022-05-01T09:55:46.084Z</time>
      </trkpt>
      <trkpt lat="45.72329" lon="5.92677">
        <ele>304</ele>
        <time>2022-05-01T09:55:47.083Z</time>
      </trkpt>
      <trkpt lat="45.72332" lon="5.9268">
        <ele>303</ele>
        <time>2022-05-01T09:55:48.084Z</time>
      </trkpt>
      <trkpt lat="45.72335" lon="5.92683">
        <ele>303</ele>
        <time>2022-05-01T09:55:49.083Z</time>
      </trkpt>
      <trkpt lat="45.72336" lon="5.92684">
        <ele>303</ele>
        <time>2022-05-01T09:55:50.083Z</time>
      </trkpt>
      <trkpt lat="45.72336" lon="5.92685">
        <ele>302</ele>
        <time>2022-05-01T09:55:51.084Z</time>
      </trkpt>
      <trkpt lat="45.72336" lon="5.92686">
        <ele>302</ele>
        <time>2022-05-01T09:55:52.084Z</time>
      </trkpt>
      <trkpt lat="45.72336" lon="5.92686">
        <ele>302</ele>
        <time>2022-05-01T09:55:53.084Z</time>
      </trkpt>
      <trkpt lat="45.72338" lon="5.92689">
        <ele>301</ele>
        <time>2022-05-01T09:57:02.214Z</time>
      </trkpt>
      <trkpt lat="45.72341" lon="5.92692">
        <ele>301</ele>
        <time>2022-05-01T09:57:03.215Z</time>
      </trkpt>
      <trkpt lat="45.72344" lon="5.92696">
        <ele>301</ele>
        <time>2022-05-01T09:57:04.215Z</time>
      </trkpt>
      <trkpt lat="45.72347" lon="5.92701">
        <ele>300</ele>
        <time>2022-05-01T09:57:05.215Z</time>
      </trkpt>
      <trkpt lat="45.72351" lon="5.92707">
        <ele>300</ele>
        <time>2022-05-01T09:57:06.215Z</time>
      </trkpt>
      <trkpt lat="45.72354" lon="5.92712">
        <ele>300</ele>
        <time>2022-05-01T09:57:07.215Z</time>
      </trkpt>
      <trkpt lat="45.72357" lon="5.92718">
        <ele>299</ele>
        <time>2022-05-01T09:57:08.215Z</time>
      </trkpt>
      <trkpt lat="45.72361" lon="5.92723">
        <ele>299</ele>
        <time>2022-05-01T09:57:09.215Z</time>
      </trkpt>
      <trkpt lat="45.72364" lon="5.92729">
        <ele>299</ele>
        <time>2022-05-01T09:57:10.214Z</time>
      </trkpt>
      <trkpt lat="45.72367" lon="5.92734">
        <ele>299</ele>
        <time>2022-05-01T09:57:11.214Z</time>
      </trkpt>
      <trkpt lat="45.72371" lon="5.92739">
        <ele>299</ele>
        <time>2022-05-01T09:57:12.215Z</time>
      </trkpt>
      <trkpt lat="45.72373" lon="5.92742">
        <ele>299</ele>
        <time>2022-05-01T09:57:13.215Z</time>
      </trkpt>
      <trkpt lat="45.72377" lon="5.92746">
        <ele>299</ele>
        <time>2022-05-01T09:57:14.215Z</time>
      </trkpt>
      <trkpt lat="45.7238" lon="5.92748">
        <ele>299</ele>
        <time>2022-05-01T09:57:15.214Z</time>
      </trkpt>
      <trkpt lat="45.72384" lon="5.92749">
        <ele>298</ele>
        <time>2022-05-01T09:57:16.214Z</time>
      </trkpt>
      <trkpt lat="45.72386" lon="5.92748">
        <ele>298</ele>
        <time>2022-05-01T09:57:17.215Z</time>
      </trkpt>
      <trkpt lat="45.72389" lon="5.92746">
        <ele>298</ele>
        <time>2022-05-01T09:57:18.215Z</time>
      </trkpt>
      <trkpt lat="45.72391" lon="5.92744">
        <ele>298</ele>
        <time>2022-05-01T09:57:19.215Z</time>
      </trkpt>
      <trkpt lat="45.72394" lon="5.92742">
        <ele>298</ele>
        <time>2022-05-01T09:57:20.214Z</time>
      </trkpt>
      <trkpt lat="45.72397" lon="5.92739">
        <ele>298</ele>
        <time>2022-05-01T09:57:21.214Z</time>
      </trkpt>
      <trkpt lat="45.724" lon="5.92735">
        <ele>298</ele>
        <time>2022-05-01T09:57:22.215Z</time>
      </trkpt>
      <trkpt lat="45.72403" lon="5.92731">
        <ele>299</ele>
        <time>2022-05-01T09:57:23.214Z</time>
      </trkpt>
      <trkpt lat="45.72405" lon="5.92728">
        <ele>299</ele>
        <time>2022-05-01T09:57:24.214Z</time>
      </trkpt>
      <trkpt lat="45.72409" lon="5.92723">
        <ele>299</ele>
        <time>2022-05-01T09:57:25.214Z</time>
      </trkpt>
      <trkpt lat="45.72413" lon="5.92718">
        <ele>299</ele>
        <time>2022-05-01T09:57:26.215Z</time>
      </trkpt>
      <trkpt lat="45.72415" lon="5.92715">
        <ele>299</ele>
        <time>2022-05-01T09:57:27.214Z</time>
      </trkpt>
      <trkpt lat="45.72417" lon="5.9271">
        <ele>300</ele>
        <time>2022-05-01T09:57:28.214Z</time>
      </trkpt>
      <trkpt lat="45.72419" lon="5.92704">
        <ele>300</ele>
        <time>2022-05-01T09:57:29.214Z</time>
      </trkpt>
      <trkpt lat="45.72421" lon="5.92699">
        <ele>299</ele>
        <time>2022-05-01T09:57:30.214Z</time>
      </trkpt>
      <trkpt lat="45.72423" lon="5.92694">
        <ele>299</ele>
        <time>2022-05-01T09:57:31.215Z</time>
      </trkpt>
      <trkpt lat="45.72425" lon="5.92688">
        <ele>299</ele>
        <time>2022-05-01T09:57:32.214Z</time>
      </trkpt>
      <trkpt lat="45.72426" lon="5.92682">
        <ele>299</ele>
        <time>2022-05-01T09:57:33.214Z</time>
      </trkpt>
      <trkpt lat="45.72428" lon="5.92676">
        <ele>299</ele>
        <time>2022-05-01T09:57:34.214Z</time>
      </trkpt>
      <trkpt lat="45.72429" lon="5.9267">
        <ele>299</ele>
        <time>2022-05-01T09:57:35.214Z</time>
      </trkpt>
      <trkpt lat="45.72431" lon="5.92665">
        <ele>298</ele>
        <time>2022-05-01T09:57:36.214Z</time>
      </trkpt>
      <trkpt lat="45.72432" lon="5.92659">
        <ele>298</ele>
        <time>2022-05-01T09:57:37.215Z</time>
      </trkpt>
      <trkpt lat="45.72434" lon="5.92653">
        <ele>298</ele>
        <time>2022-05-01T09:57:38.214Z</time>
      </trkpt>
      <trkpt lat="45.72436" lon="5.92647">
        <ele>298</ele>
        <time>2022-05-01T09:57:39.214Z</time>
      </trkpt>
      <trkpt lat="45.72437" lon="5.92641">
        <ele>298</ele>
        <time>2022-05-01T09:57:40.215Z</time>
      </trkpt>
      <trkpt lat="45.72439" lon="5.92635">
        <ele>298</ele>
        <time>2022-05-01T09:57:41.215Z</time>
      </trkpt>
      <trkpt lat="45.72441" lon="5.9263">
        <ele>298</ele>
        <time>2022-05-01T09:57:42.215Z</time>
      </trkpt>
      <trkpt lat="45.72443" lon="5.92624">
        <ele>298</ele>
        <time>2022-05-01T09:57:43.214Z</time>
      </trkpt>
      <trkpt lat="45.72445" lon="5.92619">
        <ele>298</ele>
        <time>2022-05-01T09:57:44.214Z</time>
      </trkpt>
      <trkpt lat="45.72448" lon="5.92613">
        <ele>298</ele>
        <time>2022-05-01T09:57:45.214Z</time>
      </trkpt>
      <trkpt lat="45.7245" lon="5.92608">
        <ele>298</ele>
        <time>2022-05-01T09:57:46.215Z</time>
      </trkpt>
      <trkpt lat="45.72453" lon="5.92603">
        <ele>298</ele>
        <time>2022-05-01T09:57:47.215Z</time>
      </trkpt>
      <trkpt lat="45.72456" lon="5.92599">
        <ele>298</ele>
        <time>2022-05-01T09:57:48.214Z</time>
      </trkpt>
      <trkpt lat="45.7246" lon="5.92595">
        <ele>298</ele>
        <time>2022-05-01T09:57:49.215Z</time>
      </trkpt>
      <trkpt lat="45.72463" lon="5.92592">
        <ele>298</ele>
        <time>2022-05-01T09:57:50.215Z</time>
      </trkpt>
      <trkpt lat="45.72466" lon="5.92589">
        <ele>298</ele>
        <time>2022-05-01T09:57:51.215Z</time>
      </trkpt>
      <trkpt lat="45.72469" lon="5.92587">
        <ele>298</ele>
        <time>2022-05-01T09:57:52.215Z</time>
      </trkpt>
      <trkpt lat="45.72473" lon="5.92586">
        <ele>298</ele>
        <time>2022-05-01T09:57:53.214Z</time>
      </trkpt>
      <trkpt lat="45.72476" lon="5.92586">
        <ele>298</ele>
        <time>2022-05-01T09:57:54.214Z</time>
      </trkpt>
      <trkpt lat="45.72479" lon="5.92585">
        <ele>298</ele>
        <time>2022-05-01T09:57:55.214Z</time>
      </trkpt>
      <trkpt lat="45.72482" lon="5.92585">
        <ele>298</ele>
        <time>2022-05-01T09:57:56.215Z</time>
      </trkpt>
      <trkpt lat="45.72485" lon="5.92585">
        <ele>298</ele>
        <time>2022-05-01T09:57:57.214Z</time>
      </trkpt>
      <trkpt lat="45.72487" lon="5.92585">
        <ele>298</ele>
        <time>2022-05-01T09:57:58.214Z</time>
      </trkpt>
      <trkpt lat="45.7249" lon="5.92585">
        <ele>298</ele>
        <time>2022-05-01T09:57:59.214Z</time>
      </trkpt>
      <trkpt lat="45.72493" lon="5.92585">
        <ele>298</ele>
        <time>2022-05-01T09:58:00.214Z</time>
      </trkpt>
      <trkpt lat="45.72495" lon="5.92585">
        <ele>298</ele>
        <time>2022-05-01T09:58:01.215Z</time>
      </trkpt>
      <trkpt lat="45.72497" lon="5.92585">
        <ele>299</ele>
        <time>2022-05-01T09:58:02.215Z</time>
      </trkpt>
      <trkpt lat="45.725" lon="5.92585">
        <ele>299</ele>
        <time>2022-05-01T09:58:03.214Z</time>
      </trkpt>
      <trkpt lat="45.72502" lon="5.92585">
        <ele>300</ele>
        <time>2022-05-01T09:58:04.214Z</time>
      </trkpt>
      <trkpt lat="45.72505" lon="5.92586">
        <ele>300</ele>
        <time>2022-05-01T09:58:05.214Z</time>
      </trkpt>
      <trkpt lat="45.72508" lon="5.92586">
        <ele>301</ele>
        <time>2022-05-01T09:58:06.214Z</time>
      </trkpt>
      <trkpt lat="45.72511" lon="5.92587">
        <ele>301</ele>
        <time>2022-05-01T09:58:07.214Z</time>
      </trkpt>
      <trkpt lat="45.72513" lon="5.92587">
        <ele>300</ele>
        <time>2022-05-01T09:58:08.214Z</time>
      </trkpt>
      <trkpt lat="45.72516" lon="5.92588">
        <ele>300</ele>
        <time>2022-05-01T09:58:09.214Z</time>
      </trkpt>
      <trkpt lat="45.72519" lon="5.92588">
        <ele>300</ele>
        <time>2022-05-01T09:58:10.214Z</time>
      </trkpt>
      <trkpt lat="45.72521" lon="5.92589">
        <ele>300</ele>
        <time>2022-05-01T09:58:11.214Z</time>
      </trkpt>
      <trkpt lat="45.72524" lon="5.9259">
        <ele>300</ele>
        <time>2022-05-01T09:58:12.215Z</time>
      </trkpt>
      <trkpt lat="45.72526" lon="5.9259">
        <ele>300</ele>
        <time>2022-05-01T09:58:13.214Z</time>
      </trkpt>
      <trkpt lat="45.72528" lon="5.92591">
        <ele>300</ele>
        <time>2022-05-01T09:58:14.214Z</time>
      </trkpt>
      <trkpt lat="45.7253" lon="5.92592">
        <ele>301</ele>
        <time>2022-05-01T09:58:15.214Z</time>
      </trkpt>
      <trkpt lat="45.72532" lon="5.92593">
        <ele>301</ele>
        <time>2022-05-01T09:58:16.215Z</time>
      </trkpt>
      <trkpt lat="45.72533" lon="5.92595">
        <ele>301</ele>
        <time>2022-05-01T09:58:17.215Z</time>
      </trkpt>
      <trkpt lat="45.72535" lon="5.92596">
        <ele>302</ele>
        <time>2022-05-01T09:58:18.215Z</time>
      </trkpt>
      <trkpt lat="45.72538" lon="5.92597">
        <ele>302</ele>
        <time>2022-05-01T09:58:19.214Z</time>
      </trkpt>
      <trkpt lat="45.7254" lon="5.92598">
        <ele>302</ele>
        <time>2022-05-01T09:58:20.214Z</time>
      </trkpt>
      <trkpt lat="45.72542" lon="5.926">
        <ele>302</ele>
        <time>2022-05-01T09:58:21.214Z</time>
      </trkpt>
      <trkpt lat="45.72545" lon="5.92601">
        <ele>302</ele>
        <time>2022-05-01T09:58:22.214Z</time>
      </trkpt>
      <trkpt lat="45.72547" lon="5.92602">
        <ele>302</ele>
        <time>2022-05-01T09:58:23.215Z</time>
      </trkpt>
      <trkpt lat="45.7255" lon="5.92602">
        <ele>302</ele>
        <time>2022-05-01T09:58:24.214Z</time>
      </trkpt>
      <trkpt lat="45.72552" lon="5.92604">
        <ele>302</ele>
        <time>2022-05-01T09:58:25.214Z</time>
      </trkpt>
      <trkpt lat="45.72554" lon="5.92605">
        <ele>302</ele>
        <time>2022-05-01T09:58:26.214Z</time>
      </trkpt>
      <trkpt lat="45.72556" lon="5.92607">
        <ele>302</ele>
        <time>2022-05-01T09:58:27.215Z</time>
      </trkpt>
      <trkpt lat="45.72558" lon="5.92609">
        <ele>302</ele>
        <time>2022-05-01T09:58:28.215Z</time>
      </trkpt>
      <trkpt lat="45.72559" lon="5.92612">
        <ele>303</ele>
        <time>2022-05-01T09:58:29.214Z</time>
      </trkpt>
      <trkpt lat="45.72561" lon="5.92614">
        <ele>303</ele>
        <time>2022-05-01T09:58:30.215Z</time>
      </trkpt>
      <trkpt lat="45.72562" lon="5.92617">
        <ele>303</ele>
        <time>2022-05-01T09:58:31.215Z</time>
      </trkpt>
      <trkpt lat="45.72563" lon="5.9262">
        <ele>303</ele>
        <time>2022-05-01T09:58:32.215Z</time>
      </trkpt>
      <trkpt lat="45.72563" lon="5.92623">
        <ele>303</ele>
        <time>2022-05-01T09:58:33.215Z</time>
      </trkpt>
      <trkpt lat="45.72564" lon="5.92626">
        <ele>303</ele>
        <time>2022-05-01T09:58:34.215Z</time>
      </trkpt>
      <trkpt lat="45.72564" lon="5.9263">
        <ele>303</ele>
        <time>2022-05-01T09:58:35.215Z</time>
      </trkpt>
      <trkpt lat="45.72564" lon="5.92633">
        <ele>303</ele>
        <time>2022-05-01T09:58:36.215Z</time>
      </trkpt>
      <trkpt lat="45.72564" lon="5.92637">
        <ele>303</ele>
        <time>2022-05-01T09:58:37.215Z</time>
      </trkpt>
      <trkpt lat="45.72564" lon="5.9264">
        <ele>303</ele>
        <time>2022-05-01T09:58:38.215Z</time>
      </trkpt>
      <trkpt lat="45.72564" lon="5.92644">
        <ele>303</ele>
        <time>2022-05-01T09:58:39.214Z</time>
      </trkpt>
      <trkpt lat="45.72564" lon="5.92647">
        <ele>303</ele>
        <time>2022-05-01T09:58:40.215Z</time>
      </trkpt>
      <trkpt lat="45.72564" lon="5.92651">
        <ele>304</ele>
        <time>2022-05-01T09:58:41.214Z</time>
      </trkpt>
      <trkpt lat="45.72564" lon="5.92654">
        <ele>304</ele>
        <time>2022-05-01T09:58:42.214Z</time>
      </trkpt>
      <trkpt lat="45.72564" lon="5.92658">
        <ele>304</ele>
        <time>2022-05-01T09:58:43.215Z</time>
      </trkpt>
      <trkpt lat="45.72564" lon="5.92661">
        <ele>304</ele>
        <time>2022-05-01T09:58:44.215Z</time>
      </trkpt>
      <trkpt lat="45.72564" lon="5.92665">
        <ele>304</ele>
        <time>2022-05-01T09:58:45.215Z</time>
      </trkpt>
      <trkpt lat="45.72564" lon="5.92668">
        <ele>304</ele>
        <time>2022-05-01T09:58:46.215Z</time>
      </trkpt>
      <trkpt lat="45.72564" lon="5.92671">
        <ele>304</ele>
        <time>2022-05-01T09:58:47.214Z</time>
      </trkpt>
      <trkpt lat="45.72564" lon="5.92674">
        <ele>304</ele>
        <time>2022-05-01T09:58:48.215Z</time>
      </trkpt>
      <trkpt lat="45.72565" lon="5.92677">
        <ele>305</ele>
        <time>2022-05-01T09:58:49.214Z</time>
      </trkpt>
      <trkpt lat="45.72565" lon="5.9268">
        <ele>305</ele>
        <time>2022-05-01T09:58:50.215Z</time>
      </trkpt>
      <trkpt lat="45.72565" lon="5.92683">
        <ele>305</ele>
        <time>2022-05-01T09:58:51.215Z</time>
      </trkpt>
      <trkpt lat="45.72565" lon="5.92687">
        <ele>305</ele>
        <time>2022-05-01T09:58:52.215Z</time>
      </trkpt>
      <trkpt lat="45.72565" lon="5.9269">
        <ele>305</ele>
        <time>2022-05-01T09:58:53.215Z</time>
      </trkpt>
      <trkpt lat="45.72565" lon="5.92693">
        <ele>305</ele>
        <time>2022-05-01T09:58:54.214Z</time>
      </trkpt>
      <trkpt lat="45.72566" lon="5.92697">
        <ele>305</ele>
        <time>2022-05-01T09:58:55.215Z</time>
      </trkpt>
      <trkpt lat="45.72565" lon="5.927">
        <ele>305</ele>
        <time>2022-05-01T09:58:56.215Z</time>
      </trkpt>
      <trkpt lat="45.72565" lon="5.92703">
        <ele>305</ele>
        <time>2022-05-01T09:58:57.215Z</time>
      </trkpt>
      <trkpt lat="45.72565" lon="5.92707">
        <ele>305</ele>
        <time>2022-05-01T09:58:58.214Z</time>
      </trkpt>
      <trkpt lat="45.72565" lon="5.9271">
        <ele>305</ele>
        <time>2022-05-01T09:58:59.215Z</time>
      </trkpt>
      <trkpt lat="45.72565" lon="5.92713">
        <ele>306</ele>
        <time>2022-05-01T09:59:00.214Z</time>
      </trkpt>
      <trkpt lat="45.72565" lon="5.92716">
        <ele>306</ele>
        <time>2022-05-01T09:59:01.215Z</time>
      </trkpt>
      <trkpt lat="45.72566" lon="5.92719">
        <ele>306</ele>
        <time>2022-05-01T09:59:02.215Z</time>
      </trkpt>
      <trkpt lat="45.72566" lon="5.92722">
        <ele>306</ele>
        <time>2022-05-01T09:59:03.214Z</time>
      </trkpt>
      <trkpt lat="45.72566" lon="5.92725">
        <ele>306</ele>
        <time>2022-05-01T09:59:04.215Z</time>
      </trkpt>
      <trkpt lat="45.72566" lon="5.92729">
        <ele>307</ele>
        <time>2022-05-01T09:59:05.215Z</time>
      </trkpt>
      <trkpt lat="45.72566" lon="5.92732">
        <ele>307</ele>
        <time>2022-05-01T09:59:06.215Z</time>
      </trkpt>
      <trkpt lat="45.72566" lon="5.92735">
        <ele>307</ele>
        <time>2022-05-01T09:59:07.215Z</time>
      </trkpt>
      <trkpt lat="45.72566" lon="5.92738">
        <ele>307</ele>
        <time>2022-05-01T09:59:08.215Z</time>
      </trkpt>
      <trkpt lat="45.72566" lon="5.9274">
        <ele>308</ele>
        <time>2022-05-01T09:59:09.215Z</time>
      </trkpt>
      <trkpt lat="45.72566" lon="5.92743">
        <ele>308</ele>
        <time>2022-05-01T09:59:10.214Z</time>
      </trkpt>
      <trkpt lat="45.72566" lon="5.92746">
        <ele>309</ele>
        <time>2022-05-01T09:59:11.214Z</time>
      </trkpt>
      <trkpt lat="45.72566" lon="5.9275">
        <ele>309</ele>
        <time>2022-05-01T09:59:12.215Z</time>
      </trkpt>
      <trkpt lat="45.72567" lon="5.92753">
        <ele>309</ele>
        <time>2022-05-01T09:59:13.215Z</time>
      </trkpt>
      <trkpt lat="45.72567" lon="5.92756">
        <ele>309</ele>
        <time>2022-05-01T09:59:14.215Z</time>
      </trkpt>
      <trkpt lat="45.72567" lon="5.92759">
        <ele>309</ele>
        <time>2022-05-01T09:59:15.215Z</time>
      </trkpt>
      <trkpt lat="45.72566" lon="5.92762">
        <ele>309</ele>
        <time>2022-05-01T09:59:16.215Z</time>
      </trkpt>
      <trkpt lat="45.72566" lon="5.92765">
        <ele>309</ele>
        <time>2022-05-01T09:59:17.215Z</time>
      </trkpt>
      <trkpt lat="45.72566" lon="5.92768">
        <ele>309</ele>
        <time>2022-05-01T09:59:18.215Z</time>
      </trkpt>
      <trkpt lat="45.72566" lon="5.92771">
        <ele>309</ele>
        <time>2022-05-01T09:59:19.215Z</time>
      </trkpt>
      <trkpt lat="45.72567" lon="5.92774">
        <ele>309</ele>
        <time>2022-05-01T09:59:20.215Z</time>
      </trkpt>
      <trkpt lat="45.72567" lon="5.92777">
        <ele>309</ele>
        <time>2022-05-01T09:59:21.215Z</time>
      </trkpt>
      <trkpt lat="45.72567" lon="5.9278">
        <ele>309</ele>
        <time>2022-05-01T09:59:22.215Z</time>
      </trkpt>
      <trkpt lat="45.72567" lon="5.92783">
        <ele>310</ele>
        <time>2022-05-01T09:59:23.215Z</time>
      </trkpt>
      <trkpt lat="45.72567" lon="5.92786">
        <ele>310</ele>
        <time>2022-05-01T09:59:24.215Z</time>
      </trkpt>
      <trkpt lat="45.72567" lon="5.92789">
        <ele>310</ele>
        <time>2022-05-01T09:59:25.215Z</time>
      </trkpt>
      <trkpt lat="45.72567" lon="5.92792">
        <ele>310</ele>
        <time>2022-05-01T09:59:26.215Z</time>
      </trkpt>
      <trkpt lat="45.72567" lon="5.92795">
        <ele>311</ele>
        <time>2022-05-01T09:59:27.215Z</time>
      </trkpt>
      <trkpt lat="45.72567" lon="5.92798">
        <ele>311</ele>
        <time>2022-05-01T09:59:28.214Z</time>
      </trkpt>
      <trkpt lat="45.72567" lon="5.92801">
        <ele>311</ele>
        <time>2022-05-01T09:59:29.215Z</time>
      </trkpt>
      <trkpt lat="45.72568" lon="5.92804">
        <ele>311</ele>
        <time>2022-05-01T09:59:30.215Z</time>
      </trkpt>
      <trkpt lat="45.72568" lon="5.92807">
        <ele>312</ele>
        <time>2022-05-01T09:59:31.215Z</time>
      </trkpt>
      <trkpt lat="45.72569" lon="5.9281">
        <ele>312</ele>
        <time>2022-05-01T09:59:32.215Z</time>
      </trkpt>
      <trkpt lat="45.72569" lon="5.92813">
        <ele>312</ele>
        <time>2022-05-01T09:59:33.214Z</time>
      </trkpt>
      <trkpt lat="45.72569" lon="5.92816">
        <ele>312</ele>
        <time>2022-05-01T09:59:34.214Z</time>
      </trkpt>
      <trkpt lat="45.7257" lon="5.92819">
        <ele>312</ele>
        <time>2022-05-01T09:59:35.215Z</time>
      </trkpt>
      <trkpt lat="45.72571" lon="5.92822">
        <ele>312</ele>
        <time>2022-05-01T09:59:36.214Z</time>
      </trkpt>
      <trkpt lat="45.72571" lon="5.92825">
        <ele>312</ele>
        <time>2022-05-01T09:59:37.215Z</time>
      </trkpt>
      <trkpt lat="45.72572" lon="5.92828">
        <ele>313</ele>
        <time>2022-05-01T09:59:38.215Z</time>
      </trkpt>
      <trkpt lat="45.72573" lon="5.92831">
        <ele>313</ele>
        <time>2022-05-01T09:59:39.214Z</time>
      </trkpt>
      <trkpt lat="45.72574" lon="5.92834">
        <ele>313</ele>
        <time>2022-05-01T09:59:40.215Z</time>
      </trkpt>
      <trkpt lat="45.72575" lon="5.92837">
        <ele>314</ele>
        <time>2022-05-01T09:59:41.215Z</time>
      </trkpt>
      <trkpt lat="45.72576" lon="5.9284">
        <ele>314</ele>
        <time>2022-05-01T09:59:42.215Z</time>
      </trkpt>
      <trkpt lat="45.72577" lon="5.92843">
        <ele>315</ele>
        <time>2022-05-01T09:59:43.215Z</time>
      </trkpt>
      <trkpt lat="45.72578" lon="5.92845">
        <ele>315</ele>
        <time>2022-05-01T09:59:44.215Z</time>
      </trkpt>
      <trkpt lat="45.72579" lon="5.92848">
        <ele>315</ele>
        <time>2022-05-01T09:59:45.215Z</time>
      </trkpt>
      <trkpt lat="45.7258" lon="5.92851">
        <ele>316</ele>
        <time>2022-05-01T09:59:46.215Z</time>
      </trkpt>
      <trkpt lat="45.72581" lon="5.92853">
        <ele>316</ele>
        <time>2022-05-01T09:59:47.215Z</time>
      </trkpt>
      <trkpt lat="45.72582" lon="5.92856">
        <ele>316</ele>
        <time>2022-05-01T09:59:48.215Z</time>
      </trkpt>
      <trkpt lat="45.72583" lon="5.92859">
        <ele>316</ele>
        <time>2022-05-01T09:59:49.214Z</time>
      </trkpt>
      <trkpt lat="45.72584" lon="5.92861">
        <ele>316</ele>
        <time>2022-05-01T09:59:50.215Z</time>
      </trkpt>
      <trkpt lat="45.72586" lon="5.92864">
        <ele>317</ele>
        <time>2022-05-01T09:59:51.215Z</time>
      </trkpt>
      <trkpt lat="45.72587" lon="5.92866">
        <ele>317</ele>
        <time>2022-05-01T09:59:52.214Z</time>
      </trkpt>
      <trkpt lat="45.72588" lon="5.92869">
        <ele>317</ele>
        <time>2022-05-01T09:59:53.215Z</time>
      </trkpt>
      <trkpt lat="45.72589" lon="5.92872">
        <ele>317</ele>
        <time>2022-05-01T09:59:54.215Z</time>
      </trkpt>
      <trkpt lat="45.7259" lon="5.92875">
        <ele>317</ele>
        <time>2022-05-01T09:59:55.215Z</time>
      </trkpt>
      <trkpt lat="45.7259" lon="5.92878">
        <ele>317</ele>
        <time>2022-05-01T09:59:56.215Z</time>
      </trkpt>
      <trkpt lat="45.72591" lon="5.92881">
        <ele>317</ele>
        <time>2022-05-01T09:59:57.215Z</time>
      </trkpt>
      <trkpt lat="45.72592" lon="5.92883">
        <ele>317</ele>
        <time>2022-05-01T09:59:58.215Z</time>
      </trkpt>
      <trkpt lat="45.72593" lon="5.92886">
        <ele>318</ele>
        <time>2022-05-01T09:59:59.215Z</time>
      </trkpt>
      <trkpt lat="45.72594" lon="5.92889">
        <ele>318</ele>
        <time>2022-05-01T10:00:00.215Z</time>
      </trkpt>
      <trkpt lat="45.72594" lon="5.92891">
        <ele>318</ele>
        <time>2022-05-01T10:00:01.215Z</time>
      </trkpt>
      <trkpt lat="45.72595" lon="5.92893">
        <ele>318</ele>
        <time>2022-05-01T10:00:02.215Z</time>
      </trkpt>
      <trkpt lat="45.72595" lon="5.92895">
        <ele>318</ele>
        <time>2022-05-01T10:00:03.215Z</time>
      </trkpt>
      <trkpt lat="45.72596" lon="5.92898">
        <ele>318</ele>
        <time>2022-05-01T10:00:04.214Z</time>
      </trkpt>
      <trkpt lat="45.72596" lon="5.929">
        <ele>318</ele>
        <time>2022-05-01T10:00:05.215Z</time>
      </trkpt>
      <trkpt lat="45.72597" lon="5.92903">
        <ele>319</ele>
        <time>2022-05-01T10:00:06.215Z</time>
      </trkpt>
      <trkpt lat="45.72598" lon="5.92906">
        <ele>319</ele>
        <time>2022-05-01T10:00:07.214Z</time>
      </trkpt>
      <trkpt lat="45.72599" lon="5.92908">
        <ele>319</ele>
        <time>2022-05-01T10:00:08.215Z</time>
      </trkpt>
      <trkpt lat="45.726" lon="5.92911">
        <ele>320</ele>
        <time>2022-05-01T10:00:09.215Z</time>
      </trkpt>
      <trkpt lat="45.72602" lon="5.92914">
        <ele>320</ele>
        <time>2022-05-01T10:00:10.214Z</time>
      </trkpt>
      <trkpt lat="45.72602" lon="5.92916">
        <ele>321</ele>
        <time>2022-05-01T10:00:11.214Z</time>
      </trkpt>
      <trkpt lat="45.72603" lon="5.92919">
        <ele>321</ele>
        <time>2022-05-01T10:00:12.214Z</time>
      </trkpt>
      <trkpt lat="45.72604" lon="5.92922">
        <ele>322</ele>
        <time>2022-05-01T10:00:13.215Z</time>
      </trkpt>
      <trkpt lat="45.72605" lon="5.92924">
        <ele>322</ele>
        <time>2022-05-01T10:00:14.214Z</time>
      </trkpt>
      <trkpt lat="45.72606" lon="5.92927">
        <ele>322</ele>
        <time>2022-05-01T10:00:15.214Z</time>
      </trkpt>
      <trkpt lat="45.72607" lon="5.9293">
        <ele>323</ele>
        <time>2022-05-01T10:00:16.215Z</time>
      </trkpt>
      <trkpt lat="45.72608" lon="5.92932">
        <ele>323</ele>
        <time>2022-05-01T10:00:17.215Z</time>
      </trkpt>
      <trkpt lat="45.72609" lon="5.92935">
        <ele>323</ele>
        <time>2022-05-01T10:00:18.215Z</time>
      </trkpt>
      <trkpt lat="45.7261" lon="5.92938">
        <ele>323</ele>
        <time>2022-05-01T10:00:19.215Z</time>
      </trkpt>
      <trkpt lat="45.72611" lon="5.92941">
        <ele>323</ele>
        <time>2022-05-01T10:00:20.215Z</time>
      </trkpt>
      <trkpt lat="45.72612" lon="5.92943">
        <ele>323</ele>
        <time>2022-05-01T10:00:21.215Z</time>
      </trkpt>
      <trkpt lat="45.72613" lon="5.92946">
        <ele>323</ele>
        <time>2022-05-01T10:00:22.214Z</time>
      </trkpt>
      <trkpt lat="45.72614" lon="5.92949">
        <ele>324</ele>
        <time>2022-05-01T10:00:23.215Z</time>
      </trkpt>
      <trkpt lat="45.72615" lon="5.92952">
        <ele>324</ele>
        <time>2022-05-01T10:00:24.215Z</time>
      </trkpt>
      <trkpt lat="45.72616" lon="5.92954">
        <ele>325</ele>
        <time>2022-05-01T10:00:25.215Z</time>
      </trkpt>
      <trkpt lat="45.72617" lon="5.92957">
        <ele>325</ele>
        <time>2022-05-01T10:00:26.214Z</time>
      </trkpt>
      <trkpt lat="45.72618" lon="5.9296">
        <ele>325</ele>
        <time>2022-05-01T10:00:27.215Z</time>
      </trkpt>
      <trkpt lat="45.72619" lon="5.92963">
        <ele>326</ele>
        <time>2022-05-01T10:00:28.214Z</time>
      </trkpt>
      <trkpt lat="45.7262" lon="5.92965">
        <ele>326</ele>
        <time>2022-05-01T10:00:29.215Z</time>
      </trkpt>
      <trkpt lat="45.72621" lon="5.92968">
        <ele>326</ele>
        <time>2022-05-01T10:00:30.215Z</time>
      </trkpt>
      <trkpt lat="45.72622" lon="5.92971">
        <ele>326</ele>
        <time>2022-05-01T10:00:31.215Z</time>
      </trkpt>
      <trkpt lat="45.72622" lon="5.92974">
        <ele>327</ele>
        <time>2022-05-01T10:00:32.215Z</time>
      </trkpt>
      <trkpt lat="45.72623" lon="5.92977">
        <ele>327</ele>
        <time>2022-05-01T10:00:33.215Z</time>
      </trkpt>
      <trkpt lat="45.72623" lon="5.92979">
        <ele>327</ele>
        <time>2022-05-01T10:00:34.215Z</time>
      </trkpt>
      <trkpt lat="45.72623" lon="5.92982">
        <ele>327</ele>
        <time>2022-05-01T10:00:35.215Z</time>
      </trkpt>
      <trkpt lat="45.72623" lon="5.92985">
        <ele>327</ele>
        <time>2022-05-01T10:00:36.215Z</time>
      </trkpt>
      <trkpt lat="45.72624" lon="5.92988">
        <ele>328</ele>
        <time>2022-05-01T10:00:37.214Z</time>
      </trkpt>
      <trkpt lat="45.72625" lon="5.92991">
        <ele>328</ele>
        <time>2022-05-01T10:00:38.215Z</time>
      </trkpt>
      <trkpt lat="45.72625" lon="5.92994">
        <ele>328</ele>
        <time>2022-05-01T10:00:39.215Z</time>
      </trkpt>
      <trkpt lat="45.72625" lon="5.92997">
        <ele>328</ele>
        <time>2022-05-01T10:00:40.215Z</time>
      </trkpt>
      <trkpt lat="45.72626" lon="5.93">
        <ele>328</ele>
        <time>2022-05-01T10:00:41.215Z</time>
      </trkpt>
      <trkpt lat="45.72626" lon="5.93003">
        <ele>328</ele>
        <time>2022-05-01T10:00:42.215Z</time>
      </trkpt>
      <trkpt lat="45.72627" lon="5.93006">
        <ele>328</ele>
        <time>2022-05-01T10:00:43.215Z</time>
      </trkpt>
      <trkpt lat="45.72627" lon="5.93009">
        <ele>328</ele>
        <time>2022-05-01T10:00:44.215Z</time>
      </trkpt>
      <trkpt lat="45.72627" lon="5.93012">
        <ele>328</ele>
        <time>2022-05-01T10:00:45.215Z</time>
      </trkpt>
      <trkpt lat="45.72627" lon="5.93015">
        <ele>328</ele>
        <time>2022-05-01T10:00:46.215Z</time>
      </trkpt>
      <trkpt lat="45.72628" lon="5.93018">
        <ele>327</ele>
        <time>2022-05-01T10:00:47.215Z</time>
      </trkpt>
      <trkpt lat="45.72629" lon="5.93021">
        <ele>327</ele>
        <time>2022-05-01T10:00:48.215Z</time>
      </trkpt>
      <trkpt lat="45.72629" lon="5.93023">
        <ele>327</ele>
        <time>2022-05-01T10:00:49.215Z</time>
      </trkpt>
      <trkpt lat="45.72631" lon="5.93026">
        <ele>328</ele>
        <time>2022-05-01T10:00:50.214Z</time>
      </trkpt>
      <trkpt lat="45.72632" lon="5.93028">
        <ele>328</ele>
        <time>2022-05-01T10:00:51.215Z</time>
      </trkpt>
      <trkpt lat="45.72633" lon="5.93031">
        <ele>328</ele>
        <time>2022-05-01T10:00:52.215Z</time>
      </trkpt>
      <trkpt lat="45.72634" lon="5.93033">
        <ele>328</ele>
        <time>2022-05-01T10:00:53.215Z</time>
      </trkpt>
      <trkpt lat="45.72635" lon="5.93036">
        <ele>328</ele>
        <time>2022-05-01T10:00:54.215Z</time>
      </trkpt>
      <trkpt lat="45.72636" lon="5.93038">
        <ele>328</ele>
        <time>2022-05-01T10:00:55.215Z</time>
      </trkpt>
      <trkpt lat="45.72638" lon="5.9304">
        <ele>328</ele>
        <time>2022-05-01T10:00:56.215Z</time>
      </trkpt>
      <trkpt lat="45.72639" lon="5.93042">
        <ele>327</ele>
        <time>2022-05-01T10:00:57.215Z</time>
      </trkpt>
      <trkpt lat="45.72641" lon="5.93044">
        <ele>327</ele>
        <time>2022-05-01T10:00:58.215Z</time>
      </trkpt>
      <trkpt lat="45.72642" lon="5.93046">
        <ele>327</ele>
        <time>2022-05-01T10:00:59.215Z</time>
      </trkpt>
      <trkpt lat="45.72644" lon="5.93047">
        <ele>327</ele>
        <time>2022-05-01T10:01:00.215Z</time>
      </trkpt>
      <trkpt lat="45.72646" lon="5.93049">
        <ele>327</ele>
        <time>2022-05-01T10:01:01.215Z</time>
      </trkpt>
      <trkpt lat="45.72648" lon="5.9305">
        <ele>327</ele>
        <time>2022-05-01T10:01:02.215Z</time>
      </trkpt>
      <trkpt lat="45.7265" lon="5.93051">
        <ele>328</ele>
        <time>2022-05-01T10:01:03.215Z</time>
      </trkpt>
      <trkpt lat="45.72652" lon="5.93051">
        <ele>328</ele>
        <time>2022-05-01T10:01:04.215Z</time>
      </trkpt>
      <trkpt lat="45.72654" lon="5.93051">
        <ele>328</ele>
        <time>2022-05-01T10:01:05.215Z</time>
      </trkpt>
      <trkpt lat="45.72656" lon="5.93051">
        <ele>328</ele>
        <time>2022-05-01T10:01:06.215Z</time>
      </trkpt>
      <trkpt lat="45.72658" lon="5.9305">
        <ele>328</ele>
        <time>2022-05-01T10:01:07.215Z</time>
      </trkpt>
      <trkpt lat="45.7266" lon="5.93048">
        <ele>328</ele>
        <time>2022-05-01T10:01:08.215Z</time>
      </trkpt>
      <trkpt lat="45.72662" lon="5.93047">
        <ele>328</ele>
        <time>2022-05-01T10:01:09.215Z</time>
      </trkpt>
      <trkpt lat="45.72664" lon="5.93044">
        <ele>328</ele>
        <time>2022-05-01T10:01:10.215Z</time>
      </trkpt>
      <trkpt lat="45.72666" lon="5.93042">
        <ele>328</ele>
        <time>2022-05-01T10:01:11.215Z</time>
      </trkpt>
      <trkpt lat="45.72669" lon="5.9304">
        <ele>328</ele>
        <time>2022-05-01T10:01:12.215Z</time>
      </trkpt>
      <trkpt lat="45.72671" lon="5.93037">
        <ele>328</ele>
        <time>2022-05-01T10:01:13.214Z</time>
      </trkpt>
      <trkpt lat="45.72674" lon="5.93034">
        <ele>328</ele>
        <time>2022-05-01T10:01:14.215Z</time>
      </trkpt>
      <trkpt lat="45.72676" lon="5.93031">
        <ele>328</ele>
        <time>2022-05-01T10:01:15.215Z</time>
      </trkpt>
      <trkpt lat="45.72678" lon="5.93029">
        <ele>328</ele>
        <time>2022-05-01T10:01:16.215Z</time>
      </trkpt>
      <trkpt lat="45.7268" lon="5.93027">
        <ele>329</ele>
        <time>2022-05-01T10:01:17.215Z</time>
      </trkpt>
      <trkpt lat="45.72682" lon="5.93025">
        <ele>329</ele>
        <time>2022-05-01T10:01:18.215Z</time>
      </trkpt>
      <trkpt lat="45.72683" lon="5.93023">
        <ele>329</ele>
        <time>2022-05-01T10:01:19.215Z</time>
      </trkpt>
      <trkpt lat="45.72686" lon="5.93022">
        <ele>330</ele>
        <time>2022-05-01T10:01:20.215Z</time>
      </trkpt>
      <trkpt lat="45.72688" lon="5.93019">
        <ele>330</ele>
        <time>2022-05-01T10:01:21.215Z</time>
      </trkpt>
      <trkpt lat="45.72691" lon="5.93017">
        <ele>330</ele>
        <time>2022-05-01T10:01:22.215Z</time>
      </trkpt>
      <trkpt lat="45.72694" lon="5.93013">
        <ele>330</ele>
        <time>2022-05-01T10:01:23.215Z</time>
      </trkpt>
      <trkpt lat="45.72696" lon="5.9301">
        <ele>330</ele>
        <time>2022-05-01T10:01:24.214Z</time>
      </trkpt>
      <trkpt lat="45.72698" lon="5.93007">
        <ele>331</ele>
        <time>2022-05-01T10:01:25.215Z</time>
      </trkpt>
      <trkpt lat="45.72701" lon="5.93003">
        <ele>331</ele>
        <time>2022-05-01T10:01:26.215Z</time>
      </trkpt>
      <trkpt lat="45.72703" lon="5.93001">
        <ele>331</ele>
        <time>2022-05-01T10:01:27.215Z</time>
      </trkpt>
      <trkpt lat="45.72707" lon="5.92998">
        <ele>330</ele>
        <time>2022-05-01T10:01:28.215Z</time>
      </trkpt>
      <trkpt lat="45.7271" lon="5.92995">
        <ele>330</ele>
        <time>2022-05-01T10:01:29.215Z</time>
      </trkpt>
      <trkpt lat="45.72713" lon="5.92992">
        <ele>330</ele>
        <time>2022-05-01T10:01:30.215Z</time>
      </trkpt>
      <trkpt lat="45.72715" lon="5.92989">
        <ele>330</ele>
        <time>2022-05-01T10:01:31.215Z</time>
      </trkpt>
      <trkpt lat="45.72718" lon="5.92986">
        <ele>330</ele>
        <time>2022-05-01T10:01:32.215Z</time>
      </trkpt>
      <trkpt lat="45.72722" lon="5.92983">
        <ele>331</ele>
        <time>2022-05-01T10:01:33.215Z</time>
      </trkpt>
      <trkpt lat="45.72725" lon="5.9298">
        <ele>331</ele>
        <time>2022-05-01T10:01:34.215Z</time>
      </trkpt>
      <trkpt lat="45.72728" lon="5.92976">
        <ele>331</ele>
        <time>2022-05-01T10:01:35.215Z</time>
      </trkpt>
      <trkpt lat="45.72732" lon="5.92973">
        <ele>331</ele>
        <time>2022-05-01T10:01:36.215Z</time>
      </trkpt>
      <trkpt lat="45.72736" lon="5.92969">
        <ele>331</ele>
        <time>2022-05-01T10:01:37.214Z</time>
      </trkpt>
      <trkpt lat="45.72739" lon="5.92965">
        <ele>331</ele>
        <time>2022-05-01T10:01:38.215Z</time>
      </trkpt>
      <trkpt lat="45.72743" lon="5.9296">
        <ele>331</ele>
        <time>2022-05-01T10:01:39.214Z</time>
      </trkpt>
      <trkpt lat="45.72747" lon="5.92957">
        <ele>331</ele>
        <time>2022-05-01T10:01:40.215Z</time>
      </trkpt>
      <trkpt lat="45.72752" lon="5.92953">
        <ele>331</ele>
        <time>2022-05-01T10:01:41.215Z</time>
      </trkpt>
      <trkpt lat="45.72757" lon="5.92949">
        <ele>331</ele>
        <time>2022-05-01T10:01:42.214Z</time>
      </trkpt>
      <trkpt lat="45.72761" lon="5.92946">
        <ele>330</ele>
        <time>2022-05-01T10:01:43.214Z</time>
      </trkpt>
      <trkpt lat="45.72767" lon="5.92942">
        <ele>330</ele>
        <time>2022-05-01T10:01:44.215Z</time>
      </trkpt>
      <trkpt lat="45.72773" lon="5.92939">
        <ele>330</ele>
        <time>2022-05-01T10:01:45.215Z</time>
      </trkpt>
      <trkpt lat="45.72778" lon="5.92935">
        <ele>330</ele>
        <time>2022-05-01T10:01:46.214Z</time>
      </trkpt>
      <trkpt lat="45.72784" lon="5.92932">
        <ele>330</ele>
        <time>2022-05-01T10:01:47.215Z</time>
      </trkpt>
      <trkpt lat="45.7279" lon="5.92929">
        <ele>330</ele>
        <time>2022-05-01T10:01:48.215Z</time>
      </trkpt>
      <trkpt lat="45.72797" lon="5.92925">
        <ele>330</ele>
        <time>2022-05-01T10:01:49.215Z</time>
      </trkpt>
      <trkpt lat="45.72803" lon="5.92922">
        <ele>330</ele>
        <time>2022-05-01T10:01:50.215Z</time>
      </trkpt>
      <trkpt lat="45.72809" lon="5.92919">
        <ele>329</ele>
        <time>2022-05-01T10:01:51.215Z</time>
      </trkpt>
      <trkpt lat="45.72816" lon="5.92916">
        <ele>329</ele>
        <time>2022-05-01T10:01:52.215Z</time>
      </trkpt>
      <trkpt lat="45.72822" lon="5.92913">
        <ele>329</ele>
        <time>2022-05-01T10:01:53.214Z</time>
      </trkpt>
      <trkpt lat="45.72828" lon="5.9291">
        <ele>329</ele>
        <time>2022-05-01T10:01:54.215Z</time>
      </trkpt>
      <trkpt lat="45.72834" lon="5.92907">
        <ele>329</ele>
        <time>2022-05-01T10:01:55.214Z</time>
      </trkpt>
      <trkpt lat="45.7284" lon="5.92904">
        <ele>329</ele>
        <time>2022-05-01T10:01:56.215Z</time>
      </trkpt>
      <trkpt lat="45.72846" lon="5.92902">
        <ele>329</ele>
        <time>2022-05-01T10:01:57.215Z</time>
      </trkpt>
      <trkpt lat="45.72851" lon="5.929">
        <ele>330</ele>
        <time>2022-05-01T10:01:58.214Z</time>
      </trkpt>
      <trkpt lat="45.72857" lon="5.92898">
        <ele>330</ele>
        <time>2022-05-01T10:01:59.215Z</time>
      </trkpt>
      <trkpt lat="45.72862" lon="5.92896">
        <ele>330</ele>
        <time>2022-05-01T10:02:00.215Z</time>
      </trkpt>
      <trkpt lat="45.72867" lon="5.92895">
        <ele>330</ele>
        <time>2022-05-01T10:02:01.215Z</time>
      </trkpt>
      <trkpt lat="45.72871" lon="5.92894">
        <ele>331</ele>
        <time>2022-05-01T10:02:02.215Z</time>
      </trkpt>
      <trkpt lat="45.72875" lon="5.92893">
        <ele>331</ele>
        <time>2022-05-01T10:02:03.215Z</time>
      </trkpt>
      <trkpt lat="45.72879" lon="5.92892">
        <ele>331</ele>
        <time>2022-05-01T10:02:04.215Z</time>
      </trkpt>
      <trkpt lat="45.72883" lon="5.92891">
        <ele>332</ele>
        <time>2022-05-01T10:02:05.215Z</time>
      </trkpt>
      <trkpt lat="45.72886" lon="5.9289">
        <ele>332</ele>
        <time>2022-05-01T10:02:06.215Z</time>
      </trkpt>
      <trkpt lat="45.72889" lon="5.92889">
        <ele>333</ele>
        <time>2022-05-01T10:02:07.215Z</time>
      </trkpt>
      <trkpt lat="45.72892" lon="5.92888">
        <ele>333</ele>
        <time>2022-05-01T10:02:08.214Z</time>
      </trkpt>
      <trkpt lat="45.72895" lon="5.92887">
        <ele>334</ele>
        <time>2022-05-01T10:02:09.215Z</time>
      </trkpt>
      <trkpt lat="45.72898" lon="5.92886">
        <ele>335</ele>
        <time>2022-05-01T10:02:10.215Z</time>
      </trkpt>
      <trkpt lat="45.72901" lon="5.92885">
        <ele>335</ele>
        <time>2022-05-01T10:02:11.215Z</time>
      </trkpt>
      <trkpt lat="45.72904" lon="5.92884">
        <ele>335</ele>
        <time>2022-05-01T10:02:12.215Z</time>
      </trkpt>
      <trkpt lat="45.72907" lon="5.92882">
        <ele>335</ele>
        <time>2022-05-01T10:02:13.215Z</time>
      </trkpt>
      <trkpt lat="45.72909" lon="5.92881">
        <ele>335</ele>
        <time>2022-05-01T10:02:14.215Z</time>
      </trkpt>
      <trkpt lat="45.72912" lon="5.9288">
        <ele>336</ele>
        <time>2022-05-01T10:02:15.215Z</time>
      </trkpt>
      <trkpt lat="45.72915" lon="5.92879">
        <ele>336</ele>
        <time>2022-05-01T10:02:16.215Z</time>
      </trkpt>
      <trkpt lat="45.72918" lon="5.92878">
        <ele>336</ele>
        <time>2022-05-01T10:02:17.214Z</time>
      </trkpt>
      <trkpt lat="45.72921" lon="5.92876">
        <ele>337</ele>
        <time>2022-05-01T10:02:18.214Z</time>
      </trkpt>
      <trkpt lat="45.72924" lon="5.92875">
        <ele>337</ele>
        <time>2022-05-01T10:02:19.214Z</time>
      </trkpt>
      <trkpt lat="45.72927" lon="5.92874">
        <ele>337</ele>
        <time>2022-05-01T10:02:20.215Z</time>
      </trkpt>
      <trkpt lat="45.72929" lon="5.92873">
        <ele>337</ele>
        <time>2022-05-01T10:02:21.215Z</time>
      </trkpt>
      <trkpt lat="45.72932" lon="5.92873">
        <ele>337</ele>
        <time>2022-05-01T10:02:22.215Z</time>
      </trkpt>
      <trkpt lat="45.72935" lon="5.92872">
        <ele>336</ele>
        <time>2022-05-01T10:02:23.215Z</time>
      </trkpt>
      <trkpt lat="45.72938" lon="5.92871">
        <ele>336</ele>
        <time>2022-05-01T10:02:24.215Z</time>
      </trkpt>
      <trkpt lat="45.72941" lon="5.92871">
        <ele>336</ele>
        <time>2022-05-01T10:02:25.215Z</time>
      </trkpt>
      <trkpt lat="45.72944" lon="5.9287">
        <ele>335</ele>
        <time>2022-05-01T10:02:26.214Z</time>
      </trkpt>
      <trkpt lat="45.72947" lon="5.92869">
        <ele>336</ele>
        <time>2022-05-01T10:02:27.215Z</time>
      </trkpt>
      <trkpt lat="45.7295" lon="5.92869">
        <ele>336</ele>
        <time>2022-05-01T10:02:28.215Z</time>
      </trkpt>
      <trkpt lat="45.72953" lon="5.92868">
        <ele>336</ele>
        <time>2022-05-01T10:02:29.214Z</time>
      </trkpt>
      <trkpt lat="45.72956" lon="5.92868">
        <ele>336</ele>
        <time>2022-05-01T10:02:30.215Z</time>
      </trkpt>
      <trkpt lat="45.72959" lon="5.92867">
        <ele>335</ele>
        <time>2022-05-01T10:02:31.214Z</time>
      </trkpt>
      <trkpt lat="45.72962" lon="5.92866">
        <ele>335</ele>
        <time>2022-05-01T10:02:32.214Z</time>
      </trkpt>
      <trkpt lat="45.72965" lon="5.92866">
        <ele>335</ele>
        <time>2022-05-01T10:02:33.214Z</time>
      </trkpt>
      <trkpt lat="45.72968" lon="5.92866">
        <ele>334</ele>
        <time>2022-05-01T10:02:34.214Z</time>
      </trkpt>
      <trkpt lat="45.72972" lon="5.92865">
        <ele>334</ele>
        <time>2022-05-01T10:02:35.215Z</time>
      </trkpt>
      <trkpt lat="45.72975" lon="5.92865">
        <ele>334</ele>
        <time>2022-05-01T10:02:36.215Z</time>
      </trkpt>
      <trkpt lat="45.72978" lon="5.92864">
        <ele>333</ele>
        <time>2022-05-01T10:02:37.214Z</time>
      </trkpt>
      <trkpt lat="45.72982" lon="5.92863">
        <ele>333</ele>
        <time>2022-05-01T10:02:38.215Z</time>
      </trkpt>
      <trkpt lat="45.72985" lon="5.92862">
        <ele>332</ele>
        <time>2022-05-01T10:02:39.214Z</time>
      </trkpt>
      <trkpt lat="45.72989" lon="5.92861">
        <ele>332</ele>
        <time>2022-05-01T10:02:40.215Z</time>
      </trkpt>
      <trkpt lat="45.72992" lon="5.92861">
        <ele>332</ele>
        <time>2022-05-01T10:02:41.215Z</time>
      </trkpt>
      <trkpt lat="45.72996" lon="5.9286">
        <ele>332</ele>
        <time>2022-05-01T10:02:42.215Z</time>
      </trkpt>
      <trkpt lat="45.72999" lon="5.9286">
        <ele>331</ele>
        <time>2022-05-01T10:02:43.215Z</time>
      </trkpt>
      <trkpt lat="45.73003" lon="5.92859">
        <ele>331</ele>
        <time>2022-05-01T10:02:44.215Z</time>
      </trkpt>
      <trkpt lat="45.73007" lon="5.92858">
        <ele>331</ele>
        <time>2022-05-01T10:02:45.215Z</time>
      </trkpt>
      <trkpt lat="45.73011" lon="5.92857">
        <ele>332</ele>
        <time>2022-05-01T10:02:46.215Z</time>
      </trkpt>
      <trkpt lat="45.73015" lon="5.92856">
        <ele>332</ele>
        <time>2022-05-01T10:02:47.214Z</time>
      </trkpt>
      <trkpt lat="45.73018" lon="5.92855">
        <ele>332</ele>
        <time>2022-05-01T10:02:48.215Z</time>
      </trkpt>
      <trkpt lat="45.73022" lon="5.92854">
        <ele>333</ele>
        <time>2022-05-01T10:02:49.214Z</time>
      </trkpt>
      <trkpt lat="45.73026" lon="5.92853">
        <ele>333</ele>
        <time>2022-05-01T10:02:50.215Z</time>
      </trkpt>
      <trkpt lat="45.7303" lon="5.92852">
        <ele>333</ele>
        <time>2022-05-01T10:02:51.215Z</time>
      </trkpt>
      <trkpt lat="45.73033" lon="5.92852">
        <ele>334</ele>
        <time>2022-05-01T10:02:52.215Z</time>
      </trkpt>
      <trkpt lat="45.73037" lon="5.92852">
        <ele>334</ele>
        <time>2022-05-01T10:02:53.214Z</time>
      </trkpt>
      <trkpt lat="45.7304" lon="5.92852">
        <ele>334</ele>
        <time>2022-05-01T10:02:54.214Z</time>
      </trkpt>
      <trkpt lat="45.73044" lon="5.92851">
        <ele>335</ele>
        <time>2022-05-01T10:02:55.214Z</time>
      </trkpt>
      <trkpt lat="45.73048" lon="5.92852">
        <ele>335</ele>
        <time>2022-05-01T10:02:56.214Z</time>
      </trkpt>
      <trkpt lat="45.73052" lon="5.92853">
        <ele>335</ele>
        <time>2022-05-01T10:02:57.214Z</time>
      </trkpt>
      <trkpt lat="45.73056" lon="5.92854">
        <ele>335</ele>
        <time>2022-05-01T10:02:58.214Z</time>
      </trkpt>
      <trkpt lat="45.73059" lon="5.92857">
        <ele>335</ele>
        <time>2022-05-01T10:02:59.214Z</time>
      </trkpt>
      <trkpt lat="45.73063" lon="5.92859">
        <ele>335</ele>
        <time>2022-05-01T10:03:00.214Z</time>
      </trkpt>
      <trkpt lat="45.73066" lon="5.92861">
        <ele>334</ele>
        <time>2022-05-01T10:03:01.215Z</time>
      </trkpt>
      <trkpt lat="45.7307" lon="5.92863">
        <ele>334</ele>
        <time>2022-05-01T10:03:02.215Z</time>
      </trkpt>
      <trkpt lat="45.73074" lon="5.92866">
        <ele>334</ele>
        <time>2022-05-01T10:03:03.215Z</time>
      </trkpt>
      <trkpt lat="45.73077" lon="5.92868">
        <ele>334</ele>
        <time>2022-05-01T10:03:04.215Z</time>
      </trkpt>
      <trkpt lat="45.73081" lon="5.9287">
        <ele>334</ele>
        <time>2022-05-01T10:03:05.215Z</time>
      </trkpt>
      <trkpt lat="45.73085" lon="5.92871">
        <ele>334</ele>
        <time>2022-05-01T10:03:06.214Z</time>
      </trkpt>
      <trkpt lat="45.73089" lon="5.92872">
        <ele>334</ele>
        <time>2022-05-01T10:03:07.214Z</time>
      </trkpt>
      <trkpt lat="45.73092" lon="5.92874">
        <ele>334</ele>
        <time>2022-05-01T10:03:08.215Z</time>
      </trkpt>
      <trkpt lat="45.73096" lon="5.92876">
        <ele>334</ele>
        <time>2022-05-01T10:03:09.215Z</time>
      </trkpt>
      <trkpt lat="45.73099" lon="5.92878">
        <ele>334</ele>
        <time>2022-05-01T10:03:10.214Z</time>
      </trkpt>
      <trkpt lat="45.73102" lon="5.9288">
        <ele>334</ele>
        <time>2022-05-01T10:03:11.215Z</time>
      </trkpt>
      <trkpt lat="45.73106" lon="5.92882">
        <ele>334</ele>
        <time>2022-05-01T10:03:12.215Z</time>
      </trkpt>
      <trkpt lat="45.73109" lon="5.92884">
        <ele>333</ele>
        <time>2022-05-01T10:03:13.215Z</time>
      </trkpt>
      <trkpt lat="45.73113" lon="5.92886">
        <ele>333</ele>
        <time>2022-05-01T10:03:14.215Z</time>
      </trkpt>
      <trkpt lat="45.73116" lon="5.92888">
        <ele>334</ele>
        <time>2022-05-01T10:03:15.215Z</time>
      </trkpt>
      <trkpt lat="45.7312" lon="5.9289">
        <ele>334</ele>
        <time>2022-05-01T10:03:16.215Z</time>
      </trkpt>
      <trkpt lat="45.73123" lon="5.92892">
        <ele>334</ele>
        <time>2022-05-01T10:03:17.215Z</time>
      </trkpt>
      <trkpt lat="45.73127" lon="5.92894">
        <ele>334</ele>
        <time>2022-05-01T10:03:18.215Z</time>
      </trkpt>
      <trkpt lat="45.7313" lon="5.92896">
        <ele>334</ele>
        <time>2022-05-01T10:03:19.214Z</time>
      </trkpt>
      <trkpt lat="45.73134" lon="5.92898">
        <ele>334</ele>
        <time>2022-05-01T10:03:20.215Z</time>
      </trkpt>
      <trkpt lat="45.73137" lon="5.929">
        <ele>334</ele>
        <time>2022-05-01T10:03:21.214Z</time>
      </trkpt>
      <trkpt lat="45.7314" lon="5.92903">
        <ele>334</ele>
        <time>2022-05-01T10:03:22.214Z</time>
      </trkpt>
      <trkpt lat="45.73144" lon="5.92905">
        <ele>335</ele>
        <time>2022-05-01T10:03:23.214Z</time>
      </trkpt>
      <trkpt lat="45.73147" lon="5.92908">
        <ele>335</ele>
        <time>2022-05-01T10:03:24.214Z</time>
      </trkpt>
      <trkpt lat="45.73151" lon="5.92911">
        <ele>335</ele>
        <time>2022-05-01T10:03:25.215Z</time>
      </trkpt>
      <trkpt lat="45.73154" lon="5.92914">
        <ele>335</ele>
        <time>2022-05-01T10:03:26.215Z</time>
      </trkpt>
      <trkpt lat="45.73157" lon="5.92917">
        <ele>335</ele>
        <time>2022-05-01T10:03:27.215Z</time>
      </trkpt>
      <trkpt lat="45.7316" lon="5.92921">
        <ele>335</ele>
        <time>2022-05-01T10:03:28.215Z</time>
      </trkpt>
      <trkpt lat="45.73163" lon="5.92925">
        <ele>334</ele>
        <time>2022-05-01T10:03:29.215Z</time>
      </trkpt>
      <trkpt lat="45.73166" lon="5.92928">
        <ele>334</ele>
        <time>2022-05-01T10:03:30.215Z</time>
      </trkpt>
      <trkpt lat="45.73169" lon="5.92932">
        <ele>334</ele>
        <time>2022-05-01T10:03:31.215Z</time>
      </trkpt>
      <trkpt lat="45.73171" lon="5.92936">
        <ele>335</ele>
        <time>2022-05-01T10:03:32.215Z</time>
      </trkpt>
      <trkpt lat="45.73174" lon="5.9294">
        <ele>335</ele>
        <time>2022-05-01T10:03:33.214Z</time>
      </trkpt>
      <trkpt lat="45.73176" lon="5.92944">
        <ele>335</ele>
        <time>2022-05-01T10:03:34.215Z</time>
      </trkpt>
      <trkpt lat="45.73179" lon="5.92948">
        <ele>336</ele>
        <time>2022-05-01T10:03:35.214Z</time>
      </trkpt>
      <trkpt lat="45.73181" lon="5.92951">
        <ele>336</ele>
        <time>2022-05-01T10:03:36.215Z</time>
      </trkpt>
      <trkpt lat="45.73184" lon="5.92955">
        <ele>336</ele>
        <time>2022-05-01T10:03:37.215Z</time>
      </trkpt>
      <trkpt lat="45.73186" lon="5.92959">
        <ele>336</ele>
        <time>2022-05-01T10:03:38.214Z</time>
      </trkpt>
      <trkpt lat="45.73188" lon="5.92962">
        <ele>337</ele>
        <time>2022-05-01T10:03:39.214Z</time>
      </trkpt>
      <trkpt lat="45.7319" lon="5.92966">
        <ele>337</ele>
        <time>2022-05-01T10:03:40.215Z</time>
      </trkpt>
      <trkpt lat="45.73193" lon="5.92969">
        <ele>337</ele>
        <time>2022-05-01T10:03:41.215Z</time>
      </trkpt>
      <trkpt lat="45.73196" lon="5.92973">
        <ele>337</ele>
        <time>2022-05-01T10:03:42.215Z</time>
      </trkpt>
      <trkpt lat="45.73198" lon="5.92975">
        <ele>337</ele>
        <time>2022-05-01T10:03:43.215Z</time>
      </trkpt>
      <trkpt lat="45.73201" lon="5.92977">
        <ele>337</ele>
        <time>2022-05-01T10:03:44.215Z</time>
      </trkpt>
      <trkpt lat="45.73204" lon="5.9298">
        <ele>337</ele>
        <time>2022-05-01T10:03:45.214Z</time>
      </trkpt>
      <trkpt lat="45.73207" lon="5.92983">
        <ele>337</ele>
        <time>2022-05-01T10:03:46.215Z</time>
      </trkpt>
      <trkpt lat="45.7321" lon="5.92985">
        <ele>337</ele>
        <time>2022-05-01T10:03:47.215Z</time>
      </trkpt>
      <trkpt lat="45.73213" lon="5.92987">
        <ele>337</ele>
        <time>2022-05-01T10:03:48.215Z</time>
      </trkpt>
      <trkpt lat="45.73216" lon="5.9299">
        <ele>337</ele>
        <time>2022-05-01T10:03:49.215Z</time>
      </trkpt>
      <trkpt lat="45.73218" lon="5.92992">
        <ele>337</ele>
        <time>2022-05-01T10:03:50.215Z</time>
      </trkpt>
      <trkpt lat="45.73221" lon="5.92994">
        <ele>336</ele>
        <time>2022-05-01T10:03:51.215Z</time>
      </trkpt>
      <trkpt lat="45.73223" lon="5.92996">
        <ele>336</ele>
        <time>2022-05-01T10:03:52.215Z</time>
      </trkpt>
      <trkpt lat="45.73225" lon="5.92998">
        <ele>336</ele>
        <time>2022-05-01T10:03:53.214Z</time>
      </trkpt>
      <trkpt lat="45.73228" lon="5.93">
        <ele>336</ele>
        <time>2022-05-01T10:03:54.215Z</time>
      </trkpt>
      <trkpt lat="45.7323" lon="5.93002">
        <ele>336</ele>
        <time>2022-05-01T10:03:55.215Z</time>
      </trkpt>
      <trkpt lat="45.73233" lon="5.93004">
        <ele>336</ele>
        <time>2022-05-01T10:03:56.215Z</time>
      </trkpt>
      <trkpt lat="45.73235" lon="5.93006">
        <ele>336</ele>
        <time>2022-05-01T10:03:57.215Z</time>
      </trkpt>
      <trkpt lat="45.73238" lon="5.93008">
        <ele>336</ele>
        <time>2022-05-01T10:03:58.215Z</time>
      </trkpt>
      <trkpt lat="45.7324" lon="5.9301">
        <ele>336</ele>
        <time>2022-05-01T10:03:59.215Z</time>
      </trkpt>
      <trkpt lat="45.73243" lon="5.93012">
        <ele>336</ele>
        <time>2022-05-01T10:04:00.215Z</time>
      </trkpt>
      <trkpt lat="45.73245" lon="5.93013">
        <ele>337</ele>
        <time>2022-05-01T10:04:01.215Z</time>
      </trkpt>
      <trkpt lat="45.73248" lon="5.93015">
        <ele>337</ele>
        <time>2022-05-01T10:04:02.215Z</time>
      </trkpt>
      <trkpt lat="45.73251" lon="5.93016">
        <ele>338</ele>
        <time>2022-05-01T10:04:03.215Z</time>
      </trkpt>
      <trkpt lat="45.73254" lon="5.93018">
        <ele>338</ele>
        <time>2022-05-01T10:04:04.215Z</time>
      </trkpt>
      <trkpt lat="45.73257" lon="5.93019">
        <ele>338</ele>
        <time>2022-05-01T10:04:05.214Z</time>
      </trkpt>
      <trkpt lat="45.73259" lon="5.93021">
        <ele>339</ele>
        <time>2022-05-01T10:04:06.214Z</time>
      </trkpt>
      <trkpt lat="45.73262" lon="5.93022">
        <ele>339</ele>
        <time>2022-05-01T10:04:07.214Z</time>
      </trkpt>
      <trkpt lat="45.73265" lon="5.93024">
        <ele>339</ele>
        <time>2022-05-01T10:04:08.215Z</time>
      </trkpt>
      <trkpt lat="45.73268" lon="5.93026">
        <ele>339</ele>
        <time>2022-05-01T10:04:09.215Z</time>
      </trkpt>
      <trkpt lat="45.73271" lon="5.93027">
        <ele>339</ele>
        <time>2022-05-01T10:04:10.215Z</time>
      </trkpt>
      <trkpt lat="45.73274" lon="5.93029">
        <ele>340</ele>
        <time>2022-05-01T10:04:11.214Z</time>
      </trkpt>
      <trkpt lat="45.73277" lon="5.93031">
        <ele>340</ele>
        <time>2022-05-01T10:04:12.214Z</time>
      </trkpt>
      <trkpt lat="45.7328" lon="5.93032">
        <ele>340</ele>
        <time>2022-05-01T10:04:13.215Z</time>
      </trkpt>
      <trkpt lat="45.73283" lon="5.93034">
        <ele>340</ele>
        <time>2022-05-01T10:04:14.214Z</time>
      </trkpt>
      <trkpt lat="45.73286" lon="5.93035">
        <ele>339</ele>
        <time>2022-05-01T10:04:15.215Z</time>
      </trkpt>
      <trkpt lat="45.73289" lon="5.93036">
        <ele>339</ele>
        <time>2022-05-01T10:04:16.215Z</time>
      </trkpt>
      <trkpt lat="45.73292" lon="5.93038">
        <ele>339</ele>
        <time>2022-05-01T10:04:17.215Z</time>
      </trkpt>
      <trkpt lat="45.73295" lon="5.9304">
        <ele>339</ele>
        <time>2022-05-01T10:04:18.215Z</time>
      </trkpt>
      <trkpt lat="45.73298" lon="5.93042">
        <ele>339</ele>
        <time>2022-05-01T10:04:19.215Z</time>
      </trkpt>
      <trkpt lat="45.73301" lon="5.93043">
        <ele>340</ele>
        <time>2022-05-01T10:04:20.215Z</time>
      </trkpt>
      <trkpt lat="45.73304" lon="5.93045">
        <ele>340</ele>
        <time>2022-05-01T10:04:21.215Z</time>
      </trkpt>
      <trkpt lat="45.73307" lon="5.93046">
        <ele>340</ele>
        <time>2022-05-01T10:04:22.215Z</time>
      </trkpt>
      <trkpt lat="45.7331" lon="5.93047">
        <ele>341</ele>
        <time>2022-05-01T10:04:23.215Z</time>
      </trkpt>
      <trkpt lat="45.73314" lon="5.93048">
        <ele>341</ele>
        <time>2022-05-01T10:04:24.215Z</time>
      </trkpt>
      <trkpt lat="45.73317" lon="5.93049">
        <ele>341</ele>
        <time>2022-05-01T10:04:25.215Z</time>
      </trkpt>
      <trkpt lat="45.7332" lon="5.9305">
        <ele>340</ele>
        <time>2022-05-01T10:04:26.215Z</time>
      </trkpt>
      <trkpt lat="45.73324" lon="5.93051">
        <ele>340</ele>
        <time>2022-05-01T10:04:27.215Z</time>
      </trkpt>
      <trkpt lat="45.73327" lon="5.93052">
        <ele>341</ele>
        <time>2022-05-01T10:04:28.214Z</time>
      </trkpt>
      <trkpt lat="45.73332" lon="5.93053">
        <ele>341</ele>
        <time>2022-05-01T10:04:29.215Z</time>
      </trkpt>
      <trkpt lat="45.73335" lon="5.93053">
        <ele>341</ele>
        <time>2022-05-01T10:04:30.215Z</time>
      </trkpt>
      <trkpt lat="45.73339" lon="5.93054">
        <ele>342</ele>
        <time>2022-05-01T10:04:31.215Z</time>
      </trkpt>
      <trkpt lat="45.73344" lon="5.93055">
        <ele>343</ele>
        <time>2022-05-01T10:04:32.215Z</time>
      </trkpt>
      <trkpt lat="45.73348" lon="5.93056">
        <ele>343</ele>
        <time>2022-05-01T10:04:33.215Z</time>
      </trkpt>
      <trkpt lat="45.73353" lon="5.93058">
        <ele>344</ele>
        <time>2022-05-01T10:04:34.215Z</time>
      </trkpt>
      <trkpt lat="45.73357" lon="5.93059">
        <ele>344</ele>
        <time>2022-05-01T10:04:35.214Z</time>
      </trkpt>
      <trkpt lat="45.73362" lon="5.9306">
        <ele>344</ele>
        <time>2022-05-01T10:04:36.215Z</time>
      </trkpt>
      <trkpt lat="45.73367" lon="5.93061">
        <ele>343</ele>
        <time>2022-05-01T10:04:37.214Z</time>
      </trkpt>
      <trkpt lat="45.73373" lon="5.93063">
        <ele>343</ele>
        <time>2022-05-01T10:04:38.214Z</time>
      </trkpt>
      <trkpt lat="45.73378" lon="5.93064">
        <ele>342</ele>
        <time>2022-05-01T10:04:39.215Z</time>
      </trkpt>
      <trkpt lat="45.73384" lon="5.93065">
        <ele>341</ele>
        <time>2022-05-01T10:04:40.215Z</time>
      </trkpt>
      <trkpt lat="45.73389" lon="5.93066">
        <ele>340</ele>
        <time>2022-05-01T10:04:41.214Z</time>
      </trkpt>
      <trkpt lat="45.73394" lon="5.93067">
        <ele>340</ele>
        <time>2022-05-01T10:04:42.215Z</time>
      </trkpt>
      <trkpt lat="45.734" lon="5.93067">
        <ele>340</ele>
        <time>2022-05-01T10:04:43.215Z</time>
      </trkpt>
      <trkpt lat="45.73405" lon="5.93068">
        <ele>340</ele>
        <time>2022-05-01T10:04:44.215Z</time>
      </trkpt>
      <trkpt lat="45.7341" lon="5.93068">
        <ele>339</ele>
        <time>2022-05-01T10:04:45.215Z</time>
      </trkpt>
      <trkpt lat="45.73415" lon="5.93068">
        <ele>339</ele>
        <time>2022-05-01T10:04:46.215Z</time>
      </trkpt>
      <trkpt lat="45.7342" lon="5.93068">
        <ele>339</ele>
        <time>2022-05-01T10:04:47.215Z</time>
      </trkpt>
      <trkpt lat="45.73424" lon="5.93067">
        <ele>339</ele>
        <time>2022-05-01T10:04:48.215Z</time>
      </trkpt>
      <trkpt lat="45.73429" lon="5.93066">
        <ele>339</ele>
        <time>2022-05-01T10:04:49.215Z</time>
      </trkpt>
      <trkpt lat="45.73433" lon="5.93066">
        <ele>339</ele>
        <time>2022-05-01T10:04:50.215Z</time>
      </trkpt>
      <trkpt lat="45.73438" lon="5.93065">
        <ele>339</ele>
        <time>2022-05-01T10:04:51.215Z</time>
      </trkpt>
      <trkpt lat="45.73442" lon="5.93064">
        <ele>339</ele>
        <time>2022-05-01T10:04:52.215Z</time>
      </trkpt>
      <trkpt lat="45.73447" lon="5.93063">
        <ele>339</ele>
        <time>2022-05-01T10:04:53.215Z</time>
      </trkpt>
      <trkpt lat="45.73452" lon="5.93062">
        <ele>338</ele>
        <time>2022-05-01T10:04:54.215Z</time>
      </trkpt>
      <trkpt lat="45.73456" lon="5.93062">
        <ele>338</ele>
        <time>2022-05-01T10:04:55.214Z</time>
      </trkpt>
      <trkpt lat="45.73461" lon="5.93062">
        <ele>338</ele>
        <time>2022-05-01T10:04:56.215Z</time>
      </trkpt>
      <trkpt lat="45.73466" lon="5.93062">
        <ele>338</ele>
        <time>2022-05-01T10:04:57.214Z</time>
      </trkpt>
      <trkpt lat="45.73471" lon="5.93062">
        <ele>338</ele>
        <time>2022-05-01T10:04:58.214Z</time>
      </trkpt>
      <trkpt lat="45.73476" lon="5.93063">
        <ele>338</ele>
        <time>2022-05-01T10:04:59.215Z</time>
      </trkpt>
      <trkpt lat="45.73481" lon="5.93063">
        <ele>338</ele>
        <time>2022-05-01T10:05:00.215Z</time>
      </trkpt>
      <trkpt lat="45.73486" lon="5.93064">
        <ele>338</ele>
        <time>2022-05-01T10:05:01.215Z</time>
      </trkpt>
      <trkpt lat="45.73491" lon="5.93065">
        <ele>338</ele>
        <time>2022-05-01T10:05:02.215Z</time>
      </trkpt>
      <trkpt lat="45.73495" lon="5.93066">
        <ele>337</ele>
        <time>2022-05-01T10:05:03.215Z</time>
      </trkpt>
      <trkpt lat="45.73499" lon="5.93067">
        <ele>337</ele>
        <time>2022-05-01T10:05:04.215Z</time>
      </trkpt>
      <trkpt lat="45.73504" lon="5.93069">
        <ele>337</ele>
        <time>2022-05-01T10:05:05.215Z</time>
      </trkpt>
      <trkpt lat="45.73508" lon="5.9307">
        <ele>337</ele>
        <time>2022-05-01T10:05:06.215Z</time>
      </trkpt>
      <trkpt lat="45.73513" lon="5.93072">
        <ele>337</ele>
        <time>2022-05-01T10:05:07.215Z</time>
      </trkpt>
      <trkpt lat="45.73518" lon="5.93074">
        <ele>337</ele>
        <time>2022-05-01T10:05:08.215Z</time>
      </trkpt>
      <trkpt lat="45.73523" lon="5.93077">
        <ele>337</ele>
        <time>2022-05-01T10:05:09.215Z</time>
      </trkpt>
      <trkpt lat="45.73527" lon="5.9308">
        <ele>337</ele>
        <time>2022-05-01T10:05:10.215Z</time>
      </trkpt>
      <trkpt lat="45.73532" lon="5.93082">
        <ele>337</ele>
        <time>2022-05-01T10:05:11.215Z</time>
      </trkpt>
      <trkpt lat="45.73537" lon="5.93085">
        <ele>337</ele>
        <time>2022-05-01T10:05:12.215Z</time>
      </trkpt>
      <trkpt lat="45.73541" lon="5.93088">
        <ele>337</ele>
        <time>2022-05-01T10:05:13.215Z</time>
      </trkpt>
      <trkpt lat="45.73545" lon="5.93091">
        <ele>337</ele>
        <time>2022-05-01T10:05:14.215Z</time>
      </trkpt>
      <trkpt lat="45.73549" lon="5.93094">
        <ele>338</ele>
        <time>2022-05-01T10:05:15.215Z</time>
      </trkpt>
      <trkpt lat="45.73553" lon="5.93097">
        <ele>338</ele>
        <time>2022-05-01T10:05:16.215Z</time>
      </trkpt>
      <trkpt lat="45.73558" lon="5.93099">
        <ele>338</ele>
        <time>2022-05-01T10:05:17.214Z</time>
      </trkpt>
      <trkpt lat="45.73562" lon="5.93102">
        <ele>338</ele>
        <time>2022-05-01T10:05:18.214Z</time>
      </trkpt>
      <trkpt lat="45.73566" lon="5.93105">
        <ele>338</ele>
        <time>2022-05-01T10:05:19.215Z</time>
      </trkpt>
      <trkpt lat="45.7357" lon="5.93108">
        <ele>338</ele>
        <time>2022-05-01T10:05:20.215Z</time>
      </trkpt>
      <trkpt lat="45.73574" lon="5.93111">
        <ele>338</ele>
        <time>2022-05-01T10:05:21.215Z</time>
      </trkpt>
      <trkpt lat="45.73579" lon="5.93113">
        <ele>338</ele>
        <time>2022-05-01T10:05:22.215Z</time>
      </trkpt>
      <trkpt lat="45.73583" lon="5.93115">
        <ele>338</ele>
        <time>2022-05-01T10:05:23.214Z</time>
      </trkpt>
      <trkpt lat="45.73588" lon="5.93117">
        <ele>338</ele>
        <time>2022-05-01T10:05:24.215Z</time>
      </trkpt>
      <trkpt lat="45.73593" lon="5.93119">
        <ele>338</ele>
        <time>2022-05-01T10:05:25.214Z</time>
      </trkpt>
      <trkpt lat="45.73598" lon="5.93121">
        <ele>338</ele>
        <time>2022-05-01T10:05:26.215Z</time>
      </trkpt>
      <trkpt lat="45.73603" lon="5.93123">
        <ele>338</ele>
        <time>2022-05-01T10:05:27.214Z</time>
      </trkpt>
      <trkpt lat="45.73608" lon="5.93124">
        <ele>337</ele>
        <time>2022-05-01T10:05:28.215Z</time>
      </trkpt>
      <trkpt lat="45.73613" lon="5.93126">
        <ele>337</ele>
        <time>2022-05-01T10:05:29.214Z</time>
      </trkpt>
      <trkpt lat="45.73618" lon="5.93127">
        <ele>336</ele>
        <time>2022-05-01T10:05:30.215Z</time>
      </trkpt>
      <trkpt lat="45.73623" lon="5.93128">
        <ele>336</ele>
        <time>2022-05-01T10:05:31.215Z</time>
      </trkpt>
      <trkpt lat="45.73629" lon="5.93129">
        <ele>336</ele>
        <time>2022-05-01T10:05:32.215Z</time>
      </trkpt>
      <trkpt lat="45.73634" lon="5.93129">
        <ele>336</ele>
        <time>2022-05-01T10:05:33.215Z</time>
      </trkpt>
      <trkpt lat="45.73639" lon="5.9313">
        <ele>336</ele>
        <time>2022-05-01T10:05:34.215Z</time>
      </trkpt>
      <trkpt lat="45.73644" lon="5.93129">
        <ele>336</ele>
        <time>2022-05-01T10:05:35.215Z</time>
      </trkpt>
      <trkpt lat="45.73649" lon="5.93129">
        <ele>336</ele>
        <time>2022-05-01T10:05:36.214Z</time>
      </trkpt>
      <trkpt lat="45.73654" lon="5.93128">
        <ele>336</ele>
        <time>2022-05-01T10:05:37.215Z</time>
      </trkpt>
      <trkpt lat="45.73659" lon="5.93128">
        <ele>336</ele>
        <time>2022-05-01T10:05:38.215Z</time>
      </trkpt>
      <trkpt lat="45.73665" lon="5.93127">
        <ele>336</ele>
        <time>2022-05-01T10:05:39.215Z</time>
      </trkpt>
      <trkpt lat="45.73671" lon="5.93126">
        <ele>336</ele>
        <time>2022-05-01T10:05:40.215Z</time>
      </trkpt>
      <trkpt lat="45.73677" lon="5.93125">
        <ele>336</ele>
        <time>2022-05-01T10:05:41.215Z</time>
      </trkpt>
      <trkpt lat="45.73682" lon="5.93124">
        <ele>336</ele>
        <time>2022-05-01T10:05:42.215Z</time>
      </trkpt>
      <trkpt lat="45.73688" lon="5.93122">
        <ele>337</ele>
        <time>2022-05-01T10:05:43.215Z</time>
      </trkpt>
      <trkpt lat="45.73693" lon="5.9312">
        <ele>337</ele>
        <time>2022-05-01T10:05:44.215Z</time>
      </trkpt>
      <trkpt lat="45.73699" lon="5.93119">
        <ele>337</ele>
        <time>2022-05-01T10:05:45.214Z</time>
      </trkpt>
      <trkpt lat="45.73704" lon="5.93117">
        <ele>337</ele>
        <time>2022-05-01T10:05:46.215Z</time>
      </trkpt>
      <trkpt lat="45.7371" lon="5.93116">
        <ele>337</ele>
        <time>2022-05-01T10:05:47.214Z</time>
      </trkpt>
      <trkpt lat="45.73715" lon="5.93113">
        <ele>338</ele>
        <time>2022-05-01T10:05:48.215Z</time>
      </trkpt>
      <trkpt lat="45.7372" lon="5.93111">
        <ele>338</ele>
        <time>2022-05-01T10:05:49.214Z</time>
      </trkpt>
      <trkpt lat="45.73725" lon="5.93109">
        <ele>338</ele>
        <time>2022-05-01T10:05:50.215Z</time>
      </trkpt>
      <trkpt lat="45.73731" lon="5.93106">
        <ele>338</ele>
        <time>2022-05-01T10:05:51.214Z</time>
      </trkpt>
      <trkpt lat="45.73735" lon="5.93103">
        <ele>338</ele>
        <time>2022-05-01T10:05:52.215Z</time>
      </trkpt>
      <trkpt lat="45.7374" lon="5.93099">
        <ele>338</ele>
        <time>2022-05-01T10:05:53.215Z</time>
      </trkpt>
      <trkpt lat="45.73745" lon="5.93095">
        <ele>338</ele>
        <time>2022-05-01T10:05:54.215Z</time>
      </trkpt>
      <trkpt lat="45.7375" lon="5.9309">
        <ele>338</ele>
        <time>2022-05-01T10:05:55.214Z</time>
      </trkpt>
      <trkpt lat="45.73754" lon="5.93086">
        <ele>338</ele>
        <time>2022-05-01T10:05:56.215Z</time>
      </trkpt>
      <trkpt lat="45.73759" lon="5.93081">
        <ele>338</ele>
        <time>2022-05-01T10:05:57.215Z</time>
      </trkpt>
      <trkpt lat="45.73764" lon="5.93077">
        <ele>338</ele>
        <time>2022-05-01T10:05:58.215Z</time>
      </trkpt>
      <trkpt lat="45.73769" lon="5.93073">
        <ele>338</ele>
        <time>2022-05-01T10:05:59.215Z</time>
      </trkpt>
      <trkpt lat="45.73775" lon="5.93069">
        <ele>337</ele>
        <time>2022-05-01T10:06:00.215Z</time>
      </trkpt>
      <trkpt lat="45.73779" lon="5.93065">
        <ele>338</ele>
        <time>2022-05-01T10:06:01.214Z</time>
      </trkpt>
      <trkpt lat="45.73784" lon="5.93061">
        <ele>337</ele>
        <time>2022-05-01T10:06:02.214Z</time>
      </trkpt>
      <trkpt lat="45.73789" lon="5.93057">
        <ele>337</ele>
        <time>2022-05-01T10:06:03.214Z</time>
      </trkpt>
      <trkpt lat="45.73794" lon="5.93054">
        <ele>337</ele>
        <time>2022-05-01T10:06:04.215Z</time>
      </trkpt>
      <trkpt lat="45.73799" lon="5.93051">
        <ele>337</ele>
        <time>2022-05-01T10:06:05.214Z</time>
      </trkpt>
      <trkpt lat="45.73804" lon="5.93049">
        <ele>338</ele>
        <time>2022-05-01T10:06:06.215Z</time>
      </trkpt>
      <trkpt lat="45.7381" lon="5.93047">
        <ele>338</ele>
        <time>2022-05-01T10:06:07.215Z</time>
      </trkpt>
      <trkpt lat="45.73815" lon="5.93045">
        <ele>339</ele>
        <time>2022-05-01T10:06:08.214Z</time>
      </trkpt>
      <trkpt lat="45.73819" lon="5.93043">
        <ele>339</ele>
        <time>2022-05-01T10:06:09.214Z</time>
      </trkpt>
      <trkpt lat="45.73824" lon="5.93042">
        <ele>339</ele>
        <time>2022-05-01T10:06:10.214Z</time>
      </trkpt>
      <trkpt lat="45.73829" lon="5.93041">
        <ele>339</ele>
        <time>2022-05-01T10:06:11.214Z</time>
      </trkpt>
      <trkpt lat="45.73834" lon="5.9304">
        <ele>339</ele>
        <time>2022-05-01T10:06:12.215Z</time>
      </trkpt>
      <trkpt lat="45.73838" lon="5.9304">
        <ele>339</ele>
        <time>2022-05-01T10:06:13.215Z</time>
      </trkpt>
      <trkpt lat="45.73842" lon="5.9304">
        <ele>339</ele>
        <time>2022-05-01T10:06:14.215Z</time>
      </trkpt>
      <trkpt lat="45.73847" lon="5.9304">
        <ele>339</ele>
        <time>2022-05-01T10:06:15.214Z</time>
      </trkpt>
      <trkpt lat="45.73852" lon="5.9304">
        <ele>338</ele>
        <time>2022-05-01T10:06:16.215Z</time>
      </trkpt>
      <trkpt lat="45.73856" lon="5.93039">
        <ele>338</ele>
        <time>2022-05-01T10:06:17.215Z</time>
      </trkpt>
      <trkpt lat="45.7386" lon="5.93039">
        <ele>338</ele>
        <time>2022-05-01T10:06:18.214Z</time>
      </trkpt>
      <trkpt lat="45.73864" lon="5.93038">
        <ele>338</ele>
        <time>2022-05-01T10:06:19.214Z</time>
      </trkpt>
      <trkpt lat="45.73868" lon="5.93038">
        <ele>338</ele>
        <time>2022-05-01T10:06:20.215Z</time>
      </trkpt>
      <trkpt lat="45.73872" lon="5.93038">
        <ele>338</ele>
        <time>2022-05-01T10:06:21.215Z</time>
      </trkpt>
      <trkpt lat="45.73877" lon="5.93037">
        <ele>338</ele>
        <time>2022-05-01T10:06:22.215Z</time>
      </trkpt>
      <trkpt lat="45.73881" lon="5.93037">
        <ele>338</ele>
        <time>2022-05-01T10:06:23.215Z</time>
      </trkpt>
      <trkpt lat="45.73885" lon="5.93036">
        <ele>339</ele>
        <time>2022-05-01T10:06:24.215Z</time>
      </trkpt>
      <trkpt lat="45.73889" lon="5.93036">
        <ele>339</ele>
        <time>2022-05-01T10:06:25.214Z</time>
      </trkpt>
      <trkpt lat="45.73893" lon="5.93036">
        <ele>339</ele>
        <time>2022-05-01T10:06:26.215Z</time>
      </trkpt>
      <trkpt lat="45.73897" lon="5.93036">
        <ele>339</ele>
        <time>2022-05-01T10:06:27.214Z</time>
      </trkpt>
      <trkpt lat="45.739" lon="5.93036">
        <ele>339</ele>
        <time>2022-05-01T10:06:28.215Z</time>
      </trkpt>
      <trkpt lat="45.73904" lon="5.93036">
        <ele>339</ele>
        <time>2022-05-01T10:06:29.215Z</time>
      </trkpt>
      <trkpt lat="45.73908" lon="5.93036">
        <ele>339</ele>
        <time>2022-05-01T10:06:30.215Z</time>
      </trkpt>
      <trkpt lat="45.73912" lon="5.93036">
        <ele>339</ele>
        <time>2022-05-01T10:06:31.214Z</time>
      </trkpt>
      <trkpt lat="45.73915" lon="5.93036">
        <ele>339</ele>
        <time>2022-05-01T10:06:32.215Z</time>
      </trkpt>
      <trkpt lat="45.73919" lon="5.93036">
        <ele>340</ele>
        <time>2022-05-01T10:06:33.214Z</time>
      </trkpt>
      <trkpt lat="45.73923" lon="5.93036">
        <ele>340</ele>
        <time>2022-05-01T10:06:34.215Z</time>
      </trkpt>
      <trkpt lat="45.73926" lon="5.93036">
        <ele>340</ele>
        <time>2022-05-01T10:06:35.215Z</time>
      </trkpt>
      <trkpt lat="45.7393" lon="5.93036">
        <ele>340</ele>
        <time>2022-05-01T10:06:36.215Z</time>
      </trkpt>
      <trkpt lat="45.73933" lon="5.93035">
        <ele>341</ele>
        <time>2022-05-01T10:06:37.215Z</time>
      </trkpt>
      <trkpt lat="45.73937" lon="5.93035">
        <ele>341</ele>
        <time>2022-05-01T10:06:38.215Z</time>
      </trkpt>
      <trkpt lat="45.7394" lon="5.93035">
        <ele>342</ele>
        <time>2022-05-01T10:06:39.215Z</time>
      </trkpt>
      <trkpt lat="45.73944" lon="5.93035">
        <ele>342</ele>
        <time>2022-05-01T10:06:40.215Z</time>
      </trkpt>
      <trkpt lat="45.73947" lon="5.93035">
        <ele>342</ele>
        <time>2022-05-01T10:06:41.214Z</time>
      </trkpt>
      <trkpt lat="45.73951" lon="5.93035">
        <ele>342</ele>
        <time>2022-05-01T10:06:42.214Z</time>
      </trkpt>
      <trkpt lat="45.73954" lon="5.93035">
        <ele>342</ele>
        <time>2022-05-01T10:06:43.215Z</time>
      </trkpt>
      <trkpt lat="45.73957" lon="5.93035">
        <ele>342</ele>
        <time>2022-05-01T10:06:44.215Z</time>
      </trkpt>
      <trkpt lat="45.7396" lon="5.93035">
        <ele>342</ele>
        <time>2022-05-01T10:06:45.215Z</time>
      </trkpt>
      <trkpt lat="45.73963" lon="5.93035">
        <ele>342</ele>
        <time>2022-05-01T10:06:46.215Z</time>
      </trkpt>
      <trkpt lat="45.73967" lon="5.93035">
        <ele>342</ele>
        <time>2022-05-01T10:06:47.214Z</time>
      </trkpt>
      <trkpt lat="45.73969" lon="5.93035">
        <ele>342</ele>
        <time>2022-05-01T10:06:48.215Z</time>
      </trkpt>
      <trkpt lat="45.73972" lon="5.93035">
        <ele>342</ele>
        <time>2022-05-01T10:06:49.215Z</time>
      </trkpt>
      <trkpt lat="45.73975" lon="5.93034">
        <ele>342</ele>
        <time>2022-05-01T10:06:50.215Z</time>
      </trkpt>
      <trkpt lat="45.73978" lon="5.93034">
        <ele>343</ele>
        <time>2022-05-01T10:06:51.215Z</time>
      </trkpt>
      <trkpt lat="45.73981" lon="5.93033">
        <ele>343</ele>
        <time>2022-05-01T10:06:52.215Z</time>
      </trkpt>
      <trkpt lat="45.73984" lon="5.93033">
        <ele>343</ele>
        <time>2022-05-01T10:06:53.215Z</time>
      </trkpt>
      <trkpt lat="45.73987" lon="5.93032">
        <ele>343</ele>
        <time>2022-05-01T10:06:54.215Z</time>
      </trkpt>
      <trkpt lat="45.7399" lon="5.93032">
        <ele>343</ele>
        <time>2022-05-01T10:06:55.214Z</time>
      </trkpt>
      <trkpt lat="45.73994" lon="5.93032">
        <ele>343</ele>
        <time>2022-05-01T10:06:56.215Z</time>
      </trkpt>
      <trkpt lat="45.73997" lon="5.93032">
        <ele>343</ele>
        <time>2022-05-01T10:06:57.215Z</time>
      </trkpt>
      <trkpt lat="45.74001" lon="5.93031">
        <ele>343</ele>
        <time>2022-05-01T10:06:58.214Z</time>
      </trkpt>
      <trkpt lat="45.74004" lon="5.93031">
        <ele>343</ele>
        <time>2022-05-01T10:06:59.214Z</time>
      </trkpt>
      <trkpt lat="45.74007" lon="5.9303">
        <ele>343</ele>
        <time>2022-05-01T10:07:00.215Z</time>
      </trkpt>
      <trkpt lat="45.7401" lon="5.93029">
        <ele>343</ele>
        <time>2022-05-01T10:07:01.215Z</time>
      </trkpt>
      <trkpt lat="45.74013" lon="5.93028">
        <ele>343</ele>
        <time>2022-05-01T10:07:02.215Z</time>
      </trkpt>
      <trkpt lat="45.74016" lon="5.93028">
        <ele>343</ele>
        <time>2022-05-01T10:07:03.215Z</time>
      </trkpt>
      <trkpt lat="45.7402" lon="5.93028">
        <ele>343</ele>
        <time>2022-05-01T10:07:04.215Z</time>
      </trkpt>
      <trkpt lat="45.74023" lon="5.93027">
        <ele>343</ele>
        <time>2022-05-01T10:07:05.215Z</time>
      </trkpt>
      <trkpt lat="45.74026" lon="5.93027">
        <ele>342</ele>
        <time>2022-05-01T10:07:06.215Z</time>
      </trkpt>
      <trkpt lat="45.74029" lon="5.93027">
        <ele>342</ele>
        <time>2022-05-01T10:07:07.215Z</time>
      </trkpt>
      <trkpt lat="45.74033" lon="5.93027">
        <ele>343</ele>
        <time>2022-05-01T10:07:08.214Z</time>
      </trkpt>
      <trkpt lat="45.74036" lon="5.93027">
        <ele>343</ele>
        <time>2022-05-01T10:07:09.215Z</time>
      </trkpt>
      <trkpt lat="45.7404" lon="5.93027">
        <ele>343</ele>
        <time>2022-05-01T10:07:10.215Z</time>
      </trkpt>
      <trkpt lat="45.74045" lon="5.93028">
        <ele>343</ele>
        <time>2022-05-01T10:07:11.215Z</time>
      </trkpt>
      <trkpt lat="45.74049" lon="5.93028">
        <ele>343</ele>
        <time>2022-05-01T10:07:12.215Z</time>
      </trkpt>
      <trkpt lat="45.74054" lon="5.93029">
        <ele>343</ele>
        <time>2022-05-01T10:07:13.215Z</time>
      </trkpt>
      <trkpt lat="45.74059" lon="5.93031">
        <ele>343</ele>
        <time>2022-05-01T10:07:14.215Z</time>
      </trkpt>
      <trkpt lat="45.74064" lon="5.93032">
        <ele>343</ele>
        <time>2022-05-01T10:07:15.215Z</time>
      </trkpt>
      <trkpt lat="45.7407" lon="5.93034">
        <ele>343</ele>
        <time>2022-05-01T10:07:16.215Z</time>
      </trkpt>
      <trkpt lat="45.74076" lon="5.93037">
        <ele>343</ele>
        <time>2022-05-01T10:07:17.215Z</time>
      </trkpt>
      <trkpt lat="45.74081" lon="5.93041">
        <ele>342</ele>
        <time>2022-05-01T10:07:18.215Z</time>
      </trkpt>
      <trkpt lat="45.74087" lon="5.93045">
        <ele>342</ele>
        <time>2022-05-01T10:07:19.215Z</time>
      </trkpt>
      <trkpt lat="45.74093" lon="5.93051">
        <ele>341</ele>
        <time>2022-05-01T10:07:20.215Z</time>
      </trkpt>
      <trkpt lat="45.74099" lon="5.93058">
        <ele>341</ele>
        <time>2022-05-01T10:07:21.215Z</time>
      </trkpt>
      <trkpt lat="45.74105" lon="5.93065">
        <ele>340</ele>
        <time>2022-05-01T10:07:22.215Z</time>
      </trkpt>
      <trkpt lat="45.74112" lon="5.93072">
        <ele>340</ele>
        <time>2022-05-01T10:07:23.215Z</time>
      </trkpt>
      <trkpt lat="45.74118" lon="5.9308">
        <ele>340</ele>
        <time>2022-05-01T10:07:24.215Z</time>
      </trkpt>
      <trkpt lat="45.74124" lon="5.93088">
        <ele>339</ele>
        <time>2022-05-01T10:07:25.215Z</time>
      </trkpt>
      <trkpt lat="45.74131" lon="5.93096">
        <ele>339</ele>
        <time>2022-05-01T10:07:26.215Z</time>
      </trkpt>
      <trkpt lat="45.74138" lon="5.93105">
        <ele>339</ele>
        <time>2022-05-01T10:07:27.214Z</time>
      </trkpt>
      <trkpt lat="45.74144" lon="5.93113">
        <ele>338</ele>
        <time>2022-05-01T10:07:28.215Z</time>
      </trkpt>
      <trkpt lat="45.7415" lon="5.93121">
        <ele>338</ele>
        <time>2022-05-01T10:07:29.215Z</time>
      </trkpt>
      <trkpt lat="45.74157" lon="5.93129">
        <ele>337</ele>
        <time>2022-05-01T10:07:30.215Z</time>
      </trkpt>
      <trkpt lat="45.74163" lon="5.93137">
        <ele>336</ele>
        <time>2022-05-01T10:07:31.215Z</time>
      </trkpt>
      <trkpt lat="45.74169" lon="5.93144">
        <ele>336</ele>
        <time>2022-05-01T10:07:32.214Z</time>
      </trkpt>
      <trkpt lat="45.74174" lon="5.93152">
        <ele>335</ele>
        <time>2022-05-01T10:07:33.215Z</time>
      </trkpt>
      <trkpt lat="45.7418" lon="5.93159">
        <ele>335</ele>
        <time>2022-05-01T10:07:34.214Z</time>
      </trkpt>
      <trkpt lat="45.74185" lon="5.93166">
        <ele>335</ele>
        <time>2022-05-01T10:07:35.215Z</time>
      </trkpt>
      <trkpt lat="45.7419" lon="5.93172">
        <ele>335</ele>
        <time>2022-05-01T10:07:36.215Z</time>
      </trkpt>
      <trkpt lat="45.74196" lon="5.93179">
        <ele>335</ele>
        <time>2022-05-01T10:07:37.215Z</time>
      </trkpt>
      <trkpt lat="45.742" lon="5.93184">
        <ele>335</ele>
        <time>2022-05-01T10:07:38.215Z</time>
      </trkpt>
      <trkpt lat="45.74205" lon="5.9319">
        <ele>335</ele>
        <time>2022-05-01T10:07:39.215Z</time>
      </trkpt>
      <trkpt lat="45.74209" lon="5.93195">
        <ele>335</ele>
        <time>2022-05-01T10:07:40.215Z</time>
      </trkpt>
      <trkpt lat="45.74213" lon="5.932">
        <ele>335</ele>
        <time>2022-05-01T10:07:41.215Z</time>
      </trkpt>
      <trkpt lat="45.74217" lon="5.93206">
        <ele>336</ele>
        <time>2022-05-01T10:07:42.215Z</time>
      </trkpt>
      <trkpt lat="45.7422" lon="5.93211">
        <ele>336</ele>
        <time>2022-05-01T10:07:43.215Z</time>
      </trkpt>
      <trkpt lat="45.74224" lon="5.93216">
        <ele>336</ele>
        <time>2022-05-01T10:07:44.215Z</time>
      </trkpt>
      <trkpt lat="45.74227" lon="5.93221">
        <ele>336</ele>
        <time>2022-05-01T10:07:45.215Z</time>
      </trkpt>
      <trkpt lat="45.7423" lon="5.93226">
        <ele>336</ele>
        <time>2022-05-01T10:07:46.214Z</time>
      </trkpt>
      <trkpt lat="45.74234" lon="5.93231">
        <ele>336</ele>
        <time>2022-05-01T10:07:47.215Z</time>
      </trkpt>
      <trkpt lat="45.74237" lon="5.93236">
        <ele>336</ele>
        <time>2022-05-01T10:07:48.214Z</time>
      </trkpt>
      <trkpt lat="45.7424" lon="5.93241">
        <ele>336</ele>
        <time>2022-05-01T10:07:49.215Z</time>
      </trkpt>
      <trkpt lat="45.74244" lon="5.93245">
        <ele>336</ele>
        <time>2022-05-01T10:07:50.215Z</time>
      </trkpt>
      <trkpt lat="45.74247" lon="5.9325">
        <ele>336</ele>
        <time>2022-05-01T10:07:51.215Z</time>
      </trkpt>
      <trkpt lat="45.74249" lon="5.93254">
        <ele>336</ele>
        <time>2022-05-01T10:07:52.214Z</time>
      </trkpt>
      <trkpt lat="45.74252" lon="5.93258">
        <ele>336</ele>
        <time>2022-05-01T10:07:53.215Z</time>
      </trkpt>
      <trkpt lat="45.74255" lon="5.93262">
        <ele>336</ele>
        <time>2022-05-01T10:07:54.214Z</time>
      </trkpt>
      <trkpt lat="45.74258" lon="5.93265">
        <ele>337</ele>
        <time>2022-05-01T10:07:55.215Z</time>
      </trkpt>
      <trkpt lat="45.7426" lon="5.93269">
        <ele>337</ele>
        <time>2022-05-01T10:07:56.215Z</time>
      </trkpt>
      <trkpt lat="45.74263" lon="5.93273">
        <ele>337</ele>
        <time>2022-05-01T10:07:57.215Z</time>
      </trkpt>
      <trkpt lat="45.74265" lon="5.93276">
        <ele>337</ele>
        <time>2022-05-01T10:07:58.215Z</time>
      </trkpt>
      <trkpt lat="45.74268" lon="5.9328">
        <ele>336</ele>
        <time>2022-05-01T10:07:59.215Z</time>
      </trkpt>
      <trkpt lat="45.7427" lon="5.93283">
        <ele>337</ele>
        <time>2022-05-01T10:08:00.215Z</time>
      </trkpt>
      <trkpt lat="45.74273" lon="5.93286">
        <ele>337</ele>
        <time>2022-05-01T10:08:01.215Z</time>
      </trkpt>
      <trkpt lat="45.74276" lon="5.93289">
        <ele>337</ele>
        <time>2022-05-01T10:08:02.214Z</time>
      </trkpt>
      <trkpt lat="45.74278" lon="5.93292">
        <ele>337</ele>
        <time>2022-05-01T10:08:03.215Z</time>
      </trkpt>
      <trkpt lat="45.74281" lon="5.93294">
        <ele>337</ele>
        <time>2022-05-01T10:08:04.215Z</time>
      </trkpt>
      <trkpt lat="45.74284" lon="5.93297">
        <ele>338</ele>
        <time>2022-05-01T10:08:05.215Z</time>
      </trkpt>
      <trkpt lat="45.74286" lon="5.933">
        <ele>338</ele>
        <time>2022-05-01T10:08:06.215Z</time>
      </trkpt>
      <trkpt lat="45.74288" lon="5.93303">
        <ele>338</ele>
        <time>2022-05-01T10:08:07.214Z</time>
      </trkpt>
      <trkpt lat="45.7429" lon="5.93306">
        <ele>338</ele>
        <time>2022-05-01T10:08:08.214Z</time>
      </trkpt>
      <trkpt lat="45.74293" lon="5.93309">
        <ele>338</ele>
        <time>2022-05-01T10:08:09.215Z</time>
      </trkpt>
      <trkpt lat="45.74295" lon="5.93313">
        <ele>338</ele>
        <time>2022-05-01T10:08:10.215Z</time>
      </trkpt>
      <trkpt lat="45.74298" lon="5.93316">
        <ele>338</ele>
        <time>2022-05-01T10:08:11.215Z</time>
      </trkpt>
      <trkpt lat="45.743" lon="5.93318">
        <ele>338</ele>
        <time>2022-05-01T10:08:12.215Z</time>
      </trkpt>
      <trkpt lat="45.74303" lon="5.93321">
        <ele>338</ele>
        <time>2022-05-01T10:08:13.215Z</time>
      </trkpt>
      <trkpt lat="45.74305" lon="5.93323">
        <ele>339</ele>
        <time>2022-05-01T10:08:14.215Z</time>
      </trkpt>
      <trkpt lat="45.74308" lon="5.93325">
        <ele>339</ele>
        <time>2022-05-01T10:08:15.215Z</time>
      </trkpt>
      <trkpt lat="45.74311" lon="5.93328">
        <ele>339</ele>
        <time>2022-05-01T10:08:16.215Z</time>
      </trkpt>
      <trkpt lat="45.74313" lon="5.9333">
        <ele>340</ele>
        <time>2022-05-01T10:08:17.215Z</time>
      </trkpt>
      <trkpt lat="45.74316" lon="5.93332">
        <ele>340</ele>
        <time>2022-05-01T10:08:18.215Z</time>
      </trkpt>
      <trkpt lat="45.74319" lon="5.93334">
        <ele>340</ele>
        <time>2022-05-01T10:08:19.215Z</time>
      </trkpt>
      <trkpt lat="45.74322" lon="5.93336">
        <ele>340</ele>
        <time>2022-05-01T10:08:20.215Z</time>
      </trkpt>
      <trkpt lat="45.74324" lon="5.93337">
        <ele>340</ele>
        <time>2022-05-01T10:08:21.215Z</time>
      </trkpt>
      <trkpt lat="45.74327" lon="5.93338">
        <ele>340</ele>
        <time>2022-05-01T10:08:22.215Z</time>
      </trkpt>
      <trkpt lat="45.7433" lon="5.9334">
        <ele>340</ele>
        <time>2022-05-01T10:08:23.214Z</time>
      </trkpt>
      <trkpt lat="45.74333" lon="5.93341">
        <ele>340</ele>
        <time>2022-05-01T10:08:24.214Z</time>
      </trkpt>
      <trkpt lat="45.74336" lon="5.93342">
        <ele>340</ele>
        <time>2022-05-01T10:08:25.215Z</time>
      </trkpt>
      <trkpt lat="45.74339" lon="5.93344">
        <ele>340</ele>
        <time>2022-05-01T10:08:26.214Z</time>
      </trkpt>
      <trkpt lat="45.74342" lon="5.93345">
        <ele>340</ele>
        <time>2022-05-01T10:08:27.215Z</time>
      </trkpt>
      <trkpt lat="45.74345" lon="5.93346">
        <ele>340</ele>
        <time>2022-05-01T10:08:28.215Z</time>
      </trkpt>
      <trkpt lat="45.74349" lon="5.93347">
        <ele>340</ele>
        <time>2022-05-01T10:08:29.214Z</time>
      </trkpt>
      <trkpt lat="45.74352" lon="5.93348">
        <ele>340</ele>
        <time>2022-05-01T10:08:30.215Z</time>
      </trkpt>
      <trkpt lat="45.74356" lon="5.9335">
        <ele>340</ele>
        <time>2022-05-01T10:08:31.215Z</time>
      </trkpt>
      <trkpt lat="45.74359" lon="5.93351">
        <ele>340</ele>
        <time>2022-05-01T10:08:32.215Z</time>
      </trkpt>
      <trkpt lat="45.74362" lon="5.93353">
        <ele>340</ele>
        <time>2022-05-01T10:08:33.215Z</time>
      </trkpt>
      <trkpt lat="45.74365" lon="5.93355">
        <ele>340</ele>
        <time>2022-05-01T10:08:34.214Z</time>
      </trkpt>
      <trkpt lat="45.74369" lon="5.93357">
        <ele>340</ele>
        <time>2022-05-01T10:08:35.214Z</time>
      </trkpt>
      <trkpt lat="45.74372" lon="5.93359">
        <ele>340</ele>
        <time>2022-05-01T10:08:36.215Z</time>
      </trkpt>
      <trkpt lat="45.74376" lon="5.93361">
        <ele>340</ele>
        <time>2022-05-01T10:08:37.214Z</time>
      </trkpt>
      <trkpt lat="45.74379" lon="5.93363">
        <ele>340</ele>
        <time>2022-05-01T10:08:38.214Z</time>
      </trkpt>
      <trkpt lat="45.74383" lon="5.93365">
        <ele>340</ele>
        <time>2022-05-01T10:08:39.215Z</time>
      </trkpt>
      <trkpt lat="45.74386" lon="5.93367">
        <ele>341</ele>
        <time>2022-05-01T10:08:40.215Z</time>
      </trkpt>
      <trkpt lat="45.7439" lon="5.93369">
        <ele>341</ele>
        <time>2022-05-01T10:08:41.214Z</time>
      </trkpt>
      <trkpt lat="45.74393" lon="5.93371">
        <ele>341</ele>
        <time>2022-05-01T10:08:42.215Z</time>
      </trkpt>
      <trkpt lat="45.74396" lon="5.93373">
        <ele>342</ele>
        <time>2022-05-01T10:08:43.215Z</time>
      </trkpt>
      <trkpt lat="45.74399" lon="5.93376">
        <ele>342</ele>
        <time>2022-05-01T10:08:44.215Z</time>
      </trkpt>
      <trkpt lat="45.74402" lon="5.93378">
        <ele>342</ele>
        <time>2022-05-01T10:08:45.215Z</time>
      </trkpt>
      <trkpt lat="45.74405" lon="5.93381">
        <ele>342</ele>
        <time>2022-05-01T10:08:46.214Z</time>
      </trkpt>
      <trkpt lat="45.74408" lon="5.93383">
        <ele>342</ele>
        <time>2022-05-01T10:08:47.214Z</time>
      </trkpt>
      <trkpt lat="45.74412" lon="5.93386">
        <ele>342</ele>
        <time>2022-05-01T10:08:48.215Z</time>
      </trkpt>
      <trkpt lat="45.74415" lon="5.93389">
        <ele>342</ele>
        <time>2022-05-01T10:08:49.214Z</time>
      </trkpt>
      <trkpt lat="45.74418" lon="5.93392">
        <ele>341</ele>
        <time>2022-05-01T10:08:50.215Z</time>
      </trkpt>
      <trkpt lat="45.74421" lon="5.93395">
        <ele>341</ele>
        <time>2022-05-01T10:08:51.215Z</time>
      </trkpt>
      <trkpt lat="45.74424" lon="5.93398">
        <ele>341</ele>
        <time>2022-05-01T10:08:52.215Z</time>
      </trkpt>
      <trkpt lat="45.74428" lon="5.93401">
        <ele>341</ele>
        <time>2022-05-01T10:08:53.215Z</time>
      </trkpt>
      <trkpt lat="45.74431" lon="5.93404">
        <ele>341</ele>
        <time>2022-05-01T10:08:54.215Z</time>
      </trkpt>
      <trkpt lat="45.74434" lon="5.93407">
        <ele>341</ele>
        <time>2022-05-01T10:08:55.215Z</time>
      </trkpt>
      <trkpt lat="45.74438" lon="5.9341">
        <ele>341</ele>
        <time>2022-05-01T10:08:56.214Z</time>
      </trkpt>
      <trkpt lat="45.74441" lon="5.93412">
        <ele>342</ele>
        <time>2022-05-01T10:08:57.214Z</time>
      </trkpt>
      <trkpt lat="45.74444" lon="5.93415">
        <ele>342</ele>
        <time>2022-05-01T10:08:58.215Z</time>
      </trkpt>
      <trkpt lat="45.74447" lon="5.93418">
        <ele>342</ele>
        <time>2022-05-01T10:08:59.215Z</time>
      </trkpt>
      <trkpt lat="45.7445" lon="5.93421">
        <ele>342</ele>
        <time>2022-05-01T10:09:00.215Z</time>
      </trkpt>
      <trkpt lat="45.74453" lon="5.93423">
        <ele>342</ele>
        <time>2022-05-01T10:09:01.214Z</time>
      </trkpt>
      <trkpt lat="45.74457" lon="5.93426">
        <ele>342</ele>
        <time>2022-05-01T10:09:02.214Z</time>
      </trkpt>
      <trkpt lat="45.7446" lon="5.93428">
        <ele>342</ele>
        <time>2022-05-01T10:09:03.215Z</time>
      </trkpt>
      <trkpt lat="45.74464" lon="5.93431">
        <ele>342</ele>
        <time>2022-05-01T10:09:04.215Z</time>
      </trkpt>
      <trkpt lat="45.74467" lon="5.93433">
        <ele>342</ele>
        <time>2022-05-01T10:09:05.215Z</time>
      </trkpt>
      <trkpt lat="45.74471" lon="5.93436">
        <ele>342</ele>
        <time>2022-05-01T10:09:06.215Z</time>
      </trkpt>
      <trkpt lat="45.74475" lon="5.93438">
        <ele>342</ele>
        <time>2022-05-01T10:09:07.215Z</time>
      </trkpt>
      <trkpt lat="45.74479" lon="5.93441">
        <ele>342</ele>
        <time>2022-05-01T10:09:08.215Z</time>
      </trkpt>
      <trkpt lat="45.74482" lon="5.93443">
        <ele>342</ele>
        <time>2022-05-01T10:09:09.215Z</time>
      </trkpt>
      <trkpt lat="45.74486" lon="5.93446">
        <ele>341</ele>
        <time>2022-05-01T10:09:10.215Z</time>
      </trkpt>
      <trkpt lat="45.7449" lon="5.93448">
        <ele>341</ele>
        <time>2022-05-01T10:09:11.215Z</time>
      </trkpt>
      <trkpt lat="45.74494" lon="5.9345">
        <ele>341</ele>
        <time>2022-05-01T10:09:12.214Z</time>
      </trkpt>
      <trkpt lat="45.74497" lon="5.93453">
        <ele>341</ele>
        <time>2022-05-01T10:09:13.215Z</time>
      </trkpt>
      <trkpt lat="45.74501" lon="5.93456">
        <ele>341</ele>
        <time>2022-05-01T10:09:14.215Z</time>
      </trkpt>
      <trkpt lat="45.74505" lon="5.93458">
        <ele>341</ele>
        <time>2022-05-01T10:09:15.215Z</time>
      </trkpt>
      <trkpt lat="45.74508" lon="5.93461">
        <ele>341</ele>
        <time>2022-05-01T10:09:16.215Z</time>
      </trkpt>
      <trkpt lat="45.74512" lon="5.93464">
        <ele>342</ele>
        <time>2022-05-01T10:09:17.215Z</time>
      </trkpt>
      <trkpt lat="45.74515" lon="5.93467">
        <ele>342</ele>
        <time>2022-05-01T10:09:18.215Z</time>
      </trkpt>
      <trkpt lat="45.74518" lon="5.9347">
        <ele>342</ele>
        <time>2022-05-01T10:09:19.215Z</time>
      </trkpt>
      <trkpt lat="45.74521" lon="5.93473">
        <ele>342</ele>
        <time>2022-05-01T10:09:20.215Z</time>
      </trkpt>
      <trkpt lat="45.74524" lon="5.93475">
        <ele>342</ele>
        <time>2022-05-01T10:09:21.215Z</time>
      </trkpt>
      <trkpt lat="45.74527" lon="5.93478">
        <ele>341</ele>
        <time>2022-05-01T10:09:22.214Z</time>
      </trkpt>
      <trkpt lat="45.7453" lon="5.93481">
        <ele>341</ele>
        <time>2022-05-01T10:09:23.214Z</time>
      </trkpt>
      <trkpt lat="45.74534" lon="5.93483">
        <ele>341</ele>
        <time>2022-05-01T10:09:24.214Z</time>
      </trkpt>
      <trkpt lat="45.74537" lon="5.93485">
        <ele>341</ele>
        <time>2022-05-01T10:09:25.214Z</time>
      </trkpt>
      <trkpt lat="45.7454" lon="5.93488">
        <ele>341</ele>
        <time>2022-05-01T10:09:26.214Z</time>
      </trkpt>
      <trkpt lat="45.74543" lon="5.93491">
        <ele>341</ele>
        <time>2022-05-01T10:09:27.215Z</time>
      </trkpt>
      <trkpt lat="45.74546" lon="5.93493">
        <ele>342</ele>
        <time>2022-05-01T10:09:28.215Z</time>
      </trkpt>
      <trkpt lat="45.7455" lon="5.93496">
        <ele>342</ele>
        <time>2022-05-01T10:09:29.215Z</time>
      </trkpt>
      <trkpt lat="45.74553" lon="5.93498">
        <ele>342</ele>
        <time>2022-05-01T10:09:30.215Z</time>
      </trkpt>
      <trkpt lat="45.74556" lon="5.93501">
        <ele>342</ele>
        <time>2022-05-01T10:09:31.215Z</time>
      </trkpt>
      <trkpt lat="45.7456" lon="5.93503">
        <ele>342</ele>
        <time>2022-05-01T10:09:32.215Z</time>
      </trkpt>
      <trkpt lat="45.74563" lon="5.93506">
        <ele>341</ele>
        <time>2022-05-01T10:09:33.215Z</time>
      </trkpt>
      <trkpt lat="45.74566" lon="5.93508">
        <ele>342</ele>
        <time>2022-05-01T10:09:34.215Z</time>
      </trkpt>
      <trkpt lat="45.74569" lon="5.9351">
        <ele>342</ele>
        <time>2022-05-01T10:09:35.215Z</time>
      </trkpt>
      <trkpt lat="45.74573" lon="5.93513">
        <ele>342</ele>
        <time>2022-05-01T10:09:36.215Z</time>
      </trkpt>
      <trkpt lat="45.74576" lon="5.93515">
        <ele>342</ele>
        <time>2022-05-01T10:09:37.215Z</time>
      </trkpt>
      <trkpt lat="45.74579" lon="5.93517">
        <ele>342</ele>
        <time>2022-05-01T10:09:38.215Z</time>
      </trkpt>
      <trkpt lat="45.74583" lon="5.93519">
        <ele>343</ele>
        <time>2022-05-01T10:09:39.214Z</time>
      </trkpt>
      <trkpt lat="45.74586" lon="5.93521">
        <ele>343</ele>
        <time>2022-05-01T10:09:40.215Z</time>
      </trkpt>
      <trkpt lat="45.74589" lon="5.93524">
        <ele>344</ele>
        <time>2022-05-01T10:09:41.215Z</time>
      </trkpt>
      <trkpt lat="45.74592" lon="5.93526">
        <ele>344</ele>
        <time>2022-05-01T10:09:42.215Z</time>
      </trkpt>
      <trkpt lat="45.74596" lon="5.93529">
        <ele>344</ele>
        <time>2022-05-01T10:09:43.214Z</time>
      </trkpt>
      <trkpt lat="45.74599" lon="5.93532">
        <ele>344</ele>
        <time>2022-05-01T10:09:44.215Z</time>
      </trkpt>
      <trkpt lat="45.74602" lon="5.93535">
        <ele>344</ele>
        <time>2022-05-01T10:09:45.215Z</time>
      </trkpt>
      <trkpt lat="45.74605" lon="5.93539">
        <ele>344</ele>
        <time>2022-05-01T10:09:46.214Z</time>
      </trkpt>
      <trkpt lat="45.74609" lon="5.93542">
        <ele>344</ele>
        <time>2022-05-01T10:09:47.215Z</time>
      </trkpt>
      <trkpt lat="45.74612" lon="5.93546">
        <ele>344</ele>
        <time>2022-05-01T10:09:48.215Z</time>
      </trkpt>
      <trkpt lat="45.74615" lon="5.93549">
        <ele>343</ele>
        <time>2022-05-01T10:09:49.215Z</time>
      </trkpt>
      <trkpt lat="45.74619" lon="5.93552">
        <ele>343</ele>
        <time>2022-05-01T10:09:50.214Z</time>
      </trkpt>
      <trkpt lat="45.74622" lon="5.93556">
        <ele>343</ele>
        <time>2022-05-01T10:09:51.214Z</time>
      </trkpt>
      <trkpt lat="45.74625" lon="5.93559">
        <ele>343</ele>
        <time>2022-05-01T10:09:52.214Z</time>
      </trkpt>
      <trkpt lat="45.74629" lon="5.93562">
        <ele>343</ele>
        <time>2022-05-01T10:09:53.214Z</time>
      </trkpt>
      <trkpt lat="45.74632" lon="5.93566">
        <ele>342</ele>
        <time>2022-05-01T10:09:54.214Z</time>
      </trkpt>
      <trkpt lat="45.74635" lon="5.93569">
        <ele>342</ele>
        <time>2022-05-01T10:09:55.215Z</time>
      </trkpt>
      <trkpt lat="45.74638" lon="5.93573">
        <ele>342</ele>
        <time>2022-05-01T10:09:56.214Z</time>
      </trkpt>
      <trkpt lat="45.74641" lon="5.93576">
        <ele>342</ele>
        <time>2022-05-01T10:09:57.215Z</time>
      </trkpt>
      <trkpt lat="45.74645" lon="5.9358">
        <ele>342</ele>
        <time>2022-05-01T10:09:58.214Z</time>
      </trkpt>
      <trkpt lat="45.74648" lon="5.93583">
        <ele>342</ele>
        <time>2022-05-01T10:09:59.215Z</time>
      </trkpt>
      <trkpt lat="45.74651" lon="5.93586">
        <ele>342</ele>
        <time>2022-05-01T10:10:00.214Z</time>
      </trkpt>
      <trkpt lat="45.74654" lon="5.9359">
        <ele>342</ele>
        <time>2022-05-01T10:10:01.215Z</time>
      </trkpt>
      <trkpt lat="45.74657" lon="5.93593">
        <ele>342</ele>
        <time>2022-05-01T10:10:02.214Z</time>
      </trkpt>
      <trkpt lat="45.7466" lon="5.93596">
        <ele>342</ele>
        <time>2022-05-01T10:10:03.214Z</time>
      </trkpt>
      <trkpt lat="45.74664" lon="5.936">
        <ele>342</ele>
        <time>2022-05-01T10:10:04.215Z</time>
      </trkpt>
      <trkpt lat="45.74667" lon="5.93603">
        <ele>342</ele>
        <time>2022-05-01T10:10:05.215Z</time>
      </trkpt>
      <trkpt lat="45.74671" lon="5.93606">
        <ele>342</ele>
        <time>2022-05-01T10:10:06.214Z</time>
      </trkpt>
      <trkpt lat="45.74675" lon="5.93609">
        <ele>342</ele>
        <time>2022-05-01T10:10:07.215Z</time>
      </trkpt>
      <trkpt lat="45.74678" lon="5.93612">
        <ele>341</ele>
        <time>2022-05-01T10:10:08.215Z</time>
      </trkpt>
      <trkpt lat="45.74682" lon="5.93615">
        <ele>341</ele>
        <time>2022-05-01T10:10:09.215Z</time>
      </trkpt>
      <trkpt lat="45.74685" lon="5.93618">
        <ele>341</ele>
        <time>2022-05-01T10:10:10.215Z</time>
      </trkpt>
      <trkpt lat="45.74689" lon="5.93621">
        <ele>341</ele>
        <time>2022-05-01T10:10:11.215Z</time>
      </trkpt>
      <trkpt lat="45.74693" lon="5.93624">
        <ele>341</ele>
        <time>2022-05-01T10:10:12.214Z</time>
      </trkpt>
      <trkpt lat="45.74696" lon="5.93627">
        <ele>341</ele>
        <time>2022-05-01T10:10:13.214Z</time>
      </trkpt>
      <trkpt lat="45.747" lon="5.93629">
        <ele>341</ele>
        <time>2022-05-01T10:10:14.215Z</time>
      </trkpt>
      <trkpt lat="45.74703" lon="5.93631">
        <ele>341</ele>
        <time>2022-05-01T10:10:15.215Z</time>
      </trkpt>
      <trkpt lat="45.74707" lon="5.93634">
        <ele>342</ele>
        <time>2022-05-01T10:10:16.215Z</time>
      </trkpt>
      <trkpt lat="45.7471" lon="5.93636">
        <ele>342</ele>
        <time>2022-05-01T10:10:17.215Z</time>
      </trkpt>
      <trkpt lat="45.74714" lon="5.93637">
        <ele>342</ele>
        <time>2022-05-01T10:10:18.215Z</time>
      </trkpt>
      <trkpt lat="45.74718" lon="5.93639">
        <ele>342</ele>
        <time>2022-05-01T10:10:19.215Z</time>
      </trkpt>
      <trkpt lat="45.74722" lon="5.93639">
        <ele>342</ele>
        <time>2022-05-01T10:10:20.215Z</time>
      </trkpt>
      <trkpt lat="45.74725" lon="5.9364">
        <ele>343</ele>
        <time>2022-05-01T10:10:21.215Z</time>
      </trkpt>
      <trkpt lat="45.74729" lon="5.9364">
        <ele>343</ele>
        <time>2022-05-01T10:10:22.215Z</time>
      </trkpt>
      <trkpt lat="45.74733" lon="5.9364">
        <ele>344</ele>
        <time>2022-05-01T10:10:23.215Z</time>
      </trkpt>
      <trkpt lat="45.74736" lon="5.9364">
        <ele>345</ele>
        <time>2022-05-01T10:10:24.215Z</time>
      </trkpt>
      <trkpt lat="45.7474" lon="5.9364">
        <ele>346</ele>
        <time>2022-05-01T10:10:25.215Z</time>
      </trkpt>
      <trkpt lat="45.74744" lon="5.93641">
        <ele>346</ele>
        <time>2022-05-01T10:10:26.215Z</time>
      </trkpt>
      <trkpt lat="45.74748" lon="5.93642">
        <ele>347</ele>
        <time>2022-05-01T10:10:27.215Z</time>
      </trkpt>
      <trkpt lat="45.74752" lon="5.93643">
        <ele>347</ele>
        <time>2022-05-01T10:10:28.215Z</time>
      </trkpt>
      <trkpt lat="45.74756" lon="5.93644">
        <ele>347</ele>
        <time>2022-05-01T10:10:29.214Z</time>
      </trkpt>
      <trkpt lat="45.7476" lon="5.93645">
        <ele>347</ele>
        <time>2022-05-01T10:10:30.214Z</time>
      </trkpt>
      <trkpt lat="45.74764" lon="5.93646">
        <ele>348</ele>
        <time>2022-05-01T10:10:31.215Z</time>
      </trkpt>
      <trkpt lat="45.74768" lon="5.93648">
        <ele>348</ele>
        <time>2022-05-01T10:10:32.215Z</time>
      </trkpt>
      <trkpt lat="45.74772" lon="5.9365">
        <ele>348</ele>
        <time>2022-05-01T10:10:33.215Z</time>
      </trkpt>
      <trkpt lat="45.74776" lon="5.93653">
        <ele>348</ele>
        <time>2022-05-01T10:10:34.215Z</time>
      </trkpt>
      <trkpt lat="45.7478" lon="5.93656">
        <ele>348</ele>
        <time>2022-05-01T10:10:35.215Z</time>
      </trkpt>
      <trkpt lat="45.74784" lon="5.9366">
        <ele>349</ele>
        <time>2022-05-01T10:10:36.214Z</time>
      </trkpt>
      <trkpt lat="45.74788" lon="5.93663">
        <ele>349</ele>
        <time>2022-05-01T10:10:37.215Z</time>
      </trkpt>
      <trkpt lat="45.74792" lon="5.93667">
        <ele>349</ele>
        <time>2022-05-01T10:10:38.214Z</time>
      </trkpt>
      <trkpt lat="45.74795" lon="5.93671">
        <ele>349</ele>
        <time>2022-05-01T10:10:39.214Z</time>
      </trkpt>
      <trkpt lat="45.74798" lon="5.93675">
        <ele>349</ele>
        <time>2022-05-01T10:10:40.214Z</time>
      </trkpt>
      <trkpt lat="45.74801" lon="5.93679">
        <ele>348</ele>
        <time>2022-05-01T10:10:41.215Z</time>
      </trkpt>
      <trkpt lat="45.74802" lon="5.93683">
        <ele>348</ele>
        <time>2022-05-01T10:10:42.215Z</time>
      </trkpt>
      <trkpt lat="45.74805" lon="5.93688">
        <ele>348</ele>
        <time>2022-05-01T10:10:43.215Z</time>
      </trkpt>
      <trkpt lat="45.74809" lon="5.93692">
        <ele>348</ele>
        <time>2022-05-01T10:10:44.215Z</time>
      </trkpt>
      <trkpt lat="45.74812" lon="5.93696">
        <ele>348</ele>
        <time>2022-05-01T10:10:45.215Z</time>
      </trkpt>
      <trkpt lat="45.74815" lon="5.93701">
        <ele>347</ele>
        <time>2022-05-01T10:10:46.214Z</time>
      </trkpt>
      <trkpt lat="45.74818" lon="5.93705">
        <ele>347</ele>
        <time>2022-05-01T10:10:47.215Z</time>
      </trkpt>
      <trkpt lat="45.7482" lon="5.93709">
        <ele>348</ele>
        <time>2022-05-01T10:10:48.215Z</time>
      </trkpt>
      <trkpt lat="45.74822" lon="5.93713">
        <ele>348</ele>
        <time>2022-05-01T10:10:49.214Z</time>
      </trkpt>
      <trkpt lat="45.74824" lon="5.93718">
        <ele>348</ele>
        <time>2022-05-01T10:10:50.215Z</time>
      </trkpt>
      <trkpt lat="45.74826" lon="5.93723">
        <ele>348</ele>
        <time>2022-05-01T10:10:51.214Z</time>
      </trkpt>
      <trkpt lat="45.74828" lon="5.93727">
        <ele>348</ele>
        <time>2022-05-01T10:10:52.215Z</time>
      </trkpt>
      <trkpt lat="45.7483" lon="5.93732">
        <ele>349</ele>
        <time>2022-05-01T10:10:53.215Z</time>
      </trkpt>
      <trkpt lat="45.74832" lon="5.93736">
        <ele>349</ele>
        <time>2022-05-01T10:10:54.214Z</time>
      </trkpt>
      <trkpt lat="45.74835" lon="5.9374">
        <ele>349</ele>
        <time>2022-05-01T10:10:55.215Z</time>
      </trkpt>
      <trkpt lat="45.74836" lon="5.93745">
        <ele>349</ele>
        <time>2022-05-01T10:10:56.214Z</time>
      </trkpt>
      <trkpt lat="45.74838" lon="5.9375">
        <ele>349</ele>
        <time>2022-05-01T10:10:57.215Z</time>
      </trkpt>
      <trkpt lat="45.74839" lon="5.93755">
        <ele>349</ele>
        <time>2022-05-01T10:10:58.214Z</time>
      </trkpt>
      <trkpt lat="45.74841" lon="5.93759">
        <ele>349</ele>
        <time>2022-05-01T10:10:59.215Z</time>
      </trkpt>
      <trkpt lat="45.74843" lon="5.93764">
        <ele>348</ele>
        <time>2022-05-01T10:11:00.215Z</time>
      </trkpt>
      <trkpt lat="45.74844" lon="5.93769">
        <ele>348</ele>
        <time>2022-05-01T10:11:01.214Z</time>
      </trkpt>
      <trkpt lat="45.74846" lon="5.93773">
        <ele>348</ele>
        <time>2022-05-01T10:11:02.214Z</time>
      </trkpt>
      <trkpt lat="45.74847" lon="5.93778">
        <ele>348</ele>
        <time>2022-05-01T10:11:03.215Z</time>
      </trkpt>
      <trkpt lat="45.74849" lon="5.93782">
        <ele>347</ele>
        <time>2022-05-01T10:11:04.214Z</time>
      </trkpt>
      <trkpt lat="45.74851" lon="5.93786">
        <ele>347</ele>
        <time>2022-05-01T10:11:05.215Z</time>
      </trkpt>
      <trkpt lat="45.74852" lon="5.93791">
        <ele>347</ele>
        <time>2022-05-01T10:11:06.214Z</time>
      </trkpt>
      <trkpt lat="45.74854" lon="5.93795">
        <ele>347</ele>
        <time>2022-05-01T10:11:07.214Z</time>
      </trkpt>
      <trkpt lat="45.74856" lon="5.93799">
        <ele>347</ele>
        <time>2022-05-01T10:11:08.215Z</time>
      </trkpt>
      <trkpt lat="45.74858" lon="5.93803">
        <ele>347</ele>
        <time>2022-05-01T10:11:09.214Z</time>
      </trkpt>
      <trkpt lat="45.7486" lon="5.93808">
        <ele>348</ele>
        <time>2022-05-01T10:11:10.215Z</time>
      </trkpt>
      <trkpt lat="45.74862" lon="5.93812">
        <ele>348</ele>
        <time>2022-05-01T10:11:11.215Z</time>
      </trkpt>
      <trkpt lat="45.74864" lon="5.93816">
        <ele>348</ele>
        <time>2022-05-01T10:11:12.215Z</time>
      </trkpt>
      <trkpt lat="45.74867" lon="5.9382">
        <ele>348</ele>
        <time>2022-05-01T10:11:13.215Z</time>
      </trkpt>
      <trkpt lat="45.74869" lon="5.93824">
        <ele>349</ele>
        <time>2022-05-01T10:11:14.215Z</time>
      </trkpt>
      <trkpt lat="45.74871" lon="5.93828">
        <ele>349</ele>
        <time>2022-05-01T10:11:15.215Z</time>
      </trkpt>
      <trkpt lat="45.74874" lon="5.93832">
        <ele>349</ele>
        <time>2022-05-01T10:11:16.214Z</time>
      </trkpt>
      <trkpt lat="45.74876" lon="5.93836">
        <ele>350</ele>
        <time>2022-05-01T10:11:17.215Z</time>
      </trkpt>
      <trkpt lat="45.74879" lon="5.9384">
        <ele>350</ele>
        <time>2022-05-01T10:11:18.215Z</time>
      </trkpt>
      <trkpt lat="45.74882" lon="5.93844">
        <ele>350</ele>
        <time>2022-05-01T10:11:19.215Z</time>
      </trkpt>
      <trkpt lat="45.74885" lon="5.93849">
        <ele>349</ele>
        <time>2022-05-01T10:11:20.214Z</time>
      </trkpt>
      <trkpt lat="45.74888" lon="5.93853">
        <ele>349</ele>
        <time>2022-05-01T10:11:21.215Z</time>
      </trkpt>
      <trkpt lat="45.74891" lon="5.93858">
        <ele>349</ele>
        <time>2022-05-01T10:11:22.214Z</time>
      </trkpt>
      <trkpt lat="45.74894" lon="5.93862">
        <ele>349</ele>
        <time>2022-05-01T10:11:23.214Z</time>
      </trkpt>
      <trkpt lat="45.74897" lon="5.93866">
        <ele>349</ele>
        <time>2022-05-01T10:11:24.215Z</time>
      </trkpt>
      <trkpt lat="45.74901" lon="5.9387">
        <ele>349</ele>
        <time>2022-05-01T10:11:25.214Z</time>
      </trkpt>
      <trkpt lat="45.74904" lon="5.93874">
        <ele>349</ele>
        <time>2022-05-01T10:11:26.214Z</time>
      </trkpt>
      <trkpt lat="45.74907" lon="5.93877">
        <ele>349</ele>
        <time>2022-05-01T10:11:27.214Z</time>
      </trkpt>
      <trkpt lat="45.7491" lon="5.93881">
        <ele>350</ele>
        <time>2022-05-01T10:11:28.214Z</time>
      </trkpt>
      <trkpt lat="45.74913" lon="5.93884">
        <ele>350</ele>
        <time>2022-05-01T10:11:29.215Z</time>
      </trkpt>
      <trkpt lat="45.74916" lon="5.93888">
        <ele>350</ele>
        <time>2022-05-01T10:11:30.215Z</time>
      </trkpt>
      <trkpt lat="45.74919" lon="5.93892">
        <ele>350</ele>
        <time>2022-05-01T10:11:31.215Z</time>
      </trkpt>
      <trkpt lat="45.74923" lon="5.93896">
        <ele>350</ele>
        <time>2022-05-01T10:11:32.214Z</time>
      </trkpt>
      <trkpt lat="45.74926" lon="5.93899">
        <ele>350</ele>
        <time>2022-05-01T10:11:33.215Z</time>
      </trkpt>
      <trkpt lat="45.74929" lon="5.93903">
        <ele>350</ele>
        <time>2022-05-01T10:11:34.215Z</time>
      </trkpt>
      <trkpt lat="45.74933" lon="5.93906">
        <ele>350</ele>
        <time>2022-05-01T10:11:35.214Z</time>
      </trkpt>
      <trkpt lat="45.74937" lon="5.93909">
        <ele>350</ele>
        <time>2022-05-01T10:11:36.214Z</time>
      </trkpt>
      <trkpt lat="45.7494" lon="5.93913">
        <ele>350</ele>
        <time>2022-05-01T10:11:37.214Z</time>
      </trkpt>
      <trkpt lat="45.74944" lon="5.93916">
        <ele>350</ele>
        <time>2022-05-01T10:11:38.215Z</time>
      </trkpt>
      <trkpt lat="45.74948" lon="5.93919">
        <ele>349</ele>
        <time>2022-05-01T10:11:39.215Z</time>
      </trkpt>
      <trkpt lat="45.74951" lon="5.93923">
        <ele>349</ele>
        <time>2022-05-01T10:11:40.214Z</time>
      </trkpt>
      <trkpt lat="45.74955" lon="5.93926">
        <ele>349</ele>
        <time>2022-05-01T10:11:41.215Z</time>
      </trkpt>
      <trkpt lat="45.74959" lon="5.93929">
        <ele>349</ele>
        <time>2022-05-01T10:11:42.214Z</time>
      </trkpt>
      <trkpt lat="45.74964" lon="5.93933">
        <ele>349</ele>
        <time>2022-05-01T10:11:43.215Z</time>
      </trkpt>
      <trkpt lat="45.74967" lon="5.93936">
        <ele>349</ele>
        <time>2022-05-01T10:11:44.214Z</time>
      </trkpt>
      <trkpt lat="45.74971" lon="5.93939">
        <ele>349</ele>
        <time>2022-05-01T10:11:45.214Z</time>
      </trkpt>
      <trkpt lat="45.74975" lon="5.93943">
        <ele>348</ele>
        <time>2022-05-01T10:11:46.215Z</time>
      </trkpt>
      <trkpt lat="45.74979" lon="5.93946">
        <ele>348</ele>
        <time>2022-05-01T10:11:47.215Z</time>
      </trkpt>
      <trkpt lat="45.74983" lon="5.9395">
        <ele>348</ele>
        <time>2022-05-01T10:11:48.215Z</time>
      </trkpt>
      <trkpt lat="45.74986" lon="5.93954">
        <ele>348</ele>
        <time>2022-05-01T10:11:49.215Z</time>
      </trkpt>
      <trkpt lat="45.7499" lon="5.93958">
        <ele>348</ele>
        <time>2022-05-01T10:11:50.215Z</time>
      </trkpt>
      <trkpt lat="45.74994" lon="5.93962">
        <ele>348</ele>
        <time>2022-05-01T10:11:51.215Z</time>
      </trkpt>
      <trkpt lat="45.74997" lon="5.93966">
        <ele>347</ele>
        <time>2022-05-01T10:11:52.215Z</time>
      </trkpt>
      <trkpt lat="45.75001" lon="5.93971">
        <ele>347</ele>
        <time>2022-05-01T10:11:53.214Z</time>
      </trkpt>
      <trkpt lat="45.75004" lon="5.93976">
        <ele>347</ele>
        <time>2022-05-01T10:11:54.214Z</time>
      </trkpt>
      <trkpt lat="45.75007" lon="5.93981">
        <ele>347</ele>
        <time>2022-05-01T10:11:55.215Z</time>
      </trkpt>
      <trkpt lat="45.75011" lon="5.93986">
        <ele>347</ele>
        <time>2022-05-01T10:11:56.215Z</time>
      </trkpt>
      <trkpt lat="45.75015" lon="5.93991">
        <ele>347</ele>
        <time>2022-05-01T10:11:57.215Z</time>
      </trkpt>
      <trkpt lat="45.75018" lon="5.93994">
        <ele>346</ele>
        <time>2022-05-01T10:11:58.215Z</time>
      </trkpt>
      <trkpt lat="45.75022" lon="5.93996">
        <ele>346</ele>
        <time>2022-05-01T10:11:59.215Z</time>
      </trkpt>
      <trkpt lat="45.75026" lon="5.93997">
        <ele>346</ele>
        <time>2022-05-01T10:12:00.215Z</time>
      </trkpt>
      <trkpt lat="45.7503" lon="5.93996">
        <ele>346</ele>
        <time>2022-05-01T10:12:01.215Z</time>
      </trkpt>
      <trkpt lat="45.75034" lon="5.93994">
        <ele>346</ele>
        <time>2022-05-01T10:12:02.215Z</time>
      </trkpt>
      <trkpt lat="45.75037" lon="5.93991">
        <ele>346</ele>
        <time>2022-05-01T10:12:03.215Z</time>
      </trkpt>
      <trkpt lat="45.75041" lon="5.93987">
        <ele>346</ele>
        <time>2022-05-01T10:12:04.215Z</time>
      </trkpt>
      <trkpt lat="45.75044" lon="5.93983">
        <ele>346</ele>
        <time>2022-05-01T10:12:05.214Z</time>
      </trkpt>
      <trkpt lat="45.75048" lon="5.93978">
        <ele>346</ele>
        <time>2022-05-01T10:12:06.215Z</time>
      </trkpt>
      <trkpt lat="45.75051" lon="5.93973">
        <ele>346</ele>
        <time>2022-05-01T10:12:07.215Z</time>
      </trkpt>
      <trkpt lat="45.75055" lon="5.93969">
        <ele>346</ele>
        <time>2022-05-01T10:12:08.214Z</time>
      </trkpt>
      <trkpt lat="45.75058" lon="5.93964">
        <ele>346</ele>
        <time>2022-05-01T10:12:09.214Z</time>
      </trkpt>
      <trkpt lat="45.75062" lon="5.93959">
        <ele>346</ele>
        <time>2022-05-01T10:12:10.215Z</time>
      </trkpt>
      <trkpt lat="45.75066" lon="5.93954">
        <ele>347</ele>
        <time>2022-05-01T10:12:11.215Z</time>
      </trkpt>
      <trkpt lat="45.75069" lon="5.9395">
        <ele>347</ele>
        <time>2022-05-01T10:12:12.214Z</time>
      </trkpt>
      <trkpt lat="45.75073" lon="5.93945">
        <ele>347</ele>
        <time>2022-05-01T10:12:13.215Z</time>
      </trkpt>
      <trkpt lat="45.75077" lon="5.9394">
        <ele>347</ele>
        <time>2022-05-01T10:12:14.214Z</time>
      </trkpt>
      <trkpt lat="45.7508" lon="5.93936">
        <ele>347</ele>
        <time>2022-05-01T10:12:15.215Z</time>
      </trkpt>
      <trkpt lat="45.75082" lon="5.93933">
        <ele>347</ele>
        <time>2022-05-01T10:12:16.215Z</time>
      </trkpt>
      <trkpt lat="45.75085" lon="5.93929">
        <ele>347</ele>
        <time>2022-05-01T10:12:17.215Z</time>
      </trkpt>
      <trkpt lat="45.75088" lon="5.93925">
        <ele>347</ele>
        <time>2022-05-01T10:12:18.215Z</time>
      </trkpt>
      <trkpt lat="45.7509" lon="5.9392">
        <ele>347</ele>
        <time>2022-05-01T10:12:19.215Z</time>
      </trkpt>
      <trkpt lat="45.75094" lon="5.93916">
        <ele>347</ele>
        <time>2022-05-01T10:12:20.215Z</time>
      </trkpt>
      <trkpt lat="45.75097" lon="5.93911">
        <ele>347</ele>
        <time>2022-05-01T10:12:21.215Z</time>
      </trkpt>
      <trkpt lat="45.75101" lon="5.93906">
        <ele>347</ele>
        <time>2022-05-01T10:12:22.215Z</time>
      </trkpt>
      <trkpt lat="45.75104" lon="5.93901">
        <ele>346</ele>
        <time>2022-05-01T10:12:23.215Z</time>
      </trkpt>
      <trkpt lat="45.75108" lon="5.93895">
        <ele>346</ele>
        <time>2022-05-01T10:12:24.215Z</time>
      </trkpt>
      <trkpt lat="45.75112" lon="5.9389">
        <ele>345</ele>
        <time>2022-05-01T10:12:25.215Z</time>
      </trkpt>
      <trkpt lat="45.75116" lon="5.93884">
        <ele>345</ele>
        <time>2022-05-01T10:12:26.215Z</time>
      </trkpt>
      <trkpt lat="45.75121" lon="5.93877">
        <ele>345</ele>
        <time>2022-05-01T10:12:27.215Z</time>
      </trkpt>
      <trkpt lat="45.75125" lon="5.93871">
        <ele>344</ele>
        <time>2022-05-01T10:12:28.215Z</time>
      </trkpt>
      <trkpt lat="45.7513" lon="5.93864">
        <ele>344</ele>
        <time>2022-05-01T10:12:29.215Z</time>
      </trkpt>
      <trkpt lat="45.75134" lon="5.93857">
        <ele>344</ele>
        <time>2022-05-01T10:12:30.215Z</time>
      </trkpt>
      <trkpt lat="45.75139" lon="5.9385">
        <ele>344</ele>
        <time>2022-05-01T10:12:31.215Z</time>
      </trkpt>
      <trkpt lat="45.75144" lon="5.93843">
        <ele>343</ele>
        <time>2022-05-01T10:12:32.214Z</time>
      </trkpt>
      <trkpt lat="45.75148" lon="5.93836">
        <ele>343</ele>
        <time>2022-05-01T10:12:33.215Z</time>
      </trkpt>
      <trkpt lat="45.75153" lon="5.93829">
        <ele>343</ele>
        <time>2022-05-01T10:12:34.215Z</time>
      </trkpt>
      <trkpt lat="45.75158" lon="5.93821">
        <ele>343</ele>
        <time>2022-05-01T10:12:35.214Z</time>
      </trkpt>
      <trkpt lat="45.75162" lon="5.93814">
        <ele>342</ele>
        <time>2022-05-01T10:12:36.215Z</time>
      </trkpt>
      <trkpt lat="45.75167" lon="5.93807">
        <ele>342</ele>
        <time>2022-05-01T10:12:37.215Z</time>
      </trkpt>
      <trkpt lat="45.75172" lon="5.938">
        <ele>342</ele>
        <time>2022-05-01T10:12:38.214Z</time>
      </trkpt>
      <trkpt lat="45.75176" lon="5.93794">
        <ele>342</ele>
        <time>2022-05-01T10:12:39.215Z</time>
      </trkpt>
      <trkpt lat="45.75181" lon="5.93787">
        <ele>342</ele>
        <time>2022-05-01T10:12:40.215Z</time>
      </trkpt>
      <trkpt lat="45.75185" lon="5.93781">
        <ele>341</ele>
        <time>2022-05-01T10:12:41.214Z</time>
      </trkpt>
      <trkpt lat="45.75189" lon="5.93774">
        <ele>341</ele>
        <time>2022-05-01T10:12:42.215Z</time>
      </trkpt>
      <trkpt lat="45.75193" lon="5.93768">
        <ele>341</ele>
        <time>2022-05-01T10:12:43.215Z</time>
      </trkpt>
      <trkpt lat="45.75197" lon="5.93762">
        <ele>341</ele>
        <time>2022-05-01T10:12:44.214Z</time>
      </trkpt>
      <trkpt lat="45.75202" lon="5.93756">
        <ele>341</ele>
        <time>2022-05-01T10:12:45.214Z</time>
      </trkpt>
      <trkpt lat="45.75206" lon="5.9375">
        <ele>341</ele>
        <time>2022-05-01T10:12:46.215Z</time>
      </trkpt>
      <trkpt lat="45.7521" lon="5.93743">
        <ele>341</ele>
        <time>2022-05-01T10:12:47.215Z</time>
      </trkpt>
      <trkpt lat="45.75214" lon="5.93737">
        <ele>341</ele>
        <time>2022-05-01T10:12:48.215Z</time>
      </trkpt>
      <trkpt lat="45.75218" lon="5.9373">
        <ele>341</ele>
        <time>2022-05-01T10:12:49.215Z</time>
      </trkpt>
      <trkpt lat="45.75223" lon="5.93723">
        <ele>341</ele>
        <time>2022-05-01T10:12:50.215Z</time>
      </trkpt>
      <trkpt lat="45.75227" lon="5.93716">
        <ele>341</ele>
        <time>2022-05-01T10:12:51.215Z</time>
      </trkpt>
      <trkpt lat="45.75231" lon="5.93708">
        <ele>341</ele>
        <time>2022-05-01T10:12:52.215Z</time>
      </trkpt>
      <trkpt lat="45.75236" lon="5.93699">
        <ele>340</ele>
        <time>2022-05-01T10:12:53.215Z</time>
      </trkpt>
      <trkpt lat="45.7524" lon="5.93691">
        <ele>339</ele>
        <time>2022-05-01T10:12:54.214Z</time>
      </trkpt>
      <trkpt lat="45.75244" lon="5.93683">
        <ele>339</ele>
        <time>2022-05-01T10:12:55.215Z</time>
      </trkpt>
      <trkpt lat="45.75248" lon="5.93677">
        <ele>339</ele>
        <time>2022-05-01T10:12:56.215Z</time>
      </trkpt>
      <trkpt lat="45.75252" lon="5.9367">
        <ele>338</ele>
        <time>2022-05-01T10:12:57.215Z</time>
      </trkpt>
      <trkpt lat="45.75256" lon="5.93664">
        <ele>338</ele>
        <time>2022-05-01T10:12:58.215Z</time>
      </trkpt>
      <trkpt lat="45.75261" lon="5.93659">
        <ele>337</ele>
        <time>2022-05-01T10:12:59.214Z</time>
      </trkpt>
      <trkpt lat="45.75266" lon="5.93655">
        <ele>337</ele>
        <time>2022-05-01T10:13:00.215Z</time>
      </trkpt>
      <trkpt lat="45.75271" lon="5.93652">
        <ele>336</ele>
        <time>2022-05-01T10:13:01.215Z</time>
      </trkpt>
      <trkpt lat="45.75276" lon="5.9365">
        <ele>336</ele>
        <time>2022-05-01T10:13:02.215Z</time>
      </trkpt>
      <trkpt lat="45.75281" lon="5.9365">
        <ele>335</ele>
        <time>2022-05-01T10:13:03.215Z</time>
      </trkpt>
      <trkpt lat="45.75287" lon="5.93651">
        <ele>335</ele>
        <time>2022-05-01T10:13:04.215Z</time>
      </trkpt>
      <trkpt lat="45.75293" lon="5.93652">
        <ele>335</ele>
        <time>2022-05-01T10:13:05.214Z</time>
      </trkpt>
      <trkpt lat="45.75298" lon="5.93654">
        <ele>335</ele>
        <time>2022-05-01T10:13:06.215Z</time>
      </trkpt>
      <trkpt lat="45.75304" lon="5.93655">
        <ele>335</ele>
        <time>2022-05-01T10:13:07.215Z</time>
      </trkpt>
      <trkpt lat="45.75311" lon="5.93655">
        <ele>334</ele>
        <time>2022-05-01T10:13:08.215Z</time>
      </trkpt>
      <trkpt lat="45.75317" lon="5.93654">
        <ele>334</ele>
        <time>2022-05-01T10:13:09.214Z</time>
      </trkpt>
      <trkpt lat="45.75323" lon="5.93653">
        <ele>334</ele>
        <time>2022-05-01T10:13:10.214Z</time>
      </trkpt>
      <trkpt lat="45.75329" lon="5.9365">
        <ele>333</ele>
        <time>2022-05-01T10:13:11.215Z</time>
      </trkpt>
      <trkpt lat="45.75335" lon="5.93647">
        <ele>333</ele>
        <time>2022-05-01T10:13:12.215Z</time>
      </trkpt>
      <trkpt lat="45.7534" lon="5.93645">
        <ele>332</ele>
        <time>2022-05-01T10:13:13.215Z</time>
      </trkpt>
      <trkpt lat="45.75345" lon="5.93643">
        <ele>332</ele>
        <time>2022-05-01T10:13:14.214Z</time>
      </trkpt>
      <trkpt lat="45.75348" lon="5.93641">
        <ele>332</ele>
        <time>2022-05-01T10:13:15.215Z</time>
      </trkpt>
      <trkpt lat="45.75351" lon="5.93639">
        <ele>331</ele>
        <time>2022-05-01T10:13:16.215Z</time>
      </trkpt>
      <trkpt lat="45.75353" lon="5.93637">
        <ele>331</ele>
        <time>2022-05-01T10:13:17.215Z</time>
      </trkpt>
      <trkpt lat="45.75354" lon="5.93633">
        <ele>331</ele>
        <time>2022-05-01T10:13:18.215Z</time>
      </trkpt>
      <trkpt lat="45.75354" lon="5.93629">
        <ele>331</ele>
        <time>2022-05-01T10:13:19.214Z</time>
      </trkpt>
      <trkpt lat="45.75351" lon="5.93625">
        <ele>331</ele>
        <time>2022-05-01T10:13:20.215Z</time>
      </trkpt>
      <trkpt lat="45.75349" lon="5.93621">
        <ele>331</ele>
        <time>2022-05-01T10:13:21.215Z</time>
      </trkpt>
      <trkpt lat="45.75347" lon="5.93617">
        <ele>331</ele>
        <time>2022-05-01T10:13:22.215Z</time>
      </trkpt>
      <trkpt lat="45.75345" lon="5.93613">
        <ele>331</ele>
        <time>2022-05-01T10:13:23.215Z</time>
      </trkpt>
      <trkpt lat="45.75343" lon="5.93609">
        <ele>330</ele>
        <time>2022-05-01T10:13:24.215Z</time>
      </trkpt>
      <trkpt lat="45.75341" lon="5.93605">
        <ele>330</ele>
        <time>2022-05-01T10:13:25.215Z</time>
      </trkpt>
      <trkpt lat="45.75338" lon="5.93601">
        <ele>330</ele>
        <time>2022-05-01T10:13:26.214Z</time>
      </trkpt>
      <trkpt lat="45.75335" lon="5.93597">
        <ele>329</ele>
        <time>2022-05-01T10:13:27.215Z</time>
      </trkpt>
      <trkpt lat="45.75332" lon="5.93593">
        <ele>329</ele>
        <time>2022-05-01T10:13:28.215Z</time>
      </trkpt>
      <trkpt lat="45.75329" lon="5.93588">
        <ele>329</ele>
        <time>2022-05-01T10:13:29.214Z</time>
      </trkpt>
      <trkpt lat="45.75326" lon="5.93584">
        <ele>329</ele>
        <time>2022-05-01T10:13:30.215Z</time>
      </trkpt>
      <trkpt lat="45.75322" lon="5.93579">
        <ele>329</ele>
        <time>2022-05-01T10:13:31.215Z</time>
      </trkpt>
      <trkpt lat="45.75319" lon="5.93575">
        <ele>328</ele>
        <time>2022-05-01T10:13:32.215Z</time>
      </trkpt>
      <trkpt lat="45.75316" lon="5.93571">
        <ele>328</ele>
        <time>2022-05-01T10:13:33.215Z</time>
      </trkpt>
      <trkpt lat="45.75313" lon="5.93566">
        <ele>328</ele>
        <time>2022-05-01T10:13:34.215Z</time>
      </trkpt>
      <trkpt lat="45.7531" lon="5.93562">
        <ele>328</ele>
        <time>2022-05-01T10:13:35.215Z</time>
      </trkpt>
      <trkpt lat="45.75307" lon="5.93557">
        <ele>328</ele>
        <time>2022-05-01T10:13:36.215Z</time>
      </trkpt>
      <trkpt lat="45.75304" lon="5.93554">
        <ele>328</ele>
        <time>2022-05-01T10:13:37.214Z</time>
      </trkpt>
      <trkpt lat="45.75301" lon="5.9355">
        <ele>328</ele>
        <time>2022-05-01T10:13:38.215Z</time>
      </trkpt>
      <trkpt lat="45.75299" lon="5.93545">
        <ele>328</ele>
        <time>2022-05-01T10:13:39.214Z</time>
      </trkpt>
      <trkpt lat="45.75295" lon="5.93541">
        <ele>327</ele>
        <time>2022-05-01T10:13:40.215Z</time>
      </trkpt>
      <trkpt lat="45.75292" lon="5.93537">
        <ele>327</ele>
        <time>2022-05-01T10:13:41.215Z</time>
      </trkpt>
      <trkpt lat="45.75289" lon="5.93533">
        <ele>327</ele>
        <time>2022-05-01T10:13:42.215Z</time>
      </trkpt>
      <trkpt lat="45.75286" lon="5.93529">
        <ele>327</ele>
        <time>2022-05-01T10:13:43.215Z</time>
      </trkpt>
      <trkpt lat="45.75283" lon="5.93525">
        <ele>327</ele>
        <time>2022-05-01T10:13:44.214Z</time>
      </trkpt>
      <trkpt lat="45.75281" lon="5.93521">
        <ele>327</ele>
        <time>2022-05-01T10:13:45.215Z</time>
      </trkpt>
      <trkpt lat="45.75279" lon="5.93517">
        <ele>326</ele>
        <time>2022-05-01T10:13:46.215Z</time>
      </trkpt>
      <trkpt lat="45.75277" lon="5.93513">
        <ele>326</ele>
        <time>2022-05-01T10:13:47.215Z</time>
      </trkpt>
      <trkpt lat="45.75276" lon="5.9351">
        <ele>326</ele>
        <time>2022-05-01T10:13:48.215Z</time>
      </trkpt>
      <trkpt lat="45.75274" lon="5.93507">
        <ele>326</ele>
        <time>2022-05-01T10:13:49.215Z</time>
      </trkpt>
      <trkpt lat="45.75273" lon="5.93503">
        <ele>325</ele>
        <time>2022-05-01T10:13:50.214Z</time>
      </trkpt>
      <trkpt lat="45.75272" lon="5.93501">
        <ele>325</ele>
        <time>2022-05-01T10:13:51.215Z</time>
      </trkpt>
      <trkpt lat="45.75271" lon="5.93499">
        <ele>326</ele>
        <time>2022-05-01T10:13:52.215Z</time>
      </trkpt>
      <trkpt lat="45.7527" lon="5.93496">
        <ele>327</ele>
        <time>2022-05-01T10:13:53.215Z</time>
      </trkpt>
      <trkpt lat="45.75268" lon="5.93494">
        <ele>328</ele>
        <time>2022-05-01T10:13:54.215Z</time>
      </trkpt>
      <trkpt lat="45.75267" lon="5.93491">
        <ele>329</ele>
        <time>2022-05-01T10:13:55.215Z</time>
      </trkpt>
      <trkpt lat="45.75267" lon="5.93488">
        <ele>330</ele>
        <time>2022-05-01T10:13:56.215Z</time>
      </trkpt>
      <trkpt lat="45.75266" lon="5.93486">
        <ele>330</ele>
        <time>2022-05-01T10:13:57.215Z</time>
      </trkpt>
      <trkpt lat="45.75266" lon="5.93483">
        <ele>331</ele>
        <time>2022-05-01T10:13:58.214Z</time>
      </trkpt>
      <trkpt lat="45.75266" lon="5.9348">
        <ele>332</ele>
        <time>2022-05-01T10:13:59.214Z</time>
      </trkpt>
      <trkpt lat="45.75265" lon="5.93477">
        <ele>332</ele>
        <time>2022-05-01T10:14:00.214Z</time>
      </trkpt>
      <trkpt lat="45.75264" lon="5.93475">
        <ele>332</ele>
        <time>2022-05-01T10:14:01.215Z</time>
      </trkpt>
      <trkpt lat="45.75263" lon="5.93472">
        <ele>333</ele>
        <time>2022-05-01T10:14:02.215Z</time>
      </trkpt>
      <trkpt lat="45.75262" lon="5.9347">
        <ele>333</ele>
        <time>2022-05-01T10:14:03.215Z</time>
      </trkpt>
      <trkpt lat="45.75261" lon="5.93468">
        <ele>334</ele>
        <time>2022-05-01T10:14:04.214Z</time>
      </trkpt>
      <trkpt lat="45.75259" lon="5.93467">
        <ele>335</ele>
        <time>2022-05-01T10:14:05.215Z</time>
      </trkpt>
      <trkpt lat="45.75256" lon="5.93467">
        <ele>336</ele>
        <time>2022-05-01T10:14:06.215Z</time>
      </trkpt>
      <trkpt lat="45.75254" lon="5.93466">
        <ele>337</ele>
        <time>2022-05-01T10:14:07.215Z</time>
      </trkpt>
      <trkpt lat="45.75252" lon="5.93465">
        <ele>337</ele>
        <time>2022-05-01T10:14:08.214Z</time>
      </trkpt>
      <trkpt lat="45.75251" lon="5.93464">
        <ele>338</ele>
        <time>2022-05-01T10:14:09.215Z</time>
      </trkpt>
      <trkpt lat="45.75249" lon="5.93462">
        <ele>338</ele>
        <time>2022-05-01T10:14:10.215Z</time>
      </trkpt>
      <trkpt lat="45.75247" lon="5.93461">
        <ele>339</ele>
        <time>2022-05-01T10:14:11.215Z</time>
      </trkpt>
      <trkpt lat="45.75245" lon="5.93459">
        <ele>339</ele>
        <time>2022-05-01T10:14:12.214Z</time>
      </trkpt>
      <trkpt lat="45.75243" lon="5.93457">
        <ele>339</ele>
        <time>2022-05-01T10:14:13.215Z</time>
      </trkpt>
      <trkpt lat="45.75241" lon="5.93456">
        <ele>339</ele>
        <time>2022-05-01T10:14:14.215Z</time>
      </trkpt>
      <trkpt lat="45.75239" lon="5.93455">
        <ele>339</ele>
        <time>2022-05-01T10:14:15.215Z</time>
      </trkpt>
      <trkpt lat="45.75237" lon="5.93454">
        <ele>339</ele>
        <time>2022-05-01T10:14:16.215Z</time>
      </trkpt>
      <trkpt lat="45.75235" lon="5.93454">
        <ele>340</ele>
        <time>2022-05-01T10:14:17.214Z</time>
      </trkpt>
      <trkpt lat="45.75232" lon="5.93452">
        <ele>340</ele>
        <time>2022-05-01T10:14:18.215Z</time>
      </trkpt>
      <trkpt lat="45.7523" lon="5.93451">
        <ele>341</ele>
        <time>2022-05-01T10:14:19.214Z</time>
      </trkpt>
      <trkpt lat="45.75228" lon="5.9345">
        <ele>341</ele>
        <time>2022-05-01T10:14:20.215Z</time>
      </trkpt>
      <trkpt lat="45.75227" lon="5.93449">
        <ele>342</ele>
        <time>2022-05-01T10:14:21.215Z</time>
      </trkpt>
      <trkpt lat="45.75225" lon="5.93448">
        <ele>342</ele>
        <time>2022-05-01T10:14:22.215Z</time>
      </trkpt>
      <trkpt lat="45.75223" lon="5.93447">
        <ele>343</ele>
        <time>2022-05-01T10:14:23.215Z</time>
      </trkpt>
      <trkpt lat="45.75221" lon="5.93447">
        <ele>343</ele>
        <time>2022-05-01T10:14:24.215Z</time>
      </trkpt>
      <trkpt lat="45.75219" lon="5.93446">
        <ele>344</ele>
        <time>2022-05-01T10:14:25.214Z</time>
      </trkpt>
      <trkpt lat="45.75217" lon="5.93446">
        <ele>344</ele>
        <time>2022-05-01T10:14:26.215Z</time>
      </trkpt>
      <trkpt lat="45.75215" lon="5.93445">
        <ele>344</ele>
        <time>2022-05-01T10:14:27.215Z</time>
      </trkpt>
      <trkpt lat="45.75213" lon="5.93445">
        <ele>344</ele>
        <time>2022-05-01T10:14:28.215Z</time>
      </trkpt>
      <trkpt lat="45.75212" lon="5.93444">
        <ele>344</ele>
        <time>2022-05-01T10:14:29.215Z</time>
      </trkpt>
      <trkpt lat="45.75209" lon="5.93444">
        <ele>344</ele>
        <time>2022-05-01T10:14:30.214Z</time>
      </trkpt>
      <trkpt lat="45.75208" lon="5.93443">
        <ele>345</ele>
        <time>2022-05-01T10:14:31.215Z</time>
      </trkpt>
      <trkpt lat="45.75205" lon="5.93442">
        <ele>344</ele>
        <time>2022-05-01T10:14:32.214Z</time>
      </trkpt>
      <trkpt lat="45.75203" lon="5.93441">
        <ele>344</ele>
        <time>2022-05-01T10:14:33.215Z</time>
      </trkpt>
      <trkpt lat="45.75202" lon="5.93439">
        <ele>344</ele>
        <time>2022-05-01T10:14:34.214Z</time>
      </trkpt>
      <trkpt lat="45.752" lon="5.93438">
        <ele>344</ele>
        <time>2022-05-01T10:14:35.215Z</time>
      </trkpt>
      <trkpt lat="45.75198" lon="5.93436">
        <ele>344</ele>
        <time>2022-05-01T10:14:36.214Z</time>
      </trkpt>
      <trkpt lat="45.75196" lon="5.93434">
        <ele>344</ele>
        <time>2022-05-01T10:14:37.215Z</time>
      </trkpt>
      <trkpt lat="45.75195" lon="5.93431">
        <ele>343</ele>
        <time>2022-05-01T10:14:38.215Z</time>
      </trkpt>
      <trkpt lat="45.75194" lon="5.93428">
        <ele>343</ele>
        <time>2022-05-01T10:14:39.214Z</time>
      </trkpt>
      <trkpt lat="45.75193" lon="5.93425">
        <ele>343</ele>
        <time>2022-05-01T10:14:40.215Z</time>
      </trkpt>
      <trkpt lat="45.75193" lon="5.93422">
        <ele>343</ele>
        <time>2022-05-01T10:14:41.215Z</time>
      </trkpt>
      <trkpt lat="45.75193" lon="5.93418">
        <ele>343</ele>
        <time>2022-05-01T10:14:42.215Z</time>
      </trkpt>
      <trkpt lat="45.75194" lon="5.93415">
        <ele>342</ele>
        <time>2022-05-01T10:14:43.215Z</time>
      </trkpt>
      <trkpt lat="45.75195" lon="5.93412">
        <ele>342</ele>
        <time>2022-05-01T10:14:44.214Z</time>
      </trkpt>
      <trkpt lat="45.75196" lon="5.93409">
        <ele>342</ele>
        <time>2022-05-01T10:14:45.214Z</time>
      </trkpt>
      <trkpt lat="45.75196" lon="5.93406">
        <ele>342</ele>
        <time>2022-05-01T10:14:46.215Z</time>
      </trkpt>
      <trkpt lat="45.75197" lon="5.93404">
        <ele>342</ele>
        <time>2022-05-01T10:14:47.215Z</time>
      </trkpt>
      <trkpt lat="45.75199" lon="5.93402">
        <ele>342</ele>
        <time>2022-05-01T10:14:48.215Z</time>
      </trkpt>
      <trkpt lat="45.752" lon="5.93399">
        <ele>342</ele>
        <time>2022-05-01T10:14:49.215Z</time>
      </trkpt>
      <trkpt lat="45.75202" lon="5.93396">
        <ele>342</ele>
        <time>2022-05-01T10:14:50.215Z</time>
      </trkpt>
      <trkpt lat="45.75203" lon="5.93393">
        <ele>342</ele>
        <time>2022-05-01T10:14:51.215Z</time>
      </trkpt>
      <trkpt lat="45.75205" lon="5.93392">
        <ele>342</ele>
        <time>2022-05-01T10:14:52.215Z</time>
      </trkpt>
      <trkpt lat="45.75207" lon="5.93389">
        <ele>342</ele>
        <time>2022-05-01T10:14:53.215Z</time>
      </trkpt>
      <trkpt lat="45.75208" lon="5.93387">
        <ele>342</ele>
        <time>2022-05-01T10:14:54.214Z</time>
      </trkpt>
      <trkpt lat="45.7521" lon="5.93385">
        <ele>342</ele>
        <time>2022-05-01T10:14:55.215Z</time>
      </trkpt>
      <trkpt lat="45.75212" lon="5.93384">
        <ele>342</ele>
        <time>2022-05-01T10:14:56.215Z</time>
      </trkpt>
      <trkpt lat="45.75213" lon="5.93382">
        <ele>342</ele>
        <time>2022-05-01T10:14:57.214Z</time>
      </trkpt>
      <trkpt lat="45.75215" lon="5.9338">
        <ele>342</ele>
        <time>2022-05-01T10:14:58.214Z</time>
      </trkpt>
      <trkpt lat="45.75216" lon="5.93378">
        <ele>342</ele>
        <time>2022-05-01T10:14:59.214Z</time>
      </trkpt>
      <trkpt lat="45.75218" lon="5.93376">
        <ele>342</ele>
        <time>2022-05-01T10:15:00.215Z</time>
      </trkpt>
      <trkpt lat="45.7522" lon="5.93375">
        <ele>342</ele>
        <time>2022-05-01T10:15:01.215Z</time>
      </trkpt>
      <trkpt lat="45.75222" lon="5.93373">
        <ele>342</ele>
        <time>2022-05-01T10:15:02.214Z</time>
      </trkpt>
      <trkpt lat="45.75223" lon="5.93371">
        <ele>342</ele>
        <time>2022-05-01T10:15:03.215Z</time>
      </trkpt>
      <trkpt lat="45.75225" lon="5.9337">
        <ele>342</ele>
        <time>2022-05-01T10:15:04.215Z</time>
      </trkpt>
      <trkpt lat="45.75226" lon="5.93368">
        <ele>343</ele>
        <time>2022-05-01T10:15:05.215Z</time>
      </trkpt>
      <trkpt lat="45.75228" lon="5.93367">
        <ele>343</ele>
        <time>2022-05-01T10:15:06.215Z</time>
      </trkpt>
      <trkpt lat="45.75229" lon="5.93365">
        <ele>344</ele>
        <time>2022-05-01T10:15:07.215Z</time>
      </trkpt>
      <trkpt lat="45.75231" lon="5.93364">
        <ele>345</ele>
        <time>2022-05-01T10:15:08.215Z</time>
      </trkpt>
      <trkpt lat="45.75233" lon="5.93363">
        <ele>345</ele>
        <time>2022-05-01T10:15:09.214Z</time>
      </trkpt>
      <trkpt lat="45.75235" lon="5.93361">
        <ele>346</ele>
        <time>2022-05-01T10:15:10.215Z</time>
      </trkpt>
      <trkpt lat="45.75237" lon="5.9336">
        <ele>346</ele>
        <time>2022-05-01T10:15:11.215Z</time>
      </trkpt>
      <trkpt lat="45.75239" lon="5.93359">
        <ele>346</ele>
        <time>2022-05-01T10:15:12.215Z</time>
      </trkpt>
      <trkpt lat="45.75241" lon="5.93357">
        <ele>346</ele>
        <time>2022-05-01T10:15:13.215Z</time>
      </trkpt>
      <trkpt lat="45.75243" lon="5.93356">
        <ele>346</ele>
        <time>2022-05-01T10:15:14.215Z</time>
      </trkpt>
      <trkpt lat="45.75245" lon="5.93354">
        <ele>346</ele>
        <time>2022-05-01T10:15:15.215Z</time>
      </trkpt>
      <trkpt lat="45.75246" lon="5.93352">
        <ele>346</ele>
        <time>2022-05-01T10:15:16.215Z</time>
      </trkpt>
      <trkpt lat="45.75248" lon="5.9335">
        <ele>347</ele>
        <time>2022-05-01T10:15:17.215Z</time>
      </trkpt>
      <trkpt lat="45.7525" lon="5.93348">
        <ele>347</ele>
        <time>2022-05-01T10:15:18.215Z</time>
      </trkpt>
      <trkpt lat="45.75252" lon="5.93346">
        <ele>347</ele>
        <time>2022-05-01T10:15:19.215Z</time>
      </trkpt>
      <trkpt lat="45.75253" lon="5.93343">
        <ele>347</ele>
        <time>2022-05-01T10:15:20.215Z</time>
      </trkpt>
      <trkpt lat="45.75254" lon="5.93341">
        <ele>347</ele>
        <time>2022-05-01T10:15:21.215Z</time>
      </trkpt>
      <trkpt lat="45.75256" lon="5.93338">
        <ele>348</ele>
        <time>2022-05-01T10:15:22.214Z</time>
      </trkpt>
      <trkpt lat="45.75257" lon="5.93336">
        <ele>347</ele>
        <time>2022-05-01T10:15:23.215Z</time>
      </trkpt>
      <trkpt lat="45.75258" lon="5.93334">
        <ele>347</ele>
        <time>2022-05-01T10:15:24.215Z</time>
      </trkpt>
      <trkpt lat="45.75259" lon="5.93331">
        <ele>347</ele>
        <time>2022-05-01T10:15:25.215Z</time>
      </trkpt>
      <trkpt lat="45.7526" lon="5.93329">
        <ele>347</ele>
        <time>2022-05-01T10:15:26.214Z</time>
      </trkpt>
      <trkpt lat="45.75261" lon="5.93326">
        <ele>347</ele>
        <time>2022-05-01T10:15:27.215Z</time>
      </trkpt>
      <trkpt lat="45.75263" lon="5.93324">
        <ele>346</ele>
        <time>2022-05-01T10:15:28.214Z</time>
      </trkpt>
      <trkpt lat="45.75264" lon="5.93322">
        <ele>346</ele>
        <time>2022-05-01T10:15:29.215Z</time>
      </trkpt>
      <trkpt lat="45.75266" lon="5.93319">
        <ele>346</ele>
        <time>2022-05-01T10:15:30.215Z</time>
      </trkpt>
      <trkpt lat="45.75267" lon="5.93317">
        <ele>347</ele>
        <time>2022-05-01T10:15:31.215Z</time>
      </trkpt>
      <trkpt lat="45.75269" lon="5.93314">
        <ele>347</ele>
        <time>2022-05-01T10:15:32.215Z</time>
      </trkpt>
      <trkpt lat="45.7527" lon="5.93311">
        <ele>347</ele>
        <time>2022-05-01T10:15:33.215Z</time>
      </trkpt>
      <trkpt lat="45.75271" lon="5.93309">
        <ele>347</ele>
        <time>2022-05-01T10:15:34.215Z</time>
      </trkpt>
      <trkpt lat="45.75273" lon="5.93306">
        <ele>347</ele>
        <time>2022-05-01T10:15:35.215Z</time>
      </trkpt>
      <trkpt lat="45.75274" lon="5.93304">
        <ele>347</ele>
        <time>2022-05-01T10:15:36.214Z</time>
      </trkpt>
      <trkpt lat="45.75275" lon="5.93302">
        <ele>347</ele>
        <time>2022-05-01T10:15:37.215Z</time>
      </trkpt>
      <trkpt lat="45.75277" lon="5.933">
        <ele>348</ele>
        <time>2022-05-01T10:15:38.215Z</time>
      </trkpt>
      <trkpt lat="45.75278" lon="5.93298">
        <ele>348</ele>
        <time>2022-05-01T10:15:39.215Z</time>
      </trkpt>
      <trkpt lat="45.7528" lon="5.93295">
        <ele>348</ele>
        <time>2022-05-01T10:15:40.214Z</time>
      </trkpt>
      <trkpt lat="45.75281" lon="5.93293">
        <ele>348</ele>
        <time>2022-05-01T10:15:41.214Z</time>
      </trkpt>
      <trkpt lat="45.75283" lon="5.93291">
        <ele>348</ele>
        <time>2022-05-01T10:15:42.215Z</time>
      </trkpt>
      <trkpt lat="45.75284" lon="5.93289">
        <ele>348</ele>
        <time>2022-05-01T10:15:43.214Z</time>
      </trkpt>
      <trkpt lat="45.75286" lon="5.93287">
        <ele>349</ele>
        <time>2022-05-01T10:15:44.215Z</time>
      </trkpt>
      <trkpt lat="45.75287" lon="5.93285">
        <ele>349</ele>
        <time>2022-05-01T10:15:45.215Z</time>
      </trkpt>
      <trkpt lat="45.75288" lon="5.93282">
        <ele>349</ele>
        <time>2022-05-01T10:15:46.215Z</time>
      </trkpt>
      <trkpt lat="45.7529" lon="5.9328">
        <ele>350</ele>
        <time>2022-05-01T10:15:47.214Z</time>
      </trkpt>
      <trkpt lat="45.75291" lon="5.93278">
        <ele>350</ele>
        <time>2022-05-01T10:15:48.215Z</time>
      </trkpt>
      <trkpt lat="45.75292" lon="5.93276">
        <ele>351</ele>
        <time>2022-05-01T10:15:49.215Z</time>
      </trkpt>
      <trkpt lat="45.75294" lon="5.93274">
        <ele>351</ele>
        <time>2022-05-01T10:15:50.215Z</time>
      </trkpt>
      <trkpt lat="45.75295" lon="5.93272">
        <ele>351</ele>
        <time>2022-05-01T10:15:51.214Z</time>
      </trkpt>
      <trkpt lat="45.75296" lon="5.93269">
        <ele>351</ele>
        <time>2022-05-01T10:15:52.215Z</time>
      </trkpt>
      <trkpt lat="45.75298" lon="5.93267">
        <ele>352</ele>
        <time>2022-05-01T10:15:53.215Z</time>
      </trkpt>
      <trkpt lat="45.75299" lon="5.93265">
        <ele>352</ele>
        <time>2022-05-01T10:15:54.215Z</time>
      </trkpt>
      <trkpt lat="45.753" lon="5.93263">
        <ele>352</ele>
        <time>2022-05-01T10:15:55.215Z</time>
      </trkpt>
      <trkpt lat="45.75302" lon="5.9326">
        <ele>352</ele>
        <time>2022-05-01T10:15:56.215Z</time>
      </trkpt>
      <trkpt lat="45.75303" lon="5.93258">
        <ele>352</ele>
        <time>2022-05-01T10:15:57.214Z</time>
      </trkpt>
      <trkpt lat="45.75304" lon="5.93256">
        <ele>352</ele>
        <time>2022-05-01T10:15:58.215Z</time>
      </trkpt>
      <trkpt lat="45.75306" lon="5.93254">
        <ele>352</ele>
        <time>2022-05-01T10:15:59.215Z</time>
      </trkpt>
      <trkpt lat="45.75307" lon="5.93252">
        <ele>352</ele>
        <time>2022-05-01T10:16:00.215Z</time>
      </trkpt>
      <trkpt lat="45.75309" lon="5.9325">
        <ele>353</ele>
        <time>2022-05-01T10:16:01.215Z</time>
      </trkpt>
      <trkpt lat="45.7531" lon="5.93248">
        <ele>353</ele>
        <time>2022-05-01T10:16:02.215Z</time>
      </trkpt>
      <trkpt lat="45.75311" lon="5.93246">
        <ele>353</ele>
        <time>2022-05-01T10:16:03.215Z</time>
      </trkpt>
      <trkpt lat="45.75312" lon="5.93244">
        <ele>354</ele>
        <time>2022-05-01T10:16:04.215Z</time>
      </trkpt>
      <trkpt lat="45.75313" lon="5.93241">
        <ele>354</ele>
        <time>2022-05-01T10:16:05.214Z</time>
      </trkpt>
      <trkpt lat="45.75315" lon="5.93239">
        <ele>354</ele>
        <time>2022-05-01T10:16:06.215Z</time>
      </trkpt>
      <trkpt lat="45.75316" lon="5.93237">
        <ele>355</ele>
        <time>2022-05-01T10:16:07.215Z</time>
      </trkpt>
      <trkpt lat="45.75318" lon="5.93236">
        <ele>355</ele>
        <time>2022-05-01T10:16:08.214Z</time>
      </trkpt>
      <trkpt lat="45.75319" lon="5.93234">
        <ele>356</ele>
        <time>2022-05-01T10:16:09.215Z</time>
      </trkpt>
      <trkpt lat="45.75321" lon="5.93232">
        <ele>356</ele>
        <time>2022-05-01T10:16:10.215Z</time>
      </trkpt>
      <trkpt lat="45.75322" lon="5.9323">
        <ele>356</ele>
        <time>2022-05-01T10:16:11.215Z</time>
      </trkpt>
      <trkpt lat="45.75324" lon="5.93228">
        <ele>357</ele>
        <time>2022-05-01T10:16:12.215Z</time>
      </trkpt>
      <trkpt lat="45.75325" lon="5.93226">
        <ele>357</ele>
        <time>2022-05-01T10:16:13.215Z</time>
      </trkpt>
      <trkpt lat="45.75327" lon="5.93223">
        <ele>357</ele>
        <time>2022-05-01T10:16:14.214Z</time>
      </trkpt>
      <trkpt lat="45.75328" lon="5.93221">
        <ele>358</ele>
        <time>2022-05-01T10:16:15.214Z</time>
      </trkpt>
      <trkpt lat="45.7533" lon="5.93219">
        <ele>358</ele>
        <time>2022-05-01T10:16:16.215Z</time>
      </trkpt>
      <trkpt lat="45.75331" lon="5.93217">
        <ele>359</ele>
        <time>2022-05-01T10:16:17.214Z</time>
      </trkpt>
      <trkpt lat="45.75333" lon="5.93215">
        <ele>359</ele>
        <time>2022-05-01T10:16:18.214Z</time>
      </trkpt>
      <trkpt lat="45.75334" lon="5.93212">
        <ele>360</ele>
        <time>2022-05-01T10:16:19.214Z</time>
      </trkpt>
      <trkpt lat="45.75336" lon="5.9321">
        <ele>360</ele>
        <time>2022-05-01T10:16:20.214Z</time>
      </trkpt>
      <trkpt lat="45.75337" lon="5.93208">
        <ele>360</ele>
        <time>2022-05-01T10:16:21.215Z</time>
      </trkpt>
      <trkpt lat="45.75339" lon="5.93207">
        <ele>360</ele>
        <time>2022-05-01T10:16:22.215Z</time>
      </trkpt>
      <trkpt lat="45.7534" lon="5.93205">
        <ele>361</ele>
        <time>2022-05-01T10:16:23.215Z</time>
      </trkpt>
      <trkpt lat="45.75341" lon="5.93203">
        <ele>361</ele>
        <time>2022-05-01T10:16:24.214Z</time>
      </trkpt>
      <trkpt lat="45.75343" lon="5.93201">
        <ele>362</ele>
        <time>2022-05-01T10:16:25.215Z</time>
      </trkpt>
      <trkpt lat="45.75344" lon="5.93199">
        <ele>362</ele>
        <time>2022-05-01T10:16:26.215Z</time>
      </trkpt>
      <trkpt lat="45.75346" lon="5.93197">
        <ele>362</ele>
        <time>2022-05-01T10:16:27.214Z</time>
      </trkpt>
      <trkpt lat="45.75347" lon="5.93195">
        <ele>363</ele>
        <time>2022-05-01T10:16:28.215Z</time>
      </trkpt>
      <trkpt lat="45.75349" lon="5.93193">
        <ele>363</ele>
        <time>2022-05-01T10:16:29.215Z</time>
      </trkpt>
      <trkpt lat="45.7535" lon="5.93191">
        <ele>364</ele>
        <time>2022-05-01T10:16:30.215Z</time>
      </trkpt>
      <trkpt lat="45.75351" lon="5.93189">
        <ele>364</ele>
        <time>2022-05-01T10:16:31.215Z</time>
      </trkpt>
      <trkpt lat="45.75353" lon="5.93187">
        <ele>364</ele>
        <time>2022-05-01T10:16:32.215Z</time>
      </trkpt>
      <trkpt lat="45.75354" lon="5.93185">
        <ele>365</ele>
        <time>2022-05-01T10:16:33.215Z</time>
      </trkpt>
      <trkpt lat="45.75355" lon="5.93183">
        <ele>365</ele>
        <time>2022-05-01T10:16:34.215Z</time>
      </trkpt>
      <trkpt lat="45.75357" lon="5.93181">
        <ele>365</ele>
        <time>2022-05-01T10:16:35.215Z</time>
      </trkpt>
      <trkpt lat="45.75358" lon="5.93179">
        <ele>365</ele>
        <time>2022-05-01T10:16:36.215Z</time>
      </trkpt>
      <trkpt lat="45.7536" lon="5.93177">
        <ele>366</ele>
        <time>2022-05-01T10:16:37.214Z</time>
      </trkpt>
      <trkpt lat="45.75361" lon="5.93175">
        <ele>367</ele>
        <time>2022-05-01T10:16:38.215Z</time>
      </trkpt>
      <trkpt lat="45.75362" lon="5.93173">
        <ele>367</ele>
        <time>2022-05-01T10:16:39.215Z</time>
      </trkpt>
      <trkpt lat="45.75363" lon="5.93171">
        <ele>368</ele>
        <time>2022-05-01T10:16:40.214Z</time>
      </trkpt>
      <trkpt lat="45.75365" lon="5.93169">
        <ele>368</ele>
        <time>2022-05-01T10:16:41.215Z</time>
      </trkpt>
      <trkpt lat="45.75367" lon="5.93167">
        <ele>369</ele>
        <time>2022-05-01T10:16:42.215Z</time>
      </trkpt>
      <trkpt lat="45.75368" lon="5.93165">
        <ele>369</ele>
        <time>2022-05-01T10:16:43.215Z</time>
      </trkpt>
      <trkpt lat="45.75369" lon="5.93162">
        <ele>370</ele>
        <time>2022-05-01T10:16:44.215Z</time>
      </trkpt>
      <trkpt lat="45.7537" lon="5.9316">
        <ele>370</ele>
        <time>2022-05-01T10:16:45.215Z</time>
      </trkpt>
      <trkpt lat="45.75371" lon="5.93158">
        <ele>371</ele>
        <time>2022-05-01T10:16:46.215Z</time>
      </trkpt>
      <trkpt lat="45.75373" lon="5.93155">
        <ele>371</ele>
        <time>2022-05-01T10:16:47.215Z</time>
      </trkpt>
      <trkpt lat="45.75374" lon="5.93153">
        <ele>371</ele>
        <time>2022-05-01T10:16:48.215Z</time>
      </trkpt>
      <trkpt lat="45.75375" lon="5.93151">
        <ele>372</ele>
        <time>2022-05-01T10:16:49.215Z</time>
      </trkpt>
      <trkpt lat="45.75377" lon="5.93148">
        <ele>372</ele>
        <time>2022-05-01T10:16:50.215Z</time>
      </trkpt>
      <trkpt lat="45.75378" lon="5.93146">
        <ele>372</ele>
        <time>2022-05-01T10:16:51.214Z</time>
      </trkpt>
      <trkpt lat="45.75379" lon="5.93144">
        <ele>372</ele>
        <time>2022-05-01T10:16:52.215Z</time>
      </trkpt>
      <trkpt lat="45.7538" lon="5.93142">
        <ele>372</ele>
        <time>2022-05-01T10:16:53.215Z</time>
      </trkpt>
      <trkpt lat="45.75381" lon="5.93139">
        <ele>372</ele>
        <time>2022-05-01T10:16:54.215Z</time>
      </trkpt>
      <trkpt lat="45.75383" lon="5.93137">
        <ele>372</ele>
        <time>2022-05-01T10:16:55.215Z</time>
      </trkpt>
      <trkpt lat="45.75384" lon="5.93134">
        <ele>373</ele>
        <time>2022-05-01T10:16:56.215Z</time>
      </trkpt>
      <trkpt lat="45.75385" lon="5.93132">
        <ele>373</ele>
        <time>2022-05-01T10:16:57.214Z</time>
      </trkpt>
      <trkpt lat="45.75386" lon="5.9313">
        <ele>373</ele>
        <time>2022-05-01T10:16:58.214Z</time>
      </trkpt>
      <trkpt lat="45.75387" lon="5.93127">
        <ele>373</ele>
        <time>2022-05-01T10:16:59.215Z</time>
      </trkpt>
      <trkpt lat="45.75388" lon="5.93125">
        <ele>374</ele>
        <time>2022-05-01T10:17:00.215Z</time>
      </trkpt>
      <trkpt lat="45.75389" lon="5.93122">
        <ele>374</ele>
        <time>2022-05-01T10:17:01.215Z</time>
      </trkpt>
      <trkpt lat="45.7539" lon="5.9312">
        <ele>374</ele>
        <time>2022-05-01T10:17:02.215Z</time>
      </trkpt>
      <trkpt lat="45.75392" lon="5.93118">
        <ele>374</ele>
        <time>2022-05-01T10:17:03.215Z</time>
      </trkpt>
      <trkpt lat="45.75393" lon="5.93116">
        <ele>374</ele>
        <time>2022-05-01T10:17:04.215Z</time>
      </trkpt>
      <trkpt lat="45.75395" lon="5.93115">
        <ele>375</ele>
        <time>2022-05-01T10:17:05.214Z</time>
      </trkpt>
      <trkpt lat="45.75397" lon="5.93113">
        <ele>375</ele>
        <time>2022-05-01T10:17:06.215Z</time>
      </trkpt>
      <trkpt lat="45.75398" lon="5.93111">
        <ele>375</ele>
        <time>2022-05-01T10:17:07.215Z</time>
      </trkpt>
      <trkpt lat="45.754" lon="5.93109">
        <ele>375</ele>
        <time>2022-05-01T10:17:08.215Z</time>
      </trkpt>
      <trkpt lat="45.75401" lon="5.93107">
        <ele>376</ele>
        <time>2022-05-01T10:17:09.214Z</time>
      </trkpt>
      <trkpt lat="45.75403" lon="5.93106">
        <ele>376</ele>
        <time>2022-05-01T10:17:10.215Z</time>
      </trkpt>
      <trkpt lat="45.75405" lon="5.93104">
        <ele>375</ele>
        <time>2022-05-01T10:17:11.215Z</time>
      </trkpt>
      <trkpt lat="45.75406" lon="5.93102">
        <ele>375</ele>
        <time>2022-05-01T10:17:12.215Z</time>
      </trkpt>
      <trkpt lat="45.75407" lon="5.93101">
        <ele>376</ele>
        <time>2022-05-01T10:17:13.215Z</time>
      </trkpt>
      <trkpt lat="45.75409" lon="5.93099">
        <ele>376</ele>
        <time>2022-05-01T10:17:14.215Z</time>
      </trkpt>
      <trkpt lat="45.7541" lon="5.93097">
        <ele>376</ele>
        <time>2022-05-01T10:17:15.215Z</time>
      </trkpt>
      <trkpt lat="45.75411" lon="5.93095">
        <ele>377</ele>
        <time>2022-05-01T10:17:16.215Z</time>
      </trkpt>
      <trkpt lat="45.75413" lon="5.93093">
        <ele>377</ele>
        <time>2022-05-01T10:17:17.215Z</time>
      </trkpt>
      <trkpt lat="45.75414" lon="5.93092">
        <ele>378</ele>
        <time>2022-05-01T10:17:18.215Z</time>
      </trkpt>
      <trkpt lat="45.75415" lon="5.9309">
        <ele>378</ele>
        <time>2022-05-01T10:17:19.215Z</time>
      </trkpt>
      <trkpt lat="45.75416" lon="5.93088">
        <ele>378</ele>
        <time>2022-05-01T10:17:20.215Z</time>
      </trkpt>
      <trkpt lat="45.75418" lon="5.93086">
        <ele>378</ele>
        <time>2022-05-01T10:17:21.215Z</time>
      </trkpt>
      <trkpt lat="45.75419" lon="5.93084">
        <ele>379</ele>
        <time>2022-05-01T10:17:22.215Z</time>
      </trkpt>
      <trkpt lat="45.7542" lon="5.93082">
        <ele>379</ele>
        <time>2022-05-01T10:17:23.215Z</time>
      </trkpt>
      <trkpt lat="45.75421" lon="5.9308">
        <ele>379</ele>
        <time>2022-05-01T10:17:24.215Z</time>
      </trkpt>
      <trkpt lat="45.75423" lon="5.93078">
        <ele>380</ele>
        <time>2022-05-01T10:17:25.215Z</time>
      </trkpt>
      <trkpt lat="45.75424" lon="5.93075">
        <ele>380</ele>
        <time>2022-05-01T10:17:26.215Z</time>
      </trkpt>
      <trkpt lat="45.75425" lon="5.93074">
        <ele>380</ele>
        <time>2022-05-01T10:17:27.215Z</time>
      </trkpt>
      <trkpt lat="45.75426" lon="5.93072">
        <ele>381</ele>
        <time>2022-05-01T10:17:28.215Z</time>
      </trkpt>
      <trkpt lat="45.75428" lon="5.9307">
        <ele>381</ele>
        <time>2022-05-01T10:17:29.215Z</time>
      </trkpt>
      <trkpt lat="45.75429" lon="5.93068">
        <ele>381</ele>
        <time>2022-05-01T10:17:30.215Z</time>
      </trkpt>
      <trkpt lat="45.75431" lon="5.93065">
        <ele>380</ele>
        <time>2022-05-01T10:17:31.215Z</time>
      </trkpt>
      <trkpt lat="45.75432" lon="5.93063">
        <ele>380</ele>
        <time>2022-05-01T10:17:32.215Z</time>
      </trkpt>
      <trkpt lat="45.75433" lon="5.93061">
        <ele>380</ele>
        <time>2022-05-01T10:17:33.215Z</time>
      </trkpt>
      <trkpt lat="45.75435" lon="5.93059">
        <ele>381</ele>
        <time>2022-05-01T10:17:34.215Z</time>
      </trkpt>
      <trkpt lat="45.75436" lon="5.93056">
        <ele>381</ele>
        <time>2022-05-01T10:17:35.215Z</time>
      </trkpt>
      <trkpt lat="45.75437" lon="5.93054">
        <ele>381</ele>
        <time>2022-05-01T10:17:36.215Z</time>
      </trkpt>
      <trkpt lat="45.75438" lon="5.93051">
        <ele>381</ele>
        <time>2022-05-01T10:17:37.215Z</time>
      </trkpt>
      <trkpt lat="45.75439" lon="5.93049">
        <ele>382</ele>
        <time>2022-05-01T10:17:38.215Z</time>
      </trkpt>
      <trkpt lat="45.75441" lon="5.93046">
        <ele>382</ele>
        <time>2022-05-01T10:17:39.215Z</time>
      </trkpt>
      <trkpt lat="45.75442" lon="5.93044">
        <ele>382</ele>
        <time>2022-05-01T10:17:40.215Z</time>
      </trkpt>
      <trkpt lat="45.75443" lon="5.93041">
        <ele>382</ele>
        <time>2022-05-01T10:17:41.215Z</time>
      </trkpt>
      <trkpt lat="45.75444" lon="5.93039">
        <ele>382</ele>
        <time>2022-05-01T10:17:42.215Z</time>
      </trkpt>
      <trkpt lat="45.75446" lon="5.93036">
        <ele>383</ele>
        <time>2022-05-01T10:17:43.215Z</time>
      </trkpt>
      <trkpt lat="45.75447" lon="5.93033">
        <ele>383</ele>
        <time>2022-05-01T10:17:44.214Z</time>
      </trkpt>
      <trkpt lat="45.75448" lon="5.93031">
        <ele>383</ele>
        <time>2022-05-01T10:17:45.215Z</time>
      </trkpt>
      <trkpt lat="45.7545" lon="5.93028">
        <ele>383</ele>
        <time>2022-05-01T10:17:46.215Z</time>
      </trkpt>
      <trkpt lat="45.75451" lon="5.93025">
        <ele>384</ele>
        <time>2022-05-01T10:17:47.214Z</time>
      </trkpt>
      <trkpt lat="45.75451" lon="5.93022">
        <ele>384</ele>
        <time>2022-05-01T10:17:48.214Z</time>
      </trkpt>
      <trkpt lat="45.75453" lon="5.93019">
        <ele>385</ele>
        <time>2022-05-01T10:17:49.215Z</time>
      </trkpt>
      <trkpt lat="45.75453" lon="5.93017">
        <ele>385</ele>
        <time>2022-05-01T10:17:50.215Z</time>
      </trkpt>
      <trkpt lat="45.75454" lon="5.93014">
        <ele>385</ele>
        <time>2022-05-01T10:17:51.215Z</time>
      </trkpt>
      <trkpt lat="45.75455" lon="5.93011">
        <ele>385</ele>
        <time>2022-05-01T10:17:52.215Z</time>
      </trkpt>
      <trkpt lat="45.75457" lon="5.93009">
        <ele>385</ele>
        <time>2022-05-01T10:17:53.215Z</time>
      </trkpt>
      <trkpt lat="45.75458" lon="5.93007">
        <ele>386</ele>
        <time>2022-05-01T10:17:54.215Z</time>
      </trkpt>
      <trkpt lat="45.7546" lon="5.93005">
        <ele>386</ele>
        <time>2022-05-01T10:17:55.214Z</time>
      </trkpt>
      <trkpt lat="45.75461" lon="5.93003">
        <ele>386</ele>
        <time>2022-05-01T10:17:56.215Z</time>
      </trkpt>
      <trkpt lat="45.75462" lon="5.93001">
        <ele>386</ele>
        <time>2022-05-01T10:17:57.215Z</time>
      </trkpt>
      <trkpt lat="45.75464" lon="5.92999">
        <ele>387</ele>
        <time>2022-05-01T10:17:58.215Z</time>
      </trkpt>
      <trkpt lat="45.75465" lon="5.92997">
        <ele>387</ele>
        <time>2022-05-01T10:17:59.215Z</time>
      </trkpt>
      <trkpt lat="45.75466" lon="5.92996">
        <ele>387</ele>
        <time>2022-05-01T10:18:00.215Z</time>
      </trkpt>
      <trkpt lat="45.75467" lon="5.92995">
        <ele>387</ele>
        <time>2022-05-01T10:18:01.214Z</time>
      </trkpt>
      <trkpt lat="45.75467" lon="5.92995">
        <ele>388</ele>
        <time>2022-05-01T10:18:02.215Z</time>
      </trkpt>
      <trkpt lat="45.75466" lon="5.92994">
        <ele>388</ele>
        <time>2022-05-01T10:18:03.215Z</time>
      </trkpt>
      <trkpt lat="45.75466" lon="5.92994">
        <ele>389</ele>
        <time>2022-05-01T10:18:04.214Z</time>
      </trkpt>
      <trkpt lat="45.75466" lon="5.92994">
        <ele>390</ele>
        <time>2022-05-01T10:18:05.215Z</time>
      </trkpt>
      <trkpt lat="45.75466" lon="5.92994">
        <ele>390</ele>
        <time>2022-05-01T10:18:06.215Z</time>
      </trkpt>
      <trkpt lat="45.75465" lon="5.92995">
        <ele>390</ele>
        <time>2022-05-01T10:18:07.215Z</time>
      </trkpt>
      <trkpt lat="45.75465" lon="5.92995">
        <ele>390</ele>
        <time>2022-05-01T10:18:08.215Z</time>
      </trkpt>
      <trkpt lat="45.75465" lon="5.92996">
        <ele>389</ele>
        <time>2022-05-01T10:18:09.214Z</time>
      </trkpt>
      <trkpt lat="45.75464" lon="5.92994">
        <ele>387</ele>
        <time>2022-05-01T10:18:14.395Z</time>
      </trkpt>
      <trkpt lat="45.75464" lon="5.92994">
        <ele>387</ele>
        <time>2022-05-01T10:18:15.395Z</time>
      </trkpt>
      <trkpt lat="45.75464" lon="5.92995">
        <ele>387</ele>
        <time>2022-05-01T10:18:16.394Z</time>
      </trkpt>
      <trkpt lat="45.75466" lon="5.92992">
        <ele>389</ele>
        <time>2022-05-01T10:19:46.482Z</time>
      </trkpt>
      <trkpt lat="45.75466" lon="5.92989">
        <ele>390</ele>
        <time>2022-05-01T10:19:47.482Z</time>
      </trkpt>
      <trkpt lat="45.75466" lon="5.92986">
        <ele>390</ele>
        <time>2022-05-01T10:19:48.482Z</time>
      </trkpt>
      <trkpt lat="45.75465" lon="5.92982">
        <ele>390</ele>
        <time>2022-05-01T10:19:49.482Z</time>
      </trkpt>
      <trkpt lat="45.75466" lon="5.92977">
        <ele>390</ele>
        <time>2022-05-01T10:19:50.482Z</time>
      </trkpt>
      <trkpt lat="45.75466" lon="5.92971">
        <ele>390</ele>
        <time>2022-05-01T10:19:51.482Z</time>
      </trkpt>
      <trkpt lat="45.75468" lon="5.92967">
        <ele>390</ele>
        <time>2022-05-01T10:19:52.482Z</time>
      </trkpt>
      <trkpt lat="45.75469" lon="5.92962">
        <ele>389</ele>
        <time>2022-05-01T10:19:53.482Z</time>
      </trkpt>
      <trkpt lat="45.75471" lon="5.92958">
        <ele>389</ele>
        <time>2022-05-01T10:19:54.481Z</time>
      </trkpt>
      <trkpt lat="45.75472" lon="5.92954">
        <ele>388</ele>
        <time>2022-05-01T10:19:55.481Z</time>
      </trkpt>
      <trkpt lat="45.75474" lon="5.9295">
        <ele>388</ele>
        <time>2022-05-01T10:19:56.482Z</time>
      </trkpt>
      <trkpt lat="45.75475" lon="5.92947">
        <ele>388</ele>
        <time>2022-05-01T10:19:57.482Z</time>
      </trkpt>
      <trkpt lat="45.75476" lon="5.92943">
        <ele>388</ele>
        <time>2022-05-01T10:19:58.482Z</time>
      </trkpt>
      <trkpt lat="45.75478" lon="5.9294">
        <ele>388</ele>
        <time>2022-05-01T10:19:59.482Z</time>
      </trkpt>
      <trkpt lat="45.75479" lon="5.92937">
        <ele>387</ele>
        <time>2022-05-01T10:20:00.482Z</time>
      </trkpt>
      <trkpt lat="45.7548" lon="5.92934">
        <ele>387</ele>
        <time>2022-05-01T10:20:01.482Z</time>
      </trkpt>
      <trkpt lat="45.75481" lon="5.9293">
        <ele>387</ele>
        <time>2022-05-01T10:20:02.481Z</time>
      </trkpt>
      <trkpt lat="45.75483" lon="5.92927">
        <ele>387</ele>
        <time>2022-05-01T10:20:03.481Z</time>
      </trkpt>
      <trkpt lat="45.75484" lon="5.92924">
        <ele>387</ele>
        <time>2022-05-01T10:20:04.481Z</time>
      </trkpt>
      <trkpt lat="45.75485" lon="5.9292">
        <ele>387</ele>
        <time>2022-05-01T10:20:05.482Z</time>
      </trkpt>
      <trkpt lat="45.75486" lon="5.92917">
        <ele>387</ele>
        <time>2022-05-01T10:20:06.482Z</time>
      </trkpt>
      <trkpt lat="45.75487" lon="5.92914">
        <ele>387</ele>
        <time>2022-05-01T10:20:07.482Z</time>
      </trkpt>
      <trkpt lat="45.75488" lon="5.92912">
        <ele>387</ele>
        <time>2022-05-01T10:20:08.481Z</time>
      </trkpt>
      <trkpt lat="45.75489" lon="5.9291">
        <ele>388</ele>
        <time>2022-05-01T10:20:09.482Z</time>
      </trkpt>
      <trkpt lat="45.7549" lon="5.92908">
        <ele>388</ele>
        <time>2022-05-01T10:20:10.481Z</time>
      </trkpt>
      <trkpt lat="45.75491" lon="5.92906">
        <ele>387</ele>
        <time>2022-05-01T10:20:11.481Z</time>
      </trkpt>
      <trkpt lat="45.75492" lon="5.92903">
        <ele>387</ele>
        <time>2022-05-01T10:20:12.481Z</time>
      </trkpt>
      <trkpt lat="45.75493" lon="5.929">
        <ele>388</ele>
        <time>2022-05-01T10:20:13.482Z</time>
      </trkpt>
      <trkpt lat="45.75494" lon="5.92897">
        <ele>388</ele>
        <time>2022-05-01T10:20:14.482Z</time>
      </trkpt>
      <trkpt lat="45.75495" lon="5.92895">
        <ele>388</ele>
        <time>2022-05-01T10:20:15.482Z</time>
      </trkpt>
      <trkpt lat="45.75497" lon="5.92892">
        <ele>388</ele>
        <time>2022-05-01T10:20:16.482Z</time>
      </trkpt>
      <trkpt lat="45.75498" lon="5.9289">
        <ele>387</ele>
        <time>2022-05-01T10:20:17.482Z</time>
      </trkpt>
      <trkpt lat="45.75499" lon="5.92887">
        <ele>387</ele>
        <time>2022-05-01T10:20:18.482Z</time>
      </trkpt>
      <trkpt lat="45.755" lon="5.92885">
        <ele>386</ele>
        <time>2022-05-01T10:20:19.481Z</time>
      </trkpt>
      <trkpt lat="45.75501" lon="5.92882">
        <ele>386</ele>
        <time>2022-05-01T10:20:20.482Z</time>
      </trkpt>
      <trkpt lat="45.75503" lon="5.92879">
        <ele>386</ele>
        <time>2022-05-01T10:20:21.482Z</time>
      </trkpt>
      <trkpt lat="45.75504" lon="5.92877">
        <ele>385</ele>
        <time>2022-05-01T10:20:22.482Z</time>
      </trkpt>
      <trkpt lat="45.75505" lon="5.92874">
        <ele>385</ele>
        <time>2022-05-01T10:20:23.482Z</time>
      </trkpt>
      <trkpt lat="45.75506" lon="5.92871">
        <ele>385</ele>
        <time>2022-05-01T10:20:24.482Z</time>
      </trkpt>
      <trkpt lat="45.75507" lon="5.92869">
        <ele>385</ele>
        <time>2022-05-01T10:20:25.482Z</time>
      </trkpt>
      <trkpt lat="45.75509" lon="5.92867">
        <ele>385</ele>
        <time>2022-05-01T10:20:26.482Z</time>
      </trkpt>
      <trkpt lat="45.7551" lon="5.92865">
        <ele>386</ele>
        <time>2022-05-01T10:20:27.482Z</time>
      </trkpt>
      <trkpt lat="45.75511" lon="5.92863">
        <ele>386</ele>
        <time>2022-05-01T10:20:28.482Z</time>
      </trkpt>
      <trkpt lat="45.75511" lon="5.92861">
        <ele>387</ele>
        <time>2022-05-01T10:20:29.481Z</time>
      </trkpt>
      <trkpt lat="45.75512" lon="5.92858">
        <ele>387</ele>
        <time>2022-05-01T10:20:30.482Z</time>
      </trkpt>
      <trkpt lat="45.75512" lon="5.92855">
        <ele>388</ele>
        <time>2022-05-01T10:20:31.481Z</time>
      </trkpt>
      <trkpt lat="45.75513" lon="5.92852">
        <ele>388</ele>
        <time>2022-05-01T10:20:32.482Z</time>
      </trkpt>
      <trkpt lat="45.75513" lon="5.92849">
        <ele>388</ele>
        <time>2022-05-01T10:20:33.482Z</time>
      </trkpt>
      <trkpt lat="45.75513" lon="5.92847">
        <ele>388</ele>
        <time>2022-05-01T10:20:34.482Z</time>
      </trkpt>
      <trkpt lat="45.75513" lon="5.92844">
        <ele>389</ele>
        <time>2022-05-01T10:20:35.482Z</time>
      </trkpt>
      <trkpt lat="45.75513" lon="5.92842">
        <ele>389</ele>
        <time>2022-05-01T10:20:36.481Z</time>
      </trkpt>
      <trkpt lat="45.75513" lon="5.92841">
        <ele>389</ele>
        <time>2022-05-01T10:20:37.482Z</time>
      </trkpt>
      <trkpt lat="45.75514" lon="5.92839">
        <ele>389</ele>
        <time>2022-05-01T10:20:38.482Z</time>
      </trkpt>
      <trkpt lat="45.75515" lon="5.92838">
        <ele>389</ele>
        <time>2022-05-01T10:20:39.482Z</time>
      </trkpt>
      <trkpt lat="45.75516" lon="5.92837">
        <ele>389</ele>
        <time>2022-05-01T10:20:40.482Z</time>
      </trkpt>
      <trkpt lat="45.75517" lon="5.92835">
        <ele>389</ele>
        <time>2022-05-01T10:20:41.482Z</time>
      </trkpt>
      <trkpt lat="45.75519" lon="5.92833">
        <ele>390</ele>
        <time>2022-05-01T10:20:42.481Z</time>
      </trkpt>
      <trkpt lat="45.7552" lon="5.92831">
        <ele>390</ele>
        <time>2022-05-01T10:20:43.481Z</time>
      </trkpt>
      <trkpt lat="45.75521" lon="5.92828">
        <ele>390</ele>
        <time>2022-05-01T10:20:44.481Z</time>
      </trkpt>
      <trkpt lat="45.75523" lon="5.92826">
        <ele>390</ele>
        <time>2022-05-01T10:20:45.481Z</time>
      </trkpt>
      <trkpt lat="45.75524" lon="5.92824">
        <ele>390</ele>
        <time>2022-05-01T10:20:46.482Z</time>
      </trkpt>
      <trkpt lat="45.75526" lon="5.92822">
        <ele>391</ele>
        <time>2022-05-01T10:20:47.481Z</time>
      </trkpt>
      <trkpt lat="45.75527" lon="5.92819">
        <ele>391</ele>
        <time>2022-05-01T10:20:48.481Z</time>
      </trkpt>
      <trkpt lat="45.75528" lon="5.92818">
        <ele>391</ele>
        <time>2022-05-01T10:20:49.481Z</time>
      </trkpt>
      <trkpt lat="45.75529" lon="5.92816">
        <ele>391</ele>
        <time>2022-05-01T10:20:50.482Z</time>
      </trkpt>
      <trkpt lat="45.75529" lon="5.92815">
        <ele>391</ele>
        <time>2022-05-01T10:20:51.482Z</time>
      </trkpt>
      <trkpt lat="45.75529" lon="5.92813">
        <ele>392</ele>
        <time>2022-05-01T10:20:52.482Z</time>
      </trkpt>
      <trkpt lat="45.7553" lon="5.92811">
        <ele>392</ele>
        <time>2022-05-01T10:20:53.482Z</time>
      </trkpt>
      <trkpt lat="45.7553" lon="5.9281">
        <ele>392</ele>
        <time>2022-05-01T10:20:54.482Z</time>
      </trkpt>
      <trkpt lat="45.7553" lon="5.92808">
        <ele>393</ele>
        <time>2022-05-01T10:20:55.482Z</time>
      </trkpt>
      <trkpt lat="45.75531" lon="5.92807">
        <ele>393</ele>
        <time>2022-05-01T10:20:56.482Z</time>
      </trkpt>
      <trkpt lat="45.75532" lon="5.92806">
        <ele>393</ele>
        <time>2022-05-01T10:20:57.482Z</time>
      </trkpt>
      <trkpt lat="45.75533" lon="5.92805">
        <ele>393</ele>
        <time>2022-05-01T10:20:58.482Z</time>
      </trkpt>
      <trkpt lat="45.75535" lon="5.92804">
        <ele>394</ele>
        <time>2022-05-01T10:20:59.481Z</time>
      </trkpt>
      <trkpt lat="45.75536" lon="5.92803">
        <ele>394</ele>
        <time>2022-05-01T10:21:00.482Z</time>
      </trkpt>
      <trkpt lat="45.75538" lon="5.92801">
        <ele>394</ele>
        <time>2022-05-01T10:21:01.482Z</time>
      </trkpt>
      <trkpt lat="45.75539" lon="5.928">
        <ele>394</ele>
        <time>2022-05-01T10:21:02.482Z</time>
      </trkpt>
      <trkpt lat="45.75541" lon="5.92799">
        <ele>394</ele>
        <time>2022-05-01T10:21:03.481Z</time>
      </trkpt>
      <trkpt lat="45.75542" lon="5.92797">
        <ele>395</ele>
        <time>2022-05-01T10:21:04.482Z</time>
      </trkpt>
      <trkpt lat="45.75544" lon="5.92796">
        <ele>395</ele>
        <time>2022-05-01T10:21:05.482Z</time>
      </trkpt>
      <trkpt lat="45.75546" lon="5.92796">
        <ele>395</ele>
        <time>2022-05-01T10:21:06.482Z</time>
      </trkpt>
      <trkpt lat="45.75548" lon="5.92795">
        <ele>395</ele>
        <time>2022-05-01T10:21:07.481Z</time>
      </trkpt>
      <trkpt lat="45.75549" lon="5.92795">
        <ele>395</ele>
        <time>2022-05-01T10:21:08.481Z</time>
      </trkpt>
      <trkpt lat="45.75551" lon="5.92795">
        <ele>395</ele>
        <time>2022-05-01T10:21:09.481Z</time>
      </trkpt>
      <trkpt lat="45.75553" lon="5.92796">
        <ele>395</ele>
        <time>2022-05-01T10:21:10.482Z</time>
      </trkpt>
      <trkpt lat="45.75554" lon="5.92797">
        <ele>395</ele>
        <time>2022-05-01T10:21:11.482Z</time>
      </trkpt>
      <trkpt lat="45.75555" lon="5.92799">
        <ele>395</ele>
        <time>2022-05-01T10:21:12.481Z</time>
      </trkpt>
      <trkpt lat="45.75557" lon="5.928">
        <ele>395</ele>
        <time>2022-05-01T10:21:13.482Z</time>
      </trkpt>
      <trkpt lat="45.75559" lon="5.92802">
        <ele>395</ele>
        <time>2022-05-01T10:21:14.482Z</time>
      </trkpt>
      <trkpt lat="45.7556" lon="5.92804">
        <ele>395</ele>
        <time>2022-05-01T10:21:15.482Z</time>
      </trkpt>
      <trkpt lat="45.75562" lon="5.92805">
        <ele>395</ele>
        <time>2022-05-01T10:21:16.482Z</time>
      </trkpt>
      <trkpt lat="45.75564" lon="5.92806">
        <ele>395</ele>
        <time>2022-05-01T10:21:17.481Z</time>
      </trkpt>
      <trkpt lat="45.75566" lon="5.92808">
        <ele>395</ele>
        <time>2022-05-01T10:21:18.482Z</time>
      </trkpt>
      <trkpt lat="45.75567" lon="5.92809">
        <ele>395</ele>
        <time>2022-05-01T10:21:19.482Z</time>
      </trkpt>
      <trkpt lat="45.75568" lon="5.92811">
        <ele>395</ele>
        <time>2022-05-01T10:21:20.482Z</time>
      </trkpt>
      <trkpt lat="45.7557" lon="5.92812">
        <ele>395</ele>
        <time>2022-05-01T10:21:21.482Z</time>
      </trkpt>
      <trkpt lat="45.75572" lon="5.92814">
        <ele>395</ele>
        <time>2022-05-01T10:21:22.482Z</time>
      </trkpt>
      <trkpt lat="45.75573" lon="5.92816">
        <ele>396</ele>
        <time>2022-05-01T10:21:23.482Z</time>
      </trkpt>
      <trkpt lat="45.75573" lon="5.92818">
        <ele>396</ele>
        <time>2022-05-01T10:21:24.482Z</time>
      </trkpt>
      <trkpt lat="45.75573" lon="5.9282">
        <ele>396</ele>
        <time>2022-05-01T10:21:25.482Z</time>
      </trkpt>
      <trkpt lat="45.75572" lon="5.92822">
        <ele>397</ele>
        <time>2022-05-01T10:21:26.482Z</time>
      </trkpt>
      <trkpt lat="45.7557" lon="5.92823">
        <ele>397</ele>
        <time>2022-05-01T10:21:27.482Z</time>
      </trkpt>
      <trkpt lat="45.75569" lon="5.92825">
        <ele>397</ele>
        <time>2022-05-01T10:21:28.482Z</time>
      </trkpt>
      <trkpt lat="45.75568" lon="5.92827">
        <ele>398</ele>
        <time>2022-05-01T10:21:29.482Z</time>
      </trkpt>
      <trkpt lat="45.75567" lon="5.92829">
        <ele>398</ele>
        <time>2022-05-01T10:21:30.482Z</time>
      </trkpt>
      <trkpt lat="45.75565" lon="5.92832">
        <ele>399</ele>
        <time>2022-05-01T10:21:31.481Z</time>
      </trkpt>
      <trkpt lat="45.75564" lon="5.92835">
        <ele>400</ele>
        <time>2022-05-01T10:21:32.482Z</time>
      </trkpt>
      <trkpt lat="45.75563" lon="5.92837">
        <ele>401</ele>
        <time>2022-05-01T10:21:33.481Z</time>
      </trkpt>
      <trkpt lat="45.75561" lon="5.9284">
        <ele>402</ele>
        <time>2022-05-01T10:21:34.482Z</time>
      </trkpt>
      <trkpt lat="45.7556" lon="5.92842">
        <ele>403</ele>
        <time>2022-05-01T10:21:35.482Z</time>
      </trkpt>
      <trkpt lat="45.75559" lon="5.92843">
        <ele>403</ele>
        <time>2022-05-01T10:21:36.482Z</time>
      </trkpt>
      <trkpt lat="45.75569" lon="5.92821">
        <ele>421</ele>
        <time>2022-05-01T10:28:48.897Z</time>
      </trkpt>
      <trkpt lat="45.75571" lon="5.92823">
        <ele>421</ele>
        <time>2022-05-01T10:28:49.896Z</time>
      </trkpt>
      <trkpt lat="45.75573" lon="5.92824">
        <ele>420</ele>
        <time>2022-05-01T10:28:50.896Z</time>
      </trkpt>
      <trkpt lat="45.75576" lon="5.92826">
        <ele>420</ele>
        <time>2022-05-01T10:28:51.896Z</time>
      </trkpt>
      <trkpt lat="45.75578" lon="5.92827">
        <ele>420</ele>
        <time>2022-05-01T10:28:52.896Z</time>
      </trkpt>
      <trkpt lat="45.75581" lon="5.92828">
        <ele>420</ele>
        <time>2022-05-01T10:28:53.897Z</time>
      </trkpt>
      <trkpt lat="45.75584" lon="5.92829">
        <ele>419</ele>
        <time>2022-05-01T10:28:54.897Z</time>
      </trkpt>
      <trkpt lat="45.75586" lon="5.9283">
        <ele>418</ele>
        <time>2022-05-01T10:28:55.897Z</time>
      </trkpt>
      <trkpt lat="45.75588" lon="5.92831">
        <ele>417</ele>
        <time>2022-05-01T10:28:56.897Z</time>
      </trkpt>
      <trkpt lat="45.75589" lon="5.92832">
        <ele>416</ele>
        <time>2022-05-01T10:28:57.897Z</time>
      </trkpt>
      <trkpt lat="45.75591" lon="5.92833">
        <ele>414</ele>
        <time>2022-05-01T10:28:58.897Z</time>
      </trkpt>
      <trkpt lat="45.75592" lon="5.92833">
        <ele>413</ele>
        <time>2022-05-01T10:28:59.897Z</time>
      </trkpt>
      <trkpt lat="45.75593" lon="5.92834">
        <ele>412</ele>
        <time>2022-05-01T10:29:00.897Z</time>
      </trkpt>
      <trkpt lat="45.75595" lon="5.92833">
        <ele>410</ele>
        <time>2022-05-01T10:29:01.896Z</time>
      </trkpt>
      <trkpt lat="45.75596" lon="5.92832">
        <ele>409</ele>
        <time>2022-05-01T10:29:02.897Z</time>
      </trkpt>
      <trkpt lat="45.75597" lon="5.92831">
        <ele>408</ele>
        <time>2022-05-01T10:29:03.897Z</time>
      </trkpt>
      <trkpt lat="45.75599" lon="5.92831">
        <ele>407</ele>
        <time>2022-05-01T10:29:04.897Z</time>
      </trkpt>
      <trkpt lat="45.75601" lon="5.92831">
        <ele>406</ele>
        <time>2022-05-01T10:29:05.896Z</time>
      </trkpt>
      <trkpt lat="45.75603" lon="5.92831">
        <ele>405</ele>
        <time>2022-05-01T10:29:06.897Z</time>
      </trkpt>
      <trkpt lat="45.75606" lon="5.92832">
        <ele>405</ele>
        <time>2022-05-01T10:29:07.897Z</time>
      </trkpt>
      <trkpt lat="45.75609" lon="5.92832">
        <ele>404</ele>
        <time>2022-05-01T10:29:08.896Z</time>
      </trkpt>
      <trkpt lat="45.75612" lon="5.92832">
        <ele>404</ele>
        <time>2022-05-01T10:29:09.897Z</time>
      </trkpt>
      <trkpt lat="45.75614" lon="5.92833">
        <ele>403</ele>
        <time>2022-05-01T10:29:10.897Z</time>
      </trkpt>
      <trkpt lat="45.75616" lon="5.92833">
        <ele>403</ele>
        <time>2022-05-01T10:29:11.897Z</time>
      </trkpt>
      <trkpt lat="45.75618" lon="5.92833">
        <ele>403</ele>
        <time>2022-05-01T10:29:12.897Z</time>
      </trkpt>
      <trkpt lat="45.7562" lon="5.92833">
        <ele>402</ele>
        <time>2022-05-01T10:29:13.897Z</time>
      </trkpt>
      <trkpt lat="45.75622" lon="5.92834">
        <ele>402</ele>
        <time>2022-05-01T10:29:14.897Z</time>
      </trkpt>
      <trkpt lat="45.75624" lon="5.92835">
        <ele>402</ele>
        <time>2022-05-01T10:29:15.897Z</time>
      </trkpt>
      <trkpt lat="45.75625" lon="5.92836">
        <ele>402</ele>
        <time>2022-05-01T10:29:16.897Z</time>
      </trkpt>
      <trkpt lat="45.75628" lon="5.92837">
        <ele>402</ele>
        <time>2022-05-01T10:29:17.896Z</time>
      </trkpt>
      <trkpt lat="45.7563" lon="5.92837">
        <ele>401</ele>
        <time>2022-05-01T10:29:18.897Z</time>
      </trkpt>
      <trkpt lat="45.75632" lon="5.92837">
        <ele>401</ele>
        <time>2022-05-01T10:29:19.897Z</time>
      </trkpt>
      <trkpt lat="45.75634" lon="5.92837">
        <ele>400</ele>
        <time>2022-05-01T10:29:20.897Z</time>
      </trkpt>
      <trkpt lat="45.75636" lon="5.92838">
        <ele>400</ele>
        <time>2022-05-01T10:29:21.897Z</time>
      </trkpt>
      <trkpt lat="45.75637" lon="5.92839">
        <ele>400</ele>
        <time>2022-05-01T10:29:22.896Z</time>
      </trkpt>
      <trkpt lat="45.75639" lon="5.9284">
        <ele>400</ele>
        <time>2022-05-01T10:29:23.897Z</time>
      </trkpt>
      <trkpt lat="45.75641" lon="5.92841">
        <ele>400</ele>
        <time>2022-05-01T10:29:24.897Z</time>
      </trkpt>
      <trkpt lat="45.75643" lon="5.92842">
        <ele>400</ele>
        <time>2022-05-01T10:29:25.897Z</time>
      </trkpt>
      <trkpt lat="45.75645" lon="5.92844">
        <ele>400</ele>
        <time>2022-05-01T10:29:26.897Z</time>
      </trkpt>
      <trkpt lat="45.75647" lon="5.92846">
        <ele>400</ele>
        <time>2022-05-01T10:29:27.897Z</time>
      </trkpt>
      <trkpt lat="45.75649" lon="5.92846">
        <ele>400</ele>
        <time>2022-05-01T10:29:28.896Z</time>
      </trkpt>
      <trkpt lat="45.75651" lon="5.92847">
        <ele>400</ele>
        <time>2022-05-01T10:29:29.897Z</time>
      </trkpt>
      <trkpt lat="45.75654" lon="5.92849">
        <ele>401</ele>
        <time>2022-05-01T10:29:30.897Z</time>
      </trkpt>
      <trkpt lat="45.75656" lon="5.92851">
        <ele>401</ele>
        <time>2022-05-01T10:29:31.897Z</time>
      </trkpt>
      <trkpt lat="45.75658" lon="5.92852">
        <ele>401</ele>
        <time>2022-05-01T10:29:32.896Z</time>
      </trkpt>
      <trkpt lat="45.7566" lon="5.92854">
        <ele>401</ele>
        <time>2022-05-01T10:29:33.897Z</time>
      </trkpt>
      <trkpt lat="45.75661" lon="5.92855">
        <ele>402</ele>
        <time>2022-05-01T10:29:34.897Z</time>
      </trkpt>
      <trkpt lat="45.75663" lon="5.92855">
        <ele>402</ele>
        <time>2022-05-01T10:29:35.897Z</time>
      </trkpt>
      <trkpt lat="45.75664" lon="5.92856">
        <ele>402</ele>
        <time>2022-05-01T10:29:36.897Z</time>
      </trkpt>
      <trkpt lat="45.75665" lon="5.92857">
        <ele>402</ele>
        <time>2022-05-01T10:29:37.897Z</time>
      </trkpt>
      <trkpt lat="45.75667" lon="5.92858">
        <ele>401</ele>
        <time>2022-05-01T10:29:38.897Z</time>
      </trkpt>
      <trkpt lat="45.75668" lon="5.92858">
        <ele>402</ele>
        <time>2022-05-01T10:29:39.897Z</time>
      </trkpt>
      <trkpt lat="45.75668" lon="5.92859">
        <ele>402</ele>
        <time>2022-05-01T10:29:40.897Z</time>
      </trkpt>
      <trkpt lat="45.75669" lon="5.92859">
        <ele>402</ele>
        <time>2022-05-01T10:29:41.897Z</time>
      </trkpt>
      <trkpt lat="45.75669" lon="5.9286">
        <ele>402</ele>
        <time>2022-05-01T10:29:42.896Z</time>
      </trkpt>
      <trkpt lat="45.75669" lon="5.9286">
        <ele>402</ele>
        <time>2022-05-01T10:29:43.897Z</time>
      </trkpt>
      <trkpt lat="45.7567" lon="5.92861">
        <ele>402</ele>
        <time>2022-05-01T10:29:44.896Z</time>
      </trkpt>
      <trkpt lat="45.75672" lon="5.92862">
        <ele>402</ele>
        <time>2022-05-01T10:29:45.897Z</time>
      </trkpt>
      <trkpt lat="45.75673" lon="5.92864">
        <ele>402</ele>
        <time>2022-05-01T10:29:46.897Z</time>
      </trkpt>
      <trkpt lat="45.75674" lon="5.92864">
        <ele>402</ele>
        <time>2022-05-01T10:29:47.897Z</time>
      </trkpt>
      <trkpt lat="45.75675" lon="5.92865">
        <ele>402</ele>
        <time>2022-05-01T10:29:48.897Z</time>
      </trkpt>
      <trkpt lat="45.75675" lon="5.92866">
        <ele>402</ele>
        <time>2022-05-01T10:29:49.897Z</time>
      </trkpt>
      <trkpt lat="45.75676" lon="5.92866">
        <ele>403</ele>
        <time>2022-05-01T10:29:50.897Z</time>
      </trkpt>
      <trkpt lat="45.75676" lon="5.92866">
        <ele>403</ele>
        <time>2022-05-01T10:29:51.897Z</time>
      </trkpt>
      <trkpt lat="45.75676" lon="5.92866">
        <ele>403</ele>
        <time>2022-05-01T10:29:52.897Z</time>
      </trkpt>
      <trkpt lat="45.75677" lon="5.92866">
        <ele>404</ele>
        <time>2022-05-01T10:29:55.003Z</time>
      </trkpt>
      <trkpt lat="45.75677" lon="5.92866">
        <ele>404</ele>
        <time>2022-05-01T10:29:56.004Z</time>
      </trkpt>
      <trkpt lat="45.75677" lon="5.92867">
        <ele>404</ele>
        <time>2022-05-01T10:29:57.003Z</time>
      </trkpt>
      <trkpt lat="45.75677" lon="5.92867">
        <ele>404</ele>
        <time>2022-05-01T10:29:58.003Z</time>
      </trkpt>
      <trkpt lat="45.75676" lon="5.92866">
        <ele>404</ele>
        <time>2022-05-01T10:29:59.004Z</time>
      </trkpt>
      <trkpt lat="45.75675" lon="5.92866">
        <ele>405</ele>
        <time>2022-05-01T10:30:00.003Z</time>
      </trkpt>
      <trkpt lat="45.75674" lon="5.92866">
        <ele>404</ele>
        <time>2022-05-01T10:30:01.003Z</time>
      </trkpt>
      <trkpt lat="45.75674" lon="5.92866">
        <ele>404</ele>
        <time>2022-05-01T10:30:02.004Z</time>
      </trkpt>
      <trkpt lat="45.75673" lon="5.92866">
        <ele>404</ele>
        <time>2022-05-01T10:30:03.004Z</time>
      </trkpt>
      <trkpt lat="45.75672" lon="5.92865">
        <ele>404</ele>
        <time>2022-05-01T10:30:04.003Z</time>
      </trkpt>
      <trkpt lat="45.75671" lon="5.92865">
        <ele>404</ele>
        <time>2022-05-01T10:30:05.004Z</time>
      </trkpt>
      <trkpt lat="45.75671" lon="5.92864">
        <ele>404</ele>
        <time>2022-05-01T10:30:06.004Z</time>
      </trkpt>
      <trkpt lat="45.7567" lon="5.92863">
        <ele>404</ele>
        <time>2022-05-01T10:30:07.004Z</time>
      </trkpt>
      <trkpt lat="45.75669" lon="5.92862">
        <ele>405</ele>
        <time>2022-05-01T10:30:08.004Z</time>
      </trkpt>
      <trkpt lat="45.75668" lon="5.92861">
        <ele>405</ele>
        <time>2022-05-01T10:30:09.004Z</time>
      </trkpt>
      <trkpt lat="45.75667" lon="5.9286">
        <ele>405</ele>
        <time>2022-05-01T10:30:10.004Z</time>
      </trkpt>
      <trkpt lat="45.75666" lon="5.92858">
        <ele>405</ele>
        <time>2022-05-01T10:30:11.004Z</time>
      </trkpt>
      <trkpt lat="45.75666" lon="5.92856">
        <ele>405</ele>
        <time>2022-05-01T10:30:12.004Z</time>
      </trkpt>
      <trkpt lat="45.75666" lon="5.92855">
        <ele>405</ele>
        <time>2022-05-01T10:30:13.003Z</time>
      </trkpt>
      <trkpt lat="45.75666" lon="5.92853">
        <ele>405</ele>
        <time>2022-05-01T10:30:14.004Z</time>
      </trkpt>
      <trkpt lat="45.75667" lon="5.92851">
        <ele>404</ele>
        <time>2022-05-01T10:30:15.004Z</time>
      </trkpt>
      <trkpt lat="45.75667" lon="5.92849">
        <ele>404</ele>
        <time>2022-05-01T10:30:16.004Z</time>
      </trkpt>
      <trkpt lat="45.75667" lon="5.92848">
        <ele>404</ele>
        <time>2022-05-01T10:30:17.003Z</time>
      </trkpt>
      <trkpt lat="45.75668" lon="5.92847">
        <ele>404</ele>
        <time>2022-05-01T10:30:18.004Z</time>
      </trkpt>
      <trkpt lat="45.75668" lon="5.92846">
        <ele>404</ele>
        <time>2022-05-01T10:30:19.004Z</time>
      </trkpt>
      <trkpt lat="45.75668" lon="5.92846">
        <ele>404</ele>
        <time>2022-05-01T10:30:20.004Z</time>
      </trkpt>
      <trkpt lat="45.75669" lon="5.92846">
        <ele>404</ele>
        <time>2022-05-01T10:30:21.004Z</time>
      </trkpt>
      <trkpt lat="45.7567" lon="5.92847">
        <ele>404</ele>
        <time>2022-05-01T10:30:22.004Z</time>
      </trkpt>
      <trkpt lat="45.7567" lon="5.92847">
        <ele>404</ele>
        <time>2022-05-01T10:30:23.003Z</time>
      </trkpt>
      <trkpt lat="45.7567" lon="5.92848">
        <ele>404</ele>
        <time>2022-05-01T10:30:24.003Z</time>
      </trkpt>
      <trkpt lat="45.7567" lon="5.92848">
        <ele>404</ele>
        <time>2022-05-01T10:30:25.003Z</time>
      </trkpt>
      <trkpt lat="45.75673" lon="5.92843">
        <ele>398</ele>
        <time>2022-05-01T10:30:49.159Z</time>
      </trkpt>
      <trkpt lat="45.75675" lon="5.92839">
        <ele>398</ele>
        <time>2022-05-01T10:30:50.159Z</time>
      </trkpt>
      <trkpt lat="45.75677" lon="5.92835">
        <ele>398</ele>
        <time>2022-05-01T10:30:51.158Z</time>
      </trkpt>
      <trkpt lat="45.75678" lon="5.92831">
        <ele>399</ele>
        <time>2022-05-01T10:30:52.159Z</time>
      </trkpt>
      <trkpt lat="45.75679" lon="5.92827">
        <ele>399</ele>
        <time>2022-05-01T10:30:53.159Z</time>
      </trkpt>
      <trkpt lat="45.75681" lon="5.92823">
        <ele>399</ele>
        <time>2022-05-01T10:30:54.159Z</time>
      </trkpt>
      <trkpt lat="45.75683" lon="5.92819">
        <ele>399</ele>
        <time>2022-05-01T10:30:55.159Z</time>
      </trkpt>
      <trkpt lat="45.75685" lon="5.92814">
        <ele>400</ele>
        <time>2022-05-01T10:30:56.159Z</time>
      </trkpt>
      <trkpt lat="45.75686" lon="5.92811">
        <ele>400</ele>
        <time>2022-05-01T10:30:57.158Z</time>
      </trkpt>
      <trkpt lat="45.75687" lon="5.92807">
        <ele>401</ele>
        <time>2022-05-01T10:30:58.159Z</time>
      </trkpt>
      <trkpt lat="45.75688" lon="5.92803">
        <ele>401</ele>
        <time>2022-05-01T10:30:59.158Z</time>
      </trkpt>
      <trkpt lat="45.75689" lon="5.92799">
        <ele>402</ele>
        <time>2022-05-01T10:31:00.159Z</time>
      </trkpt>
      <trkpt lat="45.75691" lon="5.92795">
        <ele>402</ele>
        <time>2022-05-01T10:31:01.158Z</time>
      </trkpt>
      <trkpt lat="45.75692" lon="5.92791">
        <ele>403</ele>
        <time>2022-05-01T10:31:02.159Z</time>
      </trkpt>
      <trkpt lat="45.75693" lon="5.92787">
        <ele>403</ele>
        <time>2022-05-01T10:31:03.159Z</time>
      </trkpt>
      <trkpt lat="45.75694" lon="5.92783">
        <ele>404</ele>
        <time>2022-05-01T10:31:04.158Z</time>
      </trkpt>
      <trkpt lat="45.75695" lon="5.92779">
        <ele>404</ele>
        <time>2022-05-01T10:31:05.159Z</time>
      </trkpt>
      <trkpt lat="45.75696" lon="5.92775">
        <ele>404</ele>
        <time>2022-05-01T10:31:06.158Z</time>
      </trkpt>
      <trkpt lat="45.75697" lon="5.92771">
        <ele>404</ele>
        <time>2022-05-01T10:31:07.159Z</time>
      </trkpt>
      <trkpt lat="45.75698" lon="5.92767">
        <ele>403</ele>
        <time>2022-05-01T10:31:08.159Z</time>
      </trkpt>
      <trkpt lat="45.75699" lon="5.92763">
        <ele>403</ele>
        <time>2022-05-01T10:31:09.159Z</time>
      </trkpt>
      <trkpt lat="45.757" lon="5.92759">
        <ele>403</ele>
        <time>2022-05-01T10:31:10.159Z</time>
      </trkpt>
      <trkpt lat="45.757" lon="5.92756">
        <ele>404</ele>
        <time>2022-05-01T10:31:11.159Z</time>
      </trkpt>
      <trkpt lat="45.75701" lon="5.92752">
        <ele>405</ele>
        <time>2022-05-01T10:31:12.158Z</time>
      </trkpt>
      <trkpt lat="45.75701" lon="5.92748">
        <ele>405</ele>
        <time>2022-05-01T10:31:13.159Z</time>
      </trkpt>
      <trkpt lat="45.75701" lon="5.92744">
        <ele>406</ele>
        <time>2022-05-01T10:31:14.159Z</time>
      </trkpt>
      <trkpt lat="45.75702" lon="5.92741">
        <ele>406</ele>
        <time>2022-05-01T10:31:15.159Z</time>
      </trkpt>
      <trkpt lat="45.75703" lon="5.92737">
        <ele>407</ele>
        <time>2022-05-01T10:31:16.159Z</time>
      </trkpt>
      <trkpt lat="45.75705" lon="5.92733">
        <ele>407</ele>
        <time>2022-05-01T10:31:17.159Z</time>
      </trkpt>
      <trkpt lat="45.75706" lon="5.9273">
        <ele>408</ele>
        <time>2022-05-01T10:31:18.158Z</time>
      </trkpt>
      <trkpt lat="45.75707" lon="5.92726">
        <ele>408</ele>
        <time>2022-05-01T10:31:19.159Z</time>
      </trkpt>
      <trkpt lat="45.75707" lon="5.92722">
        <ele>408</ele>
        <time>2022-05-01T10:31:20.159Z</time>
      </trkpt>
      <trkpt lat="45.75708" lon="5.92718">
        <ele>408</ele>
        <time>2022-05-01T10:31:21.158Z</time>
      </trkpt>
      <trkpt lat="45.7571" lon="5.92715">
        <ele>409</ele>
        <time>2022-05-01T10:31:22.159Z</time>
      </trkpt>
      <trkpt lat="45.75712" lon="5.92711">
        <ele>409</ele>
        <time>2022-05-01T10:31:23.159Z</time>
      </trkpt>
      <trkpt lat="45.75713" lon="5.92708">
        <ele>409</ele>
        <time>2022-05-01T10:31:24.159Z</time>
      </trkpt>
      <trkpt lat="45.75714" lon="5.92705">
        <ele>409</ele>
        <time>2022-05-01T10:31:25.159Z</time>
      </trkpt>
      <trkpt lat="45.75715" lon="5.92703">
        <ele>410</ele>
        <time>2022-05-01T10:31:26.159Z</time>
      </trkpt>
      <trkpt lat="45.75716" lon="5.92699">
        <ele>410</ele>
        <time>2022-05-01T10:31:27.159Z</time>
      </trkpt>
      <trkpt lat="45.75717" lon="5.92695">
        <ele>410</ele>
        <time>2022-05-01T10:31:28.159Z</time>
      </trkpt>
      <trkpt lat="45.75718" lon="5.92692">
        <ele>410</ele>
        <time>2022-05-01T10:31:29.159Z</time>
      </trkpt>
      <trkpt lat="45.75719" lon="5.92689">
        <ele>411</ele>
        <time>2022-05-01T10:31:30.158Z</time>
      </trkpt>
      <trkpt lat="45.7572" lon="5.92687">
        <ele>411</ele>
        <time>2022-05-01T10:31:31.158Z</time>
      </trkpt>
      <trkpt lat="45.75721" lon="5.92683">
        <ele>412</ele>
        <time>2022-05-01T10:31:32.159Z</time>
      </trkpt>
      <trkpt lat="45.75722" lon="5.92681">
        <ele>412</ele>
        <time>2022-05-01T10:31:33.159Z</time>
      </trkpt>
      <trkpt lat="45.75723" lon="5.92678">
        <ele>413</ele>
        <time>2022-05-01T10:31:34.159Z</time>
      </trkpt>
      <trkpt lat="45.75723" lon="5.92675">
        <ele>413</ele>
        <time>2022-05-01T10:31:35.159Z</time>
      </trkpt>
      <trkpt lat="45.75724" lon="5.92673">
        <ele>414</ele>
        <time>2022-05-01T10:31:36.159Z</time>
      </trkpt>
      <trkpt lat="45.75724" lon="5.92669">
        <ele>415</ele>
        <time>2022-05-01T10:31:37.159Z</time>
      </trkpt>
      <trkpt lat="45.75725" lon="5.92666">
        <ele>415</ele>
        <time>2022-05-01T10:31:38.159Z</time>
      </trkpt>
      <trkpt lat="45.75725" lon="5.92663">
        <ele>416</ele>
        <time>2022-05-01T10:31:39.159Z</time>
      </trkpt>
      <trkpt lat="45.75725" lon="5.92661">
        <ele>416</ele>
        <time>2022-05-01T10:31:40.158Z</time>
      </trkpt>
      <trkpt lat="45.75724" lon="5.92658">
        <ele>417</ele>
        <time>2022-05-01T10:31:41.159Z</time>
      </trkpt>
      <trkpt lat="45.75724" lon="5.92654">
        <ele>418</ele>
        <time>2022-05-01T10:31:42.159Z</time>
      </trkpt>
      <trkpt lat="45.75725" lon="5.92651">
        <ele>419</ele>
        <time>2022-05-01T10:31:43.159Z</time>
      </trkpt>
      <trkpt lat="45.75725" lon="5.92648">
        <ele>419</ele>
        <time>2022-05-01T10:31:44.159Z</time>
      </trkpt>
      <trkpt lat="45.75725" lon="5.92646">
        <ele>420</ele>
        <time>2022-05-01T10:31:45.159Z</time>
      </trkpt>
      <trkpt lat="45.75726" lon="5.92642">
        <ele>420</ele>
        <time>2022-05-01T10:31:46.158Z</time>
      </trkpt>
      <trkpt lat="45.75726" lon="5.92639">
        <ele>420</ele>
        <time>2022-05-01T10:31:47.159Z</time>
      </trkpt>
      <trkpt lat="45.75726" lon="5.92636">
        <ele>421</ele>
        <time>2022-05-01T10:31:48.159Z</time>
      </trkpt>
      <trkpt lat="45.75726" lon="5.92633">
        <ele>421</ele>
        <time>2022-05-01T10:31:49.159Z</time>
      </trkpt>
      <trkpt lat="45.75727" lon="5.9263">
        <ele>421</ele>
        <time>2022-05-01T10:31:50.159Z</time>
      </trkpt>
      <trkpt lat="45.75727" lon="5.92628">
        <ele>421</ele>
        <time>2022-05-01T10:31:51.159Z</time>
      </trkpt>
      <trkpt lat="45.75727" lon="5.92626">
        <ele>421</ele>
        <time>2022-05-01T10:31:52.159Z</time>
      </trkpt>
      <trkpt lat="45.75726" lon="5.92624">
        <ele>421</ele>
        <time>2022-05-01T10:31:53.159Z</time>
      </trkpt>
      <trkpt lat="45.75724" lon="5.92622">
        <ele>421</ele>
        <time>2022-05-01T10:31:54.159Z</time>
      </trkpt>
      <trkpt lat="45.75723" lon="5.92621">
        <ele>421</ele>
        <time>2022-05-01T10:31:55.159Z</time>
      </trkpt>
      <trkpt lat="45.75722" lon="5.92619">
        <ele>421</ele>
        <time>2022-05-01T10:31:56.159Z</time>
      </trkpt>
      <trkpt lat="45.7572" lon="5.92617">
        <ele>421</ele>
        <time>2022-05-01T10:31:57.159Z</time>
      </trkpt>
      <trkpt lat="45.75719" lon="5.92616">
        <ele>421</ele>
        <time>2022-05-01T10:31:58.159Z</time>
      </trkpt>
      <trkpt lat="45.75717" lon="5.92615">
        <ele>421</ele>
        <time>2022-05-01T10:31:59.158Z</time>
      </trkpt>
      <trkpt lat="45.75716" lon="5.92615">
        <ele>421</ele>
        <time>2022-05-01T10:32:00.159Z</time>
      </trkpt>
      <trkpt lat="45.75716" lon="5.92614">
        <ele>421</ele>
        <time>2022-05-01T10:32:01.159Z</time>
      </trkpt>
      <trkpt lat="45.75716" lon="5.92614">
        <ele>421</ele>
        <time>2022-05-01T10:32:02.159Z</time>
      </trkpt>
      <trkpt lat="45.75714" lon="5.9261">
        <ele>425</ele>
        <time>2022-05-01T10:33:26.276Z</time>
      </trkpt>
      <trkpt lat="45.75713" lon="5.92606">
        <ele>425</ele>
        <time>2022-05-01T10:33:27.275Z</time>
      </trkpt>
      <trkpt lat="45.75712" lon="5.92603">
        <ele>425</ele>
        <time>2022-05-01T10:33:28.275Z</time>
      </trkpt>
      <trkpt lat="45.7571" lon="5.92601">
        <ele>425</ele>
        <time>2022-05-01T10:33:29.275Z</time>
      </trkpt>
      <trkpt lat="45.75708" lon="5.92597">
        <ele>424</ele>
        <time>2022-05-01T10:33:30.275Z</time>
      </trkpt>
      <trkpt lat="45.75707" lon="5.92595">
        <ele>424</ele>
        <time>2022-05-01T10:33:31.275Z</time>
      </trkpt>
      <trkpt lat="45.75704" lon="5.92591">
        <ele>423</ele>
        <time>2022-05-01T10:33:32.276Z</time>
      </trkpt>
      <trkpt lat="45.75702" lon="5.92587">
        <ele>423</ele>
        <time>2022-05-01T10:33:33.276Z</time>
      </trkpt>
      <trkpt lat="45.75699" lon="5.92584">
        <ele>423</ele>
        <time>2022-05-01T10:33:34.276Z</time>
      </trkpt>
      <trkpt lat="45.75696" lon="5.92581">
        <ele>422</ele>
        <time>2022-05-01T10:33:35.275Z</time>
      </trkpt>
      <trkpt lat="45.75694" lon="5.92578">
        <ele>422</ele>
        <time>2022-05-01T10:33:36.276Z</time>
      </trkpt>
      <trkpt lat="45.75691" lon="5.92575">
        <ele>422</ele>
        <time>2022-05-01T10:33:37.276Z</time>
      </trkpt>
      <trkpt lat="45.75688" lon="5.92573">
        <ele>422</ele>
        <time>2022-05-01T10:33:38.275Z</time>
      </trkpt>
      <trkpt lat="45.75685" lon="5.9257">
        <ele>422</ele>
        <time>2022-05-01T10:33:39.276Z</time>
      </trkpt>
      <trkpt lat="45.75682" lon="5.92567">
        <ele>422</ele>
        <time>2022-05-01T10:33:40.276Z</time>
      </trkpt>
      <trkpt lat="45.75679" lon="5.92564">
        <ele>421</ele>
        <time>2022-05-01T10:33:41.275Z</time>
      </trkpt>
      <trkpt lat="45.75676" lon="5.92561">
        <ele>421</ele>
        <time>2022-05-01T10:33:42.275Z</time>
      </trkpt>
      <trkpt lat="45.75673" lon="5.92558">
        <ele>420</ele>
        <time>2022-05-01T10:33:43.276Z</time>
      </trkpt>
      <trkpt lat="45.7567" lon="5.92554">
        <ele>420</ele>
        <time>2022-05-01T10:33:44.276Z</time>
      </trkpt>
      <trkpt lat="45.75667" lon="5.92549">
        <ele>420</ele>
        <time>2022-05-01T10:33:45.276Z</time>
      </trkpt>
      <trkpt lat="45.75664" lon="5.92545">
        <ele>419</ele>
        <time>2022-05-01T10:33:46.276Z</time>
      </trkpt>
      <trkpt lat="45.75661" lon="5.9254">
        <ele>419</ele>
        <time>2022-05-01T10:33:47.275Z</time>
      </trkpt>
      <trkpt lat="45.75658" lon="5.92535">
        <ele>419</ele>
        <time>2022-05-01T10:33:48.276Z</time>
      </trkpt>
      <trkpt lat="45.75655" lon="5.9253">
        <ele>420</ele>
        <time>2022-05-01T10:33:49.275Z</time>
      </trkpt>
      <trkpt lat="45.75652" lon="5.92525">
        <ele>420</ele>
        <time>2022-05-01T10:33:50.276Z</time>
      </trkpt>
      <trkpt lat="45.75649" lon="5.9252">
        <ele>420</ele>
        <time>2022-05-01T10:33:51.276Z</time>
      </trkpt>
      <trkpt lat="45.75646" lon="5.92514">
        <ele>420</ele>
        <time>2022-05-01T10:33:52.276Z</time>
      </trkpt>
      <trkpt lat="45.75643" lon="5.92509">
        <ele>420</ele>
        <time>2022-05-01T10:33:53.276Z</time>
      </trkpt>
      <trkpt lat="45.75639" lon="5.92504">
        <ele>420</ele>
        <time>2022-05-01T10:33:54.276Z</time>
      </trkpt>
      <trkpt lat="45.75635" lon="5.92498">
        <ele>419</ele>
        <time>2022-05-01T10:33:55.276Z</time>
      </trkpt>
      <trkpt lat="45.75631" lon="5.92492">
        <ele>419</ele>
        <time>2022-05-01T10:33:56.275Z</time>
      </trkpt>
      <trkpt lat="45.75628" lon="5.92486">
        <ele>419</ele>
        <time>2022-05-01T10:33:57.276Z</time>
      </trkpt>
      <trkpt lat="45.75624" lon="5.9248">
        <ele>418</ele>
        <time>2022-05-01T10:33:58.276Z</time>
      </trkpt>
      <trkpt lat="45.75621" lon="5.92474">
        <ele>418</ele>
        <time>2022-05-01T10:33:59.276Z</time>
      </trkpt>
      <trkpt lat="45.75617" lon="5.92468">
        <ele>417</ele>
        <time>2022-05-01T10:34:00.276Z</time>
      </trkpt>
      <trkpt lat="45.75614" lon="5.92462">
        <ele>417</ele>
        <time>2022-05-01T10:34:01.276Z</time>
      </trkpt>
      <trkpt lat="45.7561" lon="5.92457">
        <ele>417</ele>
        <time>2022-05-01T10:34:02.276Z</time>
      </trkpt>
      <trkpt lat="45.75606" lon="5.92451">
        <ele>416</ele>
        <time>2022-05-01T10:34:03.276Z</time>
      </trkpt>
      <trkpt lat="45.75602" lon="5.92445">
        <ele>415</ele>
        <time>2022-05-01T10:34:04.276Z</time>
      </trkpt>
      <trkpt lat="45.75598" lon="5.92439">
        <ele>415</ele>
        <time>2022-05-01T10:34:05.275Z</time>
      </trkpt>
      <trkpt lat="45.75594" lon="5.92434">
        <ele>414</ele>
        <time>2022-05-01T10:34:06.276Z</time>
      </trkpt>
      <trkpt lat="45.7559" lon="5.92428">
        <ele>413</ele>
        <time>2022-05-01T10:34:07.275Z</time>
      </trkpt>
      <trkpt lat="45.75585" lon="5.92422">
        <ele>412</ele>
        <time>2022-05-01T10:34:08.275Z</time>
      </trkpt>
      <trkpt lat="45.75582" lon="5.92417">
        <ele>412</ele>
        <time>2022-05-01T10:34:09.276Z</time>
      </trkpt>
      <trkpt lat="45.75579" lon="5.9241">
        <ele>411</ele>
        <time>2022-05-01T10:34:10.276Z</time>
      </trkpt>
      <trkpt lat="45.75575" lon="5.92405">
        <ele>411</ele>
        <time>2022-05-01T10:34:11.276Z</time>
      </trkpt>
      <trkpt lat="45.7557" lon="5.92398">
        <ele>410</ele>
        <time>2022-05-01T10:34:12.276Z</time>
      </trkpt>
      <trkpt lat="45.75566" lon="5.92393">
        <ele>409</ele>
        <time>2022-05-01T10:34:13.276Z</time>
      </trkpt>
      <trkpt lat="45.75562" lon="5.92387">
        <ele>408</ele>
        <time>2022-05-01T10:34:14.275Z</time>
      </trkpt>
      <trkpt lat="45.75557" lon="5.9238">
        <ele>408</ele>
        <time>2022-05-01T10:34:15.275Z</time>
      </trkpt>
      <trkpt lat="45.75553" lon="5.92372">
        <ele>407</ele>
        <time>2022-05-01T10:34:16.275Z</time>
      </trkpt>
      <trkpt lat="45.75548" lon="5.92365">
        <ele>406</ele>
        <time>2022-05-01T10:34:17.276Z</time>
      </trkpt>
      <trkpt lat="45.75545" lon="5.92358">
        <ele>405</ele>
        <time>2022-05-01T10:34:18.276Z</time>
      </trkpt>
      <trkpt lat="45.75541" lon="5.92351">
        <ele>405</ele>
        <time>2022-05-01T10:34:19.276Z</time>
      </trkpt>
      <trkpt lat="45.75537" lon="5.92342">
        <ele>404</ele>
        <time>2022-05-01T10:34:20.276Z</time>
      </trkpt>
      <trkpt lat="45.75534" lon="5.92336">
        <ele>403</ele>
        <time>2022-05-01T10:34:21.276Z</time>
      </trkpt>
      <trkpt lat="45.75531" lon="5.92328">
        <ele>403</ele>
        <time>2022-05-01T10:34:22.275Z</time>
      </trkpt>
      <trkpt lat="45.75527" lon="5.9232">
        <ele>403</ele>
        <time>2022-05-01T10:34:23.275Z</time>
      </trkpt>
      <trkpt lat="45.75525" lon="5.92312">
        <ele>403</ele>
        <time>2022-05-01T10:34:24.276Z</time>
      </trkpt>
      <trkpt lat="45.75522" lon="5.92304">
        <ele>403</ele>
        <time>2022-05-01T10:34:25.276Z</time>
      </trkpt>
      <trkpt lat="45.75521" lon="5.92295">
        <ele>403</ele>
        <time>2022-05-01T10:34:26.275Z</time>
      </trkpt>
      <trkpt lat="45.7552" lon="5.92288">
        <ele>403</ele>
        <time>2022-05-01T10:34:27.276Z</time>
      </trkpt>
      <trkpt lat="45.75518" lon="5.92279">
        <ele>403</ele>
        <time>2022-05-01T10:34:28.276Z</time>
      </trkpt>
      <trkpt lat="45.75517" lon="5.92271">
        <ele>403</ele>
        <time>2022-05-01T10:34:29.276Z</time>
      </trkpt>
      <trkpt lat="45.75516" lon="5.92262">
        <ele>403</ele>
        <time>2022-05-01T10:34:30.276Z</time>
      </trkpt>
      <trkpt lat="45.75516" lon="5.92256">
        <ele>403</ele>
        <time>2022-05-01T10:34:31.275Z</time>
      </trkpt>
      <trkpt lat="45.75517" lon="5.9225">
        <ele>403</ele>
        <time>2022-05-01T10:34:32.276Z</time>
      </trkpt>
      <trkpt lat="45.75517" lon="5.92246">
        <ele>403</ele>
        <time>2022-05-01T10:34:33.276Z</time>
      </trkpt>
      <trkpt lat="45.75517" lon="5.92242">
        <ele>403</ele>
        <time>2022-05-01T10:34:34.276Z</time>
      </trkpt>
      <trkpt lat="45.75517" lon="5.92238">
        <ele>402</ele>
        <time>2022-05-01T10:34:35.276Z</time>
      </trkpt>
      <trkpt lat="45.75518" lon="5.92236">
        <ele>402</ele>
        <time>2022-05-01T10:34:36.276Z</time>
      </trkpt>
      <trkpt lat="45.75518" lon="5.92234">
        <ele>402</ele>
        <time>2022-05-01T10:34:37.276Z</time>
      </trkpt>
      <trkpt lat="45.75519" lon="5.92233">
        <ele>402</ele>
        <time>2022-05-01T10:34:38.275Z</time>
      </trkpt>
      <trkpt lat="45.75519" lon="5.92232">
        <ele>402</ele>
        <time>2022-05-01T10:34:39.276Z</time>
      </trkpt>
      <trkpt lat="45.75519" lon="5.9223">
        <ele>402</ele>
        <time>2022-05-01T10:34:40.276Z</time>
      </trkpt>
      <trkpt lat="45.75518" lon="5.92228">
        <ele>402</ele>
        <time>2022-05-01T10:34:41.276Z</time>
      </trkpt>
      <trkpt lat="45.75518" lon="5.92225">
        <ele>403</ele>
        <time>2022-05-01T10:34:42.276Z</time>
      </trkpt>
      <trkpt lat="45.75518" lon="5.92221">
        <ele>403</ele>
        <time>2022-05-01T10:34:43.276Z</time>
      </trkpt>
      <trkpt lat="45.7552" lon="5.92218">
        <ele>403</ele>
        <time>2022-05-01T10:34:44.276Z</time>
      </trkpt>
      <trkpt lat="45.75521" lon="5.92215">
        <ele>404</ele>
        <time>2022-05-01T10:34:45.276Z</time>
      </trkpt>
      <trkpt lat="45.75522" lon="5.92213">
        <ele>404</ele>
        <time>2022-05-01T10:34:46.276Z</time>
      </trkpt>
      <trkpt lat="45.75522" lon="5.9221">
        <ele>404</ele>
        <time>2022-05-01T10:34:47.276Z</time>
      </trkpt>
      <trkpt lat="45.75523" lon="5.92207">
        <ele>404</ele>
        <time>2022-05-01T10:34:48.276Z</time>
      </trkpt>
      <trkpt lat="45.75524" lon="5.92204">
        <ele>405</ele>
        <time>2022-05-01T10:34:49.276Z</time>
      </trkpt>
      <trkpt lat="45.75525" lon="5.92201">
        <ele>405</ele>
        <time>2022-05-01T10:34:50.276Z</time>
      </trkpt>
      <trkpt lat="45.75526" lon="5.92198">
        <ele>405</ele>
        <time>2022-05-01T10:34:51.276Z</time>
      </trkpt>
      <trkpt lat="45.75527" lon="5.92195">
        <ele>405</ele>
        <time>2022-05-01T10:34:52.275Z</time>
      </trkpt>
      <trkpt lat="45.75529" lon="5.92193">
        <ele>406</ele>
        <time>2022-05-01T10:34:53.275Z</time>
      </trkpt>
      <trkpt lat="45.7553" lon="5.92189">
        <ele>406</ele>
        <time>2022-05-01T10:34:54.276Z</time>
      </trkpt>
      <trkpt lat="45.7553" lon="5.92186">
        <ele>406</ele>
        <time>2022-05-01T10:34:55.276Z</time>
      </trkpt>
      <trkpt lat="45.7553" lon="5.92182">
        <ele>406</ele>
        <time>2022-05-01T10:34:56.276Z</time>
      </trkpt>
      <trkpt lat="45.75529" lon="5.92178">
        <ele>406</ele>
        <time>2022-05-01T10:34:57.276Z</time>
      </trkpt>
      <trkpt lat="45.75529" lon="5.92173">
        <ele>406</ele>
        <time>2022-05-01T10:34:58.276Z</time>
      </trkpt>
      <trkpt lat="45.75528" lon="5.92167">
        <ele>406</ele>
        <time>2022-05-01T10:34:59.276Z</time>
      </trkpt>
      <trkpt lat="45.75527" lon="5.92162">
        <ele>405</ele>
        <time>2022-05-01T10:35:00.276Z</time>
      </trkpt>
      <trkpt lat="45.75528" lon="5.92158">
        <ele>404</ele>
        <time>2022-05-01T10:35:01.276Z</time>
      </trkpt>
      <trkpt lat="45.75527" lon="5.9215">
        <ele>404</ele>
        <time>2022-05-01T10:35:02.275Z</time>
      </trkpt>
      <trkpt lat="45.75527" lon="5.92144">
        <ele>403</ele>
        <time>2022-05-01T10:35:03.276Z</time>
      </trkpt>
      <trkpt lat="45.75526" lon="5.92138">
        <ele>403</ele>
        <time>2022-05-01T10:35:04.276Z</time>
      </trkpt>
      <trkpt lat="45.75526" lon="5.92132">
        <ele>403</ele>
        <time>2022-05-01T10:35:05.276Z</time>
      </trkpt>
      <trkpt lat="45.75527" lon="5.92126">
        <ele>403</ele>
        <time>2022-05-01T10:35:06.276Z</time>
      </trkpt>
      <trkpt lat="45.75527" lon="5.92121">
        <ele>403</ele>
        <time>2022-05-01T10:35:07.276Z</time>
      </trkpt>
      <trkpt lat="45.75528" lon="5.92116">
        <ele>403</ele>
        <time>2022-05-01T10:35:08.275Z</time>
      </trkpt>
      <trkpt lat="45.75529" lon="5.92112">
        <ele>403</ele>
        <time>2022-05-01T10:35:09.276Z</time>
      </trkpt>
      <trkpt lat="45.75529" lon="5.92107">
        <ele>403</ele>
        <time>2022-05-01T10:35:10.276Z</time>
      </trkpt>
      <trkpt lat="45.75529" lon="5.92103">
        <ele>403</ele>
        <time>2022-05-01T10:35:11.276Z</time>
      </trkpt>
      <trkpt lat="45.75529" lon="5.92098">
        <ele>403</ele>
        <time>2022-05-01T10:35:12.276Z</time>
      </trkpt>
      <trkpt lat="45.75529" lon="5.92094">
        <ele>403</ele>
        <time>2022-05-01T10:35:13.276Z</time>
      </trkpt>
      <trkpt lat="45.75529" lon="5.92088">
        <ele>403</ele>
        <time>2022-05-01T10:35:14.276Z</time>
      </trkpt>
      <trkpt lat="45.75529" lon="5.92085">
        <ele>403</ele>
        <time>2022-05-01T10:35:15.276Z</time>
      </trkpt>
      <trkpt lat="45.75529" lon="5.9208">
        <ele>404</ele>
        <time>2022-05-01T10:35:16.276Z</time>
      </trkpt>
      <trkpt lat="45.75529" lon="5.92077">
        <ele>404</ele>
        <time>2022-05-01T10:35:17.276Z</time>
      </trkpt>
      <trkpt lat="45.75529" lon="5.92073">
        <ele>405</ele>
        <time>2022-05-01T10:35:18.276Z</time>
      </trkpt>
      <trkpt lat="45.75528" lon="5.92069">
        <ele>405</ele>
        <time>2022-05-01T10:35:19.276Z</time>
      </trkpt>
      <trkpt lat="45.75528" lon="5.92065">
        <ele>405</ele>
        <time>2022-05-01T10:35:20.276Z</time>
      </trkpt>
      <trkpt lat="45.75528" lon="5.92061">
        <ele>405</ele>
        <time>2022-05-01T10:35:21.276Z</time>
      </trkpt>
      <trkpt lat="45.75527" lon="5.92056">
        <ele>406</ele>
        <time>2022-05-01T10:35:22.275Z</time>
      </trkpt>
      <trkpt lat="45.75526" lon="5.92052">
        <ele>406</ele>
        <time>2022-05-01T10:35:23.276Z</time>
      </trkpt>
      <trkpt lat="45.75525" lon="5.92048">
        <ele>406</ele>
        <time>2022-05-01T10:35:24.275Z</time>
      </trkpt>
      <trkpt lat="45.75524" lon="5.92043">
        <ele>406</ele>
        <time>2022-05-01T10:35:25.276Z</time>
      </trkpt>
      <trkpt lat="45.75523" lon="5.92039">
        <ele>406</ele>
        <time>2022-05-01T10:35:26.276Z</time>
      </trkpt>
      <trkpt lat="45.75521" lon="5.92035">
        <ele>407</ele>
        <time>2022-05-01T10:35:27.276Z</time>
      </trkpt>
      <trkpt lat="45.75519" lon="5.9203">
        <ele>407</ele>
        <time>2022-05-01T10:35:28.276Z</time>
      </trkpt>
      <trkpt lat="45.75518" lon="5.92026">
        <ele>407</ele>
        <time>2022-05-01T10:35:29.276Z</time>
      </trkpt>
      <trkpt lat="45.75516" lon="5.92022">
        <ele>408</ele>
        <time>2022-05-01T10:35:30.276Z</time>
      </trkpt>
      <trkpt lat="45.75514" lon="5.92018">
        <ele>408</ele>
        <time>2022-05-01T10:35:31.276Z</time>
      </trkpt>
      <trkpt lat="45.75512" lon="5.92014">
        <ele>409</ele>
        <time>2022-05-01T10:35:32.275Z</time>
      </trkpt>
      <trkpt lat="45.75511" lon="5.9201">
        <ele>408</ele>
        <time>2022-05-01T10:35:33.275Z</time>
      </trkpt>
      <trkpt lat="45.75509" lon="5.92005">
        <ele>408</ele>
        <time>2022-05-01T10:35:34.276Z</time>
      </trkpt>
      <trkpt lat="45.75507" lon="5.92">
        <ele>408</ele>
        <time>2022-05-01T10:35:35.276Z</time>
      </trkpt>
      <trkpt lat="45.75506" lon="5.91995">
        <ele>407</ele>
        <time>2022-05-01T10:35:36.276Z</time>
      </trkpt>
      <trkpt lat="45.75504" lon="5.91989">
        <ele>407</ele>
        <time>2022-05-01T10:35:37.276Z</time>
      </trkpt>
      <trkpt lat="45.75502" lon="5.91983">
        <ele>406</ele>
        <time>2022-05-01T10:35:38.276Z</time>
      </trkpt>
      <trkpt lat="45.75501" lon="5.91977">
        <ele>406</ele>
        <time>2022-05-01T10:35:39.276Z</time>
      </trkpt>
      <trkpt lat="45.75502" lon="5.91969">
        <ele>406</ele>
        <time>2022-05-01T10:35:40.276Z</time>
      </trkpt>
      <trkpt lat="45.75503" lon="5.91962">
        <ele>405</ele>
        <time>2022-05-01T10:35:41.276Z</time>
      </trkpt>
      <trkpt lat="45.75505" lon="5.91955">
        <ele>405</ele>
        <time>2022-05-01T10:35:42.276Z</time>
      </trkpt>
      <trkpt lat="45.75507" lon="5.91949">
        <ele>405</ele>
        <time>2022-05-01T10:35:43.276Z</time>
      </trkpt>
      <trkpt lat="45.75511" lon="5.91941">
        <ele>405</ele>
        <time>2022-05-01T10:35:44.276Z</time>
      </trkpt>
      <trkpt lat="45.75515" lon="5.91935">
        <ele>405</ele>
        <time>2022-05-01T10:35:45.276Z</time>
      </trkpt>
      <trkpt lat="45.75519" lon="5.91927">
        <ele>404</ele>
        <time>2022-05-01T10:35:46.276Z</time>
      </trkpt>
      <trkpt lat="45.75522" lon="5.91922">
        <ele>403</ele>
        <time>2022-05-01T10:35:47.276Z</time>
      </trkpt>
      <trkpt lat="45.75526" lon="5.91914">
        <ele>402</ele>
        <time>2022-05-01T10:35:48.276Z</time>
      </trkpt>
      <trkpt lat="45.75531" lon="5.91905">
        <ele>401</ele>
        <time>2022-05-01T10:35:49.276Z</time>
      </trkpt>
      <trkpt lat="45.75534" lon="5.919">
        <ele>401</ele>
        <time>2022-05-01T10:35:50.276Z</time>
      </trkpt>
      <trkpt lat="45.75539" lon="5.91893">
        <ele>400</ele>
        <time>2022-05-01T10:35:51.276Z</time>
      </trkpt>
      <trkpt lat="45.75544" lon="5.91886">
        <ele>399</ele>
        <time>2022-05-01T10:35:52.276Z</time>
      </trkpt>
      <trkpt lat="45.75548" lon="5.9188">
        <ele>399</ele>
        <time>2022-05-01T10:35:53.276Z</time>
      </trkpt>
      <trkpt lat="45.75553" lon="5.91874">
        <ele>398</ele>
        <time>2022-05-01T10:35:54.276Z</time>
      </trkpt>
      <trkpt lat="45.75557" lon="5.91868">
        <ele>397</ele>
        <time>2022-05-01T10:35:55.276Z</time>
      </trkpt>
      <trkpt lat="45.75562" lon="5.91863">
        <ele>397</ele>
        <time>2022-05-01T10:35:56.276Z</time>
      </trkpt>
      <trkpt lat="45.75566" lon="5.91859">
        <ele>397</ele>
        <time>2022-05-01T10:35:57.276Z</time>
      </trkpt>
      <trkpt lat="45.75572" lon="5.91854">
        <ele>396</ele>
        <time>2022-05-01T10:35:58.276Z</time>
      </trkpt>
      <trkpt lat="45.75577" lon="5.91848">
        <ele>396</ele>
        <time>2022-05-01T10:35:59.276Z</time>
      </trkpt>
      <trkpt lat="45.75582" lon="5.91843">
        <ele>395</ele>
        <time>2022-05-01T10:36:00.276Z</time>
      </trkpt>
      <trkpt lat="45.75588" lon="5.91837">
        <ele>395</ele>
        <time>2022-05-01T10:36:01.276Z</time>
      </trkpt>
      <trkpt lat="45.75593" lon="5.91831">
        <ele>395</ele>
        <time>2022-05-01T10:36:02.276Z</time>
      </trkpt>
      <trkpt lat="45.75599" lon="5.91826">
        <ele>395</ele>
        <time>2022-05-01T10:36:03.276Z</time>
      </trkpt>
      <trkpt lat="45.75605" lon="5.91821">
        <ele>395</ele>
        <time>2022-05-01T10:36:04.276Z</time>
      </trkpt>
      <trkpt lat="45.7561" lon="5.91817">
        <ele>395</ele>
        <time>2022-05-01T10:36:05.276Z</time>
      </trkpt>
      <trkpt lat="45.75616" lon="5.91811">
        <ele>395</ele>
        <time>2022-05-01T10:36:06.276Z</time>
      </trkpt>
      <trkpt lat="45.75621" lon="5.91806">
        <ele>394</ele>
        <time>2022-05-01T10:36:07.276Z</time>
      </trkpt>
      <trkpt lat="45.75626" lon="5.918">
        <ele>394</ele>
        <time>2022-05-01T10:36:08.275Z</time>
      </trkpt>
      <trkpt lat="45.75631" lon="5.91794">
        <ele>395</ele>
        <time>2022-05-01T10:36:09.275Z</time>
      </trkpt>
      <trkpt lat="45.75637" lon="5.91788">
        <ele>395</ele>
        <time>2022-05-01T10:36:10.276Z</time>
      </trkpt>
      <trkpt lat="45.75642" lon="5.91781">
        <ele>395</ele>
        <time>2022-05-01T10:36:11.276Z</time>
      </trkpt>
      <trkpt lat="45.75647" lon="5.91774">
        <ele>395</ele>
        <time>2022-05-01T10:36:12.275Z</time>
      </trkpt>
      <trkpt lat="45.75652" lon="5.91767">
        <ele>395</ele>
        <time>2022-05-01T10:36:13.276Z</time>
      </trkpt>
      <trkpt lat="45.75657" lon="5.91759">
        <ele>395</ele>
        <time>2022-05-01T10:36:14.276Z</time>
      </trkpt>
      <trkpt lat="45.75662" lon="5.91751">
        <ele>394</ele>
        <time>2022-05-01T10:36:15.276Z</time>
      </trkpt>
      <trkpt lat="45.75667" lon="5.91743">
        <ele>394</ele>
        <time>2022-05-01T10:36:16.276Z</time>
      </trkpt>
      <trkpt lat="45.75672" lon="5.91734">
        <ele>393</ele>
        <time>2022-05-01T10:36:17.276Z</time>
      </trkpt>
      <trkpt lat="45.75677" lon="5.91724">
        <ele>393</ele>
        <time>2022-05-01T10:36:18.275Z</time>
      </trkpt>
      <trkpt lat="45.75682" lon="5.91716">
        <ele>393</ele>
        <time>2022-05-01T10:36:19.275Z</time>
      </trkpt>
      <trkpt lat="45.75687" lon="5.91708">
        <ele>393</ele>
        <time>2022-05-01T10:36:20.276Z</time>
      </trkpt>
      <trkpt lat="45.75692" lon="5.91701">
        <ele>392</ele>
        <time>2022-05-01T10:36:21.276Z</time>
      </trkpt>
      <trkpt lat="45.75697" lon="5.91693">
        <ele>392</ele>
        <time>2022-05-01T10:36:22.276Z</time>
      </trkpt>
      <trkpt lat="45.75702" lon="5.91684">
        <ele>391</ele>
        <time>2022-05-01T10:36:23.276Z</time>
      </trkpt>
      <trkpt lat="45.75708" lon="5.91676">
        <ele>390</ele>
        <time>2022-05-01T10:36:24.276Z</time>
      </trkpt>
      <trkpt lat="45.75713" lon="5.91669">
        <ele>390</ele>
        <time>2022-05-01T10:36:25.276Z</time>
      </trkpt>
      <trkpt lat="45.75719" lon="5.91661">
        <ele>389</ele>
        <time>2022-05-01T10:36:26.276Z</time>
      </trkpt>
      <trkpt lat="45.75723" lon="5.91653">
        <ele>388</ele>
        <time>2022-05-01T10:36:27.275Z</time>
      </trkpt>
      <trkpt lat="45.75728" lon="5.91646">
        <ele>388</ele>
        <time>2022-05-01T10:36:28.276Z</time>
      </trkpt>
      <trkpt lat="45.75733" lon="5.91639">
        <ele>387</ele>
        <time>2022-05-01T10:36:29.276Z</time>
      </trkpt>
      <trkpt lat="45.75737" lon="5.91632">
        <ele>387</ele>
        <time>2022-05-01T10:36:30.276Z</time>
      </trkpt>
      <trkpt lat="45.7574" lon="5.91624">
        <ele>388</ele>
        <time>2022-05-01T10:36:31.276Z</time>
      </trkpt>
      <trkpt lat="45.75741" lon="5.91616">
        <ele>388</ele>
        <time>2022-05-01T10:36:32.276Z</time>
      </trkpt>
      <trkpt lat="45.7574" lon="5.91609">
        <ele>389</ele>
        <time>2022-05-01T10:36:33.276Z</time>
      </trkpt>
      <trkpt lat="45.75738" lon="5.91601">
        <ele>389</ele>
        <time>2022-05-01T10:36:34.275Z</time>
      </trkpt>
      <trkpt lat="45.75735" lon="5.91591">
        <ele>388</ele>
        <time>2022-05-01T10:36:35.276Z</time>
      </trkpt>
      <trkpt lat="45.75732" lon="5.91583">
        <ele>388</ele>
        <time>2022-05-01T10:36:36.276Z</time>
      </trkpt>
      <trkpt lat="45.7573" lon="5.91577">
        <ele>387</ele>
        <time>2022-05-01T10:36:37.276Z</time>
      </trkpt>
      <trkpt lat="45.75726" lon="5.91567">
        <ele>386</ele>
        <time>2022-05-01T10:36:38.276Z</time>
      </trkpt>
      <trkpt lat="45.75723" lon="5.91561">
        <ele>385</ele>
        <time>2022-05-01T10:36:39.276Z</time>
      </trkpt>
      <trkpt lat="45.7572" lon="5.91552">
        <ele>384</ele>
        <time>2022-05-01T10:36:40.276Z</time>
      </trkpt>
      <trkpt lat="45.75717" lon="5.91545">
        <ele>384</ele>
        <time>2022-05-01T10:36:41.276Z</time>
      </trkpt>
      <trkpt lat="45.75714" lon="5.91537">
        <ele>383</ele>
        <time>2022-05-01T10:36:42.276Z</time>
      </trkpt>
      <trkpt lat="45.75711" lon="5.91531">
        <ele>383</ele>
        <time>2022-05-01T10:36:43.276Z</time>
      </trkpt>
      <trkpt lat="45.75708" lon="5.91525">
        <ele>382</ele>
        <time>2022-05-01T10:36:44.276Z</time>
      </trkpt>
      <trkpt lat="45.75707" lon="5.9152">
        <ele>382</ele>
        <time>2022-05-01T10:36:45.276Z</time>
      </trkpt>
      <trkpt lat="45.75706" lon="5.91516">
        <ele>382</ele>
        <time>2022-05-01T10:36:46.276Z</time>
      </trkpt>
      <trkpt lat="45.75706" lon="5.91514">
        <ele>381</ele>
        <time>2022-05-01T10:36:47.276Z</time>
      </trkpt>
      <trkpt lat="45.75706" lon="5.91512">
        <ele>381</ele>
        <time>2022-05-01T10:36:48.275Z</time>
      </trkpt>
      <trkpt lat="45.75706" lon="5.91511">
        <ele>381</ele>
        <time>2022-05-01T10:36:49.275Z</time>
      </trkpt>
      <trkpt lat="45.75706" lon="5.91509">
        <ele>381</ele>
        <time>2022-05-01T10:36:50.275Z</time>
      </trkpt>
      <trkpt lat="45.75705" lon="5.91509">
        <ele>380</ele>
        <time>2022-05-01T10:36:51.276Z</time>
      </trkpt>
      <trkpt lat="45.75706" lon="5.9151">
        <ele>380</ele>
        <time>2022-05-01T10:36:52.276Z</time>
      </trkpt>
      <trkpt lat="45.75707" lon="5.9151">
        <ele>380</ele>
        <time>2022-05-01T10:36:53.276Z</time>
      </trkpt>
      <trkpt lat="45.75709" lon="5.91511">
        <ele>380</ele>
        <time>2022-05-01T10:36:54.276Z</time>
      </trkpt>
      <trkpt lat="45.75711" lon="5.91512">
        <ele>380</ele>
        <time>2022-05-01T10:36:55.276Z</time>
      </trkpt>
      <trkpt lat="45.75712" lon="5.91512">
        <ele>380</ele>
        <time>2022-05-01T10:36:56.275Z</time>
      </trkpt>
      <trkpt lat="45.75713" lon="5.91512">
        <ele>380</ele>
        <time>2022-05-01T10:36:57.276Z</time>
      </trkpt>
      <trkpt lat="45.75715" lon="5.91511">
        <ele>380</ele>
        <time>2022-05-01T10:36:58.275Z</time>
      </trkpt>
      <trkpt lat="45.75717" lon="5.91511">
        <ele>380</ele>
        <time>2022-05-01T10:36:59.276Z</time>
      </trkpt>
      <trkpt lat="45.75719" lon="5.91511">
        <ele>380</ele>
        <time>2022-05-01T10:37:00.275Z</time>
      </trkpt>
      <trkpt lat="45.75721" lon="5.9151">
        <ele>380</ele>
        <time>2022-05-01T10:37:01.275Z</time>
      </trkpt>
      <trkpt lat="45.75724" lon="5.9151">
        <ele>380</ele>
        <time>2022-05-01T10:37:02.275Z</time>
      </trkpt>
      <trkpt lat="45.75726" lon="5.9151">
        <ele>381</ele>
        <time>2022-05-01T10:37:03.276Z</time>
      </trkpt>
      <trkpt lat="45.75729" lon="5.9151">
        <ele>381</ele>
        <time>2022-05-01T10:37:04.275Z</time>
      </trkpt>
      <trkpt lat="45.75731" lon="5.91509">
        <ele>382</ele>
        <time>2022-05-01T10:37:05.276Z</time>
      </trkpt>
      <trkpt lat="45.75732" lon="5.91509">
        <ele>382</ele>
        <time>2022-05-01T10:37:06.275Z</time>
      </trkpt>
      <trkpt lat="45.75735" lon="5.91506">
        <ele>382</ele>
        <time>2022-05-01T10:37:07.276Z</time>
      </trkpt>
      <trkpt lat="45.75738" lon="5.91505">
        <ele>382</ele>
        <time>2022-05-01T10:37:08.276Z</time>
      </trkpt>
      <trkpt lat="45.75741" lon="5.91504">
        <ele>382</ele>
        <time>2022-05-01T10:37:09.275Z</time>
      </trkpt>
      <trkpt lat="45.75745" lon="5.91502">
        <ele>381</ele>
        <time>2022-05-01T10:37:10.275Z</time>
      </trkpt>
      <trkpt lat="45.75749" lon="5.91501">
        <ele>380</ele>
        <time>2022-05-01T10:37:11.276Z</time>
      </trkpt>
      <trkpt lat="45.75753" lon="5.915">
        <ele>379</ele>
        <time>2022-05-01T10:37:12.276Z</time>
      </trkpt>
      <trkpt lat="45.75758" lon="5.91499">
        <ele>378</ele>
        <time>2022-05-01T10:37:13.276Z</time>
      </trkpt>
      <trkpt lat="45.75762" lon="5.91498">
        <ele>377</ele>
        <time>2022-05-01T10:37:14.275Z</time>
      </trkpt>
      <trkpt lat="45.75767" lon="5.91496">
        <ele>376</ele>
        <time>2022-05-01T10:37:15.276Z</time>
      </trkpt>
      <trkpt lat="45.75771" lon="5.91494">
        <ele>376</ele>
        <time>2022-05-01T10:37:16.276Z</time>
      </trkpt>
      <trkpt lat="45.75774" lon="5.91489">
        <ele>376</ele>
        <time>2022-05-01T10:37:17.275Z</time>
      </trkpt>
      <trkpt lat="45.75777" lon="5.91484">
        <ele>375</ele>
        <time>2022-05-01T10:37:18.275Z</time>
      </trkpt>
      <trkpt lat="45.75778" lon="5.91476">
        <ele>375</ele>
        <time>2022-05-01T10:37:19.276Z</time>
      </trkpt>
      <trkpt lat="45.75778" lon="5.91468">
        <ele>376</ele>
        <time>2022-05-01T10:37:20.276Z</time>
      </trkpt>
      <trkpt lat="45.75777" lon="5.9146">
        <ele>375</ele>
        <time>2022-05-01T10:37:21.275Z</time>
      </trkpt>
      <trkpt lat="45.75776" lon="5.91453">
        <ele>375</ele>
        <time>2022-05-01T10:37:22.276Z</time>
      </trkpt>
      <trkpt lat="45.75775" lon="5.91445">
        <ele>374</ele>
        <time>2022-05-01T10:37:23.276Z</time>
      </trkpt>
      <trkpt lat="45.75774" lon="5.91437">
        <ele>373</ele>
        <time>2022-05-01T10:37:24.275Z</time>
      </trkpt>
      <trkpt lat="45.75773" lon="5.9143">
        <ele>373</ele>
        <time>2022-05-01T10:37:25.276Z</time>
      </trkpt>
      <trkpt lat="45.75771" lon="5.91422">
        <ele>372</ele>
        <time>2022-05-01T10:37:26.276Z</time>
      </trkpt>
      <trkpt lat="45.75769" lon="5.91412">
        <ele>372</ele>
        <time>2022-05-01T10:37:27.276Z</time>
      </trkpt>
      <trkpt lat="45.75768" lon="5.91406">
        <ele>372</ele>
        <time>2022-05-01T10:37:28.276Z</time>
      </trkpt>
      <trkpt lat="45.75767" lon="5.91397">
        <ele>371</ele>
        <time>2022-05-01T10:37:29.276Z</time>
      </trkpt>
      <trkpt lat="45.75765" lon="5.91389">
        <ele>371</ele>
        <time>2022-05-01T10:37:30.276Z</time>
      </trkpt>
      <trkpt lat="45.75763" lon="5.91382">
        <ele>371</ele>
        <time>2022-05-01T10:37:31.276Z</time>
      </trkpt>
      <trkpt lat="45.7576" lon="5.91375">
        <ele>371</ele>
        <time>2022-05-01T10:37:32.275Z</time>
      </trkpt>
      <trkpt lat="45.75757" lon="5.91369">
        <ele>371</ele>
        <time>2022-05-01T10:37:33.276Z</time>
      </trkpt>
      <trkpt lat="45.75753" lon="5.91363">
        <ele>371</ele>
        <time>2022-05-01T10:37:34.276Z</time>
      </trkpt>
      <trkpt lat="45.75749" lon="5.91358">
        <ele>370</ele>
        <time>2022-05-01T10:37:35.276Z</time>
      </trkpt>
      <trkpt lat="45.75745" lon="5.91352">
        <ele>370</ele>
        <time>2022-05-01T10:37:36.275Z</time>
      </trkpt>
      <trkpt lat="45.75741" lon="5.91346">
        <ele>369</ele>
        <time>2022-05-01T10:37:37.276Z</time>
      </trkpt>
      <trkpt lat="45.75738" lon="5.91341">
        <ele>369</ele>
        <time>2022-05-01T10:37:38.276Z</time>
      </trkpt>
      <trkpt lat="45.75734" lon="5.91335">
        <ele>368</ele>
        <time>2022-05-01T10:37:39.276Z</time>
      </trkpt>
      <trkpt lat="45.75731" lon="5.91329">
        <ele>368</ele>
        <time>2022-05-01T10:37:40.276Z</time>
      </trkpt>
      <trkpt lat="45.75729" lon="5.91324">
        <ele>368</ele>
        <time>2022-05-01T10:37:41.276Z</time>
      </trkpt>
      <trkpt lat="45.75727" lon="5.91318">
        <ele>367</ele>
        <time>2022-05-01T10:37:42.276Z</time>
      </trkpt>
      <trkpt lat="45.75726" lon="5.91315">
        <ele>367</ele>
        <time>2022-05-01T10:37:43.276Z</time>
      </trkpt>
      <trkpt lat="45.75724" lon="5.91311">
        <ele>367</ele>
        <time>2022-05-01T10:37:44.276Z</time>
      </trkpt>
      <trkpt lat="45.75722" lon="5.91307">
        <ele>367</ele>
        <time>2022-05-01T10:37:45.276Z</time>
      </trkpt>
      <trkpt lat="45.75721" lon="5.91304">
        <ele>367</ele>
        <time>2022-05-01T10:37:46.276Z</time>
      </trkpt>
      <trkpt lat="45.75719" lon="5.91299">
        <ele>367</ele>
        <time>2022-05-01T10:37:47.275Z</time>
      </trkpt>
      <trkpt lat="45.75718" lon="5.91296">
        <ele>367</ele>
        <time>2022-05-01T10:37:48.276Z</time>
      </trkpt>
      <trkpt lat="45.75716" lon="5.91293">
        <ele>367</ele>
        <time>2022-05-01T10:37:49.276Z</time>
      </trkpt>
      <trkpt lat="45.75715" lon="5.9129">
        <ele>368</ele>
        <time>2022-05-01T10:37:50.276Z</time>
      </trkpt>
      <trkpt lat="45.75713" lon="5.91286">
        <ele>368</ele>
        <time>2022-05-01T10:37:51.276Z</time>
      </trkpt>
      <trkpt lat="45.75711" lon="5.91282">
        <ele>369</ele>
        <time>2022-05-01T10:37:52.276Z</time>
      </trkpt>
      <trkpt lat="45.75709" lon="5.91278">
        <ele>369</ele>
        <time>2022-05-01T10:37:53.276Z</time>
      </trkpt>
      <trkpt lat="45.75707" lon="5.91274">
        <ele>368</ele>
        <time>2022-05-01T10:37:54.275Z</time>
      </trkpt>
      <trkpt lat="45.75705" lon="5.9127">
        <ele>367</ele>
        <time>2022-05-01T10:37:55.275Z</time>
      </trkpt>
      <trkpt lat="45.75703" lon="5.91266">
        <ele>367</ele>
        <time>2022-05-01T10:37:56.276Z</time>
      </trkpt>
      <trkpt lat="45.75701" lon="5.91262">
        <ele>366</ele>
        <time>2022-05-01T10:37:57.276Z</time>
      </trkpt>
      <trkpt lat="45.757" lon="5.91259">
        <ele>366</ele>
        <time>2022-05-01T10:37:58.276Z</time>
      </trkpt>
      <trkpt lat="45.75698" lon="5.91255">
        <ele>366</ele>
        <time>2022-05-01T10:37:59.276Z</time>
      </trkpt>
      <trkpt lat="45.75696" lon="5.91252">
        <ele>366</ele>
        <time>2022-05-01T10:38:00.276Z</time>
      </trkpt>
      <trkpt lat="45.75694" lon="5.91248">
        <ele>365</ele>
        <time>2022-05-01T10:38:01.275Z</time>
      </trkpt>
      <trkpt lat="45.75692" lon="5.91245">
        <ele>365</ele>
        <time>2022-05-01T10:38:02.275Z</time>
      </trkpt>
      <trkpt lat="45.75691" lon="5.91241">
        <ele>365</ele>
        <time>2022-05-01T10:38:03.276Z</time>
      </trkpt>
      <trkpt lat="45.75689" lon="5.91238">
        <ele>365</ele>
        <time>2022-05-01T10:38:04.275Z</time>
      </trkpt>
      <trkpt lat="45.75687" lon="5.91234">
        <ele>365</ele>
        <time>2022-05-01T10:38:05.276Z</time>
      </trkpt>
      <trkpt lat="45.75685" lon="5.9123">
        <ele>364</ele>
        <time>2022-05-01T10:38:06.276Z</time>
      </trkpt>
      <trkpt lat="45.75684" lon="5.91226">
        <ele>364</ele>
        <time>2022-05-01T10:38:07.275Z</time>
      </trkpt>
      <trkpt lat="45.75682" lon="5.91222">
        <ele>364</ele>
        <time>2022-05-01T10:38:08.276Z</time>
      </trkpt>
      <trkpt lat="45.7568" lon="5.91219">
        <ele>365</ele>
        <time>2022-05-01T10:38:09.276Z</time>
      </trkpt>
      <trkpt lat="45.75678" lon="5.91215">
        <ele>365</ele>
        <time>2022-05-01T10:38:10.276Z</time>
      </trkpt>
      <trkpt lat="45.75676" lon="5.91211">
        <ele>365</ele>
        <time>2022-05-01T10:38:11.276Z</time>
      </trkpt>
      <trkpt lat="45.75674" lon="5.91207">
        <ele>365</ele>
        <time>2022-05-01T10:38:12.276Z</time>
      </trkpt>
      <trkpt lat="45.75672" lon="5.91202">
        <ele>365</ele>
        <time>2022-05-01T10:38:13.276Z</time>
      </trkpt>
      <trkpt lat="45.7567" lon="5.91197">
        <ele>365</ele>
        <time>2022-05-01T10:38:14.276Z</time>
      </trkpt>
      <trkpt lat="45.75668" lon="5.91193">
        <ele>365</ele>
        <time>2022-05-01T10:38:15.276Z</time>
      </trkpt>
      <trkpt lat="45.75666" lon="5.91188">
        <ele>365</ele>
        <time>2022-05-01T10:38:16.275Z</time>
      </trkpt>
      <trkpt lat="45.75664" lon="5.91183">
        <ele>365</ele>
        <time>2022-05-01T10:38:17.276Z</time>
      </trkpt>
      <trkpt lat="45.75663" lon="5.91178">
        <ele>365</ele>
        <time>2022-05-01T10:38:18.276Z</time>
      </trkpt>
      <trkpt lat="45.75661" lon="5.91173">
        <ele>365</ele>
        <time>2022-05-01T10:38:19.276Z</time>
      </trkpt>
      <trkpt lat="45.75659" lon="5.91169">
        <ele>365</ele>
        <time>2022-05-01T10:38:20.276Z</time>
      </trkpt>
      <trkpt lat="45.75658" lon="5.91164">
        <ele>365</ele>
        <time>2022-05-01T10:38:21.276Z</time>
      </trkpt>
      <trkpt lat="45.75657" lon="5.9116">
        <ele>365</ele>
        <time>2022-05-01T10:38:22.275Z</time>
      </trkpt>
      <trkpt lat="45.75656" lon="5.91155">
        <ele>365</ele>
        <time>2022-05-01T10:38:23.276Z</time>
      </trkpt>
      <trkpt lat="45.75655" lon="5.91152">
        <ele>365</ele>
        <time>2022-05-01T10:38:24.276Z</time>
      </trkpt>
      <trkpt lat="45.75654" lon="5.91148">
        <ele>365</ele>
        <time>2022-05-01T10:38:25.275Z</time>
      </trkpt>
      <trkpt lat="45.75654" lon="5.91145">
        <ele>366</ele>
        <time>2022-05-01T10:38:26.275Z</time>
      </trkpt>
      <trkpt lat="45.75653" lon="5.91142">
        <ele>366</ele>
        <time>2022-05-01T10:38:27.276Z</time>
      </trkpt>
      <trkpt lat="45.75653" lon="5.91139">
        <ele>367</ele>
        <time>2022-05-01T10:38:28.275Z</time>
      </trkpt>
      <trkpt lat="45.75653" lon="5.91136">
        <ele>367</ele>
        <time>2022-05-01T10:38:29.276Z</time>
      </trkpt>
      <trkpt lat="45.75654" lon="5.91133">
        <ele>367</ele>
        <time>2022-05-01T10:38:30.276Z</time>
      </trkpt>
      <trkpt lat="45.75655" lon="5.91131">
        <ele>368</ele>
        <time>2022-05-01T10:38:31.276Z</time>
      </trkpt>
      <trkpt lat="45.75656" lon="5.91129">
        <ele>369</ele>
        <time>2022-05-01T10:38:32.276Z</time>
      </trkpt>
      <trkpt lat="45.75657" lon="5.91127">
        <ele>370</ele>
        <time>2022-05-01T10:38:33.276Z</time>
      </trkpt>
      <trkpt lat="45.75658" lon="5.91125">
        <ele>370</ele>
        <time>2022-05-01T10:38:34.276Z</time>
      </trkpt>
      <trkpt lat="45.7566" lon="5.91124">
        <ele>371</ele>
        <time>2022-05-01T10:38:35.276Z</time>
      </trkpt>
      <trkpt lat="45.75661" lon="5.91123">
        <ele>371</ele>
        <time>2022-05-01T10:38:36.276Z</time>
      </trkpt>
      <trkpt lat="45.75661" lon="5.91121">
        <ele>372</ele>
        <time>2022-05-01T10:38:37.275Z</time>
      </trkpt>
      <trkpt lat="45.75662" lon="5.9112">
        <ele>372</ele>
        <time>2022-05-01T10:38:38.276Z</time>
      </trkpt>
      <trkpt lat="45.75663" lon="5.91119">
        <ele>373</ele>
        <time>2022-05-01T10:38:39.276Z</time>
      </trkpt>
      <trkpt lat="45.75664" lon="5.91117">
        <ele>373</ele>
        <time>2022-05-01T10:38:40.276Z</time>
      </trkpt>
      <trkpt lat="45.75665" lon="5.91116">
        <ele>373</ele>
        <time>2022-05-01T10:38:41.276Z</time>
      </trkpt>
      <trkpt lat="45.75666" lon="5.91116">
        <ele>374</ele>
        <time>2022-05-01T10:38:42.276Z</time>
      </trkpt>
      <trkpt lat="45.75667" lon="5.91115">
        <ele>374</ele>
        <time>2022-05-01T10:38:43.276Z</time>
      </trkpt>
      <trkpt lat="45.75669" lon="5.91114">
        <ele>375</ele>
        <time>2022-05-01T10:38:44.276Z</time>
      </trkpt>
      <trkpt lat="45.7567" lon="5.91113">
        <ele>375</ele>
        <time>2022-05-01T10:38:45.276Z</time>
      </trkpt>
      <trkpt lat="45.75671" lon="5.91112">
        <ele>376</ele>
        <time>2022-05-01T10:38:46.276Z</time>
      </trkpt>
      <trkpt lat="45.75673" lon="5.91111">
        <ele>376</ele>
        <time>2022-05-01T10:38:47.276Z</time>
      </trkpt>
      <trkpt lat="45.75674" lon="5.9111">
        <ele>377</ele>
        <time>2022-05-01T10:38:48.276Z</time>
      </trkpt>
      <trkpt lat="45.75675" lon="5.91109">
        <ele>378</ele>
        <time>2022-05-01T10:38:49.276Z</time>
      </trkpt>
      <trkpt lat="45.75677" lon="5.91108">
        <ele>378</ele>
        <time>2022-05-01T10:38:50.276Z</time>
      </trkpt>
      <trkpt lat="45.75678" lon="5.91106">
        <ele>379</ele>
        <time>2022-05-01T10:38:51.276Z</time>
      </trkpt>
      <trkpt lat="45.75679" lon="5.91104">
        <ele>379</ele>
        <time>2022-05-01T10:38:52.276Z</time>
      </trkpt>
      <trkpt lat="45.75681" lon="5.91102">
        <ele>379</ele>
        <time>2022-05-01T10:38:53.276Z</time>
      </trkpt>
      <trkpt lat="45.75683" lon="5.911">
        <ele>379</ele>
        <time>2022-05-01T10:38:54.276Z</time>
      </trkpt>
      <trkpt lat="45.75685" lon="5.91099">
        <ele>380</ele>
        <time>2022-05-01T10:38:55.276Z</time>
      </trkpt>
      <trkpt lat="45.75687" lon="5.91098">
        <ele>380</ele>
        <time>2022-05-01T10:38:56.276Z</time>
      </trkpt>
      <trkpt lat="45.75688" lon="5.91097">
        <ele>381</ele>
        <time>2022-05-01T10:38:57.276Z</time>
      </trkpt>
      <trkpt lat="45.7569" lon="5.91096">
        <ele>381</ele>
        <time>2022-05-01T10:38:58.276Z</time>
      </trkpt>
      <trkpt lat="45.75692" lon="5.91095">
        <ele>382</ele>
        <time>2022-05-01T10:38:59.276Z</time>
      </trkpt>
      <trkpt lat="45.75694" lon="5.91093">
        <ele>382</ele>
        <time>2022-05-01T10:39:00.276Z</time>
      </trkpt>
      <trkpt lat="45.75696" lon="5.91092">
        <ele>383</ele>
        <time>2022-05-01T10:39:01.276Z</time>
      </trkpt>
      <trkpt lat="45.75697" lon="5.9109">
        <ele>383</ele>
        <time>2022-05-01T10:39:02.276Z</time>
      </trkpt>
      <trkpt lat="45.75699" lon="5.91088">
        <ele>383</ele>
        <time>2022-05-01T10:39:03.276Z</time>
      </trkpt>
      <trkpt lat="45.75701" lon="5.91087">
        <ele>384</ele>
        <time>2022-05-01T10:39:04.276Z</time>
      </trkpt>
      <trkpt lat="45.75703" lon="5.91086">
        <ele>384</ele>
        <time>2022-05-01T10:39:05.275Z</time>
      </trkpt>
      <trkpt lat="45.75706" lon="5.91084">
        <ele>384</ele>
        <time>2022-05-01T10:39:06.276Z</time>
      </trkpt>
      <trkpt lat="45.75707" lon="5.91083">
        <ele>385</ele>
        <time>2022-05-01T10:39:07.276Z</time>
      </trkpt>
      <trkpt lat="45.75709" lon="5.91082">
        <ele>385</ele>
        <time>2022-05-01T10:39:08.276Z</time>
      </trkpt>
      <trkpt lat="45.7571" lon="5.91082">
        <ele>385</ele>
        <time>2022-05-01T10:39:09.275Z</time>
      </trkpt>
      <trkpt lat="45.75712" lon="5.91081">
        <ele>386</ele>
        <time>2022-05-01T10:39:10.276Z</time>
      </trkpt>
      <trkpt lat="45.75714" lon="5.9108">
        <ele>386</ele>
        <time>2022-05-01T10:39:11.276Z</time>
      </trkpt>
      <trkpt lat="45.75715" lon="5.9108">
        <ele>386</ele>
        <time>2022-05-01T10:39:12.275Z</time>
      </trkpt>
      <trkpt lat="45.75717" lon="5.9108">
        <ele>386</ele>
        <time>2022-05-01T10:39:13.276Z</time>
      </trkpt>
      <trkpt lat="45.75719" lon="5.9108">
        <ele>387</ele>
        <time>2022-05-01T10:39:14.276Z</time>
      </trkpt>
      <trkpt lat="45.75721" lon="5.91079">
        <ele>387</ele>
        <time>2022-05-01T10:39:15.276Z</time>
      </trkpt>
      <trkpt lat="45.75723" lon="5.91078">
        <ele>388</ele>
        <time>2022-05-01T10:39:16.276Z</time>
      </trkpt>
      <trkpt lat="45.75725" lon="5.91078">
        <ele>388</ele>
        <time>2022-05-01T10:39:17.276Z</time>
      </trkpt>
      <trkpt lat="45.75727" lon="5.91077">
        <ele>389</ele>
        <time>2022-05-01T10:39:18.276Z</time>
      </trkpt>
      <trkpt lat="45.75729" lon="5.91076">
        <ele>389</ele>
        <time>2022-05-01T10:39:19.276Z</time>
      </trkpt>
      <trkpt lat="45.7573" lon="5.91076">
        <ele>390</ele>
        <time>2022-05-01T10:39:20.275Z</time>
      </trkpt>
      <trkpt lat="45.75732" lon="5.91075">
        <ele>390</ele>
        <time>2022-05-01T10:39:21.276Z</time>
      </trkpt>
      <trkpt lat="45.75733" lon="5.91074">
        <ele>390</ele>
        <time>2022-05-01T10:39:22.276Z</time>
      </trkpt>
      <trkpt lat="45.75735" lon="5.91073">
        <ele>391</ele>
        <time>2022-05-01T10:39:23.275Z</time>
      </trkpt>
      <trkpt lat="45.75736" lon="5.91072">
        <ele>391</ele>
        <time>2022-05-01T10:39:24.276Z</time>
      </trkpt>
      <trkpt lat="45.75738" lon="5.91071">
        <ele>391</ele>
        <time>2022-05-01T10:39:25.276Z</time>
      </trkpt>
      <trkpt lat="45.7574" lon="5.9107">
        <ele>391</ele>
        <time>2022-05-01T10:39:26.276Z</time>
      </trkpt>
      <trkpt lat="45.75741" lon="5.91068">
        <ele>392</ele>
        <time>2022-05-01T10:39:27.276Z</time>
      </trkpt>
      <trkpt lat="45.75743" lon="5.91068">
        <ele>392</ele>
        <time>2022-05-01T10:39:28.275Z</time>
      </trkpt>
      <trkpt lat="45.75744" lon="5.91067">
        <ele>392</ele>
        <time>2022-05-01T10:39:29.276Z</time>
      </trkpt>
      <trkpt lat="45.75746" lon="5.91066">
        <ele>393</ele>
        <time>2022-05-01T10:39:30.275Z</time>
      </trkpt>
      <trkpt lat="45.75748" lon="5.91065">
        <ele>393</ele>
        <time>2022-05-01T10:39:31.276Z</time>
      </trkpt>
      <trkpt lat="45.75749" lon="5.91063">
        <ele>393</ele>
        <time>2022-05-01T10:39:32.276Z</time>
      </trkpt>
      <trkpt lat="45.75751" lon="5.91062">
        <ele>394</ele>
        <time>2022-05-01T10:39:33.276Z</time>
      </trkpt>
      <trkpt lat="45.75753" lon="5.91061">
        <ele>394</ele>
        <time>2022-05-01T10:39:34.276Z</time>
      </trkpt>
      <trkpt lat="45.75755" lon="5.9106">
        <ele>394</ele>
        <time>2022-05-01T10:39:35.276Z</time>
      </trkpt>
      <trkpt lat="45.75757" lon="5.91059">
        <ele>394</ele>
        <time>2022-05-01T10:39:36.276Z</time>
      </trkpt>
      <trkpt lat="45.75758" lon="5.91058">
        <ele>394</ele>
        <time>2022-05-01T10:39:37.276Z</time>
      </trkpt>
      <trkpt lat="45.7576" lon="5.91057">
        <ele>394</ele>
        <time>2022-05-01T10:39:38.276Z</time>
      </trkpt>
      <trkpt lat="45.75762" lon="5.91056">
        <ele>394</ele>
        <time>2022-05-01T10:39:39.276Z</time>
      </trkpt>
      <trkpt lat="45.75764" lon="5.91054">
        <ele>395</ele>
        <time>2022-05-01T10:39:40.276Z</time>
      </trkpt>
      <trkpt lat="45.75766" lon="5.91053">
        <ele>395</ele>
        <time>2022-05-01T10:39:41.276Z</time>
      </trkpt>
      <trkpt lat="45.75768" lon="5.91053">
        <ele>395</ele>
        <time>2022-05-01T10:39:42.276Z</time>
      </trkpt>
      <trkpt lat="45.7577" lon="5.91052">
        <ele>395</ele>
        <time>2022-05-01T10:39:43.276Z</time>
      </trkpt>
      <trkpt lat="45.75772" lon="5.91051">
        <ele>395</ele>
        <time>2022-05-01T10:39:44.276Z</time>
      </trkpt>
      <trkpt lat="45.75773" lon="5.9105">
        <ele>396</ele>
        <time>2022-05-01T10:39:45.276Z</time>
      </trkpt>
      <trkpt lat="45.75775" lon="5.9105">
        <ele>396</ele>
        <time>2022-05-01T10:39:46.276Z</time>
      </trkpt>
      <trkpt lat="45.75776" lon="5.9105">
        <ele>396</ele>
        <time>2022-05-01T10:39:47.276Z</time>
      </trkpt>
      <trkpt lat="45.75779" lon="5.91049">
        <ele>396</ele>
        <time>2022-05-01T10:39:48.276Z</time>
      </trkpt>
      <trkpt lat="45.7578" lon="5.91047">
        <ele>396</ele>
        <time>2022-05-01T10:39:49.276Z</time>
      </trkpt>
      <trkpt lat="45.75782" lon="5.91046">
        <ele>397</ele>
        <time>2022-05-01T10:39:50.276Z</time>
      </trkpt>
      <trkpt lat="45.75783" lon="5.91045">
        <ele>397</ele>
        <time>2022-05-01T10:39:51.276Z</time>
      </trkpt>
      <trkpt lat="45.75785" lon="5.91044">
        <ele>397</ele>
        <time>2022-05-01T10:39:52.276Z</time>
      </trkpt>
      <trkpt lat="45.75787" lon="5.91043">
        <ele>397</ele>
        <time>2022-05-01T10:39:53.275Z</time>
      </trkpt>
      <trkpt lat="45.75788" lon="5.91042">
        <ele>397</ele>
        <time>2022-05-01T10:39:54.275Z</time>
      </trkpt>
      <trkpt lat="45.7579" lon="5.91041">
        <ele>397</ele>
        <time>2022-05-01T10:39:55.276Z</time>
      </trkpt>
      <trkpt lat="45.75791" lon="5.9104">
        <ele>397</ele>
        <time>2022-05-01T10:39:56.275Z</time>
      </trkpt>
      <trkpt lat="45.75793" lon="5.91039">
        <ele>398</ele>
        <time>2022-05-01T10:39:57.276Z</time>
      </trkpt>
      <trkpt lat="45.75795" lon="5.91038">
        <ele>398</ele>
        <time>2022-05-01T10:39:58.276Z</time>
      </trkpt>
      <trkpt lat="45.75797" lon="5.91037">
        <ele>398</ele>
        <time>2022-05-01T10:39:59.276Z</time>
      </trkpt>
      <trkpt lat="45.75798" lon="5.91035">
        <ele>398</ele>
        <time>2022-05-01T10:40:00.276Z</time>
      </trkpt>
      <trkpt lat="45.758" lon="5.91034">
        <ele>398</ele>
        <time>2022-05-01T10:40:01.276Z</time>
      </trkpt>
      <trkpt lat="45.75802" lon="5.91034">
        <ele>398</ele>
        <time>2022-05-01T10:40:02.276Z</time>
      </trkpt>
      <trkpt lat="45.75804" lon="5.91033">
        <ele>399</ele>
        <time>2022-05-01T10:40:03.275Z</time>
      </trkpt>
      <trkpt lat="45.75806" lon="5.91032">
        <ele>399</ele>
        <time>2022-05-01T10:40:04.276Z</time>
      </trkpt>
      <trkpt lat="45.75808" lon="5.91031">
        <ele>399</ele>
        <time>2022-05-01T10:40:05.276Z</time>
      </trkpt>
      <trkpt lat="45.75809" lon="5.9103">
        <ele>400</ele>
        <time>2022-05-01T10:40:06.275Z</time>
      </trkpt>
      <trkpt lat="45.7581" lon="5.91028">
        <ele>400</ele>
        <time>2022-05-01T10:40:07.276Z</time>
      </trkpt>
      <trkpt lat="45.75812" lon="5.91028">
        <ele>400</ele>
        <time>2022-05-01T10:40:08.275Z</time>
      </trkpt>
      <trkpt lat="45.75814" lon="5.91028">
        <ele>400</ele>
        <time>2022-05-01T10:40:09.276Z</time>
      </trkpt>
      <trkpt lat="45.75815" lon="5.91026">
        <ele>401</ele>
        <time>2022-05-01T10:40:10.276Z</time>
      </trkpt>
      <trkpt lat="45.75816" lon="5.91024">
        <ele>401</ele>
        <time>2022-05-01T10:40:11.276Z</time>
      </trkpt>
      <trkpt lat="45.75818" lon="5.91023">
        <ele>401</ele>
        <time>2022-05-01T10:40:12.276Z</time>
      </trkpt>
      <trkpt lat="45.75819" lon="5.91022">
        <ele>401</ele>
        <time>2022-05-01T10:40:13.276Z</time>
      </trkpt>
      <trkpt lat="45.75821" lon="5.91021">
        <ele>402</ele>
        <time>2022-05-01T10:40:14.276Z</time>
      </trkpt>
      <trkpt lat="45.75822" lon="5.9102">
        <ele>402</ele>
        <time>2022-05-01T10:40:15.276Z</time>
      </trkpt>
      <trkpt lat="45.75824" lon="5.9102">
        <ele>403</ele>
        <time>2022-05-01T10:40:16.276Z</time>
      </trkpt>
      <trkpt lat="45.75825" lon="5.91019">
        <ele>403</ele>
        <time>2022-05-01T10:40:17.276Z</time>
      </trkpt>
      <trkpt lat="45.75827" lon="5.91018">
        <ele>404</ele>
        <time>2022-05-01T10:40:18.276Z</time>
      </trkpt>
      <trkpt lat="45.75828" lon="5.91017">
        <ele>404</ele>
        <time>2022-05-01T10:40:19.276Z</time>
      </trkpt>
      <trkpt lat="45.7583" lon="5.91017">
        <ele>405</ele>
        <time>2022-05-01T10:40:20.276Z</time>
      </trkpt>
      <trkpt lat="45.75832" lon="5.91015">
        <ele>405</ele>
        <time>2022-05-01T10:40:21.276Z</time>
      </trkpt>
      <trkpt lat="45.75833" lon="5.91013">
        <ele>405</ele>
        <time>2022-05-01T10:40:22.276Z</time>
      </trkpt>
      <trkpt lat="45.75835" lon="5.91013">
        <ele>405</ele>
        <time>2022-05-01T10:40:23.276Z</time>
      </trkpt>
      <trkpt lat="45.75836" lon="5.91012">
        <ele>406</ele>
        <time>2022-05-01T10:40:24.276Z</time>
      </trkpt>
      <trkpt lat="45.75838" lon="5.91012">
        <ele>406</ele>
        <time>2022-05-01T10:40:25.276Z</time>
      </trkpt>
      <trkpt lat="45.75839" lon="5.91011">
        <ele>406</ele>
        <time>2022-05-01T10:40:26.276Z</time>
      </trkpt>
      <trkpt lat="45.75841" lon="5.9101">
        <ele>406</ele>
        <time>2022-05-01T10:40:27.276Z</time>
      </trkpt>
      <trkpt lat="45.75842" lon="5.91008">
        <ele>406</ele>
        <time>2022-05-01T10:40:28.275Z</time>
      </trkpt>
      <trkpt lat="45.75843" lon="5.91007">
        <ele>407</ele>
        <time>2022-05-01T10:40:29.276Z</time>
      </trkpt>
      <trkpt lat="45.75844" lon="5.91006">
        <ele>407</ele>
        <time>2022-05-01T10:40:30.276Z</time>
      </trkpt>
      <trkpt lat="45.75846" lon="5.91006">
        <ele>407</ele>
        <time>2022-05-01T10:40:31.276Z</time>
      </trkpt>
      <trkpt lat="45.75848" lon="5.91005">
        <ele>407</ele>
        <time>2022-05-01T10:40:32.276Z</time>
      </trkpt>
      <trkpt lat="45.75849" lon="5.91004">
        <ele>407</ele>
        <time>2022-05-01T10:40:33.276Z</time>
      </trkpt>
      <trkpt lat="45.7585" lon="5.91004">
        <ele>407</ele>
        <time>2022-05-01T10:40:34.275Z</time>
      </trkpt>
      <trkpt lat="45.75851" lon="5.91002">
        <ele>408</ele>
        <time>2022-05-01T10:40:35.276Z</time>
      </trkpt>
      <trkpt lat="45.75853" lon="5.91001">
        <ele>408</ele>
        <time>2022-05-01T10:40:36.276Z</time>
      </trkpt>
      <trkpt lat="45.75854" lon="5.91">
        <ele>408</ele>
        <time>2022-05-01T10:40:37.276Z</time>
      </trkpt>
      <trkpt lat="45.75856" lon="5.90999">
        <ele>409</ele>
        <time>2022-05-01T10:40:38.275Z</time>
      </trkpt>
      <trkpt lat="45.75857" lon="5.90999">
        <ele>409</ele>
        <time>2022-05-01T10:40:39.275Z</time>
      </trkpt>
      <trkpt lat="45.75858" lon="5.90998">
        <ele>410</ele>
        <time>2022-05-01T10:40:40.276Z</time>
      </trkpt>
      <trkpt lat="45.7586" lon="5.90998">
        <ele>410</ele>
        <time>2022-05-01T10:40:41.276Z</time>
      </trkpt>
      <trkpt lat="45.75861" lon="5.90997">
        <ele>411</ele>
        <time>2022-05-01T10:40:42.276Z</time>
      </trkpt>
      <trkpt lat="45.75863" lon="5.90997">
        <ele>412</ele>
        <time>2022-05-01T10:40:43.276Z</time>
      </trkpt>
      <trkpt lat="45.75864" lon="5.90996">
        <ele>413</ele>
        <time>2022-05-01T10:40:44.276Z</time>
      </trkpt>
      <trkpt lat="45.75866" lon="5.90995">
        <ele>413</ele>
        <time>2022-05-01T10:40:45.275Z</time>
      </trkpt>
      <trkpt lat="45.75868" lon="5.90994">
        <ele>414</ele>
        <time>2022-05-01T10:40:46.276Z</time>
      </trkpt>
      <trkpt lat="45.75869" lon="5.90993">
        <ele>414</ele>
        <time>2022-05-01T10:40:47.276Z</time>
      </trkpt>
      <trkpt lat="45.75871" lon="5.90991">
        <ele>415</ele>
        <time>2022-05-01T10:40:48.275Z</time>
      </trkpt>
      <trkpt lat="45.75872" lon="5.9099">
        <ele>416</ele>
        <time>2022-05-01T10:40:49.276Z</time>
      </trkpt>
      <trkpt lat="45.75873" lon="5.90989">
        <ele>416</ele>
        <time>2022-05-01T10:40:50.276Z</time>
      </trkpt>
      <trkpt lat="45.75874" lon="5.90989">
        <ele>416</ele>
        <time>2022-05-01T10:40:51.275Z</time>
      </trkpt>
      <trkpt lat="45.75876" lon="5.90987">
        <ele>417</ele>
        <time>2022-05-01T10:40:52.276Z</time>
      </trkpt>
      <trkpt lat="45.75879" lon="5.90986">
        <ele>417</ele>
        <time>2022-05-01T10:40:53.275Z</time>
      </trkpt>
      <trkpt lat="45.75881" lon="5.90986">
        <ele>417</ele>
        <time>2022-05-01T10:40:54.276Z</time>
      </trkpt>
      <trkpt lat="45.75884" lon="5.90984">
        <ele>417</ele>
        <time>2022-05-01T10:40:55.276Z</time>
      </trkpt>
      <trkpt lat="45.75885" lon="5.90984">
        <ele>417</ele>
        <time>2022-05-01T10:40:56.276Z</time>
      </trkpt>
      <trkpt lat="45.75887" lon="5.90983">
        <ele>417</ele>
        <time>2022-05-01T10:40:57.276Z</time>
      </trkpt>
      <trkpt lat="45.75888" lon="5.90982">
        <ele>416</ele>
        <time>2022-05-01T10:40:58.276Z</time>
      </trkpt>
      <trkpt lat="45.75889" lon="5.90982">
        <ele>416</ele>
        <time>2022-05-01T10:40:59.276Z</time>
      </trkpt>
      <trkpt lat="45.7589" lon="5.90982">
        <ele>415</ele>
        <time>2022-05-01T10:41:00.276Z</time>
      </trkpt>
      <trkpt lat="45.75891" lon="5.90982">
        <ele>415</ele>
        <time>2022-05-01T10:41:01.275Z</time>
      </trkpt>
      <trkpt lat="45.75892" lon="5.90982">
        <ele>414</ele>
        <time>2022-05-01T10:41:02.276Z</time>
      </trkpt>
      <trkpt lat="45.75893" lon="5.90981">
        <ele>414</ele>
        <time>2022-05-01T10:41:03.276Z</time>
      </trkpt>
      <trkpt lat="45.75895" lon="5.90981">
        <ele>414</ele>
        <time>2022-05-01T10:41:04.276Z</time>
      </trkpt>
      <trkpt lat="45.75897" lon="5.9098">
        <ele>414</ele>
        <time>2022-05-01T10:41:05.276Z</time>
      </trkpt>
      <trkpt lat="45.75898" lon="5.90979">
        <ele>414</ele>
        <time>2022-05-01T10:41:06.275Z</time>
      </trkpt>
      <trkpt lat="45.75901" lon="5.90978">
        <ele>414</ele>
        <time>2022-05-01T10:41:07.276Z</time>
      </trkpt>
      <trkpt lat="45.75903" lon="5.90977">
        <ele>414</ele>
        <time>2022-05-01T10:41:08.276Z</time>
      </trkpt>
      <trkpt lat="45.75905" lon="5.90976">
        <ele>414</ele>
        <time>2022-05-01T10:41:09.276Z</time>
      </trkpt>
      <trkpt lat="45.75907" lon="5.90976">
        <ele>414</ele>
        <time>2022-05-01T10:41:10.276Z</time>
      </trkpt>
      <trkpt lat="45.75909" lon="5.90975">
        <ele>415</ele>
        <time>2022-05-01T10:41:11.276Z</time>
      </trkpt>
      <trkpt lat="45.75911" lon="5.90974">
        <ele>415</ele>
        <time>2022-05-01T10:41:12.275Z</time>
      </trkpt>
      <trkpt lat="45.75912" lon="5.90973">
        <ele>416</ele>
        <time>2022-05-01T10:41:13.276Z</time>
      </trkpt>
      <trkpt lat="45.75914" lon="5.90973">
        <ele>417</ele>
        <time>2022-05-01T10:41:14.275Z</time>
      </trkpt>
      <trkpt lat="45.75915" lon="5.90972">
        <ele>417</ele>
        <time>2022-05-01T10:41:15.276Z</time>
      </trkpt>
      <trkpt lat="45.75917" lon="5.90971">
        <ele>418</ele>
        <time>2022-05-01T10:41:16.276Z</time>
      </trkpt>
      <trkpt lat="45.75919" lon="5.90971">
        <ele>418</ele>
        <time>2022-05-01T10:41:17.275Z</time>
      </trkpt>
      <trkpt lat="45.7592" lon="5.9097">
        <ele>418</ele>
        <time>2022-05-01T10:41:18.276Z</time>
      </trkpt>
      <trkpt lat="45.75922" lon="5.90969">
        <ele>419</ele>
        <time>2022-05-01T10:41:19.276Z</time>
      </trkpt>
      <trkpt lat="45.75924" lon="5.90968">
        <ele>419</ele>
        <time>2022-05-01T10:41:20.275Z</time>
      </trkpt>
      <trkpt lat="45.75926" lon="5.90967">
        <ele>419</ele>
        <time>2022-05-01T10:41:21.275Z</time>
      </trkpt>
      <trkpt lat="45.75928" lon="5.90966">
        <ele>418</ele>
        <time>2022-05-01T10:41:22.276Z</time>
      </trkpt>
      <trkpt lat="45.7593" lon="5.90965">
        <ele>418</ele>
        <time>2022-05-01T10:41:23.276Z</time>
      </trkpt>
      <trkpt lat="45.75932" lon="5.90964">
        <ele>418</ele>
        <time>2022-05-01T10:41:24.276Z</time>
      </trkpt>
      <trkpt lat="45.75934" lon="5.90963">
        <ele>417</ele>
        <time>2022-05-01T10:41:25.276Z</time>
      </trkpt>
      <trkpt lat="45.75936" lon="5.90962">
        <ele>417</ele>
        <time>2022-05-01T10:41:26.275Z</time>
      </trkpt>
      <trkpt lat="45.75937" lon="5.90961">
        <ele>416</ele>
        <time>2022-05-01T10:41:27.276Z</time>
      </trkpt>
      <trkpt lat="45.75938" lon="5.90961">
        <ele>416</ele>
        <time>2022-05-01T10:41:28.276Z</time>
      </trkpt>
      <trkpt lat="45.75939" lon="5.9096">
        <ele>416</ele>
        <time>2022-05-01T10:41:29.276Z</time>
      </trkpt>
      <trkpt lat="45.75942" lon="5.9096">
        <ele>416</ele>
        <time>2022-05-01T10:41:30.276Z</time>
      </trkpt>
      <trkpt lat="45.75945" lon="5.9096">
        <ele>416</ele>
        <time>2022-05-01T10:41:31.276Z</time>
      </trkpt>
      <trkpt lat="45.75948" lon="5.9096">
        <ele>416</ele>
        <time>2022-05-01T10:41:32.276Z</time>
      </trkpt>
      <trkpt lat="45.75951" lon="5.90959">
        <ele>416</ele>
        <time>2022-05-01T10:41:33.276Z</time>
      </trkpt>
      <trkpt lat="45.75952" lon="5.90958">
        <ele>415</ele>
        <time>2022-05-01T10:41:34.276Z</time>
      </trkpt>
      <trkpt lat="45.75954" lon="5.90957">
        <ele>415</ele>
        <time>2022-05-01T10:41:35.276Z</time>
      </trkpt>
      <trkpt lat="45.75955" lon="5.90955">
        <ele>414</ele>
        <time>2022-05-01T10:41:36.276Z</time>
      </trkpt>
      <trkpt lat="45.75957" lon="5.90954">
        <ele>413</ele>
        <time>2022-05-01T10:41:37.276Z</time>
      </trkpt>
      <trkpt lat="45.75959" lon="5.90953">
        <ele>413</ele>
        <time>2022-05-01T10:41:38.275Z</time>
      </trkpt>
      <trkpt lat="45.7596" lon="5.90953">
        <ele>413</ele>
        <time>2022-05-01T10:41:39.276Z</time>
      </trkpt>
      <trkpt lat="45.75962" lon="5.90952">
        <ele>412</ele>
        <time>2022-05-01T10:41:40.275Z</time>
      </trkpt>
      <trkpt lat="45.75963" lon="5.90951">
        <ele>412</ele>
        <time>2022-05-01T10:41:41.276Z</time>
      </trkpt>
      <trkpt lat="45.75964" lon="5.9095">
        <ele>412</ele>
        <time>2022-05-01T10:41:42.276Z</time>
      </trkpt>
      <trkpt lat="45.75966" lon="5.90949">
        <ele>412</ele>
        <time>2022-05-01T10:41:43.276Z</time>
      </trkpt>
      <trkpt lat="45.75967" lon="5.90948">
        <ele>412</ele>
        <time>2022-05-01T10:41:44.276Z</time>
      </trkpt>
      <trkpt lat="45.75968" lon="5.90948">
        <ele>412</ele>
        <time>2022-05-01T10:41:45.276Z</time>
      </trkpt>
      <trkpt lat="45.7597" lon="5.90947">
        <ele>412</ele>
        <time>2022-05-01T10:41:46.276Z</time>
      </trkpt>
      <trkpt lat="45.75973" lon="5.90946">
        <ele>412</ele>
        <time>2022-05-01T10:41:47.276Z</time>
      </trkpt>
      <trkpt lat="45.75975" lon="5.90945">
        <ele>412</ele>
        <time>2022-05-01T10:41:48.276Z</time>
      </trkpt>
      <trkpt lat="45.75977" lon="5.90944">
        <ele>412</ele>
        <time>2022-05-01T10:41:49.276Z</time>
      </trkpt>
      <trkpt lat="45.75978" lon="5.90943">
        <ele>411</ele>
        <time>2022-05-01T10:41:50.276Z</time>
      </trkpt>
      <trkpt lat="45.7598" lon="5.90942">
        <ele>411</ele>
        <time>2022-05-01T10:41:51.276Z</time>
      </trkpt>
      <trkpt lat="45.75982" lon="5.90941">
        <ele>411</ele>
        <time>2022-05-01T10:41:52.276Z</time>
      </trkpt>
      <trkpt lat="45.75983" lon="5.9094">
        <ele>410</ele>
        <time>2022-05-01T10:41:53.276Z</time>
      </trkpt>
      <trkpt lat="45.75984" lon="5.90939">
        <ele>410</ele>
        <time>2022-05-01T10:41:54.276Z</time>
      </trkpt>
      <trkpt lat="45.75985" lon="5.90939">
        <ele>410</ele>
        <time>2022-05-01T10:41:55.276Z</time>
      </trkpt>
      <trkpt lat="45.75987" lon="5.90938">
        <ele>409</ele>
        <time>2022-05-01T10:41:56.276Z</time>
      </trkpt>
      <trkpt lat="45.75989" lon="5.90937">
        <ele>409</ele>
        <time>2022-05-01T10:41:57.275Z</time>
      </trkpt>
      <trkpt lat="45.7599" lon="5.90936">
        <ele>409</ele>
        <time>2022-05-01T10:41:58.276Z</time>
      </trkpt>
      <trkpt lat="45.75992" lon="5.90935">
        <ele>408</ele>
        <time>2022-05-01T10:41:59.276Z</time>
      </trkpt>
      <trkpt lat="45.75994" lon="5.90934">
        <ele>408</ele>
        <time>2022-05-01T10:42:00.276Z</time>
      </trkpt>
      <trkpt lat="45.75997" lon="5.90933">
        <ele>407</ele>
        <time>2022-05-01T10:42:01.276Z</time>
      </trkpt>
      <trkpt lat="45.75999" lon="5.90932">
        <ele>407</ele>
        <time>2022-05-01T10:42:02.276Z</time>
      </trkpt>
      <trkpt lat="45.76001" lon="5.90931">
        <ele>407</ele>
        <time>2022-05-01T10:42:03.276Z</time>
      </trkpt>
      <trkpt lat="45.76002" lon="5.9093">
        <ele>407</ele>
        <time>2022-05-01T10:42:04.276Z</time>
      </trkpt>
      <trkpt lat="45.76004" lon="5.90929">
        <ele>407</ele>
        <time>2022-05-01T10:42:05.276Z</time>
      </trkpt>
      <trkpt lat="45.76006" lon="5.90928">
        <ele>407</ele>
        <time>2022-05-01T10:42:06.276Z</time>
      </trkpt>
      <trkpt lat="45.76008" lon="5.90926">
        <ele>408</ele>
        <time>2022-05-01T10:42:07.276Z</time>
      </trkpt>
      <trkpt lat="45.7601" lon="5.90924">
        <ele>408</ele>
        <time>2022-05-01T10:42:08.276Z</time>
      </trkpt>
      <trkpt lat="45.76011" lon="5.90922">
        <ele>408</ele>
        <time>2022-05-01T10:42:09.276Z</time>
      </trkpt>
      <trkpt lat="45.76013" lon="5.90921">
        <ele>409</ele>
        <time>2022-05-01T10:42:10.276Z</time>
      </trkpt>
      <trkpt lat="45.76015" lon="5.9092">
        <ele>409</ele>
        <time>2022-05-01T10:42:11.276Z</time>
      </trkpt>
      <trkpt lat="45.76017" lon="5.90918">
        <ele>409</ele>
        <time>2022-05-01T10:42:12.276Z</time>
      </trkpt>
      <trkpt lat="45.76019" lon="5.90917">
        <ele>410</ele>
        <time>2022-05-01T10:42:13.276Z</time>
      </trkpt>
      <trkpt lat="45.76021" lon="5.90915">
        <ele>411</ele>
        <time>2022-05-01T10:42:14.275Z</time>
      </trkpt>
      <trkpt lat="45.76024" lon="5.90914">
        <ele>411</ele>
        <time>2022-05-01T10:42:15.276Z</time>
      </trkpt>
      <trkpt lat="45.76026" lon="5.90913">
        <ele>412</ele>
        <time>2022-05-01T10:42:16.276Z</time>
      </trkpt>
      <trkpt lat="45.76029" lon="5.90911">
        <ele>413</ele>
        <time>2022-05-01T10:42:17.276Z</time>
      </trkpt>
      <trkpt lat="45.76033" lon="5.90909">
        <ele>414</ele>
        <time>2022-05-01T10:42:18.276Z</time>
      </trkpt>
      <trkpt lat="45.76035" lon="5.90908">
        <ele>415</ele>
        <time>2022-05-01T10:42:19.276Z</time>
      </trkpt>
      <trkpt lat="45.76037" lon="5.90907">
        <ele>415</ele>
        <time>2022-05-01T10:42:20.276Z</time>
      </trkpt>
      <trkpt lat="45.76039" lon="5.90905">
        <ele>416</ele>
        <time>2022-05-01T10:42:21.275Z</time>
      </trkpt>
      <trkpt lat="45.76042" lon="5.90903">
        <ele>416</ele>
        <time>2022-05-01T10:42:22.276Z</time>
      </trkpt>
      <trkpt lat="45.76044" lon="5.90901">
        <ele>416</ele>
        <time>2022-05-01T10:42:23.276Z</time>
      </trkpt>
      <trkpt lat="45.76046" lon="5.90899">
        <ele>416</ele>
        <time>2022-05-01T10:42:24.276Z</time>
      </trkpt>
      <trkpt lat="45.76048" lon="5.90897">
        <ele>416</ele>
        <time>2022-05-01T10:42:25.276Z</time>
      </trkpt>
      <trkpt lat="45.76051" lon="5.90895">
        <ele>416</ele>
        <time>2022-05-01T10:42:26.276Z</time>
      </trkpt>
      <trkpt lat="45.76053" lon="5.90893">
        <ele>416</ele>
        <time>2022-05-01T10:42:27.276Z</time>
      </trkpt>
      <trkpt lat="45.76056" lon="5.90891">
        <ele>416</ele>
        <time>2022-05-01T10:42:28.276Z</time>
      </trkpt>
      <trkpt lat="45.76058" lon="5.9089">
        <ele>416</ele>
        <time>2022-05-01T10:42:29.276Z</time>
      </trkpt>
      <trkpt lat="45.7606" lon="5.90888">
        <ele>416</ele>
        <time>2022-05-01T10:42:30.276Z</time>
      </trkpt>
      <trkpt lat="45.76062" lon="5.90886">
        <ele>416</ele>
        <time>2022-05-01T10:42:31.276Z</time>
      </trkpt>
      <trkpt lat="45.76065" lon="5.90884">
        <ele>416</ele>
        <time>2022-05-01T10:42:32.276Z</time>
      </trkpt>
      <trkpt lat="45.76067" lon="5.90882">
        <ele>416</ele>
        <time>2022-05-01T10:42:33.276Z</time>
      </trkpt>
      <trkpt lat="45.7607" lon="5.9088">
        <ele>416</ele>
        <time>2022-05-01T10:42:34.276Z</time>
      </trkpt>
      <trkpt lat="45.76072" lon="5.90879">
        <ele>417</ele>
        <time>2022-05-01T10:42:35.275Z</time>
      </trkpt>
      <trkpt lat="45.76075" lon="5.90877">
        <ele>417</ele>
        <time>2022-05-01T10:42:36.276Z</time>
      </trkpt>
      <trkpt lat="45.76078" lon="5.90875">
        <ele>418</ele>
        <time>2022-05-01T10:42:37.276Z</time>
      </trkpt>
      <trkpt lat="45.76081" lon="5.90873">
        <ele>418</ele>
        <time>2022-05-01T10:42:38.276Z</time>
      </trkpt>
      <trkpt lat="45.76083" lon="5.90871">
        <ele>418</ele>
        <time>2022-05-01T10:42:39.276Z</time>
      </trkpt>
      <trkpt lat="45.76086" lon="5.90869">
        <ele>418</ele>
        <time>2022-05-01T10:42:40.276Z</time>
      </trkpt>
      <trkpt lat="45.76089" lon="5.90867">
        <ele>419</ele>
        <time>2022-05-01T10:42:41.275Z</time>
      </trkpt>
      <trkpt lat="45.76092" lon="5.90865">
        <ele>419</ele>
        <time>2022-05-01T10:42:42.276Z</time>
      </trkpt>
      <trkpt lat="45.76094" lon="5.90862">
        <ele>419</ele>
        <time>2022-05-01T10:42:43.276Z</time>
      </trkpt>
      <trkpt lat="45.76097" lon="5.9086">
        <ele>419</ele>
        <time>2022-05-01T10:42:44.276Z</time>
      </trkpt>
      <trkpt lat="45.76099" lon="5.90858">
        <ele>419</ele>
        <time>2022-05-01T10:42:45.276Z</time>
      </trkpt>
      <trkpt lat="45.761" lon="5.90857">
        <ele>418</ele>
        <time>2022-05-01T10:42:46.276Z</time>
      </trkpt>
      <trkpt lat="45.76103" lon="5.90856">
        <ele>418</ele>
        <time>2022-05-01T10:42:47.276Z</time>
      </trkpt>
      <trkpt lat="45.76105" lon="5.90855">
        <ele>418</ele>
        <time>2022-05-01T10:42:48.276Z</time>
      </trkpt>
      <trkpt lat="45.76107" lon="5.90853">
        <ele>418</ele>
        <time>2022-05-01T10:42:49.276Z</time>
      </trkpt>
      <trkpt lat="45.76109" lon="5.90851">
        <ele>418</ele>
        <time>2022-05-01T10:42:50.276Z</time>
      </trkpt>
      <trkpt lat="45.76112" lon="5.90849">
        <ele>417</ele>
        <time>2022-05-01T10:42:51.276Z</time>
      </trkpt>
      <trkpt lat="45.76115" lon="5.90847">
        <ele>417</ele>
        <time>2022-05-01T10:42:52.276Z</time>
      </trkpt>
      <trkpt lat="45.76118" lon="5.90843">
        <ele>417</ele>
        <time>2022-05-01T10:42:53.276Z</time>
      </trkpt>
      <trkpt lat="45.76121" lon="5.9084">
        <ele>417</ele>
        <time>2022-05-01T10:42:54.275Z</time>
      </trkpt>
      <trkpt lat="45.76123" lon="5.90838">
        <ele>417</ele>
        <time>2022-05-01T10:42:55.276Z</time>
      </trkpt>
      <trkpt lat="45.76125" lon="5.90835">
        <ele>417</ele>
        <time>2022-05-01T10:42:56.276Z</time>
      </trkpt>
      <trkpt lat="45.76128" lon="5.90833">
        <ele>417</ele>
        <time>2022-05-01T10:42:57.276Z</time>
      </trkpt>
      <trkpt lat="45.76131" lon="5.90831">
        <ele>417</ele>
        <time>2022-05-01T10:42:58.276Z</time>
      </trkpt>
      <trkpt lat="45.76134" lon="5.90829">
        <ele>417</ele>
        <time>2022-05-01T10:42:59.276Z</time>
      </trkpt>
      <trkpt lat="45.76137" lon="5.90826">
        <ele>417</ele>
        <time>2022-05-01T10:43:00.276Z</time>
      </trkpt>
      <trkpt lat="45.7614" lon="5.90825">
        <ele>418</ele>
        <time>2022-05-01T10:43:01.275Z</time>
      </trkpt>
      <trkpt lat="45.76144" lon="5.90823">
        <ele>418</ele>
        <time>2022-05-01T10:43:02.276Z</time>
      </trkpt>
      <trkpt lat="45.76147" lon="5.90822">
        <ele>419</ele>
        <time>2022-05-01T10:43:03.276Z</time>
      </trkpt>
      <trkpt lat="45.7615" lon="5.90819">
        <ele>419</ele>
        <time>2022-05-01T10:43:04.276Z</time>
      </trkpt>
      <trkpt lat="45.76153" lon="5.90817">
        <ele>419</ele>
        <time>2022-05-01T10:43:05.276Z</time>
      </trkpt>
      <trkpt lat="45.76156" lon="5.90815">
        <ele>420</ele>
        <time>2022-05-01T10:43:06.276Z</time>
      </trkpt>
      <trkpt lat="45.76159" lon="5.90814">
        <ele>420</ele>
        <time>2022-05-01T10:43:07.276Z</time>
      </trkpt>
      <trkpt lat="45.76161" lon="5.90812">
        <ele>420</ele>
        <time>2022-05-01T10:43:08.275Z</time>
      </trkpt>
      <trkpt lat="45.76166" lon="5.90812">
        <ele>421</ele>
        <time>2022-05-01T10:43:09.276Z</time>
      </trkpt>
      <trkpt lat="45.76168" lon="5.9081">
        <ele>421</ele>
        <time>2022-05-01T10:43:10.276Z</time>
      </trkpt>
      <trkpt lat="45.76171" lon="5.90808">
        <ele>422</ele>
        <time>2022-05-01T10:43:11.275Z</time>
      </trkpt>
      <trkpt lat="45.76173" lon="5.90806">
        <ele>422</ele>
        <time>2022-05-01T10:43:12.276Z</time>
      </trkpt>
      <trkpt lat="45.76176" lon="5.90803">
        <ele>422</ele>
        <time>2022-05-01T10:43:13.275Z</time>
      </trkpt>
      <trkpt lat="45.76179" lon="5.90802">
        <ele>422</ele>
        <time>2022-05-01T10:43:14.276Z</time>
      </trkpt>
      <trkpt lat="45.76183" lon="5.908">
        <ele>423</ele>
        <time>2022-05-01T10:43:15.276Z</time>
      </trkpt>
      <trkpt lat="45.76186" lon="5.90799">
        <ele>423</ele>
        <time>2022-05-01T10:43:16.276Z</time>
      </trkpt>
      <trkpt lat="45.76189" lon="5.90797">
        <ele>423</ele>
        <time>2022-05-01T10:43:17.275Z</time>
      </trkpt>
      <trkpt lat="45.76191" lon="5.90797">
        <ele>422</ele>
        <time>2022-05-01T10:43:18.276Z</time>
      </trkpt>
      <trkpt lat="45.76193" lon="5.90798">
        <ele>422</ele>
        <time>2022-05-01T10:43:19.275Z</time>
      </trkpt>
      <trkpt lat="45.76195" lon="5.90799">
        <ele>422</ele>
        <time>2022-05-01T10:43:20.276Z</time>
      </trkpt>
      <trkpt lat="45.76198" lon="5.90802">
        <ele>421</ele>
        <time>2022-05-01T10:43:21.276Z</time>
      </trkpt>
      <trkpt lat="45.762" lon="5.90805">
        <ele>421</ele>
        <time>2022-05-01T10:43:22.276Z</time>
      </trkpt>
      <trkpt lat="45.76203" lon="5.90809">
        <ele>420</ele>
        <time>2022-05-01T10:43:23.275Z</time>
      </trkpt>
      <trkpt lat="45.76205" lon="5.90814">
        <ele>420</ele>
        <time>2022-05-01T10:43:24.276Z</time>
      </trkpt>
      <trkpt lat="45.76207" lon="5.90818">
        <ele>419</ele>
        <time>2022-05-01T10:43:25.276Z</time>
      </trkpt>
      <trkpt lat="45.76209" lon="5.90823">
        <ele>419</ele>
        <time>2022-05-01T10:43:26.276Z</time>
      </trkpt>
      <trkpt lat="45.76211" lon="5.9083">
        <ele>418</ele>
        <time>2022-05-01T10:43:27.276Z</time>
      </trkpt>
      <trkpt lat="45.76212" lon="5.90835">
        <ele>417</ele>
        <time>2022-05-01T10:43:28.276Z</time>
      </trkpt>
      <trkpt lat="45.76215" lon="5.90841">
        <ele>417</ele>
        <time>2022-05-01T10:43:29.275Z</time>
      </trkpt>
      <trkpt lat="45.76216" lon="5.90846">
        <ele>417</ele>
        <time>2022-05-01T10:43:30.276Z</time>
      </trkpt>
      <trkpt lat="45.76217" lon="5.90852">
        <ele>416</ele>
        <time>2022-05-01T10:43:31.276Z</time>
      </trkpt>
      <trkpt lat="45.76218" lon="5.90858">
        <ele>416</ele>
        <time>2022-05-01T10:43:32.275Z</time>
      </trkpt>
      <trkpt lat="45.7622" lon="5.90863">
        <ele>416</ele>
        <time>2022-05-01T10:43:33.275Z</time>
      </trkpt>
      <trkpt lat="45.76222" lon="5.90868">
        <ele>416</ele>
        <time>2022-05-01T10:43:34.276Z</time>
      </trkpt>
      <trkpt lat="45.76223" lon="5.90873">
        <ele>416</ele>
        <time>2022-05-01T10:43:35.276Z</time>
      </trkpt>
      <trkpt lat="45.76225" lon="5.90878">
        <ele>416</ele>
        <time>2022-05-01T10:43:36.276Z</time>
      </trkpt>
      <trkpt lat="45.76227" lon="5.90883">
        <ele>416</ele>
        <time>2022-05-01T10:43:37.276Z</time>
      </trkpt>
      <trkpt lat="45.76229" lon="5.90888">
        <ele>416</ele>
        <time>2022-05-01T10:43:38.276Z</time>
      </trkpt>
      <trkpt lat="45.76231" lon="5.90893">
        <ele>415</ele>
        <time>2022-05-01T10:43:39.276Z</time>
      </trkpt>
      <trkpt lat="45.76232" lon="5.90898">
        <ele>415</ele>
        <time>2022-05-01T10:43:40.276Z</time>
      </trkpt>
      <trkpt lat="45.76234" lon="5.90902">
        <ele>415</ele>
        <time>2022-05-01T10:43:41.276Z</time>
      </trkpt>
      <trkpt lat="45.76235" lon="5.90907">
        <ele>415</ele>
        <time>2022-05-01T10:43:42.276Z</time>
      </trkpt>
      <trkpt lat="45.76237" lon="5.90912">
        <ele>415</ele>
        <time>2022-05-01T10:43:43.276Z</time>
      </trkpt>
      <trkpt lat="45.76239" lon="5.90917">
        <ele>415</ele>
        <time>2022-05-01T10:43:44.275Z</time>
      </trkpt>
      <trkpt lat="45.76241" lon="5.90922">
        <ele>415</ele>
        <time>2022-05-01T10:43:45.276Z</time>
      </trkpt>
      <trkpt lat="45.76243" lon="5.90927">
        <ele>415</ele>
        <time>2022-05-01T10:43:46.275Z</time>
      </trkpt>
      <trkpt lat="45.76245" lon="5.90931">
        <ele>415</ele>
        <time>2022-05-01T10:43:47.276Z</time>
      </trkpt>
      <trkpt lat="45.76247" lon="5.90936">
        <ele>415</ele>
        <time>2022-05-01T10:43:48.276Z</time>
      </trkpt>
      <trkpt lat="45.76249" lon="5.90941">
        <ele>415</ele>
        <time>2022-05-01T10:43:49.276Z</time>
      </trkpt>
      <trkpt lat="45.7625" lon="5.90946">
        <ele>414</ele>
        <time>2022-05-01T10:43:50.275Z</time>
      </trkpt>
      <trkpt lat="45.76252" lon="5.90951">
        <ele>414</ele>
        <time>2022-05-01T10:43:51.276Z</time>
      </trkpt>
      <trkpt lat="45.76255" lon="5.90955">
        <ele>414</ele>
        <time>2022-05-01T10:43:52.276Z</time>
      </trkpt>
      <trkpt lat="45.76257" lon="5.9096">
        <ele>413</ele>
        <time>2022-05-01T10:43:53.276Z</time>
      </trkpt>
      <trkpt lat="45.7626" lon="5.90964">
        <ele>413</ele>
        <time>2022-05-01T10:43:54.276Z</time>
      </trkpt>
      <trkpt lat="45.76263" lon="5.90968">
        <ele>413</ele>
        <time>2022-05-01T10:43:55.276Z</time>
      </trkpt>
      <trkpt lat="45.76267" lon="5.9097">
        <ele>412</ele>
        <time>2022-05-01T10:43:56.276Z</time>
      </trkpt>
      <trkpt lat="45.76272" lon="5.90972">
        <ele>412</ele>
        <time>2022-05-01T10:43:57.275Z</time>
      </trkpt>
      <trkpt lat="45.76276" lon="5.90973">
        <ele>412</ele>
        <time>2022-05-01T10:43:58.276Z</time>
      </trkpt>
      <trkpt lat="45.76281" lon="5.90973">
        <ele>412</ele>
        <time>2022-05-01T10:43:59.275Z</time>
      </trkpt>
      <trkpt lat="45.76286" lon="5.90973">
        <ele>412</ele>
        <time>2022-05-01T10:44:00.276Z</time>
      </trkpt>
      <trkpt lat="45.76291" lon="5.90972">
        <ele>412</ele>
        <time>2022-05-01T10:44:01.276Z</time>
      </trkpt>
      <trkpt lat="45.76297" lon="5.9097">
        <ele>413</ele>
        <time>2022-05-01T10:44:02.275Z</time>
      </trkpt>
      <trkpt lat="45.76302" lon="5.90969">
        <ele>412</ele>
        <time>2022-05-01T10:44:03.276Z</time>
      </trkpt>
      <trkpt lat="45.76307" lon="5.90969">
        <ele>412</ele>
        <time>2022-05-01T10:44:04.276Z</time>
      </trkpt>
      <trkpt lat="45.76312" lon="5.90969">
        <ele>412</ele>
        <time>2022-05-01T10:44:05.276Z</time>
      </trkpt>
      <trkpt lat="45.76316" lon="5.90967">
        <ele>412</ele>
        <time>2022-05-01T10:44:06.276Z</time>
      </trkpt>
      <trkpt lat="45.76321" lon="5.90966">
        <ele>412</ele>
        <time>2022-05-01T10:44:07.276Z</time>
      </trkpt>
      <trkpt lat="45.76325" lon="5.90965">
        <ele>412</ele>
        <time>2022-05-01T10:44:08.276Z</time>
      </trkpt>
      <trkpt lat="45.76328" lon="5.90965">
        <ele>412</ele>
        <time>2022-05-01T10:44:09.276Z</time>
      </trkpt>
      <trkpt lat="45.76332" lon="5.90964">
        <ele>412</ele>
        <time>2022-05-01T10:44:10.275Z</time>
      </trkpt>
      <trkpt lat="45.76336" lon="5.90964">
        <ele>412</ele>
        <time>2022-05-01T10:44:11.276Z</time>
      </trkpt>
      <trkpt lat="45.7634" lon="5.90963">
        <ele>412</ele>
        <time>2022-05-01T10:44:12.276Z</time>
      </trkpt>
      <trkpt lat="45.76344" lon="5.90963">
        <ele>412</ele>
        <time>2022-05-01T10:44:13.276Z</time>
      </trkpt>
      <trkpt lat="45.76348" lon="5.90963">
        <ele>412</ele>
        <time>2022-05-01T10:44:14.276Z</time>
      </trkpt>
      <trkpt lat="45.76352" lon="5.90962">
        <ele>412</ele>
        <time>2022-05-01T10:44:15.276Z</time>
      </trkpt>
      <trkpt lat="45.76356" lon="5.90963">
        <ele>412</ele>
        <time>2022-05-01T10:44:16.275Z</time>
      </trkpt>
      <trkpt lat="45.7636" lon="5.90963">
        <ele>412</ele>
        <time>2022-05-01T10:44:17.275Z</time>
      </trkpt>
      <trkpt lat="45.76364" lon="5.90963">
        <ele>412</ele>
        <time>2022-05-01T10:44:18.276Z</time>
      </trkpt>
      <trkpt lat="45.76367" lon="5.90964">
        <ele>412</ele>
        <time>2022-05-01T10:44:19.276Z</time>
      </trkpt>
      <trkpt lat="45.76371" lon="5.90965">
        <ele>412</ele>
        <time>2022-05-01T10:44:20.276Z</time>
      </trkpt>
      <trkpt lat="45.76375" lon="5.90966">
        <ele>412</ele>
        <time>2022-05-01T10:44:21.276Z</time>
      </trkpt>
      <trkpt lat="45.76378" lon="5.90967">
        <ele>411</ele>
        <time>2022-05-01T10:44:22.276Z</time>
      </trkpt>
      <trkpt lat="45.76382" lon="5.90968">
        <ele>411</ele>
        <time>2022-05-01T10:44:23.276Z</time>
      </trkpt>
      <trkpt lat="45.76385" lon="5.9097">
        <ele>411</ele>
        <time>2022-05-01T10:44:24.276Z</time>
      </trkpt>
      <trkpt lat="45.76388" lon="5.90971">
        <ele>411</ele>
        <time>2022-05-01T10:44:25.275Z</time>
      </trkpt>
      <trkpt lat="45.76392" lon="5.90972">
        <ele>411</ele>
        <time>2022-05-01T10:44:26.276Z</time>
      </trkpt>
      <trkpt lat="45.76395" lon="5.90974">
        <ele>411</ele>
        <time>2022-05-01T10:44:27.276Z</time>
      </trkpt>
      <trkpt lat="45.76398" lon="5.90976">
        <ele>411</ele>
        <time>2022-05-01T10:44:28.276Z</time>
      </trkpt>
      <trkpt lat="45.76401" lon="5.90978">
        <ele>411</ele>
        <time>2022-05-01T10:44:29.276Z</time>
      </trkpt>
      <trkpt lat="45.76404" lon="5.90979">
        <ele>411</ele>
        <time>2022-05-01T10:44:30.276Z</time>
      </trkpt>
      <trkpt lat="45.76408" lon="5.90981">
        <ele>411</ele>
        <time>2022-05-01T10:44:31.275Z</time>
      </trkpt>
      <trkpt lat="45.76411" lon="5.90984">
        <ele>411</ele>
        <time>2022-05-01T10:44:32.276Z</time>
      </trkpt>
      <trkpt lat="45.76414" lon="5.90986">
        <ele>411</ele>
        <time>2022-05-01T10:44:33.276Z</time>
      </trkpt>
      <trkpt lat="45.76417" lon="5.90988">
        <ele>411</ele>
        <time>2022-05-01T10:44:34.275Z</time>
      </trkpt>
      <trkpt lat="45.7642" lon="5.9099">
        <ele>411</ele>
        <time>2022-05-01T10:44:35.276Z</time>
      </trkpt>
      <trkpt lat="45.76423" lon="5.90992">
        <ele>411</ele>
        <time>2022-05-01T10:44:36.276Z</time>
      </trkpt>
      <trkpt lat="45.76427" lon="5.90994">
        <ele>411</ele>
        <time>2022-05-01T10:44:37.276Z</time>
      </trkpt>
      <trkpt lat="45.7643" lon="5.90995">
        <ele>411</ele>
        <time>2022-05-01T10:44:38.275Z</time>
      </trkpt>
      <trkpt lat="45.76433" lon="5.90997">
        <ele>410</ele>
        <time>2022-05-01T10:44:39.276Z</time>
      </trkpt>
      <trkpt lat="45.76436" lon="5.90998">
        <ele>410</ele>
        <time>2022-05-01T10:44:40.276Z</time>
      </trkpt>
      <trkpt lat="45.76439" lon="5.90999">
        <ele>409</ele>
        <time>2022-05-01T10:44:41.276Z</time>
      </trkpt>
      <trkpt lat="45.76441" lon="5.90999">
        <ele>409</ele>
        <time>2022-05-01T10:44:42.276Z</time>
      </trkpt>
      <trkpt lat="45.76446" lon="5.91001">
        <ele>410</ele>
        <time>2022-05-01T10:44:43.276Z</time>
      </trkpt>
      <trkpt lat="45.7645" lon="5.91002">
        <ele>410</ele>
        <time>2022-05-01T10:44:44.276Z</time>
      </trkpt>
      <trkpt lat="45.76453" lon="5.91003">
        <ele>410</ele>
        <time>2022-05-01T10:44:45.275Z</time>
      </trkpt>
      <trkpt lat="45.76457" lon="5.91004">
        <ele>410</ele>
        <time>2022-05-01T10:44:46.276Z</time>
      </trkpt>
      <trkpt lat="45.76461" lon="5.91005">
        <ele>410</ele>
        <time>2022-05-01T10:44:47.276Z</time>
      </trkpt>
      <trkpt lat="45.76465" lon="5.91006">
        <ele>410</ele>
        <time>2022-05-01T10:44:48.276Z</time>
      </trkpt>
      <trkpt lat="45.76469" lon="5.91006">
        <ele>410</ele>
        <time>2022-05-01T10:44:49.276Z</time>
      </trkpt>
      <trkpt lat="45.76473" lon="5.91007">
        <ele>410</ele>
        <time>2022-05-01T10:44:50.275Z</time>
      </trkpt>
      <trkpt lat="45.76477" lon="5.91007">
        <ele>410</ele>
        <time>2022-05-01T10:44:51.276Z</time>
      </trkpt>
      <trkpt lat="45.76482" lon="5.91008">
        <ele>410</ele>
        <time>2022-05-01T10:44:52.276Z</time>
      </trkpt>
      <trkpt lat="45.76487" lon="5.91008">
        <ele>410</ele>
        <time>2022-05-01T10:44:53.276Z</time>
      </trkpt>
      <trkpt lat="45.76491" lon="5.91009">
        <ele>410</ele>
        <time>2022-05-01T10:44:54.276Z</time>
      </trkpt>
      <trkpt lat="45.76496" lon="5.91009">
        <ele>410</ele>
        <time>2022-05-01T10:44:55.276Z</time>
      </trkpt>
      <trkpt lat="45.76501" lon="5.9101">
        <ele>410</ele>
        <time>2022-05-01T10:44:56.276Z</time>
      </trkpt>
      <trkpt lat="45.76504" lon="5.91011">
        <ele>410</ele>
        <time>2022-05-01T10:44:57.275Z</time>
      </trkpt>
      <trkpt lat="45.76509" lon="5.91012">
        <ele>410</ele>
        <time>2022-05-01T10:44:58.276Z</time>
      </trkpt>
      <trkpt lat="45.76513" lon="5.91012">
        <ele>410</ele>
        <time>2022-05-01T10:44:59.276Z</time>
      </trkpt>
      <trkpt lat="45.76517" lon="5.91014">
        <ele>410</ele>
        <time>2022-05-01T10:45:00.276Z</time>
      </trkpt>
      <trkpt lat="45.76521" lon="5.91015">
        <ele>410</ele>
        <time>2022-05-01T10:45:01.276Z</time>
      </trkpt>
      <trkpt lat="45.76526" lon="5.91017">
        <ele>410</ele>
        <time>2022-05-01T10:45:02.276Z</time>
      </trkpt>
      <trkpt lat="45.76529" lon="5.9102">
        <ele>410</ele>
        <time>2022-05-01T10:45:03.276Z</time>
      </trkpt>
      <trkpt lat="45.76535" lon="5.91024">
        <ele>410</ele>
        <time>2022-05-01T10:45:04.276Z</time>
      </trkpt>
      <trkpt lat="45.7654" lon="5.91028">
        <ele>409</ele>
        <time>2022-05-01T10:45:05.276Z</time>
      </trkpt>
      <trkpt lat="45.76546" lon="5.91033">
        <ele>410</ele>
        <time>2022-05-01T10:45:06.276Z</time>
      </trkpt>
      <trkpt lat="45.76551" lon="5.91039">
        <ele>410</ele>
        <time>2022-05-01T10:45:07.275Z</time>
      </trkpt>
      <trkpt lat="45.76556" lon="5.91045">
        <ele>410</ele>
        <time>2022-05-01T10:45:08.276Z</time>
      </trkpt>
      <trkpt lat="45.7656" lon="5.91052">
        <ele>410</ele>
        <time>2022-05-01T10:45:09.275Z</time>
      </trkpt>
      <trkpt lat="45.76565" lon="5.91058">
        <ele>410</ele>
        <time>2022-05-01T10:45:10.276Z</time>
      </trkpt>
      <trkpt lat="45.76569" lon="5.91064">
        <ele>411</ele>
        <time>2022-05-01T10:45:11.276Z</time>
      </trkpt>
      <trkpt lat="45.76573" lon="5.91071">
        <ele>411</ele>
        <time>2022-05-01T10:45:12.275Z</time>
      </trkpt>
      <trkpt lat="45.76577" lon="5.91077">
        <ele>411</ele>
        <time>2022-05-01T10:45:13.276Z</time>
      </trkpt>
      <trkpt lat="45.76579" lon="5.91082">
        <ele>411</ele>
        <time>2022-05-01T10:45:14.276Z</time>
      </trkpt>
      <trkpt lat="45.76582" lon="5.91087">
        <ele>411</ele>
        <time>2022-05-01T10:45:15.276Z</time>
      </trkpt>
      <trkpt lat="45.76584" lon="5.91092">
        <ele>411</ele>
        <time>2022-05-01T10:45:16.276Z</time>
      </trkpt>
      <trkpt lat="45.76585" lon="5.91096">
        <ele>411</ele>
        <time>2022-05-01T10:45:17.276Z</time>
      </trkpt>
      <trkpt lat="45.76587" lon="5.911">
        <ele>411</ele>
        <time>2022-05-01T10:45:18.276Z</time>
      </trkpt>
      <trkpt lat="45.76588" lon="5.91104">
        <ele>411</ele>
        <time>2022-05-01T10:45:19.276Z</time>
      </trkpt>
      <trkpt lat="45.76589" lon="5.91108">
        <ele>410</ele>
        <time>2022-05-01T10:45:20.276Z</time>
      </trkpt>
      <trkpt lat="45.7659" lon="5.91113">
        <ele>410</ele>
        <time>2022-05-01T10:45:21.276Z</time>
      </trkpt>
      <trkpt lat="45.76591" lon="5.91117">
        <ele>410</ele>
        <time>2022-05-01T10:45:22.276Z</time>
      </trkpt>
      <trkpt lat="45.76593" lon="5.91121">
        <ele>410</ele>
        <time>2022-05-01T10:45:23.276Z</time>
      </trkpt>
      <trkpt lat="45.76594" lon="5.91124">
        <ele>411</ele>
        <time>2022-05-01T10:45:24.276Z</time>
      </trkpt>
      <trkpt lat="45.76594" lon="5.91127">
        <ele>411</ele>
        <time>2022-05-01T10:45:25.275Z</time>
      </trkpt>
      <trkpt lat="45.76595" lon="5.9113">
        <ele>411</ele>
        <time>2022-05-01T10:45:26.276Z</time>
      </trkpt>
      <trkpt lat="45.76596" lon="5.91133">
        <ele>412</ele>
        <time>2022-05-01T10:45:27.276Z</time>
      </trkpt>
      <trkpt lat="45.76596" lon="5.91136">
        <ele>412</ele>
        <time>2022-05-01T10:45:28.275Z</time>
      </trkpt>
      <trkpt lat="45.76597" lon="5.91139">
        <ele>412</ele>
        <time>2022-05-01T10:45:29.276Z</time>
      </trkpt>
      <trkpt lat="45.76598" lon="5.91142">
        <ele>413</ele>
        <time>2022-05-01T10:45:30.276Z</time>
      </trkpt>
      <trkpt lat="45.76599" lon="5.91145">
        <ele>413</ele>
        <time>2022-05-01T10:45:31.276Z</time>
      </trkpt>
      <trkpt lat="45.766" lon="5.91149">
        <ele>413</ele>
        <time>2022-05-01T10:45:32.276Z</time>
      </trkpt>
      <trkpt lat="45.766" lon="5.91152">
        <ele>413</ele>
        <time>2022-05-01T10:45:33.275Z</time>
      </trkpt>
      <trkpt lat="45.76601" lon="5.91154">
        <ele>413</ele>
        <time>2022-05-01T10:45:34.275Z</time>
      </trkpt>
      <trkpt lat="45.76602" lon="5.91158">
        <ele>414</ele>
        <time>2022-05-01T10:45:35.276Z</time>
      </trkpt>
      <trkpt lat="45.76602" lon="5.91161">
        <ele>414</ele>
        <time>2022-05-01T10:45:36.276Z</time>
      </trkpt>
      <trkpt lat="45.76603" lon="5.91164">
        <ele>414</ele>
        <time>2022-05-01T10:45:37.276Z</time>
      </trkpt>
      <trkpt lat="45.76603" lon="5.91167">
        <ele>414</ele>
        <time>2022-05-01T10:45:38.276Z</time>
      </trkpt>
      <trkpt lat="45.76604" lon="5.9117">
        <ele>414</ele>
        <time>2022-05-01T10:45:39.276Z</time>
      </trkpt>
      <trkpt lat="45.76604" lon="5.91172">
        <ele>415</ele>
        <time>2022-05-01T10:45:40.276Z</time>
      </trkpt>
      <trkpt lat="45.76605" lon="5.91175">
        <ele>415</ele>
        <time>2022-05-01T10:45:41.275Z</time>
      </trkpt>
      <trkpt lat="45.76605" lon="5.91177">
        <ele>415</ele>
        <time>2022-05-01T10:45:42.275Z</time>
      </trkpt>
      <trkpt lat="45.76607" lon="5.9118">
        <ele>415</ele>
        <time>2022-05-01T10:45:43.275Z</time>
      </trkpt>
      <trkpt lat="45.76608" lon="5.91182">
        <ele>416</ele>
        <time>2022-05-01T10:45:44.275Z</time>
      </trkpt>
      <trkpt lat="45.76609" lon="5.91185">
        <ele>416</ele>
        <time>2022-05-01T10:45:45.276Z</time>
      </trkpt>
      <trkpt lat="45.76609" lon="5.91188">
        <ele>416</ele>
        <time>2022-05-01T10:45:46.275Z</time>
      </trkpt>
      <trkpt lat="45.7661" lon="5.9119">
        <ele>417</ele>
        <time>2022-05-01T10:45:47.275Z</time>
      </trkpt>
      <trkpt lat="45.76611" lon="5.91193">
        <ele>417</ele>
        <time>2022-05-01T10:45:48.276Z</time>
      </trkpt>
      <trkpt lat="45.76612" lon="5.91196">
        <ele>417</ele>
        <time>2022-05-01T10:45:49.276Z</time>
      </trkpt>
      <trkpt lat="45.76612" lon="5.91198">
        <ele>418</ele>
        <time>2022-05-01T10:45:50.276Z</time>
      </trkpt>
      <trkpt lat="45.76613" lon="5.91201">
        <ele>418</ele>
        <time>2022-05-01T10:45:51.276Z</time>
      </trkpt>
      <trkpt lat="45.76614" lon="5.91204">
        <ele>418</ele>
        <time>2022-05-01T10:45:52.275Z</time>
      </trkpt>
      <trkpt lat="45.76614" lon="5.91206">
        <ele>419</ele>
        <time>2022-05-01T10:45:53.276Z</time>
      </trkpt>
      <trkpt lat="45.76614" lon="5.91208">
        <ele>420</ele>
        <time>2022-05-01T10:45:54.275Z</time>
      </trkpt>
      <trkpt lat="45.76615" lon="5.9121">
        <ele>420</ele>
        <time>2022-05-01T10:45:55.276Z</time>
      </trkpt>
      <trkpt lat="45.76615" lon="5.91213">
        <ele>421</ele>
        <time>2022-05-01T10:45:56.276Z</time>
      </trkpt>
      <trkpt lat="45.76615" lon="5.91215">
        <ele>422</ele>
        <time>2022-05-01T10:45:57.276Z</time>
      </trkpt>
      <trkpt lat="45.76615" lon="5.91218">
        <ele>422</ele>
        <time>2022-05-01T10:45:58.276Z</time>
      </trkpt>
      <trkpt lat="45.76616" lon="5.9122">
        <ele>422</ele>
        <time>2022-05-01T10:45:59.276Z</time>
      </trkpt>
      <trkpt lat="45.76617" lon="5.91223">
        <ele>423</ele>
        <time>2022-05-01T10:46:00.275Z</time>
      </trkpt>
      <trkpt lat="45.76618" lon="5.91225">
        <ele>423</ele>
        <time>2022-05-01T10:46:01.275Z</time>
      </trkpt>
      <trkpt lat="45.76618" lon="5.91228">
        <ele>423</ele>
        <time>2022-05-01T10:46:02.276Z</time>
      </trkpt>
      <trkpt lat="45.76619" lon="5.91231">
        <ele>423</ele>
        <time>2022-05-01T10:46:03.275Z</time>
      </trkpt>
      <trkpt lat="45.7662" lon="5.91233">
        <ele>424</ele>
        <time>2022-05-01T10:46:04.276Z</time>
      </trkpt>
      <trkpt lat="45.76622" lon="5.91235">
        <ele>425</ele>
        <time>2022-05-01T10:46:05.276Z</time>
      </trkpt>
      <trkpt lat="45.76623" lon="5.91238">
        <ele>426</ele>
        <time>2022-05-01T10:46:06.275Z</time>
      </trkpt>
      <trkpt lat="45.76625" lon="5.9124">
        <ele>426</ele>
        <time>2022-05-01T10:46:07.276Z</time>
      </trkpt>
      <trkpt lat="45.76626" lon="5.91243">
        <ele>426</ele>
        <time>2022-05-01T10:46:08.275Z</time>
      </trkpt>
      <trkpt lat="45.76627" lon="5.91246">
        <ele>425</ele>
        <time>2022-05-01T10:46:09.276Z</time>
      </trkpt>
      <trkpt lat="45.76628" lon="5.91248">
        <ele>426</ele>
        <time>2022-05-01T10:46:10.275Z</time>
      </trkpt>
      <trkpt lat="45.7663" lon="5.91251">
        <ele>426</ele>
        <time>2022-05-01T10:46:11.276Z</time>
      </trkpt>
      <trkpt lat="45.76631" lon="5.91254">
        <ele>426</ele>
        <time>2022-05-01T10:46:12.275Z</time>
      </trkpt>
      <trkpt lat="45.76632" lon="5.91256">
        <ele>425</ele>
        <time>2022-05-01T10:46:13.276Z</time>
      </trkpt>
      <trkpt lat="45.76634" lon="5.91258">
        <ele>425</ele>
        <time>2022-05-01T10:46:14.276Z</time>
      </trkpt>
      <trkpt lat="45.76635" lon="5.91261">
        <ele>425</ele>
        <time>2022-05-01T10:46:15.276Z</time>
      </trkpt>
      <trkpt lat="45.76637" lon="5.91264">
        <ele>425</ele>
        <time>2022-05-01T10:46:16.276Z</time>
      </trkpt>
      <trkpt lat="45.76638" lon="5.91267">
        <ele>425</ele>
        <time>2022-05-01T10:46:17.276Z</time>
      </trkpt>
      <trkpt lat="45.76639" lon="5.9127">
        <ele>425</ele>
        <time>2022-05-01T10:46:18.276Z</time>
      </trkpt>
      <trkpt lat="45.7664" lon="5.91272">
        <ele>426</ele>
        <time>2022-05-01T10:46:19.276Z</time>
      </trkpt>
      <trkpt lat="45.76641" lon="5.91275">
        <ele>426</ele>
        <time>2022-05-01T10:46:20.275Z</time>
      </trkpt>
      <trkpt lat="45.76643" lon="5.91278">
        <ele>427</ele>
        <time>2022-05-01T10:46:21.275Z</time>
      </trkpt>
      <trkpt lat="45.76644" lon="5.91281">
        <ele>427</ele>
        <time>2022-05-01T10:46:22.275Z</time>
      </trkpt>
      <trkpt lat="45.76645" lon="5.91284">
        <ele>427</ele>
        <time>2022-05-01T10:46:23.275Z</time>
      </trkpt>
      <trkpt lat="45.76646" lon="5.91287">
        <ele>427</ele>
        <time>2022-05-01T10:46:24.276Z</time>
      </trkpt>
      <trkpt lat="45.76648" lon="5.9129">
        <ele>428</ele>
        <time>2022-05-01T10:46:25.275Z</time>
      </trkpt>
      <trkpt lat="45.76649" lon="5.91293">
        <ele>427</ele>
        <time>2022-05-01T10:46:26.275Z</time>
      </trkpt>
      <trkpt lat="45.76651" lon="5.91296">
        <ele>427</ele>
        <time>2022-05-01T10:46:27.276Z</time>
      </trkpt>
      <trkpt lat="45.76652" lon="5.91298">
        <ele>427</ele>
        <time>2022-05-01T10:46:28.276Z</time>
      </trkpt>
      <trkpt lat="45.76654" lon="5.91301">
        <ele>427</ele>
        <time>2022-05-01T10:46:29.276Z</time>
      </trkpt>
      <trkpt lat="45.76655" lon="5.91303">
        <ele>426</ele>
        <time>2022-05-01T10:46:30.275Z</time>
      </trkpt>
      <trkpt lat="45.76657" lon="5.91305">
        <ele>426</ele>
        <time>2022-05-01T10:46:31.276Z</time>
      </trkpt>
      <trkpt lat="45.76657" lon="5.91307">
        <ele>426</ele>
        <time>2022-05-01T10:46:32.275Z</time>
      </trkpt>
      <trkpt lat="45.76657" lon="5.91308">
        <ele>426</ele>
        <time>2022-05-01T10:46:33.276Z</time>
      </trkpt>
      <trkpt lat="45.76657" lon="5.91308">
        <ele>427</ele>
        <time>2022-05-01T10:46:34.275Z</time>
      </trkpt>
      <trkpt lat="45.76657" lon="5.91308">
        <ele>427</ele>
        <time>2022-05-01T10:46:35.276Z</time>
      </trkpt>
      <trkpt lat="45.76656" lon="5.91307">
        <ele>427</ele>
        <time>2022-05-01T10:46:36.275Z</time>
      </trkpt>
      <trkpt lat="45.76658" lon="5.91307">
        <ele>429</ele>
        <time>2022-05-01T10:46:40.412Z</time>
      </trkpt>
      <trkpt lat="45.7666" lon="5.91307">
        <ele>429</ele>
        <time>2022-05-01T10:46:41.413Z</time>
      </trkpt>
      <trkpt lat="45.76662" lon="5.91306">
        <ele>430</ele>
        <time>2022-05-01T10:46:42.413Z</time>
      </trkpt>
      <trkpt lat="45.76664" lon="5.91305">
        <ele>429</ele>
        <time>2022-05-01T10:46:43.412Z</time>
      </trkpt>
      <trkpt lat="45.76666" lon="5.91303">
        <ele>429</ele>
        <time>2022-05-01T10:46:44.413Z</time>
      </trkpt>
      <trkpt lat="45.76668" lon="5.913">
        <ele>429</ele>
        <time>2022-05-01T10:46:45.413Z</time>
      </trkpt>
      <trkpt lat="45.7667" lon="5.91298">
        <ele>429</ele>
        <time>2022-05-01T10:46:46.413Z</time>
      </trkpt>
      <trkpt lat="45.76672" lon="5.91296">
        <ele>429</ele>
        <time>2022-05-01T10:46:47.413Z</time>
      </trkpt>
      <trkpt lat="45.76674" lon="5.91293">
        <ele>429</ele>
        <time>2022-05-01T10:46:48.413Z</time>
      </trkpt>
      <trkpt lat="45.76676" lon="5.91291">
        <ele>428</ele>
        <time>2022-05-01T10:46:49.413Z</time>
      </trkpt>
      <trkpt lat="45.76679" lon="5.91288">
        <ele>428</ele>
        <time>2022-05-01T10:46:50.413Z</time>
      </trkpt>
      <trkpt lat="45.76681" lon="5.91286">
        <ele>428</ele>
        <time>2022-05-01T10:46:51.413Z</time>
      </trkpt>
      <trkpt lat="45.76683" lon="5.91283">
        <ele>427</ele>
        <time>2022-05-01T10:46:52.412Z</time>
      </trkpt>
      <trkpt lat="45.76685" lon="5.91281">
        <ele>427</ele>
        <time>2022-05-01T10:46:53.412Z</time>
      </trkpt>
      <trkpt lat="45.76687" lon="5.91278">
        <ele>427</ele>
        <time>2022-05-01T10:46:54.413Z</time>
      </trkpt>
      <trkpt lat="45.76689" lon="5.91276">
        <ele>427</ele>
        <time>2022-05-01T10:46:55.413Z</time>
      </trkpt>
      <trkpt lat="45.76691" lon="5.91273">
        <ele>427</ele>
        <time>2022-05-01T10:46:56.413Z</time>
      </trkpt>
      <trkpt lat="45.76693" lon="5.9127">
        <ele>427</ele>
        <time>2022-05-01T10:46:57.413Z</time>
      </trkpt>
      <trkpt lat="45.76695" lon="5.91268">
        <ele>427</ele>
        <time>2022-05-01T10:46:58.413Z</time>
      </trkpt>
      <trkpt lat="45.76697" lon="5.91265">
        <ele>427</ele>
        <time>2022-05-01T10:46:59.412Z</time>
      </trkpt>
      <trkpt lat="45.76699" lon="5.91263">
        <ele>427</ele>
        <time>2022-05-01T10:47:00.413Z</time>
      </trkpt>
      <trkpt lat="45.76701" lon="5.9126">
        <ele>427</ele>
        <time>2022-05-01T10:47:01.412Z</time>
      </trkpt>
      <trkpt lat="45.76703" lon="5.91258">
        <ele>427</ele>
        <time>2022-05-01T10:47:02.412Z</time>
      </trkpt>
      <trkpt lat="45.76705" lon="5.91255">
        <ele>427</ele>
        <time>2022-05-01T10:47:03.413Z</time>
      </trkpt>
      <trkpt lat="45.76708" lon="5.91253">
        <ele>427</ele>
        <time>2022-05-01T10:47:04.413Z</time>
      </trkpt>
      <trkpt lat="45.7671" lon="5.91251">
        <ele>428</ele>
        <time>2022-05-01T10:47:05.413Z</time>
      </trkpt>
      <trkpt lat="45.76712" lon="5.91249">
        <ele>428</ele>
        <time>2022-05-01T10:47:06.413Z</time>
      </trkpt>
      <trkpt lat="45.76713" lon="5.91246">
        <ele>428</ele>
        <time>2022-05-01T10:47:07.413Z</time>
      </trkpt>
      <trkpt lat="45.76715" lon="5.91244">
        <ele>428</ele>
        <time>2022-05-01T10:47:08.412Z</time>
      </trkpt>
      <trkpt lat="45.76717" lon="5.91242">
        <ele>428</ele>
        <time>2022-05-01T10:47:09.413Z</time>
      </trkpt>
      <trkpt lat="45.76719" lon="5.9124">
        <ele>428</ele>
        <time>2022-05-01T10:47:10.413Z</time>
      </trkpt>
      <trkpt lat="45.76721" lon="5.91238">
        <ele>428</ele>
        <time>2022-05-01T10:47:11.413Z</time>
      </trkpt>
      <trkpt lat="45.76723" lon="5.91236">
        <ele>427</ele>
        <time>2022-05-01T10:47:12.413Z</time>
      </trkpt>
      <trkpt lat="45.76724" lon="5.91235">
        <ele>427</ele>
        <time>2022-05-01T10:47:13.412Z</time>
      </trkpt>
      <trkpt lat="45.76726" lon="5.91233">
        <ele>427</ele>
        <time>2022-05-01T10:47:14.413Z</time>
      </trkpt>
      <trkpt lat="45.76728" lon="5.9123">
        <ele>426</ele>
        <time>2022-05-01T10:47:15.413Z</time>
      </trkpt>
      <trkpt lat="45.7673" lon="5.91228">
        <ele>426</ele>
        <time>2022-05-01T10:47:16.413Z</time>
      </trkpt>
      <trkpt lat="45.76732" lon="5.91226">
        <ele>426</ele>
        <time>2022-05-01T10:47:17.413Z</time>
      </trkpt>
      <trkpt lat="45.76734" lon="5.91223">
        <ele>426</ele>
        <time>2022-05-01T10:47:18.413Z</time>
      </trkpt>
      <trkpt lat="45.76737" lon="5.91221">
        <ele>426</ele>
        <time>2022-05-01T10:47:19.412Z</time>
      </trkpt>
      <trkpt lat="45.76739" lon="5.91219">
        <ele>426</ele>
        <time>2022-05-01T10:47:20.412Z</time>
      </trkpt>
      <trkpt lat="45.76741" lon="5.91217">
        <ele>426</ele>
        <time>2022-05-01T10:47:21.413Z</time>
      </trkpt>
      <trkpt lat="45.76744" lon="5.91214">
        <ele>426</ele>
        <time>2022-05-01T10:47:22.412Z</time>
      </trkpt>
      <trkpt lat="45.76746" lon="5.91212">
        <ele>426</ele>
        <time>2022-05-01T10:47:23.413Z</time>
      </trkpt>
      <trkpt lat="45.76748" lon="5.9121">
        <ele>426</ele>
        <time>2022-05-01T10:47:24.413Z</time>
      </trkpt>
      <trkpt lat="45.7675" lon="5.91207">
        <ele>425</ele>
        <time>2022-05-01T10:47:25.413Z</time>
      </trkpt>
      <trkpt lat="45.76753" lon="5.91205">
        <ele>425</ele>
        <time>2022-05-01T10:47:26.412Z</time>
      </trkpt>
      <trkpt lat="45.76755" lon="5.91203">
        <ele>425</ele>
        <time>2022-05-01T10:47:27.413Z</time>
      </trkpt>
      <trkpt lat="45.76758" lon="5.91201">
        <ele>425</ele>
        <time>2022-05-01T10:47:28.412Z</time>
      </trkpt>
      <trkpt lat="45.7676" lon="5.91199">
        <ele>425</ele>
        <time>2022-05-01T10:47:29.413Z</time>
      </trkpt>
      <trkpt lat="45.76763" lon="5.91197">
        <ele>425</ele>
        <time>2022-05-01T10:47:30.412Z</time>
      </trkpt>
      <trkpt lat="45.76765" lon="5.91195">
        <ele>426</ele>
        <time>2022-05-01T10:47:31.412Z</time>
      </trkpt>
      <trkpt lat="45.76768" lon="5.91193">
        <ele>426</ele>
        <time>2022-05-01T10:47:32.412Z</time>
      </trkpt>
      <trkpt lat="45.76771" lon="5.91191">
        <ele>426</ele>
        <time>2022-05-01T10:47:33.413Z</time>
      </trkpt>
      <trkpt lat="45.76773" lon="5.91189">
        <ele>427</ele>
        <time>2022-05-01T10:47:34.413Z</time>
      </trkpt>
      <trkpt lat="45.76776" lon="5.91187">
        <ele>427</ele>
        <time>2022-05-01T10:47:35.413Z</time>
      </trkpt>
      <trkpt lat="45.76778" lon="5.91185">
        <ele>427</ele>
        <time>2022-05-01T10:47:36.413Z</time>
      </trkpt>
      <trkpt lat="45.76781" lon="5.91184">
        <ele>427</ele>
        <time>2022-05-01T10:47:37.412Z</time>
      </trkpt>
      <trkpt lat="45.76784" lon="5.91182">
        <ele>427</ele>
        <time>2022-05-01T10:47:38.413Z</time>
      </trkpt>
      <trkpt lat="45.76787" lon="5.9118">
        <ele>427</ele>
        <time>2022-05-01T10:47:39.413Z</time>
      </trkpt>
      <trkpt lat="45.76791" lon="5.91178">
        <ele>427</ele>
        <time>2022-05-01T10:47:40.413Z</time>
      </trkpt>
      <trkpt lat="45.76794" lon="5.91177">
        <ele>428</ele>
        <time>2022-05-01T10:47:41.412Z</time>
      </trkpt>
      <trkpt lat="45.76797" lon="5.91175">
        <ele>428</ele>
        <time>2022-05-01T10:47:42.413Z</time>
      </trkpt>
      <trkpt lat="45.768" lon="5.91173">
        <ele>428</ele>
        <time>2022-05-01T10:47:43.412Z</time>
      </trkpt>
      <trkpt lat="45.76803" lon="5.91171">
        <ele>428</ele>
        <time>2022-05-01T10:47:44.413Z</time>
      </trkpt>
      <trkpt lat="45.76806" lon="5.91169">
        <ele>428</ele>
        <time>2022-05-01T10:47:45.413Z</time>
      </trkpt>
      <trkpt lat="45.76809" lon="5.91168">
        <ele>428</ele>
        <time>2022-05-01T10:47:46.412Z</time>
      </trkpt>
      <trkpt lat="45.76812" lon="5.91166">
        <ele>428</ele>
        <time>2022-05-01T10:47:47.412Z</time>
      </trkpt>
      <trkpt lat="45.76815" lon="5.91164">
        <ele>428</ele>
        <time>2022-05-01T10:47:48.412Z</time>
      </trkpt>
      <trkpt lat="45.76818" lon="5.91163">
        <ele>428</ele>
        <time>2022-05-01T10:47:49.412Z</time>
      </trkpt>
      <trkpt lat="45.76821" lon="5.91162">
        <ele>428</ele>
        <time>2022-05-01T10:47:50.412Z</time>
      </trkpt>
      <trkpt lat="45.76824" lon="5.9116">
        <ele>428</ele>
        <time>2022-05-01T10:47:51.412Z</time>
      </trkpt>
      <trkpt lat="45.76827" lon="5.91159">
        <ele>429</ele>
        <time>2022-05-01T10:47:52.413Z</time>
      </trkpt>
      <trkpt lat="45.76829" lon="5.91158">
        <ele>429</ele>
        <time>2022-05-01T10:47:53.412Z</time>
      </trkpt>
      <trkpt lat="45.76833" lon="5.91157">
        <ele>429</ele>
        <time>2022-05-01T10:47:54.413Z</time>
      </trkpt>
      <trkpt lat="45.76836" lon="5.91156">
        <ele>429</ele>
        <time>2022-05-01T10:47:55.413Z</time>
      </trkpt>
      <trkpt lat="45.76839" lon="5.91154">
        <ele>430</ele>
        <time>2022-05-01T10:47:56.413Z</time>
      </trkpt>
      <trkpt lat="45.76842" lon="5.91153">
        <ele>430</ele>
        <time>2022-05-01T10:47:57.412Z</time>
      </trkpt>
      <trkpt lat="45.76845" lon="5.91152">
        <ele>430</ele>
        <time>2022-05-01T10:47:58.413Z</time>
      </trkpt>
      <trkpt lat="45.76848" lon="5.91151">
        <ele>430</ele>
        <time>2022-05-01T10:47:59.413Z</time>
      </trkpt>
      <trkpt lat="45.76851" lon="5.9115">
        <ele>430</ele>
        <time>2022-05-01T10:48:00.413Z</time>
      </trkpt>
      <trkpt lat="45.76854" lon="5.91149">
        <ele>430</ele>
        <time>2022-05-01T10:48:01.413Z</time>
      </trkpt>
      <trkpt lat="45.76857" lon="5.91148">
        <ele>430</ele>
        <time>2022-05-01T10:48:02.413Z</time>
      </trkpt>
      <trkpt lat="45.7686" lon="5.91146">
        <ele>429</ele>
        <time>2022-05-01T10:48:03.412Z</time>
      </trkpt>
      <trkpt lat="45.76863" lon="5.91144">
        <ele>429</ele>
        <time>2022-05-01T10:48:04.413Z</time>
      </trkpt>
      <trkpt lat="45.76867" lon="5.91143">
        <ele>430</ele>
        <time>2022-05-01T10:48:05.413Z</time>
      </trkpt>
      <trkpt lat="45.7687" lon="5.91142">
        <ele>430</ele>
        <time>2022-05-01T10:48:06.413Z</time>
      </trkpt>
      <trkpt lat="45.76873" lon="5.91141">
        <ele>430</ele>
        <time>2022-05-01T10:48:07.413Z</time>
      </trkpt>
      <trkpt lat="45.76876" lon="5.9114">
        <ele>430</ele>
        <time>2022-05-01T10:48:08.412Z</time>
      </trkpt>
      <trkpt lat="45.76879" lon="5.91139">
        <ele>430</ele>
        <time>2022-05-01T10:48:09.412Z</time>
      </trkpt>
      <trkpt lat="45.76882" lon="5.91137">
        <ele>430</ele>
        <time>2022-05-01T10:48:10.413Z</time>
      </trkpt>
      <trkpt lat="45.76886" lon="5.91135">
        <ele>430</ele>
        <time>2022-05-01T10:48:11.413Z</time>
      </trkpt>
      <trkpt lat="45.76889" lon="5.91134">
        <ele>431</ele>
        <time>2022-05-01T10:48:12.413Z</time>
      </trkpt>
      <trkpt lat="45.76892" lon="5.91132">
        <ele>431</ele>
        <time>2022-05-01T10:48:13.412Z</time>
      </trkpt>
      <trkpt lat="45.76895" lon="5.9113">
        <ele>430</ele>
        <time>2022-05-01T10:48:14.412Z</time>
      </trkpt>
      <trkpt lat="45.76898" lon="5.91128">
        <ele>430</ele>
        <time>2022-05-01T10:48:15.412Z</time>
      </trkpt>
      <trkpt lat="45.76901" lon="5.91127">
        <ele>431</ele>
        <time>2022-05-01T10:48:16.413Z</time>
      </trkpt>
      <trkpt lat="45.76905" lon="5.91125">
        <ele>431</ele>
        <time>2022-05-01T10:48:17.413Z</time>
      </trkpt>
      <trkpt lat="45.76908" lon="5.91124">
        <ele>431</ele>
        <time>2022-05-01T10:48:18.413Z</time>
      </trkpt>
      <trkpt lat="45.7691" lon="5.91122">
        <ele>431</ele>
        <time>2022-05-01T10:48:19.413Z</time>
      </trkpt>
      <trkpt lat="45.76913" lon="5.9112">
        <ele>431</ele>
        <time>2022-05-01T10:48:20.413Z</time>
      </trkpt>
      <trkpt lat="45.76916" lon="5.91119">
        <ele>432</ele>
        <time>2022-05-01T10:48:21.413Z</time>
      </trkpt>
      <trkpt lat="45.76918" lon="5.91118">
        <ele>432</ele>
        <time>2022-05-01T10:48:22.413Z</time>
      </trkpt>
      <trkpt lat="45.76921" lon="5.91117">
        <ele>433</ele>
        <time>2022-05-01T10:48:23.413Z</time>
      </trkpt>
      <trkpt lat="45.76924" lon="5.91115">
        <ele>433</ele>
        <time>2022-05-01T10:48:24.413Z</time>
      </trkpt>
      <trkpt lat="45.76926" lon="5.91114">
        <ele>433</ele>
        <time>2022-05-01T10:48:25.413Z</time>
      </trkpt>
      <trkpt lat="45.76929" lon="5.91113">
        <ele>433</ele>
        <time>2022-05-01T10:48:26.412Z</time>
      </trkpt>
      <trkpt lat="45.76931" lon="5.91112">
        <ele>434</ele>
        <time>2022-05-01T10:48:27.413Z</time>
      </trkpt>
      <trkpt lat="45.76934" lon="5.91111">
        <ele>434</ele>
        <time>2022-05-01T10:48:28.413Z</time>
      </trkpt>
      <trkpt lat="45.76936" lon="5.91109">
        <ele>434</ele>
        <time>2022-05-01T10:48:29.413Z</time>
      </trkpt>
      <trkpt lat="45.76938" lon="5.91108">
        <ele>434</ele>
        <time>2022-05-01T10:48:30.413Z</time>
      </trkpt>
      <trkpt lat="45.7694" lon="5.91106">
        <ele>434</ele>
        <time>2022-05-01T10:48:31.413Z</time>
      </trkpt>
      <trkpt lat="45.76942" lon="5.91104">
        <ele>433</ele>
        <time>2022-05-01T10:48:32.412Z</time>
      </trkpt>
      <trkpt lat="45.76944" lon="5.91102">
        <ele>433</ele>
        <time>2022-05-01T10:48:33.413Z</time>
      </trkpt>
      <trkpt lat="45.76945" lon="5.91099">
        <ele>433</ele>
        <time>2022-05-01T10:48:34.412Z</time>
      </trkpt>
      <trkpt lat="45.76947" lon="5.91096">
        <ele>433</ele>
        <time>2022-05-01T10:48:35.412Z</time>
      </trkpt>
      <trkpt lat="45.76947" lon="5.91093">
        <ele>432</ele>
        <time>2022-05-01T10:48:36.413Z</time>
      </trkpt>
      <trkpt lat="45.76948" lon="5.91089">
        <ele>432</ele>
        <time>2022-05-01T10:48:37.413Z</time>
      </trkpt>
      <trkpt lat="45.76948" lon="5.91084">
        <ele>432</ele>
        <time>2022-05-01T10:48:38.413Z</time>
      </trkpt>
      <trkpt lat="45.76948" lon="5.9108">
        <ele>432</ele>
        <time>2022-05-01T10:48:39.413Z</time>
      </trkpt>
      <trkpt lat="45.76948" lon="5.91075">
        <ele>432</ele>
        <time>2022-05-01T10:48:40.413Z</time>
      </trkpt>
      <trkpt lat="45.76949" lon="5.91071">
        <ele>432</ele>
        <time>2022-05-01T10:48:41.413Z</time>
      </trkpt>
      <trkpt lat="45.76951" lon="5.91067">
        <ele>432</ele>
        <time>2022-05-01T10:48:42.413Z</time>
      </trkpt>
      <trkpt lat="45.76953" lon="5.91063">
        <ele>432</ele>
        <time>2022-05-01T10:48:43.413Z</time>
      </trkpt>
      <trkpt lat="45.76955" lon="5.91059">
        <ele>432</ele>
        <time>2022-05-01T10:48:44.413Z</time>
      </trkpt>
      <trkpt lat="45.76957" lon="5.91055">
        <ele>431</ele>
        <time>2022-05-01T10:48:45.413Z</time>
      </trkpt>
      <trkpt lat="45.76959" lon="5.91052">
        <ele>430</ele>
        <time>2022-05-01T10:48:46.413Z</time>
      </trkpt>
      <trkpt lat="45.76961" lon="5.91048">
        <ele>430</ele>
        <time>2022-05-01T10:48:47.413Z</time>
      </trkpt>
      <trkpt lat="45.76964" lon="5.91044">
        <ele>429</ele>
        <time>2022-05-01T10:48:48.412Z</time>
      </trkpt>
      <trkpt lat="45.76965" lon="5.91041">
        <ele>430</ele>
        <time>2022-05-01T10:48:49.413Z</time>
      </trkpt>
      <trkpt lat="45.76968" lon="5.91037">
        <ele>430</ele>
        <time>2022-05-01T10:48:50.413Z</time>
      </trkpt>
      <trkpt lat="45.7697" lon="5.91033">
        <ele>431</ele>
        <time>2022-05-01T10:48:51.413Z</time>
      </trkpt>
      <trkpt lat="45.76973" lon="5.91029">
        <ele>431</ele>
        <time>2022-05-01T10:48:52.413Z</time>
      </trkpt>
      <trkpt lat="45.76975" lon="5.91025">
        <ele>431</ele>
        <time>2022-05-01T10:48:53.413Z</time>
      </trkpt>
      <trkpt lat="45.76977" lon="5.91022">
        <ele>432</ele>
        <time>2022-05-01T10:48:54.412Z</time>
      </trkpt>
      <trkpt lat="45.7698" lon="5.91017">
        <ele>432</ele>
        <time>2022-05-01T10:48:55.412Z</time>
      </trkpt>
      <trkpt lat="45.76982" lon="5.91013">
        <ele>432</ele>
        <time>2022-05-01T10:48:56.413Z</time>
      </trkpt>
      <trkpt lat="45.76984" lon="5.91009">
        <ele>432</ele>
        <time>2022-05-01T10:48:57.413Z</time>
      </trkpt>
      <trkpt lat="45.76987" lon="5.91005">
        <ele>432</ele>
        <time>2022-05-01T10:48:58.413Z</time>
      </trkpt>
      <trkpt lat="45.76989" lon="5.91001">
        <ele>431</ele>
        <time>2022-05-01T10:48:59.413Z</time>
      </trkpt>
      <trkpt lat="45.76991" lon="5.90997">
        <ele>431</ele>
        <time>2022-05-01T10:49:00.413Z</time>
      </trkpt>
      <trkpt lat="45.76994" lon="5.90992">
        <ele>431</ele>
        <time>2022-05-01T10:49:01.412Z</time>
      </trkpt>
      <trkpt lat="45.76996" lon="5.90989">
        <ele>431</ele>
        <time>2022-05-01T10:49:02.413Z</time>
      </trkpt>
      <trkpt lat="45.76998" lon="5.90985">
        <ele>432</ele>
        <time>2022-05-01T10:49:03.413Z</time>
      </trkpt>
      <trkpt lat="45.77" lon="5.9098">
        <ele>432</ele>
        <time>2022-05-01T10:49:04.413Z</time>
      </trkpt>
      <trkpt lat="45.77002" lon="5.90976">
        <ele>432</ele>
        <time>2022-05-01T10:49:05.412Z</time>
      </trkpt>
      <trkpt lat="45.77004" lon="5.90972">
        <ele>433</ele>
        <time>2022-05-01T10:49:06.413Z</time>
      </trkpt>
      <trkpt lat="45.77006" lon="5.90969">
        <ele>433</ele>
        <time>2022-05-01T10:49:07.413Z</time>
      </trkpt>
      <trkpt lat="45.77008" lon="5.90965">
        <ele>433</ele>
        <time>2022-05-01T10:49:08.412Z</time>
      </trkpt>
      <trkpt lat="45.77011" lon="5.90961">
        <ele>433</ele>
        <time>2022-05-01T10:49:09.413Z</time>
      </trkpt>
      <trkpt lat="45.77012" lon="5.90957">
        <ele>433</ele>
        <time>2022-05-01T10:49:10.412Z</time>
      </trkpt>
      <trkpt lat="45.77014" lon="5.90953">
        <ele>433</ele>
        <time>2022-05-01T10:49:11.413Z</time>
      </trkpt>
      <trkpt lat="45.77016" lon="5.9095">
        <ele>433</ele>
        <time>2022-05-01T10:49:12.413Z</time>
      </trkpt>
      <trkpt lat="45.77018" lon="5.90946">
        <ele>433</ele>
        <time>2022-05-01T10:49:13.413Z</time>
      </trkpt>
      <trkpt lat="45.7702" lon="5.90943">
        <ele>433</ele>
        <time>2022-05-01T10:49:14.413Z</time>
      </trkpt>
      <trkpt lat="45.77021" lon="5.90939">
        <ele>433</ele>
        <time>2022-05-01T10:49:15.413Z</time>
      </trkpt>
      <trkpt lat="45.77023" lon="5.90935">
        <ele>433</ele>
        <time>2022-05-01T10:49:16.413Z</time>
      </trkpt>
      <trkpt lat="45.77025" lon="5.90932">
        <ele>433</ele>
        <time>2022-05-01T10:49:17.413Z</time>
      </trkpt>
      <trkpt lat="45.77026" lon="5.90928">
        <ele>433</ele>
        <time>2022-05-01T10:49:18.412Z</time>
      </trkpt>
      <trkpt lat="45.77028" lon="5.90925">
        <ele>433</ele>
        <time>2022-05-01T10:49:19.413Z</time>
      </trkpt>
      <trkpt lat="45.7703" lon="5.90921">
        <ele>433</ele>
        <time>2022-05-01T10:49:20.412Z</time>
      </trkpt>
      <trkpt lat="45.77032" lon="5.90917">
        <ele>433</ele>
        <time>2022-05-01T10:49:21.412Z</time>
      </trkpt>
      <trkpt lat="45.77034" lon="5.90914">
        <ele>433</ele>
        <time>2022-05-01T10:49:22.412Z</time>
      </trkpt>
      <trkpt lat="45.77035" lon="5.90911">
        <ele>433</ele>
        <time>2022-05-01T10:49:23.412Z</time>
      </trkpt>
      <trkpt lat="45.77037" lon="5.90908">
        <ele>434</ele>
        <time>2022-05-01T10:49:24.412Z</time>
      </trkpt>
      <trkpt lat="45.77039" lon="5.90905">
        <ele>433</ele>
        <time>2022-05-01T10:49:25.413Z</time>
      </trkpt>
      <trkpt lat="45.77041" lon="5.90902">
        <ele>433</ele>
        <time>2022-05-01T10:49:26.412Z</time>
      </trkpt>
      <trkpt lat="45.77043" lon="5.90898">
        <ele>433</ele>
        <time>2022-05-01T10:49:27.413Z</time>
      </trkpt>
      <trkpt lat="45.77045" lon="5.90895">
        <ele>433</ele>
        <time>2022-05-01T10:49:28.412Z</time>
      </trkpt>
      <trkpt lat="45.77047" lon="5.90891">
        <ele>433</ele>
        <time>2022-05-01T10:49:29.413Z</time>
      </trkpt>
      <trkpt lat="45.77049" lon="5.90887">
        <ele>434</ele>
        <time>2022-05-01T10:49:30.413Z</time>
      </trkpt>
      <trkpt lat="45.77051" lon="5.90884">
        <ele>434</ele>
        <time>2022-05-01T10:49:31.413Z</time>
      </trkpt>
      <trkpt lat="45.77052" lon="5.9088">
        <ele>434</ele>
        <time>2022-05-01T10:49:32.413Z</time>
      </trkpt>
      <trkpt lat="45.77054" lon="5.90876">
        <ele>433</ele>
        <time>2022-05-01T10:49:33.412Z</time>
      </trkpt>
      <trkpt lat="45.77056" lon="5.90872">
        <ele>433</ele>
        <time>2022-05-01T10:49:34.413Z</time>
      </trkpt>
      <trkpt lat="45.77058" lon="5.90868">
        <ele>433</ele>
        <time>2022-05-01T10:49:35.413Z</time>
      </trkpt>
      <trkpt lat="45.7706" lon="5.90864">
        <ele>434</ele>
        <time>2022-05-01T10:49:36.413Z</time>
      </trkpt>
      <trkpt lat="45.77062" lon="5.9086">
        <ele>434</ele>
        <time>2022-05-01T10:49:37.413Z</time>
      </trkpt>
      <trkpt lat="45.77064" lon="5.90856">
        <ele>435</ele>
        <time>2022-05-01T10:49:38.413Z</time>
      </trkpt>
      <trkpt lat="45.77066" lon="5.90853">
        <ele>435</ele>
        <time>2022-05-01T10:49:39.412Z</time>
      </trkpt>
      <trkpt lat="45.77068" lon="5.90849">
        <ele>435</ele>
        <time>2022-05-01T10:49:40.413Z</time>
      </trkpt>
      <trkpt lat="45.77069" lon="5.90845">
        <ele>435</ele>
        <time>2022-05-01T10:49:41.413Z</time>
      </trkpt>
      <trkpt lat="45.77071" lon="5.90841">
        <ele>435</ele>
        <time>2022-05-01T10:49:42.413Z</time>
      </trkpt>
      <trkpt lat="45.77073" lon="5.90837">
        <ele>435</ele>
        <time>2022-05-01T10:49:43.413Z</time>
      </trkpt>
      <trkpt lat="45.77075" lon="5.90833">
        <ele>435</ele>
        <time>2022-05-01T10:49:44.412Z</time>
      </trkpt>
      <trkpt lat="45.77077" lon="5.90829">
        <ele>435</ele>
        <time>2022-05-01T10:49:45.413Z</time>
      </trkpt>
      <trkpt lat="45.77079" lon="5.90825">
        <ele>435</ele>
        <time>2022-05-01T10:49:46.413Z</time>
      </trkpt>
      <trkpt lat="45.77081" lon="5.90821">
        <ele>435</ele>
        <time>2022-05-01T10:49:47.413Z</time>
      </trkpt>
      <trkpt lat="45.77083" lon="5.90818">
        <ele>435</ele>
        <time>2022-05-01T10:49:48.412Z</time>
      </trkpt>
      <trkpt lat="45.77085" lon="5.90814">
        <ele>435</ele>
        <time>2022-05-01T10:49:49.413Z</time>
      </trkpt>
      <trkpt lat="45.77087" lon="5.9081">
        <ele>435</ele>
        <time>2022-05-01T10:49:50.413Z</time>
      </trkpt>
      <trkpt lat="45.77089" lon="5.90806">
        <ele>435</ele>
        <time>2022-05-01T10:49:51.413Z</time>
      </trkpt>
      <trkpt lat="45.77091" lon="5.90802">
        <ele>435</ele>
        <time>2022-05-01T10:49:52.412Z</time>
      </trkpt>
      <trkpt lat="45.77094" lon="5.90798">
        <ele>435</ele>
        <time>2022-05-01T10:49:53.413Z</time>
      </trkpt>
      <trkpt lat="45.77096" lon="5.90794">
        <ele>435</ele>
        <time>2022-05-01T10:49:54.413Z</time>
      </trkpt>
      <trkpt lat="45.77098" lon="5.9079">
        <ele>436</ele>
        <time>2022-05-01T10:49:55.413Z</time>
      </trkpt>
      <trkpt lat="45.771" lon="5.90787">
        <ele>436</ele>
        <time>2022-05-01T10:49:56.413Z</time>
      </trkpt>
      <trkpt lat="45.77102" lon="5.90782">
        <ele>436</ele>
        <time>2022-05-01T10:49:57.412Z</time>
      </trkpt>
      <trkpt lat="45.77104" lon="5.90778">
        <ele>437</ele>
        <time>2022-05-01T10:49:58.413Z</time>
      </trkpt>
      <trkpt lat="45.77107" lon="5.90774">
        <ele>437</ele>
        <time>2022-05-01T10:49:59.413Z</time>
      </trkpt>
      <trkpt lat="45.77109" lon="5.9077">
        <ele>437</ele>
        <time>2022-05-01T10:50:00.412Z</time>
      </trkpt>
      <trkpt lat="45.77111" lon="5.90766">
        <ele>437</ele>
        <time>2022-05-01T10:50:01.412Z</time>
      </trkpt>
      <trkpt lat="45.77113" lon="5.90763">
        <ele>437</ele>
        <time>2022-05-01T10:50:02.413Z</time>
      </trkpt>
      <trkpt lat="45.77115" lon="5.90759">
        <ele>437</ele>
        <time>2022-05-01T10:50:03.413Z</time>
      </trkpt>
      <trkpt lat="45.77117" lon="5.90755">
        <ele>437</ele>
        <time>2022-05-01T10:50:04.413Z</time>
      </trkpt>
      <trkpt lat="45.77119" lon="5.90751">
        <ele>437</ele>
        <time>2022-05-01T10:50:05.413Z</time>
      </trkpt>
      <trkpt lat="45.77121" lon="5.90747">
        <ele>437</ele>
        <time>2022-05-01T10:50:06.413Z</time>
      </trkpt>
      <trkpt lat="45.77123" lon="5.90743">
        <ele>437</ele>
        <time>2022-05-01T10:50:07.413Z</time>
      </trkpt>
      <trkpt lat="45.77125" lon="5.90739">
        <ele>436</ele>
        <time>2022-05-01T10:50:08.413Z</time>
      </trkpt>
      <trkpt lat="45.77127" lon="5.90735">
        <ele>436</ele>
        <time>2022-05-01T10:50:09.413Z</time>
      </trkpt>
      <trkpt lat="45.77129" lon="5.90731">
        <ele>436</ele>
        <time>2022-05-01T10:50:10.413Z</time>
      </trkpt>
      <trkpt lat="45.7713" lon="5.90728">
        <ele>436</ele>
        <time>2022-05-01T10:50:11.413Z</time>
      </trkpt>
      <trkpt lat="45.77132" lon="5.90724">
        <ele>436</ele>
        <time>2022-05-01T10:50:12.413Z</time>
      </trkpt>
      <trkpt lat="45.77134" lon="5.9072">
        <ele>437</ele>
        <time>2022-05-01T10:50:13.413Z</time>
      </trkpt>
      <trkpt lat="45.77135" lon="5.90715">
        <ele>437</ele>
        <time>2022-05-01T10:50:14.412Z</time>
      </trkpt>
      <trkpt lat="45.77137" lon="5.90711">
        <ele>437</ele>
        <time>2022-05-01T10:50:15.413Z</time>
      </trkpt>
      <trkpt lat="45.77138" lon="5.90706">
        <ele>437</ele>
        <time>2022-05-01T10:50:16.413Z</time>
      </trkpt>
      <trkpt lat="45.7714" lon="5.90702">
        <ele>438</ele>
        <time>2022-05-01T10:50:17.412Z</time>
      </trkpt>
      <trkpt lat="45.77141" lon="5.90698">
        <ele>438</ele>
        <time>2022-05-01T10:50:18.413Z</time>
      </trkpt>
      <trkpt lat="45.77143" lon="5.90694">
        <ele>438</ele>
        <time>2022-05-01T10:50:19.413Z</time>
      </trkpt>
      <trkpt lat="45.77145" lon="5.9069">
        <ele>438</ele>
        <time>2022-05-01T10:50:20.413Z</time>
      </trkpt>
      <trkpt lat="45.77146" lon="5.90686">
        <ele>438</ele>
        <time>2022-05-01T10:50:21.413Z</time>
      </trkpt>
      <trkpt lat="45.77148" lon="5.90682">
        <ele>438</ele>
        <time>2022-05-01T10:50:22.412Z</time>
      </trkpt>
      <trkpt lat="45.7715" lon="5.90678">
        <ele>438</ele>
        <time>2022-05-01T10:50:23.413Z</time>
      </trkpt>
      <trkpt lat="45.77151" lon="5.90674">
        <ele>438</ele>
        <time>2022-05-01T10:50:24.413Z</time>
      </trkpt>
      <trkpt lat="45.77153" lon="5.9067">
        <ele>439</ele>
        <time>2022-05-01T10:50:25.413Z</time>
      </trkpt>
      <trkpt lat="45.77155" lon="5.90666">
        <ele>439</ele>
        <time>2022-05-01T10:50:26.412Z</time>
      </trkpt>
      <trkpt lat="45.77157" lon="5.90663">
        <ele>439</ele>
        <time>2022-05-01T10:50:27.413Z</time>
      </trkpt>
      <trkpt lat="45.77158" lon="5.90659">
        <ele>439</ele>
        <time>2022-05-01T10:50:28.413Z</time>
      </trkpt>
      <trkpt lat="45.7716" lon="5.90654">
        <ele>439</ele>
        <time>2022-05-01T10:50:29.412Z</time>
      </trkpt>
      <trkpt lat="45.77162" lon="5.9065">
        <ele>439</ele>
        <time>2022-05-01T10:50:30.413Z</time>
      </trkpt>
      <trkpt lat="45.77163" lon="5.90646">
        <ele>439</ele>
        <time>2022-05-01T10:50:31.413Z</time>
      </trkpt>
      <trkpt lat="45.77164" lon="5.90642">
        <ele>439</ele>
        <time>2022-05-01T10:50:32.413Z</time>
      </trkpt>
      <trkpt lat="45.77165" lon="5.90637">
        <ele>438</ele>
        <time>2022-05-01T10:50:33.412Z</time>
      </trkpt>
      <trkpt lat="45.77167" lon="5.90633">
        <ele>438</ele>
        <time>2022-05-01T10:50:34.412Z</time>
      </trkpt>
      <trkpt lat="45.77168" lon="5.90629">
        <ele>439</ele>
        <time>2022-05-01T10:50:35.412Z</time>
      </trkpt>
      <trkpt lat="45.7717" lon="5.90625">
        <ele>439</ele>
        <time>2022-05-01T10:50:36.413Z</time>
      </trkpt>
      <trkpt lat="45.77172" lon="5.90621">
        <ele>440</ele>
        <time>2022-05-01T10:50:37.413Z</time>
      </trkpt>
      <trkpt lat="45.77174" lon="5.90617">
        <ele>440</ele>
        <time>2022-05-01T10:50:38.412Z</time>
      </trkpt>
      <trkpt lat="45.77175" lon="5.90614">
        <ele>440</ele>
        <time>2022-05-01T10:50:39.413Z</time>
      </trkpt>
      <trkpt lat="45.77177" lon="5.9061">
        <ele>441</ele>
        <time>2022-05-01T10:50:40.413Z</time>
      </trkpt>
      <trkpt lat="45.77179" lon="5.90605">
        <ele>441</ele>
        <time>2022-05-01T10:50:41.413Z</time>
      </trkpt>
      <trkpt lat="45.77181" lon="5.90601">
        <ele>441</ele>
        <time>2022-05-01T10:50:42.412Z</time>
      </trkpt>
      <trkpt lat="45.77182" lon="5.90596">
        <ele>442</ele>
        <time>2022-05-01T10:50:43.413Z</time>
      </trkpt>
      <trkpt lat="45.77184" lon="5.90592">
        <ele>443</ele>
        <time>2022-05-01T10:50:44.413Z</time>
      </trkpt>
      <trkpt lat="45.77185" lon="5.90587">
        <ele>443</ele>
        <time>2022-05-01T10:50:45.413Z</time>
      </trkpt>
      <trkpt lat="45.77187" lon="5.90583">
        <ele>444</ele>
        <time>2022-05-01T10:50:46.413Z</time>
      </trkpt>
      <trkpt lat="45.77189" lon="5.90579">
        <ele>444</ele>
        <time>2022-05-01T10:50:47.412Z</time>
      </trkpt>
      <trkpt lat="45.77191" lon="5.90575">
        <ele>444</ele>
        <time>2022-05-01T10:50:48.412Z</time>
      </trkpt>
      <trkpt lat="45.77193" lon="5.90571">
        <ele>444</ele>
        <time>2022-05-01T10:50:49.413Z</time>
      </trkpt>
      <trkpt lat="45.77196" lon="5.90567">
        <ele>443</ele>
        <time>2022-05-01T10:50:50.413Z</time>
      </trkpt>
      <trkpt lat="45.77198" lon="5.90563">
        <ele>443</ele>
        <time>2022-05-01T10:50:51.413Z</time>
      </trkpt>
      <trkpt lat="45.772" lon="5.9056">
        <ele>443</ele>
        <time>2022-05-01T10:50:52.413Z</time>
      </trkpt>
      <trkpt lat="45.77202" lon="5.90556">
        <ele>443</ele>
        <time>2022-05-01T10:50:53.413Z</time>
      </trkpt>
      <trkpt lat="45.77204" lon="5.90553">
        <ele>443</ele>
        <time>2022-05-01T10:50:54.413Z</time>
      </trkpt>
      <trkpt lat="45.77206" lon="5.90549">
        <ele>442</ele>
        <time>2022-05-01T10:50:55.412Z</time>
      </trkpt>
      <trkpt lat="45.77208" lon="5.90547">
        <ele>442</ele>
        <time>2022-05-01T10:50:56.413Z</time>
      </trkpt>
      <trkpt lat="45.77211" lon="5.90544">
        <ele>442</ele>
        <time>2022-05-01T10:50:57.412Z</time>
      </trkpt>
      <trkpt lat="45.77213" lon="5.90541">
        <ele>442</ele>
        <time>2022-05-01T10:50:58.413Z</time>
      </trkpt>
      <trkpt lat="45.77215" lon="5.90538">
        <ele>442</ele>
        <time>2022-05-01T10:50:59.413Z</time>
      </trkpt>
      <trkpt lat="45.77217" lon="5.90536">
        <ele>443</ele>
        <time>2022-05-01T10:51:00.412Z</time>
      </trkpt>
      <trkpt lat="45.77219" lon="5.90533">
        <ele>443</ele>
        <time>2022-05-01T10:51:01.413Z</time>
      </trkpt>
      <trkpt lat="45.77222" lon="5.90531">
        <ele>444</ele>
        <time>2022-05-01T10:51:02.413Z</time>
      </trkpt>
      <trkpt lat="45.77223" lon="5.90528">
        <ele>445</ele>
        <time>2022-05-01T10:51:03.413Z</time>
      </trkpt>
      <trkpt lat="45.77225" lon="5.90526">
        <ele>446</ele>
        <time>2022-05-01T10:51:04.413Z</time>
      </trkpt>
      <trkpt lat="45.77227" lon="5.90524">
        <ele>446</ele>
        <time>2022-05-01T10:51:05.413Z</time>
      </trkpt>
      <trkpt lat="45.77229" lon="5.90522">
        <ele>447</ele>
        <time>2022-05-01T10:51:06.413Z</time>
      </trkpt>
      <trkpt lat="45.77231" lon="5.9052">
        <ele>447</ele>
        <time>2022-05-01T10:51:07.413Z</time>
      </trkpt>
      <trkpt lat="45.77233" lon="5.90518">
        <ele>448</ele>
        <time>2022-05-01T10:51:08.413Z</time>
      </trkpt>
      <trkpt lat="45.77234" lon="5.90516">
        <ele>448</ele>
        <time>2022-05-01T10:51:09.413Z</time>
      </trkpt>
      <trkpt lat="45.77236" lon="5.90514">
        <ele>449</ele>
        <time>2022-05-01T10:51:10.413Z</time>
      </trkpt>
      <trkpt lat="45.77238" lon="5.90512">
        <ele>449</ele>
        <time>2022-05-01T10:51:11.413Z</time>
      </trkpt>
      <trkpt lat="45.7724" lon="5.9051">
        <ele>450</ele>
        <time>2022-05-01T10:51:12.412Z</time>
      </trkpt>
      <trkpt lat="45.77242" lon="5.90509">
        <ele>450</ele>
        <time>2022-05-01T10:51:13.412Z</time>
      </trkpt>
      <trkpt lat="45.77244" lon="5.90506">
        <ele>450</ele>
        <time>2022-05-01T10:51:14.412Z</time>
      </trkpt>
      <trkpt lat="45.77246" lon="5.90504">
        <ele>451</ele>
        <time>2022-05-01T10:51:15.412Z</time>
      </trkpt>
      <trkpt lat="45.77248" lon="5.90502">
        <ele>451</ele>
        <time>2022-05-01T10:51:16.413Z</time>
      </trkpt>
      <trkpt lat="45.77249" lon="5.905">
        <ele>452</ele>
        <time>2022-05-01T10:51:17.413Z</time>
      </trkpt>
      <trkpt lat="45.77251" lon="5.90498">
        <ele>452</ele>
        <time>2022-05-01T10:51:18.413Z</time>
      </trkpt>
      <trkpt lat="45.77252" lon="5.90496">
        <ele>452</ele>
        <time>2022-05-01T10:51:19.413Z</time>
      </trkpt>
      <trkpt lat="45.77253" lon="5.90493">
        <ele>452</ele>
        <time>2022-05-01T10:51:20.413Z</time>
      </trkpt>
      <trkpt lat="45.77254" lon="5.9049">
        <ele>451</ele>
        <time>2022-05-01T10:51:21.413Z</time>
      </trkpt>
      <trkpt lat="45.77255" lon="5.90486">
        <ele>451</ele>
        <time>2022-05-01T10:51:22.413Z</time>
      </trkpt>
      <trkpt lat="45.77256" lon="5.90483">
        <ele>450</ele>
        <time>2022-05-01T10:51:23.413Z</time>
      </trkpt>
      <trkpt lat="45.77257" lon="5.9048">
        <ele>450</ele>
        <time>2022-05-01T10:51:24.412Z</time>
      </trkpt>
      <trkpt lat="45.77257" lon="5.90476">
        <ele>450</ele>
        <time>2022-05-01T10:51:25.413Z</time>
      </trkpt>
      <trkpt lat="45.77258" lon="5.90472">
        <ele>450</ele>
        <time>2022-05-01T10:51:26.412Z</time>
      </trkpt>
      <trkpt lat="45.77258" lon="5.90469">
        <ele>449</ele>
        <time>2022-05-01T10:51:27.413Z</time>
      </trkpt>
      <trkpt lat="45.77258" lon="5.90464">
        <ele>449</ele>
        <time>2022-05-01T10:51:28.413Z</time>
      </trkpt>
      <trkpt lat="45.77258" lon="5.90461">
        <ele>449</ele>
        <time>2022-05-01T10:51:29.413Z</time>
      </trkpt>
      <trkpt lat="45.77259" lon="5.90456">
        <ele>449</ele>
        <time>2022-05-01T10:51:30.413Z</time>
      </trkpt>
      <trkpt lat="45.77259" lon="5.90453">
        <ele>450</ele>
        <time>2022-05-01T10:51:31.413Z</time>
      </trkpt>
      <trkpt lat="45.77259" lon="5.90449">
        <ele>450</ele>
        <time>2022-05-01T10:51:32.413Z</time>
      </trkpt>
      <trkpt lat="45.77259" lon="5.90445">
        <ele>450</ele>
        <time>2022-05-01T10:51:33.413Z</time>
      </trkpt>
      <trkpt lat="45.7726" lon="5.90441">
        <ele>451</ele>
        <time>2022-05-01T10:51:34.413Z</time>
      </trkpt>
      <trkpt lat="45.7726" lon="5.90437">
        <ele>450</ele>
        <time>2022-05-01T10:51:35.413Z</time>
      </trkpt>
      <trkpt lat="45.7726" lon="5.90434">
        <ele>450</ele>
        <time>2022-05-01T10:51:36.413Z</time>
      </trkpt>
      <trkpt lat="45.7726" lon="5.9043">
        <ele>450</ele>
        <time>2022-05-01T10:51:37.413Z</time>
      </trkpt>
      <trkpt lat="45.7726" lon="5.90426">
        <ele>449</ele>
        <time>2022-05-01T10:51:38.412Z</time>
      </trkpt>
      <trkpt lat="45.77259" lon="5.90422">
        <ele>449</ele>
        <time>2022-05-01T10:51:39.413Z</time>
      </trkpt>
      <trkpt lat="45.77259" lon="5.90418">
        <ele>449</ele>
        <time>2022-05-01T10:51:40.413Z</time>
      </trkpt>
      <trkpt lat="45.77258" lon="5.90414">
        <ele>449</ele>
        <time>2022-05-01T10:51:41.412Z</time>
      </trkpt>
      <trkpt lat="45.77258" lon="5.90411">
        <ele>449</ele>
        <time>2022-05-01T10:51:42.413Z</time>
      </trkpt>
      <trkpt lat="45.77257" lon="5.90407">
        <ele>449</ele>
        <time>2022-05-01T10:51:43.412Z</time>
      </trkpt>
      <trkpt lat="45.77257" lon="5.90403">
        <ele>449</ele>
        <time>2022-05-01T10:51:44.413Z</time>
      </trkpt>
      <trkpt lat="45.77256" lon="5.90399">
        <ele>449</ele>
        <time>2022-05-01T10:51:45.412Z</time>
      </trkpt>
      <trkpt lat="45.77255" lon="5.90395">
        <ele>450</ele>
        <time>2022-05-01T10:51:46.413Z</time>
      </trkpt>
      <trkpt lat="45.77254" lon="5.90392">
        <ele>450</ele>
        <time>2022-05-01T10:51:47.412Z</time>
      </trkpt>
      <trkpt lat="45.77254" lon="5.90388">
        <ele>450</ele>
        <time>2022-05-01T10:51:48.412Z</time>
      </trkpt>
      <trkpt lat="45.77253" lon="5.90384">
        <ele>450</ele>
        <time>2022-05-01T10:51:49.413Z</time>
      </trkpt>
      <trkpt lat="45.77252" lon="5.90381">
        <ele>450</ele>
        <time>2022-05-01T10:51:50.413Z</time>
      </trkpt>
      <trkpt lat="45.77251" lon="5.90378">
        <ele>450</ele>
        <time>2022-05-01T10:51:51.413Z</time>
      </trkpt>
      <trkpt lat="45.7725" lon="5.90374">
        <ele>450</ele>
        <time>2022-05-01T10:51:52.413Z</time>
      </trkpt>
      <trkpt lat="45.7725" lon="5.90371">
        <ele>450</ele>
        <time>2022-05-01T10:51:53.413Z</time>
      </trkpt>
      <trkpt lat="45.77249" lon="5.90367">
        <ele>450</ele>
        <time>2022-05-01T10:51:54.413Z</time>
      </trkpt>
      <trkpt lat="45.77248" lon="5.90363">
        <ele>450</ele>
        <time>2022-05-01T10:51:55.413Z</time>
      </trkpt>
      <trkpt lat="45.77248" lon="5.9036">
        <ele>450</ele>
        <time>2022-05-01T10:51:56.413Z</time>
      </trkpt>
      <trkpt lat="45.77247" lon="5.90356">
        <ele>450</ele>
        <time>2022-05-01T10:51:57.413Z</time>
      </trkpt>
      <trkpt lat="45.77247" lon="5.90353">
        <ele>449</ele>
        <time>2022-05-01T10:51:58.413Z</time>
      </trkpt>
      <trkpt lat="45.77246" lon="5.90349">
        <ele>448</ele>
        <time>2022-05-01T10:51:59.413Z</time>
      </trkpt>
      <trkpt lat="45.77246" lon="5.90346">
        <ele>448</ele>
        <time>2022-05-01T10:52:00.412Z</time>
      </trkpt>
      <trkpt lat="45.77246" lon="5.90342">
        <ele>448</ele>
        <time>2022-05-01T10:52:01.413Z</time>
      </trkpt>
      <trkpt lat="45.77246" lon="5.90339">
        <ele>448</ele>
        <time>2022-05-01T10:52:02.413Z</time>
      </trkpt>
      <trkpt lat="45.77245" lon="5.90335">
        <ele>448</ele>
        <time>2022-05-01T10:52:03.413Z</time>
      </trkpt>
      <trkpt lat="45.77245" lon="5.90331">
        <ele>448</ele>
        <time>2022-05-01T10:52:04.412Z</time>
      </trkpt>
      <trkpt lat="45.77245" lon="5.90328">
        <ele>448</ele>
        <time>2022-05-01T10:52:05.413Z</time>
      </trkpt>
      <trkpt lat="45.77245" lon="5.90324">
        <ele>448</ele>
        <time>2022-05-01T10:52:06.412Z</time>
      </trkpt>
      <trkpt lat="45.77245" lon="5.90321">
        <ele>448</ele>
        <time>2022-05-01T10:52:07.413Z</time>
      </trkpt>
      <trkpt lat="45.77245" lon="5.90317">
        <ele>449</ele>
        <time>2022-05-01T10:52:08.412Z</time>
      </trkpt>
      <trkpt lat="45.77245" lon="5.90314">
        <ele>449</ele>
        <time>2022-05-01T10:52:09.412Z</time>
      </trkpt>
      <trkpt lat="45.77245" lon="5.90311">
        <ele>450</ele>
        <time>2022-05-01T10:52:10.413Z</time>
      </trkpt>
      <trkpt lat="45.77245" lon="5.90307">
        <ele>450</ele>
        <time>2022-05-01T10:52:11.413Z</time>
      </trkpt>
      <trkpt lat="45.77245" lon="5.90304">
        <ele>452</ele>
        <time>2022-05-01T10:52:12.413Z</time>
      </trkpt>
      <trkpt lat="45.77245" lon="5.90301">
        <ele>453</ele>
        <time>2022-05-01T10:52:13.413Z</time>
      </trkpt>
      <trkpt lat="45.77244" lon="5.90298">
        <ele>454</ele>
        <time>2022-05-01T10:52:14.413Z</time>
      </trkpt>
      <trkpt lat="45.77244" lon="5.90294">
        <ele>454</ele>
        <time>2022-05-01T10:52:15.413Z</time>
      </trkpt>
      <trkpt lat="45.77243" lon="5.90291">
        <ele>455</ele>
        <time>2022-05-01T10:52:16.413Z</time>
      </trkpt>
      <trkpt lat="45.77243" lon="5.90288">
        <ele>456</ele>
        <time>2022-05-01T10:52:17.413Z</time>
      </trkpt>
      <trkpt lat="45.77243" lon="5.90284">
        <ele>457</ele>
        <time>2022-05-01T10:52:18.413Z</time>
      </trkpt>
      <trkpt lat="45.77242" lon="5.90281">
        <ele>457</ele>
        <time>2022-05-01T10:52:19.413Z</time>
      </trkpt>
      <trkpt lat="45.77242" lon="5.90278">
        <ele>458</ele>
        <time>2022-05-01T10:52:20.412Z</time>
      </trkpt>
      <trkpt lat="45.77241" lon="5.90275">
        <ele>458</ele>
        <time>2022-05-01T10:52:21.413Z</time>
      </trkpt>
      <trkpt lat="45.77241" lon="5.90272">
        <ele>457</ele>
        <time>2022-05-01T10:52:22.413Z</time>
      </trkpt>
      <trkpt lat="45.7724" lon="5.90269">
        <ele>458</ele>
        <time>2022-05-01T10:52:23.412Z</time>
      </trkpt>
      <trkpt lat="45.77239" lon="5.90266">
        <ele>458</ele>
        <time>2022-05-01T10:52:24.413Z</time>
      </trkpt>
      <trkpt lat="45.77238" lon="5.90263">
        <ele>458</ele>
        <time>2022-05-01T10:52:25.413Z</time>
      </trkpt>
      <trkpt lat="45.77237" lon="5.90259">
        <ele>458</ele>
        <time>2022-05-01T10:52:26.413Z</time>
      </trkpt>
      <trkpt lat="45.77235" lon="5.90256">
        <ele>459</ele>
        <time>2022-05-01T10:52:27.412Z</time>
      </trkpt>
      <trkpt lat="45.77233" lon="5.90253">
        <ele>459</ele>
        <time>2022-05-01T10:52:28.413Z</time>
      </trkpt>
      <trkpt lat="45.77231" lon="5.9025">
        <ele>459</ele>
        <time>2022-05-01T10:52:29.413Z</time>
      </trkpt>
      <trkpt lat="45.77229" lon="5.90248">
        <ele>460</ele>
        <time>2022-05-01T10:52:30.413Z</time>
      </trkpt>
      <trkpt lat="45.77226" lon="5.90245">
        <ele>460</ele>
        <time>2022-05-01T10:52:31.413Z</time>
      </trkpt>
      <trkpt lat="45.77224" lon="5.90243">
        <ele>461</ele>
        <time>2022-05-01T10:52:32.413Z</time>
      </trkpt>
      <trkpt lat="45.77222" lon="5.90241">
        <ele>461</ele>
        <time>2022-05-01T10:52:33.413Z</time>
      </trkpt>
      <trkpt lat="45.7722" lon="5.90239">
        <ele>461</ele>
        <time>2022-05-01T10:52:34.412Z</time>
      </trkpt>
      <trkpt lat="45.77217" lon="5.90237">
        <ele>462</ele>
        <time>2022-05-01T10:52:35.413Z</time>
      </trkpt>
      <trkpt lat="45.77215" lon="5.90235">
        <ele>462</ele>
        <time>2022-05-01T10:52:36.412Z</time>
      </trkpt>
      <trkpt lat="45.77213" lon="5.90233">
        <ele>462</ele>
        <time>2022-05-01T10:52:37.413Z</time>
      </trkpt>
      <trkpt lat="45.77211" lon="5.9023">
        <ele>463</ele>
        <time>2022-05-01T10:52:38.412Z</time>
      </trkpt>
      <trkpt lat="45.77209" lon="5.90228">
        <ele>463</ele>
        <time>2022-05-01T10:52:39.413Z</time>
      </trkpt>
      <trkpt lat="45.77207" lon="5.90225">
        <ele>463</ele>
        <time>2022-05-01T10:52:40.412Z</time>
      </trkpt>
      <trkpt lat="45.77205" lon="5.90223">
        <ele>462</ele>
        <time>2022-05-01T10:52:41.413Z</time>
      </trkpt>
      <trkpt lat="45.77203" lon="5.9022">
        <ele>462</ele>
        <time>2022-05-01T10:52:42.413Z</time>
      </trkpt>
      <trkpt lat="45.77201" lon="5.90218">
        <ele>461</ele>
        <time>2022-05-01T10:52:43.413Z</time>
      </trkpt>
      <trkpt lat="45.772" lon="5.90215">
        <ele>461</ele>
        <time>2022-05-01T10:52:44.412Z</time>
      </trkpt>
      <trkpt lat="45.77198" lon="5.90212">
        <ele>460</ele>
        <time>2022-05-01T10:52:45.413Z</time>
      </trkpt>
      <trkpt lat="45.77196" lon="5.90209">
        <ele>460</ele>
        <time>2022-05-01T10:52:46.413Z</time>
      </trkpt>
      <trkpt lat="45.77195" lon="5.90206">
        <ele>461</ele>
        <time>2022-05-01T10:52:47.413Z</time>
      </trkpt>
      <trkpt lat="45.77194" lon="5.90203">
        <ele>461</ele>
        <time>2022-05-01T10:52:48.413Z</time>
      </trkpt>
      <trkpt lat="45.77193" lon="5.902">
        <ele>461</ele>
        <time>2022-05-01T10:52:49.412Z</time>
      </trkpt>
      <trkpt lat="45.77192" lon="5.90197">
        <ele>461</ele>
        <time>2022-05-01T10:52:50.413Z</time>
      </trkpt>
      <trkpt lat="45.77192" lon="5.90194">
        <ele>461</ele>
        <time>2022-05-01T10:52:51.412Z</time>
      </trkpt>
      <trkpt lat="45.77192" lon="5.9019">
        <ele>462</ele>
        <time>2022-05-01T10:52:52.413Z</time>
      </trkpt>
      <trkpt lat="45.77193" lon="5.90186">
        <ele>462</ele>
        <time>2022-05-01T10:52:53.413Z</time>
      </trkpt>
      <trkpt lat="45.77194" lon="5.90183">
        <ele>462</ele>
        <time>2022-05-01T10:52:54.413Z</time>
      </trkpt>
      <trkpt lat="45.77195" lon="5.9018">
        <ele>463</ele>
        <time>2022-05-01T10:52:55.413Z</time>
      </trkpt>
      <trkpt lat="45.77197" lon="5.90176">
        <ele>463</ele>
        <time>2022-05-01T10:52:56.413Z</time>
      </trkpt>
      <trkpt lat="45.77198" lon="5.90173">
        <ele>463</ele>
        <time>2022-05-01T10:52:57.412Z</time>
      </trkpt>
      <trkpt lat="45.77199" lon="5.9017">
        <ele>462</ele>
        <time>2022-05-01T10:52:58.413Z</time>
      </trkpt>
      <trkpt lat="45.77201" lon="5.90166">
        <ele>462</ele>
        <time>2022-05-01T10:52:59.413Z</time>
      </trkpt>
      <trkpt lat="45.77203" lon="5.90164">
        <ele>462</ele>
        <time>2022-05-01T10:53:00.413Z</time>
      </trkpt>
      <trkpt lat="45.77204" lon="5.90161">
        <ele>462</ele>
        <time>2022-05-01T10:53:01.413Z</time>
      </trkpt>
      <trkpt lat="45.77206" lon="5.90158">
        <ele>462</ele>
        <time>2022-05-01T10:53:02.413Z</time>
      </trkpt>
      <trkpt lat="45.77207" lon="5.90155">
        <ele>462</ele>
        <time>2022-05-01T10:53:03.413Z</time>
      </trkpt>
      <trkpt lat="45.77208" lon="5.90152">
        <ele>462</ele>
        <time>2022-05-01T10:53:04.412Z</time>
      </trkpt>
      <trkpt lat="45.7721" lon="5.9015">
        <ele>462</ele>
        <time>2022-05-01T10:53:05.413Z</time>
      </trkpt>
      <trkpt lat="45.77212" lon="5.90147">
        <ele>462</ele>
        <time>2022-05-01T10:53:06.413Z</time>
      </trkpt>
      <trkpt lat="45.77213" lon="5.90145">
        <ele>462</ele>
        <time>2022-05-01T10:53:07.413Z</time>
      </trkpt>
      <trkpt lat="45.77215" lon="5.90142">
        <ele>461</ele>
        <time>2022-05-01T10:53:08.412Z</time>
      </trkpt>
      <trkpt lat="45.77217" lon="5.90139">
        <ele>461</ele>
        <time>2022-05-01T10:53:09.412Z</time>
      </trkpt>
      <trkpt lat="45.77218" lon="5.90136">
        <ele>461</ele>
        <time>2022-05-01T10:53:10.413Z</time>
      </trkpt>
      <trkpt lat="45.7722" lon="5.90133">
        <ele>460</ele>
        <time>2022-05-01T10:53:11.413Z</time>
      </trkpt>
      <trkpt lat="45.77222" lon="5.90131">
        <ele>460</ele>
        <time>2022-05-01T10:53:12.412Z</time>
      </trkpt>
      <trkpt lat="45.77224" lon="5.90128">
        <ele>459</ele>
        <time>2022-05-01T10:53:13.413Z</time>
      </trkpt>
      <trkpt lat="45.77225" lon="5.90125">
        <ele>459</ele>
        <time>2022-05-01T10:53:14.413Z</time>
      </trkpt>
      <trkpt lat="45.77227" lon="5.90122">
        <ele>459</ele>
        <time>2022-05-01T10:53:15.412Z</time>
      </trkpt>
      <trkpt lat="45.77229" lon="5.90119">
        <ele>459</ele>
        <time>2022-05-01T10:53:16.413Z</time>
      </trkpt>
      <trkpt lat="45.7723" lon="5.90116">
        <ele>460</ele>
        <time>2022-05-01T10:53:17.413Z</time>
      </trkpt>
      <trkpt lat="45.77232" lon="5.90113">
        <ele>460</ele>
        <time>2022-05-01T10:53:18.412Z</time>
      </trkpt>
      <trkpt lat="45.77234" lon="5.9011">
        <ele>460</ele>
        <time>2022-05-01T10:53:19.413Z</time>
      </trkpt>
      <trkpt lat="45.77236" lon="5.90107">
        <ele>461</ele>
        <time>2022-05-01T10:53:20.413Z</time>
      </trkpt>
      <trkpt lat="45.77238" lon="5.90104">
        <ele>461</ele>
        <time>2022-05-01T10:53:21.412Z</time>
      </trkpt>
      <trkpt lat="45.77239" lon="5.90101">
        <ele>461</ele>
        <time>2022-05-01T10:53:22.413Z</time>
      </trkpt>
      <trkpt lat="45.77241" lon="5.90098">
        <ele>461</ele>
        <time>2022-05-01T10:53:23.412Z</time>
      </trkpt>
      <trkpt lat="45.77242" lon="5.90095">
        <ele>461</ele>
        <time>2022-05-01T10:53:24.413Z</time>
      </trkpt>
      <trkpt lat="45.77244" lon="5.90092">
        <ele>461</ele>
        <time>2022-05-01T10:53:25.412Z</time>
      </trkpt>
      <trkpt lat="45.77246" lon="5.90089">
        <ele>461</ele>
        <time>2022-05-01T10:53:26.413Z</time>
      </trkpt>
      <trkpt lat="45.77248" lon="5.90086">
        <ele>460</ele>
        <time>2022-05-01T10:53:27.413Z</time>
      </trkpt>
      <trkpt lat="45.7725" lon="5.90083">
        <ele>460</ele>
        <time>2022-05-01T10:53:28.413Z</time>
      </trkpt>
      <trkpt lat="45.77251" lon="5.9008">
        <ele>461</ele>
        <time>2022-05-01T10:53:29.412Z</time>
      </trkpt>
      <trkpt lat="45.77253" lon="5.90077">
        <ele>461</ele>
        <time>2022-05-01T10:53:30.412Z</time>
      </trkpt>
      <trkpt lat="45.77254" lon="5.90073">
        <ele>461</ele>
        <time>2022-05-01T10:53:31.412Z</time>
      </trkpt>
      <trkpt lat="45.77256" lon="5.9007">
        <ele>461</ele>
        <time>2022-05-01T10:53:32.413Z</time>
      </trkpt>
      <trkpt lat="45.77258" lon="5.90067">
        <ele>461</ele>
        <time>2022-05-01T10:53:33.412Z</time>
      </trkpt>
      <trkpt lat="45.7726" lon="5.90064">
        <ele>461</ele>
        <time>2022-05-01T10:53:34.413Z</time>
      </trkpt>
      <trkpt lat="45.77262" lon="5.90061">
        <ele>461</ele>
        <time>2022-05-01T10:53:35.413Z</time>
      </trkpt>
      <trkpt lat="45.77263" lon="5.90058">
        <ele>461</ele>
        <time>2022-05-01T10:53:36.413Z</time>
      </trkpt>
      <trkpt lat="45.77265" lon="5.90055">
        <ele>461</ele>
        <time>2022-05-01T10:53:37.413Z</time>
      </trkpt>
      <trkpt lat="45.77266" lon="5.90052">
        <ele>461</ele>
        <time>2022-05-01T10:53:38.413Z</time>
      </trkpt>
      <trkpt lat="45.77268" lon="5.90049">
        <ele>462</ele>
        <time>2022-05-01T10:53:39.412Z</time>
      </trkpt>
      <trkpt lat="45.77269" lon="5.90045">
        <ele>462</ele>
        <time>2022-05-01T10:53:40.412Z</time>
      </trkpt>
      <trkpt lat="45.77271" lon="5.90043">
        <ele>462</ele>
        <time>2022-05-01T10:53:41.412Z</time>
      </trkpt>
      <trkpt lat="45.77272" lon="5.90039">
        <ele>463</ele>
        <time>2022-05-01T10:53:42.412Z</time>
      </trkpt>
      <trkpt lat="45.77273" lon="5.90036">
        <ele>463</ele>
        <time>2022-05-01T10:53:43.413Z</time>
      </trkpt>
      <trkpt lat="45.77274" lon="5.90032">
        <ele>463</ele>
        <time>2022-05-01T10:53:44.413Z</time>
      </trkpt>
      <trkpt lat="45.77275" lon="5.90029">
        <ele>463</ele>
        <time>2022-05-01T10:53:45.412Z</time>
      </trkpt>
      <trkpt lat="45.77277" lon="5.90026">
        <ele>463</ele>
        <time>2022-05-01T10:53:46.413Z</time>
      </trkpt>
      <trkpt lat="45.77278" lon="5.90023">
        <ele>464</ele>
        <time>2022-05-01T10:53:47.412Z</time>
      </trkpt>
      <trkpt lat="45.77279" lon="5.90019">
        <ele>464</ele>
        <time>2022-05-01T10:53:48.413Z</time>
      </trkpt>
      <trkpt lat="45.7728" lon="5.90016">
        <ele>465</ele>
        <time>2022-05-01T10:53:49.413Z</time>
      </trkpt>
      <trkpt lat="45.77281" lon="5.90012">
        <ele>465</ele>
        <time>2022-05-01T10:53:50.413Z</time>
      </trkpt>
      <trkpt lat="45.77282" lon="5.90008">
        <ele>465</ele>
        <time>2022-05-01T10:53:51.412Z</time>
      </trkpt>
      <trkpt lat="45.77282" lon="5.90005">
        <ele>465</ele>
        <time>2022-05-01T10:53:52.413Z</time>
      </trkpt>
      <trkpt lat="45.77283" lon="5.90001">
        <ele>466</ele>
        <time>2022-05-01T10:53:53.413Z</time>
      </trkpt>
      <trkpt lat="45.77284" lon="5.89997">
        <ele>466</ele>
        <time>2022-05-01T10:53:54.413Z</time>
      </trkpt>
      <trkpt lat="45.77284" lon="5.89994">
        <ele>466</ele>
        <time>2022-05-01T10:53:55.412Z</time>
      </trkpt>
      <trkpt lat="45.77285" lon="5.89991">
        <ele>466</ele>
        <time>2022-05-01T10:53:56.413Z</time>
      </trkpt>
      <trkpt lat="45.77285" lon="5.89987">
        <ele>466</ele>
        <time>2022-05-01T10:53:57.412Z</time>
      </trkpt>
      <trkpt lat="45.77286" lon="5.89983">
        <ele>465</ele>
        <time>2022-05-01T10:53:58.413Z</time>
      </trkpt>
      <trkpt lat="45.77286" lon="5.89981">
        <ele>466</ele>
        <time>2022-05-01T10:53:59.413Z</time>
      </trkpt>
      <trkpt lat="45.77287" lon="5.89977">
        <ele>466</ele>
        <time>2022-05-01T10:54:00.412Z</time>
      </trkpt>
      <trkpt lat="45.77288" lon="5.89974">
        <ele>466</ele>
        <time>2022-05-01T10:54:01.413Z</time>
      </trkpt>
      <trkpt lat="45.77288" lon="5.89971">
        <ele>466</ele>
        <time>2022-05-01T10:54:02.413Z</time>
      </trkpt>
      <trkpt lat="45.77289" lon="5.89967">
        <ele>466</ele>
        <time>2022-05-01T10:54:03.413Z</time>
      </trkpt>
      <trkpt lat="45.77289" lon="5.89964">
        <ele>466</ele>
        <time>2022-05-01T10:54:04.412Z</time>
      </trkpt>
      <trkpt lat="45.7729" lon="5.8996">
        <ele>466</ele>
        <time>2022-05-01T10:54:05.412Z</time>
      </trkpt>
      <trkpt lat="45.7729" lon="5.89957">
        <ele>466</ele>
        <time>2022-05-01T10:54:06.413Z</time>
      </trkpt>
      <trkpt lat="45.77291" lon="5.89953">
        <ele>466</ele>
        <time>2022-05-01T10:54:07.413Z</time>
      </trkpt>
      <trkpt lat="45.77292" lon="5.89951">
        <ele>466</ele>
        <time>2022-05-01T10:54:08.413Z</time>
      </trkpt>
      <trkpt lat="45.77292" lon="5.89947">
        <ele>467</ele>
        <time>2022-05-01T10:54:09.413Z</time>
      </trkpt>
      <trkpt lat="45.77293" lon="5.89944">
        <ele>467</ele>
        <time>2022-05-01T10:54:10.413Z</time>
      </trkpt>
      <trkpt lat="45.77293" lon="5.89941">
        <ele>467</ele>
        <time>2022-05-01T10:54:11.413Z</time>
      </trkpt>
      <trkpt lat="45.77294" lon="5.89937">
        <ele>467</ele>
        <time>2022-05-01T10:54:12.413Z</time>
      </trkpt>
      <trkpt lat="45.77294" lon="5.89934">
        <ele>467</ele>
        <time>2022-05-01T10:54:13.412Z</time>
      </trkpt>
      <trkpt lat="45.77295" lon="5.89931">
        <ele>467</ele>
        <time>2022-05-01T10:54:14.413Z</time>
      </trkpt>
      <trkpt lat="45.77295" lon="5.89927">
        <ele>468</ele>
        <time>2022-05-01T10:54:15.413Z</time>
      </trkpt>
      <trkpt lat="45.77296" lon="5.89924">
        <ele>468</ele>
        <time>2022-05-01T10:54:16.412Z</time>
      </trkpt>
      <trkpt lat="45.77296" lon="5.89921">
        <ele>468</ele>
        <time>2022-05-01T10:54:17.412Z</time>
      </trkpt>
      <trkpt lat="45.77297" lon="5.89918">
        <ele>468</ele>
        <time>2022-05-01T10:54:18.413Z</time>
      </trkpt>
      <trkpt lat="45.77297" lon="5.89914">
        <ele>468</ele>
        <time>2022-05-01T10:54:19.413Z</time>
      </trkpt>
      <trkpt lat="45.77298" lon="5.89911">
        <ele>468</ele>
        <time>2022-05-01T10:54:20.412Z</time>
      </trkpt>
      <trkpt lat="45.77298" lon="5.89908">
        <ele>468</ele>
        <time>2022-05-01T10:54:21.413Z</time>
      </trkpt>
      <trkpt lat="45.77299" lon="5.89904">
        <ele>468</ele>
        <time>2022-05-01T10:54:22.412Z</time>
      </trkpt>
      <trkpt lat="45.77299" lon="5.89901">
        <ele>467</ele>
        <time>2022-05-01T10:54:23.413Z</time>
      </trkpt>
      <trkpt lat="45.77299" lon="5.89898">
        <ele>467</ele>
        <time>2022-05-01T10:54:24.412Z</time>
      </trkpt>
      <trkpt lat="45.773" lon="5.89894">
        <ele>468</ele>
        <time>2022-05-01T10:54:25.413Z</time>
      </trkpt>
      <trkpt lat="45.773" lon="5.89891">
        <ele>468</ele>
        <time>2022-05-01T10:54:26.413Z</time>
      </trkpt>
      <trkpt lat="45.77301" lon="5.89888">
        <ele>468</ele>
        <time>2022-05-01T10:54:27.412Z</time>
      </trkpt>
      <trkpt lat="45.77301" lon="5.89884">
        <ele>468</ele>
        <time>2022-05-01T10:54:28.413Z</time>
      </trkpt>
      <trkpt lat="45.77301" lon="5.89881">
        <ele>469</ele>
        <time>2022-05-01T10:54:29.413Z</time>
      </trkpt>
      <trkpt lat="45.77302" lon="5.89877">
        <ele>468</ele>
        <time>2022-05-01T10:54:30.413Z</time>
      </trkpt>
      <trkpt lat="45.77302" lon="5.89873">
        <ele>468</ele>
        <time>2022-05-01T10:54:31.413Z</time>
      </trkpt>
      <trkpt lat="45.77302" lon="5.8987">
        <ele>468</ele>
        <time>2022-05-01T10:54:32.413Z</time>
      </trkpt>
      <trkpt lat="45.77302" lon="5.89866">
        <ele>468</ele>
        <time>2022-05-01T10:54:33.413Z</time>
      </trkpt>
      <trkpt lat="45.77302" lon="5.89863">
        <ele>469</ele>
        <time>2022-05-01T10:54:34.413Z</time>
      </trkpt>
      <trkpt lat="45.77302" lon="5.8986">
        <ele>470</ele>
        <time>2022-05-01T10:54:35.413Z</time>
      </trkpt>
      <trkpt lat="45.77302" lon="5.89857">
        <ele>471</ele>
        <time>2022-05-01T10:54:36.413Z</time>
      </trkpt>
      <trkpt lat="45.77302" lon="5.89854">
        <ele>472</ele>
        <time>2022-05-01T10:54:37.413Z</time>
      </trkpt>
      <trkpt lat="45.77302" lon="5.89851">
        <ele>472</ele>
        <time>2022-05-01T10:54:38.413Z</time>
      </trkpt>
      <trkpt lat="45.77302" lon="5.89847">
        <ele>472</ele>
        <time>2022-05-01T10:54:39.413Z</time>
      </trkpt>
      <trkpt lat="45.77302" lon="5.89844">
        <ele>471</ele>
        <time>2022-05-01T10:54:40.413Z</time>
      </trkpt>
      <trkpt lat="45.77302" lon="5.89841">
        <ele>472</ele>
        <time>2022-05-01T10:54:41.413Z</time>
      </trkpt>
      <trkpt lat="45.77302" lon="5.89838">
        <ele>472</ele>
        <time>2022-05-01T10:54:42.412Z</time>
      </trkpt>
      <trkpt lat="45.77302" lon="5.89835">
        <ele>472</ele>
        <time>2022-05-01T10:54:43.413Z</time>
      </trkpt>
      <trkpt lat="45.77303" lon="5.89832">
        <ele>472</ele>
        <time>2022-05-01T10:54:44.413Z</time>
      </trkpt>
      <trkpt lat="45.77303" lon="5.89828">
        <ele>472</ele>
        <time>2022-05-01T10:54:45.413Z</time>
      </trkpt>
      <trkpt lat="45.77304" lon="5.89825">
        <ele>472</ele>
        <time>2022-05-01T10:54:46.413Z</time>
      </trkpt>
      <trkpt lat="45.77304" lon="5.89821">
        <ele>471</ele>
        <time>2022-05-01T10:54:47.413Z</time>
      </trkpt>
      <trkpt lat="45.77304" lon="5.89818">
        <ele>471</ele>
        <time>2022-05-01T10:54:48.412Z</time>
      </trkpt>
      <trkpt lat="45.77304" lon="5.89814">
        <ele>471</ele>
        <time>2022-05-01T10:54:49.412Z</time>
      </trkpt>
      <trkpt lat="45.77304" lon="5.8981">
        <ele>471</ele>
        <time>2022-05-01T10:54:50.413Z</time>
      </trkpt>
      <trkpt lat="45.77305" lon="5.89807">
        <ele>470</ele>
        <time>2022-05-01T10:54:51.413Z</time>
      </trkpt>
      <trkpt lat="45.77305" lon="5.89804">
        <ele>470</ele>
        <time>2022-05-01T10:54:52.413Z</time>
      </trkpt>
      <trkpt lat="45.77305" lon="5.898">
        <ele>469</ele>
        <time>2022-05-01T10:54:53.412Z</time>
      </trkpt>
      <trkpt lat="45.77305" lon="5.89797">
        <ele>469</ele>
        <time>2022-05-01T10:54:54.413Z</time>
      </trkpt>
      <trkpt lat="45.77305" lon="5.89793">
        <ele>469</ele>
        <time>2022-05-01T10:54:55.412Z</time>
      </trkpt>
      <trkpt lat="45.77305" lon="5.8979">
        <ele>469</ele>
        <time>2022-05-01T10:54:56.412Z</time>
      </trkpt>
      <trkpt lat="45.77305" lon="5.89786">
        <ele>469</ele>
        <time>2022-05-01T10:54:57.412Z</time>
      </trkpt>
      <trkpt lat="45.77305" lon="5.89782">
        <ele>470</ele>
        <time>2022-05-01T10:54:58.413Z</time>
      </trkpt>
      <trkpt lat="45.77305" lon="5.89779">
        <ele>471</ele>
        <time>2022-05-01T10:54:59.412Z</time>
      </trkpt>
      <trkpt lat="45.77305" lon="5.89775">
        <ele>472</ele>
        <time>2022-05-01T10:55:00.413Z</time>
      </trkpt>
      <trkpt lat="45.77306" lon="5.89772">
        <ele>472</ele>
        <time>2022-05-01T10:55:01.412Z</time>
      </trkpt>
      <trkpt lat="45.77306" lon="5.89768">
        <ele>472</ele>
        <time>2022-05-01T10:55:02.412Z</time>
      </trkpt>
      <trkpt lat="45.77306" lon="5.89764">
        <ele>472</ele>
        <time>2022-05-01T10:55:03.413Z</time>
      </trkpt>
      <trkpt lat="45.77306" lon="5.89761">
        <ele>472</ele>
        <time>2022-05-01T10:55:04.412Z</time>
      </trkpt>
      <trkpt lat="45.77306" lon="5.89757">
        <ele>471</ele>
        <time>2022-05-01T10:55:05.413Z</time>
      </trkpt>
      <trkpt lat="45.77306" lon="5.89753">
        <ele>472</ele>
        <time>2022-05-01T10:55:06.412Z</time>
      </trkpt>
      <trkpt lat="45.77306" lon="5.89748">
        <ele>472</ele>
        <time>2022-05-01T10:55:07.413Z</time>
      </trkpt>
      <trkpt lat="45.77306" lon="5.89744">
        <ele>473</ele>
        <time>2022-05-01T10:55:08.412Z</time>
      </trkpt>
      <trkpt lat="45.77307" lon="5.8974">
        <ele>473</ele>
        <time>2022-05-01T10:55:09.413Z</time>
      </trkpt>
      <trkpt lat="45.77307" lon="5.89737">
        <ele>472</ele>
        <time>2022-05-01T10:55:10.413Z</time>
      </trkpt>
      <trkpt lat="45.77306" lon="5.89733">
        <ele>472</ele>
        <time>2022-05-01T10:55:11.412Z</time>
      </trkpt>
      <trkpt lat="45.77306" lon="5.89729">
        <ele>471</ele>
        <time>2022-05-01T10:55:12.413Z</time>
      </trkpt>
      <trkpt lat="45.77306" lon="5.89725">
        <ele>471</ele>
        <time>2022-05-01T10:55:13.413Z</time>
      </trkpt>
      <trkpt lat="45.77306" lon="5.89722">
        <ele>471</ele>
        <time>2022-05-01T10:55:14.413Z</time>
      </trkpt>
      <trkpt lat="45.77306" lon="5.89718">
        <ele>471</ele>
        <time>2022-05-01T10:55:15.413Z</time>
      </trkpt>
      <trkpt lat="45.77306" lon="5.89714">
        <ele>471</ele>
        <time>2022-05-01T10:55:16.413Z</time>
      </trkpt>
      <trkpt lat="45.77307" lon="5.8971">
        <ele>472</ele>
        <time>2022-05-01T10:55:17.413Z</time>
      </trkpt>
      <trkpt lat="45.77307" lon="5.89705">
        <ele>472</ele>
        <time>2022-05-01T10:55:18.413Z</time>
      </trkpt>
      <trkpt lat="45.77306" lon="5.89702">
        <ele>472</ele>
        <time>2022-05-01T10:55:19.413Z</time>
      </trkpt>
      <trkpt lat="45.77306" lon="5.89698">
        <ele>472</ele>
        <time>2022-05-01T10:55:20.413Z</time>
      </trkpt>
      <trkpt lat="45.77306" lon="5.89694">
        <ele>472</ele>
        <time>2022-05-01T10:55:21.413Z</time>
      </trkpt>
      <trkpt lat="45.77305" lon="5.89689">
        <ele>472</ele>
        <time>2022-05-01T10:55:22.413Z</time>
      </trkpt>
      <trkpt lat="45.77305" lon="5.89685">
        <ele>472</ele>
        <time>2022-05-01T10:55:23.413Z</time>
      </trkpt>
      <trkpt lat="45.77305" lon="5.89681">
        <ele>472</ele>
        <time>2022-05-01T10:55:24.413Z</time>
      </trkpt>
      <trkpt lat="45.77304" lon="5.89676">
        <ele>471</ele>
        <time>2022-05-01T10:55:25.413Z</time>
      </trkpt>
      <trkpt lat="45.77304" lon="5.89672">
        <ele>471</ele>
        <time>2022-05-01T10:55:26.413Z</time>
      </trkpt>
      <trkpt lat="45.77303" lon="5.89667">
        <ele>471</ele>
        <time>2022-05-01T10:55:27.412Z</time>
      </trkpt>
      <trkpt lat="45.77303" lon="5.89663">
        <ele>471</ele>
        <time>2022-05-01T10:55:28.412Z</time>
      </trkpt>
      <trkpt lat="45.77303" lon="5.89658">
        <ele>472</ele>
        <time>2022-05-01T10:55:29.413Z</time>
      </trkpt>
      <trkpt lat="45.77303" lon="5.89654">
        <ele>472</ele>
        <time>2022-05-01T10:55:30.413Z</time>
      </trkpt>
      <trkpt lat="45.77303" lon="5.89649">
        <ele>473</ele>
        <time>2022-05-01T10:55:31.413Z</time>
      </trkpt>
      <trkpt lat="45.77303" lon="5.89645">
        <ele>473</ele>
        <time>2022-05-01T10:55:32.412Z</time>
      </trkpt>
      <trkpt lat="45.77304" lon="5.8964">
        <ele>474</ele>
        <time>2022-05-01T10:55:33.413Z</time>
      </trkpt>
      <trkpt lat="45.77305" lon="5.89636">
        <ele>474</ele>
        <time>2022-05-01T10:55:34.413Z</time>
      </trkpt>
      <trkpt lat="45.77306" lon="5.89631">
        <ele>474</ele>
        <time>2022-05-01T10:55:35.413Z</time>
      </trkpt>
      <trkpt lat="45.77307" lon="5.89627">
        <ele>474</ele>
        <time>2022-05-01T10:55:36.412Z</time>
      </trkpt>
      <trkpt lat="45.77308" lon="5.89623">
        <ele>474</ele>
        <time>2022-05-01T10:55:37.413Z</time>
      </trkpt>
      <trkpt lat="45.77309" lon="5.89619">
        <ele>474</ele>
        <time>2022-05-01T10:55:38.413Z</time>
      </trkpt>
      <trkpt lat="45.77311" lon="5.89615">
        <ele>474</ele>
        <time>2022-05-01T10:55:39.413Z</time>
      </trkpt>
      <trkpt lat="45.77313" lon="5.89611">
        <ele>474</ele>
        <time>2022-05-01T10:55:40.413Z</time>
      </trkpt>
      <trkpt lat="45.77314" lon="5.89607">
        <ele>474</ele>
        <time>2022-05-01T10:55:41.413Z</time>
      </trkpt>
      <trkpt lat="45.77316" lon="5.89603">
        <ele>474</ele>
        <time>2022-05-01T10:55:42.412Z</time>
      </trkpt>
      <trkpt lat="45.77318" lon="5.896">
        <ele>474</ele>
        <time>2022-05-01T10:55:43.413Z</time>
      </trkpt>
      <trkpt lat="45.77319" lon="5.89596">
        <ele>474</ele>
        <time>2022-05-01T10:55:44.412Z</time>
      </trkpt>
      <trkpt lat="45.77321" lon="5.89593">
        <ele>473</ele>
        <time>2022-05-01T10:55:45.412Z</time>
      </trkpt>
      <trkpt lat="45.77323" lon="5.89589">
        <ele>474</ele>
        <time>2022-05-01T10:55:46.413Z</time>
      </trkpt>
      <trkpt lat="45.77324" lon="5.89585">
        <ele>474</ele>
        <time>2022-05-01T10:55:47.413Z</time>
      </trkpt>
      <trkpt lat="45.77326" lon="5.89582">
        <ele>474</ele>
        <time>2022-05-01T10:55:48.413Z</time>
      </trkpt>
      <trkpt lat="45.77327" lon="5.89578">
        <ele>474</ele>
        <time>2022-05-01T10:55:49.413Z</time>
      </trkpt>
      <trkpt lat="45.77329" lon="5.89574">
        <ele>474</ele>
        <time>2022-05-01T10:55:50.413Z</time>
      </trkpt>
      <trkpt lat="45.77331" lon="5.8957">
        <ele>475</ele>
        <time>2022-05-01T10:55:51.412Z</time>
      </trkpt>
      <trkpt lat="45.77332" lon="5.89567">
        <ele>475</ele>
        <time>2022-05-01T10:55:52.412Z</time>
      </trkpt>
      <trkpt lat="45.77334" lon="5.89562">
        <ele>476</ele>
        <time>2022-05-01T10:55:53.412Z</time>
      </trkpt>
      <trkpt lat="45.77335" lon="5.89559">
        <ele>477</ele>
        <time>2022-05-01T10:55:54.412Z</time>
      </trkpt>
      <trkpt lat="45.77337" lon="5.89555">
        <ele>477</ele>
        <time>2022-05-01T10:55:55.413Z</time>
      </trkpt>
      <trkpt lat="45.77339" lon="5.89551">
        <ele>477</ele>
        <time>2022-05-01T10:55:56.413Z</time>
      </trkpt>
      <trkpt lat="45.7734" lon="5.89547">
        <ele>476</ele>
        <time>2022-05-01T10:55:57.413Z</time>
      </trkpt>
      <trkpt lat="45.77342" lon="5.89543">
        <ele>476</ele>
        <time>2022-05-01T10:55:58.413Z</time>
      </trkpt>
      <trkpt lat="45.77345" lon="5.89539">
        <ele>476</ele>
        <time>2022-05-01T10:55:59.412Z</time>
      </trkpt>
      <trkpt lat="45.77347" lon="5.89535">
        <ele>476</ele>
        <time>2022-05-01T10:56:00.413Z</time>
      </trkpt>
      <trkpt lat="45.77349" lon="5.89532">
        <ele>477</ele>
        <time>2022-05-01T10:56:01.412Z</time>
      </trkpt>
      <trkpt lat="45.77351" lon="5.89528">
        <ele>477</ele>
        <time>2022-05-01T10:56:02.413Z</time>
      </trkpt>
      <trkpt lat="45.77353" lon="5.89524">
        <ele>477</ele>
        <time>2022-05-01T10:56:03.413Z</time>
      </trkpt>
      <trkpt lat="45.77355" lon="5.89521">
        <ele>477</ele>
        <time>2022-05-01T10:56:04.413Z</time>
      </trkpt>
      <trkpt lat="45.77357" lon="5.89517">
        <ele>477</ele>
        <time>2022-05-01T10:56:05.412Z</time>
      </trkpt>
      <trkpt lat="45.7736" lon="5.89514">
        <ele>477</ele>
        <time>2022-05-01T10:56:06.413Z</time>
      </trkpt>
      <trkpt lat="45.77362" lon="5.89511">
        <ele>477</ele>
        <time>2022-05-01T10:56:07.413Z</time>
      </trkpt>
      <trkpt lat="45.77364" lon="5.89508">
        <ele>477</ele>
        <time>2022-05-01T10:56:08.412Z</time>
      </trkpt>
      <trkpt lat="45.77367" lon="5.89505">
        <ele>477</ele>
        <time>2022-05-01T10:56:09.413Z</time>
      </trkpt>
      <trkpt lat="45.77369" lon="5.89501">
        <ele>476</ele>
        <time>2022-05-01T10:56:10.413Z</time>
      </trkpt>
      <trkpt lat="45.77372" lon="5.89498">
        <ele>476</ele>
        <time>2022-05-01T10:56:11.412Z</time>
      </trkpt>
      <trkpt lat="45.77374" lon="5.89495">
        <ele>476</ele>
        <time>2022-05-01T10:56:12.413Z</time>
      </trkpt>
      <trkpt lat="45.77376" lon="5.89492">
        <ele>476</ele>
        <time>2022-05-01T10:56:13.412Z</time>
      </trkpt>
      <trkpt lat="45.77378" lon="5.89489">
        <ele>477</ele>
        <time>2022-05-01T10:56:14.413Z</time>
      </trkpt>
      <trkpt lat="45.7738" lon="5.89486">
        <ele>477</ele>
        <time>2022-05-01T10:56:15.413Z</time>
      </trkpt>
      <trkpt lat="45.77382" lon="5.89483">
        <ele>477</ele>
        <time>2022-05-01T10:56:16.413Z</time>
      </trkpt>
      <trkpt lat="45.77385" lon="5.8948">
        <ele>477</ele>
        <time>2022-05-01T10:56:17.412Z</time>
      </trkpt>
      <trkpt lat="45.77388" lon="5.89477">
        <ele>478</ele>
        <time>2022-05-01T10:56:18.413Z</time>
      </trkpt>
      <trkpt lat="45.7739" lon="5.89475">
        <ele>479</ele>
        <time>2022-05-01T10:56:19.413Z</time>
      </trkpt>
      <trkpt lat="45.77393" lon="5.89471">
        <ele>479</ele>
        <time>2022-05-01T10:56:20.413Z</time>
      </trkpt>
      <trkpt lat="45.77395" lon="5.89469">
        <ele>479</ele>
        <time>2022-05-01T10:56:21.413Z</time>
      </trkpt>
      <trkpt lat="45.77397" lon="5.89466">
        <ele>479</ele>
        <time>2022-05-01T10:56:22.413Z</time>
      </trkpt>
      <trkpt lat="45.77399" lon="5.89463">
        <ele>478</ele>
        <time>2022-05-01T10:56:23.413Z</time>
      </trkpt>
      <trkpt lat="45.77402" lon="5.89461">
        <ele>478</ele>
        <time>2022-05-01T10:56:24.413Z</time>
      </trkpt>
      <trkpt lat="45.77404" lon="5.89458">
        <ele>478</ele>
        <time>2022-05-01T10:56:25.413Z</time>
      </trkpt>
      <trkpt lat="45.77406" lon="5.89455">
        <ele>479</ele>
        <time>2022-05-01T10:56:26.412Z</time>
      </trkpt>
      <trkpt lat="45.77408" lon="5.89452">
        <ele>479</ele>
        <time>2022-05-01T10:56:27.413Z</time>
      </trkpt>
      <trkpt lat="45.77411" lon="5.89449">
        <ele>479</ele>
        <time>2022-05-01T10:56:28.413Z</time>
      </trkpt>
      <trkpt lat="45.77413" lon="5.89447">
        <ele>480</ele>
        <time>2022-05-01T10:56:29.413Z</time>
      </trkpt>
      <trkpt lat="45.77415" lon="5.89443">
        <ele>479</ele>
        <time>2022-05-01T10:56:30.413Z</time>
      </trkpt>
      <trkpt lat="45.77417" lon="5.89441">
        <ele>479</ele>
        <time>2022-05-01T10:56:31.413Z</time>
      </trkpt>
      <trkpt lat="45.77419" lon="5.89438">
        <ele>479</ele>
        <time>2022-05-01T10:56:32.413Z</time>
      </trkpt>
      <trkpt lat="45.7742" lon="5.89435">
        <ele>479</ele>
        <time>2022-05-01T10:56:33.413Z</time>
      </trkpt>
      <trkpt lat="45.77422" lon="5.89432">
        <ele>478</ele>
        <time>2022-05-01T10:56:34.413Z</time>
      </trkpt>
      <trkpt lat="45.77424" lon="5.89429">
        <ele>478</ele>
        <time>2022-05-01T10:56:35.413Z</time>
      </trkpt>
      <trkpt lat="45.77426" lon="5.89426">
        <ele>478</ele>
        <time>2022-05-01T10:56:36.413Z</time>
      </trkpt>
      <trkpt lat="45.77427" lon="5.89423">
        <ele>479</ele>
        <time>2022-05-01T10:56:37.413Z</time>
      </trkpt>
      <trkpt lat="45.77429" lon="5.8942">
        <ele>479</ele>
        <time>2022-05-01T10:56:38.412Z</time>
      </trkpt>
      <trkpt lat="45.77431" lon="5.89417">
        <ele>479</ele>
        <time>2022-05-01T10:56:39.413Z</time>
      </trkpt>
      <trkpt lat="45.77433" lon="5.89414">
        <ele>479</ele>
        <time>2022-05-01T10:56:40.413Z</time>
      </trkpt>
      <trkpt lat="45.77435" lon="5.89411">
        <ele>479</ele>
        <time>2022-05-01T10:56:41.413Z</time>
      </trkpt>
      <trkpt lat="45.77436" lon="5.89408">
        <ele>479</ele>
        <time>2022-05-01T10:56:42.413Z</time>
      </trkpt>
      <trkpt lat="45.77438" lon="5.89405">
        <ele>479</ele>
        <time>2022-05-01T10:56:43.413Z</time>
      </trkpt>
      <trkpt lat="45.77439" lon="5.89402">
        <ele>479</ele>
        <time>2022-05-01T10:56:44.413Z</time>
      </trkpt>
      <trkpt lat="45.77441" lon="5.89399">
        <ele>479</ele>
        <time>2022-05-01T10:56:45.413Z</time>
      </trkpt>
      <trkpt lat="45.77442" lon="5.89397">
        <ele>480</ele>
        <time>2022-05-01T10:56:46.413Z</time>
      </trkpt>
      <trkpt lat="45.77444" lon="5.89393">
        <ele>480</ele>
        <time>2022-05-01T10:56:47.413Z</time>
      </trkpt>
      <trkpt lat="45.77446" lon="5.89391">
        <ele>480</ele>
        <time>2022-05-01T10:56:48.413Z</time>
      </trkpt>
      <trkpt lat="45.77448" lon="5.89388">
        <ele>480</ele>
        <time>2022-05-01T10:56:49.412Z</time>
      </trkpt>
      <trkpt lat="45.7745" lon="5.89385">
        <ele>480</ele>
        <time>2022-05-01T10:56:50.412Z</time>
      </trkpt>
      <trkpt lat="45.77453" lon="5.89383">
        <ele>480</ele>
        <time>2022-05-01T10:56:51.412Z</time>
      </trkpt>
      <trkpt lat="45.77455" lon="5.89381">
        <ele>480</ele>
        <time>2022-05-01T10:56:52.413Z</time>
      </trkpt>
      <trkpt lat="45.77458" lon="5.89378">
        <ele>480</ele>
        <time>2022-05-01T10:56:53.413Z</time>
      </trkpt>
      <trkpt lat="45.7746" lon="5.89376">
        <ele>480</ele>
        <time>2022-05-01T10:56:54.412Z</time>
      </trkpt>
      <trkpt lat="45.77462" lon="5.89375">
        <ele>480</ele>
        <time>2022-05-01T10:56:55.413Z</time>
      </trkpt>
      <trkpt lat="45.77464" lon="5.89373">
        <ele>480</ele>
        <time>2022-05-01T10:56:56.413Z</time>
      </trkpt>
      <trkpt lat="45.77467" lon="5.89371">
        <ele>480</ele>
        <time>2022-05-01T10:56:57.413Z</time>
      </trkpt>
      <trkpt lat="45.77469" lon="5.8937">
        <ele>481</ele>
        <time>2022-05-01T10:56:58.413Z</time>
      </trkpt>
      <trkpt lat="45.77471" lon="5.89368">
        <ele>481</ele>
        <time>2022-05-01T10:56:59.413Z</time>
      </trkpt>
      <trkpt lat="45.77474" lon="5.89367">
        <ele>481</ele>
        <time>2022-05-01T10:57:00.413Z</time>
      </trkpt>
      <trkpt lat="45.77476" lon="5.89366">
        <ele>482</ele>
        <time>2022-05-01T10:57:01.413Z</time>
      </trkpt>
      <trkpt lat="45.77479" lon="5.89365">
        <ele>482</ele>
        <time>2022-05-01T10:57:02.412Z</time>
      </trkpt>
      <trkpt lat="45.77482" lon="5.89364">
        <ele>482</ele>
        <time>2022-05-01T10:57:03.413Z</time>
      </trkpt>
      <trkpt lat="45.77484" lon="5.89363">
        <ele>482</ele>
        <time>2022-05-01T10:57:04.412Z</time>
      </trkpt>
      <trkpt lat="45.77487" lon="5.89361">
        <ele>483</ele>
        <time>2022-05-01T10:57:05.413Z</time>
      </trkpt>
      <trkpt lat="45.77489" lon="5.8936">
        <ele>484</ele>
        <time>2022-05-01T10:57:06.413Z</time>
      </trkpt>
      <trkpt lat="45.77492" lon="5.89358">
        <ele>485</ele>
        <time>2022-05-01T10:57:07.413Z</time>
      </trkpt>
      <trkpt lat="45.77494" lon="5.89357">
        <ele>485</ele>
        <time>2022-05-01T10:57:08.413Z</time>
      </trkpt>
      <trkpt lat="45.77496" lon="5.89356">
        <ele>485</ele>
        <time>2022-05-01T10:57:09.413Z</time>
      </trkpt>
      <trkpt lat="45.77499" lon="5.89355">
        <ele>485</ele>
        <time>2022-05-01T10:57:10.412Z</time>
      </trkpt>
      <trkpt lat="45.77502" lon="5.89354">
        <ele>485</ele>
        <time>2022-05-01T10:57:11.413Z</time>
      </trkpt>
      <trkpt lat="45.77504" lon="5.89352">
        <ele>485</ele>
        <time>2022-05-01T10:57:12.413Z</time>
      </trkpt>
      <trkpt lat="45.77506" lon="5.89351">
        <ele>485</ele>
        <time>2022-05-01T10:57:13.413Z</time>
      </trkpt>
      <trkpt lat="45.77509" lon="5.89349">
        <ele>484</ele>
        <time>2022-05-01T10:57:14.413Z</time>
      </trkpt>
      <trkpt lat="45.77511" lon="5.89348">
        <ele>485</ele>
        <time>2022-05-01T10:57:15.413Z</time>
      </trkpt>
      <trkpt lat="45.77514" lon="5.89346">
        <ele>485</ele>
        <time>2022-05-01T10:57:16.413Z</time>
      </trkpt>
      <trkpt lat="45.77516" lon="5.89345">
        <ele>485</ele>
        <time>2022-05-01T10:57:17.412Z</time>
      </trkpt>
      <trkpt lat="45.77519" lon="5.89343">
        <ele>485</ele>
        <time>2022-05-01T10:57:18.413Z</time>
      </trkpt>
      <trkpt lat="45.77521" lon="5.89342">
        <ele>485</ele>
        <time>2022-05-01T10:57:19.413Z</time>
      </trkpt>
      <trkpt lat="45.77523" lon="5.8934">
        <ele>485</ele>
        <time>2022-05-01T10:57:20.413Z</time>
      </trkpt>
      <trkpt lat="45.77526" lon="5.89339">
        <ele>484</ele>
        <time>2022-05-01T10:57:21.413Z</time>
      </trkpt>
      <trkpt lat="45.77528" lon="5.89337">
        <ele>484</ele>
        <time>2022-05-01T10:57:22.413Z</time>
      </trkpt>
      <trkpt lat="45.7753" lon="5.89336">
        <ele>484</ele>
        <time>2022-05-01T10:57:23.413Z</time>
      </trkpt>
      <trkpt lat="45.77533" lon="5.89334">
        <ele>484</ele>
        <time>2022-05-01T10:57:24.413Z</time>
      </trkpt>
      <trkpt lat="45.77535" lon="5.89333">
        <ele>483</ele>
        <time>2022-05-01T10:57:25.413Z</time>
      </trkpt>
      <trkpt lat="45.77537" lon="5.89331">
        <ele>483</ele>
        <time>2022-05-01T10:57:26.412Z</time>
      </trkpt>
      <trkpt lat="45.7754" lon="5.89329">
        <ele>484</ele>
        <time>2022-05-01T10:57:27.413Z</time>
      </trkpt>
      <trkpt lat="45.77542" lon="5.89327">
        <ele>484</ele>
        <time>2022-05-01T10:57:28.413Z</time>
      </trkpt>
      <trkpt lat="45.77544" lon="5.89325">
        <ele>483</ele>
        <time>2022-05-01T10:57:29.413Z</time>
      </trkpt>
      <trkpt lat="45.77547" lon="5.89323">
        <ele>484</ele>
        <time>2022-05-01T10:57:30.413Z</time>
      </trkpt>
      <trkpt lat="45.77549" lon="5.89322">
        <ele>483</ele>
        <time>2022-05-01T10:57:31.413Z</time>
      </trkpt>
      <trkpt lat="45.77551" lon="5.8932">
        <ele>483</ele>
        <time>2022-05-01T10:57:32.412Z</time>
      </trkpt>
      <trkpt lat="45.77553" lon="5.89318">
        <ele>483</ele>
        <time>2022-05-01T10:57:33.413Z</time>
      </trkpt>
      <trkpt lat="45.77555" lon="5.89316">
        <ele>482</ele>
        <time>2022-05-01T10:57:34.413Z</time>
      </trkpt>
      <trkpt lat="45.77557" lon="5.89314">
        <ele>482</ele>
        <time>2022-05-01T10:57:35.413Z</time>
      </trkpt>
      <trkpt lat="45.77559" lon="5.89312">
        <ele>483</ele>
        <time>2022-05-01T10:57:36.412Z</time>
      </trkpt>
      <trkpt lat="45.77561" lon="5.8931">
        <ele>484</ele>
        <time>2022-05-01T10:57:37.412Z</time>
      </trkpt>
      <trkpt lat="45.77564" lon="5.89307">
        <ele>485</ele>
        <time>2022-05-01T10:57:38.412Z</time>
      </trkpt>
      <trkpt lat="45.77566" lon="5.89305">
        <ele>486</ele>
        <time>2022-05-01T10:57:39.413Z</time>
      </trkpt>
      <trkpt lat="45.77567" lon="5.89304">
        <ele>486</ele>
        <time>2022-05-01T10:57:40.413Z</time>
      </trkpt>
      <trkpt lat="45.7757" lon="5.89301">
        <ele>487</ele>
        <time>2022-05-01T10:57:41.413Z</time>
      </trkpt>
      <trkpt lat="45.77572" lon="5.89299">
        <ele>487</ele>
        <time>2022-05-01T10:57:42.413Z</time>
      </trkpt>
      <trkpt lat="45.77574" lon="5.89297">
        <ele>487</ele>
        <time>2022-05-01T10:57:43.413Z</time>
      </trkpt>
      <trkpt lat="45.77575" lon="5.89295">
        <ele>487</ele>
        <time>2022-05-01T10:57:44.412Z</time>
      </trkpt>
      <trkpt lat="45.77577" lon="5.89293">
        <ele>487</ele>
        <time>2022-05-01T10:57:45.413Z</time>
      </trkpt>
      <trkpt lat="45.7758" lon="5.8929">
        <ele>486</ele>
        <time>2022-05-01T10:57:46.413Z</time>
      </trkpt>
      <trkpt lat="45.77582" lon="5.89288">
        <ele>486</ele>
        <time>2022-05-01T10:57:47.413Z</time>
      </trkpt>
      <trkpt lat="45.77584" lon="5.89286">
        <ele>486</ele>
        <time>2022-05-01T10:57:48.412Z</time>
      </trkpt>
      <trkpt lat="45.77585" lon="5.89284">
        <ele>486</ele>
        <time>2022-05-01T10:57:49.413Z</time>
      </trkpt>
      <trkpt lat="45.77587" lon="5.89281">
        <ele>486</ele>
        <time>2022-05-01T10:57:50.412Z</time>
      </trkpt>
      <trkpt lat="45.77589" lon="5.89279">
        <ele>486</ele>
        <time>2022-05-01T10:57:51.412Z</time>
      </trkpt>
      <trkpt lat="45.77591" lon="5.89277">
        <ele>486</ele>
        <time>2022-05-01T10:57:52.413Z</time>
      </trkpt>
      <trkpt lat="45.77593" lon="5.89276">
        <ele>486</ele>
        <time>2022-05-01T10:57:53.412Z</time>
      </trkpt>
      <trkpt lat="45.77595" lon="5.89274">
        <ele>485</ele>
        <time>2022-05-01T10:57:54.412Z</time>
      </trkpt>
      <trkpt lat="45.77596" lon="5.89271">
        <ele>485</ele>
        <time>2022-05-01T10:57:55.413Z</time>
      </trkpt>
      <trkpt lat="45.77598" lon="5.89269">
        <ele>486</ele>
        <time>2022-05-01T10:57:56.413Z</time>
      </trkpt>
      <trkpt lat="45.776" lon="5.89267">
        <ele>486</ele>
        <time>2022-05-01T10:57:57.413Z</time>
      </trkpt>
      <trkpt lat="45.77602" lon="5.89266">
        <ele>487</ele>
        <time>2022-05-01T10:57:58.412Z</time>
      </trkpt>
      <trkpt lat="45.77604" lon="5.89264">
        <ele>487</ele>
        <time>2022-05-01T10:57:59.412Z</time>
      </trkpt>
      <trkpt lat="45.77606" lon="5.89263">
        <ele>487</ele>
        <time>2022-05-01T10:58:00.412Z</time>
      </trkpt>
      <trkpt lat="45.77608" lon="5.89262">
        <ele>487</ele>
        <time>2022-05-01T10:58:01.413Z</time>
      </trkpt>
      <trkpt lat="45.7761" lon="5.89261">
        <ele>487</ele>
        <time>2022-05-01T10:58:02.412Z</time>
      </trkpt>
      <trkpt lat="45.77612" lon="5.89259">
        <ele>487</ele>
        <time>2022-05-01T10:58:03.413Z</time>
      </trkpt>
      <trkpt lat="45.77614" lon="5.89258">
        <ele>487</ele>
        <time>2022-05-01T10:58:04.413Z</time>
      </trkpt>
      <trkpt lat="45.77616" lon="5.89257">
        <ele>488</ele>
        <time>2022-05-01T10:58:05.413Z</time>
      </trkpt>
      <trkpt lat="45.77618" lon="5.89255">
        <ele>488</ele>
        <time>2022-05-01T10:58:06.413Z</time>
      </trkpt>
      <trkpt lat="45.7762" lon="5.89254">
        <ele>488</ele>
        <time>2022-05-01T10:58:07.413Z</time>
      </trkpt>
      <trkpt lat="45.77622" lon="5.89253">
        <ele>489</ele>
        <time>2022-05-01T10:58:08.413Z</time>
      </trkpt>
      <trkpt lat="45.77624" lon="5.89252">
        <ele>489</ele>
        <time>2022-05-01T10:58:09.413Z</time>
      </trkpt>
      <trkpt lat="45.77626" lon="5.89251">
        <ele>489</ele>
        <time>2022-05-01T10:58:10.413Z</time>
      </trkpt>
      <trkpt lat="45.77628" lon="5.8925">
        <ele>489</ele>
        <time>2022-05-01T10:58:11.413Z</time>
      </trkpt>
      <trkpt lat="45.7763" lon="5.89249">
        <ele>490</ele>
        <time>2022-05-01T10:58:12.413Z</time>
      </trkpt>
      <trkpt lat="45.77632" lon="5.89248">
        <ele>491</ele>
        <time>2022-05-01T10:58:13.412Z</time>
      </trkpt>
      <trkpt lat="45.77634" lon="5.89247">
        <ele>491</ele>
        <time>2022-05-01T10:58:14.412Z</time>
      </trkpt>
      <trkpt lat="45.77636" lon="5.89246">
        <ele>491</ele>
        <time>2022-05-01T10:58:15.413Z</time>
      </trkpt>
      <trkpt lat="45.77638" lon="5.89245">
        <ele>491</ele>
        <time>2022-05-01T10:58:16.413Z</time>
      </trkpt>
      <trkpt lat="45.7764" lon="5.89245">
        <ele>491</ele>
        <time>2022-05-01T10:58:17.413Z</time>
      </trkpt>
      <trkpt lat="45.77642" lon="5.89244">
        <ele>491</ele>
        <time>2022-05-01T10:58:18.413Z</time>
      </trkpt>
      <trkpt lat="45.77644" lon="5.89243">
        <ele>491</ele>
        <time>2022-05-01T10:58:19.412Z</time>
      </trkpt>
      <trkpt lat="45.77646" lon="5.89242">
        <ele>491</ele>
        <time>2022-05-01T10:58:20.413Z</time>
      </trkpt>
      <trkpt lat="45.77647" lon="5.89241">
        <ele>491</ele>
        <time>2022-05-01T10:58:21.413Z</time>
      </trkpt>
      <trkpt lat="45.77649" lon="5.89239">
        <ele>491</ele>
        <time>2022-05-01T10:58:22.412Z</time>
      </trkpt>
      <trkpt lat="45.77651" lon="5.89238">
        <ele>492</ele>
        <time>2022-05-01T10:58:23.413Z</time>
      </trkpt>
      <trkpt lat="45.77653" lon="5.89237">
        <ele>492</ele>
        <time>2022-05-01T10:58:24.413Z</time>
      </trkpt>
      <trkpt lat="45.77655" lon="5.89236">
        <ele>493</ele>
        <time>2022-05-01T10:58:25.413Z</time>
      </trkpt>
      <trkpt lat="45.77657" lon="5.89234">
        <ele>493</ele>
        <time>2022-05-01T10:58:26.413Z</time>
      </trkpt>
      <trkpt lat="45.77659" lon="5.89233">
        <ele>493</ele>
        <time>2022-05-01T10:58:27.413Z</time>
      </trkpt>
      <trkpt lat="45.7766" lon="5.89232">
        <ele>494</ele>
        <time>2022-05-01T10:58:28.412Z</time>
      </trkpt>
      <trkpt lat="45.77662" lon="5.89231">
        <ele>494</ele>
        <time>2022-05-01T10:58:29.413Z</time>
      </trkpt>
      <trkpt lat="45.77664" lon="5.8923">
        <ele>494</ele>
        <time>2022-05-01T10:58:30.413Z</time>
      </trkpt>
      <trkpt lat="45.77666" lon="5.89228">
        <ele>494</ele>
        <time>2022-05-01T10:58:31.412Z</time>
      </trkpt>
      <trkpt lat="45.77667" lon="5.89227">
        <ele>495</ele>
        <time>2022-05-01T10:58:32.413Z</time>
      </trkpt>
      <trkpt lat="45.77669" lon="5.89226">
        <ele>495</ele>
        <time>2022-05-01T10:58:33.413Z</time>
      </trkpt>
      <trkpt lat="45.77671" lon="5.89225">
        <ele>495</ele>
        <time>2022-05-01T10:58:34.413Z</time>
      </trkpt>
      <trkpt lat="45.77672" lon="5.89223">
        <ele>495</ele>
        <time>2022-05-01T10:58:35.413Z</time>
      </trkpt>
      <trkpt lat="45.77674" lon="5.89222">
        <ele>495</ele>
        <time>2022-05-01T10:58:36.413Z</time>
      </trkpt>
      <trkpt lat="45.77675" lon="5.89221">
        <ele>495</ele>
        <time>2022-05-01T10:58:37.412Z</time>
      </trkpt>
      <trkpt lat="45.77677" lon="5.8922">
        <ele>496</ele>
        <time>2022-05-01T10:58:38.413Z</time>
      </trkpt>
      <trkpt lat="45.77679" lon="5.89218">
        <ele>496</ele>
        <time>2022-05-01T10:58:39.413Z</time>
      </trkpt>
      <trkpt lat="45.7768" lon="5.89217">
        <ele>497</ele>
        <time>2022-05-01T10:58:40.413Z</time>
      </trkpt>
      <trkpt lat="45.77682" lon="5.89215">
        <ele>497</ele>
        <time>2022-05-01T10:58:41.413Z</time>
      </trkpt>
      <trkpt lat="45.77684" lon="5.89214">
        <ele>497</ele>
        <time>2022-05-01T10:58:42.413Z</time>
      </trkpt>
      <trkpt lat="45.77685" lon="5.89212">
        <ele>497</ele>
        <time>2022-05-01T10:58:43.412Z</time>
      </trkpt>
      <trkpt lat="45.77687" lon="5.89212">
        <ele>498</ele>
        <time>2022-05-01T10:58:44.413Z</time>
      </trkpt>
      <trkpt lat="45.77689" lon="5.89211">
        <ele>498</ele>
        <time>2022-05-01T10:58:45.413Z</time>
      </trkpt>
      <trkpt lat="45.77691" lon="5.8921">
        <ele>497</ele>
        <time>2022-05-01T10:58:46.413Z</time>
      </trkpt>
      <trkpt lat="45.77693" lon="5.89209">
        <ele>498</ele>
        <time>2022-05-01T10:58:47.413Z</time>
      </trkpt>
      <trkpt lat="45.77695" lon="5.89208">
        <ele>498</ele>
        <time>2022-05-01T10:58:48.413Z</time>
      </trkpt>
      <trkpt lat="45.77697" lon="5.89207">
        <ele>498</ele>
        <time>2022-05-01T10:58:49.413Z</time>
      </trkpt>
      <trkpt lat="45.77699" lon="5.89206">
        <ele>499</ele>
        <time>2022-05-01T10:58:50.413Z</time>
      </trkpt>
      <trkpt lat="45.77701" lon="5.89205">
        <ele>499</ele>
        <time>2022-05-01T10:58:51.413Z</time>
      </trkpt>
      <trkpt lat="45.77702" lon="5.89204">
        <ele>500</ele>
        <time>2022-05-01T10:58:52.413Z</time>
      </trkpt>
      <trkpt lat="45.77704" lon="5.89203">
        <ele>500</ele>
        <time>2022-05-01T10:58:53.413Z</time>
      </trkpt>
      <trkpt lat="45.77706" lon="5.89203">
        <ele>501</ele>
        <time>2022-05-01T10:58:54.413Z</time>
      </trkpt>
      <trkpt lat="45.77707" lon="5.89201">
        <ele>501</ele>
        <time>2022-05-01T10:58:55.413Z</time>
      </trkpt>
      <trkpt lat="45.77709" lon="5.89201">
        <ele>501</ele>
        <time>2022-05-01T10:58:56.413Z</time>
      </trkpt>
      <trkpt lat="45.77711" lon="5.892">
        <ele>502</ele>
        <time>2022-05-01T10:58:57.413Z</time>
      </trkpt>
      <trkpt lat="45.77713" lon="5.892">
        <ele>502</ele>
        <time>2022-05-01T10:58:58.413Z</time>
      </trkpt>
      <trkpt lat="45.77714" lon="5.89199">
        <ele>502</ele>
        <time>2022-05-01T10:58:59.412Z</time>
      </trkpt>
      <trkpt lat="45.77716" lon="5.89198">
        <ele>503</ele>
        <time>2022-05-01T10:59:00.413Z</time>
      </trkpt>
      <trkpt lat="45.77717" lon="5.89198">
        <ele>503</ele>
        <time>2022-05-01T10:59:01.413Z</time>
      </trkpt>
      <trkpt lat="45.7772" lon="5.89197">
        <ele>503</ele>
        <time>2022-05-01T10:59:02.413Z</time>
      </trkpt>
      <trkpt lat="45.77722" lon="5.89196">
        <ele>504</ele>
        <time>2022-05-01T10:59:03.412Z</time>
      </trkpt>
      <trkpt lat="45.77723" lon="5.89195">
        <ele>504</ele>
        <time>2022-05-01T10:59:04.413Z</time>
      </trkpt>
      <trkpt lat="45.77725" lon="5.89195">
        <ele>504</ele>
        <time>2022-05-01T10:59:05.413Z</time>
      </trkpt>
      <trkpt lat="45.77727" lon="5.89194">
        <ele>504</ele>
        <time>2022-05-01T10:59:06.413Z</time>
      </trkpt>
      <trkpt lat="45.77728" lon="5.89193">
        <ele>504</ele>
        <time>2022-05-01T10:59:07.412Z</time>
      </trkpt>
      <trkpt lat="45.7773" lon="5.89191">
        <ele>505</ele>
        <time>2022-05-01T10:59:08.413Z</time>
      </trkpt>
      <trkpt lat="45.77731" lon="5.89188">
        <ele>505</ele>
        <time>2022-05-01T10:59:09.413Z</time>
      </trkpt>
      <trkpt lat="45.77732" lon="5.89186">
        <ele>505</ele>
        <time>2022-05-01T10:59:10.413Z</time>
      </trkpt>
      <trkpt lat="45.77733" lon="5.89183">
        <ele>505</ele>
        <time>2022-05-01T10:59:11.413Z</time>
      </trkpt>
      <trkpt lat="45.77734" lon="5.8918">
        <ele>504</ele>
        <time>2022-05-01T10:59:12.413Z</time>
      </trkpt>
      <trkpt lat="45.77735" lon="5.89177">
        <ele>504</ele>
        <time>2022-05-01T10:59:13.413Z</time>
      </trkpt>
      <trkpt lat="45.77736" lon="5.89175">
        <ele>504</ele>
        <time>2022-05-01T10:59:14.413Z</time>
      </trkpt>
      <trkpt lat="45.77737" lon="5.89172">
        <ele>504</ele>
        <time>2022-05-01T10:59:15.412Z</time>
      </trkpt>
      <trkpt lat="45.77738" lon="5.8917">
        <ele>503</ele>
        <time>2022-05-01T10:59:16.412Z</time>
      </trkpt>
      <trkpt lat="45.77739" lon="5.89168">
        <ele>503</ele>
        <time>2022-05-01T10:59:17.413Z</time>
      </trkpt>
      <trkpt lat="45.7774" lon="5.89166">
        <ele>503</ele>
        <time>2022-05-01T10:59:18.413Z</time>
      </trkpt>
      <trkpt lat="45.77742" lon="5.89164">
        <ele>503</ele>
        <time>2022-05-01T10:59:19.413Z</time>
      </trkpt>
      <trkpt lat="45.77743" lon="5.89162">
        <ele>502</ele>
        <time>2022-05-01T10:59:20.413Z</time>
      </trkpt>
      <trkpt lat="45.77744" lon="5.8916">
        <ele>502</ele>
        <time>2022-05-01T10:59:21.413Z</time>
      </trkpt>
      <trkpt lat="45.77745" lon="5.89158">
        <ele>502</ele>
        <time>2022-05-01T10:59:22.413Z</time>
      </trkpt>
      <trkpt lat="45.77746" lon="5.89156">
        <ele>502</ele>
        <time>2022-05-01T10:59:23.413Z</time>
      </trkpt>
      <trkpt lat="45.77748" lon="5.89153">
        <ele>501</ele>
        <time>2022-05-01T10:59:24.413Z</time>
      </trkpt>
      <trkpt lat="45.77749" lon="5.89151">
        <ele>501</ele>
        <time>2022-05-01T10:59:25.413Z</time>
      </trkpt>
      <trkpt lat="45.7775" lon="5.89149">
        <ele>501</ele>
        <time>2022-05-01T10:59:26.412Z</time>
      </trkpt>
      <trkpt lat="45.77751" lon="5.89147">
        <ele>501</ele>
        <time>2022-05-01T10:59:27.412Z</time>
      </trkpt>
      <trkpt lat="45.77753" lon="5.89144">
        <ele>501</ele>
        <time>2022-05-01T10:59:28.413Z</time>
      </trkpt>
      <trkpt lat="45.77754" lon="5.89142">
        <ele>501</ele>
        <time>2022-05-01T10:59:29.412Z</time>
      </trkpt>
      <trkpt lat="45.77755" lon="5.89141">
        <ele>501</ele>
        <time>2022-05-01T10:59:30.413Z</time>
      </trkpt>
      <trkpt lat="45.77756" lon="5.89138">
        <ele>500</ele>
        <time>2022-05-01T10:59:31.413Z</time>
      </trkpt>
      <trkpt lat="45.77758" lon="5.89136">
        <ele>500</ele>
        <time>2022-05-01T10:59:32.413Z</time>
      </trkpt>
      <trkpt lat="45.77759" lon="5.89134">
        <ele>500</ele>
        <time>2022-05-01T10:59:33.413Z</time>
      </trkpt>
      <trkpt lat="45.7776" lon="5.89133">
        <ele>500</ele>
        <time>2022-05-01T10:59:34.413Z</time>
      </trkpt>
      <trkpt lat="45.77761" lon="5.8913">
        <ele>500</ele>
        <time>2022-05-01T10:59:35.413Z</time>
      </trkpt>
      <trkpt lat="45.77762" lon="5.89129">
        <ele>500</ele>
        <time>2022-05-01T10:59:36.412Z</time>
      </trkpt>
      <trkpt lat="45.77763" lon="5.89126">
        <ele>500</ele>
        <time>2022-05-01T10:59:37.413Z</time>
      </trkpt>
      <trkpt lat="45.77764" lon="5.89124">
        <ele>500</ele>
        <time>2022-05-01T10:59:38.412Z</time>
      </trkpt>
      <trkpt lat="45.77765" lon="5.89122">
        <ele>501</ele>
        <time>2022-05-01T10:59:39.413Z</time>
      </trkpt>
      <trkpt lat="45.77766" lon="5.8912">
        <ele>501</ele>
        <time>2022-05-01T10:59:40.413Z</time>
      </trkpt>
      <trkpt lat="45.77767" lon="5.89118">
        <ele>501</ele>
        <time>2022-05-01T10:59:41.413Z</time>
      </trkpt>
      <trkpt lat="45.77768" lon="5.89116">
        <ele>501</ele>
        <time>2022-05-01T10:59:42.413Z</time>
      </trkpt>
      <trkpt lat="45.7777" lon="5.89113">
        <ele>501</ele>
        <time>2022-05-01T10:59:43.413Z</time>
      </trkpt>
      <trkpt lat="45.7777" lon="5.89112">
        <ele>501</ele>
        <time>2022-05-01T10:59:44.412Z</time>
      </trkpt>
      <trkpt lat="45.77771" lon="5.89109">
        <ele>501</ele>
        <time>2022-05-01T10:59:45.413Z</time>
      </trkpt>
      <trkpt lat="45.77772" lon="5.89106">
        <ele>502</ele>
        <time>2022-05-01T10:59:46.413Z</time>
      </trkpt>
      <trkpt lat="45.77773" lon="5.89104">
        <ele>502</ele>
        <time>2022-05-01T10:59:47.412Z</time>
      </trkpt>
      <trkpt lat="45.77774" lon="5.89102">
        <ele>503</ele>
        <time>2022-05-01T10:59:48.413Z</time>
      </trkpt>
      <trkpt lat="45.77775" lon="5.891">
        <ele>503</ele>
        <time>2022-05-01T10:59:49.413Z</time>
      </trkpt>
      <trkpt lat="45.77777" lon="5.89098">
        <ele>503</ele>
        <time>2022-05-01T10:59:50.413Z</time>
      </trkpt>
      <trkpt lat="45.77778" lon="5.89096">
        <ele>503</ele>
        <time>2022-05-01T10:59:51.413Z</time>
      </trkpt>
      <trkpt lat="45.7778" lon="5.89094">
        <ele>504</ele>
        <time>2022-05-01T10:59:52.413Z</time>
      </trkpt>
      <trkpt lat="45.77781" lon="5.89093">
        <ele>504</ele>
        <time>2022-05-01T10:59:53.412Z</time>
      </trkpt>
      <trkpt lat="45.77783" lon="5.89092">
        <ele>505</ele>
        <time>2022-05-01T10:59:54.412Z</time>
      </trkpt>
      <trkpt lat="45.77786" lon="5.8909">
        <ele>505</ele>
        <time>2022-05-01T10:59:55.413Z</time>
      </trkpt>
      <trkpt lat="45.77788" lon="5.89089">
        <ele>505</ele>
        <time>2022-05-01T10:59:56.413Z</time>
      </trkpt>
      <trkpt lat="45.7779" lon="5.89088">
        <ele>506</ele>
        <time>2022-05-01T10:59:57.413Z</time>
      </trkpt>
      <trkpt lat="45.77791" lon="5.89088">
        <ele>506</ele>
        <time>2022-05-01T10:59:58.413Z</time>
      </trkpt>
      <trkpt lat="45.77794" lon="5.89087">
        <ele>506</ele>
        <time>2022-05-01T10:59:59.413Z</time>
      </trkpt>
      <trkpt lat="45.77796" lon="5.89086">
        <ele>507</ele>
        <time>2022-05-01T11:00:00.413Z</time>
      </trkpt>
      <trkpt lat="45.77798" lon="5.89085">
        <ele>507</ele>
        <time>2022-05-01T11:00:01.413Z</time>
      </trkpt>
      <trkpt lat="45.778" lon="5.89084">
        <ele>508</ele>
        <time>2022-05-01T11:00:02.412Z</time>
      </trkpt>
      <trkpt lat="45.77801" lon="5.89083">
        <ele>508</ele>
        <time>2022-05-01T11:00:03.413Z</time>
      </trkpt>
      <trkpt lat="45.77804" lon="5.89082">
        <ele>508</ele>
        <time>2022-05-01T11:00:04.413Z</time>
      </trkpt>
      <trkpt lat="45.77806" lon="5.89081">
        <ele>508</ele>
        <time>2022-05-01T11:00:05.413Z</time>
      </trkpt>
      <trkpt lat="45.77808" lon="5.8908">
        <ele>508</ele>
        <time>2022-05-01T11:00:06.413Z</time>
      </trkpt>
      <trkpt lat="45.77809" lon="5.89079">
        <ele>508</ele>
        <time>2022-05-01T11:00:07.413Z</time>
      </trkpt>
      <trkpt lat="45.77812" lon="5.89077">
        <ele>508</ele>
        <time>2022-05-01T11:00:08.412Z</time>
      </trkpt>
      <trkpt lat="45.77813" lon="5.89076">
        <ele>508</ele>
        <time>2022-05-01T11:00:09.412Z</time>
      </trkpt>
      <trkpt lat="45.77815" lon="5.89073">
        <ele>508</ele>
        <time>2022-05-01T11:00:10.413Z</time>
      </trkpt>
      <trkpt lat="45.77816" lon="5.89071">
        <ele>508</ele>
        <time>2022-05-01T11:00:11.412Z</time>
      </trkpt>
      <trkpt lat="45.77817" lon="5.89069">
        <ele>509</ele>
        <time>2022-05-01T11:00:12.413Z</time>
      </trkpt>
      <trkpt lat="45.77819" lon="5.89066">
        <ele>509</ele>
        <time>2022-05-01T11:00:13.412Z</time>
      </trkpt>
      <trkpt lat="45.7782" lon="5.89063">
        <ele>509</ele>
        <time>2022-05-01T11:00:14.413Z</time>
      </trkpt>
      <trkpt lat="45.77821" lon="5.89061">
        <ele>510</ele>
        <time>2022-05-01T11:00:15.412Z</time>
      </trkpt>
      <trkpt lat="45.77823" lon="5.89059">
        <ele>510</ele>
        <time>2022-05-01T11:00:16.413Z</time>
      </trkpt>
      <trkpt lat="45.77824" lon="5.89056">
        <ele>510</ele>
        <time>2022-05-01T11:00:17.413Z</time>
      </trkpt>
      <trkpt lat="45.77826" lon="5.89054">
        <ele>510</ele>
        <time>2022-05-01T11:00:18.413Z</time>
      </trkpt>
      <trkpt lat="45.77827" lon="5.8905">
        <ele>510</ele>
        <time>2022-05-01T11:00:19.413Z</time>
      </trkpt>
      <trkpt lat="45.77828" lon="5.89048">
        <ele>510</ele>
        <time>2022-05-01T11:00:20.412Z</time>
      </trkpt>
      <trkpt lat="45.77829" lon="5.89045">
        <ele>510</ele>
        <time>2022-05-01T11:00:21.412Z</time>
      </trkpt>
      <trkpt lat="45.7783" lon="5.89041">
        <ele>510</ele>
        <time>2022-05-01T11:00:22.413Z</time>
      </trkpt>
      <trkpt lat="45.77831" lon="5.89039">
        <ele>511</ele>
        <time>2022-05-01T11:00:23.413Z</time>
      </trkpt>
      <trkpt lat="45.77832" lon="5.89036">
        <ele>511</ele>
        <time>2022-05-01T11:00:24.412Z</time>
      </trkpt>
      <trkpt lat="45.77832" lon="5.89033">
        <ele>511</ele>
        <time>2022-05-01T11:00:25.412Z</time>
      </trkpt>
      <trkpt lat="45.77833" lon="5.89029">
        <ele>511</ele>
        <time>2022-05-01T11:00:26.412Z</time>
      </trkpt>
      <trkpt lat="45.77834" lon="5.89027">
        <ele>511</ele>
        <time>2022-05-01T11:00:27.413Z</time>
      </trkpt>
      <trkpt lat="45.77835" lon="5.89024">
        <ele>511</ele>
        <time>2022-05-01T11:00:28.412Z</time>
      </trkpt>
      <trkpt lat="45.77835" lon="5.89021">
        <ele>511</ele>
        <time>2022-05-01T11:00:29.413Z</time>
      </trkpt>
      <trkpt lat="45.77836" lon="5.89018">
        <ele>511</ele>
        <time>2022-05-01T11:00:30.412Z</time>
      </trkpt>
      <trkpt lat="45.77837" lon="5.89015">
        <ele>511</ele>
        <time>2022-05-01T11:00:31.413Z</time>
      </trkpt>
      <trkpt lat="45.77837" lon="5.89012">
        <ele>511</ele>
        <time>2022-05-01T11:00:32.412Z</time>
      </trkpt>
      <trkpt lat="45.77838" lon="5.89009">
        <ele>511</ele>
        <time>2022-05-01T11:00:33.413Z</time>
      </trkpt>
      <trkpt lat="45.77838" lon="5.89005">
        <ele>511</ele>
        <time>2022-05-01T11:00:34.413Z</time>
      </trkpt>
      <trkpt lat="45.77839" lon="5.89002">
        <ele>511</ele>
        <time>2022-05-01T11:00:35.413Z</time>
      </trkpt>
      <trkpt lat="45.77839" lon="5.88999">
        <ele>511</ele>
        <time>2022-05-01T11:00:36.412Z</time>
      </trkpt>
      <trkpt lat="45.77839" lon="5.88995">
        <ele>511</ele>
        <time>2022-05-01T11:00:37.412Z</time>
      </trkpt>
      <trkpt lat="45.7784" lon="5.88992">
        <ele>511</ele>
        <time>2022-05-01T11:00:38.413Z</time>
      </trkpt>
      <trkpt lat="45.7784" lon="5.88988">
        <ele>511</ele>
        <time>2022-05-01T11:00:39.413Z</time>
      </trkpt>
      <trkpt lat="45.7784" lon="5.88984">
        <ele>511</ele>
        <time>2022-05-01T11:00:40.413Z</time>
      </trkpt>
      <trkpt lat="45.7784" lon="5.88981">
        <ele>511</ele>
        <time>2022-05-01T11:00:41.413Z</time>
      </trkpt>
      <trkpt lat="45.7784" lon="5.88978">
        <ele>510</ele>
        <time>2022-05-01T11:00:42.413Z</time>
      </trkpt>
      <trkpt lat="45.7784" lon="5.88975">
        <ele>511</ele>
        <time>2022-05-01T11:00:43.413Z</time>
      </trkpt>
      <trkpt lat="45.7784" lon="5.88972">
        <ele>511</ele>
        <time>2022-05-01T11:00:44.413Z</time>
      </trkpt>
      <trkpt lat="45.7784" lon="5.88968">
        <ele>511</ele>
        <time>2022-05-01T11:00:45.413Z</time>
      </trkpt>
      <trkpt lat="45.7784" lon="5.88964">
        <ele>511</ele>
        <time>2022-05-01T11:00:46.413Z</time>
      </trkpt>
      <trkpt lat="45.7784" lon="5.88961">
        <ele>511</ele>
        <time>2022-05-01T11:00:47.412Z</time>
      </trkpt>
      <trkpt lat="45.7784" lon="5.88958">
        <ele>511</ele>
        <time>2022-05-01T11:00:48.413Z</time>
      </trkpt>
      <trkpt lat="45.7784" lon="5.88955">
        <ele>512</ele>
        <time>2022-05-01T11:00:49.412Z</time>
      </trkpt>
      <trkpt lat="45.7784" lon="5.88952">
        <ele>512</ele>
        <time>2022-05-01T11:00:50.413Z</time>
      </trkpt>
      <trkpt lat="45.7784" lon="5.8895">
        <ele>512</ele>
        <time>2022-05-01T11:00:51.413Z</time>
      </trkpt>
      <trkpt lat="45.77839" lon="5.88947">
        <ele>512</ele>
        <time>2022-05-01T11:00:52.412Z</time>
      </trkpt>
      <trkpt lat="45.77839" lon="5.88943">
        <ele>512</ele>
        <time>2022-05-01T11:00:53.413Z</time>
      </trkpt>
      <trkpt lat="45.77839" lon="5.8894">
        <ele>512</ele>
        <time>2022-05-01T11:00:54.412Z</time>
      </trkpt>
      <trkpt lat="45.77839" lon="5.88937">
        <ele>512</ele>
        <time>2022-05-01T11:00:55.413Z</time>
      </trkpt>
      <trkpt lat="45.77838" lon="5.88935">
        <ele>512</ele>
        <time>2022-05-01T11:00:56.412Z</time>
      </trkpt>
      <trkpt lat="45.77837" lon="5.88932">
        <ele>513</ele>
        <time>2022-05-01T11:00:57.412Z</time>
      </trkpt>
      <trkpt lat="45.77835" lon="5.88929">
        <ele>513</ele>
        <time>2022-05-01T11:00:58.413Z</time>
      </trkpt>
      <trkpt lat="45.77834" lon="5.88927">
        <ele>514</ele>
        <time>2022-05-01T11:00:59.413Z</time>
      </trkpt>
      <trkpt lat="45.77833" lon="5.88925">
        <ele>515</ele>
        <time>2022-05-01T11:01:00.413Z</time>
      </trkpt>
      <trkpt lat="45.77832" lon="5.88923">
        <ele>516</ele>
        <time>2022-05-01T11:01:01.412Z</time>
      </trkpt>
      <trkpt lat="45.7783" lon="5.88921">
        <ele>516</ele>
        <time>2022-05-01T11:01:02.413Z</time>
      </trkpt>
      <trkpt lat="45.77829" lon="5.88918">
        <ele>516</ele>
        <time>2022-05-01T11:01:03.413Z</time>
      </trkpt>
      <trkpt lat="45.77828" lon="5.88916">
        <ele>517</ele>
        <time>2022-05-01T11:01:04.413Z</time>
      </trkpt>
      <trkpt lat="45.77826" lon="5.88914">
        <ele>517</ele>
        <time>2022-05-01T11:01:05.412Z</time>
      </trkpt>
      <trkpt lat="45.77825" lon="5.88912">
        <ele>517</ele>
        <time>2022-05-01T11:01:06.412Z</time>
      </trkpt>
      <trkpt lat="45.77823" lon="5.8891">
        <ele>517</ele>
        <time>2022-05-01T11:01:07.412Z</time>
      </trkpt>
      <trkpt lat="45.77822" lon="5.88909">
        <ele>517</ele>
        <time>2022-05-01T11:01:08.413Z</time>
      </trkpt>
      <trkpt lat="45.7782" lon="5.88907">
        <ele>516</ele>
        <time>2022-05-01T11:01:09.413Z</time>
      </trkpt>
      <trkpt lat="45.77818" lon="5.88906">
        <ele>516</ele>
        <time>2022-05-01T11:01:10.413Z</time>
      </trkpt>
      <trkpt lat="45.77816" lon="5.88904">
        <ele>516</ele>
        <time>2022-05-01T11:01:11.412Z</time>
      </trkpt>
      <trkpt lat="45.77814" lon="5.88903">
        <ele>516</ele>
        <time>2022-05-01T11:01:12.412Z</time>
      </trkpt>
      <trkpt lat="45.77813" lon="5.88902">
        <ele>516</ele>
        <time>2022-05-01T11:01:13.413Z</time>
      </trkpt>
      <trkpt lat="45.77811" lon="5.88901">
        <ele>516</ele>
        <time>2022-05-01T11:01:14.413Z</time>
      </trkpt>
      <trkpt lat="45.77809" lon="5.889">
        <ele>516</ele>
        <time>2022-05-01T11:01:15.412Z</time>
      </trkpt>
      <trkpt lat="45.77807" lon="5.88899">
        <ele>516</ele>
        <time>2022-05-01T11:01:16.412Z</time>
      </trkpt>
      <trkpt lat="45.77805" lon="5.88899">
        <ele>516</ele>
        <time>2022-05-01T11:01:17.412Z</time>
      </trkpt>
      <trkpt lat="45.77803" lon="5.88898">
        <ele>517</ele>
        <time>2022-05-01T11:01:18.412Z</time>
      </trkpt>
      <trkpt lat="45.778" lon="5.88897">
        <ele>517</ele>
        <time>2022-05-01T11:01:19.413Z</time>
      </trkpt>
      <trkpt lat="45.77798" lon="5.88897">
        <ele>517</ele>
        <time>2022-05-01T11:01:20.412Z</time>
      </trkpt>
      <trkpt lat="45.77796" lon="5.88897">
        <ele>517</ele>
        <time>2022-05-01T11:01:21.412Z</time>
      </trkpt>
      <trkpt lat="45.77794" lon="5.88897">
        <ele>517</ele>
        <time>2022-05-01T11:01:22.412Z</time>
      </trkpt>
      <trkpt lat="45.77792" lon="5.88897">
        <ele>518</ele>
        <time>2022-05-01T11:01:23.413Z</time>
      </trkpt>
      <trkpt lat="45.7779" lon="5.88897">
        <ele>518</ele>
        <time>2022-05-01T11:01:24.413Z</time>
      </trkpt>
      <trkpt lat="45.77788" lon="5.88897">
        <ele>518</ele>
        <time>2022-05-01T11:01:25.412Z</time>
      </trkpt>
      <trkpt lat="45.77785" lon="5.88897">
        <ele>519</ele>
        <time>2022-05-01T11:01:26.412Z</time>
      </trkpt>
      <trkpt lat="45.77783" lon="5.88898">
        <ele>519</ele>
        <time>2022-05-01T11:01:27.412Z</time>
      </trkpt>
      <trkpt lat="45.77781" lon="5.88898">
        <ele>520</ele>
        <time>2022-05-01T11:01:28.412Z</time>
      </trkpt>
      <trkpt lat="45.77778" lon="5.88898">
        <ele>520</ele>
        <time>2022-05-01T11:01:29.413Z</time>
      </trkpt>
      <trkpt lat="45.77776" lon="5.88897">
        <ele>520</ele>
        <time>2022-05-01T11:01:30.412Z</time>
      </trkpt>
      <trkpt lat="45.77774" lon="5.88897">
        <ele>520</ele>
        <time>2022-05-01T11:01:31.413Z</time>
      </trkpt>
      <trkpt lat="45.77771" lon="5.88897">
        <ele>521</ele>
        <time>2022-05-01T11:01:32.412Z</time>
      </trkpt>
      <trkpt lat="45.77769" lon="5.88896">
        <ele>521</ele>
        <time>2022-05-01T11:01:33.413Z</time>
      </trkpt>
      <trkpt lat="45.77766" lon="5.88895">
        <ele>522</ele>
        <time>2022-05-01T11:01:34.413Z</time>
      </trkpt>
      <trkpt lat="45.77764" lon="5.88894">
        <ele>522</ele>
        <time>2022-05-01T11:01:35.412Z</time>
      </trkpt>
      <trkpt lat="45.77762" lon="5.88892">
        <ele>522</ele>
        <time>2022-05-01T11:01:36.412Z</time>
      </trkpt>
      <trkpt lat="45.77761" lon="5.8889">
        <ele>522</ele>
        <time>2022-05-01T11:01:37.412Z</time>
      </trkpt>
      <trkpt lat="45.7776" lon="5.88888">
        <ele>522</ele>
        <time>2022-05-01T11:01:38.413Z</time>
      </trkpt>
      <trkpt lat="45.77759" lon="5.88885">
        <ele>522</ele>
        <time>2022-05-01T11:01:39.412Z</time>
      </trkpt>
      <trkpt lat="45.77759" lon="5.88882">
        <ele>522</ele>
        <time>2022-05-01T11:01:40.412Z</time>
      </trkpt>
      <trkpt lat="45.7776" lon="5.88879">
        <ele>522</ele>
        <time>2022-05-01T11:01:41.413Z</time>
      </trkpt>
      <trkpt lat="45.77761" lon="5.88876">
        <ele>523</ele>
        <time>2022-05-01T11:01:42.412Z</time>
      </trkpt>
      <trkpt lat="45.77762" lon="5.88874">
        <ele>523</ele>
        <time>2022-05-01T11:01:43.413Z</time>
      </trkpt>
      <trkpt lat="45.77764" lon="5.88871">
        <ele>523</ele>
        <time>2022-05-01T11:01:44.412Z</time>
      </trkpt>
      <trkpt lat="45.77766" lon="5.88869">
        <ele>523</ele>
        <time>2022-05-01T11:01:45.413Z</time>
      </trkpt>
      <trkpt lat="45.77768" lon="5.88868">
        <ele>523</ele>
        <time>2022-05-01T11:01:46.413Z</time>
      </trkpt>
      <trkpt lat="45.77769" lon="5.88866">
        <ele>524</ele>
        <time>2022-05-01T11:01:47.412Z</time>
      </trkpt>
      <trkpt lat="45.77772" lon="5.88865">
        <ele>524</ele>
        <time>2022-05-01T11:01:48.413Z</time>
      </trkpt>
      <trkpt lat="45.77774" lon="5.88864">
        <ele>525</ele>
        <time>2022-05-01T11:01:49.413Z</time>
      </trkpt>
      <trkpt lat="45.77776" lon="5.88863">
        <ele>525</ele>
        <time>2022-05-01T11:01:50.412Z</time>
      </trkpt>
      <trkpt lat="45.77778" lon="5.88862">
        <ele>525</ele>
        <time>2022-05-01T11:01:51.412Z</time>
      </trkpt>
      <trkpt lat="45.7778" lon="5.8886">
        <ele>525</ele>
        <time>2022-05-01T11:01:52.412Z</time>
      </trkpt>
      <trkpt lat="45.77782" lon="5.88859">
        <ele>525</ele>
        <time>2022-05-01T11:01:53.412Z</time>
      </trkpt>
      <trkpt lat="45.77784" lon="5.88858">
        <ele>525</ele>
        <time>2022-05-01T11:01:54.412Z</time>
      </trkpt>
      <trkpt lat="45.77786" lon="5.88857">
        <ele>525</ele>
        <time>2022-05-01T11:01:55.412Z</time>
      </trkpt>
      <trkpt lat="45.77788" lon="5.88856">
        <ele>525</ele>
        <time>2022-05-01T11:01:56.412Z</time>
      </trkpt>
      <trkpt lat="45.7779" lon="5.88855">
        <ele>525</ele>
        <time>2022-05-01T11:01:57.412Z</time>
      </trkpt>
      <trkpt lat="45.77792" lon="5.88854">
        <ele>524</ele>
        <time>2022-05-01T11:01:58.412Z</time>
      </trkpt>
      <trkpt lat="45.77794" lon="5.88853">
        <ele>524</ele>
        <time>2022-05-01T11:01:59.413Z</time>
      </trkpt>
      <trkpt lat="45.77796" lon="5.88852">
        <ele>524</ele>
        <time>2022-05-01T11:02:00.413Z</time>
      </trkpt>
      <trkpt lat="45.77798" lon="5.88851">
        <ele>524</ele>
        <time>2022-05-01T11:02:01.412Z</time>
      </trkpt>
      <trkpt lat="45.778" lon="5.8885">
        <ele>524</ele>
        <time>2022-05-01T11:02:02.412Z</time>
      </trkpt>
      <trkpt lat="45.77802" lon="5.88848">
        <ele>524</ele>
        <time>2022-05-01T11:02:03.412Z</time>
      </trkpt>
      <trkpt lat="45.77804" lon="5.88847">
        <ele>524</ele>
        <time>2022-05-01T11:02:04.413Z</time>
      </trkpt>
      <trkpt lat="45.77806" lon="5.88846">
        <ele>523</ele>
        <time>2022-05-01T11:02:05.413Z</time>
      </trkpt>
      <trkpt lat="45.77808" lon="5.88845">
        <ele>523</ele>
        <time>2022-05-01T11:02:06.412Z</time>
      </trkpt>
      <trkpt lat="45.7781" lon="5.88844">
        <ele>524</ele>
        <time>2022-05-01T11:02:07.412Z</time>
      </trkpt>
      <trkpt lat="45.77812" lon="5.88843">
        <ele>524</ele>
        <time>2022-05-01T11:02:08.413Z</time>
      </trkpt>
      <trkpt lat="45.77813" lon="5.88841">
        <ele>523</ele>
        <time>2022-05-01T11:02:09.413Z</time>
      </trkpt>
      <trkpt lat="45.77815" lon="5.88839">
        <ele>523</ele>
        <time>2022-05-01T11:02:10.413Z</time>
      </trkpt>
      <trkpt lat="45.77817" lon="5.88838">
        <ele>522</ele>
        <time>2022-05-01T11:02:11.412Z</time>
      </trkpt>
      <trkpt lat="45.77819" lon="5.88836">
        <ele>522</ele>
        <time>2022-05-01T11:02:12.412Z</time>
      </trkpt>
      <trkpt lat="45.7782" lon="5.88833">
        <ele>522</ele>
        <time>2022-05-01T11:02:13.413Z</time>
      </trkpt>
      <trkpt lat="45.77822" lon="5.88831">
        <ele>521</ele>
        <time>2022-05-01T11:02:14.413Z</time>
      </trkpt>
      <trkpt lat="45.77823" lon="5.88829">
        <ele>521</ele>
        <time>2022-05-01T11:02:15.412Z</time>
      </trkpt>
      <trkpt lat="45.77824" lon="5.88826">
        <ele>521</ele>
        <time>2022-05-01T11:02:16.413Z</time>
      </trkpt>
      <trkpt lat="45.77825" lon="5.88824">
        <ele>521</ele>
        <time>2022-05-01T11:02:17.412Z</time>
      </trkpt>
      <trkpt lat="45.77826" lon="5.88821">
        <ele>521</ele>
        <time>2022-05-01T11:02:18.412Z</time>
      </trkpt>
      <trkpt lat="45.77827" lon="5.88819">
        <ele>521</ele>
        <time>2022-05-01T11:02:19.412Z</time>
      </trkpt>
      <trkpt lat="45.77828" lon="5.88816">
        <ele>521</ele>
        <time>2022-05-01T11:02:20.413Z</time>
      </trkpt>
      <trkpt lat="45.7783" lon="5.88813">
        <ele>522</ele>
        <time>2022-05-01T11:02:21.412Z</time>
      </trkpt>
      <trkpt lat="45.77831" lon="5.8881">
        <ele>522</ele>
        <time>2022-05-01T11:02:22.412Z</time>
      </trkpt>
      <trkpt lat="45.77832" lon="5.88807">
        <ele>522</ele>
        <time>2022-05-01T11:02:23.413Z</time>
      </trkpt>
      <trkpt lat="45.77833" lon="5.88804">
        <ele>523</ele>
        <time>2022-05-01T11:02:24.413Z</time>
      </trkpt>
      <trkpt lat="45.77834" lon="5.88801">
        <ele>523</ele>
        <time>2022-05-01T11:02:25.412Z</time>
      </trkpt>
      <trkpt lat="45.77835" lon="5.88798">
        <ele>523</ele>
        <time>2022-05-01T11:02:26.413Z</time>
      </trkpt>
      <trkpt lat="45.77836" lon="5.88795">
        <ele>524</ele>
        <time>2022-05-01T11:02:27.413Z</time>
      </trkpt>
      <trkpt lat="45.77837" lon="5.88792">
        <ele>525</ele>
        <time>2022-05-01T11:02:28.413Z</time>
      </trkpt>
      <trkpt lat="45.77839" lon="5.8879">
        <ele>525</ele>
        <time>2022-05-01T11:02:29.413Z</time>
      </trkpt>
      <trkpt lat="45.7784" lon="5.88787">
        <ele>526</ele>
        <time>2022-05-01T11:02:30.413Z</time>
      </trkpt>
      <trkpt lat="45.77841" lon="5.88785">
        <ele>526</ele>
        <time>2022-05-01T11:02:31.413Z</time>
      </trkpt>
      <trkpt lat="45.77843" lon="5.88783">
        <ele>527</ele>
        <time>2022-05-01T11:02:32.413Z</time>
      </trkpt>
      <trkpt lat="45.77844" lon="5.88781">
        <ele>527</ele>
        <time>2022-05-01T11:02:33.413Z</time>
      </trkpt>
      <trkpt lat="45.77846" lon="5.88779">
        <ele>528</ele>
        <time>2022-05-01T11:02:34.413Z</time>
      </trkpt>
      <trkpt lat="45.77848" lon="5.88777">
        <ele>528</ele>
        <time>2022-05-01T11:02:35.413Z</time>
      </trkpt>
      <trkpt lat="45.77849" lon="5.88775">
        <ele>528</ele>
        <time>2022-05-01T11:02:36.413Z</time>
      </trkpt>
      <trkpt lat="45.7785" lon="5.88773">
        <ele>529</ele>
        <time>2022-05-01T11:02:37.413Z</time>
      </trkpt>
      <trkpt lat="45.77852" lon="5.88771">
        <ele>529</ele>
        <time>2022-05-01T11:02:38.413Z</time>
      </trkpt>
      <trkpt lat="45.77853" lon="5.88769">
        <ele>529</ele>
        <time>2022-05-01T11:02:39.413Z</time>
      </trkpt>
      <trkpt lat="45.77855" lon="5.88768">
        <ele>529</ele>
        <time>2022-05-01T11:02:40.413Z</time>
      </trkpt>
      <trkpt lat="45.77857" lon="5.88766">
        <ele>529</ele>
        <time>2022-05-01T11:02:41.413Z</time>
      </trkpt>
      <trkpt lat="45.77859" lon="5.88764">
        <ele>530</ele>
        <time>2022-05-01T11:02:42.413Z</time>
      </trkpt>
      <trkpt lat="45.7786" lon="5.88763">
        <ele>530</ele>
        <time>2022-05-01T11:02:43.413Z</time>
      </trkpt>
      <trkpt lat="45.77862" lon="5.88761">
        <ele>530</ele>
        <time>2022-05-01T11:02:44.413Z</time>
      </trkpt>
      <trkpt lat="45.77863" lon="5.88759">
        <ele>530</ele>
        <time>2022-05-01T11:02:45.412Z</time>
      </trkpt>
      <trkpt lat="45.77865" lon="5.88756">
        <ele>529</ele>
        <time>2022-05-01T11:02:46.413Z</time>
      </trkpt>
      <trkpt lat="45.77866" lon="5.88755">
        <ele>528</ele>
        <time>2022-05-01T11:02:47.412Z</time>
      </trkpt>
      <trkpt lat="45.77868" lon="5.88753">
        <ele>528</ele>
        <time>2022-05-01T11:02:48.412Z</time>
      </trkpt>
      <trkpt lat="45.7787" lon="5.88752">
        <ele>529</ele>
        <time>2022-05-01T11:02:49.413Z</time>
      </trkpt>
      <trkpt lat="45.77872" lon="5.88751">
        <ele>530</ele>
        <time>2022-05-01T11:02:50.413Z</time>
      </trkpt>
      <trkpt lat="45.77874" lon="5.88749">
        <ele>530</ele>
        <time>2022-05-01T11:02:51.413Z</time>
      </trkpt>
      <trkpt lat="45.77876" lon="5.88748">
        <ele>531</ele>
        <time>2022-05-01T11:02:52.413Z</time>
      </trkpt>
      <trkpt lat="45.77878" lon="5.88747">
        <ele>531</ele>
        <time>2022-05-01T11:02:53.413Z</time>
      </trkpt>
      <trkpt lat="45.7788" lon="5.88746">
        <ele>532</ele>
        <time>2022-05-01T11:02:54.413Z</time>
      </trkpt>
      <trkpt lat="45.77882" lon="5.88745">
        <ele>533</ele>
        <time>2022-05-01T11:02:55.413Z</time>
      </trkpt>
      <trkpt lat="45.77883" lon="5.88744">
        <ele>534</ele>
        <time>2022-05-01T11:02:56.413Z</time>
      </trkpt>
      <trkpt lat="45.77885" lon="5.88743">
        <ele>534</ele>
        <time>2022-05-01T11:02:57.413Z</time>
      </trkpt>
      <trkpt lat="45.77887" lon="5.88741">
        <ele>535</ele>
        <time>2022-05-01T11:02:58.413Z</time>
      </trkpt>
      <trkpt lat="45.77889" lon="5.8874">
        <ele>535</ele>
        <time>2022-05-01T11:02:59.413Z</time>
      </trkpt>
      <trkpt lat="45.7789" lon="5.88738">
        <ele>535</ele>
        <time>2022-05-01T11:03:00.413Z</time>
      </trkpt>
      <trkpt lat="45.77892" lon="5.88737">
        <ele>535</ele>
        <time>2022-05-01T11:03:01.413Z</time>
      </trkpt>
      <trkpt lat="45.77894" lon="5.88736">
        <ele>534</ele>
        <time>2022-05-01T11:03:02.413Z</time>
      </trkpt>
      <trkpt lat="45.77896" lon="5.88734">
        <ele>534</ele>
        <time>2022-05-01T11:03:03.412Z</time>
      </trkpt>
      <trkpt lat="45.77897" lon="5.88733">
        <ele>535</ele>
        <time>2022-05-01T11:03:04.413Z</time>
      </trkpt>
      <trkpt lat="45.77899" lon="5.88732">
        <ele>535</ele>
        <time>2022-05-01T11:03:05.413Z</time>
      </trkpt>
      <trkpt lat="45.77901" lon="5.8873">
        <ele>536</ele>
        <time>2022-05-01T11:03:06.413Z</time>
      </trkpt>
      <trkpt lat="45.77903" lon="5.88729">
        <ele>536</ele>
        <time>2022-05-01T11:03:07.412Z</time>
      </trkpt>
      <trkpt lat="45.77904" lon="5.88727">
        <ele>537</ele>
        <time>2022-05-01T11:03:08.413Z</time>
      </trkpt>
      <trkpt lat="45.77906" lon="5.88726">
        <ele>537</ele>
        <time>2022-05-01T11:03:09.413Z</time>
      </trkpt>
      <trkpt lat="45.77908" lon="5.88724">
        <ele>538</ele>
        <time>2022-05-01T11:03:10.413Z</time>
      </trkpt>
      <trkpt lat="45.77909" lon="5.88722">
        <ele>538</ele>
        <time>2022-05-01T11:03:11.412Z</time>
      </trkpt>
      <trkpt lat="45.77911" lon="5.88721">
        <ele>539</ele>
        <time>2022-05-01T11:03:12.413Z</time>
      </trkpt>
      <trkpt lat="45.77913" lon="5.88719">
        <ele>539</ele>
        <time>2022-05-01T11:03:13.413Z</time>
      </trkpt>
      <trkpt lat="45.77914" lon="5.88717">
        <ele>539</ele>
        <time>2022-05-01T11:03:14.413Z</time>
      </trkpt>
      <trkpt lat="45.77916" lon="5.88716">
        <ele>539</ele>
        <time>2022-05-01T11:03:15.412Z</time>
      </trkpt>
      <trkpt lat="45.77917" lon="5.88714">
        <ele>538</ele>
        <time>2022-05-01T11:03:16.413Z</time>
      </trkpt>
      <trkpt lat="45.77919" lon="5.88713">
        <ele>538</ele>
        <time>2022-05-01T11:03:17.412Z</time>
      </trkpt>
      <trkpt lat="45.7792" lon="5.88711">
        <ele>538</ele>
        <time>2022-05-01T11:03:18.412Z</time>
      </trkpt>
      <trkpt lat="45.77922" lon="5.8871">
        <ele>538</ele>
        <time>2022-05-01T11:03:19.413Z</time>
      </trkpt>
      <trkpt lat="45.77923" lon="5.88708">
        <ele>538</ele>
        <time>2022-05-01T11:03:20.413Z</time>
      </trkpt>
      <trkpt lat="45.77925" lon="5.88707">
        <ele>538</ele>
        <time>2022-05-01T11:03:21.412Z</time>
      </trkpt>
      <trkpt lat="45.77927" lon="5.88706">
        <ele>539</ele>
        <time>2022-05-01T11:03:22.413Z</time>
      </trkpt>
      <trkpt lat="45.77929" lon="5.88704">
        <ele>539</ele>
        <time>2022-05-01T11:03:23.412Z</time>
      </trkpt>
      <trkpt lat="45.7793" lon="5.88703">
        <ele>539</ele>
        <time>2022-05-01T11:03:24.413Z</time>
      </trkpt>
      <trkpt lat="45.77932" lon="5.88701">
        <ele>539</ele>
        <time>2022-05-01T11:03:25.412Z</time>
      </trkpt>
      <trkpt lat="45.77934" lon="5.88699">
        <ele>539</ele>
        <time>2022-05-01T11:03:26.412Z</time>
      </trkpt>
      <trkpt lat="45.77936" lon="5.88697">
        <ele>539</ele>
        <time>2022-05-01T11:03:27.413Z</time>
      </trkpt>
      <trkpt lat="45.77938" lon="5.88695">
        <ele>539</ele>
        <time>2022-05-01T11:03:28.413Z</time>
      </trkpt>
      <trkpt lat="45.7794" lon="5.88693">
        <ele>539</ele>
        <time>2022-05-01T11:03:29.412Z</time>
      </trkpt>
      <trkpt lat="45.77941" lon="5.88691">
        <ele>539</ele>
        <time>2022-05-01T11:03:30.413Z</time>
      </trkpt>
      <trkpt lat="45.77943" lon="5.88689">
        <ele>539</ele>
        <time>2022-05-01T11:03:31.412Z</time>
      </trkpt>
      <trkpt lat="45.77944" lon="5.88687">
        <ele>539</ele>
        <time>2022-05-01T11:03:32.413Z</time>
      </trkpt>
      <trkpt lat="45.77946" lon="5.88685">
        <ele>539</ele>
        <time>2022-05-01T11:03:33.413Z</time>
      </trkpt>
      <trkpt lat="45.77947" lon="5.88683">
        <ele>540</ele>
        <time>2022-05-01T11:03:34.413Z</time>
      </trkpt>
      <trkpt lat="45.77949" lon="5.88682">
        <ele>540</ele>
        <time>2022-05-01T11:03:35.412Z</time>
      </trkpt>
      <trkpt lat="45.77951" lon="5.8868">
        <ele>541</ele>
        <time>2022-05-01T11:03:36.412Z</time>
      </trkpt>
      <trkpt lat="45.77953" lon="5.88679">
        <ele>541</ele>
        <time>2022-05-01T11:03:37.413Z</time>
      </trkpt>
      <trkpt lat="45.77955" lon="5.88678">
        <ele>541</ele>
        <time>2022-05-01T11:03:38.413Z</time>
      </trkpt>
      <trkpt lat="45.77956" lon="5.88677">
        <ele>541</ele>
        <time>2022-05-01T11:03:39.412Z</time>
      </trkpt>
      <trkpt lat="45.77958" lon="5.88676">
        <ele>541</ele>
        <time>2022-05-01T11:03:40.413Z</time>
      </trkpt>
      <trkpt lat="45.7796" lon="5.88674">
        <ele>541</ele>
        <time>2022-05-01T11:03:41.412Z</time>
      </trkpt>
      <trkpt lat="45.77962" lon="5.88673">
        <ele>541</ele>
        <time>2022-05-01T11:03:42.412Z</time>
      </trkpt>
      <trkpt lat="45.77964" lon="5.88672">
        <ele>540</ele>
        <time>2022-05-01T11:03:43.413Z</time>
      </trkpt>
      <trkpt lat="45.77966" lon="5.88671">
        <ele>541</ele>
        <time>2022-05-01T11:03:44.413Z</time>
      </trkpt>
      <trkpt lat="45.77968" lon="5.8867">
        <ele>540</ele>
        <time>2022-05-01T11:03:45.413Z</time>
      </trkpt>
      <trkpt lat="45.7797" lon="5.88668">
        <ele>541</ele>
        <time>2022-05-01T11:03:46.413Z</time>
      </trkpt>
      <trkpt lat="45.77971" lon="5.88667">
        <ele>540</ele>
        <time>2022-05-01T11:03:47.413Z</time>
      </trkpt>
      <trkpt lat="45.77973" lon="5.88665">
        <ele>540</ele>
        <time>2022-05-01T11:03:48.413Z</time>
      </trkpt>
      <trkpt lat="45.77976" lon="5.88664">
        <ele>540</ele>
        <time>2022-05-01T11:03:49.413Z</time>
      </trkpt>
      <trkpt lat="45.77977" lon="5.88662">
        <ele>541</ele>
        <time>2022-05-01T11:03:50.412Z</time>
      </trkpt>
      <trkpt lat="45.77979" lon="5.88661">
        <ele>541</ele>
        <time>2022-05-01T11:03:51.412Z</time>
      </trkpt>
      <trkpt lat="45.7798" lon="5.88659">
        <ele>542</ele>
        <time>2022-05-01T11:03:52.413Z</time>
      </trkpt>
      <trkpt lat="45.77982" lon="5.88656">
        <ele>542</ele>
        <time>2022-05-01T11:03:53.412Z</time>
      </trkpt>
      <trkpt lat="45.77983" lon="5.88653">
        <ele>542</ele>
        <time>2022-05-01T11:03:54.413Z</time>
      </trkpt>
      <trkpt lat="45.77984" lon="5.88651">
        <ele>541</ele>
        <time>2022-05-01T11:03:55.413Z</time>
      </trkpt>
      <trkpt lat="45.77986" lon="5.88649">
        <ele>542</ele>
        <time>2022-05-01T11:03:56.412Z</time>
      </trkpt>
      <trkpt lat="45.77987" lon="5.88646">
        <ele>542</ele>
        <time>2022-05-01T11:03:57.412Z</time>
      </trkpt>
      <trkpt lat="45.77988" lon="5.88644">
        <ele>542</ele>
        <time>2022-05-01T11:03:58.413Z</time>
      </trkpt>
      <trkpt lat="45.77989" lon="5.88641">
        <ele>543</ele>
        <time>2022-05-01T11:03:59.413Z</time>
      </trkpt>
      <trkpt lat="45.7799" lon="5.88639">
        <ele>543</ele>
        <time>2022-05-01T11:04:00.413Z</time>
      </trkpt>
      <trkpt lat="45.77991" lon="5.88637">
        <ele>544</ele>
        <time>2022-05-01T11:04:01.413Z</time>
      </trkpt>
      <trkpt lat="45.77991" lon="5.88634">
        <ele>544</ele>
        <time>2022-05-01T11:04:02.413Z</time>
      </trkpt>
      <trkpt lat="45.77992" lon="5.88632">
        <ele>543</ele>
        <time>2022-05-01T11:04:03.413Z</time>
      </trkpt>
      <trkpt lat="45.77993" lon="5.88629">
        <ele>543</ele>
        <time>2022-05-01T11:04:04.413Z</time>
      </trkpt>
      <trkpt lat="45.77994" lon="5.88626">
        <ele>542</ele>
        <time>2022-05-01T11:04:05.412Z</time>
      </trkpt>
      <trkpt lat="45.77995" lon="5.88623">
        <ele>543</ele>
        <time>2022-05-01T11:04:06.413Z</time>
      </trkpt>
      <trkpt lat="45.77995" lon="5.88621">
        <ele>543</ele>
        <time>2022-05-01T11:04:07.413Z</time>
      </trkpt>
      <trkpt lat="45.77995" lon="5.88618">
        <ele>543</ele>
        <time>2022-05-01T11:04:08.413Z</time>
      </trkpt>
      <trkpt lat="45.77995" lon="5.88615">
        <ele>544</ele>
        <time>2022-05-01T11:04:09.413Z</time>
      </trkpt>
      <trkpt lat="45.77995" lon="5.88611">
        <ele>544</ele>
        <time>2022-05-01T11:04:10.412Z</time>
      </trkpt>
      <trkpt lat="45.77994" lon="5.88608">
        <ele>545</ele>
        <time>2022-05-01T11:04:11.413Z</time>
      </trkpt>
      <trkpt lat="45.77993" lon="5.88605">
        <ele>545</ele>
        <time>2022-05-01T11:04:12.413Z</time>
      </trkpt>
      <trkpt lat="45.77993" lon="5.88602">
        <ele>546</ele>
        <time>2022-05-01T11:04:13.413Z</time>
      </trkpt>
      <trkpt lat="45.77992" lon="5.88599">
        <ele>546</ele>
        <time>2022-05-01T11:04:14.413Z</time>
      </trkpt>
      <trkpt lat="45.77991" lon="5.88595">
        <ele>546</ele>
        <time>2022-05-01T11:04:15.412Z</time>
      </trkpt>
      <trkpt lat="45.7799" lon="5.88593">
        <ele>546</ele>
        <time>2022-05-01T11:04:16.413Z</time>
      </trkpt>
      <trkpt lat="45.77989" lon="5.8859">
        <ele>546</ele>
        <time>2022-05-01T11:04:17.413Z</time>
      </trkpt>
      <trkpt lat="45.77989" lon="5.88587">
        <ele>547</ele>
        <time>2022-05-01T11:04:18.413Z</time>
      </trkpt>
      <trkpt lat="45.77988" lon="5.88583">
        <ele>546</ele>
        <time>2022-05-01T11:04:19.413Z</time>
      </trkpt>
      <trkpt lat="45.77987" lon="5.8858">
        <ele>546</ele>
        <time>2022-05-01T11:04:20.413Z</time>
      </trkpt>
      <trkpt lat="45.77987" lon="5.88577">
        <ele>546</ele>
        <time>2022-05-01T11:04:21.413Z</time>
      </trkpt>
      <trkpt lat="45.77987" lon="5.88574">
        <ele>545</ele>
        <time>2022-05-01T11:04:22.413Z</time>
      </trkpt>
      <trkpt lat="45.77987" lon="5.88571">
        <ele>545</ele>
        <time>2022-05-01T11:04:23.413Z</time>
      </trkpt>
      <trkpt lat="45.77987" lon="5.88568">
        <ele>545</ele>
        <time>2022-05-01T11:04:24.413Z</time>
      </trkpt>
      <trkpt lat="45.77987" lon="5.88565">
        <ele>546</ele>
        <time>2022-05-01T11:04:25.413Z</time>
      </trkpt>
      <trkpt lat="45.77988" lon="5.88562">
        <ele>546</ele>
        <time>2022-05-01T11:04:26.413Z</time>
      </trkpt>
      <trkpt lat="45.77989" lon="5.88559">
        <ele>546</ele>
        <time>2022-05-01T11:04:27.413Z</time>
      </trkpt>
      <trkpt lat="45.7799" lon="5.88557">
        <ele>547</ele>
        <time>2022-05-01T11:04:28.413Z</time>
      </trkpt>
      <trkpt lat="45.77992" lon="5.88554">
        <ele>547</ele>
        <time>2022-05-01T11:04:29.412Z</time>
      </trkpt>
      <trkpt lat="45.77993" lon="5.88553">
        <ele>547</ele>
        <time>2022-05-01T11:04:30.413Z</time>
      </trkpt>
      <trkpt lat="45.77995" lon="5.88551">
        <ele>548</ele>
        <time>2022-05-01T11:04:31.413Z</time>
      </trkpt>
      <trkpt lat="45.77996" lon="5.88549">
        <ele>548</ele>
        <time>2022-05-01T11:04:32.413Z</time>
      </trkpt>
      <trkpt lat="45.77998" lon="5.88548">
        <ele>549</ele>
        <time>2022-05-01T11:04:33.412Z</time>
      </trkpt>
      <trkpt lat="45.78" lon="5.88545">
        <ele>550</ele>
        <time>2022-05-01T11:04:34.412Z</time>
      </trkpt>
      <trkpt lat="45.78002" lon="5.88544">
        <ele>551</ele>
        <time>2022-05-01T11:04:35.413Z</time>
      </trkpt>
      <trkpt lat="45.78004" lon="5.88542">
        <ele>551</ele>
        <time>2022-05-01T11:04:36.413Z</time>
      </trkpt>
      <trkpt lat="45.78005" lon="5.88541">
        <ele>551</ele>
        <time>2022-05-01T11:04:37.413Z</time>
      </trkpt>
      <trkpt lat="45.78007" lon="5.88539">
        <ele>551</ele>
        <time>2022-05-01T11:04:38.412Z</time>
      </trkpt>
      <trkpt lat="45.78009" lon="5.88537">
        <ele>551</ele>
        <time>2022-05-01T11:04:39.413Z</time>
      </trkpt>
      <trkpt lat="45.78011" lon="5.88535">
        <ele>551</ele>
        <time>2022-05-01T11:04:40.412Z</time>
      </trkpt>
      <trkpt lat="45.78012" lon="5.88534">
        <ele>551</ele>
        <time>2022-05-01T11:04:41.413Z</time>
      </trkpt>
      <trkpt lat="45.78013" lon="5.88531">
        <ele>552</ele>
        <time>2022-05-01T11:04:42.412Z</time>
      </trkpt>
      <trkpt lat="45.78014" lon="5.88528">
        <ele>552</ele>
        <time>2022-05-01T11:04:43.413Z</time>
      </trkpt>
      <trkpt lat="45.78015" lon="5.88525">
        <ele>552</ele>
        <time>2022-05-01T11:04:44.413Z</time>
      </trkpt>
      <trkpt lat="45.78015" lon="5.88523">
        <ele>553</ele>
        <time>2022-05-01T11:04:45.413Z</time>
      </trkpt>
      <trkpt lat="45.78015" lon="5.88521">
        <ele>553</ele>
        <time>2022-05-01T11:04:46.413Z</time>
      </trkpt>
      <trkpt lat="45.78014" lon="5.88518">
        <ele>553</ele>
        <time>2022-05-01T11:04:47.413Z</time>
      </trkpt>
      <trkpt lat="45.78013" lon="5.88516">
        <ele>553</ele>
        <time>2022-05-01T11:04:48.413Z</time>
      </trkpt>
      <trkpt lat="45.78011" lon="5.88514">
        <ele>553</ele>
        <time>2022-05-01T11:04:49.413Z</time>
      </trkpt>
      <trkpt lat="45.78009" lon="5.88512">
        <ele>553</ele>
        <time>2022-05-01T11:04:50.413Z</time>
      </trkpt>
      <trkpt lat="45.78007" lon="5.8851">
        <ele>554</ele>
        <time>2022-05-01T11:04:51.413Z</time>
      </trkpt>
      <trkpt lat="45.78006" lon="5.88509">
        <ele>554</ele>
        <time>2022-05-01T11:04:52.413Z</time>
      </trkpt>
      <trkpt lat="45.78004" lon="5.88508">
        <ele>554</ele>
        <time>2022-05-01T11:04:53.413Z</time>
      </trkpt>
      <trkpt lat="45.78001" lon="5.88509">
        <ele>554</ele>
        <time>2022-05-01T11:04:54.413Z</time>
      </trkpt>
      <trkpt lat="45.77999" lon="5.8851">
        <ele>554</ele>
        <time>2022-05-01T11:04:55.413Z</time>
      </trkpt>
      <trkpt lat="45.77997" lon="5.88511">
        <ele>554</ele>
        <time>2022-05-01T11:04:56.412Z</time>
      </trkpt>
      <trkpt lat="45.77994" lon="5.88512">
        <ele>554</ele>
        <time>2022-05-01T11:04:57.412Z</time>
      </trkpt>
      <trkpt lat="45.77992" lon="5.88513">
        <ele>554</ele>
        <time>2022-05-01T11:04:58.412Z</time>
      </trkpt>
      <trkpt lat="45.7799" lon="5.88514">
        <ele>554</ele>
        <time>2022-05-01T11:04:59.412Z</time>
      </trkpt>
      <trkpt lat="45.77988" lon="5.88515">
        <ele>554</ele>
        <time>2022-05-01T11:05:00.413Z</time>
      </trkpt>
      <trkpt lat="45.77986" lon="5.88517">
        <ele>554</ele>
        <time>2022-05-01T11:05:01.413Z</time>
      </trkpt>
      <trkpt lat="45.77984" lon="5.88518">
        <ele>555</ele>
        <time>2022-05-01T11:05:02.413Z</time>
      </trkpt>
      <trkpt lat="45.77983" lon="5.8852">
        <ele>555</ele>
        <time>2022-05-01T11:05:03.413Z</time>
      </trkpt>
      <trkpt lat="45.7798" lon="5.88522">
        <ele>556</ele>
        <time>2022-05-01T11:05:04.413Z</time>
      </trkpt>
      <trkpt lat="45.77978" lon="5.88525">
        <ele>556</ele>
        <time>2022-05-01T11:05:05.412Z</time>
      </trkpt>
      <trkpt lat="45.77976" lon="5.88526">
        <ele>557</ele>
        <time>2022-05-01T11:05:06.413Z</time>
      </trkpt>
      <trkpt lat="45.77974" lon="5.88527">
        <ele>558</ele>
        <time>2022-05-01T11:05:07.412Z</time>
      </trkpt>
      <trkpt lat="45.77972" lon="5.88528">
        <ele>559</ele>
        <time>2022-05-01T11:05:08.413Z</time>
      </trkpt>
      <trkpt lat="45.7797" lon="5.8853">
        <ele>560</ele>
        <time>2022-05-01T11:05:09.413Z</time>
      </trkpt>
      <trkpt lat="45.77969" lon="5.88531">
        <ele>561</ele>
        <time>2022-05-01T11:05:10.413Z</time>
      </trkpt>
      <trkpt lat="45.77967" lon="5.88532">
        <ele>561</ele>
        <time>2022-05-01T11:05:11.413Z</time>
      </trkpt>
      <trkpt lat="45.77965" lon="5.88533">
        <ele>562</ele>
        <time>2022-05-01T11:05:12.413Z</time>
      </trkpt>
      <trkpt lat="45.77962" lon="5.88534">
        <ele>563</ele>
        <time>2022-05-01T11:05:13.413Z</time>
      </trkpt>
      <trkpt lat="45.7796" lon="5.88536">
        <ele>564</ele>
        <time>2022-05-01T11:05:14.413Z</time>
      </trkpt>
      <trkpt lat="45.77957" lon="5.88537">
        <ele>565</ele>
        <time>2022-05-01T11:05:15.412Z</time>
      </trkpt>
      <trkpt lat="45.77955" lon="5.88537">
        <ele>565</ele>
        <time>2022-05-01T11:05:16.413Z</time>
      </trkpt>
      <trkpt lat="45.77953" lon="5.88537">
        <ele>565</ele>
        <time>2022-05-01T11:05:17.413Z</time>
      </trkpt>
      <trkpt lat="45.77951" lon="5.88537">
        <ele>566</ele>
        <time>2022-05-01T11:05:18.413Z</time>
      </trkpt>
      <trkpt lat="45.77949" lon="5.88538">
        <ele>566</ele>
        <time>2022-05-01T11:05:19.413Z</time>
      </trkpt>
      <trkpt lat="45.77947" lon="5.88538">
        <ele>566</ele>
        <time>2022-05-01T11:05:20.412Z</time>
      </trkpt>
      <trkpt lat="45.77946" lon="5.88538">
        <ele>567</ele>
        <time>2022-05-01T11:05:21.413Z</time>
      </trkpt>
      <trkpt lat="45.77944" lon="5.88538">
        <ele>567</ele>
        <time>2022-05-01T11:05:22.412Z</time>
      </trkpt>
      <trkpt lat="45.77942" lon="5.88538">
        <ele>567</ele>
        <time>2022-05-01T11:05:23.413Z</time>
      </trkpt>
      <trkpt lat="45.77939" lon="5.88538">
        <ele>566</ele>
        <time>2022-05-01T11:05:24.413Z</time>
      </trkpt>
      <trkpt lat="45.77938" lon="5.88537">
        <ele>566</ele>
        <time>2022-05-01T11:05:25.412Z</time>
      </trkpt>
      <trkpt lat="45.77936" lon="5.88537">
        <ele>565</ele>
        <time>2022-05-01T11:05:26.412Z</time>
      </trkpt>
      <trkpt lat="45.77933" lon="5.88536">
        <ele>565</ele>
        <time>2022-05-01T11:05:27.413Z</time>
      </trkpt>
      <trkpt lat="45.77932" lon="5.88535">
        <ele>565</ele>
        <time>2022-05-01T11:05:28.413Z</time>
      </trkpt>
      <trkpt lat="45.7793" lon="5.88534">
        <ele>564</ele>
        <time>2022-05-01T11:05:29.413Z</time>
      </trkpt>
      <trkpt lat="45.77928" lon="5.88533">
        <ele>564</ele>
        <time>2022-05-01T11:05:30.413Z</time>
      </trkpt>
      <trkpt lat="45.77926" lon="5.88531">
        <ele>563</ele>
        <time>2022-05-01T11:05:31.413Z</time>
      </trkpt>
      <trkpt lat="45.77925" lon="5.88529">
        <ele>563</ele>
        <time>2022-05-01T11:05:32.413Z</time>
      </trkpt>
      <trkpt lat="45.77924" lon="5.88527">
        <ele>562</ele>
        <time>2022-05-01T11:05:33.413Z</time>
      </trkpt>
      <trkpt lat="45.77922" lon="5.88526">
        <ele>562</ele>
        <time>2022-05-01T11:05:34.412Z</time>
      </trkpt>
      <trkpt lat="45.77921" lon="5.88523">
        <ele>563</ele>
        <time>2022-05-01T11:05:35.413Z</time>
      </trkpt>
      <trkpt lat="45.7792" lon="5.88521">
        <ele>563</ele>
        <time>2022-05-01T11:05:36.412Z</time>
      </trkpt>
      <trkpt lat="45.77918" lon="5.88518">
        <ele>562</ele>
        <time>2022-05-01T11:05:37.413Z</time>
      </trkpt>
      <trkpt lat="45.77917" lon="5.88516">
        <ele>562</ele>
        <time>2022-05-01T11:05:38.412Z</time>
      </trkpt>
      <trkpt lat="45.77916" lon="5.88514">
        <ele>562</ele>
        <time>2022-05-01T11:05:39.413Z</time>
      </trkpt>
      <trkpt lat="45.77914" lon="5.88511">
        <ele>561</ele>
        <time>2022-05-01T11:05:40.413Z</time>
      </trkpt>
      <trkpt lat="45.77913" lon="5.88509">
        <ele>561</ele>
        <time>2022-05-01T11:05:41.413Z</time>
      </trkpt>
      <trkpt lat="45.77912" lon="5.88507">
        <ele>561</ele>
        <time>2022-05-01T11:05:42.413Z</time>
      </trkpt>
      <trkpt lat="45.77911" lon="5.88504">
        <ele>561</ele>
        <time>2022-05-01T11:05:43.413Z</time>
      </trkpt>
      <trkpt lat="45.77909" lon="5.88501">
        <ele>561</ele>
        <time>2022-05-01T11:05:44.413Z</time>
      </trkpt>
      <trkpt lat="45.77908" lon="5.88498">
        <ele>560</ele>
        <time>2022-05-01T11:05:45.413Z</time>
      </trkpt>
      <trkpt lat="45.77907" lon="5.88495">
        <ele>561</ele>
        <time>2022-05-01T11:05:46.413Z</time>
      </trkpt>
      <trkpt lat="45.77906" lon="5.88493">
        <ele>561</ele>
        <time>2022-05-01T11:05:47.413Z</time>
      </trkpt>
      <trkpt lat="45.77905" lon="5.8849">
        <ele>561</ele>
        <time>2022-05-01T11:05:48.413Z</time>
      </trkpt>
      <trkpt lat="45.77904" lon="5.88487">
        <ele>561</ele>
        <time>2022-05-01T11:05:49.413Z</time>
      </trkpt>
      <trkpt lat="45.77903" lon="5.88485">
        <ele>562</ele>
        <time>2022-05-01T11:05:50.412Z</time>
      </trkpt>
      <trkpt lat="45.77902" lon="5.88482">
        <ele>562</ele>
        <time>2022-05-01T11:05:51.412Z</time>
      </trkpt>
      <trkpt lat="45.77901" lon="5.88479">
        <ele>562</ele>
        <time>2022-05-01T11:05:52.413Z</time>
      </trkpt>
      <trkpt lat="45.779" lon="5.88476">
        <ele>563</ele>
        <time>2022-05-01T11:05:53.412Z</time>
      </trkpt>
      <trkpt lat="45.77899" lon="5.88474">
        <ele>563</ele>
        <time>2022-05-01T11:05:54.413Z</time>
      </trkpt>
      <trkpt lat="45.77897" lon="5.8847">
        <ele>564</ele>
        <time>2022-05-01T11:05:55.413Z</time>
      </trkpt>
      <trkpt lat="45.77897" lon="5.88468">
        <ele>565</ele>
        <time>2022-05-01T11:05:56.413Z</time>
      </trkpt>
      <trkpt lat="45.77896" lon="5.88465">
        <ele>565</ele>
        <time>2022-05-01T11:05:57.413Z</time>
      </trkpt>
      <trkpt lat="45.77895" lon="5.88462">
        <ele>566</ele>
        <time>2022-05-01T11:05:58.413Z</time>
      </trkpt>
      <trkpt lat="45.77893" lon="5.88459">
        <ele>566</ele>
        <time>2022-05-01T11:05:59.412Z</time>
      </trkpt>
      <trkpt lat="45.77893" lon="5.88456">
        <ele>565</ele>
        <time>2022-05-01T11:06:00.412Z</time>
      </trkpt>
      <trkpt lat="45.77892" lon="5.88453">
        <ele>566</ele>
        <time>2022-05-01T11:06:01.413Z</time>
      </trkpt>
      <trkpt lat="45.77891" lon="5.8845">
        <ele>566</ele>
        <time>2022-05-01T11:06:02.413Z</time>
      </trkpt>
      <trkpt lat="45.7789" lon="5.88448">
        <ele>565</ele>
        <time>2022-05-01T11:06:03.413Z</time>
      </trkpt>
      <trkpt lat="45.77888" lon="5.88445">
        <ele>565</ele>
        <time>2022-05-01T11:06:04.413Z</time>
      </trkpt>
      <trkpt lat="45.77887" lon="5.88442">
        <ele>565</ele>
        <time>2022-05-01T11:06:05.412Z</time>
      </trkpt>
      <trkpt lat="45.77886" lon="5.8844">
        <ele>565</ele>
        <time>2022-05-01T11:06:06.413Z</time>
      </trkpt>
      <trkpt lat="45.77885" lon="5.88437">
        <ele>565</ele>
        <time>2022-05-01T11:06:07.413Z</time>
      </trkpt>
      <trkpt lat="45.77884" lon="5.88434">
        <ele>565</ele>
        <time>2022-05-01T11:06:08.413Z</time>
      </trkpt>
      <trkpt lat="45.77883" lon="5.88431">
        <ele>565</ele>
        <time>2022-05-01T11:06:09.413Z</time>
      </trkpt>
      <trkpt lat="45.77882" lon="5.88428">
        <ele>565</ele>
        <time>2022-05-01T11:06:10.413Z</time>
      </trkpt>
      <trkpt lat="45.77881" lon="5.88426">
        <ele>564</ele>
        <time>2022-05-01T11:06:11.412Z</time>
      </trkpt>
      <trkpt lat="45.7788" lon="5.88423">
        <ele>564</ele>
        <time>2022-05-01T11:06:12.413Z</time>
      </trkpt>
      <trkpt lat="45.77879" lon="5.8842">
        <ele>563</ele>
        <time>2022-05-01T11:06:13.413Z</time>
      </trkpt>
      <trkpt lat="45.77878" lon="5.88417">
        <ele>563</ele>
        <time>2022-05-01T11:06:14.413Z</time>
      </trkpt>
      <trkpt lat="45.77877" lon="5.88414">
        <ele>563</ele>
        <time>2022-05-01T11:06:15.413Z</time>
      </trkpt>
      <trkpt lat="45.77876" lon="5.88411">
        <ele>562</ele>
        <time>2022-05-01T11:06:16.412Z</time>
      </trkpt>
      <trkpt lat="45.77875" lon="5.88409">
        <ele>563</ele>
        <time>2022-05-01T11:06:17.413Z</time>
      </trkpt>
      <trkpt lat="45.77873" lon="5.88406">
        <ele>563</ele>
        <time>2022-05-01T11:06:18.413Z</time>
      </trkpt>
      <trkpt lat="45.77872" lon="5.88404">
        <ele>563</ele>
        <time>2022-05-01T11:06:19.413Z</time>
      </trkpt>
      <trkpt lat="45.77871" lon="5.88401">
        <ele>564</ele>
        <time>2022-05-01T11:06:20.412Z</time>
      </trkpt>
      <trkpt lat="45.7787" lon="5.88398">
        <ele>564</ele>
        <time>2022-05-01T11:06:21.412Z</time>
      </trkpt>
      <trkpt lat="45.77869" lon="5.88396">
        <ele>565</ele>
        <time>2022-05-01T11:06:22.413Z</time>
      </trkpt>
      <trkpt lat="45.77868" lon="5.88393">
        <ele>565</ele>
        <time>2022-05-01T11:06:23.413Z</time>
      </trkpt>
      <trkpt lat="45.77867" lon="5.88391">
        <ele>565</ele>
        <time>2022-05-01T11:06:24.413Z</time>
      </trkpt>
      <trkpt lat="45.77867" lon="5.88388">
        <ele>566</ele>
        <time>2022-05-01T11:06:25.413Z</time>
      </trkpt>
      <trkpt lat="45.77866" lon="5.88385">
        <ele>566</ele>
        <time>2022-05-01T11:06:26.412Z</time>
      </trkpt>
      <trkpt lat="45.77866" lon="5.88383">
        <ele>566</ele>
        <time>2022-05-01T11:06:27.413Z</time>
      </trkpt>
      <trkpt lat="45.77865" lon="5.8838">
        <ele>566</ele>
        <time>2022-05-01T11:06:28.412Z</time>
      </trkpt>
      <trkpt lat="45.77865" lon="5.88377">
        <ele>566</ele>
        <time>2022-05-01T11:06:29.413Z</time>
      </trkpt>
      <trkpt lat="45.77865" lon="5.88374">
        <ele>566</ele>
        <time>2022-05-01T11:06:30.412Z</time>
      </trkpt>
      <trkpt lat="45.77865" lon="5.88372">
        <ele>566</ele>
        <time>2022-05-01T11:06:31.413Z</time>
      </trkpt>
      <trkpt lat="45.77865" lon="5.88369">
        <ele>566</ele>
        <time>2022-05-01T11:06:32.413Z</time>
      </trkpt>
      <trkpt lat="45.77865" lon="5.88367">
        <ele>566</ele>
        <time>2022-05-01T11:06:33.413Z</time>
      </trkpt>
      <trkpt lat="45.77866" lon="5.88364">
        <ele>567</ele>
        <time>2022-05-01T11:06:34.413Z</time>
      </trkpt>
      <trkpt lat="45.77866" lon="5.88361">
        <ele>567</ele>
        <time>2022-05-01T11:06:35.413Z</time>
      </trkpt>
      <trkpt lat="45.77866" lon="5.88359">
        <ele>567</ele>
        <time>2022-05-01T11:06:36.413Z</time>
      </trkpt>
      <trkpt lat="45.77866" lon="5.88356">
        <ele>568</ele>
        <time>2022-05-01T11:06:37.413Z</time>
      </trkpt>
      <trkpt lat="45.77866" lon="5.88353">
        <ele>568</ele>
        <time>2022-05-01T11:06:38.412Z</time>
      </trkpt>
      <trkpt lat="45.77867" lon="5.8835">
        <ele>568</ele>
        <time>2022-05-01T11:06:39.413Z</time>
      </trkpt>
      <trkpt lat="45.77867" lon="5.88347">
        <ele>568</ele>
        <time>2022-05-01T11:06:40.412Z</time>
      </trkpt>
      <trkpt lat="45.77868" lon="5.88344">
        <ele>568</ele>
        <time>2022-05-01T11:06:41.412Z</time>
      </trkpt>
      <trkpt lat="45.77868" lon="5.88341">
        <ele>569</ele>
        <time>2022-05-01T11:06:42.412Z</time>
      </trkpt>
      <trkpt lat="45.77869" lon="5.88338">
        <ele>569</ele>
        <time>2022-05-01T11:06:43.413Z</time>
      </trkpt>
      <trkpt lat="45.77869" lon="5.88335">
        <ele>570</ele>
        <time>2022-05-01T11:06:44.413Z</time>
      </trkpt>
      <trkpt lat="45.7787" lon="5.88332">
        <ele>570</ele>
        <time>2022-05-01T11:06:45.412Z</time>
      </trkpt>
      <trkpt lat="45.7787" lon="5.8833">
        <ele>570</ele>
        <time>2022-05-01T11:06:46.412Z</time>
      </trkpt>
      <trkpt lat="45.7787" lon="5.88327">
        <ele>570</ele>
        <time>2022-05-01T11:06:47.413Z</time>
      </trkpt>
      <trkpt lat="45.77871" lon="5.88324">
        <ele>570</ele>
        <time>2022-05-01T11:06:48.413Z</time>
      </trkpt>
      <trkpt lat="45.77871" lon="5.88321">
        <ele>569</ele>
        <time>2022-05-01T11:06:49.413Z</time>
      </trkpt>
      <trkpt lat="45.77871" lon="5.88318">
        <ele>569</ele>
        <time>2022-05-01T11:06:50.413Z</time>
      </trkpt>
      <trkpt lat="45.77871" lon="5.88316">
        <ele>569</ele>
        <time>2022-05-01T11:06:51.413Z</time>
      </trkpt>
      <trkpt lat="45.77871" lon="5.88313">
        <ele>569</ele>
        <time>2022-05-01T11:06:52.412Z</time>
      </trkpt>
      <trkpt lat="45.77871" lon="5.8831">
        <ele>570</ele>
        <time>2022-05-01T11:06:53.413Z</time>
      </trkpt>
      <trkpt lat="45.77871" lon="5.88308">
        <ele>570</ele>
        <time>2022-05-01T11:06:54.412Z</time>
      </trkpt>
      <trkpt lat="45.77871" lon="5.88305">
        <ele>571</ele>
        <time>2022-05-01T11:06:55.413Z</time>
      </trkpt>
      <trkpt lat="45.7787" lon="5.88302">
        <ele>572</ele>
        <time>2022-05-01T11:06:56.412Z</time>
      </trkpt>
      <trkpt lat="45.7787" lon="5.88299">
        <ele>573</ele>
        <time>2022-05-01T11:06:57.413Z</time>
      </trkpt>
      <trkpt lat="45.77869" lon="5.88296">
        <ele>573</ele>
        <time>2022-05-01T11:06:58.413Z</time>
      </trkpt>
      <trkpt lat="45.77868" lon="5.88293">
        <ele>573</ele>
        <time>2022-05-01T11:06:59.413Z</time>
      </trkpt>
      <trkpt lat="45.77867" lon="5.88291">
        <ele>573</ele>
        <time>2022-05-01T11:07:00.413Z</time>
      </trkpt>
      <trkpt lat="45.77867" lon="5.88288">
        <ele>573</ele>
        <time>2022-05-01T11:07:01.412Z</time>
      </trkpt>
      <trkpt lat="45.77866" lon="5.88286">
        <ele>573</ele>
        <time>2022-05-01T11:07:02.412Z</time>
      </trkpt>
      <trkpt lat="45.77865" lon="5.88283">
        <ele>573</ele>
        <time>2022-05-01T11:07:03.413Z</time>
      </trkpt>
      <trkpt lat="45.77865" lon="5.8828">
        <ele>573</ele>
        <time>2022-05-01T11:07:04.413Z</time>
      </trkpt>
      <trkpt lat="45.77864" lon="5.88278">
        <ele>573</ele>
        <time>2022-05-01T11:07:05.413Z</time>
      </trkpt>
      <trkpt lat="45.77863" lon="5.88275">
        <ele>573</ele>
        <time>2022-05-01T11:07:06.413Z</time>
      </trkpt>
      <trkpt lat="45.77863" lon="5.88272">
        <ele>573</ele>
        <time>2022-05-01T11:07:07.413Z</time>
      </trkpt>
      <trkpt lat="45.77862" lon="5.8827">
        <ele>573</ele>
        <time>2022-05-01T11:07:08.412Z</time>
      </trkpt>
      <trkpt lat="45.77861" lon="5.88267">
        <ele>574</ele>
        <time>2022-05-01T11:07:09.413Z</time>
      </trkpt>
      <trkpt lat="45.77861" lon="5.88264">
        <ele>574</ele>
        <time>2022-05-01T11:07:10.413Z</time>
      </trkpt>
      <trkpt lat="45.7786" lon="5.88262">
        <ele>575</ele>
        <time>2022-05-01T11:07:11.412Z</time>
      </trkpt>
      <trkpt lat="45.77859" lon="5.88259">
        <ele>575</ele>
        <time>2022-05-01T11:07:12.412Z</time>
      </trkpt>
      <trkpt lat="45.77859" lon="5.88256">
        <ele>575</ele>
        <time>2022-05-01T11:07:13.412Z</time>
      </trkpt>
      <trkpt lat="45.77858" lon="5.88253">
        <ele>574</ele>
        <time>2022-05-01T11:07:14.412Z</time>
      </trkpt>
      <trkpt lat="45.77858" lon="5.8825">
        <ele>574</ele>
        <time>2022-05-01T11:07:15.412Z</time>
      </trkpt>
      <trkpt lat="45.77857" lon="5.88247">
        <ele>573</ele>
        <time>2022-05-01T11:07:16.412Z</time>
      </trkpt>
      <trkpt lat="45.77857" lon="5.88244">
        <ele>573</ele>
        <time>2022-05-01T11:07:17.413Z</time>
      </trkpt>
      <trkpt lat="45.77856" lon="5.88241">
        <ele>573</ele>
        <time>2022-05-01T11:07:18.412Z</time>
      </trkpt>
      <trkpt lat="45.77856" lon="5.88238">
        <ele>573</ele>
        <time>2022-05-01T11:07:19.413Z</time>
      </trkpt>
      <trkpt lat="45.77855" lon="5.88236">
        <ele>574</ele>
        <time>2022-05-01T11:07:20.412Z</time>
      </trkpt>
      <trkpt lat="45.77855" lon="5.88233">
        <ele>574</ele>
        <time>2022-05-01T11:07:21.413Z</time>
      </trkpt>
      <trkpt lat="45.77855" lon="5.8823">
        <ele>575</ele>
        <time>2022-05-01T11:07:22.413Z</time>
      </trkpt>
      <trkpt lat="45.77854" lon="5.88227">
        <ele>575</ele>
        <time>2022-05-01T11:07:23.413Z</time>
      </trkpt>
      <trkpt lat="45.77854" lon="5.88224">
        <ele>575</ele>
        <time>2022-05-01T11:07:24.413Z</time>
      </trkpt>
      <trkpt lat="45.77854" lon="5.88221">
        <ele>574</ele>
        <time>2022-05-01T11:07:25.413Z</time>
      </trkpt>
      <trkpt lat="45.77853" lon="5.88218">
        <ele>575</ele>
        <time>2022-05-01T11:07:26.413Z</time>
      </trkpt>
      <trkpt lat="45.77853" lon="5.88215">
        <ele>575</ele>
        <time>2022-05-01T11:07:27.413Z</time>
      </trkpt>
      <trkpt lat="45.77853" lon="5.88211">
        <ele>576</ele>
        <time>2022-05-01T11:07:28.413Z</time>
      </trkpt>
      <trkpt lat="45.77852" lon="5.88208">
        <ele>577</ele>
        <time>2022-05-01T11:07:29.413Z</time>
      </trkpt>
      <trkpt lat="45.77852" lon="5.88205">
        <ele>577</ele>
        <time>2022-05-01T11:07:30.413Z</time>
      </trkpt>
      <trkpt lat="45.77851" lon="5.88202">
        <ele>578</ele>
        <time>2022-05-01T11:07:31.413Z</time>
      </trkpt>
      <trkpt lat="45.77851" lon="5.88199">
        <ele>579</ele>
        <time>2022-05-01T11:07:32.413Z</time>
      </trkpt>
      <trkpt lat="45.7785" lon="5.88195">
        <ele>580</ele>
        <time>2022-05-01T11:07:33.413Z</time>
      </trkpt>
      <trkpt lat="45.7785" lon="5.88193">
        <ele>580</ele>
        <time>2022-05-01T11:07:34.413Z</time>
      </trkpt>
      <trkpt lat="45.77849" lon="5.88189">
        <ele>580</ele>
        <time>2022-05-01T11:07:35.412Z</time>
      </trkpt>
      <trkpt lat="45.77849" lon="5.88186">
        <ele>580</ele>
        <time>2022-05-01T11:07:36.412Z</time>
      </trkpt>
      <trkpt lat="45.77848" lon="5.88182">
        <ele>580</ele>
        <time>2022-05-01T11:07:37.412Z</time>
      </trkpt>
      <trkpt lat="45.77848" lon="5.88179">
        <ele>580</ele>
        <time>2022-05-01T11:07:38.413Z</time>
      </trkpt>
      <trkpt lat="45.77847" lon="5.88176">
        <ele>581</ele>
        <time>2022-05-01T11:07:39.412Z</time>
      </trkpt>
      <trkpt lat="45.77847" lon="5.88172">
        <ele>581</ele>
        <time>2022-05-01T11:07:40.413Z</time>
      </trkpt>
      <trkpt lat="45.77846" lon="5.88168">
        <ele>581</ele>
        <time>2022-05-01T11:07:41.413Z</time>
      </trkpt>
      <trkpt lat="45.77845" lon="5.88165">
        <ele>582</ele>
        <time>2022-05-01T11:07:42.413Z</time>
      </trkpt>
      <trkpt lat="45.77845" lon="5.88161">
        <ele>582</ele>
        <time>2022-05-01T11:07:43.412Z</time>
      </trkpt>
      <trkpt lat="45.77844" lon="5.88157">
        <ele>582</ele>
        <time>2022-05-01T11:07:44.412Z</time>
      </trkpt>
      <trkpt lat="45.77844" lon="5.88154">
        <ele>583</ele>
        <time>2022-05-01T11:07:45.413Z</time>
      </trkpt>
      <trkpt lat="45.77843" lon="5.8815">
        <ele>584</ele>
        <time>2022-05-01T11:07:46.412Z</time>
      </trkpt>
      <trkpt lat="45.77842" lon="5.88146">
        <ele>585</ele>
        <time>2022-05-01T11:07:47.413Z</time>
      </trkpt>
      <trkpt lat="45.77842" lon="5.88143">
        <ele>586</ele>
        <time>2022-05-01T11:07:48.413Z</time>
      </trkpt>
      <trkpt lat="45.77842" lon="5.8814">
        <ele>586</ele>
        <time>2022-05-01T11:07:49.412Z</time>
      </trkpt>
      <trkpt lat="45.77841" lon="5.88136">
        <ele>587</ele>
        <time>2022-05-01T11:07:50.413Z</time>
      </trkpt>
      <trkpt lat="45.77841" lon="5.88132">
        <ele>587</ele>
        <time>2022-05-01T11:07:51.412Z</time>
      </trkpt>
      <trkpt lat="45.77841" lon="5.88129">
        <ele>588</ele>
        <time>2022-05-01T11:07:52.412Z</time>
      </trkpt>
      <trkpt lat="45.7784" lon="5.88126">
        <ele>588</ele>
        <time>2022-05-01T11:07:53.413Z</time>
      </trkpt>
      <trkpt lat="45.7784" lon="5.88122">
        <ele>588</ele>
        <time>2022-05-01T11:07:54.413Z</time>
      </trkpt>
      <trkpt lat="45.7784" lon="5.88119">
        <ele>589</ele>
        <time>2022-05-01T11:07:55.413Z</time>
      </trkpt>
      <trkpt lat="45.77839" lon="5.88115">
        <ele>589</ele>
        <time>2022-05-01T11:07:56.412Z</time>
      </trkpt>
      <trkpt lat="45.77839" lon="5.88112">
        <ele>589</ele>
        <time>2022-05-01T11:07:57.413Z</time>
      </trkpt>
      <trkpt lat="45.77838" lon="5.88109">
        <ele>590</ele>
        <time>2022-05-01T11:07:58.413Z</time>
      </trkpt>
      <trkpt lat="45.77838" lon="5.88105">
        <ele>591</ele>
        <time>2022-05-01T11:07:59.413Z</time>
      </trkpt>
      <trkpt lat="45.77838" lon="5.88102">
        <ele>591</ele>
        <time>2022-05-01T11:08:00.412Z</time>
      </trkpt>
      <trkpt lat="45.77838" lon="5.88098">
        <ele>592</ele>
        <time>2022-05-01T11:08:01.412Z</time>
      </trkpt>
      <trkpt lat="45.77837" lon="5.88095">
        <ele>593</ele>
        <time>2022-05-01T11:08:02.413Z</time>
      </trkpt>
      <trkpt lat="45.77836" lon="5.88092">
        <ele>594</ele>
        <time>2022-05-01T11:08:03.413Z</time>
      </trkpt>
      <trkpt lat="45.77836" lon="5.88088">
        <ele>595</ele>
        <time>2022-05-01T11:08:04.412Z</time>
      </trkpt>
      <trkpt lat="45.77836" lon="5.88084">
        <ele>596</ele>
        <time>2022-05-01T11:08:05.412Z</time>
      </trkpt>
      <trkpt lat="45.77835" lon="5.88081">
        <ele>596</ele>
        <time>2022-05-01T11:08:06.412Z</time>
      </trkpt>
      <trkpt lat="45.77835" lon="5.88078">
        <ele>597</ele>
        <time>2022-05-01T11:08:07.413Z</time>
      </trkpt>
      <trkpt lat="45.77834" lon="5.88074">
        <ele>597</ele>
        <time>2022-05-01T11:08:08.413Z</time>
      </trkpt>
      <trkpt lat="45.77833" lon="5.88071">
        <ele>598</ele>
        <time>2022-05-01T11:08:09.413Z</time>
      </trkpt>
      <trkpt lat="45.77832" lon="5.88067">
        <ele>598</ele>
        <time>2022-05-01T11:08:10.413Z</time>
      </trkpt>
      <trkpt lat="45.77832" lon="5.88063">
        <ele>599</ele>
        <time>2022-05-01T11:08:11.413Z</time>
      </trkpt>
      <trkpt lat="45.77831" lon="5.88059">
        <ele>599</ele>
        <time>2022-05-01T11:08:12.413Z</time>
      </trkpt>
      <trkpt lat="45.77831" lon="5.88056">
        <ele>599</ele>
        <time>2022-05-01T11:08:13.413Z</time>
      </trkpt>
      <trkpt lat="45.77831" lon="5.88052">
        <ele>599</ele>
        <time>2022-05-01T11:08:14.413Z</time>
      </trkpt>
      <trkpt lat="45.77831" lon="5.88047">
        <ele>599</ele>
        <time>2022-05-01T11:08:15.413Z</time>
      </trkpt>
      <trkpt lat="45.7783" lon="5.88043">
        <ele>599</ele>
        <time>2022-05-01T11:08:16.413Z</time>
      </trkpt>
      <trkpt lat="45.7783" lon="5.8804">
        <ele>599</ele>
        <time>2022-05-01T11:08:17.412Z</time>
      </trkpt>
      <trkpt lat="45.77829" lon="5.88036">
        <ele>599</ele>
        <time>2022-05-01T11:08:18.413Z</time>
      </trkpt>
      <trkpt lat="45.77829" lon="5.88033">
        <ele>599</ele>
        <time>2022-05-01T11:08:19.413Z</time>
      </trkpt>
      <trkpt lat="45.77828" lon="5.8803">
        <ele>599</ele>
        <time>2022-05-01T11:08:20.413Z</time>
      </trkpt>
      <trkpt lat="45.77828" lon="5.88026">
        <ele>599</ele>
        <time>2022-05-01T11:08:21.413Z</time>
      </trkpt>
      <trkpt lat="45.77828" lon="5.88023">
        <ele>599</ele>
        <time>2022-05-01T11:08:22.412Z</time>
      </trkpt>
      <trkpt lat="45.77828" lon="5.88019">
        <ele>598</ele>
        <time>2022-05-01T11:08:23.413Z</time>
      </trkpt>
      <trkpt lat="45.77827" lon="5.88015">
        <ele>598</ele>
        <time>2022-05-01T11:08:24.413Z</time>
      </trkpt>
      <trkpt lat="45.77827" lon="5.88012">
        <ele>597</ele>
        <time>2022-05-01T11:08:25.412Z</time>
      </trkpt>
      <trkpt lat="45.77827" lon="5.88008">
        <ele>597</ele>
        <time>2022-05-01T11:08:26.412Z</time>
      </trkpt>
      <trkpt lat="45.77826" lon="5.88004">
        <ele>596</ele>
        <time>2022-05-01T11:08:27.413Z</time>
      </trkpt>
      <trkpt lat="45.77826" lon="5.88">
        <ele>595</ele>
        <time>2022-05-01T11:08:28.413Z</time>
      </trkpt>
      <trkpt lat="45.77826" lon="5.87996">
        <ele>595</ele>
        <time>2022-05-01T11:08:29.413Z</time>
      </trkpt>
      <trkpt lat="45.77826" lon="5.87992">
        <ele>594</ele>
        <time>2022-05-01T11:08:30.412Z</time>
      </trkpt>
      <trkpt lat="45.77827" lon="5.87989">
        <ele>593</ele>
        <time>2022-05-01T11:08:31.413Z</time>
      </trkpt>
      <trkpt lat="45.77827" lon="5.87985">
        <ele>593</ele>
        <time>2022-05-01T11:08:32.412Z</time>
      </trkpt>
      <trkpt lat="45.77828" lon="5.87982">
        <ele>592</ele>
        <time>2022-05-01T11:08:33.413Z</time>
      </trkpt>
      <trkpt lat="45.77828" lon="5.87979">
        <ele>592</ele>
        <time>2022-05-01T11:08:34.412Z</time>
      </trkpt>
      <trkpt lat="45.77828" lon="5.87976">
        <ele>591</ele>
        <time>2022-05-01T11:08:35.412Z</time>
      </trkpt>
      <trkpt lat="45.77829" lon="5.87973">
        <ele>590</ele>
        <time>2022-05-01T11:08:36.413Z</time>
      </trkpt>
      <trkpt lat="45.77829" lon="5.8797">
        <ele>590</ele>
        <time>2022-05-01T11:08:37.412Z</time>
      </trkpt>
      <trkpt lat="45.77829" lon="5.87967">
        <ele>589</ele>
        <time>2022-05-01T11:08:38.413Z</time>
      </trkpt>
      <trkpt lat="45.77829" lon="5.87964">
        <ele>589</ele>
        <time>2022-05-01T11:08:39.412Z</time>
      </trkpt>
      <trkpt lat="45.7783" lon="5.87961">
        <ele>588</ele>
        <time>2022-05-01T11:08:40.413Z</time>
      </trkpt>
      <trkpt lat="45.7783" lon="5.87957">
        <ele>588</ele>
        <time>2022-05-01T11:08:41.412Z</time>
      </trkpt>
      <trkpt lat="45.77831" lon="5.87955">
        <ele>587</ele>
        <time>2022-05-01T11:08:42.413Z</time>
      </trkpt>
      <trkpt lat="45.77831" lon="5.87952">
        <ele>587</ele>
        <time>2022-05-01T11:08:43.413Z</time>
      </trkpt>
      <trkpt lat="45.77832" lon="5.87949">
        <ele>586</ele>
        <time>2022-05-01T11:08:44.413Z</time>
      </trkpt>
      <trkpt lat="45.77832" lon="5.87946">
        <ele>586</ele>
        <time>2022-05-01T11:08:45.413Z</time>
      </trkpt>
      <trkpt lat="45.77833" lon="5.87943">
        <ele>585</ele>
        <time>2022-05-01T11:08:46.412Z</time>
      </trkpt>
      <trkpt lat="45.77834" lon="5.8794">
        <ele>585</ele>
        <time>2022-05-01T11:08:47.413Z</time>
      </trkpt>
      <trkpt lat="45.77835" lon="5.87937">
        <ele>585</ele>
        <time>2022-05-01T11:08:48.412Z</time>
      </trkpt>
      <trkpt lat="45.77835" lon="5.87934">
        <ele>584</ele>
        <time>2022-05-01T11:08:49.413Z</time>
      </trkpt>
      <trkpt lat="45.77835" lon="5.87931">
        <ele>583</ele>
        <time>2022-05-01T11:08:50.413Z</time>
      </trkpt>
      <trkpt lat="45.77835" lon="5.87928">
        <ele>583</ele>
        <time>2022-05-01T11:08:51.412Z</time>
      </trkpt>
      <trkpt lat="45.77835" lon="5.87925">
        <ele>583</ele>
        <time>2022-05-01T11:08:52.413Z</time>
      </trkpt>
      <trkpt lat="45.77836" lon="5.87923">
        <ele>583</ele>
        <time>2022-05-01T11:08:53.413Z</time>
      </trkpt>
      <trkpt lat="45.77837" lon="5.8792">
        <ele>583</ele>
        <time>2022-05-01T11:08:54.413Z</time>
      </trkpt>
      <trkpt lat="45.77837" lon="5.87917">
        <ele>583</ele>
        <time>2022-05-01T11:08:55.413Z</time>
      </trkpt>
      <trkpt lat="45.77838" lon="5.87915">
        <ele>582</ele>
        <time>2022-05-01T11:08:56.412Z</time>
      </trkpt>
      <trkpt lat="45.77838" lon="5.87912">
        <ele>582</ele>
        <time>2022-05-01T11:08:57.413Z</time>
      </trkpt>
      <trkpt lat="45.77839" lon="5.87909">
        <ele>582</ele>
        <time>2022-05-01T11:08:58.413Z</time>
      </trkpt>
      <trkpt lat="45.7784" lon="5.87907">
        <ele>581</ele>
        <time>2022-05-01T11:08:59.413Z</time>
      </trkpt>
      <trkpt lat="45.7784" lon="5.87904">
        <ele>581</ele>
        <time>2022-05-01T11:09:00.412Z</time>
      </trkpt>
      <trkpt lat="45.77841" lon="5.87901">
        <ele>581</ele>
        <time>2022-05-01T11:09:01.413Z</time>
      </trkpt>
      <trkpt lat="45.77843" lon="5.87898">
        <ele>582</ele>
        <time>2022-05-01T11:09:02.413Z</time>
      </trkpt>
      <trkpt lat="45.77844" lon="5.87895">
        <ele>582</ele>
        <time>2022-05-01T11:09:03.413Z</time>
      </trkpt>
      <trkpt lat="45.77846" lon="5.87892">
        <ele>582</ele>
        <time>2022-05-01T11:09:04.412Z</time>
      </trkpt>
      <trkpt lat="45.77847" lon="5.87889">
        <ele>583</ele>
        <time>2022-05-01T11:09:05.413Z</time>
      </trkpt>
      <trkpt lat="45.77849" lon="5.87886">
        <ele>583</ele>
        <time>2022-05-01T11:09:06.413Z</time>
      </trkpt>
      <trkpt lat="45.7785" lon="5.87883">
        <ele>584</ele>
        <time>2022-05-01T11:09:07.413Z</time>
      </trkpt>
      <trkpt lat="45.77851" lon="5.8788">
        <ele>585</ele>
        <time>2022-05-01T11:09:08.412Z</time>
      </trkpt>
      <trkpt lat="45.77852" lon="5.87877">
        <ele>585</ele>
        <time>2022-05-01T11:09:09.413Z</time>
      </trkpt>
      <trkpt lat="45.77853" lon="5.87875">
        <ele>586</ele>
        <time>2022-05-01T11:09:10.413Z</time>
      </trkpt>
      <trkpt lat="45.77855" lon="5.87873">
        <ele>585</ele>
        <time>2022-05-01T11:09:11.413Z</time>
      </trkpt>
      <trkpt lat="45.77856" lon="5.87871">
        <ele>585</ele>
        <time>2022-05-01T11:09:12.413Z</time>
      </trkpt>
      <trkpt lat="45.77857" lon="5.87869">
        <ele>586</ele>
        <time>2022-05-01T11:09:13.413Z</time>
      </trkpt>
      <trkpt lat="45.77858" lon="5.87867">
        <ele>586</ele>
        <time>2022-05-01T11:09:14.413Z</time>
      </trkpt>
      <trkpt lat="45.7786" lon="5.87865">
        <ele>586</ele>
        <time>2022-05-01T11:09:15.413Z</time>
      </trkpt>
      <trkpt lat="45.77861" lon="5.87862">
        <ele>586</ele>
        <time>2022-05-01T11:09:16.413Z</time>
      </trkpt>
      <trkpt lat="45.77862" lon="5.8786">
        <ele>586</ele>
        <time>2022-05-01T11:09:17.413Z</time>
      </trkpt>
      <trkpt lat="45.77862" lon="5.87857">
        <ele>586</ele>
        <time>2022-05-01T11:09:18.412Z</time>
      </trkpt>
      <trkpt lat="45.77863" lon="5.87855">
        <ele>586</ele>
        <time>2022-05-01T11:09:19.412Z</time>
      </trkpt>
      <trkpt lat="45.77864" lon="5.87852">
        <ele>586</ele>
        <time>2022-05-01T11:09:20.412Z</time>
      </trkpt>
      <trkpt lat="45.77865" lon="5.8785">
        <ele>586</ele>
        <time>2022-05-01T11:09:21.413Z</time>
      </trkpt>
      <trkpt lat="45.77867" lon="5.87849">
        <ele>587</ele>
        <time>2022-05-01T11:09:22.413Z</time>
      </trkpt>
      <trkpt lat="45.77869" lon="5.87847">
        <ele>587</ele>
        <time>2022-05-01T11:09:23.413Z</time>
      </trkpt>
      <trkpt lat="45.77869" lon="5.87844">
        <ele>587</ele>
        <time>2022-05-01T11:09:24.413Z</time>
      </trkpt>
      <trkpt lat="45.7787" lon="5.87842">
        <ele>587</ele>
        <time>2022-05-01T11:09:25.413Z</time>
      </trkpt>
      <trkpt lat="45.77871" lon="5.87838">
        <ele>587</ele>
        <time>2022-05-01T11:09:26.412Z</time>
      </trkpt>
      <trkpt lat="45.77871" lon="5.87836">
        <ele>588</ele>
        <time>2022-05-01T11:09:27.413Z</time>
      </trkpt>
      <trkpt lat="45.77873" lon="5.87833">
        <ele>588</ele>
        <time>2022-05-01T11:09:28.413Z</time>
      </trkpt>
      <trkpt lat="45.77874" lon="5.87831">
        <ele>589</ele>
        <time>2022-05-01T11:09:29.413Z</time>
      </trkpt>
      <trkpt lat="45.77876" lon="5.8783">
        <ele>589</ele>
        <time>2022-05-01T11:09:30.413Z</time>
      </trkpt>
      <trkpt lat="45.77877" lon="5.87828">
        <ele>589</ele>
        <time>2022-05-01T11:09:31.413Z</time>
      </trkpt>
      <trkpt lat="45.77879" lon="5.87826">
        <ele>589</ele>
        <time>2022-05-01T11:09:32.413Z</time>
      </trkpt>
      <trkpt lat="45.7788" lon="5.87824">
        <ele>589</ele>
        <time>2022-05-01T11:09:33.413Z</time>
      </trkpt>
      <trkpt lat="45.77882" lon="5.87822">
        <ele>589</ele>
        <time>2022-05-01T11:09:34.412Z</time>
      </trkpt>
      <trkpt lat="45.77883" lon="5.8782">
        <ele>589</ele>
        <time>2022-05-01T11:09:35.413Z</time>
      </trkpt>
      <trkpt lat="45.77885" lon="5.87818">
        <ele>589</ele>
        <time>2022-05-01T11:09:36.413Z</time>
      </trkpt>
      <trkpt lat="45.77886" lon="5.87817">
        <ele>589</ele>
        <time>2022-05-01T11:09:37.412Z</time>
      </trkpt>
      <trkpt lat="45.77887" lon="5.87815">
        <ele>589</ele>
        <time>2022-05-01T11:09:38.413Z</time>
      </trkpt>
      <trkpt lat="45.77889" lon="5.87813">
        <ele>590</ele>
        <time>2022-05-01T11:09:39.413Z</time>
      </trkpt>
      <trkpt lat="45.7789" lon="5.87812">
        <ele>590</ele>
        <time>2022-05-01T11:09:40.413Z</time>
      </trkpt>
      <trkpt lat="45.77892" lon="5.8781">
        <ele>590</ele>
        <time>2022-05-01T11:09:41.413Z</time>
      </trkpt>
      <trkpt lat="45.77894" lon="5.87809">
        <ele>590</ele>
        <time>2022-05-01T11:09:42.413Z</time>
      </trkpt>
      <trkpt lat="45.77896" lon="5.87807">
        <ele>589</ele>
        <time>2022-05-01T11:09:43.413Z</time>
      </trkpt>
      <trkpt lat="45.77898" lon="5.87806">
        <ele>590</ele>
        <time>2022-05-01T11:09:44.413Z</time>
      </trkpt>
      <trkpt lat="45.77899" lon="5.87805">
        <ele>589</ele>
        <time>2022-05-01T11:09:45.413Z</time>
      </trkpt>
      <trkpt lat="45.77901" lon="5.87803">
        <ele>590</ele>
        <time>2022-05-01T11:09:46.413Z</time>
      </trkpt>
      <trkpt lat="45.77903" lon="5.87802">
        <ele>590</ele>
        <time>2022-05-01T11:09:47.412Z</time>
      </trkpt>
      <trkpt lat="45.77905" lon="5.87801">
        <ele>590</ele>
        <time>2022-05-01T11:09:48.413Z</time>
      </trkpt>
      <trkpt lat="45.77906" lon="5.878">
        <ele>590</ele>
        <time>2022-05-01T11:09:49.413Z</time>
      </trkpt>
      <trkpt lat="45.77908" lon="5.87798">
        <ele>590</ele>
        <time>2022-05-01T11:09:50.412Z</time>
      </trkpt>
      <trkpt lat="45.7791" lon="5.87797">
        <ele>589</ele>
        <time>2022-05-01T11:09:51.413Z</time>
      </trkpt>
      <trkpt lat="45.77912" lon="5.87796">
        <ele>590</ele>
        <time>2022-05-01T11:09:52.413Z</time>
      </trkpt>
      <trkpt lat="45.77913" lon="5.87795">
        <ele>590</ele>
        <time>2022-05-01T11:09:53.413Z</time>
      </trkpt>
      <trkpt lat="45.77915" lon="5.87793">
        <ele>590</ele>
        <time>2022-05-01T11:09:54.413Z</time>
      </trkpt>
      <trkpt lat="45.77917" lon="5.87792">
        <ele>591</ele>
        <time>2022-05-01T11:09:55.413Z</time>
      </trkpt>
      <trkpt lat="45.77919" lon="5.87791">
        <ele>591</ele>
        <time>2022-05-01T11:09:56.412Z</time>
      </trkpt>
      <trkpt lat="45.77921" lon="5.87789">
        <ele>592</ele>
        <time>2022-05-01T11:09:57.413Z</time>
      </trkpt>
      <trkpt lat="45.77923" lon="5.87788">
        <ele>594</ele>
        <time>2022-05-01T11:09:58.413Z</time>
      </trkpt>
      <trkpt lat="45.77925" lon="5.87787">
        <ele>594</ele>
        <time>2022-05-01T11:09:59.413Z</time>
      </trkpt>
      <trkpt lat="45.77926" lon="5.87786">
        <ele>595</ele>
        <time>2022-05-01T11:10:00.413Z</time>
      </trkpt>
      <trkpt lat="45.77928" lon="5.87784">
        <ele>595</ele>
        <time>2022-05-01T11:10:01.413Z</time>
      </trkpt>
      <trkpt lat="45.77929" lon="5.87782">
        <ele>596</ele>
        <time>2022-05-01T11:10:02.413Z</time>
      </trkpt>
      <trkpt lat="45.77931" lon="5.87781">
        <ele>596</ele>
        <time>2022-05-01T11:10:03.412Z</time>
      </trkpt>
      <trkpt lat="45.77932" lon="5.87779">
        <ele>596</ele>
        <time>2022-05-01T11:10:04.413Z</time>
      </trkpt>
      <trkpt lat="45.77934" lon="5.87777">
        <ele>596</ele>
        <time>2022-05-01T11:10:05.412Z</time>
      </trkpt>
      <trkpt lat="45.77935" lon="5.87774">
        <ele>596</ele>
        <time>2022-05-01T11:10:06.413Z</time>
      </trkpt>
      <trkpt lat="45.77936" lon="5.87773">
        <ele>596</ele>
        <time>2022-05-01T11:10:07.413Z</time>
      </trkpt>
      <trkpt lat="45.77937" lon="5.8777">
        <ele>597</ele>
        <time>2022-05-01T11:10:08.412Z</time>
      </trkpt>
      <trkpt lat="45.77938" lon="5.87768">
        <ele>598</ele>
        <time>2022-05-01T11:10:09.413Z</time>
      </trkpt>
      <trkpt lat="45.7794" lon="5.87765">
        <ele>599</ele>
        <time>2022-05-01T11:10:10.412Z</time>
      </trkpt>
      <trkpt lat="45.77941" lon="5.87763">
        <ele>600</ele>
        <time>2022-05-01T11:10:11.413Z</time>
      </trkpt>
      <trkpt lat="45.77942" lon="5.87761">
        <ele>600</ele>
        <time>2022-05-01T11:10:12.413Z</time>
      </trkpt>
      <trkpt lat="45.77943" lon="5.87759">
        <ele>601</ele>
        <time>2022-05-01T11:10:13.412Z</time>
      </trkpt>
      <trkpt lat="45.77944" lon="5.87757">
        <ele>602</ele>
        <time>2022-05-01T11:10:14.413Z</time>
      </trkpt>
      <trkpt lat="45.77945" lon="5.87754">
        <ele>602</ele>
        <time>2022-05-01T11:10:15.413Z</time>
      </trkpt>
      <trkpt lat="45.77945" lon="5.87752">
        <ele>602</ele>
        <time>2022-05-01T11:10:16.413Z</time>
      </trkpt>
      <trkpt lat="45.77946" lon="5.87749">
        <ele>602</ele>
        <time>2022-05-01T11:10:17.413Z</time>
      </trkpt>
      <trkpt lat="45.77946" lon="5.87747">
        <ele>602</ele>
        <time>2022-05-01T11:10:18.413Z</time>
      </trkpt>
      <trkpt lat="45.77946" lon="5.87744">
        <ele>602</ele>
        <time>2022-05-01T11:10:19.413Z</time>
      </trkpt>
      <trkpt lat="45.77947" lon="5.87741">
        <ele>602</ele>
        <time>2022-05-01T11:10:20.413Z</time>
      </trkpt>
      <trkpt lat="45.77947" lon="5.87739">
        <ele>603</ele>
        <time>2022-05-01T11:10:21.412Z</time>
      </trkpt>
      <trkpt lat="45.77947" lon="5.87736">
        <ele>603</ele>
        <time>2022-05-01T11:10:22.413Z</time>
      </trkpt>
      <trkpt lat="45.77947" lon="5.87733">
        <ele>604</ele>
        <time>2022-05-01T11:10:23.413Z</time>
      </trkpt>
      <trkpt lat="45.77947" lon="5.87731">
        <ele>604</ele>
        <time>2022-05-01T11:10:24.413Z</time>
      </trkpt>
      <trkpt lat="45.77948" lon="5.87728">
        <ele>605</ele>
        <time>2022-05-01T11:10:25.413Z</time>
      </trkpt>
      <trkpt lat="45.77948" lon="5.87725">
        <ele>606</ele>
        <time>2022-05-01T11:10:26.413Z</time>
      </trkpt>
      <trkpt lat="45.77948" lon="5.87722">
        <ele>606</ele>
        <time>2022-05-01T11:10:27.413Z</time>
      </trkpt>
      <trkpt lat="45.77948" lon="5.87719">
        <ele>607</ele>
        <time>2022-05-01T11:10:28.413Z</time>
      </trkpt>
      <trkpt lat="45.77948" lon="5.87717">
        <ele>608</ele>
        <time>2022-05-01T11:10:29.413Z</time>
      </trkpt>
      <trkpt lat="45.77947" lon="5.87714">
        <ele>608</ele>
        <time>2022-05-01T11:10:30.412Z</time>
      </trkpt>
      <trkpt lat="45.77947" lon="5.87711">
        <ele>609</ele>
        <time>2022-05-01T11:10:31.413Z</time>
      </trkpt>
      <trkpt lat="45.77947" lon="5.87709">
        <ele>609</ele>
        <time>2022-05-01T11:10:32.413Z</time>
      </trkpt>
      <trkpt lat="45.77947" lon="5.87706">
        <ele>610</ele>
        <time>2022-05-01T11:10:33.413Z</time>
      </trkpt>
      <trkpt lat="45.77947" lon="5.87703">
        <ele>610</ele>
        <time>2022-05-01T11:10:34.413Z</time>
      </trkpt>
      <trkpt lat="45.77947" lon="5.877">
        <ele>610</ele>
        <time>2022-05-01T11:10:35.413Z</time>
      </trkpt>
      <trkpt lat="45.77948" lon="5.87697">
        <ele>610</ele>
        <time>2022-05-01T11:10:36.413Z</time>
      </trkpt>
      <trkpt lat="45.77948" lon="5.87694">
        <ele>610</ele>
        <time>2022-05-01T11:10:37.413Z</time>
      </trkpt>
      <trkpt lat="45.77948" lon="5.87692">
        <ele>610</ele>
        <time>2022-05-01T11:10:38.413Z</time>
      </trkpt>
      <trkpt lat="45.77948" lon="5.87689">
        <ele>610</ele>
        <time>2022-05-01T11:10:39.413Z</time>
      </trkpt>
      <trkpt lat="45.77948" lon="5.87686">
        <ele>610</ele>
        <time>2022-05-01T11:10:40.413Z</time>
      </trkpt>
      <trkpt lat="45.77949" lon="5.87683">
        <ele>610</ele>
        <time>2022-05-01T11:10:41.413Z</time>
      </trkpt>
      <trkpt lat="45.77949" lon="5.8768">
        <ele>610</ele>
        <time>2022-05-01T11:10:42.413Z</time>
      </trkpt>
      <trkpt lat="45.77949" lon="5.87677">
        <ele>610</ele>
        <time>2022-05-01T11:10:43.413Z</time>
      </trkpt>
      <trkpt lat="45.77949" lon="5.87674">
        <ele>610</ele>
        <time>2022-05-01T11:10:44.413Z</time>
      </trkpt>
      <trkpt lat="45.77949" lon="5.87672">
        <ele>611</ele>
        <time>2022-05-01T11:10:45.413Z</time>
      </trkpt>
      <trkpt lat="45.77949" lon="5.87669">
        <ele>611</ele>
        <time>2022-05-01T11:10:46.413Z</time>
      </trkpt>
      <trkpt lat="45.77949" lon="5.87666">
        <ele>611</ele>
        <time>2022-05-01T11:10:47.413Z</time>
      </trkpt>
      <trkpt lat="45.77949" lon="5.87663">
        <ele>611</ele>
        <time>2022-05-01T11:10:48.413Z</time>
      </trkpt>
      <trkpt lat="45.77949" lon="5.8766">
        <ele>611</ele>
        <time>2022-05-01T11:10:49.412Z</time>
      </trkpt>
      <trkpt lat="45.77949" lon="5.87657">
        <ele>611</ele>
        <time>2022-05-01T11:10:50.413Z</time>
      </trkpt>
      <trkpt lat="45.77949" lon="5.87655">
        <ele>611</ele>
        <time>2022-05-01T11:10:51.413Z</time>
      </trkpt>
      <trkpt lat="45.77949" lon="5.87652">
        <ele>610</ele>
        <time>2022-05-01T11:10:52.412Z</time>
      </trkpt>
      <trkpt lat="45.7795" lon="5.87649">
        <ele>610</ele>
        <time>2022-05-01T11:10:53.413Z</time>
      </trkpt>
      <trkpt lat="45.7795" lon="5.87647">
        <ele>609</ele>
        <time>2022-05-01T11:10:54.412Z</time>
      </trkpt>
      <trkpt lat="45.7795" lon="5.87644">
        <ele>609</ele>
        <time>2022-05-01T11:10:55.413Z</time>
      </trkpt>
      <trkpt lat="45.7795" lon="5.87641">
        <ele>609</ele>
        <time>2022-05-01T11:10:56.413Z</time>
      </trkpt>
      <trkpt lat="45.77951" lon="5.87638">
        <ele>609</ele>
        <time>2022-05-01T11:10:57.413Z</time>
      </trkpt>
      <trkpt lat="45.77951" lon="5.87636">
        <ele>609</ele>
        <time>2022-05-01T11:10:58.413Z</time>
      </trkpt>
      <trkpt lat="45.77951" lon="5.87633">
        <ele>610</ele>
        <time>2022-05-01T11:10:59.413Z</time>
      </trkpt>
      <trkpt lat="45.77952" lon="5.87631">
        <ele>610</ele>
        <time>2022-05-01T11:11:00.413Z</time>
      </trkpt>
      <trkpt lat="45.77952" lon="5.87628">
        <ele>610</ele>
        <time>2022-05-01T11:11:01.413Z</time>
      </trkpt>
      <trkpt lat="45.77953" lon="5.87626">
        <ele>609</ele>
        <time>2022-05-01T11:11:02.413Z</time>
      </trkpt>
      <trkpt lat="45.77953" lon="5.87623">
        <ele>609</ele>
        <time>2022-05-01T11:11:03.413Z</time>
      </trkpt>
      <trkpt lat="45.77954" lon="5.8762">
        <ele>609</ele>
        <time>2022-05-01T11:11:04.413Z</time>
      </trkpt>
      <trkpt lat="45.77955" lon="5.87618">
        <ele>609</ele>
        <time>2022-05-01T11:11:05.413Z</time>
      </trkpt>
      <trkpt lat="45.77956" lon="5.87615">
        <ele>609</ele>
        <time>2022-05-01T11:11:06.413Z</time>
      </trkpt>
      <trkpt lat="45.77957" lon="5.87613">
        <ele>608</ele>
        <time>2022-05-01T11:11:07.413Z</time>
      </trkpt>
      <trkpt lat="45.77958" lon="5.8761">
        <ele>608</ele>
        <time>2022-05-01T11:11:08.412Z</time>
      </trkpt>
      <trkpt lat="45.77959" lon="5.87608">
        <ele>609</ele>
        <time>2022-05-01T11:11:09.413Z</time>
      </trkpt>
      <trkpt lat="45.7796" lon="5.87605">
        <ele>609</ele>
        <time>2022-05-01T11:11:10.413Z</time>
      </trkpt>
      <trkpt lat="45.7796" lon="5.87603">
        <ele>610</ele>
        <time>2022-05-01T11:11:11.413Z</time>
      </trkpt>
      <trkpt lat="45.77961" lon="5.876">
        <ele>610</ele>
        <time>2022-05-01T11:11:12.412Z</time>
      </trkpt>
      <trkpt lat="45.77962" lon="5.87598">
        <ele>611</ele>
        <time>2022-05-01T11:11:13.413Z</time>
      </trkpt>
      <trkpt lat="45.77963" lon="5.87595">
        <ele>611</ele>
        <time>2022-05-01T11:11:14.413Z</time>
      </trkpt>
      <trkpt lat="45.77963" lon="5.87593">
        <ele>611</ele>
        <time>2022-05-01T11:11:15.413Z</time>
      </trkpt>
      <trkpt lat="45.77964" lon="5.8759">
        <ele>611</ele>
        <time>2022-05-01T11:11:16.413Z</time>
      </trkpt>
      <trkpt lat="45.77964" lon="5.87588">
        <ele>611</ele>
        <time>2022-05-01T11:11:17.413Z</time>
      </trkpt>
      <trkpt lat="45.77964" lon="5.87585">
        <ele>612</ele>
        <time>2022-05-01T11:11:18.413Z</time>
      </trkpt>
      <trkpt lat="45.77965" lon="5.87583">
        <ele>612</ele>
        <time>2022-05-01T11:11:19.412Z</time>
      </trkpt>
      <trkpt lat="45.77965" lon="5.8758">
        <ele>612</ele>
        <time>2022-05-01T11:11:20.413Z</time>
      </trkpt>
      <trkpt lat="45.77965" lon="5.87578">
        <ele>612</ele>
        <time>2022-05-01T11:11:21.413Z</time>
      </trkpt>
      <trkpt lat="45.77966" lon="5.87575">
        <ele>612</ele>
        <time>2022-05-01T11:11:22.413Z</time>
      </trkpt>
      <trkpt lat="45.77966" lon="5.87573">
        <ele>612</ele>
        <time>2022-05-01T11:11:23.413Z</time>
      </trkpt>
      <trkpt lat="45.77967" lon="5.8757">
        <ele>612</ele>
        <time>2022-05-01T11:11:24.413Z</time>
      </trkpt>
      <trkpt lat="45.77967" lon="5.87568">
        <ele>612</ele>
        <time>2022-05-01T11:11:25.413Z</time>
      </trkpt>
      <trkpt lat="45.77967" lon="5.87565">
        <ele>612</ele>
        <time>2022-05-01T11:11:26.413Z</time>
      </trkpt>
      <trkpt lat="45.77968" lon="5.87562">
        <ele>613</ele>
        <time>2022-05-01T11:11:27.413Z</time>
      </trkpt>
      <trkpt lat="45.77968" lon="5.8756">
        <ele>613</ele>
        <time>2022-05-01T11:11:28.412Z</time>
      </trkpt>
      <trkpt lat="45.77968" lon="5.87557">
        <ele>613</ele>
        <time>2022-05-01T11:11:29.413Z</time>
      </trkpt>
      <trkpt lat="45.77968" lon="5.87554">
        <ele>613</ele>
        <time>2022-05-01T11:11:30.413Z</time>
      </trkpt>
      <trkpt lat="45.77968" lon="5.87551">
        <ele>613</ele>
        <time>2022-05-01T11:11:31.413Z</time>
      </trkpt>
      <trkpt lat="45.77969" lon="5.87549">
        <ele>613</ele>
        <time>2022-05-01T11:11:32.413Z</time>
      </trkpt>
      <trkpt lat="45.77968" lon="5.87546">
        <ele>612</ele>
        <time>2022-05-01T11:11:33.413Z</time>
      </trkpt>
      <trkpt lat="45.77968" lon="5.87543">
        <ele>612</ele>
        <time>2022-05-01T11:11:34.413Z</time>
      </trkpt>
      <trkpt lat="45.77968" lon="5.8754">
        <ele>612</ele>
        <time>2022-05-01T11:11:35.413Z</time>
      </trkpt>
      <trkpt lat="45.77968" lon="5.87537">
        <ele>612</ele>
        <time>2022-05-01T11:11:36.413Z</time>
      </trkpt>
      <trkpt lat="45.77968" lon="5.87534">
        <ele>612</ele>
        <time>2022-05-01T11:11:37.413Z</time>
      </trkpt>
      <trkpt lat="45.77968" lon="5.87531">
        <ele>613</ele>
        <time>2022-05-01T11:11:38.413Z</time>
      </trkpt>
      <trkpt lat="45.77968" lon="5.87529">
        <ele>614</ele>
        <time>2022-05-01T11:11:39.413Z</time>
      </trkpt>
      <trkpt lat="45.77968" lon="5.87526">
        <ele>614</ele>
        <time>2022-05-01T11:11:40.413Z</time>
      </trkpt>
      <trkpt lat="45.77967" lon="5.87523">
        <ele>616</ele>
        <time>2022-05-01T11:11:41.413Z</time>
      </trkpt>
      <trkpt lat="45.77967" lon="5.8752">
        <ele>617</ele>
        <time>2022-05-01T11:11:42.413Z</time>
      </trkpt>
      <trkpt lat="45.77967" lon="5.87518">
        <ele>618</ele>
        <time>2022-05-01T11:11:43.413Z</time>
      </trkpt>
      <trkpt lat="45.77966" lon="5.87515">
        <ele>619</ele>
        <time>2022-05-01T11:11:44.412Z</time>
      </trkpt>
      <trkpt lat="45.77966" lon="5.87513">
        <ele>619</ele>
        <time>2022-05-01T11:11:45.412Z</time>
      </trkpt>
      <trkpt lat="45.77966" lon="5.8751">
        <ele>620</ele>
        <time>2022-05-01T11:11:46.412Z</time>
      </trkpt>
      <trkpt lat="45.77966" lon="5.87507">
        <ele>621</ele>
        <time>2022-05-01T11:11:47.412Z</time>
      </trkpt>
      <trkpt lat="45.77965" lon="5.87504">
        <ele>621</ele>
        <time>2022-05-01T11:11:48.413Z</time>
      </trkpt>
      <trkpt lat="45.77964" lon="5.87502">
        <ele>622</ele>
        <time>2022-05-01T11:11:49.413Z</time>
      </trkpt>
      <trkpt lat="45.77964" lon="5.87499">
        <ele>622</ele>
        <time>2022-05-01T11:11:50.413Z</time>
      </trkpt>
      <trkpt lat="45.77963" lon="5.87497">
        <ele>622</ele>
        <time>2022-05-01T11:11:51.413Z</time>
      </trkpt>
      <trkpt lat="45.77963" lon="5.87494">
        <ele>623</ele>
        <time>2022-05-01T11:11:52.413Z</time>
      </trkpt>
      <trkpt lat="45.77962" lon="5.87491">
        <ele>623</ele>
        <time>2022-05-01T11:11:53.413Z</time>
      </trkpt>
      <trkpt lat="45.77962" lon="5.87489">
        <ele>623</ele>
        <time>2022-05-01T11:11:54.413Z</time>
      </trkpt>
      <trkpt lat="45.77961" lon="5.87486">
        <ele>624</ele>
        <time>2022-05-01T11:11:55.413Z</time>
      </trkpt>
      <trkpt lat="45.77961" lon="5.87483">
        <ele>624</ele>
        <time>2022-05-01T11:11:56.413Z</time>
      </trkpt>
      <trkpt lat="45.7796" lon="5.87481">
        <ele>625</ele>
        <time>2022-05-01T11:11:57.412Z</time>
      </trkpt>
      <trkpt lat="45.77959" lon="5.87478">
        <ele>625</ele>
        <time>2022-05-01T11:11:58.412Z</time>
      </trkpt>
      <trkpt lat="45.77959" lon="5.87476">
        <ele>626</ele>
        <time>2022-05-01T11:11:59.413Z</time>
      </trkpt>
      <trkpt lat="45.77958" lon="5.87473">
        <ele>626</ele>
        <time>2022-05-01T11:12:00.413Z</time>
      </trkpt>
      <trkpt lat="45.77957" lon="5.87471">
        <ele>626</ele>
        <time>2022-05-01T11:12:01.413Z</time>
      </trkpt>
      <trkpt lat="45.77956" lon="5.87469">
        <ele>627</ele>
        <time>2022-05-01T11:12:02.413Z</time>
      </trkpt>
      <trkpt lat="45.77956" lon="5.87467">
        <ele>627</ele>
        <time>2022-05-01T11:12:03.413Z</time>
      </trkpt>
      <trkpt lat="45.77955" lon="5.87464">
        <ele>626</ele>
        <time>2022-05-01T11:12:04.413Z</time>
      </trkpt>
      <trkpt lat="45.77954" lon="5.87462">
        <ele>626</ele>
        <time>2022-05-01T11:12:05.413Z</time>
      </trkpt>
      <trkpt lat="45.77952" lon="5.8746">
        <ele>626</ele>
        <time>2022-05-01T11:12:06.413Z</time>
      </trkpt>
      <trkpt lat="45.77951" lon="5.87459">
        <ele>626</ele>
        <time>2022-05-01T11:12:07.413Z</time>
      </trkpt>
      <trkpt lat="45.77949" lon="5.87458">
        <ele>626</ele>
        <time>2022-05-01T11:12:08.413Z</time>
      </trkpt>
      <trkpt lat="45.77947" lon="5.87456">
        <ele>626</ele>
        <time>2022-05-01T11:12:09.412Z</time>
      </trkpt>
      <trkpt lat="45.77946" lon="5.87456">
        <ele>625</ele>
        <time>2022-05-01T11:12:10.413Z</time>
      </trkpt>
      <trkpt lat="45.77944" lon="5.87455">
        <ele>625</ele>
        <time>2022-05-01T11:12:11.413Z</time>
      </trkpt>
      <trkpt lat="45.77942" lon="5.87454">
        <ele>624</ele>
        <time>2022-05-01T11:12:12.413Z</time>
      </trkpt>
      <trkpt lat="45.7794" lon="5.87454">
        <ele>623</ele>
        <time>2022-05-01T11:12:13.413Z</time>
      </trkpt>
      <trkpt lat="45.77938" lon="5.87453">
        <ele>623</ele>
        <time>2022-05-01T11:12:14.413Z</time>
      </trkpt>
      <trkpt lat="45.77937" lon="5.87453">
        <ele>622</ele>
        <time>2022-05-01T11:12:15.412Z</time>
      </trkpt>
      <trkpt lat="45.77935" lon="5.87453">
        <ele>623</ele>
        <time>2022-05-01T11:12:16.412Z</time>
      </trkpt>
      <trkpt lat="45.77933" lon="5.87454">
        <ele>623</ele>
        <time>2022-05-01T11:12:17.413Z</time>
      </trkpt>
      <trkpt lat="45.77931" lon="5.87454">
        <ele>623</ele>
        <time>2022-05-01T11:12:18.412Z</time>
      </trkpt>
      <trkpt lat="45.77929" lon="5.87455">
        <ele>622</ele>
        <time>2022-05-01T11:12:19.413Z</time>
      </trkpt>
      <trkpt lat="45.77927" lon="5.87456">
        <ele>622</ele>
        <time>2022-05-01T11:12:20.413Z</time>
      </trkpt>
      <trkpt lat="45.77925" lon="5.87456">
        <ele>621</ele>
        <time>2022-05-01T11:12:21.413Z</time>
      </trkpt>
      <trkpt lat="45.77923" lon="5.87457">
        <ele>621</ele>
        <time>2022-05-01T11:12:22.413Z</time>
      </trkpt>
      <trkpt lat="45.77921" lon="5.87458">
        <ele>620</ele>
        <time>2022-05-01T11:12:23.412Z</time>
      </trkpt>
      <trkpt lat="45.7792" lon="5.87459">
        <ele>620</ele>
        <time>2022-05-01T11:12:24.413Z</time>
      </trkpt>
      <trkpt lat="45.77918" lon="5.87461">
        <ele>621</ele>
        <time>2022-05-01T11:12:25.413Z</time>
      </trkpt>
      <trkpt lat="45.77916" lon="5.87462">
        <ele>620</ele>
        <time>2022-05-01T11:12:26.413Z</time>
      </trkpt>
      <trkpt lat="45.77914" lon="5.87463">
        <ele>619</ele>
        <time>2022-05-01T11:12:27.413Z</time>
      </trkpt>
      <trkpt lat="45.77912" lon="5.87464">
        <ele>619</ele>
        <time>2022-05-01T11:12:28.412Z</time>
      </trkpt>
      <trkpt lat="45.77911" lon="5.87465">
        <ele>619</ele>
        <time>2022-05-01T11:12:29.413Z</time>
      </trkpt>
      <trkpt lat="45.77909" lon="5.87467">
        <ele>620</ele>
        <time>2022-05-01T11:12:30.413Z</time>
      </trkpt>
      <trkpt lat="45.77907" lon="5.87468">
        <ele>620</ele>
        <time>2022-05-01T11:12:31.413Z</time>
      </trkpt>
      <trkpt lat="45.77905" lon="5.87469">
        <ele>620</ele>
        <time>2022-05-01T11:12:32.413Z</time>
      </trkpt>
      <trkpt lat="45.77904" lon="5.8747">
        <ele>620</ele>
        <time>2022-05-01T11:12:33.413Z</time>
      </trkpt>
      <trkpt lat="45.77902" lon="5.8747">
        <ele>619</ele>
        <time>2022-05-01T11:12:34.413Z</time>
      </trkpt>
      <trkpt lat="45.77901" lon="5.87471">
        <ele>618</ele>
        <time>2022-05-01T11:12:35.413Z</time>
      </trkpt>
      <trkpt lat="45.77899" lon="5.87472">
        <ele>617</ele>
        <time>2022-05-01T11:12:36.413Z</time>
      </trkpt>
      <trkpt lat="45.77897" lon="5.87473">
        <ele>617</ele>
        <time>2022-05-01T11:12:37.413Z</time>
      </trkpt>
      <trkpt lat="45.77895" lon="5.87475">
        <ele>616</ele>
        <time>2022-05-01T11:12:38.413Z</time>
      </trkpt>
      <trkpt lat="45.77894" lon="5.87476">
        <ele>616</ele>
        <time>2022-05-01T11:12:39.413Z</time>
      </trkpt>
      <trkpt lat="45.77892" lon="5.87477">
        <ele>617</ele>
        <time>2022-05-01T11:12:40.412Z</time>
      </trkpt>
      <trkpt lat="45.7789" lon="5.87478">
        <ele>617</ele>
        <time>2022-05-01T11:12:41.413Z</time>
      </trkpt>
      <trkpt lat="45.77888" lon="5.8748">
        <ele>618</ele>
        <time>2022-05-01T11:12:42.412Z</time>
      </trkpt>
      <trkpt lat="45.77886" lon="5.87481">
        <ele>619</ele>
        <time>2022-05-01T11:12:43.413Z</time>
      </trkpt>
      <trkpt lat="45.77884" lon="5.87482">
        <ele>619</ele>
        <time>2022-05-01T11:12:44.412Z</time>
      </trkpt>
      <trkpt lat="45.77883" lon="5.87483">
        <ele>620</ele>
        <time>2022-05-01T11:12:45.413Z</time>
      </trkpt>
      <trkpt lat="45.77881" lon="5.87485">
        <ele>620</ele>
        <time>2022-05-01T11:12:46.413Z</time>
      </trkpt>
      <trkpt lat="45.77879" lon="5.87486">
        <ele>621</ele>
        <time>2022-05-01T11:12:47.413Z</time>
      </trkpt>
      <trkpt lat="45.77877" lon="5.87487">
        <ele>621</ele>
        <time>2022-05-01T11:12:48.413Z</time>
      </trkpt>
      <trkpt lat="45.77875" lon="5.87488">
        <ele>622</ele>
        <time>2022-05-01T11:12:49.413Z</time>
      </trkpt>
      <trkpt lat="45.77873" lon="5.87489">
        <ele>623</ele>
        <time>2022-05-01T11:12:50.412Z</time>
      </trkpt>
      <trkpt lat="45.77871" lon="5.8749">
        <ele>624</ele>
        <time>2022-05-01T11:12:51.413Z</time>
      </trkpt>
      <trkpt lat="45.7787" lon="5.87492">
        <ele>625</ele>
        <time>2022-05-01T11:12:52.413Z</time>
      </trkpt>
      <trkpt lat="45.77868" lon="5.87493">
        <ele>626</ele>
        <time>2022-05-01T11:12:53.413Z</time>
      </trkpt>
      <trkpt lat="45.77866" lon="5.87495">
        <ele>626</ele>
        <time>2022-05-01T11:12:54.413Z</time>
      </trkpt>
      <trkpt lat="45.77864" lon="5.87495">
        <ele>627</ele>
        <time>2022-05-01T11:12:55.412Z</time>
      </trkpt>
      <trkpt lat="45.77863" lon="5.87496">
        <ele>627</ele>
        <time>2022-05-01T11:12:56.413Z</time>
      </trkpt>
      <trkpt lat="45.77861" lon="5.87498">
        <ele>627</ele>
        <time>2022-05-01T11:12:57.413Z</time>
      </trkpt>
      <trkpt lat="45.77859" lon="5.87499">
        <ele>628</ele>
        <time>2022-05-01T11:12:58.413Z</time>
      </trkpt>
      <trkpt lat="45.77858" lon="5.875">
        <ele>628</ele>
        <time>2022-05-01T11:12:59.413Z</time>
      </trkpt>
      <trkpt lat="45.77856" lon="5.87502">
        <ele>627</ele>
        <time>2022-05-01T11:13:00.412Z</time>
      </trkpt>
      <trkpt lat="45.77855" lon="5.87503">
        <ele>627</ele>
        <time>2022-05-01T11:13:01.413Z</time>
      </trkpt>
      <trkpt lat="45.77853" lon="5.87503">
        <ele>628</ele>
        <time>2022-05-01T11:13:02.413Z</time>
      </trkpt>
      <trkpt lat="45.77851" lon="5.87505">
        <ele>628</ele>
        <time>2022-05-01T11:13:03.413Z</time>
      </trkpt>
      <trkpt lat="45.7785" lon="5.87506">
        <ele>628</ele>
        <time>2022-05-01T11:13:04.412Z</time>
      </trkpt>
      <trkpt lat="45.77848" lon="5.87507">
        <ele>628</ele>
        <time>2022-05-01T11:13:05.413Z</time>
      </trkpt>
      <trkpt lat="45.77846" lon="5.87507">
        <ele>628</ele>
        <time>2022-05-01T11:13:06.413Z</time>
      </trkpt>
      <trkpt lat="45.77844" lon="5.87508">
        <ele>628</ele>
        <time>2022-05-01T11:13:07.413Z</time>
      </trkpt>
      <trkpt lat="45.77842" lon="5.8751">
        <ele>628</ele>
        <time>2022-05-01T11:13:08.413Z</time>
      </trkpt>
      <trkpt lat="45.77841" lon="5.87512">
        <ele>629</ele>
        <time>2022-05-01T11:13:09.413Z</time>
      </trkpt>
      <trkpt lat="45.77839" lon="5.87513">
        <ele>629</ele>
        <time>2022-05-01T11:13:10.412Z</time>
      </trkpt>
      <trkpt lat="45.77838" lon="5.87514">
        <ele>630</ele>
        <time>2022-05-01T11:13:11.413Z</time>
      </trkpt>
      <trkpt lat="45.77836" lon="5.87514">
        <ele>630</ele>
        <time>2022-05-01T11:13:12.413Z</time>
      </trkpt>
      <trkpt lat="45.77835" lon="5.87515">
        <ele>631</ele>
        <time>2022-05-01T11:13:13.413Z</time>
      </trkpt>
      <trkpt lat="45.77833" lon="5.87516">
        <ele>631</ele>
        <time>2022-05-01T11:13:14.413Z</time>
      </trkpt>
      <trkpt lat="45.77831" lon="5.87517">
        <ele>631</ele>
        <time>2022-05-01T11:13:15.413Z</time>
      </trkpt>
      <trkpt lat="45.77829" lon="5.87519">
        <ele>631</ele>
        <time>2022-05-01T11:13:16.413Z</time>
      </trkpt>
      <trkpt lat="45.77827" lon="5.8752">
        <ele>631</ele>
        <time>2022-05-01T11:13:17.412Z</time>
      </trkpt>
      <trkpt lat="45.77825" lon="5.87521">
        <ele>631</ele>
        <time>2022-05-01T11:13:18.413Z</time>
      </trkpt>
      <trkpt lat="45.77824" lon="5.87521">
        <ele>631</ele>
        <time>2022-05-01T11:13:19.413Z</time>
      </trkpt>
      <trkpt lat="45.77822" lon="5.87522">
        <ele>631</ele>
        <time>2022-05-01T11:13:20.412Z</time>
      </trkpt>
      <trkpt lat="45.7782" lon="5.87524">
        <ele>631</ele>
        <time>2022-05-01T11:13:21.413Z</time>
      </trkpt>
      <trkpt lat="45.77818" lon="5.87525">
        <ele>631</ele>
        <time>2022-05-01T11:13:22.413Z</time>
      </trkpt>
      <trkpt lat="45.77816" lon="5.87526">
        <ele>632</ele>
        <time>2022-05-01T11:13:23.413Z</time>
      </trkpt>
      <trkpt lat="45.77814" lon="5.87527">
        <ele>632</ele>
        <time>2022-05-01T11:13:24.413Z</time>
      </trkpt>
      <trkpt lat="45.77812" lon="5.87528">
        <ele>633</ele>
        <time>2022-05-01T11:13:25.413Z</time>
      </trkpt>
      <trkpt lat="45.7781" lon="5.87529">
        <ele>633</ele>
        <time>2022-05-01T11:13:26.413Z</time>
      </trkpt>
      <trkpt lat="45.77808" lon="5.8753">
        <ele>633</ele>
        <time>2022-05-01T11:13:27.413Z</time>
      </trkpt>
      <trkpt lat="45.77807" lon="5.87531">
        <ele>633</ele>
        <time>2022-05-01T11:13:28.412Z</time>
      </trkpt>
      <trkpt lat="45.77805" lon="5.87532">
        <ele>634</ele>
        <time>2022-05-01T11:13:29.413Z</time>
      </trkpt>
      <trkpt lat="45.77803" lon="5.87534">
        <ele>634</ele>
        <time>2022-05-01T11:13:30.413Z</time>
      </trkpt>
      <trkpt lat="45.77801" lon="5.87535">
        <ele>635</ele>
        <time>2022-05-01T11:13:31.413Z</time>
      </trkpt>
      <trkpt lat="45.77799" lon="5.87536">
        <ele>635</ele>
        <time>2022-05-01T11:13:32.413Z</time>
      </trkpt>
      <trkpt lat="45.77797" lon="5.87538">
        <ele>636</ele>
        <time>2022-05-01T11:13:33.413Z</time>
      </trkpt>
      <trkpt lat="45.77796" lon="5.87539">
        <ele>636</ele>
        <time>2022-05-01T11:13:34.412Z</time>
      </trkpt>
      <trkpt lat="45.77794" lon="5.87541">
        <ele>637</ele>
        <time>2022-05-01T11:13:35.413Z</time>
      </trkpt>
      <trkpt lat="45.77792" lon="5.87542">
        <ele>637</ele>
        <time>2022-05-01T11:13:36.413Z</time>
      </trkpt>
      <trkpt lat="45.7779" lon="5.87543">
        <ele>638</ele>
        <time>2022-05-01T11:13:37.413Z</time>
      </trkpt>
      <trkpt lat="45.77788" lon="5.87545">
        <ele>638</ele>
        <time>2022-05-01T11:13:38.413Z</time>
      </trkpt>
      <trkpt lat="45.77787" lon="5.87546">
        <ele>638</ele>
        <time>2022-05-01T11:13:39.413Z</time>
      </trkpt>
      <trkpt lat="45.77785" lon="5.87548">
        <ele>638</ele>
        <time>2022-05-01T11:13:40.412Z</time>
      </trkpt>
      <trkpt lat="45.77784" lon="5.8755">
        <ele>638</ele>
        <time>2022-05-01T11:13:41.413Z</time>
      </trkpt>
      <trkpt lat="45.77782" lon="5.87551">
        <ele>639</ele>
        <time>2022-05-01T11:13:42.412Z</time>
      </trkpt>
      <trkpt lat="45.7778" lon="5.87553">
        <ele>639</ele>
        <time>2022-05-01T11:13:43.413Z</time>
      </trkpt>
      <trkpt lat="45.77778" lon="5.87554">
        <ele>639</ele>
        <time>2022-05-01T11:13:44.413Z</time>
      </trkpt>
      <trkpt lat="45.77777" lon="5.87555">
        <ele>640</ele>
        <time>2022-05-01T11:13:45.413Z</time>
      </trkpt>
      <trkpt lat="45.77775" lon="5.87557">
        <ele>640</ele>
        <time>2022-05-01T11:13:46.413Z</time>
      </trkpt>
      <trkpt lat="45.77774" lon="5.87558">
        <ele>641</ele>
        <time>2022-05-01T11:13:47.413Z</time>
      </trkpt>
      <trkpt lat="45.77772" lon="5.8756">
        <ele>642</ele>
        <time>2022-05-01T11:13:48.413Z</time>
      </trkpt>
      <trkpt lat="45.7777" lon="5.87561">
        <ele>642</ele>
        <time>2022-05-01T11:13:49.413Z</time>
      </trkpt>
      <trkpt lat="45.77768" lon="5.87561">
        <ele>643</ele>
        <time>2022-05-01T11:13:50.413Z</time>
      </trkpt>
      <trkpt lat="45.77766" lon="5.87562">
        <ele>643</ele>
        <time>2022-05-01T11:13:51.412Z</time>
      </trkpt>
      <trkpt lat="45.77764" lon="5.87562">
        <ele>642</ele>
        <time>2022-05-01T11:13:52.413Z</time>
      </trkpt>
      <trkpt lat="45.77762" lon="5.87563">
        <ele>642</ele>
        <time>2022-05-01T11:13:53.413Z</time>
      </trkpt>
      <trkpt lat="45.7776" lon="5.87563">
        <ele>641</ele>
        <time>2022-05-01T11:13:54.413Z</time>
      </trkpt>
      <trkpt lat="45.77758" lon="5.87564">
        <ele>641</ele>
        <time>2022-05-01T11:13:55.413Z</time>
      </trkpt>
      <trkpt lat="45.77756" lon="5.87566">
        <ele>641</ele>
        <time>2022-05-01T11:13:56.413Z</time>
      </trkpt>
      <trkpt lat="45.77753" lon="5.87568">
        <ele>641</ele>
        <time>2022-05-01T11:13:57.412Z</time>
      </trkpt>
      <trkpt lat="45.77751" lon="5.87569">
        <ele>641</ele>
        <time>2022-05-01T11:13:58.413Z</time>
      </trkpt>
      <trkpt lat="45.77749" lon="5.87569">
        <ele>641</ele>
        <time>2022-05-01T11:13:59.413Z</time>
      </trkpt>
      <trkpt lat="45.77747" lon="5.87568">
        <ele>641</ele>
        <time>2022-05-01T11:14:00.412Z</time>
      </trkpt>
      <trkpt lat="45.77745" lon="5.87566">
        <ele>641</ele>
        <time>2022-05-01T11:14:01.413Z</time>
      </trkpt>
      <trkpt lat="45.77744" lon="5.87564">
        <ele>641</ele>
        <time>2022-05-01T11:14:02.413Z</time>
      </trkpt>
      <trkpt lat="45.77742" lon="5.87562">
        <ele>640</ele>
        <time>2022-05-01T11:14:03.413Z</time>
      </trkpt>
      <trkpt lat="45.77741" lon="5.8756">
        <ele>640</ele>
        <time>2022-05-01T11:14:04.413Z</time>
      </trkpt>
      <trkpt lat="45.7774" lon="5.87557">
        <ele>640</ele>
        <time>2022-05-01T11:14:05.413Z</time>
      </trkpt>
      <trkpt lat="45.77739" lon="5.87554">
        <ele>640</ele>
        <time>2022-05-01T11:14:06.413Z</time>
      </trkpt>
      <trkpt lat="45.77737" lon="5.87552">
        <ele>641</ele>
        <time>2022-05-01T11:14:07.413Z</time>
      </trkpt>
      <trkpt lat="45.77736" lon="5.8755">
        <ele>641</ele>
        <time>2022-05-01T11:14:08.413Z</time>
      </trkpt>
      <trkpt lat="45.77735" lon="5.87549">
        <ele>641</ele>
        <time>2022-05-01T11:14:09.413Z</time>
      </trkpt>
      <trkpt lat="45.77734" lon="5.87547">
        <ele>641</ele>
        <time>2022-05-01T11:14:10.413Z</time>
      </trkpt>
      <trkpt lat="45.77733" lon="5.87545">
        <ele>642</ele>
        <time>2022-05-01T11:14:11.412Z</time>
      </trkpt>
      <trkpt lat="45.77731" lon="5.87542">
        <ele>642</ele>
        <time>2022-05-01T11:14:12.413Z</time>
      </trkpt>
      <trkpt lat="45.7773" lon="5.8754">
        <ele>643</ele>
        <time>2022-05-01T11:14:13.412Z</time>
      </trkpt>
      <trkpt lat="45.77729" lon="5.87538">
        <ele>643</ele>
        <time>2022-05-01T11:14:14.413Z</time>
      </trkpt>
      <trkpt lat="45.77727" lon="5.87536">
        <ele>643</ele>
        <time>2022-05-01T11:14:15.413Z</time>
      </trkpt>
      <trkpt lat="45.77726" lon="5.87535">
        <ele>643</ele>
        <time>2022-05-01T11:14:16.413Z</time>
      </trkpt>
      <trkpt lat="45.77724" lon="5.87533">
        <ele>643</ele>
        <time>2022-05-01T11:14:17.413Z</time>
      </trkpt>
      <trkpt lat="45.77723" lon="5.87531">
        <ele>643</ele>
        <time>2022-05-01T11:14:18.413Z</time>
      </trkpt>
      <trkpt lat="45.77721" lon="5.8753">
        <ele>643</ele>
        <time>2022-05-01T11:14:19.413Z</time>
      </trkpt>
      <trkpt lat="45.77719" lon="5.87529">
        <ele>643</ele>
        <time>2022-05-01T11:14:20.413Z</time>
      </trkpt>
      <trkpt lat="45.77718" lon="5.87528">
        <ele>643</ele>
        <time>2022-05-01T11:14:21.413Z</time>
      </trkpt>
      <trkpt lat="45.77716" lon="5.87526">
        <ele>643</ele>
        <time>2022-05-01T11:14:22.412Z</time>
      </trkpt>
      <trkpt lat="45.77714" lon="5.87524">
        <ele>643</ele>
        <time>2022-05-01T11:14:23.413Z</time>
      </trkpt>
      <trkpt lat="45.77713" lon="5.87522">
        <ele>642</ele>
        <time>2022-05-01T11:14:24.413Z</time>
      </trkpt>
      <trkpt lat="45.77712" lon="5.8752">
        <ele>642</ele>
        <time>2022-05-01T11:14:25.413Z</time>
      </trkpt>
      <trkpt lat="45.77712" lon="5.87518">
        <ele>642</ele>
        <time>2022-05-01T11:14:26.413Z</time>
      </trkpt>
      <trkpt lat="45.77712" lon="5.87515">
        <ele>643</ele>
        <time>2022-05-01T11:14:27.413Z</time>
      </trkpt>
      <trkpt lat="45.77711" lon="5.87512">
        <ele>643</ele>
        <time>2022-05-01T11:14:28.413Z</time>
      </trkpt>
      <trkpt lat="45.7771" lon="5.87509">
        <ele>642</ele>
        <time>2022-05-01T11:14:29.412Z</time>
      </trkpt>
      <trkpt lat="45.7771" lon="5.87506">
        <ele>642</ele>
        <time>2022-05-01T11:14:30.413Z</time>
      </trkpt>
      <trkpt lat="45.7771" lon="5.87503">
        <ele>643</ele>
        <time>2022-05-01T11:14:31.413Z</time>
      </trkpt>
      <trkpt lat="45.77709" lon="5.875">
        <ele>643</ele>
        <time>2022-05-01T11:14:32.412Z</time>
      </trkpt>
      <trkpt lat="45.77709" lon="5.87497">
        <ele>644</ele>
        <time>2022-05-01T11:14:33.412Z</time>
      </trkpt>
      <trkpt lat="45.77708" lon="5.87495">
        <ele>645</ele>
        <time>2022-05-01T11:14:34.413Z</time>
      </trkpt>
      <trkpt lat="45.77708" lon="5.87492">
        <ele>646</ele>
        <time>2022-05-01T11:14:35.413Z</time>
      </trkpt>
      <trkpt lat="45.77707" lon="5.87489">
        <ele>647</ele>
        <time>2022-05-01T11:14:36.413Z</time>
      </trkpt>
      <trkpt lat="45.77707" lon="5.87487">
        <ele>648</ele>
        <time>2022-05-01T11:14:37.413Z</time>
      </trkpt>
      <trkpt lat="45.77706" lon="5.87484">
        <ele>649</ele>
        <time>2022-05-01T11:14:38.413Z</time>
      </trkpt>
      <trkpt lat="45.77706" lon="5.87481">
        <ele>650</ele>
        <time>2022-05-01T11:14:39.413Z</time>
      </trkpt>
      <trkpt lat="45.77705" lon="5.87478">
        <ele>651</ele>
        <time>2022-05-01T11:14:40.413Z</time>
      </trkpt>
      <trkpt lat="45.77704" lon="5.87475">
        <ele>651</ele>
        <time>2022-05-01T11:14:41.413Z</time>
      </trkpt>
      <trkpt lat="45.77703" lon="5.87472">
        <ele>651</ele>
        <time>2022-05-01T11:14:42.413Z</time>
      </trkpt>
      <trkpt lat="45.77701" lon="5.8747">
        <ele>651</ele>
        <time>2022-05-01T11:14:43.413Z</time>
      </trkpt>
      <trkpt lat="45.77699" lon="5.87469">
        <ele>650</ele>
        <time>2022-05-01T11:14:44.413Z</time>
      </trkpt>
      <trkpt lat="45.77697" lon="5.8747">
        <ele>650</ele>
        <time>2022-05-01T11:14:45.413Z</time>
      </trkpt>
      <trkpt lat="45.77695" lon="5.87471">
        <ele>650</ele>
        <time>2022-05-01T11:14:46.413Z</time>
      </trkpt>
      <trkpt lat="45.77693" lon="5.87473">
        <ele>650</ele>
        <time>2022-05-01T11:14:47.413Z</time>
      </trkpt>
      <trkpt lat="45.77691" lon="5.87474">
        <ele>650</ele>
        <time>2022-05-01T11:14:48.413Z</time>
      </trkpt>
      <trkpt lat="45.7769" lon="5.87476">
        <ele>650</ele>
        <time>2022-05-01T11:14:49.413Z</time>
      </trkpt>
      <trkpt lat="45.77688" lon="5.87478">
        <ele>650</ele>
        <time>2022-05-01T11:14:50.413Z</time>
      </trkpt>
      <trkpt lat="45.77687" lon="5.87481">
        <ele>649</ele>
        <time>2022-05-01T11:14:51.412Z</time>
      </trkpt>
      <trkpt lat="45.77686" lon="5.87483">
        <ele>650</ele>
        <time>2022-05-01T11:14:52.413Z</time>
      </trkpt>
      <trkpt lat="45.77685" lon="5.87486">
        <ele>650</ele>
        <time>2022-05-01T11:14:53.413Z</time>
      </trkpt>
      <trkpt lat="45.77684" lon="5.87489">
        <ele>649</ele>
        <time>2022-05-01T11:14:54.413Z</time>
      </trkpt>
      <trkpt lat="45.77683" lon="5.87491">
        <ele>649</ele>
        <time>2022-05-01T11:14:55.413Z</time>
      </trkpt>
      <trkpt lat="45.77683" lon="5.87493">
        <ele>649</ele>
        <time>2022-05-01T11:14:56.413Z</time>
      </trkpt>
      <trkpt lat="45.77682" lon="5.87495">
        <ele>648</ele>
        <time>2022-05-01T11:14:57.413Z</time>
      </trkpt>
      <trkpt lat="45.77681" lon="5.87498">
        <ele>648</ele>
        <time>2022-05-01T11:14:58.413Z</time>
      </trkpt>
      <trkpt lat="45.7768" lon="5.875">
        <ele>648</ele>
        <time>2022-05-01T11:14:59.413Z</time>
      </trkpt>
      <trkpt lat="45.77678" lon="5.87502">
        <ele>647</ele>
        <time>2022-05-01T11:15:00.413Z</time>
      </trkpt>
      <trkpt lat="45.77677" lon="5.87503">
        <ele>647</ele>
        <time>2022-05-01T11:15:01.413Z</time>
      </trkpt>
      <trkpt lat="45.77675" lon="5.87505">
        <ele>647</ele>
        <time>2022-05-01T11:15:02.413Z</time>
      </trkpt>
      <trkpt lat="45.77674" lon="5.87507">
        <ele>646</ele>
        <time>2022-05-01T11:15:03.413Z</time>
      </trkpt>
      <trkpt lat="45.77673" lon="5.87509">
        <ele>646</ele>
        <time>2022-05-01T11:15:04.413Z</time>
      </trkpt>
      <trkpt lat="45.77671" lon="5.87511">
        <ele>646</ele>
        <time>2022-05-01T11:15:05.412Z</time>
      </trkpt>
      <trkpt lat="45.7767" lon="5.87512">
        <ele>647</ele>
        <time>2022-05-01T11:15:06.413Z</time>
      </trkpt>
      <trkpt lat="45.77668" lon="5.87514">
        <ele>647</ele>
        <time>2022-05-01T11:15:07.412Z</time>
      </trkpt>
      <trkpt lat="45.77667" lon="5.87516">
        <ele>647</ele>
        <time>2022-05-01T11:15:08.413Z</time>
      </trkpt>
      <trkpt lat="45.77665" lon="5.87518">
        <ele>647</ele>
        <time>2022-05-01T11:15:09.413Z</time>
      </trkpt>
      <trkpt lat="45.77664" lon="5.8752">
        <ele>647</ele>
        <time>2022-05-01T11:15:10.412Z</time>
      </trkpt>
      <trkpt lat="45.77663" lon="5.87522">
        <ele>647</ele>
        <time>2022-05-01T11:15:11.413Z</time>
      </trkpt>
      <trkpt lat="45.77662" lon="5.87524">
        <ele>648</ele>
        <time>2022-05-01T11:15:12.413Z</time>
      </trkpt>
      <trkpt lat="45.77661" lon="5.87526">
        <ele>648</ele>
        <time>2022-05-01T11:15:13.413Z</time>
      </trkpt>
      <trkpt lat="45.77659" lon="5.87528">
        <ele>649</ele>
        <time>2022-05-01T11:15:14.413Z</time>
      </trkpt>
      <trkpt lat="45.77657" lon="5.87529">
        <ele>649</ele>
        <time>2022-05-01T11:15:15.413Z</time>
      </trkpt>
      <trkpt lat="45.77655" lon="5.87531">
        <ele>649</ele>
        <time>2022-05-01T11:15:16.412Z</time>
      </trkpt>
      <trkpt lat="45.77653" lon="5.87532">
        <ele>650</ele>
        <time>2022-05-01T11:15:17.413Z</time>
      </trkpt>
      <trkpt lat="45.77651" lon="5.87531">
        <ele>650</ele>
        <time>2022-05-01T11:15:18.413Z</time>
      </trkpt>
      <trkpt lat="45.77649" lon="5.87529">
        <ele>650</ele>
        <time>2022-05-01T11:15:19.413Z</time>
      </trkpt>
      <trkpt lat="45.77648" lon="5.87527">
        <ele>650</ele>
        <time>2022-05-01T11:15:20.413Z</time>
      </trkpt>
      <trkpt lat="45.77648" lon="5.87525">
        <ele>651</ele>
        <time>2022-05-01T11:15:21.413Z</time>
      </trkpt>
      <trkpt lat="45.77648" lon="5.87522">
        <ele>651</ele>
        <time>2022-05-01T11:15:22.413Z</time>
      </trkpt>
      <trkpt lat="45.77648" lon="5.87519">
        <ele>652</ele>
        <time>2022-05-01T11:15:23.412Z</time>
      </trkpt>
      <trkpt lat="45.77649" lon="5.87516">
        <ele>652</ele>
        <time>2022-05-01T11:15:24.413Z</time>
      </trkpt>
      <trkpt lat="45.77651" lon="5.87513">
        <ele>652</ele>
        <time>2022-05-01T11:15:25.413Z</time>
      </trkpt>
      <trkpt lat="45.77652" lon="5.87511">
        <ele>653</ele>
        <time>2022-05-01T11:15:26.412Z</time>
      </trkpt>
      <trkpt lat="45.77653" lon="5.87508">
        <ele>653</ele>
        <time>2022-05-01T11:15:27.413Z</time>
      </trkpt>
      <trkpt lat="45.77654" lon="5.87505">
        <ele>654</ele>
        <time>2022-05-01T11:15:28.413Z</time>
      </trkpt>
      <trkpt lat="45.77654" lon="5.87503">
        <ele>654</ele>
        <time>2022-05-01T11:15:29.413Z</time>
      </trkpt>
      <trkpt lat="45.77656" lon="5.875">
        <ele>654</ele>
        <time>2022-05-01T11:15:30.413Z</time>
      </trkpt>
      <trkpt lat="45.77656" lon="5.87497">
        <ele>654</ele>
        <time>2022-05-01T11:15:31.413Z</time>
      </trkpt>
      <trkpt lat="45.77657" lon="5.87493">
        <ele>653</ele>
        <time>2022-05-01T11:15:32.413Z</time>
      </trkpt>
      <trkpt lat="45.77658" lon="5.8749">
        <ele>652</ele>
        <time>2022-05-01T11:15:33.413Z</time>
      </trkpt>
      <trkpt lat="45.77658" lon="5.87488">
        <ele>652</ele>
        <time>2022-05-01T11:15:34.413Z</time>
      </trkpt>
      <trkpt lat="45.77659" lon="5.87485">
        <ele>651</ele>
        <time>2022-05-01T11:15:35.413Z</time>
      </trkpt>
      <trkpt lat="45.77659" lon="5.87481">
        <ele>650</ele>
        <time>2022-05-01T11:15:36.412Z</time>
      </trkpt>
      <trkpt lat="45.77659" lon="5.87478">
        <ele>651</ele>
        <time>2022-05-01T11:15:37.413Z</time>
      </trkpt>
      <trkpt lat="45.77659" lon="5.87475">
        <ele>651</ele>
        <time>2022-05-01T11:15:38.413Z</time>
      </trkpt>
      <trkpt lat="45.77659" lon="5.87473">
        <ele>651</ele>
        <time>2022-05-01T11:15:39.412Z</time>
      </trkpt>
      <trkpt lat="45.77659" lon="5.8747">
        <ele>651</ele>
        <time>2022-05-01T11:15:40.412Z</time>
      </trkpt>
      <trkpt lat="45.77659" lon="5.87468">
        <ele>652</ele>
        <time>2022-05-01T11:15:41.413Z</time>
      </trkpt>
      <trkpt lat="45.77659" lon="5.87465">
        <ele>652</ele>
        <time>2022-05-01T11:15:42.413Z</time>
      </trkpt>
      <trkpt lat="45.77658" lon="5.87463">
        <ele>653</ele>
        <time>2022-05-01T11:15:43.412Z</time>
      </trkpt>
      <trkpt lat="45.77656" lon="5.87461">
        <ele>654</ele>
        <time>2022-05-01T11:15:44.413Z</time>
      </trkpt>
      <trkpt lat="45.77655" lon="5.87458">
        <ele>654</ele>
        <time>2022-05-01T11:15:45.413Z</time>
      </trkpt>
      <trkpt lat="45.77654" lon="5.87455">
        <ele>655</ele>
        <time>2022-05-01T11:15:46.413Z</time>
      </trkpt>
      <trkpt lat="45.77653" lon="5.87452">
        <ele>655</ele>
        <time>2022-05-01T11:15:47.413Z</time>
      </trkpt>
      <trkpt lat="45.77652" lon="5.8745">
        <ele>656</ele>
        <time>2022-05-01T11:15:48.413Z</time>
      </trkpt>
      <trkpt lat="45.77651" lon="5.87448">
        <ele>657</ele>
        <time>2022-05-01T11:15:49.413Z</time>
      </trkpt>
      <trkpt lat="45.7765" lon="5.87445">
        <ele>658</ele>
        <time>2022-05-01T11:15:50.412Z</time>
      </trkpt>
      <trkpt lat="45.77649" lon="5.87443">
        <ele>659</ele>
        <time>2022-05-01T11:15:51.413Z</time>
      </trkpt>
      <trkpt lat="45.77648" lon="5.8744">
        <ele>660</ele>
        <time>2022-05-01T11:15:52.413Z</time>
      </trkpt>
      <trkpt lat="45.77646" lon="5.87438">
        <ele>661</ele>
        <time>2022-05-01T11:15:53.412Z</time>
      </trkpt>
      <trkpt lat="45.77646" lon="5.87436">
        <ele>662</ele>
        <time>2022-05-01T11:15:54.412Z</time>
      </trkpt>
      <trkpt lat="45.77644" lon="5.87432">
        <ele>662</ele>
        <time>2022-05-01T11:15:55.412Z</time>
      </trkpt>
      <trkpt lat="45.77644" lon="5.8743">
        <ele>663</ele>
        <time>2022-05-01T11:15:56.413Z</time>
      </trkpt>
      <trkpt lat="45.77643" lon="5.87427">
        <ele>663</ele>
        <time>2022-05-01T11:15:57.413Z</time>
      </trkpt>
      <trkpt lat="45.77642" lon="5.87425">
        <ele>664</ele>
        <time>2022-05-01T11:15:58.413Z</time>
      </trkpt>
      <trkpt lat="45.77641" lon="5.87423">
        <ele>665</ele>
        <time>2022-05-01T11:15:59.412Z</time>
      </trkpt>
      <trkpt lat="45.7764" lon="5.8742">
        <ele>665</ele>
        <time>2022-05-01T11:16:00.413Z</time>
      </trkpt>
      <trkpt lat="45.7764" lon="5.87417">
        <ele>666</ele>
        <time>2022-05-01T11:16:01.412Z</time>
      </trkpt>
      <trkpt lat="45.77639" lon="5.87414">
        <ele>666</ele>
        <time>2022-05-01T11:16:02.412Z</time>
      </trkpt>
      <trkpt lat="45.77639" lon="5.87412">
        <ele>667</ele>
        <time>2022-05-01T11:16:03.413Z</time>
      </trkpt>
      <trkpt lat="45.77637" lon="5.87409">
        <ele>668</ele>
        <time>2022-05-01T11:16:04.413Z</time>
      </trkpt>
      <trkpt lat="45.77637" lon="5.87406">
        <ele>668</ele>
        <time>2022-05-01T11:16:05.413Z</time>
      </trkpt>
      <trkpt lat="45.77636" lon="5.87404">
        <ele>669</ele>
        <time>2022-05-01T11:16:06.413Z</time>
      </trkpt>
      <trkpt lat="45.77636" lon="5.87402">
        <ele>669</ele>
        <time>2022-05-01T11:16:07.413Z</time>
      </trkpt>
      <trkpt lat="45.77635" lon="5.87399">
        <ele>669</ele>
        <time>2022-05-01T11:16:08.413Z</time>
      </trkpt>
      <trkpt lat="45.77634" lon="5.87396">
        <ele>669</ele>
        <time>2022-05-01T11:16:09.413Z</time>
      </trkpt>
      <trkpt lat="45.77634" lon="5.87393">
        <ele>669</ele>
        <time>2022-05-01T11:16:10.413Z</time>
      </trkpt>
      <trkpt lat="45.77634" lon="5.87391">
        <ele>668</ele>
        <time>2022-05-01T11:16:11.413Z</time>
      </trkpt>
      <trkpt lat="45.77633" lon="5.87388">
        <ele>668</ele>
        <time>2022-05-01T11:16:12.413Z</time>
      </trkpt>
      <trkpt lat="45.77632" lon="5.87386">
        <ele>668</ele>
        <time>2022-05-01T11:16:13.413Z</time>
      </trkpt>
      <trkpt lat="45.77632" lon="5.87383">
        <ele>669</ele>
        <time>2022-05-01T11:16:14.413Z</time>
      </trkpt>
      <trkpt lat="45.77631" lon="5.8738">
        <ele>669</ele>
        <time>2022-05-01T11:16:15.413Z</time>
      </trkpt>
      <trkpt lat="45.7763" lon="5.87377">
        <ele>669</ele>
        <time>2022-05-01T11:16:16.412Z</time>
      </trkpt>
      <trkpt lat="45.77629" lon="5.87375">
        <ele>670</ele>
        <time>2022-05-01T11:16:17.413Z</time>
      </trkpt>
      <trkpt lat="45.77628" lon="5.87373">
        <ele>671</ele>
        <time>2022-05-01T11:16:18.413Z</time>
      </trkpt>
      <trkpt lat="45.77627" lon="5.87369">
        <ele>672</ele>
        <time>2022-05-01T11:16:19.413Z</time>
      </trkpt>
      <trkpt lat="45.77626" lon="5.87367">
        <ele>673</ele>
        <time>2022-05-01T11:16:20.412Z</time>
      </trkpt>
      <trkpt lat="45.77624" lon="5.87365">
        <ele>674</ele>
        <time>2022-05-01T11:16:21.413Z</time>
      </trkpt>
      <trkpt lat="45.77623" lon="5.87363">
        <ele>675</ele>
        <time>2022-05-01T11:16:22.413Z</time>
      </trkpt>
      <trkpt lat="45.77621" lon="5.87361">
        <ele>676</ele>
        <time>2022-05-01T11:16:23.413Z</time>
      </trkpt>
      <trkpt lat="45.7762" lon="5.8736">
        <ele>675</ele>
        <time>2022-05-01T11:16:24.412Z</time>
      </trkpt>
      <trkpt lat="45.77618" lon="5.87358">
        <ele>675</ele>
        <time>2022-05-01T11:16:25.413Z</time>
      </trkpt>
      <trkpt lat="45.77616" lon="5.87357">
        <ele>674</ele>
        <time>2022-05-01T11:16:26.413Z</time>
      </trkpt>
      <trkpt lat="45.77615" lon="5.87356">
        <ele>673</ele>
        <time>2022-05-01T11:16:27.412Z</time>
      </trkpt>
      <trkpt lat="45.77613" lon="5.87356">
        <ele>673</ele>
        <time>2022-05-01T11:16:28.413Z</time>
      </trkpt>
      <trkpt lat="45.77611" lon="5.87355">
        <ele>673</ele>
        <time>2022-05-01T11:16:29.413Z</time>
      </trkpt>
      <trkpt lat="45.77609" lon="5.87355">
        <ele>673</ele>
        <time>2022-05-01T11:16:30.413Z</time>
      </trkpt>
      <trkpt lat="45.77608" lon="5.87356">
        <ele>673</ele>
        <time>2022-05-01T11:16:31.413Z</time>
      </trkpt>
      <trkpt lat="45.77606" lon="5.87356">
        <ele>672</ele>
        <time>2022-05-01T11:16:32.413Z</time>
      </trkpt>
      <trkpt lat="45.77603" lon="5.87356">
        <ele>672</ele>
        <time>2022-05-01T11:16:33.413Z</time>
      </trkpt>
      <trkpt lat="45.77601" lon="5.87356">
        <ele>672</ele>
        <time>2022-05-01T11:16:34.412Z</time>
      </trkpt>
      <trkpt lat="45.776" lon="5.87356">
        <ele>672</ele>
        <time>2022-05-01T11:16:35.413Z</time>
      </trkpt>
      <trkpt lat="45.77598" lon="5.87356">
        <ele>672</ele>
        <time>2022-05-01T11:16:36.413Z</time>
      </trkpt>
      <trkpt lat="45.77596" lon="5.87356">
        <ele>672</ele>
        <time>2022-05-01T11:16:37.413Z</time>
      </trkpt>
      <trkpt lat="45.77594" lon="5.87357">
        <ele>672</ele>
        <time>2022-05-01T11:16:38.413Z</time>
      </trkpt>
      <trkpt lat="45.77592" lon="5.87357">
        <ele>672</ele>
        <time>2022-05-01T11:16:39.413Z</time>
      </trkpt>
      <trkpt lat="45.7759" lon="5.87357">
        <ele>672</ele>
        <time>2022-05-01T11:16:40.413Z</time>
      </trkpt>
      <trkpt lat="45.77589" lon="5.87357">
        <ele>673</ele>
        <time>2022-05-01T11:16:41.413Z</time>
      </trkpt>
      <trkpt lat="45.77587" lon="5.87357">
        <ele>673</ele>
        <time>2022-05-01T11:16:42.413Z</time>
      </trkpt>
      <trkpt lat="45.77585" lon="5.87357">
        <ele>674</ele>
        <time>2022-05-01T11:16:43.413Z</time>
      </trkpt>
      <trkpt lat="45.77583" lon="5.87358">
        <ele>674</ele>
        <time>2022-05-01T11:16:44.413Z</time>
      </trkpt>
      <trkpt lat="45.77581" lon="5.87358">
        <ele>675</ele>
        <time>2022-05-01T11:16:45.413Z</time>
      </trkpt>
      <trkpt lat="45.7758" lon="5.87359">
        <ele>675</ele>
        <time>2022-05-01T11:16:46.413Z</time>
      </trkpt>
      <trkpt lat="45.77578" lon="5.87359">
        <ele>675</ele>
        <time>2022-05-01T11:16:47.413Z</time>
      </trkpt>
      <trkpt lat="45.77576" lon="5.87359">
        <ele>676</ele>
        <time>2022-05-01T11:16:48.413Z</time>
      </trkpt>
      <trkpt lat="45.77574" lon="5.87358">
        <ele>676</ele>
        <time>2022-05-01T11:16:49.412Z</time>
      </trkpt>
      <trkpt lat="45.77573" lon="5.87357">
        <ele>676</ele>
        <time>2022-05-01T11:16:50.413Z</time>
      </trkpt>
      <trkpt lat="45.77572" lon="5.87355">
        <ele>677</ele>
        <time>2022-05-01T11:16:51.413Z</time>
      </trkpt>
      <trkpt lat="45.77571" lon="5.87353">
        <ele>677</ele>
        <time>2022-05-01T11:16:52.412Z</time>
      </trkpt>
      <trkpt lat="45.7757" lon="5.8735">
        <ele>678</ele>
        <time>2022-05-01T11:16:53.412Z</time>
      </trkpt>
      <trkpt lat="45.7757" lon="5.87347">
        <ele>679</ele>
        <time>2022-05-01T11:16:54.413Z</time>
      </trkpt>
      <trkpt lat="45.77569" lon="5.87344">
        <ele>680</ele>
        <time>2022-05-01T11:16:55.413Z</time>
      </trkpt>
      <trkpt lat="45.77569" lon="5.87342">
        <ele>680</ele>
        <time>2022-05-01T11:16:56.413Z</time>
      </trkpt>
      <trkpt lat="45.77568" lon="5.87339">
        <ele>681</ele>
        <time>2022-05-01T11:16:57.413Z</time>
      </trkpt>
      <trkpt lat="45.77567" lon="5.87337">
        <ele>682</ele>
        <time>2022-05-01T11:16:58.413Z</time>
      </trkpt>
      <trkpt lat="45.77566" lon="5.87337">
        <ele>683</ele>
        <time>2022-05-01T11:16:59.413Z</time>
      </trkpt>
      <trkpt lat="45.77564" lon="5.87336">
        <ele>683</ele>
        <time>2022-05-01T11:17:00.413Z</time>
      </trkpt>
      <trkpt lat="45.77562" lon="5.87335">
        <ele>684</ele>
        <time>2022-05-01T11:17:01.412Z</time>
      </trkpt>
      <trkpt lat="45.7756" lon="5.87335">
        <ele>684</ele>
        <time>2022-05-01T11:17:02.412Z</time>
      </trkpt>
      <trkpt lat="45.77558" lon="5.87336">
        <ele>684</ele>
        <time>2022-05-01T11:17:03.413Z</time>
      </trkpt>
      <trkpt lat="45.77557" lon="5.87337">
        <ele>684</ele>
        <time>2022-05-01T11:17:04.413Z</time>
      </trkpt>
      <trkpt lat="45.77556" lon="5.87339">
        <ele>684</ele>
        <time>2022-05-01T11:17:05.413Z</time>
      </trkpt>
      <trkpt lat="45.77555" lon="5.87342">
        <ele>684</ele>
        <time>2022-05-01T11:17:06.412Z</time>
      </trkpt>
      <trkpt lat="45.77554" lon="5.87344">
        <ele>683</ele>
        <time>2022-05-01T11:17:07.412Z</time>
      </trkpt>
      <trkpt lat="45.77554" lon="5.87347">
        <ele>682</ele>
        <time>2022-05-01T11:17:08.413Z</time>
      </trkpt>
      <trkpt lat="45.77554" lon="5.8735">
        <ele>681</ele>
        <time>2022-05-01T11:17:09.413Z</time>
      </trkpt>
      <trkpt lat="45.77554" lon="5.87353">
        <ele>680</ele>
        <time>2022-05-01T11:17:10.413Z</time>
      </trkpt>
      <trkpt lat="45.77554" lon="5.87356">
        <ele>680</ele>
        <time>2022-05-01T11:17:11.412Z</time>
      </trkpt>
      <trkpt lat="45.77553" lon="5.87358">
        <ele>680</ele>
        <time>2022-05-01T11:17:12.412Z</time>
      </trkpt>
      <trkpt lat="45.77553" lon="5.8736">
        <ele>680</ele>
        <time>2022-05-01T11:17:13.413Z</time>
      </trkpt>
      <trkpt lat="45.77552" lon="5.87362">
        <ele>680</ele>
        <time>2022-05-01T11:17:14.413Z</time>
      </trkpt>
      <trkpt lat="45.77551" lon="5.87365">
        <ele>680</ele>
        <time>2022-05-01T11:17:15.412Z</time>
      </trkpt>
      <trkpt lat="45.7755" lon="5.87367">
        <ele>680</ele>
        <time>2022-05-01T11:17:16.413Z</time>
      </trkpt>
      <trkpt lat="45.77549" lon="5.8737">
        <ele>679</ele>
        <time>2022-05-01T11:17:17.413Z</time>
      </trkpt>
      <trkpt lat="45.77548" lon="5.87373">
        <ele>679</ele>
        <time>2022-05-01T11:17:18.412Z</time>
      </trkpt>
      <trkpt lat="45.77548" lon="5.87375">
        <ele>679</ele>
        <time>2022-05-01T11:17:19.412Z</time>
      </trkpt>
      <trkpt lat="45.77546" lon="5.87378">
        <ele>679</ele>
        <time>2022-05-01T11:17:20.413Z</time>
      </trkpt>
      <trkpt lat="45.77544" lon="5.87381">
        <ele>679</ele>
        <time>2022-05-01T11:17:21.413Z</time>
      </trkpt>
      <trkpt lat="45.77543" lon="5.87383">
        <ele>679</ele>
        <time>2022-05-01T11:17:22.412Z</time>
      </trkpt>
      <trkpt lat="45.77542" lon="5.87385">
        <ele>680</ele>
        <time>2022-05-01T11:17:23.413Z</time>
      </trkpt>
      <trkpt lat="45.7754" lon="5.87386">
        <ele>680</ele>
        <time>2022-05-01T11:17:24.412Z</time>
      </trkpt>
      <trkpt lat="45.77539" lon="5.87388">
        <ele>680</ele>
        <time>2022-05-01T11:17:25.412Z</time>
      </trkpt>
      <trkpt lat="45.77537" lon="5.87391">
        <ele>680</ele>
        <time>2022-05-01T11:17:26.413Z</time>
      </trkpt>
      <trkpt lat="45.77536" lon="5.87393">
        <ele>680</ele>
        <time>2022-05-01T11:17:27.413Z</time>
      </trkpt>
      <trkpt lat="45.77535" lon="5.87395">
        <ele>681</ele>
        <time>2022-05-01T11:17:28.413Z</time>
      </trkpt>
      <trkpt lat="45.77533" lon="5.87397">
        <ele>682</ele>
        <time>2022-05-01T11:17:29.413Z</time>
      </trkpt>
      <trkpt lat="45.77532" lon="5.874">
        <ele>683</ele>
        <time>2022-05-01T11:17:30.413Z</time>
      </trkpt>
      <trkpt lat="45.7753" lon="5.87402">
        <ele>684</ele>
        <time>2022-05-01T11:17:31.413Z</time>
      </trkpt>
      <trkpt lat="45.77529" lon="5.87405">
        <ele>685</ele>
        <time>2022-05-01T11:17:32.413Z</time>
      </trkpt>
      <trkpt lat="45.77528" lon="5.87407">
        <ele>686</ele>
        <time>2022-05-01T11:17:33.413Z</time>
      </trkpt>
      <trkpt lat="45.77527" lon="5.87409">
        <ele>687</ele>
        <time>2022-05-01T11:17:34.412Z</time>
      </trkpt>
      <trkpt lat="45.77525" lon="5.87411">
        <ele>688</ele>
        <time>2022-05-01T11:17:35.413Z</time>
      </trkpt>
      <trkpt lat="45.77524" lon="5.87413">
        <ele>689</ele>
        <time>2022-05-01T11:17:36.413Z</time>
      </trkpt>
      <trkpt lat="45.77522" lon="5.87415">
        <ele>690</ele>
        <time>2022-05-01T11:17:37.413Z</time>
      </trkpt>
      <trkpt lat="45.77521" lon="5.87416">
        <ele>690</ele>
        <time>2022-05-01T11:17:38.412Z</time>
      </trkpt>
      <trkpt lat="45.77519" lon="5.87419">
        <ele>691</ele>
        <time>2022-05-01T11:17:39.413Z</time>
      </trkpt>
      <trkpt lat="45.77518" lon="5.87421">
        <ele>692</ele>
        <time>2022-05-01T11:17:40.413Z</time>
      </trkpt>
      <trkpt lat="45.77517" lon="5.87422">
        <ele>693</ele>
        <time>2022-05-01T11:17:41.413Z</time>
      </trkpt>
      <trkpt lat="45.77515" lon="5.87424">
        <ele>694</ele>
        <time>2022-05-01T11:17:42.412Z</time>
      </trkpt>
      <trkpt lat="45.77513" lon="5.87426">
        <ele>695</ele>
        <time>2022-05-01T11:17:43.413Z</time>
      </trkpt>
      <trkpt lat="45.77512" lon="5.87428">
        <ele>695</ele>
        <time>2022-05-01T11:17:44.412Z</time>
      </trkpt>
      <trkpt lat="45.7751" lon="5.8743">
        <ele>696</ele>
        <time>2022-05-01T11:17:45.412Z</time>
      </trkpt>
      <trkpt lat="45.77508" lon="5.87432">
        <ele>697</ele>
        <time>2022-05-01T11:17:46.413Z</time>
      </trkpt>
      <trkpt lat="45.77506" lon="5.87434">
        <ele>698</ele>
        <time>2022-05-01T11:17:47.412Z</time>
      </trkpt>
      <trkpt lat="45.77504" lon="5.87436">
        <ele>698</ele>
        <time>2022-05-01T11:17:48.413Z</time>
      </trkpt>
      <trkpt lat="45.77503" lon="5.87438">
        <ele>699</ele>
        <time>2022-05-01T11:17:49.413Z</time>
      </trkpt>
      <trkpt lat="45.77501" lon="5.87439">
        <ele>700</ele>
        <time>2022-05-01T11:17:50.413Z</time>
      </trkpt>
      <trkpt lat="45.77499" lon="5.87442">
        <ele>700</ele>
        <time>2022-05-01T11:17:51.412Z</time>
      </trkpt>
      <trkpt lat="45.77498" lon="5.87444">
        <ele>701</ele>
        <time>2022-05-01T11:17:52.413Z</time>
      </trkpt>
      <trkpt lat="45.77497" lon="5.87446">
        <ele>701</ele>
        <time>2022-05-01T11:17:53.412Z</time>
      </trkpt>
      <trkpt lat="45.77495" lon="5.87449">
        <ele>701</ele>
        <time>2022-05-01T11:17:54.412Z</time>
      </trkpt>
      <trkpt lat="45.77494" lon="5.8745">
        <ele>701</ele>
        <time>2022-05-01T11:17:55.413Z</time>
      </trkpt>
      <trkpt lat="45.77493" lon="5.87452">
        <ele>701</ele>
        <time>2022-05-01T11:17:56.413Z</time>
      </trkpt>
      <trkpt lat="45.77491" lon="5.87454">
        <ele>701</ele>
        <time>2022-05-01T11:17:57.413Z</time>
      </trkpt>
      <trkpt lat="45.7749" lon="5.87456">
        <ele>701</ele>
        <time>2022-05-01T11:17:58.413Z</time>
      </trkpt>
      <trkpt lat="45.77489" lon="5.87458">
        <ele>701</ele>
        <time>2022-05-01T11:17:59.413Z</time>
      </trkpt>
      <trkpt lat="45.77487" lon="5.8746">
        <ele>701</ele>
        <time>2022-05-01T11:18:00.413Z</time>
      </trkpt>
      <trkpt lat="45.77486" lon="5.87462">
        <ele>701</ele>
        <time>2022-05-01T11:18:01.413Z</time>
      </trkpt>
      <trkpt lat="45.77485" lon="5.87465">
        <ele>701</ele>
        <time>2022-05-01T11:18:02.413Z</time>
      </trkpt>
      <trkpt lat="45.77484" lon="5.87467">
        <ele>700</ele>
        <time>2022-05-01T11:18:03.413Z</time>
      </trkpt>
      <trkpt lat="45.77483" lon="5.8747">
        <ele>700</ele>
        <time>2022-05-01T11:18:04.413Z</time>
      </trkpt>
      <trkpt lat="45.77482" lon="5.87473">
        <ele>700</ele>
        <time>2022-05-01T11:18:05.413Z</time>
      </trkpt>
      <trkpt lat="45.77482" lon="5.87476">
        <ele>700</ele>
        <time>2022-05-01T11:18:06.412Z</time>
      </trkpt>
      <trkpt lat="45.77481" lon="5.87479">
        <ele>699</ele>
        <time>2022-05-01T11:18:07.413Z</time>
      </trkpt>
      <trkpt lat="45.7748" lon="5.87482">
        <ele>699</ele>
        <time>2022-05-01T11:18:08.412Z</time>
      </trkpt>
      <trkpt lat="45.77479" lon="5.87485">
        <ele>699</ele>
        <time>2022-05-01T11:18:09.412Z</time>
      </trkpt>
      <trkpt lat="45.77478" lon="5.87487">
        <ele>698</ele>
        <time>2022-05-01T11:18:10.413Z</time>
      </trkpt>
      <trkpt lat="45.77476" lon="5.87489">
        <ele>698</ele>
        <time>2022-05-01T11:18:11.413Z</time>
      </trkpt>
      <trkpt lat="45.77475" lon="5.87491">
        <ele>698</ele>
        <time>2022-05-01T11:18:12.413Z</time>
      </trkpt>
      <trkpt lat="45.77473" lon="5.87491">
        <ele>698</ele>
        <time>2022-05-01T11:18:13.413Z</time>
      </trkpt>
      <trkpt lat="45.77471" lon="5.87491">
        <ele>698</ele>
        <time>2022-05-01T11:18:14.412Z</time>
      </trkpt>
      <trkpt lat="45.77469" lon="5.8749">
        <ele>698</ele>
        <time>2022-05-01T11:18:15.413Z</time>
      </trkpt>
      <trkpt lat="45.77468" lon="5.87489">
        <ele>699</ele>
        <time>2022-05-01T11:18:16.412Z</time>
      </trkpt>
      <trkpt lat="45.77468" lon="5.87486">
        <ele>700</ele>
        <time>2022-05-01T11:18:17.412Z</time>
      </trkpt>
      <trkpt lat="45.77468" lon="5.87484">
        <ele>700</ele>
        <time>2022-05-01T11:18:18.413Z</time>
      </trkpt>
      <trkpt lat="45.77468" lon="5.87481">
        <ele>700</ele>
        <time>2022-05-01T11:18:19.413Z</time>
      </trkpt>
      <trkpt lat="45.77469" lon="5.87478">
        <ele>700</ele>
        <time>2022-05-01T11:18:20.413Z</time>
      </trkpt>
      <trkpt lat="45.77469" lon="5.87475">
        <ele>700</ele>
        <time>2022-05-01T11:18:21.413Z</time>
      </trkpt>
      <trkpt lat="45.77471" lon="5.87473">
        <ele>700</ele>
        <time>2022-05-01T11:18:22.413Z</time>
      </trkpt>
      <trkpt lat="45.77472" lon="5.8747">
        <ele>700</ele>
        <time>2022-05-01T11:18:23.412Z</time>
      </trkpt>
      <trkpt lat="45.77473" lon="5.87468">
        <ele>700</ele>
        <time>2022-05-01T11:18:24.412Z</time>
      </trkpt>
      <trkpt lat="45.77474" lon="5.87465">
        <ele>701</ele>
        <time>2022-05-01T11:18:25.413Z</time>
      </trkpt>
      <trkpt lat="45.77475" lon="5.87462">
        <ele>701</ele>
        <time>2022-05-01T11:18:26.413Z</time>
      </trkpt>
      <trkpt lat="45.77475" lon="5.8746">
        <ele>701</ele>
        <time>2022-05-01T11:18:27.413Z</time>
      </trkpt>
      <trkpt lat="45.77475" lon="5.87457">
        <ele>702</ele>
        <time>2022-05-01T11:18:28.413Z</time>
      </trkpt>
      <trkpt lat="45.77475" lon="5.87454">
        <ele>702</ele>
        <time>2022-05-01T11:18:29.412Z</time>
      </trkpt>
      <trkpt lat="45.77475" lon="5.87451">
        <ele>702</ele>
        <time>2022-05-01T11:18:30.412Z</time>
      </trkpt>
      <trkpt lat="45.77474" lon="5.87449">
        <ele>702</ele>
        <time>2022-05-01T11:18:31.413Z</time>
      </trkpt>
      <trkpt lat="45.77473" lon="5.87446">
        <ele>702</ele>
        <time>2022-05-01T11:18:32.413Z</time>
      </trkpt>
      <trkpt lat="45.77472" lon="5.87443">
        <ele>703</ele>
        <time>2022-05-01T11:18:33.413Z</time>
      </trkpt>
      <trkpt lat="45.77471" lon="5.87441">
        <ele>703</ele>
        <time>2022-05-01T11:18:34.412Z</time>
      </trkpt>
      <trkpt lat="45.7747" lon="5.87439">
        <ele>703</ele>
        <time>2022-05-01T11:18:35.413Z</time>
      </trkpt>
      <trkpt lat="45.77468" lon="5.87437">
        <ele>703</ele>
        <time>2022-05-01T11:18:36.412Z</time>
      </trkpt>
      <trkpt lat="45.77466" lon="5.87435">
        <ele>704</ele>
        <time>2022-05-01T11:18:37.413Z</time>
      </trkpt>
      <trkpt lat="45.77464" lon="5.87434">
        <ele>704</ele>
        <time>2022-05-01T11:18:38.412Z</time>
      </trkpt>
      <trkpt lat="45.77463" lon="5.87433">
        <ele>704</ele>
        <time>2022-05-01T11:18:39.413Z</time>
      </trkpt>
      <trkpt lat="45.7746" lon="5.87433">
        <ele>704</ele>
        <time>2022-05-01T11:18:40.413Z</time>
      </trkpt>
      <trkpt lat="45.77458" lon="5.87433">
        <ele>705</ele>
        <time>2022-05-01T11:18:41.413Z</time>
      </trkpt>
      <trkpt lat="45.77456" lon="5.87433">
        <ele>705</ele>
        <time>2022-05-01T11:18:42.413Z</time>
      </trkpt>
      <trkpt lat="45.77453" lon="5.87433">
        <ele>706</ele>
        <time>2022-05-01T11:18:43.412Z</time>
      </trkpt>
      <trkpt lat="45.77451" lon="5.87433">
        <ele>706</ele>
        <time>2022-05-01T11:18:44.412Z</time>
      </trkpt>
      <trkpt lat="45.77449" lon="5.87433">
        <ele>707</ele>
        <time>2022-05-01T11:18:45.413Z</time>
      </trkpt>
      <trkpt lat="45.77446" lon="5.87433">
        <ele>707</ele>
        <time>2022-05-01T11:18:46.412Z</time>
      </trkpt>
      <trkpt lat="45.77444" lon="5.87433">
        <ele>707</ele>
        <time>2022-05-01T11:18:47.412Z</time>
      </trkpt>
      <trkpt lat="45.77442" lon="5.87433">
        <ele>708</ele>
        <time>2022-05-01T11:18:48.413Z</time>
      </trkpt>
      <trkpt lat="45.7744" lon="5.87434">
        <ele>708</ele>
        <time>2022-05-01T11:18:49.413Z</time>
      </trkpt>
      <trkpt lat="45.77438" lon="5.87434">
        <ele>709</ele>
        <time>2022-05-01T11:18:50.412Z</time>
      </trkpt>
      <trkpt lat="45.77435" lon="5.87435">
        <ele>709</ele>
        <time>2022-05-01T11:18:51.413Z</time>
      </trkpt>
      <trkpt lat="45.77433" lon="5.87436">
        <ele>710</ele>
        <time>2022-05-01T11:18:52.413Z</time>
      </trkpt>
      <trkpt lat="45.77431" lon="5.87437">
        <ele>710</ele>
        <time>2022-05-01T11:18:53.413Z</time>
      </trkpt>
      <trkpt lat="45.77429" lon="5.87438">
        <ele>710</ele>
        <time>2022-05-01T11:18:54.413Z</time>
      </trkpt>
      <trkpt lat="45.77427" lon="5.87439">
        <ele>710</ele>
        <time>2022-05-01T11:18:55.413Z</time>
      </trkpt>
      <trkpt lat="45.77425" lon="5.87441">
        <ele>711</ele>
        <time>2022-05-01T11:18:56.413Z</time>
      </trkpt>
      <trkpt lat="45.77423" lon="5.87442">
        <ele>711</ele>
        <time>2022-05-01T11:18:57.413Z</time>
      </trkpt>
      <trkpt lat="45.77422" lon="5.87445">
        <ele>710</ele>
        <time>2022-05-01T11:18:58.413Z</time>
      </trkpt>
      <trkpt lat="45.7742" lon="5.87447">
        <ele>710</ele>
        <time>2022-05-01T11:18:59.413Z</time>
      </trkpt>
      <trkpt lat="45.77419" lon="5.87451">
        <ele>711</ele>
        <time>2022-05-01T11:19:00.412Z</time>
      </trkpt>
      <trkpt lat="45.77418" lon="5.87454">
        <ele>711</ele>
        <time>2022-05-01T11:19:01.413Z</time>
      </trkpt>
      <trkpt lat="45.77417" lon="5.87457">
        <ele>711</ele>
        <time>2022-05-01T11:19:02.412Z</time>
      </trkpt>
      <trkpt lat="45.77416" lon="5.8746">
        <ele>710</ele>
        <time>2022-05-01T11:19:03.413Z</time>
      </trkpt>
      <trkpt lat="45.77415" lon="5.87463">
        <ele>710</ele>
        <time>2022-05-01T11:19:04.413Z</time>
      </trkpt>
      <trkpt lat="45.77415" lon="5.87467">
        <ele>711</ele>
        <time>2022-05-01T11:19:05.413Z</time>
      </trkpt>
      <trkpt lat="45.77414" lon="5.8747">
        <ele>712</ele>
        <time>2022-05-01T11:19:06.413Z</time>
      </trkpt>
      <trkpt lat="45.77414" lon="5.87473">
        <ele>712</ele>
        <time>2022-05-01T11:19:07.413Z</time>
      </trkpt>
      <trkpt lat="45.77413" lon="5.87477">
        <ele>713</ele>
        <time>2022-05-01T11:19:08.413Z</time>
      </trkpt>
      <trkpt lat="45.77412" lon="5.8748">
        <ele>713</ele>
        <time>2022-05-01T11:19:09.413Z</time>
      </trkpt>
      <trkpt lat="45.77411" lon="5.87483">
        <ele>713</ele>
        <time>2022-05-01T11:19:10.412Z</time>
      </trkpt>
      <trkpt lat="45.7741" lon="5.87485">
        <ele>713</ele>
        <time>2022-05-01T11:19:11.413Z</time>
      </trkpt>
      <trkpt lat="45.77408" lon="5.87487">
        <ele>714</ele>
        <time>2022-05-01T11:19:12.413Z</time>
      </trkpt>
      <trkpt lat="45.77406" lon="5.8749">
        <ele>714</ele>
        <time>2022-05-01T11:19:13.413Z</time>
      </trkpt>
      <trkpt lat="45.77404" lon="5.87491">
        <ele>715</ele>
        <time>2022-05-01T11:19:14.413Z</time>
      </trkpt>
      <trkpt lat="45.77402" lon="5.87493">
        <ele>716</ele>
        <time>2022-05-01T11:19:15.412Z</time>
      </trkpt>
      <trkpt lat="45.774" lon="5.87493">
        <ele>716</ele>
        <time>2022-05-01T11:19:16.413Z</time>
      </trkpt>
      <trkpt lat="45.77398" lon="5.87494">
        <ele>717</ele>
        <time>2022-05-01T11:19:17.412Z</time>
      </trkpt>
      <trkpt lat="45.77395" lon="5.87495">
        <ele>717</ele>
        <time>2022-05-01T11:19:18.413Z</time>
      </trkpt>
      <trkpt lat="45.77394" lon="5.87497">
        <ele>717</ele>
        <time>2022-05-01T11:19:19.413Z</time>
      </trkpt>
      <trkpt lat="45.77392" lon="5.87497">
        <ele>717</ele>
        <time>2022-05-01T11:19:20.412Z</time>
      </trkpt>
      <trkpt lat="45.7739" lon="5.87498">
        <ele>717</ele>
        <time>2022-05-01T11:19:21.413Z</time>
      </trkpt>
      <trkpt lat="45.77387" lon="5.87499">
        <ele>716</ele>
        <time>2022-05-01T11:19:22.413Z</time>
      </trkpt>
      <trkpt lat="45.77385" lon="5.875">
        <ele>716</ele>
        <time>2022-05-01T11:19:23.413Z</time>
      </trkpt>
      <trkpt lat="45.77383" lon="5.87502">
        <ele>715</ele>
        <time>2022-05-01T11:19:24.413Z</time>
      </trkpt>
      <trkpt lat="45.77381" lon="5.87502">
        <ele>714</ele>
        <time>2022-05-01T11:19:25.413Z</time>
      </trkpt>
      <trkpt lat="45.77378" lon="5.87502">
        <ele>714</ele>
        <time>2022-05-01T11:19:26.412Z</time>
      </trkpt>
      <trkpt lat="45.77377" lon="5.87503">
        <ele>713</ele>
        <time>2022-05-01T11:19:27.413Z</time>
      </trkpt>
      <trkpt lat="45.77375" lon="5.87505">
        <ele>713</ele>
        <time>2022-05-01T11:19:28.413Z</time>
      </trkpt>
      <trkpt lat="45.77373" lon="5.87506">
        <ele>713</ele>
        <time>2022-05-01T11:19:29.413Z</time>
      </trkpt>
      <trkpt lat="45.77371" lon="5.87508">
        <ele>714</ele>
        <time>2022-05-01T11:19:30.413Z</time>
      </trkpt>
      <trkpt lat="45.7737" lon="5.8751">
        <ele>715</ele>
        <time>2022-05-01T11:19:31.413Z</time>
      </trkpt>
      <trkpt lat="45.77368" lon="5.87512">
        <ele>716</ele>
        <time>2022-05-01T11:19:32.413Z</time>
      </trkpt>
      <trkpt lat="45.77366" lon="5.87514">
        <ele>716</ele>
        <time>2022-05-01T11:19:33.413Z</time>
      </trkpt>
      <trkpt lat="45.77364" lon="5.87516">
        <ele>717</ele>
        <time>2022-05-01T11:19:34.412Z</time>
      </trkpt>
      <trkpt lat="45.77363" lon="5.87518">
        <ele>717</ele>
        <time>2022-05-01T11:19:35.413Z</time>
      </trkpt>
      <trkpt lat="45.77361" lon="5.8752">
        <ele>717</ele>
        <time>2022-05-01T11:19:36.413Z</time>
      </trkpt>
      <trkpt lat="45.7736" lon="5.87522">
        <ele>716</ele>
        <time>2022-05-01T11:19:37.413Z</time>
      </trkpt>
      <trkpt lat="45.77358" lon="5.87524">
        <ele>717</ele>
        <time>2022-05-01T11:19:38.412Z</time>
      </trkpt>
      <trkpt lat="45.77357" lon="5.87525">
        <ele>717</ele>
        <time>2022-05-01T11:19:39.412Z</time>
      </trkpt>
      <trkpt lat="45.77355" lon="5.87527">
        <ele>717</ele>
        <time>2022-05-01T11:19:40.413Z</time>
      </trkpt>
      <trkpt lat="45.77353" lon="5.87527">
        <ele>717</ele>
        <time>2022-05-01T11:19:41.412Z</time>
      </trkpt>
      <trkpt lat="45.77351" lon="5.87528">
        <ele>717</ele>
        <time>2022-05-01T11:19:42.412Z</time>
      </trkpt>
      <trkpt lat="45.77349" lon="5.87528">
        <ele>717</ele>
        <time>2022-05-01T11:19:43.412Z</time>
      </trkpt>
      <trkpt lat="45.77347" lon="5.87528">
        <ele>718</ele>
        <time>2022-05-01T11:19:44.413Z</time>
      </trkpt>
      <trkpt lat="45.77345" lon="5.87526">
        <ele>718</ele>
        <time>2022-05-01T11:19:45.413Z</time>
      </trkpt>
      <trkpt lat="45.77344" lon="5.87524">
        <ele>718</ele>
        <time>2022-05-01T11:19:46.413Z</time>
      </trkpt>
      <trkpt lat="45.77344" lon="5.87521">
        <ele>718</ele>
        <time>2022-05-01T11:19:47.413Z</time>
      </trkpt>
      <trkpt lat="45.77343" lon="5.87518">
        <ele>719</ele>
        <time>2022-05-01T11:19:48.413Z</time>
      </trkpt>
      <trkpt lat="45.77343" lon="5.87516">
        <ele>719</ele>
        <time>2022-05-01T11:19:49.412Z</time>
      </trkpt>
      <trkpt lat="45.77343" lon="5.87513">
        <ele>718</ele>
        <time>2022-05-01T11:19:50.413Z</time>
      </trkpt>
      <trkpt lat="45.77343" lon="5.8751">
        <ele>718</ele>
        <time>2022-05-01T11:19:51.413Z</time>
      </trkpt>
      <trkpt lat="45.77343" lon="5.87508">
        <ele>717</ele>
        <time>2022-05-01T11:19:52.413Z</time>
      </trkpt>
      <trkpt lat="45.77344" lon="5.87506">
        <ele>717</ele>
        <time>2022-05-01T11:19:53.413Z</time>
      </trkpt>
      <trkpt lat="45.77345" lon="5.87505">
        <ele>716</ele>
        <time>2022-05-01T11:19:54.413Z</time>
      </trkpt>
      <trkpt lat="45.77345" lon="5.87505">
        <ele>716</ele>
        <time>2022-05-01T11:19:55.413Z</time>
      </trkpt>
      <trkpt lat="45.77345" lon="5.87505">
        <ele>716</ele>
        <time>2022-05-01T11:19:56.413Z</time>
      </trkpt>
      <trkpt lat="45.77345" lon="5.87504">
        <ele>716</ele>
        <time>2022-05-01T11:20:00.438Z</time>
      </trkpt>
      <trkpt lat="45.77344" lon="5.87503">
        <ele>717</ele>
        <time>2022-05-01T11:20:01.438Z</time>
      </trkpt>
      <trkpt lat="45.77344" lon="5.87503">
        <ele>719</ele>
        <time>2022-05-01T11:20:06.316Z</time>
      </trkpt>
      <trkpt lat="45.7735" lon="5.87503">
        <ele>722</ele>
        <time>2022-05-01T11:22:04.080Z</time>
      </trkpt>
      <trkpt lat="45.77351" lon="5.87501">
        <ele>722</ele>
        <time>2022-05-01T11:22:05.080Z</time>
      </trkpt>
      <trkpt lat="45.77353" lon="5.87499">
        <ele>722</ele>
        <time>2022-05-01T11:22:06.079Z</time>
      </trkpt>
      <trkpt lat="45.77355" lon="5.87496">
        <ele>722</ele>
        <time>2022-05-01T11:22:07.079Z</time>
      </trkpt>
      <trkpt lat="45.77357" lon="5.87494">
        <ele>722</ele>
        <time>2022-05-01T11:22:08.079Z</time>
      </trkpt>
      <trkpt lat="45.77358" lon="5.87491">
        <ele>722</ele>
        <time>2022-05-01T11:22:09.080Z</time>
      </trkpt>
      <trkpt lat="45.7736" lon="5.87489">
        <ele>723</ele>
        <time>2022-05-01T11:22:10.079Z</time>
      </trkpt>
      <trkpt lat="45.77362" lon="5.87486">
        <ele>723</ele>
        <time>2022-05-01T11:22:11.079Z</time>
      </trkpt>
      <trkpt lat="45.77363" lon="5.87484">
        <ele>723</ele>
        <time>2022-05-01T11:22:12.079Z</time>
      </trkpt>
      <trkpt lat="45.77365" lon="5.87482">
        <ele>723</ele>
        <time>2022-05-01T11:22:13.079Z</time>
      </trkpt>
      <trkpt lat="45.77366" lon="5.8748">
        <ele>723</ele>
        <time>2022-05-01T11:22:14.080Z</time>
      </trkpt>
      <trkpt lat="45.77368" lon="5.87478">
        <ele>724</ele>
        <time>2022-05-01T11:22:15.080Z</time>
      </trkpt>
      <trkpt lat="45.7737" lon="5.87477">
        <ele>724</ele>
        <time>2022-05-01T11:22:16.079Z</time>
      </trkpt>
      <trkpt lat="45.77371" lon="5.87475">
        <ele>724</ele>
        <time>2022-05-01T11:22:17.079Z</time>
      </trkpt>
      <trkpt lat="45.77372" lon="5.87473">
        <ele>724</ele>
        <time>2022-05-01T11:22:18.080Z</time>
      </trkpt>
      <trkpt lat="45.77373" lon="5.87471">
        <ele>725</ele>
        <time>2022-05-01T11:22:19.080Z</time>
      </trkpt>
      <trkpt lat="45.77375" lon="5.8747">
        <ele>725</ele>
        <time>2022-05-01T11:22:20.080Z</time>
      </trkpt>
      <trkpt lat="45.77375" lon="5.87467">
        <ele>725</ele>
        <time>2022-05-01T11:22:21.079Z</time>
      </trkpt>
      <trkpt lat="45.77376" lon="5.87465">
        <ele>726</ele>
        <time>2022-05-01T11:22:22.079Z</time>
      </trkpt>
      <trkpt lat="45.77377" lon="5.87463">
        <ele>726</ele>
        <time>2022-05-01T11:22:23.080Z</time>
      </trkpt>
      <trkpt lat="45.77378" lon="5.8746">
        <ele>726</ele>
        <time>2022-05-01T11:22:24.080Z</time>
      </trkpt>
      <trkpt lat="45.77379" lon="5.87457">
        <ele>726</ele>
        <time>2022-05-01T11:22:25.080Z</time>
      </trkpt>
      <trkpt lat="45.7738" lon="5.87454">
        <ele>726</ele>
        <time>2022-05-01T11:22:26.079Z</time>
      </trkpt>
      <trkpt lat="45.77381" lon="5.87452">
        <ele>726</ele>
        <time>2022-05-01T11:22:27.079Z</time>
      </trkpt>
      <trkpt lat="45.77382" lon="5.8745">
        <ele>726</ele>
        <time>2022-05-01T11:22:28.080Z</time>
      </trkpt>
      <trkpt lat="45.77384" lon="5.87447">
        <ele>726</ele>
        <time>2022-05-01T11:22:29.080Z</time>
      </trkpt>
      <trkpt lat="45.77384" lon="5.87444">
        <ele>726</ele>
        <time>2022-05-01T11:22:30.080Z</time>
      </trkpt>
      <trkpt lat="45.77385" lon="5.87441">
        <ele>726</ele>
        <time>2022-05-01T11:22:31.079Z</time>
      </trkpt>
      <trkpt lat="45.77386" lon="5.87438">
        <ele>726</ele>
        <time>2022-05-01T11:22:32.079Z</time>
      </trkpt>
      <trkpt lat="45.77387" lon="5.87435">
        <ele>726</ele>
        <time>2022-05-01T11:22:33.079Z</time>
      </trkpt>
      <trkpt lat="45.77387" lon="5.87432">
        <ele>725</ele>
        <time>2022-05-01T11:22:34.080Z</time>
      </trkpt>
      <trkpt lat="45.77387" lon="5.87429">
        <ele>725</ele>
        <time>2022-05-01T11:22:35.079Z</time>
      </trkpt>
      <trkpt lat="45.77387" lon="5.87426">
        <ele>725</ele>
        <time>2022-05-01T11:22:36.079Z</time>
      </trkpt>
      <trkpt lat="45.77387" lon="5.87423">
        <ele>725</ele>
        <time>2022-05-01T11:22:37.079Z</time>
      </trkpt>
      <trkpt lat="45.77387" lon="5.8742">
        <ele>724</ele>
        <time>2022-05-01T11:22:38.079Z</time>
      </trkpt>
      <trkpt lat="45.77387" lon="5.87417">
        <ele>724</ele>
        <time>2022-05-01T11:22:39.079Z</time>
      </trkpt>
      <trkpt lat="45.77387" lon="5.87414">
        <ele>723</ele>
        <time>2022-05-01T11:22:40.080Z</time>
      </trkpt>
      <trkpt lat="45.77387" lon="5.87411">
        <ele>723</ele>
        <time>2022-05-01T11:22:41.080Z</time>
      </trkpt>
      <trkpt lat="45.77386" lon="5.87408">
        <ele>723</ele>
        <time>2022-05-01T11:22:42.080Z</time>
      </trkpt>
      <trkpt lat="45.77386" lon="5.87406">
        <ele>723</ele>
        <time>2022-05-01T11:22:43.080Z</time>
      </trkpt>
      <trkpt lat="45.77386" lon="5.87403">
        <ele>723</ele>
        <time>2022-05-01T11:22:44.080Z</time>
      </trkpt>
      <trkpt lat="45.77385" lon="5.87401">
        <ele>724</ele>
        <time>2022-05-01T11:22:45.079Z</time>
      </trkpt>
      <trkpt lat="45.77384" lon="5.874">
        <ele>724</ele>
        <time>2022-05-01T11:22:46.080Z</time>
      </trkpt>
      <trkpt lat="45.77382" lon="5.87398">
        <ele>724</ele>
        <time>2022-05-01T11:22:47.080Z</time>
      </trkpt>
      <trkpt lat="45.77381" lon="5.87397">
        <ele>724</ele>
        <time>2022-05-01T11:22:48.080Z</time>
      </trkpt>
      <trkpt lat="45.77379" lon="5.87397">
        <ele>725</ele>
        <time>2022-05-01T11:22:49.080Z</time>
      </trkpt>
      <trkpt lat="45.77378" lon="5.87396">
        <ele>725</ele>
        <time>2022-05-01T11:22:50.080Z</time>
      </trkpt>
      <trkpt lat="45.77376" lon="5.87397">
        <ele>725</ele>
        <time>2022-05-01T11:22:51.080Z</time>
      </trkpt>
      <trkpt lat="45.77374" lon="5.87397">
        <ele>725</ele>
        <time>2022-05-01T11:22:52.080Z</time>
      </trkpt>
      <trkpt lat="45.77373" lon="5.87397">
        <ele>725</ele>
        <time>2022-05-01T11:22:53.080Z</time>
      </trkpt>
      <trkpt lat="45.77371" lon="5.87398">
        <ele>725</ele>
        <time>2022-05-01T11:22:54.079Z</time>
      </trkpt>
      <trkpt lat="45.7737" lon="5.87399">
        <ele>726</ele>
        <time>2022-05-01T11:22:55.080Z</time>
      </trkpt>
      <trkpt lat="45.7737" lon="5.87399">
        <ele>726</ele>
        <time>2022-05-01T11:22:56.079Z</time>
      </trkpt>
      <trkpt lat="45.77369" lon="5.874">
        <ele>726</ele>
        <time>2022-05-01T11:22:57.080Z</time>
      </trkpt>
      <trkpt lat="45.77369" lon="5.874">
        <ele>727</ele>
        <time>2022-05-01T11:22:58.080Z</time>
      </trkpt>
      <trkpt lat="45.77369" lon="5.874">
        <ele>727</ele>
        <time>2022-05-01T11:22:59.080Z</time>
      </trkpt>
      <trkpt lat="45.77368" lon="5.874">
        <ele>726</ele>
        <time>2022-05-01T11:23:00.080Z</time>
      </trkpt>
      <trkpt lat="45.77367" lon="5.87401">
        <ele>726</ele>
        <time>2022-05-01T11:23:01.079Z</time>
      </trkpt>
      <trkpt lat="45.77366" lon="5.87402">
        <ele>727</ele>
        <time>2022-05-01T11:23:02.080Z</time>
      </trkpt>
      <trkpt lat="45.77365" lon="5.87403">
        <ele>727</ele>
        <time>2022-05-01T11:23:03.080Z</time>
      </trkpt>
      <trkpt lat="45.77364" lon="5.87404">
        <ele>727</ele>
        <time>2022-05-01T11:23:04.080Z</time>
      </trkpt>
      <trkpt lat="45.77363" lon="5.87406">
        <ele>727</ele>
        <time>2022-05-01T11:23:05.080Z</time>
      </trkpt>
      <trkpt lat="45.77362" lon="5.87407">
        <ele>727</ele>
        <time>2022-05-01T11:23:06.079Z</time>
      </trkpt>
      <trkpt lat="45.77361" lon="5.87409">
        <ele>727</ele>
        <time>2022-05-01T11:23:07.080Z</time>
      </trkpt>
      <trkpt lat="45.77359" lon="5.87411">
        <ele>727</ele>
        <time>2022-05-01T11:23:08.080Z</time>
      </trkpt>
      <trkpt lat="45.77358" lon="5.87413">
        <ele>727</ele>
        <time>2022-05-01T11:23:09.080Z</time>
      </trkpt>
      <trkpt lat="45.77356" lon="5.87414">
        <ele>726</ele>
        <time>2022-05-01T11:23:10.080Z</time>
      </trkpt>
      <trkpt lat="45.77354" lon="5.87415">
        <ele>726</ele>
        <time>2022-05-01T11:23:11.080Z</time>
      </trkpt>
      <trkpt lat="45.77353" lon="5.87415">
        <ele>726</ele>
        <time>2022-05-01T11:23:12.080Z</time>
      </trkpt>
      <trkpt lat="45.77352" lon="5.87416">
        <ele>726</ele>
        <time>2022-05-01T11:23:13.080Z</time>
      </trkpt>
      <trkpt lat="45.77351" lon="5.87416">
        <ele>726</ele>
        <time>2022-05-01T11:23:14.080Z</time>
      </trkpt>
      <trkpt lat="45.77351" lon="5.87416">
        <ele>726</ele>
        <time>2022-05-01T11:23:15.080Z</time>
      </trkpt>
      <trkpt lat="45.77351" lon="5.87417">
        <ele>726</ele>
        <time>2022-05-01T11:23:16.080Z</time>
      </trkpt>
      <trkpt lat="45.7735" lon="5.87417">
        <ele>726</ele>
        <time>2022-05-01T11:23:17.080Z</time>
      </trkpt>
      <trkpt lat="45.7735" lon="5.87417">
        <ele>726</ele>
        <time>2022-05-01T11:23:18.080Z</time>
      </trkpt>
      <trkpt lat="45.77349" lon="5.87418">
        <ele>727</ele>
        <time>2022-05-01T11:23:19.079Z</time>
      </trkpt>
      <trkpt lat="45.77348" lon="5.87418">
        <ele>727</ele>
        <time>2022-05-01T11:23:20.080Z</time>
      </trkpt>
      <trkpt lat="45.77347" lon="5.87418">
        <ele>728</ele>
        <time>2022-05-01T11:23:21.080Z</time>
      </trkpt>
      <trkpt lat="45.77347" lon="5.87417">
        <ele>728</ele>
        <time>2022-05-01T11:23:22.080Z</time>
      </trkpt>
      <trkpt lat="45.77346" lon="5.87417">
        <ele>727</ele>
        <time>2022-05-01T11:23:23.080Z</time>
      </trkpt>
      <trkpt lat="45.77346" lon="5.87416">
        <ele>728</ele>
        <time>2022-05-01T11:23:24.080Z</time>
      </trkpt>
      <trkpt lat="45.77345" lon="5.87415">
        <ele>728</ele>
        <time>2022-05-01T11:23:25.079Z</time>
      </trkpt>
      <trkpt lat="45.77345" lon="5.87415">
        <ele>728</ele>
        <time>2022-05-01T11:23:26.080Z</time>
      </trkpt>
      <trkpt lat="45.77344" lon="5.87415">
        <ele>728</ele>
        <time>2022-05-01T11:23:27.080Z</time>
      </trkpt>
      <trkpt lat="45.77344" lon="5.87414">
        <ele>728</ele>
        <time>2022-05-01T11:23:28.080Z</time>
      </trkpt>
      <trkpt lat="45.77343" lon="5.87414">
        <ele>729</ele>
        <time>2022-05-01T11:23:29.079Z</time>
      </trkpt>
      <trkpt lat="45.77343" lon="5.87413">
        <ele>729</ele>
        <time>2022-05-01T11:23:30.080Z</time>
      </trkpt>
      <trkpt lat="45.77343" lon="5.87412">
        <ele>729</ele>
        <time>2022-05-01T11:23:31.079Z</time>
      </trkpt>
      <trkpt lat="45.77343" lon="5.87412">
        <ele>729</ele>
        <time>2022-05-01T11:23:32.080Z</time>
      </trkpt>
      <trkpt lat="45.77344" lon="5.87412">
        <ele>729</ele>
        <time>2022-05-01T11:23:33.080Z</time>
      </trkpt>
      <trkpt lat="45.77345" lon="5.87411">
        <ele>729</ele>
        <time>2022-05-01T11:23:34.079Z</time>
      </trkpt>
      <trkpt lat="45.77345" lon="5.8741">
        <ele>729</ele>
        <time>2022-05-01T11:23:35.080Z</time>
      </trkpt>
      <trkpt lat="45.77345" lon="5.8741">
        <ele>728</ele>
        <time>2022-05-01T11:23:36.080Z</time>
      </trkpt>
      <trkpt lat="45.77346" lon="5.87409">
        <ele>728</ele>
        <time>2022-05-01T11:23:37.080Z</time>
      </trkpt>
      <trkpt lat="45.77346" lon="5.87408">
        <ele>727</ele>
        <time>2022-05-01T11:23:38.080Z</time>
      </trkpt>
      <trkpt lat="45.77346" lon="5.87407">
        <ele>727</ele>
        <time>2022-05-01T11:23:39.079Z</time>
      </trkpt>
      <trkpt lat="45.77347" lon="5.87406">
        <ele>726</ele>
        <time>2022-05-01T11:23:40.079Z</time>
      </trkpt>
      <trkpt lat="45.77347" lon="5.87405">
        <ele>726</ele>
        <time>2022-05-01T11:23:41.080Z</time>
      </trkpt>
      <trkpt lat="45.77348" lon="5.87405">
        <ele>725</ele>
        <time>2022-05-01T11:23:42.080Z</time>
      </trkpt>
      <trkpt lat="45.77348" lon="5.87404">
        <ele>725</ele>
        <time>2022-05-01T11:23:43.080Z</time>
      </trkpt>
      <trkpt lat="45.77348" lon="5.87401">
        <ele>725</ele>
        <time>2022-05-01T11:23:46.190Z</time>
      </trkpt>
      <trkpt lat="45.77348" lon="5.87399">
        <ele>724</ele>
        <time>2022-05-01T11:23:47.190Z</time>
      </trkpt>
      <trkpt lat="45.77348" lon="5.87397">
        <ele>724</ele>
        <time>2022-05-01T11:23:48.189Z</time>
      </trkpt>
      <trkpt lat="45.77348" lon="5.87395">
        <ele>723</ele>
        <time>2022-05-01T11:23:49.190Z</time>
      </trkpt>
      <trkpt lat="45.77348" lon="5.87393">
        <ele>723</ele>
        <time>2022-05-01T11:23:50.190Z</time>
      </trkpt>
      <trkpt lat="45.77348" lon="5.87391">
        <ele>723</ele>
        <time>2022-05-01T11:23:51.190Z</time>
      </trkpt>
      <trkpt lat="45.77348" lon="5.87389">
        <ele>723</ele>
        <time>2022-05-01T11:23:52.189Z</time>
      </trkpt>
      <trkpt lat="45.77348" lon="5.87387">
        <ele>723</ele>
        <time>2022-05-01T11:23:53.189Z</time>
      </trkpt>
      <trkpt lat="45.77349" lon="5.87386">
        <ele>722</ele>
        <time>2022-05-01T11:23:54.190Z</time>
      </trkpt>
      <trkpt lat="45.77349" lon="5.87385">
        <ele>722</ele>
        <time>2022-05-01T11:23:55.190Z</time>
      </trkpt>
      <trkpt lat="45.7735" lon="5.87385">
        <ele>721</ele>
        <time>2022-05-01T11:23:56.189Z</time>
      </trkpt>
      <trkpt lat="45.7735" lon="5.87384">
        <ele>721</ele>
        <time>2022-05-01T11:23:57.189Z</time>
      </trkpt>
      <trkpt lat="45.7735" lon="5.87383">
        <ele>720</ele>
        <time>2022-05-01T11:23:58.190Z</time>
      </trkpt>
      <trkpt lat="45.77351" lon="5.87382">
        <ele>719</ele>
        <time>2022-05-01T11:23:59.189Z</time>
      </trkpt>
      <trkpt lat="45.77351" lon="5.87382">
        <ele>719</ele>
        <time>2022-05-01T11:24:00.190Z</time>
      </trkpt>
      <trkpt lat="45.77352" lon="5.87381">
        <ele>719</ele>
        <time>2022-05-01T11:24:01.189Z</time>
      </trkpt>
      <trkpt lat="45.77352" lon="5.8738">
        <ele>719</ele>
        <time>2022-05-01T11:24:02.190Z</time>
      </trkpt>
      <trkpt lat="45.77353" lon="5.87379">
        <ele>719</ele>
        <time>2022-05-01T11:24:03.189Z</time>
      </trkpt>
      <trkpt lat="45.77353" lon="5.87378">
        <ele>719</ele>
        <time>2022-05-01T11:24:04.190Z</time>
      </trkpt>
      <trkpt lat="45.77353" lon="5.87377">
        <ele>719</ele>
        <time>2022-05-01T11:24:05.189Z</time>
      </trkpt>
      <trkpt lat="45.77354" lon="5.87376">
        <ele>719</ele>
        <time>2022-05-01T11:24:06.189Z</time>
      </trkpt>
      <trkpt lat="45.77354" lon="5.87375">
        <ele>719</ele>
        <time>2022-05-01T11:24:07.190Z</time>
      </trkpt>
      <trkpt lat="45.77354" lon="5.87374">
        <ele>719</ele>
        <time>2022-05-01T11:24:08.190Z</time>
      </trkpt>
      <trkpt lat="45.77354" lon="5.87373">
        <ele>719</ele>
        <time>2022-05-01T11:24:09.190Z</time>
      </trkpt>
      <trkpt lat="45.77355" lon="5.87372">
        <ele>719</ele>
        <time>2022-05-01T11:24:10.190Z</time>
      </trkpt>
      <trkpt lat="45.77355" lon="5.87371">
        <ele>719</ele>
        <time>2022-05-01T11:24:11.190Z</time>
      </trkpt>
      <trkpt lat="45.77355" lon="5.87369">
        <ele>719</ele>
        <time>2022-05-01T11:24:12.189Z</time>
      </trkpt>
      <trkpt lat="45.77355" lon="5.87368">
        <ele>720</ele>
        <time>2022-05-01T11:24:13.189Z</time>
      </trkpt>
      <trkpt lat="45.77355" lon="5.87367">
        <ele>720</ele>
        <time>2022-05-01T11:24:14.190Z</time>
      </trkpt>
      <trkpt lat="45.77354" lon="5.87366">
        <ele>720</ele>
        <time>2022-05-01T11:24:15.190Z</time>
      </trkpt>
      <trkpt lat="45.77353" lon="5.87365">
        <ele>719</ele>
        <time>2022-05-01T11:24:16.189Z</time>
      </trkpt>
      <trkpt lat="45.77353" lon="5.87365">
        <ele>719</ele>
        <time>2022-05-01T11:24:17.189Z</time>
      </trkpt>
      <trkpt lat="45.77352" lon="5.87365">
        <ele>719</ele>
        <time>2022-05-01T11:24:18.189Z</time>
      </trkpt>
      <trkpt lat="45.77351" lon="5.87365">
        <ele>718</ele>
        <time>2022-05-01T11:24:19.190Z</time>
      </trkpt>
      <trkpt lat="45.77351" lon="5.87365">
        <ele>718</ele>
        <time>2022-05-01T11:24:20.190Z</time>
      </trkpt>
      <trkpt lat="45.77376" lon="5.87403">
        <ele>729</ele>
        <time>2022-05-01T11:57:48.871Z</time>
      </trkpt>
      <trkpt lat="45.77376" lon="5.87403">
        <ele>729</ele>
        <time>2022-05-01T11:57:49.870Z</time>
      </trkpt>
      <trkpt lat="45.77376" lon="5.87403">
        <ele>729</ele>
        <time>2022-05-01T11:57:50.870Z</time>
      </trkpt>
      <trkpt lat="45.77376" lon="5.87403">
        <ele>729</ele>
        <time>2022-05-01T11:57:51.870Z</time>
      </trkpt>
      <trkpt lat="45.77376" lon="5.87403">
        <ele>729</ele>
        <time>2022-05-01T11:57:52.871Z</time>
      </trkpt>
      <trkpt lat="45.77377" lon="5.87402">
        <ele>729</ele>
        <time>2022-05-01T11:57:53.871Z</time>
      </trkpt>
      <trkpt lat="45.77377" lon="5.87402">
        <ele>729</ele>
        <time>2022-05-01T11:57:54.871Z</time>
      </trkpt>
      <trkpt lat="45.77377" lon="5.87401">
        <ele>729</ele>
        <time>2022-05-01T11:57:55.871Z</time>
      </trkpt>
      <trkpt lat="45.77377" lon="5.87401">
        <ele>729</ele>
        <time>2022-05-01T11:57:56.871Z</time>
      </trkpt>
      <trkpt lat="45.77377" lon="5.874">
        <ele>729</ele>
        <time>2022-05-01T11:57:57.871Z</time>
      </trkpt>
      <trkpt lat="45.77377" lon="5.874">
        <ele>729</ele>
        <time>2022-05-01T11:57:58.871Z</time>
      </trkpt>
      <trkpt lat="45.77377" lon="5.87399">
        <ele>729</ele>
        <time>2022-05-01T11:57:59.870Z</time>
      </trkpt>
      <trkpt lat="45.77377" lon="5.87399">
        <ele>729</ele>
        <time>2022-05-01T11:58:00.871Z</time>
      </trkpt>
      <trkpt lat="45.77377" lon="5.87399">
        <ele>729</ele>
        <time>2022-05-01T11:58:01.871Z</time>
      </trkpt>
      <trkpt lat="45.77377" lon="5.87399">
        <ele>729</ele>
        <time>2022-05-01T11:58:02.871Z</time>
      </trkpt>
      <trkpt lat="45.77377" lon="5.87399">
        <ele>729</ele>
        <time>2022-05-01T11:58:03.870Z</time>
      </trkpt>
      <trkpt lat="45.77377" lon="5.87399">
        <ele>729</ele>
        <time>2022-05-01T11:58:04.870Z</time>
      </trkpt>
      <trkpt lat="45.77377" lon="5.87398">
        <ele>729</ele>
        <time>2022-05-01T11:58:05.871Z</time>
      </trkpt>
      <trkpt lat="45.77377" lon="5.87398">
        <ele>729</ele>
        <time>2022-05-01T11:58:06.871Z</time>
      </trkpt>
      <trkpt lat="45.77378" lon="5.87398">
        <ele>729</ele>
        <time>2022-05-01T11:58:07.871Z</time>
      </trkpt>
      <trkpt lat="45.77378" lon="5.87398">
        <ele>729</ele>
        <time>2022-05-01T11:58:08.871Z</time>
      </trkpt>
      <trkpt lat="45.77378" lon="5.87398">
        <ele>729</ele>
        <time>2022-05-01T11:58:09.870Z</time>
      </trkpt>
      <trkpt lat="45.77378" lon="5.87398">
        <ele>729</ele>
        <time>2022-05-01T11:58:10.871Z</time>
      </trkpt>
      <trkpt lat="45.77378" lon="5.87398">
        <ele>729</ele>
        <time>2022-05-01T11:58:11.871Z</time>
      </trkpt>
      <trkpt lat="45.77378" lon="5.87398">
        <ele>729</ele>
        <time>2022-05-01T11:58:12.871Z</time>
      </trkpt>
      <trkpt lat="45.77378" lon="5.87398">
        <ele>729</ele>
        <time>2022-05-01T11:58:13.870Z</time>
      </trkpt>
      <trkpt lat="45.77379" lon="5.87398">
        <ele>729</ele>
        <time>2022-05-01T11:58:14.870Z</time>
      </trkpt>
      <trkpt lat="45.77381" lon="5.87401">
        <ele>729</ele>
        <time>2022-05-01T11:58:15.870Z</time>
      </trkpt>
      <trkpt lat="45.77382" lon="5.87404">
        <ele>729</ele>
        <time>2022-05-01T11:58:16.870Z</time>
      </trkpt>
      <trkpt lat="45.77383" lon="5.87407">
        <ele>728</ele>
        <time>2022-05-01T11:58:17.870Z</time>
      </trkpt>
      <trkpt lat="45.77383" lon="5.8741">
        <ele>728</ele>
        <time>2022-05-01T11:58:18.870Z</time>
      </trkpt>
      <trkpt lat="45.77384" lon="5.87415">
        <ele>727</ele>
        <time>2022-05-01T11:58:19.870Z</time>
      </trkpt>
      <trkpt lat="45.77385" lon="5.87418">
        <ele>726</ele>
        <time>2022-05-01T11:58:20.870Z</time>
      </trkpt>
      <trkpt lat="45.77385" lon="5.87424">
        <ele>726</ele>
        <time>2022-05-01T11:58:21.871Z</time>
      </trkpt>
      <trkpt lat="45.77385" lon="5.87429">
        <ele>726</ele>
        <time>2022-05-01T11:58:22.871Z</time>
      </trkpt>
      <trkpt lat="45.77386" lon="5.87435">
        <ele>725</ele>
        <time>2022-05-01T11:58:23.870Z</time>
      </trkpt>
      <trkpt lat="45.77385" lon="5.8744">
        <ele>725</ele>
        <time>2022-05-01T11:58:24.870Z</time>
      </trkpt>
      <trkpt lat="45.77383" lon="5.87445">
        <ele>725</ele>
        <time>2022-05-01T11:58:25.871Z</time>
      </trkpt>
      <trkpt lat="45.77382" lon="5.8745">
        <ele>725</ele>
        <time>2022-05-01T11:58:26.871Z</time>
      </trkpt>
      <trkpt lat="45.7738" lon="5.87456">
        <ele>725</ele>
        <time>2022-05-01T11:58:27.871Z</time>
      </trkpt>
      <trkpt lat="45.77378" lon="5.87461">
        <ele>724</ele>
        <time>2022-05-01T11:58:28.871Z</time>
      </trkpt>
      <trkpt lat="45.77376" lon="5.87466">
        <ele>724</ele>
        <time>2022-05-01T11:58:29.870Z</time>
      </trkpt>
      <trkpt lat="45.77374" lon="5.8747">
        <ele>724</ele>
        <time>2022-05-01T11:58:30.871Z</time>
      </trkpt>
      <trkpt lat="45.77371" lon="5.87474">
        <ele>724</ele>
        <time>2022-05-01T11:58:31.871Z</time>
      </trkpt>
      <trkpt lat="45.77369" lon="5.87477">
        <ele>723</ele>
        <time>2022-05-01T11:58:32.871Z</time>
      </trkpt>
      <trkpt lat="45.77366" lon="5.8748">
        <ele>723</ele>
        <time>2022-05-01T11:58:33.871Z</time>
      </trkpt>
      <trkpt lat="45.77363" lon="5.87484">
        <ele>723</ele>
        <time>2022-05-01T11:58:34.871Z</time>
      </trkpt>
      <trkpt lat="45.77361" lon="5.87487">
        <ele>722</ele>
        <time>2022-05-01T11:58:35.871Z</time>
      </trkpt>
      <trkpt lat="45.77358" lon="5.8749">
        <ele>722</ele>
        <time>2022-05-01T11:58:36.870Z</time>
      </trkpt>
      <trkpt lat="45.77356" lon="5.87494">
        <ele>721</ele>
        <time>2022-05-01T11:58:37.871Z</time>
      </trkpt>
      <trkpt lat="45.77353" lon="5.87498">
        <ele>721</ele>
        <time>2022-05-01T11:58:38.870Z</time>
      </trkpt>
      <trkpt lat="45.77349" lon="5.87502">
        <ele>721</ele>
        <time>2022-05-01T11:58:39.871Z</time>
      </trkpt>
      <trkpt lat="45.77347" lon="5.87506">
        <ele>722</ele>
        <time>2022-05-01T11:58:40.870Z</time>
      </trkpt>
      <trkpt lat="45.77345" lon="5.8751">
        <ele>722</ele>
        <time>2022-05-01T11:58:41.870Z</time>
      </trkpt>
      <trkpt lat="45.77343" lon="5.87514">
        <ele>722</ele>
        <time>2022-05-01T11:58:42.871Z</time>
      </trkpt>
      <trkpt lat="45.77342" lon="5.87518">
        <ele>722</ele>
        <time>2022-05-01T11:58:43.871Z</time>
      </trkpt>
      <trkpt lat="45.77342" lon="5.87522">
        <ele>722</ele>
        <time>2022-05-01T11:58:44.870Z</time>
      </trkpt>
      <trkpt lat="45.77343" lon="5.87526">
        <ele>722</ele>
        <time>2022-05-01T11:58:45.870Z</time>
      </trkpt>
      <trkpt lat="45.77345" lon="5.87528">
        <ele>722</ele>
        <time>2022-05-01T11:58:46.870Z</time>
      </trkpt>
      <trkpt lat="45.77347" lon="5.8753">
        <ele>722</ele>
        <time>2022-05-01T11:58:47.871Z</time>
      </trkpt>
      <trkpt lat="45.7735" lon="5.8753">
        <ele>722</ele>
        <time>2022-05-01T11:58:48.871Z</time>
      </trkpt>
      <trkpt lat="45.77353" lon="5.8753">
        <ele>722</ele>
        <time>2022-05-01T11:58:49.870Z</time>
      </trkpt>
      <trkpt lat="45.77357" lon="5.87526">
        <ele>722</ele>
        <time>2022-05-01T11:58:50.870Z</time>
      </trkpt>
      <trkpt lat="45.7736" lon="5.87522">
        <ele>722</ele>
        <time>2022-05-01T11:58:51.871Z</time>
      </trkpt>
      <trkpt lat="45.77363" lon="5.87518">
        <ele>721</ele>
        <time>2022-05-01T11:58:52.871Z</time>
      </trkpt>
      <trkpt lat="45.77368" lon="5.87512">
        <ele>721</ele>
        <time>2022-05-01T11:58:53.871Z</time>
      </trkpt>
      <trkpt lat="45.77373" lon="5.87508">
        <ele>721</ele>
        <time>2022-05-01T11:58:54.871Z</time>
      </trkpt>
      <trkpt lat="45.77377" lon="5.87504">
        <ele>720</ele>
        <time>2022-05-01T11:58:55.871Z</time>
      </trkpt>
      <trkpt lat="45.77383" lon="5.87501">
        <ele>720</ele>
        <time>2022-05-01T11:58:56.870Z</time>
      </trkpt>
      <trkpt lat="45.7739" lon="5.87498">
        <ele>719</ele>
        <time>2022-05-01T11:58:57.871Z</time>
      </trkpt>
      <trkpt lat="45.77396" lon="5.87494">
        <ele>718</ele>
        <time>2022-05-01T11:58:58.871Z</time>
      </trkpt>
      <trkpt lat="45.77403" lon="5.87491">
        <ele>718</ele>
        <time>2022-05-01T11:58:59.871Z</time>
      </trkpt>
      <trkpt lat="45.77408" lon="5.87485">
        <ele>717</ele>
        <time>2022-05-01T11:59:00.870Z</time>
      </trkpt>
      <trkpt lat="45.77413" lon="5.87478">
        <ele>716</ele>
        <time>2022-05-01T11:59:01.870Z</time>
      </trkpt>
      <trkpt lat="45.77416" lon="5.87469">
        <ele>716</ele>
        <time>2022-05-01T11:59:02.871Z</time>
      </trkpt>
      <trkpt lat="45.77419" lon="5.8746">
        <ele>716</ele>
        <time>2022-05-01T11:59:03.871Z</time>
      </trkpt>
      <trkpt lat="45.77422" lon="5.87452">
        <ele>716</ele>
        <time>2022-05-01T11:59:04.871Z</time>
      </trkpt>
      <trkpt lat="45.77427" lon="5.87445">
        <ele>715</ele>
        <time>2022-05-01T11:59:05.871Z</time>
      </trkpt>
      <trkpt lat="45.77433" lon="5.8744">
        <ele>714</ele>
        <time>2022-05-01T11:59:06.871Z</time>
      </trkpt>
      <trkpt lat="45.77439" lon="5.87437">
        <ele>714</ele>
        <time>2022-05-01T11:59:07.871Z</time>
      </trkpt>
      <trkpt lat="45.77446" lon="5.87435">
        <ele>713</ele>
        <time>2022-05-01T11:59:08.871Z</time>
      </trkpt>
      <trkpt lat="45.77454" lon="5.87435">
        <ele>712</ele>
        <time>2022-05-01T11:59:09.871Z</time>
      </trkpt>
      <trkpt lat="45.77461" lon="5.87437">
        <ele>712</ele>
        <time>2022-05-01T11:59:10.871Z</time>
      </trkpt>
      <trkpt lat="45.77467" lon="5.87441">
        <ele>711</ele>
        <time>2022-05-01T11:59:11.871Z</time>
      </trkpt>
      <trkpt lat="45.77471" lon="5.87446">
        <ele>709</ele>
        <time>2022-05-01T11:59:12.871Z</time>
      </trkpt>
      <trkpt lat="45.77473" lon="5.87453">
        <ele>709</ele>
        <time>2022-05-01T11:59:13.871Z</time>
      </trkpt>
      <trkpt lat="45.77473" lon="5.87461">
        <ele>708</ele>
        <time>2022-05-01T11:59:14.871Z</time>
      </trkpt>
      <trkpt lat="45.77471" lon="5.8747">
        <ele>707</ele>
        <time>2022-05-01T11:59:15.870Z</time>
      </trkpt>
      <trkpt lat="45.77469" lon="5.87479">
        <ele>706</ele>
        <time>2022-05-01T11:59:16.870Z</time>
      </trkpt>
      <trkpt lat="45.77469" lon="5.87486">
        <ele>705</ele>
        <time>2022-05-01T11:59:17.871Z</time>
      </trkpt>
      <trkpt lat="45.7747" lon="5.87491">
        <ele>705</ele>
        <time>2022-05-01T11:59:18.871Z</time>
      </trkpt>
      <trkpt lat="45.77473" lon="5.87494">
        <ele>704</ele>
        <time>2022-05-01T11:59:19.871Z</time>
      </trkpt>
      <trkpt lat="45.77475" lon="5.87493">
        <ele>703</ele>
        <time>2022-05-01T11:59:20.871Z</time>
      </trkpt>
      <trkpt lat="45.77478" lon="5.8749">
        <ele>702</ele>
        <time>2022-05-01T11:59:21.871Z</time>
      </trkpt>
      <trkpt lat="45.77481" lon="5.87485">
        <ele>702</ele>
        <time>2022-05-01T11:59:22.871Z</time>
      </trkpt>
      <trkpt lat="45.77483" lon="5.87479">
        <ele>702</ele>
        <time>2022-05-01T11:59:23.870Z</time>
      </trkpt>
      <trkpt lat="45.77486" lon="5.87471">
        <ele>701</ele>
        <time>2022-05-01T11:59:24.871Z</time>
      </trkpt>
      <trkpt lat="45.7749" lon="5.87464">
        <ele>701</ele>
        <time>2022-05-01T11:59:25.871Z</time>
      </trkpt>
      <trkpt lat="45.77495" lon="5.87456">
        <ele>700</ele>
        <time>2022-05-01T11:59:26.870Z</time>
      </trkpt>
      <trkpt lat="45.775" lon="5.87449">
        <ele>700</ele>
        <time>2022-05-01T11:59:27.870Z</time>
      </trkpt>
      <trkpt lat="45.77505" lon="5.87441">
        <ele>699</ele>
        <time>2022-05-01T11:59:28.871Z</time>
      </trkpt>
      <trkpt lat="45.77511" lon="5.87433">
        <ele>699</ele>
        <time>2022-05-01T11:59:29.871Z</time>
      </trkpt>
      <trkpt lat="45.77516" lon="5.87425">
        <ele>698</ele>
        <time>2022-05-01T11:59:30.871Z</time>
      </trkpt>
      <trkpt lat="45.77522" lon="5.87416">
        <ele>698</ele>
        <time>2022-05-01T11:59:31.871Z</time>
      </trkpt>
      <trkpt lat="45.77527" lon="5.87407">
        <ele>697</ele>
        <time>2022-05-01T11:59:32.871Z</time>
      </trkpt>
      <trkpt lat="45.77532" lon="5.87398">
        <ele>696</ele>
        <time>2022-05-01T11:59:33.871Z</time>
      </trkpt>
      <trkpt lat="45.77537" lon="5.87388">
        <ele>695</ele>
        <time>2022-05-01T11:59:34.870Z</time>
      </trkpt>
      <trkpt lat="45.77542" lon="5.87378">
        <ele>695</ele>
        <time>2022-05-01T11:59:35.871Z</time>
      </trkpt>
      <trkpt lat="45.77547" lon="5.87369">
        <ele>694</ele>
        <time>2022-05-01T11:59:36.871Z</time>
      </trkpt>
      <trkpt lat="45.7755" lon="5.8736">
        <ele>693</ele>
        <time>2022-05-01T11:59:37.871Z</time>
      </trkpt>
      <trkpt lat="45.77554" lon="5.87351">
        <ele>693</ele>
        <time>2022-05-01T11:59:38.871Z</time>
      </trkpt>
      <trkpt lat="45.77556" lon="5.87343">
        <ele>692</ele>
        <time>2022-05-01T11:59:39.870Z</time>
      </trkpt>
      <trkpt lat="45.77559" lon="5.87337">
        <ele>691</ele>
        <time>2022-05-01T11:59:40.870Z</time>
      </trkpt>
      <trkpt lat="45.77563" lon="5.87333">
        <ele>691</ele>
        <time>2022-05-01T11:59:41.870Z</time>
      </trkpt>
      <trkpt lat="45.77566" lon="5.87332">
        <ele>690</ele>
        <time>2022-05-01T11:59:42.871Z</time>
      </trkpt>
      <trkpt lat="45.77569" lon="5.87334">
        <ele>689</ele>
        <time>2022-05-01T11:59:43.871Z</time>
      </trkpt>
      <trkpt lat="45.77571" lon="5.87338">
        <ele>689</ele>
        <time>2022-05-01T11:59:44.871Z</time>
      </trkpt>
      <trkpt lat="45.77572" lon="5.87342">
        <ele>688</ele>
        <time>2022-05-01T11:59:45.871Z</time>
      </trkpt>
      <trkpt lat="45.77574" lon="5.87348">
        <ele>688</ele>
        <time>2022-05-01T11:59:46.871Z</time>
      </trkpt>
      <trkpt lat="45.77577" lon="5.87352">
        <ele>687</ele>
        <time>2022-05-01T11:59:47.871Z</time>
      </trkpt>
      <trkpt lat="45.77582" lon="5.87355">
        <ele>687</ele>
        <time>2022-05-01T11:59:48.871Z</time>
      </trkpt>
      <trkpt lat="45.77587" lon="5.87355">
        <ele>685</ele>
        <time>2022-05-01T11:59:49.870Z</time>
      </trkpt>
      <trkpt lat="45.77593" lon="5.87356">
        <ele>684</ele>
        <time>2022-05-01T11:59:50.871Z</time>
      </trkpt>
      <trkpt lat="45.776" lon="5.87355">
        <ele>683</ele>
        <time>2022-05-01T11:59:51.871Z</time>
      </trkpt>
      <trkpt lat="45.77607" lon="5.87355">
        <ele>682</ele>
        <time>2022-05-01T11:59:52.871Z</time>
      </trkpt>
      <trkpt lat="45.77613" lon="5.87356">
        <ele>681</ele>
        <time>2022-05-01T11:59:53.871Z</time>
      </trkpt>
      <trkpt lat="45.7762" lon="5.87358">
        <ele>680</ele>
        <time>2022-05-01T11:59:54.871Z</time>
      </trkpt>
      <trkpt lat="45.77626" lon="5.87363">
        <ele>679</ele>
        <time>2022-05-01T11:59:55.871Z</time>
      </trkpt>
      <trkpt lat="45.77631" lon="5.87371">
        <ele>678</ele>
        <time>2022-05-01T11:59:56.871Z</time>
      </trkpt>
      <trkpt lat="45.77635" lon="5.87381">
        <ele>678</ele>
        <time>2022-05-01T11:59:57.871Z</time>
      </trkpt>
      <trkpt lat="45.77638" lon="5.87391">
        <ele>677</ele>
        <time>2022-05-01T11:59:58.871Z</time>
      </trkpt>
      <trkpt lat="45.77641" lon="5.87403">
        <ele>677</ele>
        <time>2022-05-01T11:59:59.871Z</time>
      </trkpt>
      <trkpt lat="45.77644" lon="5.87415">
        <ele>676</ele>
        <time>2022-05-01T12:00:00.870Z</time>
      </trkpt>
      <trkpt lat="45.77646" lon="5.87427">
        <ele>676</ele>
        <time>2022-05-01T12:00:01.871Z</time>
      </trkpt>
      <trkpt lat="45.77649" lon="5.87437">
        <ele>675</ele>
        <time>2022-05-01T12:00:02.870Z</time>
      </trkpt>
      <trkpt lat="45.77653" lon="5.87448">
        <ele>674</ele>
        <time>2022-05-01T12:00:03.871Z</time>
      </trkpt>
      <trkpt lat="45.77657" lon="5.87459">
        <ele>674</ele>
        <time>2022-05-01T12:00:04.871Z</time>
      </trkpt>
      <trkpt lat="45.7766" lon="5.87468">
        <ele>673</ele>
        <time>2022-05-01T12:00:05.871Z</time>
      </trkpt>
      <trkpt lat="45.77662" lon="5.87477">
        <ele>672</ele>
        <time>2022-05-01T12:00:06.871Z</time>
      </trkpt>
      <trkpt lat="45.77662" lon="5.87486">
        <ele>672</ele>
        <time>2022-05-01T12:00:07.870Z</time>
      </trkpt>
      <trkpt lat="45.77661" lon="5.87495">
        <ele>671</ele>
        <time>2022-05-01T12:00:08.871Z</time>
      </trkpt>
      <trkpt lat="45.7766" lon="5.87503">
        <ele>670</ele>
        <time>2022-05-01T12:00:09.870Z</time>
      </trkpt>
      <trkpt lat="45.77657" lon="5.87511">
        <ele>670</ele>
        <time>2022-05-01T12:00:10.871Z</time>
      </trkpt>
      <trkpt lat="45.77654" lon="5.87516">
        <ele>669</ele>
        <time>2022-05-01T12:00:11.871Z</time>
      </trkpt>
      <trkpt lat="45.77652" lon="5.87522">
        <ele>668</ele>
        <time>2022-05-01T12:00:12.871Z</time>
      </trkpt>
      <trkpt lat="45.7765" lon="5.8753">
        <ele>667</ele>
        <time>2022-05-01T12:00:13.871Z</time>
      </trkpt>
      <trkpt lat="45.7765" lon="5.87534">
        <ele>666</ele>
        <time>2022-05-01T12:00:14.870Z</time>
      </trkpt>
      <trkpt lat="45.77652" lon="5.87537">
        <ele>664</ele>
        <time>2022-05-01T12:00:15.871Z</time>
      </trkpt>
      <trkpt lat="45.77655" lon="5.87539">
        <ele>663</ele>
        <time>2022-05-01T12:00:16.871Z</time>
      </trkpt>
      <trkpt lat="45.77659" lon="5.87538">
        <ele>662</ele>
        <time>2022-05-01T12:00:17.871Z</time>
      </trkpt>
      <trkpt lat="45.77662" lon="5.87534">
        <ele>661</ele>
        <time>2022-05-01T12:00:18.870Z</time>
      </trkpt>
      <trkpt lat="45.77666" lon="5.87529">
        <ele>660</ele>
        <time>2022-05-01T12:00:19.871Z</time>
      </trkpt>
      <trkpt lat="45.77669" lon="5.87525">
        <ele>659</ele>
        <time>2022-05-01T12:00:20.870Z</time>
      </trkpt>
      <trkpt lat="45.77672" lon="5.87519">
        <ele>658</ele>
        <time>2022-05-01T12:00:21.871Z</time>
      </trkpt>
      <trkpt lat="45.77677" lon="5.87512">
        <ele>657</ele>
        <time>2022-05-01T12:00:22.871Z</time>
      </trkpt>
      <trkpt lat="45.7768" lon="5.87506">
        <ele>656</ele>
        <time>2022-05-01T12:00:23.871Z</time>
      </trkpt>
      <trkpt lat="45.77684" lon="5.875">
        <ele>655</ele>
        <time>2022-05-01T12:00:24.870Z</time>
      </trkpt>
      <trkpt lat="45.77686" lon="5.87494">
        <ele>653</ele>
        <time>2022-05-01T12:00:25.871Z</time>
      </trkpt>
      <trkpt lat="45.77689" lon="5.87488">
        <ele>652</ele>
        <time>2022-05-01T12:00:26.871Z</time>
      </trkpt>
      <trkpt lat="45.77692" lon="5.87485">
        <ele>651</ele>
        <time>2022-05-01T12:00:27.870Z</time>
      </trkpt>
      <trkpt lat="45.77695" lon="5.87482">
        <ele>650</ele>
        <time>2022-05-01T12:00:28.871Z</time>
      </trkpt>
      <trkpt lat="45.77698" lon="5.8748">
        <ele>649</ele>
        <time>2022-05-01T12:00:29.871Z</time>
      </trkpt>
      <trkpt lat="45.777" lon="5.87478">
        <ele>648</ele>
        <time>2022-05-01T12:00:30.871Z</time>
      </trkpt>
      <trkpt lat="45.77702" lon="5.87476">
        <ele>648</ele>
        <time>2022-05-01T12:00:31.870Z</time>
      </trkpt>
      <trkpt lat="45.77703" lon="5.87473">
        <ele>648</ele>
        <time>2022-05-01T12:00:32.870Z</time>
      </trkpt>
      <trkpt lat="45.77703" lon="5.8747">
        <ele>647</ele>
        <time>2022-05-01T12:00:33.871Z</time>
      </trkpt>
      <trkpt lat="45.77703" lon="5.87467">
        <ele>648</ele>
        <time>2022-05-01T12:00:34.871Z</time>
      </trkpt>
      <trkpt lat="45.77702" lon="5.87464">
        <ele>648</ele>
        <time>2022-05-01T12:00:35.870Z</time>
      </trkpt>
      <trkpt lat="45.77701" lon="5.87461">
        <ele>648</ele>
        <time>2022-05-01T12:00:36.871Z</time>
      </trkpt>
      <trkpt lat="45.77701" lon="5.87458">
        <ele>649</ele>
        <time>2022-05-01T12:00:37.871Z</time>
      </trkpt>
      <trkpt lat="45.777" lon="5.87455">
        <ele>649</ele>
        <time>2022-05-01T12:00:38.871Z</time>
      </trkpt>
      <trkpt lat="45.777" lon="5.87451">
        <ele>650</ele>
        <time>2022-05-01T12:00:39.871Z</time>
      </trkpt>
      <trkpt lat="45.77699" lon="5.87449">
        <ele>650</ele>
        <time>2022-05-01T12:00:40.871Z</time>
      </trkpt>
      <trkpt lat="45.77699" lon="5.87446">
        <ele>651</ele>
        <time>2022-05-01T12:00:41.871Z</time>
      </trkpt>
      <trkpt lat="45.77698" lon="5.87444">
        <ele>651</ele>
        <time>2022-05-01T12:00:42.870Z</time>
      </trkpt>
      <trkpt lat="45.77698" lon="5.87441">
        <ele>651</ele>
        <time>2022-05-01T12:00:43.871Z</time>
      </trkpt>
      <trkpt lat="45.77697" lon="5.87439">
        <ele>652</ele>
        <time>2022-05-01T12:00:44.871Z</time>
      </trkpt>
      <trkpt lat="45.77696" lon="5.87436">
        <ele>652</ele>
        <time>2022-05-01T12:00:45.870Z</time>
      </trkpt>
      <trkpt lat="45.77695" lon="5.87432">
        <ele>653</ele>
        <time>2022-05-01T12:00:46.870Z</time>
      </trkpt>
      <trkpt lat="45.77694" lon="5.87429">
        <ele>653</ele>
        <time>2022-05-01T12:00:47.871Z</time>
      </trkpt>
      <trkpt lat="45.77694" lon="5.87426">
        <ele>653</ele>
        <time>2022-05-01T12:00:48.870Z</time>
      </trkpt>
      <trkpt lat="45.77693" lon="5.87423">
        <ele>653</ele>
        <time>2022-05-01T12:00:49.871Z</time>
      </trkpt>
      <trkpt lat="45.77693" lon="5.8742">
        <ele>653</ele>
        <time>2022-05-01T12:00:50.871Z</time>
      </trkpt>
      <trkpt lat="45.77693" lon="5.87418">
        <ele>653</ele>
        <time>2022-05-01T12:00:51.870Z</time>
      </trkpt>
      <trkpt lat="45.77694" lon="5.87414">
        <ele>652</ele>
        <time>2022-05-01T12:00:52.871Z</time>
      </trkpt>
      <trkpt lat="45.77694" lon="5.8741">
        <ele>651</ele>
        <time>2022-05-01T12:00:53.870Z</time>
      </trkpt>
      <trkpt lat="45.77695" lon="5.87406">
        <ele>651</ele>
        <time>2022-05-01T12:00:54.870Z</time>
      </trkpt>
      <trkpt lat="45.77695" lon="5.87402">
        <ele>650</ele>
        <time>2022-05-01T12:00:55.871Z</time>
      </trkpt>
      <trkpt lat="45.77696" lon="5.87398">
        <ele>650</ele>
        <time>2022-05-01T12:00:56.871Z</time>
      </trkpt>
      <trkpt lat="45.77697" lon="5.87394">
        <ele>650</ele>
        <time>2022-05-01T12:00:57.871Z</time>
      </trkpt>
      <trkpt lat="45.77697" lon="5.8739">
        <ele>650</ele>
        <time>2022-05-01T12:00:58.870Z</time>
      </trkpt>
      <trkpt lat="45.77698" lon="5.87386">
        <ele>650</ele>
        <time>2022-05-01T12:00:59.871Z</time>
      </trkpt>
      <trkpt lat="45.77698" lon="5.8738">
        <ele>650</ele>
        <time>2022-05-01T12:01:00.871Z</time>
      </trkpt>
      <trkpt lat="45.77699" lon="5.87374">
        <ele>649</ele>
        <time>2022-05-01T12:01:01.871Z</time>
      </trkpt>
      <trkpt lat="45.77699" lon="5.87368">
        <ele>649</ele>
        <time>2022-05-01T12:01:02.871Z</time>
      </trkpt>
      <trkpt lat="45.777" lon="5.87362">
        <ele>649</ele>
        <time>2022-05-01T12:01:03.871Z</time>
      </trkpt>
      <trkpt lat="45.77701" lon="5.87355">
        <ele>649</ele>
        <time>2022-05-01T12:01:04.871Z</time>
      </trkpt>
      <trkpt lat="45.77701" lon="5.87348">
        <ele>648</ele>
        <time>2022-05-01T12:01:05.871Z</time>
      </trkpt>
      <trkpt lat="45.77702" lon="5.87341">
        <ele>648</ele>
        <time>2022-05-01T12:01:06.871Z</time>
      </trkpt>
      <trkpt lat="45.77702" lon="5.87331">
        <ele>648</ele>
        <time>2022-05-01T12:01:07.871Z</time>
      </trkpt>
      <trkpt lat="45.77701" lon="5.87322">
        <ele>647</ele>
        <time>2022-05-01T12:01:08.871Z</time>
      </trkpt>
      <trkpt lat="45.77701" lon="5.87312">
        <ele>647</ele>
        <time>2022-05-01T12:01:09.871Z</time>
      </trkpt>
      <trkpt lat="45.777" lon="5.87303">
        <ele>647</ele>
        <time>2022-05-01T12:01:10.871Z</time>
      </trkpt>
      <trkpt lat="45.77698" lon="5.87293">
        <ele>647</ele>
        <time>2022-05-01T12:01:11.871Z</time>
      </trkpt>
      <trkpt lat="45.77696" lon="5.87286">
        <ele>647</ele>
        <time>2022-05-01T12:01:12.871Z</time>
      </trkpt>
      <trkpt lat="45.77694" lon="5.87278">
        <ele>647</ele>
        <time>2022-05-01T12:01:13.871Z</time>
      </trkpt>
      <trkpt lat="45.77691" lon="5.87272">
        <ele>647</ele>
        <time>2022-05-01T12:01:14.870Z</time>
      </trkpt>
      <trkpt lat="45.77688" lon="5.87267">
        <ele>646</ele>
        <time>2022-05-01T12:01:15.870Z</time>
      </trkpt>
      <trkpt lat="45.77685" lon="5.87264">
        <ele>645</ele>
        <time>2022-05-01T12:01:16.871Z</time>
      </trkpt>
      <trkpt lat="45.77682" lon="5.87262">
        <ele>644</ele>
        <time>2022-05-01T12:01:17.870Z</time>
      </trkpt>
      <trkpt lat="45.7768" lon="5.87261">
        <ele>643</ele>
        <time>2022-05-01T12:01:18.871Z</time>
      </trkpt>
      <trkpt lat="45.77676" lon="5.8726">
        <ele>642</ele>
        <time>2022-05-01T12:01:19.871Z</time>
      </trkpt>
      <trkpt lat="45.77672" lon="5.87259">
        <ele>641</ele>
        <time>2022-05-01T12:01:20.870Z</time>
      </trkpt>
      <trkpt lat="45.77671" lon="5.8726">
        <ele>640</ele>
        <time>2022-05-01T12:01:21.871Z</time>
      </trkpt>
      <trkpt lat="45.7767" lon="5.8726">
        <ele>639</ele>
        <time>2022-05-01T12:01:22.871Z</time>
      </trkpt>
      <trkpt lat="45.77601" lon="5.87268">
        <ele>639</ele>
        <time>2022-05-01T12:01:32.870Z</time>
      </trkpt>
      <trkpt lat="45.77599" lon="5.87268">
        <ele>638</ele>
        <time>2022-05-01T12:01:33.871Z</time>
      </trkpt>
      <trkpt lat="45.77589" lon="5.87266">
        <ele>638</ele>
        <time>2022-05-01T12:01:34.871Z</time>
      </trkpt>
      <trkpt lat="45.77584" lon="5.87267">
        <ele>637</ele>
        <time>2022-05-01T12:01:35.871Z</time>
      </trkpt>
      <trkpt lat="45.77578" lon="5.87267">
        <ele>637</ele>
        <time>2022-05-01T12:01:36.870Z</time>
      </trkpt>
      <trkpt lat="45.77572" lon="5.87265">
        <ele>636</ele>
        <time>2022-05-01T12:01:37.870Z</time>
      </trkpt>
      <trkpt lat="45.77566" lon="5.87261">
        <ele>635</ele>
        <time>2022-05-01T12:01:38.870Z</time>
      </trkpt>
      <trkpt lat="45.77559" lon="5.87256">
        <ele>635</ele>
        <time>2022-05-01T12:01:39.870Z</time>
      </trkpt>
      <trkpt lat="45.77554" lon="5.8725">
        <ele>634</ele>
        <time>2022-05-01T12:01:40.870Z</time>
      </trkpt>
      <trkpt lat="45.77549" lon="5.87246">
        <ele>634</ele>
        <time>2022-05-01T12:01:41.871Z</time>
      </trkpt>
      <trkpt lat="45.77544" lon="5.87245">
        <ele>633</ele>
        <time>2022-05-01T12:01:42.871Z</time>
      </trkpt>
      <trkpt lat="45.77539" lon="5.87244">
        <ele>633</ele>
        <time>2022-05-01T12:01:43.870Z</time>
      </trkpt>
      <trkpt lat="45.77533" lon="5.87243">
        <ele>632</ele>
        <time>2022-05-01T12:01:44.870Z</time>
      </trkpt>
      <trkpt lat="45.77528" lon="5.87242">
        <ele>632</ele>
        <time>2022-05-01T12:01:45.871Z</time>
      </trkpt>
      <trkpt lat="45.77524" lon="5.87241">
        <ele>631</ele>
        <time>2022-05-01T12:01:46.871Z</time>
      </trkpt>
      <trkpt lat="45.77521" lon="5.87237">
        <ele>631</ele>
        <time>2022-05-01T12:01:47.871Z</time>
      </trkpt>
      <trkpt lat="45.7752" lon="5.87233">
        <ele>630</ele>
        <time>2022-05-01T12:01:48.870Z</time>
      </trkpt>
      <trkpt lat="45.7752" lon="5.87229">
        <ele>630</ele>
        <time>2022-05-01T12:01:49.870Z</time>
      </trkpt>
      <trkpt lat="45.77523" lon="5.87225">
        <ele>629</ele>
        <time>2022-05-01T12:01:50.871Z</time>
      </trkpt>
      <trkpt lat="45.77526" lon="5.87224">
        <ele>629</ele>
        <time>2022-05-01T12:01:51.870Z</time>
      </trkpt>
      <trkpt lat="45.7753" lon="5.87224">
        <ele>629</ele>
        <time>2022-05-01T12:01:52.870Z</time>
      </trkpt>
      <trkpt lat="45.77534" lon="5.87224">
        <ele>628</ele>
        <time>2022-05-01T12:01:53.871Z</time>
      </trkpt>
      <trkpt lat="45.77539" lon="5.87225">
        <ele>628</ele>
        <time>2022-05-01T12:01:54.871Z</time>
      </trkpt>
      <trkpt lat="45.77544" lon="5.87228">
        <ele>628</ele>
        <time>2022-05-01T12:01:55.870Z</time>
      </trkpt>
      <trkpt lat="45.7755" lon="5.8723">
        <ele>627</ele>
        <time>2022-05-01T12:01:56.870Z</time>
      </trkpt>
      <trkpt lat="45.77557" lon="5.87233">
        <ele>627</ele>
        <time>2022-05-01T12:01:57.871Z</time>
      </trkpt>
      <trkpt lat="45.77564" lon="5.87235">
        <ele>626</ele>
        <time>2022-05-01T12:01:58.871Z</time>
      </trkpt>
      <trkpt lat="45.77571" lon="5.87239">
        <ele>626</ele>
        <time>2022-05-01T12:01:59.871Z</time>
      </trkpt>
      <trkpt lat="45.77578" lon="5.87241">
        <ele>625</ele>
        <time>2022-05-01T12:02:00.871Z</time>
      </trkpt>
      <trkpt lat="45.77585" lon="5.87244">
        <ele>625</ele>
        <time>2022-05-01T12:02:01.871Z</time>
      </trkpt>
      <trkpt lat="45.77592" lon="5.87247">
        <ele>624</ele>
        <time>2022-05-01T12:02:02.871Z</time>
      </trkpt>
      <trkpt lat="45.77598" lon="5.87247">
        <ele>624</ele>
        <time>2022-05-01T12:02:03.871Z</time>
      </trkpt>
      <trkpt lat="45.77604" lon="5.87248">
        <ele>623</ele>
        <time>2022-05-01T12:02:04.871Z</time>
      </trkpt>
      <trkpt lat="45.77609" lon="5.87249">
        <ele>622</ele>
        <time>2022-05-01T12:02:05.871Z</time>
      </trkpt>
      <trkpt lat="45.77614" lon="5.8725">
        <ele>622</ele>
        <time>2022-05-01T12:02:06.870Z</time>
      </trkpt>
      <trkpt lat="45.77619" lon="5.8725">
        <ele>621</ele>
        <time>2022-05-01T12:02:07.871Z</time>
      </trkpt>
      <trkpt lat="45.77625" lon="5.87248">
        <ele>621</ele>
        <time>2022-05-01T12:02:08.870Z</time>
      </trkpt>
      <trkpt lat="45.77631" lon="5.87246">
        <ele>620</ele>
        <time>2022-05-01T12:02:09.871Z</time>
      </trkpt>
      <trkpt lat="45.77636" lon="5.87244">
        <ele>620</ele>
        <time>2022-05-01T12:02:10.871Z</time>
      </trkpt>
      <trkpt lat="45.77641" lon="5.87241">
        <ele>619</ele>
        <time>2022-05-01T12:02:11.871Z</time>
      </trkpt>
      <trkpt lat="45.77647" lon="5.8724">
        <ele>619</ele>
        <time>2022-05-01T12:02:12.871Z</time>
      </trkpt>
      <trkpt lat="45.77652" lon="5.87238">
        <ele>618</ele>
        <time>2022-05-01T12:02:13.870Z</time>
      </trkpt>
      <trkpt lat="45.77658" lon="5.87238">
        <ele>618</ele>
        <time>2022-05-01T12:02:14.871Z</time>
      </trkpt>
      <trkpt lat="45.77663" lon="5.87238">
        <ele>618</ele>
        <time>2022-05-01T12:02:15.871Z</time>
      </trkpt>
      <trkpt lat="45.77669" lon="5.87238">
        <ele>617</ele>
        <time>2022-05-01T12:02:16.870Z</time>
      </trkpt>
      <trkpt lat="45.77674" lon="5.8724">
        <ele>617</ele>
        <time>2022-05-01T12:02:17.871Z</time>
      </trkpt>
      <trkpt lat="45.77681" lon="5.87241">
        <ele>617</ele>
        <time>2022-05-01T12:02:18.871Z</time>
      </trkpt>
      <trkpt lat="45.77687" lon="5.87243">
        <ele>617</ele>
        <time>2022-05-01T12:02:19.870Z</time>
      </trkpt>
      <trkpt lat="45.77693" lon="5.87243">
        <ele>616</ele>
        <time>2022-05-01T12:02:20.871Z</time>
      </trkpt>
      <trkpt lat="45.77699" lon="5.87243">
        <ele>616</ele>
        <time>2022-05-01T12:02:21.871Z</time>
      </trkpt>
      <trkpt lat="45.77706" lon="5.87243">
        <ele>616</ele>
        <time>2022-05-01T12:02:22.871Z</time>
      </trkpt>
      <trkpt lat="45.77712" lon="5.87241">
        <ele>615</ele>
        <time>2022-05-01T12:02:23.870Z</time>
      </trkpt>
      <trkpt lat="45.77719" lon="5.87239">
        <ele>615</ele>
        <time>2022-05-01T12:02:24.871Z</time>
      </trkpt>
      <trkpt lat="45.77725" lon="5.87236">
        <ele>615</ele>
        <time>2022-05-01T12:02:25.871Z</time>
      </trkpt>
      <trkpt lat="45.77731" lon="5.87232">
        <ele>615</ele>
        <time>2022-05-01T12:02:26.871Z</time>
      </trkpt>
      <trkpt lat="45.77736" lon="5.87227">
        <ele>615</ele>
        <time>2022-05-01T12:02:27.871Z</time>
      </trkpt>
      <trkpt lat="45.77741" lon="5.8722">
        <ele>615</ele>
        <time>2022-05-01T12:02:28.871Z</time>
      </trkpt>
      <trkpt lat="45.77745" lon="5.87213">
        <ele>614</ele>
        <time>2022-05-01T12:02:29.871Z</time>
      </trkpt>
      <trkpt lat="45.77748" lon="5.87207">
        <ele>614</ele>
        <time>2022-05-01T12:02:30.871Z</time>
      </trkpt>
      <trkpt lat="45.77752" lon="5.872">
        <ele>613</ele>
        <time>2022-05-01T12:02:31.870Z</time>
      </trkpt>
      <trkpt lat="45.77756" lon="5.87194">
        <ele>613</ele>
        <time>2022-05-01T12:02:32.871Z</time>
      </trkpt>
      <trkpt lat="45.77761" lon="5.87189">
        <ele>612</ele>
        <time>2022-05-01T12:02:33.870Z</time>
      </trkpt>
      <trkpt lat="45.77766" lon="5.87185">
        <ele>612</ele>
        <time>2022-05-01T12:02:34.870Z</time>
      </trkpt>
      <trkpt lat="45.77772" lon="5.87181">
        <ele>611</ele>
        <time>2022-05-01T12:02:35.870Z</time>
      </trkpt>
      <trkpt lat="45.77777" lon="5.87179">
        <ele>610</ele>
        <time>2022-05-01T12:02:36.871Z</time>
      </trkpt>
      <trkpt lat="45.77783" lon="5.87178">
        <ele>609</ele>
        <time>2022-05-01T12:02:37.871Z</time>
      </trkpt>
      <trkpt lat="45.77789" lon="5.87177">
        <ele>608</ele>
        <time>2022-05-01T12:02:38.871Z</time>
      </trkpt>
      <trkpt lat="45.77795" lon="5.87175">
        <ele>607</ele>
        <time>2022-05-01T12:02:39.871Z</time>
      </trkpt>
      <trkpt lat="45.77801" lon="5.87174">
        <ele>606</ele>
        <time>2022-05-01T12:02:40.871Z</time>
      </trkpt>
      <trkpt lat="45.77809" lon="5.87171">
        <ele>605</ele>
        <time>2022-05-01T12:02:41.871Z</time>
      </trkpt>
      <trkpt lat="45.77816" lon="5.87168">
        <ele>604</ele>
        <time>2022-05-01T12:02:42.871Z</time>
      </trkpt>
      <trkpt lat="45.77824" lon="5.87165">
        <ele>604</ele>
        <time>2022-05-01T12:02:43.871Z</time>
      </trkpt>
      <trkpt lat="45.77831" lon="5.8716">
        <ele>603</ele>
        <time>2022-05-01T12:02:44.870Z</time>
      </trkpt>
      <trkpt lat="45.77839" lon="5.87155">
        <ele>603</ele>
        <time>2022-05-01T12:02:45.871Z</time>
      </trkpt>
      <trkpt lat="45.77847" lon="5.8715">
        <ele>603</ele>
        <time>2022-05-01T12:02:46.871Z</time>
      </trkpt>
      <trkpt lat="45.77855" lon="5.87144">
        <ele>602</ele>
        <time>2022-05-01T12:02:47.871Z</time>
      </trkpt>
      <trkpt lat="45.77865" lon="5.87139">
        <ele>601</ele>
        <time>2022-05-01T12:02:48.871Z</time>
      </trkpt>
      <trkpt lat="45.77874" lon="5.87134">
        <ele>600</ele>
        <time>2022-05-01T12:02:49.870Z</time>
      </trkpt>
      <trkpt lat="45.77884" lon="5.8713">
        <ele>599</ele>
        <time>2022-05-01T12:02:50.871Z</time>
      </trkpt>
      <trkpt lat="45.77894" lon="5.87126">
        <ele>597</ele>
        <time>2022-05-01T12:02:51.871Z</time>
      </trkpt>
      <trkpt lat="45.77903" lon="5.8712">
        <ele>596</ele>
        <time>2022-05-01T12:02:52.871Z</time>
      </trkpt>
      <trkpt lat="45.77912" lon="5.87114">
        <ele>595</ele>
        <time>2022-05-01T12:02:53.871Z</time>
      </trkpt>
      <trkpt lat="45.77921" lon="5.87108">
        <ele>594</ele>
        <time>2022-05-01T12:02:54.870Z</time>
      </trkpt>
      <trkpt lat="45.7793" lon="5.87102">
        <ele>593</ele>
        <time>2022-05-01T12:02:55.870Z</time>
      </trkpt>
      <trkpt lat="45.77939" lon="5.87097">
        <ele>592</ele>
        <time>2022-05-01T12:02:56.870Z</time>
      </trkpt>
      <trkpt lat="45.77948" lon="5.87093">
        <ele>592</ele>
        <time>2022-05-01T12:02:57.871Z</time>
      </trkpt>
      <trkpt lat="45.77956" lon="5.87088">
        <ele>591</ele>
        <time>2022-05-01T12:02:58.871Z</time>
      </trkpt>
      <trkpt lat="45.77964" lon="5.87082">
        <ele>590</ele>
        <time>2022-05-01T12:02:59.871Z</time>
      </trkpt>
      <trkpt lat="45.77972" lon="5.87077">
        <ele>589</ele>
        <time>2022-05-01T12:03:00.871Z</time>
      </trkpt>
      <trkpt lat="45.7798" lon="5.87071">
        <ele>589</ele>
        <time>2022-05-01T12:03:01.871Z</time>
      </trkpt>
      <trkpt lat="45.77988" lon="5.87065">
        <ele>588</ele>
        <time>2022-05-01T12:03:02.871Z</time>
      </trkpt>
      <trkpt lat="45.77997" lon="5.87059">
        <ele>587</ele>
        <time>2022-05-01T12:03:03.871Z</time>
      </trkpt>
      <trkpt lat="45.78006" lon="5.87053">
        <ele>587</ele>
        <time>2022-05-01T12:03:04.871Z</time>
      </trkpt>
      <trkpt lat="45.78015" lon="5.87048">
        <ele>586</ele>
        <time>2022-05-01T12:03:05.871Z</time>
      </trkpt>
      <trkpt lat="45.78025" lon="5.87042">
        <ele>585</ele>
        <time>2022-05-01T12:03:06.870Z</time>
      </trkpt>
      <trkpt lat="45.78036" lon="5.87037">
        <ele>585</ele>
        <time>2022-05-01T12:03:07.871Z</time>
      </trkpt>
      <trkpt lat="45.78046" lon="5.87032">
        <ele>584</ele>
        <time>2022-05-01T12:03:08.870Z</time>
      </trkpt>
      <trkpt lat="45.78057" lon="5.87028">
        <ele>583</ele>
        <time>2022-05-01T12:03:09.871Z</time>
      </trkpt>
      <trkpt lat="45.78068" lon="5.87024">
        <ele>582</ele>
        <time>2022-05-01T12:03:10.871Z</time>
      </trkpt>
      <trkpt lat="45.78079" lon="5.87019">
        <ele>582</ele>
        <time>2022-05-01T12:03:11.870Z</time>
      </trkpt>
      <trkpt lat="45.7809" lon="5.87014">
        <ele>581</ele>
        <time>2022-05-01T12:03:12.870Z</time>
      </trkpt>
      <trkpt lat="45.78098" lon="5.87012">
        <ele>580</ele>
        <time>2022-05-01T12:03:13.871Z</time>
      </trkpt>
      <trkpt lat="45.78111" lon="5.87008">
        <ele>579</ele>
        <time>2022-05-01T12:03:14.870Z</time>
      </trkpt>
      <trkpt lat="45.78122" lon="5.87004">
        <ele>578</ele>
        <time>2022-05-01T12:03:15.870Z</time>
      </trkpt>
      <trkpt lat="45.78132" lon="5.87">
        <ele>577</ele>
        <time>2022-05-01T12:03:16.871Z</time>
      </trkpt>
      <trkpt lat="45.78143" lon="5.86996">
        <ele>576</ele>
        <time>2022-05-01T12:03:17.871Z</time>
      </trkpt>
      <trkpt lat="45.78153" lon="5.8699">
        <ele>576</ele>
        <time>2022-05-01T12:03:18.871Z</time>
      </trkpt>
      <trkpt lat="45.78163" lon="5.86984">
        <ele>575</ele>
        <time>2022-05-01T12:03:19.870Z</time>
      </trkpt>
      <trkpt lat="45.78173" lon="5.86977">
        <ele>575</ele>
        <time>2022-05-01T12:03:20.871Z</time>
      </trkpt>
      <trkpt lat="45.78182" lon="5.8697">
        <ele>574</ele>
        <time>2022-05-01T12:03:21.870Z</time>
      </trkpt>
      <trkpt lat="45.78192" lon="5.86962">
        <ele>573</ele>
        <time>2022-05-01T12:03:22.871Z</time>
      </trkpt>
      <trkpt lat="45.782" lon="5.86954">
        <ele>572</ele>
        <time>2022-05-01T12:03:23.870Z</time>
      </trkpt>
      <trkpt lat="45.78209" lon="5.86947">
        <ele>571</ele>
        <time>2022-05-01T12:03:24.871Z</time>
      </trkpt>
      <trkpt lat="45.78219" lon="5.86939">
        <ele>570</ele>
        <time>2022-05-01T12:03:25.871Z</time>
      </trkpt>
      <trkpt lat="45.78228" lon="5.86932">
        <ele>569</ele>
        <time>2022-05-01T12:03:26.871Z</time>
      </trkpt>
      <trkpt lat="45.78238" lon="5.86926">
        <ele>567</ele>
        <time>2022-05-01T12:03:27.870Z</time>
      </trkpt>
      <trkpt lat="45.78247" lon="5.86919">
        <ele>566</ele>
        <time>2022-05-01T12:03:28.871Z</time>
      </trkpt>
      <trkpt lat="45.78257" lon="5.86913">
        <ele>565</ele>
        <time>2022-05-01T12:03:29.871Z</time>
      </trkpt>
      <trkpt lat="45.78266" lon="5.86906">
        <ele>564</ele>
        <time>2022-05-01T12:03:30.871Z</time>
      </trkpt>
      <trkpt lat="45.78276" lon="5.86899">
        <ele>563</ele>
        <time>2022-05-01T12:03:31.871Z</time>
      </trkpt>
      <trkpt lat="45.78286" lon="5.86891">
        <ele>562</ele>
        <time>2022-05-01T12:03:32.871Z</time>
      </trkpt>
      <trkpt lat="45.78295" lon="5.86884">
        <ele>561</ele>
        <time>2022-05-01T12:03:33.871Z</time>
      </trkpt>
      <trkpt lat="45.78305" lon="5.86876">
        <ele>560</ele>
        <time>2022-05-01T12:03:34.870Z</time>
      </trkpt>
      <trkpt lat="45.78314" lon="5.86869">
        <ele>559</ele>
        <time>2022-05-01T12:03:35.871Z</time>
      </trkpt>
      <trkpt lat="45.78323" lon="5.8686">
        <ele>558</ele>
        <time>2022-05-01T12:03:36.870Z</time>
      </trkpt>
      <trkpt lat="45.78331" lon="5.86851">
        <ele>558</ele>
        <time>2022-05-01T12:03:37.870Z</time>
      </trkpt>
      <trkpt lat="45.78338" lon="5.86842">
        <ele>557</ele>
        <time>2022-05-01T12:03:38.871Z</time>
      </trkpt>
      <trkpt lat="45.78346" lon="5.86833">
        <ele>556</ele>
        <time>2022-05-01T12:03:39.871Z</time>
      </trkpt>
      <trkpt lat="45.78353" lon="5.86824">
        <ele>555</ele>
        <time>2022-05-01T12:03:40.870Z</time>
      </trkpt>
      <trkpt lat="45.7836" lon="5.86814">
        <ele>554</ele>
        <time>2022-05-01T12:03:41.871Z</time>
      </trkpt>
      <trkpt lat="45.78367" lon="5.86804">
        <ele>553</ele>
        <time>2022-05-01T12:03:42.871Z</time>
      </trkpt>
      <trkpt lat="45.78374" lon="5.86793">
        <ele>552</ele>
        <time>2022-05-01T12:03:43.871Z</time>
      </trkpt>
      <trkpt lat="45.7838" lon="5.86782">
        <ele>551</ele>
        <time>2022-05-01T12:03:44.870Z</time>
      </trkpt>
      <trkpt lat="45.78387" lon="5.86771">
        <ele>550</ele>
        <time>2022-05-01T12:03:45.871Z</time>
      </trkpt>
      <trkpt lat="45.78394" lon="5.8676">
        <ele>549</ele>
        <time>2022-05-01T12:03:46.870Z</time>
      </trkpt>
      <trkpt lat="45.78401" lon="5.86749">
        <ele>548</ele>
        <time>2022-05-01T12:03:47.871Z</time>
      </trkpt>
      <trkpt lat="45.78408" lon="5.86738">
        <ele>547</ele>
        <time>2022-05-01T12:03:48.870Z</time>
      </trkpt>
      <trkpt lat="45.78415" lon="5.86728">
        <ele>546</ele>
        <time>2022-05-01T12:03:49.871Z</time>
      </trkpt>
      <trkpt lat="45.78422" lon="5.86717">
        <ele>545</ele>
        <time>2022-05-01T12:03:50.871Z</time>
      </trkpt>
      <trkpt lat="45.78429" lon="5.86707">
        <ele>544</ele>
        <time>2022-05-01T12:03:51.871Z</time>
      </trkpt>
      <trkpt lat="45.78435" lon="5.86699">
        <ele>543</ele>
        <time>2022-05-01T12:03:52.870Z</time>
      </trkpt>
      <trkpt lat="45.78444" lon="5.86688">
        <ele>542</ele>
        <time>2022-05-01T12:03:53.871Z</time>
      </trkpt>
      <trkpt lat="45.78452" lon="5.86678">
        <ele>540</ele>
        <time>2022-05-01T12:03:54.871Z</time>
      </trkpt>
      <trkpt lat="45.78459" lon="5.86669">
        <ele>539</ele>
        <time>2022-05-01T12:03:55.871Z</time>
      </trkpt>
      <trkpt lat="45.78467" lon="5.8666">
        <ele>538</ele>
        <time>2022-05-01T12:03:56.871Z</time>
      </trkpt>
      <trkpt lat="45.78474" lon="5.86653">
        <ele>537</ele>
        <time>2022-05-01T12:03:57.871Z</time>
      </trkpt>
      <trkpt lat="45.78481" lon="5.86647">
        <ele>536</ele>
        <time>2022-05-01T12:03:58.871Z</time>
      </trkpt>
      <trkpt lat="45.78488" lon="5.86642">
        <ele>535</ele>
        <time>2022-05-01T12:03:59.871Z</time>
      </trkpt>
      <trkpt lat="45.78496" lon="5.86639">
        <ele>534</ele>
        <time>2022-05-01T12:04:00.871Z</time>
      </trkpt>
      <trkpt lat="45.78504" lon="5.86637">
        <ele>533</ele>
        <time>2022-05-01T12:04:01.871Z</time>
      </trkpt>
      <trkpt lat="45.78513" lon="5.86635">
        <ele>532</ele>
        <time>2022-05-01T12:04:02.871Z</time>
      </trkpt>
      <trkpt lat="45.78521" lon="5.86634">
        <ele>531</ele>
        <time>2022-05-01T12:04:03.871Z</time>
      </trkpt>
      <trkpt lat="45.7853" lon="5.86632">
        <ele>530</ele>
        <time>2022-05-01T12:04:04.870Z</time>
      </trkpt>
      <trkpt lat="45.78538" lon="5.86629">
        <ele>529</ele>
        <time>2022-05-01T12:04:05.871Z</time>
      </trkpt>
      <trkpt lat="45.78547" lon="5.86626">
        <ele>528</ele>
        <time>2022-05-01T12:04:06.871Z</time>
      </trkpt>
      <trkpt lat="45.78556" lon="5.86622">
        <ele>527</ele>
        <time>2022-05-01T12:04:07.870Z</time>
      </trkpt>
      <trkpt lat="45.78564" lon="5.86618">
        <ele>525</ele>
        <time>2022-05-01T12:04:08.870Z</time>
      </trkpt>
      <trkpt lat="45.78572" lon="5.86614">
        <ele>524</ele>
        <time>2022-05-01T12:04:09.871Z</time>
      </trkpt>
      <trkpt lat="45.7858" lon="5.86609">
        <ele>523</ele>
        <time>2022-05-01T12:04:10.871Z</time>
      </trkpt>
      <trkpt lat="45.78588" lon="5.86604">
        <ele>522</ele>
        <time>2022-05-01T12:04:11.871Z</time>
      </trkpt>
      <trkpt lat="45.78596" lon="5.86599">
        <ele>521</ele>
        <time>2022-05-01T12:04:12.871Z</time>
      </trkpt>
      <trkpt lat="45.78603" lon="5.86593">
        <ele>520</ele>
        <time>2022-05-01T12:04:13.870Z</time>
      </trkpt>
      <trkpt lat="45.7861" lon="5.86586">
        <ele>519</ele>
        <time>2022-05-01T12:04:14.871Z</time>
      </trkpt>
      <trkpt lat="45.78616" lon="5.86578">
        <ele>518</ele>
        <time>2022-05-01T12:04:15.870Z</time>
      </trkpt>
      <trkpt lat="45.78621" lon="5.86571">
        <ele>518</ele>
        <time>2022-05-01T12:04:16.871Z</time>
      </trkpt>
      <trkpt lat="45.78626" lon="5.86564">
        <ele>516</ele>
        <time>2022-05-01T12:04:17.870Z</time>
      </trkpt>
      <trkpt lat="45.78631" lon="5.86558">
        <ele>515</ele>
        <time>2022-05-01T12:04:18.871Z</time>
      </trkpt>
      <trkpt lat="45.78636" lon="5.86553">
        <ele>515</ele>
        <time>2022-05-01T12:04:19.871Z</time>
      </trkpt>
      <trkpt lat="45.7864" lon="5.86551">
        <ele>514</ele>
        <time>2022-05-01T12:04:20.871Z</time>
      </trkpt>
      <trkpt lat="45.78647" lon="5.86549">
        <ele>513</ele>
        <time>2022-05-01T12:04:21.870Z</time>
      </trkpt>
      <trkpt lat="45.78653" lon="5.86546">
        <ele>512</ele>
        <time>2022-05-01T12:04:22.870Z</time>
      </trkpt>
      <trkpt lat="45.78659" lon="5.86542">
        <ele>511</ele>
        <time>2022-05-01T12:04:23.871Z</time>
      </trkpt>
      <trkpt lat="45.78666" lon="5.86538">
        <ele>510</ele>
        <time>2022-05-01T12:04:24.871Z</time>
      </trkpt>
      <trkpt lat="45.78672" lon="5.86534">
        <ele>510</ele>
        <time>2022-05-01T12:04:25.871Z</time>
      </trkpt>
      <trkpt lat="45.7868" lon="5.8653">
        <ele>509</ele>
        <time>2022-05-01T12:04:26.871Z</time>
      </trkpt>
      <trkpt lat="45.78687" lon="5.86527">
        <ele>508</ele>
        <time>2022-05-01T12:04:27.871Z</time>
      </trkpt>
      <trkpt lat="45.78694" lon="5.86525">
        <ele>508</ele>
        <time>2022-05-01T12:04:28.871Z</time>
      </trkpt>
      <trkpt lat="45.78702" lon="5.86524">
        <ele>507</ele>
        <time>2022-05-01T12:04:29.871Z</time>
      </trkpt>
      <trkpt lat="45.78709" lon="5.86522">
        <ele>506</ele>
        <time>2022-05-01T12:04:30.871Z</time>
      </trkpt>
      <trkpt lat="45.78717" lon="5.8652">
        <ele>505</ele>
        <time>2022-05-01T12:04:31.870Z</time>
      </trkpt>
      <trkpt lat="45.78723" lon="5.86516">
        <ele>505</ele>
        <time>2022-05-01T12:04:32.871Z</time>
      </trkpt>
      <trkpt lat="45.7873" lon="5.86511">
        <ele>504</ele>
        <time>2022-05-01T12:04:33.870Z</time>
      </trkpt>
      <trkpt lat="45.78737" lon="5.86507">
        <ele>504</ele>
        <time>2022-05-01T12:04:34.871Z</time>
      </trkpt>
      <trkpt lat="45.78745" lon="5.86503">
        <ele>503</ele>
        <time>2022-05-01T12:04:35.870Z</time>
      </trkpt>
      <trkpt lat="45.78752" lon="5.865">
        <ele>503</ele>
        <time>2022-05-01T12:04:36.871Z</time>
      </trkpt>
      <trkpt lat="45.7876" lon="5.86497">
        <ele>503</ele>
        <time>2022-05-01T12:04:37.871Z</time>
      </trkpt>
      <trkpt lat="45.78768" lon="5.86493">
        <ele>502</ele>
        <time>2022-05-01T12:04:38.871Z</time>
      </trkpt>
      <trkpt lat="45.78776" lon="5.86489">
        <ele>502</ele>
        <time>2022-05-01T12:04:39.871Z</time>
      </trkpt>
      <trkpt lat="45.78783" lon="5.86484">
        <ele>502</ele>
        <time>2022-05-01T12:04:40.870Z</time>
      </trkpt>
      <trkpt lat="45.7879" lon="5.86478">
        <ele>502</ele>
        <time>2022-05-01T12:04:41.870Z</time>
      </trkpt>
      <trkpt lat="45.78796" lon="5.8647">
        <ele>502</ele>
        <time>2022-05-01T12:04:42.870Z</time>
      </trkpt>
      <trkpt lat="45.78803" lon="5.86462">
        <ele>502</ele>
        <time>2022-05-01T12:04:43.871Z</time>
      </trkpt>
      <trkpt lat="45.78808" lon="5.86452">
        <ele>501</ele>
        <time>2022-05-01T12:04:44.871Z</time>
      </trkpt>
      <trkpt lat="45.78815" lon="5.86441">
        <ele>501</ele>
        <time>2022-05-01T12:04:45.871Z</time>
      </trkpt>
      <trkpt lat="45.78821" lon="5.86432">
        <ele>501</ele>
        <time>2022-05-01T12:04:46.870Z</time>
      </trkpt>
      <trkpt lat="45.78829" lon="5.86423">
        <ele>500</ele>
        <time>2022-05-01T12:04:47.870Z</time>
      </trkpt>
      <trkpt lat="45.78837" lon="5.86413">
        <ele>500</ele>
        <time>2022-05-01T12:04:48.871Z</time>
      </trkpt>
      <trkpt lat="45.78846" lon="5.86404">
        <ele>499</ele>
        <time>2022-05-01T12:04:49.871Z</time>
      </trkpt>
      <trkpt lat="45.78855" lon="5.86396">
        <ele>498</ele>
        <time>2022-05-01T12:04:50.870Z</time>
      </trkpt>
      <trkpt lat="45.78863" lon="5.86387">
        <ele>497</ele>
        <time>2022-05-01T12:04:51.871Z</time>
      </trkpt>
      <trkpt lat="45.78872" lon="5.86379">
        <ele>496</ele>
        <time>2022-05-01T12:04:52.871Z</time>
      </trkpt>
      <trkpt lat="45.7888" lon="5.86372">
        <ele>495</ele>
        <time>2022-05-01T12:04:53.871Z</time>
      </trkpt>
      <trkpt lat="45.78888" lon="5.86365">
        <ele>494</ele>
        <time>2022-05-01T12:04:54.870Z</time>
      </trkpt>
      <trkpt lat="45.78896" lon="5.86359">
        <ele>493</ele>
        <time>2022-05-01T12:04:55.871Z</time>
      </trkpt>
      <trkpt lat="45.78903" lon="5.86354">
        <ele>493</ele>
        <time>2022-05-01T12:04:56.870Z</time>
      </trkpt>
      <trkpt lat="45.78911" lon="5.86349">
        <ele>492</ele>
        <time>2022-05-01T12:04:57.871Z</time>
      </trkpt>
      <trkpt lat="45.78919" lon="5.86344">
        <ele>491</ele>
        <time>2022-05-01T12:04:58.870Z</time>
      </trkpt>
      <trkpt lat="45.78926" lon="5.8634">
        <ele>491</ele>
        <time>2022-05-01T12:04:59.871Z</time>
      </trkpt>
      <trkpt lat="45.78934" lon="5.86336">
        <ele>491</ele>
        <time>2022-05-01T12:05:00.871Z</time>
      </trkpt>
      <trkpt lat="45.78942" lon="5.86333">
        <ele>490</ele>
        <time>2022-05-01T12:05:01.871Z</time>
      </trkpt>
      <trkpt lat="45.78951" lon="5.8633">
        <ele>490</ele>
        <time>2022-05-01T12:05:02.870Z</time>
      </trkpt>
      <trkpt lat="45.7896" lon="5.86327">
        <ele>489</ele>
        <time>2022-05-01T12:05:03.870Z</time>
      </trkpt>
      <trkpt lat="45.78969" lon="5.86323">
        <ele>488</ele>
        <time>2022-05-01T12:05:04.870Z</time>
      </trkpt>
      <trkpt lat="45.78979" lon="5.86319">
        <ele>487</ele>
        <time>2022-05-01T12:05:05.871Z</time>
      </trkpt>
      <trkpt lat="45.78988" lon="5.86315">
        <ele>486</ele>
        <time>2022-05-01T12:05:06.871Z</time>
      </trkpt>
      <trkpt lat="45.78996" lon="5.86312">
        <ele>485</ele>
        <time>2022-05-01T12:05:07.871Z</time>
      </trkpt>
      <trkpt lat="45.79008" lon="5.86306">
        <ele>483</ele>
        <time>2022-05-01T12:05:08.871Z</time>
      </trkpt>
      <trkpt lat="45.79018" lon="5.86302">
        <ele>482</ele>
        <time>2022-05-01T12:05:09.871Z</time>
      </trkpt>
      <trkpt lat="45.79027" lon="5.86297">
        <ele>481</ele>
        <time>2022-05-01T12:05:10.871Z</time>
      </trkpt>
      <trkpt lat="45.79034" lon="5.86295">
        <ele>480</ele>
        <time>2022-05-01T12:05:11.871Z</time>
      </trkpt>
      <trkpt lat="45.79044" lon="5.86292">
        <ele>479</ele>
        <time>2022-05-01T12:05:12.870Z</time>
      </trkpt>
      <trkpt lat="45.79053" lon="5.86289">
        <ele>477</ele>
        <time>2022-05-01T12:05:13.871Z</time>
      </trkpt>
      <trkpt lat="45.79061" lon="5.86287">
        <ele>476</ele>
        <time>2022-05-01T12:05:14.871Z</time>
      </trkpt>
      <trkpt lat="45.79068" lon="5.86286">
        <ele>474</ele>
        <time>2022-05-01T12:05:15.871Z</time>
      </trkpt>
      <trkpt lat="45.79076" lon="5.86284">
        <ele>473</ele>
        <time>2022-05-01T12:05:16.871Z</time>
      </trkpt>
      <trkpt lat="45.79083" lon="5.86284">
        <ele>472</ele>
        <time>2022-05-01T12:05:17.871Z</time>
      </trkpt>
      <trkpt lat="45.79088" lon="5.86283">
        <ele>471</ele>
        <time>2022-05-01T12:05:18.871Z</time>
      </trkpt>
      <trkpt lat="45.79094" lon="5.86284">
        <ele>470</ele>
        <time>2022-05-01T12:05:19.871Z</time>
      </trkpt>
      <trkpt lat="45.79099" lon="5.86285">
        <ele>469</ele>
        <time>2022-05-01T12:05:20.870Z</time>
      </trkpt>
      <trkpt lat="45.79106" lon="5.86288">
        <ele>468</ele>
        <time>2022-05-01T12:05:21.871Z</time>
      </trkpt>
      <trkpt lat="45.79112" lon="5.86292">
        <ele>467</ele>
        <time>2022-05-01T12:05:22.871Z</time>
      </trkpt>
      <trkpt lat="45.79119" lon="5.86295">
        <ele>467</ele>
        <time>2022-05-01T12:05:23.871Z</time>
      </trkpt>
      <trkpt lat="45.79126" lon="5.86298">
        <ele>466</ele>
        <time>2022-05-01T12:05:24.871Z</time>
      </trkpt>
      <trkpt lat="45.79132" lon="5.86299">
        <ele>464</ele>
        <time>2022-05-01T12:05:25.870Z</time>
      </trkpt>
      <trkpt lat="45.79139" lon="5.86298">
        <ele>463</ele>
        <time>2022-05-01T12:05:26.870Z</time>
      </trkpt>
      <trkpt lat="45.79145" lon="5.86295">
        <ele>462</ele>
        <time>2022-05-01T12:05:27.871Z</time>
      </trkpt>
      <trkpt lat="45.79153" lon="5.86292">
        <ele>461</ele>
        <time>2022-05-01T12:05:28.871Z</time>
      </trkpt>
      <trkpt lat="45.79158" lon="5.8629">
        <ele>461</ele>
        <time>2022-05-01T12:05:29.870Z</time>
      </trkpt>
      <trkpt lat="45.79164" lon="5.86289">
        <ele>460</ele>
        <time>2022-05-01T12:05:30.871Z</time>
      </trkpt>
      <trkpt lat="45.79172" lon="5.86288">
        <ele>459</ele>
        <time>2022-05-01T12:05:31.871Z</time>
      </trkpt>
      <trkpt lat="45.79178" lon="5.86288">
        <ele>459</ele>
        <time>2022-05-01T12:05:32.871Z</time>
      </trkpt>
      <trkpt lat="45.79184" lon="5.86288">
        <ele>459</ele>
        <time>2022-05-01T12:05:33.871Z</time>
      </trkpt>
      <trkpt lat="45.79189" lon="5.86287">
        <ele>458</ele>
        <time>2022-05-01T12:05:34.871Z</time>
      </trkpt>
      <trkpt lat="45.79193" lon="5.86284">
        <ele>458</ele>
        <time>2022-05-01T12:05:35.871Z</time>
      </trkpt>
      <trkpt lat="45.79198" lon="5.8628">
        <ele>457</ele>
        <time>2022-05-01T12:05:36.871Z</time>
      </trkpt>
      <trkpt lat="45.79205" lon="5.86277">
        <ele>457</ele>
        <time>2022-05-01T12:05:37.871Z</time>
      </trkpt>
      <trkpt lat="45.79211" lon="5.86274">
        <ele>456</ele>
        <time>2022-05-01T12:05:38.871Z</time>
      </trkpt>
      <trkpt lat="45.79217" lon="5.86272">
        <ele>456</ele>
        <time>2022-05-01T12:05:39.870Z</time>
      </trkpt>
      <trkpt lat="45.79225" lon="5.8627">
        <ele>455</ele>
        <time>2022-05-01T12:05:40.871Z</time>
      </trkpt>
      <trkpt lat="45.79231" lon="5.86268">
        <ele>454</ele>
        <time>2022-05-01T12:05:41.871Z</time>
      </trkpt>
      <trkpt lat="45.79239" lon="5.86267">
        <ele>454</ele>
        <time>2022-05-01T12:05:42.871Z</time>
      </trkpt>
      <trkpt lat="45.79247" lon="5.86267">
        <ele>454</ele>
        <time>2022-05-01T12:05:43.870Z</time>
      </trkpt>
      <trkpt lat="45.79255" lon="5.86266">
        <ele>453</ele>
        <time>2022-05-01T12:05:44.871Z</time>
      </trkpt>
      <trkpt lat="45.79266" lon="5.86266">
        <ele>453</ele>
        <time>2022-05-01T12:05:45.871Z</time>
      </trkpt>
      <trkpt lat="45.79275" lon="5.86265">
        <ele>452</ele>
        <time>2022-05-01T12:05:46.870Z</time>
      </trkpt>
      <trkpt lat="45.79283" lon="5.86263">
        <ele>452</ele>
        <time>2022-05-01T12:05:47.871Z</time>
      </trkpt>
      <trkpt lat="45.79293" lon="5.86263">
        <ele>452</ele>
        <time>2022-05-01T12:05:48.870Z</time>
      </trkpt>
      <trkpt lat="45.79303" lon="5.86263">
        <ele>451</ele>
        <time>2022-05-01T12:05:49.871Z</time>
      </trkpt>
      <trkpt lat="45.79315" lon="5.86262">
        <ele>450</ele>
        <time>2022-05-01T12:05:50.871Z</time>
      </trkpt>
      <trkpt lat="45.79323" lon="5.86261">
        <ele>450</ele>
        <time>2022-05-01T12:05:51.871Z</time>
      </trkpt>
      <trkpt lat="45.79333" lon="5.86258">
        <ele>449</ele>
        <time>2022-05-01T12:05:52.871Z</time>
      </trkpt>
      <trkpt lat="45.7934" lon="5.86257">
        <ele>447</ele>
        <time>2022-05-01T12:05:53.870Z</time>
      </trkpt>
      <trkpt lat="45.79348" lon="5.86254">
        <ele>446</ele>
        <time>2022-05-01T12:05:54.871Z</time>
      </trkpt>
      <trkpt lat="45.79356" lon="5.86252">
        <ele>445</ele>
        <time>2022-05-01T12:05:55.871Z</time>
      </trkpt>
      <trkpt lat="45.79366" lon="5.8625">
        <ele>444</ele>
        <time>2022-05-01T12:05:56.870Z</time>
      </trkpt>
      <trkpt lat="45.79373" lon="5.86249">
        <ele>443</ele>
        <time>2022-05-01T12:05:57.871Z</time>
      </trkpt>
      <trkpt lat="45.79382" lon="5.8625">
        <ele>443</ele>
        <time>2022-05-01T12:05:58.871Z</time>
      </trkpt>
      <trkpt lat="45.79388" lon="5.86251">
        <ele>442</ele>
        <time>2022-05-01T12:05:59.871Z</time>
      </trkpt>
      <trkpt lat="45.79397" lon="5.86252">
        <ele>441</ele>
        <time>2022-05-01T12:06:00.871Z</time>
      </trkpt>
      <trkpt lat="45.79407" lon="5.86254">
        <ele>440</ele>
        <time>2022-05-01T12:06:01.870Z</time>
      </trkpt>
      <trkpt lat="45.79415" lon="5.86256">
        <ele>439</ele>
        <time>2022-05-01T12:06:02.871Z</time>
      </trkpt>
      <trkpt lat="45.79423" lon="5.86257">
        <ele>438</ele>
        <time>2022-05-01T12:06:03.871Z</time>
      </trkpt>
      <trkpt lat="45.79431" lon="5.86257">
        <ele>437</ele>
        <time>2022-05-01T12:06:04.871Z</time>
      </trkpt>
      <trkpt lat="45.7944" lon="5.86256">
        <ele>436</ele>
        <time>2022-05-01T12:06:05.871Z</time>
      </trkpt>
      <trkpt lat="45.79446" lon="5.86254">
        <ele>436</ele>
        <time>2022-05-01T12:06:06.870Z</time>
      </trkpt>
      <trkpt lat="45.79453" lon="5.86253">
        <ele>435</ele>
        <time>2022-05-01T12:06:07.870Z</time>
      </trkpt>
      <trkpt lat="45.79461" lon="5.86253">
        <ele>434</ele>
        <time>2022-05-01T12:06:08.871Z</time>
      </trkpt>
      <trkpt lat="45.79468" lon="5.86253">
        <ele>433</ele>
        <time>2022-05-01T12:06:09.871Z</time>
      </trkpt>
      <trkpt lat="45.79475" lon="5.86254">
        <ele>432</ele>
        <time>2022-05-01T12:06:10.871Z</time>
      </trkpt>
      <trkpt lat="45.79483" lon="5.86256">
        <ele>431</ele>
        <time>2022-05-01T12:06:11.871Z</time>
      </trkpt>
      <trkpt lat="45.79489" lon="5.86258">
        <ele>430</ele>
        <time>2022-05-01T12:06:12.870Z</time>
      </trkpt>
      <trkpt lat="45.79496" lon="5.8626">
        <ele>430</ele>
        <time>2022-05-01T12:06:13.870Z</time>
      </trkpt>
      <trkpt lat="45.79506" lon="5.86264">
        <ele>429</ele>
        <time>2022-05-01T12:06:14.871Z</time>
      </trkpt>
      <trkpt lat="45.79514" lon="5.86267">
        <ele>428</ele>
        <time>2022-05-01T12:06:15.871Z</time>
      </trkpt>
      <trkpt lat="45.79522" lon="5.86269">
        <ele>427</ele>
        <time>2022-05-01T12:06:16.870Z</time>
      </trkpt>
      <trkpt lat="45.7953" lon="5.86269">
        <ele>427</ele>
        <time>2022-05-01T12:06:17.870Z</time>
      </trkpt>
      <trkpt lat="45.79538" lon="5.8627">
        <ele>426</ele>
        <time>2022-05-01T12:06:18.871Z</time>
      </trkpt>
      <trkpt lat="45.79547" lon="5.86271">
        <ele>425</ele>
        <time>2022-05-01T12:06:19.870Z</time>
      </trkpt>
      <trkpt lat="45.79555" lon="5.86271">
        <ele>424</ele>
        <time>2022-05-01T12:06:20.871Z</time>
      </trkpt>
      <trkpt lat="45.79564" lon="5.86272">
        <ele>423</ele>
        <time>2022-05-01T12:06:21.871Z</time>
      </trkpt>
      <trkpt lat="45.79573" lon="5.86273">
        <ele>421</ele>
        <time>2022-05-01T12:06:22.871Z</time>
      </trkpt>
      <trkpt lat="45.79581" lon="5.86273">
        <ele>420</ele>
        <time>2022-05-01T12:06:23.870Z</time>
      </trkpt>
      <trkpt lat="45.7959" lon="5.86273">
        <ele>419</ele>
        <time>2022-05-01T12:06:24.870Z</time>
      </trkpt>
      <trkpt lat="45.79598" lon="5.86273">
        <ele>418</ele>
        <time>2022-05-01T12:06:25.870Z</time>
      </trkpt>
      <trkpt lat="45.79607" lon="5.86274">
        <ele>417</ele>
        <time>2022-05-01T12:06:26.871Z</time>
      </trkpt>
      <trkpt lat="45.79614" lon="5.86275">
        <ele>416</ele>
        <time>2022-05-01T12:06:27.871Z</time>
      </trkpt>
      <trkpt lat="45.79624" lon="5.86279">
        <ele>415</ele>
        <time>2022-05-01T12:06:28.871Z</time>
      </trkpt>
      <trkpt lat="45.79634" lon="5.86283">
        <ele>415</ele>
        <time>2022-05-01T12:06:29.871Z</time>
      </trkpt>
      <trkpt lat="45.79643" lon="5.86285">
        <ele>414</ele>
        <time>2022-05-01T12:06:30.870Z</time>
      </trkpt>
      <trkpt lat="45.79652" lon="5.86286">
        <ele>414</ele>
        <time>2022-05-01T12:06:31.871Z</time>
      </trkpt>
      <trkpt lat="45.79661" lon="5.86287">
        <ele>413</ele>
        <time>2022-05-01T12:06:32.871Z</time>
      </trkpt>
      <trkpt lat="45.79671" lon="5.86287">
        <ele>413</ele>
        <time>2022-05-01T12:06:33.871Z</time>
      </trkpt>
      <trkpt lat="45.7968" lon="5.86287">
        <ele>412</ele>
        <time>2022-05-01T12:06:34.871Z</time>
      </trkpt>
      <trkpt lat="45.79688" lon="5.86285">
        <ele>411</ele>
        <time>2022-05-01T12:06:35.871Z</time>
      </trkpt>
      <trkpt lat="45.79697" lon="5.86283">
        <ele>410</ele>
        <time>2022-05-01T12:06:36.871Z</time>
      </trkpt>
      <trkpt lat="45.79706" lon="5.86282">
        <ele>410</ele>
        <time>2022-05-01T12:06:37.871Z</time>
      </trkpt>
      <trkpt lat="45.79714" lon="5.86281">
        <ele>409</ele>
        <time>2022-05-01T12:06:38.871Z</time>
      </trkpt>
      <trkpt lat="45.79723" lon="5.86279">
        <ele>408</ele>
        <time>2022-05-01T12:06:39.871Z</time>
      </trkpt>
      <trkpt lat="45.79731" lon="5.86276">
        <ele>408</ele>
        <time>2022-05-01T12:06:40.871Z</time>
      </trkpt>
      <trkpt lat="45.7974" lon="5.86274">
        <ele>406</ele>
        <time>2022-05-01T12:06:41.870Z</time>
      </trkpt>
      <trkpt lat="45.79748" lon="5.86271">
        <ele>405</ele>
        <time>2022-05-01T12:06:42.871Z</time>
      </trkpt>
      <trkpt lat="45.79756" lon="5.86269">
        <ele>404</ele>
        <time>2022-05-01T12:06:43.870Z</time>
      </trkpt>
      <trkpt lat="45.79765" lon="5.86267">
        <ele>402</ele>
        <time>2022-05-01T12:06:44.870Z</time>
      </trkpt>
      <trkpt lat="45.79773" lon="5.86265">
        <ele>401</ele>
        <time>2022-05-01T12:06:45.870Z</time>
      </trkpt>
      <trkpt lat="45.79781" lon="5.86263">
        <ele>400</ele>
        <time>2022-05-01T12:06:46.870Z</time>
      </trkpt>
      <trkpt lat="45.7979" lon="5.86261">
        <ele>399</ele>
        <time>2022-05-01T12:06:47.871Z</time>
      </trkpt>
      <trkpt lat="45.79798" lon="5.86259">
        <ele>398</ele>
        <time>2022-05-01T12:06:48.870Z</time>
      </trkpt>
      <trkpt lat="45.79807" lon="5.86258">
        <ele>397</ele>
        <time>2022-05-01T12:06:49.871Z</time>
      </trkpt>
      <trkpt lat="45.79816" lon="5.86257">
        <ele>397</ele>
        <time>2022-05-01T12:06:50.870Z</time>
      </trkpt>
      <trkpt lat="45.79826" lon="5.86256">
        <ele>396</ele>
        <time>2022-05-01T12:06:51.871Z</time>
      </trkpt>
      <trkpt lat="45.79836" lon="5.86253">
        <ele>395</ele>
        <time>2022-05-01T12:06:52.870Z</time>
      </trkpt>
      <trkpt lat="45.79845" lon="5.8625">
        <ele>394</ele>
        <time>2022-05-01T12:06:53.871Z</time>
      </trkpt>
      <trkpt lat="45.79855" lon="5.86245">
        <ele>392</ele>
        <time>2022-05-01T12:06:54.871Z</time>
      </trkpt>
      <trkpt lat="45.79864" lon="5.8624">
        <ele>391</ele>
        <time>2022-05-01T12:06:55.870Z</time>
      </trkpt>
      <trkpt lat="45.79873" lon="5.86233">
        <ele>391</ele>
        <time>2022-05-01T12:06:56.871Z</time>
      </trkpt>
      <trkpt lat="45.79882" lon="5.86227">
        <ele>390</ele>
        <time>2022-05-01T12:06:57.870Z</time>
      </trkpt>
      <trkpt lat="45.7989" lon="5.86219">
        <ele>389</ele>
        <time>2022-05-01T12:06:58.871Z</time>
      </trkpt>
      <trkpt lat="45.79899" lon="5.86212">
        <ele>388</ele>
        <time>2022-05-01T12:06:59.871Z</time>
      </trkpt>
      <trkpt lat="45.79908" lon="5.86206">
        <ele>387</ele>
        <time>2022-05-01T12:07:00.870Z</time>
      </trkpt>
      <trkpt lat="45.79917" lon="5.862">
        <ele>387</ele>
        <time>2022-05-01T12:07:01.870Z</time>
      </trkpt>
      <trkpt lat="45.79926" lon="5.86195">
        <ele>386</ele>
        <time>2022-05-01T12:07:02.870Z</time>
      </trkpt>
      <trkpt lat="45.79936" lon="5.8619">
        <ele>386</ele>
        <time>2022-05-01T12:07:03.870Z</time>
      </trkpt>
      <trkpt lat="45.79945" lon="5.86186">
        <ele>385</ele>
        <time>2022-05-01T12:07:04.871Z</time>
      </trkpt>
      <trkpt lat="45.79954" lon="5.86181">
        <ele>385</ele>
        <time>2022-05-01T12:07:05.871Z</time>
      </trkpt>
      <trkpt lat="45.79963" lon="5.86177">
        <ele>384</ele>
        <time>2022-05-01T12:07:06.871Z</time>
      </trkpt>
      <trkpt lat="45.79972" lon="5.86173">
        <ele>383</ele>
        <time>2022-05-01T12:07:07.870Z</time>
      </trkpt>
      <trkpt lat="45.7998" lon="5.86169">
        <ele>381</ele>
        <time>2022-05-01T12:07:08.870Z</time>
      </trkpt>
      <trkpt lat="45.79988" lon="5.86164">
        <ele>380</ele>
        <time>2022-05-01T12:07:09.870Z</time>
      </trkpt>
      <trkpt lat="45.79996" lon="5.86159">
        <ele>378</ele>
        <time>2022-05-01T12:07:10.870Z</time>
      </trkpt>
      <trkpt lat="45.80004" lon="5.86155">
        <ele>377</ele>
        <time>2022-05-01T12:07:11.871Z</time>
      </trkpt>
      <trkpt lat="45.80012" lon="5.86149">
        <ele>377</ele>
        <time>2022-05-01T12:07:12.871Z</time>
      </trkpt>
      <trkpt lat="45.80019" lon="5.86143">
        <ele>376</ele>
        <time>2022-05-01T12:07:13.870Z</time>
      </trkpt>
      <trkpt lat="45.80027" lon="5.86136">
        <ele>375</ele>
        <time>2022-05-01T12:07:14.870Z</time>
      </trkpt>
      <trkpt lat="45.80033" lon="5.86129">
        <ele>374</ele>
        <time>2022-05-01T12:07:15.870Z</time>
      </trkpt>
      <trkpt lat="45.8004" lon="5.8612">
        <ele>373</ele>
        <time>2022-05-01T12:07:16.871Z</time>
      </trkpt>
      <trkpt lat="45.80047" lon="5.86112">
        <ele>373</ele>
        <time>2022-05-01T12:07:17.870Z</time>
      </trkpt>
      <trkpt lat="45.80055" lon="5.86105">
        <ele>373</ele>
        <time>2022-05-01T12:07:18.870Z</time>
      </trkpt>
      <trkpt lat="45.80063" lon="5.86099">
        <ele>372</ele>
        <time>2022-05-01T12:07:19.870Z</time>
      </trkpt>
      <trkpt lat="45.80072" lon="5.86094">
        <ele>371</ele>
        <time>2022-05-01T12:07:20.871Z</time>
      </trkpt>
      <trkpt lat="45.80081" lon="5.86089">
        <ele>369</ele>
        <time>2022-05-01T12:07:21.870Z</time>
      </trkpt>
      <trkpt lat="45.8009" lon="5.86084">
        <ele>369</ele>
        <time>2022-05-01T12:07:22.870Z</time>
      </trkpt>
      <trkpt lat="45.80099" lon="5.86079">
        <ele>368</ele>
        <time>2022-05-01T12:07:23.870Z</time>
      </trkpt>
      <trkpt lat="45.80107" lon="5.86072">
        <ele>367</ele>
        <time>2022-05-01T12:07:24.870Z</time>
      </trkpt>
      <trkpt lat="45.80116" lon="5.86065">
        <ele>366</ele>
        <time>2022-05-01T12:07:25.870Z</time>
      </trkpt>
      <trkpt lat="45.80125" lon="5.86058">
        <ele>365</ele>
        <time>2022-05-01T12:07:26.871Z</time>
      </trkpt>
      <trkpt lat="45.80134" lon="5.86051">
        <ele>365</ele>
        <time>2022-05-01T12:07:27.870Z</time>
      </trkpt>
      <trkpt lat="45.80143" lon="5.86044">
        <ele>364</ele>
        <time>2022-05-01T12:07:28.871Z</time>
      </trkpt>
      <trkpt lat="45.80152" lon="5.86038">
        <ele>363</ele>
        <time>2022-05-01T12:07:29.870Z</time>
      </trkpt>
      <trkpt lat="45.80161" lon="5.86033">
        <ele>363</ele>
        <time>2022-05-01T12:07:30.871Z</time>
      </trkpt>
      <trkpt lat="45.80171" lon="5.86029">
        <ele>362</ele>
        <time>2022-05-01T12:07:31.871Z</time>
      </trkpt>
      <trkpt lat="45.80181" lon="5.86024">
        <ele>360</ele>
        <time>2022-05-01T12:07:32.871Z</time>
      </trkpt>
      <trkpt lat="45.80191" lon="5.8602">
        <ele>360</ele>
        <time>2022-05-01T12:07:33.871Z</time>
      </trkpt>
      <trkpt lat="45.80201" lon="5.86016">
        <ele>359</ele>
        <time>2022-05-01T12:07:34.870Z</time>
      </trkpt>
      <trkpt lat="45.80211" lon="5.86012">
        <ele>359</ele>
        <time>2022-05-01T12:07:35.871Z</time>
      </trkpt>
      <trkpt lat="45.80222" lon="5.8601">
        <ele>358</ele>
        <time>2022-05-01T12:07:36.871Z</time>
      </trkpt>
      <trkpt lat="45.80233" lon="5.86007">
        <ele>357</ele>
        <time>2022-05-01T12:07:37.871Z</time>
      </trkpt>
      <trkpt lat="45.80244" lon="5.86005">
        <ele>356</ele>
        <time>2022-05-01T12:07:38.870Z</time>
      </trkpt>
      <trkpt lat="45.80255" lon="5.86002">
        <ele>355</ele>
        <time>2022-05-01T12:07:39.870Z</time>
      </trkpt>
      <trkpt lat="45.80267" lon="5.85998">
        <ele>354</ele>
        <time>2022-05-01T12:07:40.871Z</time>
      </trkpt>
      <trkpt lat="45.80278" lon="5.85994">
        <ele>353</ele>
        <time>2022-05-01T12:07:41.871Z</time>
      </trkpt>
      <trkpt lat="45.80288" lon="5.85988">
        <ele>351</ele>
        <time>2022-05-01T12:07:42.871Z</time>
      </trkpt>
      <trkpt lat="45.80299" lon="5.85981">
        <ele>350</ele>
        <time>2022-05-01T12:07:43.870Z</time>
      </trkpt>
      <trkpt lat="45.8031" lon="5.85972">
        <ele>349</ele>
        <time>2022-05-01T12:07:44.870Z</time>
      </trkpt>
      <trkpt lat="45.8032" lon="5.85964">
        <ele>349</ele>
        <time>2022-05-01T12:07:45.871Z</time>
      </trkpt>
      <trkpt lat="45.8033" lon="5.85955">
        <ele>348</ele>
        <time>2022-05-01T12:07:46.871Z</time>
      </trkpt>
      <trkpt lat="45.80338" lon="5.85946">
        <ele>348</ele>
        <time>2022-05-01T12:07:47.870Z</time>
      </trkpt>
      <trkpt lat="45.80347" lon="5.85936">
        <ele>347</ele>
        <time>2022-05-01T12:07:48.870Z</time>
      </trkpt>
      <trkpt lat="45.80355" lon="5.85925">
        <ele>347</ele>
        <time>2022-05-01T12:07:49.870Z</time>
      </trkpt>
      <trkpt lat="45.80363" lon="5.85914">
        <ele>346</ele>
        <time>2022-05-01T12:07:50.871Z</time>
      </trkpt>
      <trkpt lat="45.80372" lon="5.85903">
        <ele>345</ele>
        <time>2022-05-01T12:07:51.870Z</time>
      </trkpt>
      <trkpt lat="45.80381" lon="5.85893">
        <ele>344</ele>
        <time>2022-05-01T12:07:52.871Z</time>
      </trkpt>
      <trkpt lat="45.80391" lon="5.85883">
        <ele>344</ele>
        <time>2022-05-01T12:07:53.870Z</time>
      </trkpt>
      <trkpt lat="45.80401" lon="5.85873">
        <ele>343</ele>
        <time>2022-05-01T12:07:54.870Z</time>
      </trkpt>
      <trkpt lat="45.8041" lon="5.85864">
        <ele>343</ele>
        <time>2022-05-01T12:07:55.870Z</time>
      </trkpt>
      <trkpt lat="45.80421" lon="5.85855">
        <ele>342</ele>
        <time>2022-05-01T12:07:56.870Z</time>
      </trkpt>
      <trkpt lat="45.80431" lon="5.85847">
        <ele>341</ele>
        <time>2022-05-01T12:07:57.870Z</time>
      </trkpt>
      <trkpt lat="45.80441" lon="5.85839">
        <ele>340</ele>
        <time>2022-05-01T12:07:58.870Z</time>
      </trkpt>
      <trkpt lat="45.80452" lon="5.85832">
        <ele>339</ele>
        <time>2022-05-01T12:07:59.870Z</time>
      </trkpt>
      <trkpt lat="45.80463" lon="5.85826">
        <ele>338</ele>
        <time>2022-05-01T12:08:00.871Z</time>
      </trkpt>
      <trkpt lat="45.80474" lon="5.85822">
        <ele>337</ele>
        <time>2022-05-01T12:08:01.871Z</time>
      </trkpt>
      <trkpt lat="45.80485" lon="5.85817">
        <ele>336</ele>
        <time>2022-05-01T12:08:02.870Z</time>
      </trkpt>
      <trkpt lat="45.80496" lon="5.85812">
        <ele>334</ele>
        <time>2022-05-01T12:08:03.870Z</time>
      </trkpt>
      <trkpt lat="45.80507" lon="5.85806">
        <ele>333</ele>
        <time>2022-05-01T12:08:04.871Z</time>
      </trkpt>
      <trkpt lat="45.80518" lon="5.85801">
        <ele>332</ele>
        <time>2022-05-01T12:08:05.870Z</time>
      </trkpt>
      <trkpt lat="45.80528" lon="5.85796">
        <ele>331</ele>
        <time>2022-05-01T12:08:06.871Z</time>
      </trkpt>
      <trkpt lat="45.80538" lon="5.85792">
        <ele>330</ele>
        <time>2022-05-01T12:08:07.870Z</time>
      </trkpt>
      <trkpt lat="45.80548" lon="5.85787">
        <ele>328</ele>
        <time>2022-05-01T12:08:08.870Z</time>
      </trkpt>
      <trkpt lat="45.80558" lon="5.85782">
        <ele>328</ele>
        <time>2022-05-01T12:08:09.871Z</time>
      </trkpt>
      <trkpt lat="45.80567" lon="5.85775">
        <ele>327</ele>
        <time>2022-05-01T12:08:10.871Z</time>
      </trkpt>
      <trkpt lat="45.80576" lon="5.85768">
        <ele>327</ele>
        <time>2022-05-01T12:08:11.870Z</time>
      </trkpt>
      <trkpt lat="45.80584" lon="5.85761">
        <ele>326</ele>
        <time>2022-05-01T12:08:12.871Z</time>
      </trkpt>
      <trkpt lat="45.80592" lon="5.85755">
        <ele>326</ele>
        <time>2022-05-01T12:08:13.871Z</time>
      </trkpt>
      <trkpt lat="45.80601" lon="5.85751">
        <ele>325</ele>
        <time>2022-05-01T12:08:14.871Z</time>
      </trkpt>
      <trkpt lat="45.80611" lon="5.85747">
        <ele>325</ele>
        <time>2022-05-01T12:08:15.870Z</time>
      </trkpt>
      <trkpt lat="45.8062" lon="5.85744">
        <ele>324</ele>
        <time>2022-05-01T12:08:16.870Z</time>
      </trkpt>
      <trkpt lat="45.80629" lon="5.8574">
        <ele>323</ele>
        <time>2022-05-01T12:08:17.871Z</time>
      </trkpt>
      <trkpt lat="45.80639" lon="5.85737">
        <ele>323</ele>
        <time>2022-05-01T12:08:18.870Z</time>
      </trkpt>
      <trkpt lat="45.80649" lon="5.85734">
        <ele>322</ele>
        <time>2022-05-01T12:08:19.871Z</time>
      </trkpt>
      <trkpt lat="45.80659" lon="5.8573">
        <ele>321</ele>
        <time>2022-05-01T12:08:20.870Z</time>
      </trkpt>
      <trkpt lat="45.80669" lon="5.85725">
        <ele>320</ele>
        <time>2022-05-01T12:08:21.871Z</time>
      </trkpt>
      <trkpt lat="45.80678" lon="5.85721">
        <ele>318</ele>
        <time>2022-05-01T12:08:22.871Z</time>
      </trkpt>
      <trkpt lat="45.80687" lon="5.85715">
        <ele>317</ele>
        <time>2022-05-01T12:08:23.870Z</time>
      </trkpt>
      <trkpt lat="45.80695" lon="5.85709">
        <ele>317</ele>
        <time>2022-05-01T12:08:24.871Z</time>
      </trkpt>
      <trkpt lat="45.80703" lon="5.85704">
        <ele>316</ele>
        <time>2022-05-01T12:08:25.870Z</time>
      </trkpt>
      <trkpt lat="45.80711" lon="5.85699">
        <ele>315</ele>
        <time>2022-05-01T12:08:26.871Z</time>
      </trkpt>
      <trkpt lat="45.80719" lon="5.85694">
        <ele>315</ele>
        <time>2022-05-01T12:08:27.870Z</time>
      </trkpt>
      <trkpt lat="45.80727" lon="5.8569">
        <ele>314</ele>
        <time>2022-05-01T12:08:28.871Z</time>
      </trkpt>
      <trkpt lat="45.80735" lon="5.85686">
        <ele>313</ele>
        <time>2022-05-01T12:08:29.870Z</time>
      </trkpt>
      <trkpt lat="45.80743" lon="5.85681">
        <ele>312</ele>
        <time>2022-05-01T12:08:30.870Z</time>
      </trkpt>
      <trkpt lat="45.80751" lon="5.85677">
        <ele>311</ele>
        <time>2022-05-01T12:08:31.871Z</time>
      </trkpt>
      <trkpt lat="45.80759" lon="5.85673">
        <ele>311</ele>
        <time>2022-05-01T12:08:32.871Z</time>
      </trkpt>
      <trkpt lat="45.80767" lon="5.85669">
        <ele>310</ele>
        <time>2022-05-01T12:08:33.871Z</time>
      </trkpt>
      <trkpt lat="45.80775" lon="5.85664">
        <ele>310</ele>
        <time>2022-05-01T12:08:34.871Z</time>
      </trkpt>
      <trkpt lat="45.80782" lon="5.85659">
        <ele>309</ele>
        <time>2022-05-01T12:08:35.871Z</time>
      </trkpt>
      <trkpt lat="45.80789" lon="5.85654">
        <ele>308</ele>
        <time>2022-05-01T12:08:36.870Z</time>
      </trkpt>
      <trkpt lat="45.80797" lon="5.8565">
        <ele>307</ele>
        <time>2022-05-01T12:08:37.871Z</time>
      </trkpt>
      <trkpt lat="45.80804" lon="5.85645">
        <ele>306</ele>
        <time>2022-05-01T12:08:38.871Z</time>
      </trkpt>
      <trkpt lat="45.80811" lon="5.8564">
        <ele>305</ele>
        <time>2022-05-01T12:08:39.871Z</time>
      </trkpt>
      <trkpt lat="45.80819" lon="5.85635">
        <ele>305</ele>
        <time>2022-05-01T12:08:40.870Z</time>
      </trkpt>
      <trkpt lat="45.80827" lon="5.85629">
        <ele>304</ele>
        <time>2022-05-01T12:08:41.870Z</time>
      </trkpt>
      <trkpt lat="45.80834" lon="5.85624">
        <ele>303</ele>
        <time>2022-05-01T12:08:42.871Z</time>
      </trkpt>
      <trkpt lat="45.80842" lon="5.85619">
        <ele>302</ele>
        <time>2022-05-01T12:08:43.870Z</time>
      </trkpt>
      <trkpt lat="45.80849" lon="5.85613">
        <ele>302</ele>
        <time>2022-05-01T12:08:44.871Z</time>
      </trkpt>
      <trkpt lat="45.80857" lon="5.85607">
        <ele>301</ele>
        <time>2022-05-01T12:08:45.870Z</time>
      </trkpt>
      <trkpt lat="45.80864" lon="5.85601">
        <ele>301</ele>
        <time>2022-05-01T12:08:46.871Z</time>
      </trkpt>
      <trkpt lat="45.80872" lon="5.85594">
        <ele>300</ele>
        <time>2022-05-01T12:08:47.871Z</time>
      </trkpt>
      <trkpt lat="45.8088" lon="5.85589">
        <ele>301</ele>
        <time>2022-05-01T12:08:48.871Z</time>
      </trkpt>
      <trkpt lat="45.80889" lon="5.85584">
        <ele>301</ele>
        <time>2022-05-01T12:08:49.871Z</time>
      </trkpt>
      <trkpt lat="45.80898" lon="5.85577">
        <ele>300</ele>
        <time>2022-05-01T12:08:50.870Z</time>
      </trkpt>
      <trkpt lat="45.80907" lon="5.85571">
        <ele>300</ele>
        <time>2022-05-01T12:08:51.870Z</time>
      </trkpt>
      <trkpt lat="45.80916" lon="5.85563">
        <ele>299</ele>
        <time>2022-05-01T12:08:52.871Z</time>
      </trkpt>
      <trkpt lat="45.80923" lon="5.85553">
        <ele>299</ele>
        <time>2022-05-01T12:08:53.870Z</time>
      </trkpt>
      <trkpt lat="45.80931" lon="5.85542">
        <ele>298</ele>
        <time>2022-05-01T12:08:54.871Z</time>
      </trkpt>
      <trkpt lat="45.80938" lon="5.85531">
        <ele>298</ele>
        <time>2022-05-01T12:08:55.870Z</time>
      </trkpt>
      <trkpt lat="45.80946" lon="5.85521">
        <ele>297</ele>
        <time>2022-05-01T12:08:56.871Z</time>
      </trkpt>
      <trkpt lat="45.80955" lon="5.85511">
        <ele>296</ele>
        <time>2022-05-01T12:08:57.871Z</time>
      </trkpt>
      <trkpt lat="45.80964" lon="5.85502">
        <ele>295</ele>
        <time>2022-05-01T12:08:58.871Z</time>
      </trkpt>
      <trkpt lat="45.80974" lon="5.85494">
        <ele>294</ele>
        <time>2022-05-01T12:08:59.871Z</time>
      </trkpt>
      <trkpt lat="45.80984" lon="5.85486">
        <ele>293</ele>
        <time>2022-05-01T12:09:00.870Z</time>
      </trkpt>
      <trkpt lat="45.80994" lon="5.85478">
        <ele>292</ele>
        <time>2022-05-01T12:09:01.870Z</time>
      </trkpt>
      <trkpt lat="45.81004" lon="5.8547">
        <ele>291</ele>
        <time>2022-05-01T12:09:02.870Z</time>
      </trkpt>
      <trkpt lat="45.81013" lon="5.85461">
        <ele>290</ele>
        <time>2022-05-01T12:09:03.871Z</time>
      </trkpt>
      <trkpt lat="45.81022" lon="5.85451">
        <ele>290</ele>
        <time>2022-05-01T12:09:04.871Z</time>
      </trkpt>
      <trkpt lat="45.8103" lon="5.85439">
        <ele>289</ele>
        <time>2022-05-01T12:09:05.870Z</time>
      </trkpt>
      <trkpt lat="45.81038" lon="5.85427">
        <ele>288</ele>
        <time>2022-05-01T12:09:06.870Z</time>
      </trkpt>
      <trkpt lat="45.81046" lon="5.85415">
        <ele>287</ele>
        <time>2022-05-01T12:09:07.871Z</time>
      </trkpt>
      <trkpt lat="45.81054" lon="5.85402">
        <ele>285</ele>
        <time>2022-05-01T12:09:08.871Z</time>
      </trkpt>
      <trkpt lat="45.81061" lon="5.8539">
        <ele>284</ele>
        <time>2022-05-01T12:09:09.871Z</time>
      </trkpt>
      <trkpt lat="45.81068" lon="5.85379">
        <ele>283</ele>
        <time>2022-05-01T12:09:10.871Z</time>
      </trkpt>
      <trkpt lat="45.81075" lon="5.85369">
        <ele>282</ele>
        <time>2022-05-01T12:09:11.871Z</time>
      </trkpt>
      <trkpt lat="45.81082" lon="5.85359">
        <ele>281</ele>
        <time>2022-05-01T12:09:12.871Z</time>
      </trkpt>
      <trkpt lat="45.81088" lon="5.85352">
        <ele>280</ele>
        <time>2022-05-01T12:09:13.871Z</time>
      </trkpt>
      <trkpt lat="45.81093" lon="5.85344">
        <ele>278</ele>
        <time>2022-05-01T12:09:14.870Z</time>
      </trkpt>
      <trkpt lat="45.81096" lon="5.85337">
        <ele>277</ele>
        <time>2022-05-01T12:09:15.870Z</time>
      </trkpt>
      <trkpt lat="45.81098" lon="5.8533">
        <ele>276</ele>
        <time>2022-05-01T12:09:16.871Z</time>
      </trkpt>
      <trkpt lat="45.811" lon="5.8532">
        <ele>275</ele>
        <time>2022-05-01T12:09:17.871Z</time>
      </trkpt>
      <trkpt lat="45.811" lon="5.8531">
        <ele>275</ele>
        <time>2022-05-01T12:09:18.871Z</time>
      </trkpt>
      <trkpt lat="45.811" lon="5.85299">
        <ele>275</ele>
        <time>2022-05-01T12:09:19.871Z</time>
      </trkpt>
      <trkpt lat="45.811" lon="5.85289">
        <ele>274</ele>
        <time>2022-05-01T12:09:20.870Z</time>
      </trkpt>
      <trkpt lat="45.81101" lon="5.85279">
        <ele>274</ele>
        <time>2022-05-01T12:09:21.870Z</time>
      </trkpt>
      <trkpt lat="45.81104" lon="5.8527">
        <ele>274</ele>
        <time>2022-05-01T12:09:22.871Z</time>
      </trkpt>
      <trkpt lat="45.81108" lon="5.85261">
        <ele>273</ele>
        <time>2022-05-01T12:09:23.871Z</time>
      </trkpt>
      <trkpt lat="45.81113" lon="5.85252">
        <ele>272</ele>
        <time>2022-05-01T12:09:24.871Z</time>
      </trkpt>
      <trkpt lat="45.81118" lon="5.85242">
        <ele>271</ele>
        <time>2022-05-01T12:09:25.870Z</time>
      </trkpt>
      <trkpt lat="45.81124" lon="5.85232">
        <ele>270</ele>
        <time>2022-05-01T12:09:26.870Z</time>
      </trkpt>
      <trkpt lat="45.8113" lon="5.85222">
        <ele>269</ele>
        <time>2022-05-01T12:09:27.870Z</time>
      </trkpt>
      <trkpt lat="45.81136" lon="5.85213">
        <ele>268</ele>
        <time>2022-05-01T12:09:28.871Z</time>
      </trkpt>
      <trkpt lat="45.81141" lon="5.85204">
        <ele>266</ele>
        <time>2022-05-01T12:09:29.870Z</time>
      </trkpt>
      <trkpt lat="45.81147" lon="5.85195">
        <ele>265</ele>
        <time>2022-05-01T12:09:30.870Z</time>
      </trkpt>
      <trkpt lat="45.81152" lon="5.85186">
        <ele>264</ele>
        <time>2022-05-01T12:09:31.870Z</time>
      </trkpt>
      <trkpt lat="45.81158" lon="5.85176">
        <ele>263</ele>
        <time>2022-05-01T12:09:32.871Z</time>
      </trkpt>
      <trkpt lat="45.81163" lon="5.85168">
        <ele>262</ele>
        <time>2022-05-01T12:09:33.870Z</time>
      </trkpt>
      <trkpt lat="45.81168" lon="5.85159">
        <ele>261</ele>
        <time>2022-05-01T12:09:34.871Z</time>
      </trkpt>
      <trkpt lat="45.81171" lon="5.8515">
        <ele>260</ele>
        <time>2022-05-01T12:09:35.870Z</time>
      </trkpt>
      <trkpt lat="45.81172" lon="5.85142">
        <ele>259</ele>
        <time>2022-05-01T12:09:36.870Z</time>
      </trkpt>
      <trkpt lat="45.81173" lon="5.85131">
        <ele>258</ele>
        <time>2022-05-01T12:09:37.871Z</time>
      </trkpt>
      <trkpt lat="45.81171" lon="5.85121">
        <ele>257</ele>
        <time>2022-05-01T12:09:38.871Z</time>
      </trkpt>
      <trkpt lat="45.81168" lon="5.85112">
        <ele>256</ele>
        <time>2022-05-01T12:09:39.871Z</time>
      </trkpt>
      <trkpt lat="45.81165" lon="5.85105">
        <ele>256</ele>
        <time>2022-05-01T12:09:40.871Z</time>
      </trkpt>
      <trkpt lat="45.81161" lon="5.85097">
        <ele>255</ele>
        <time>2022-05-01T12:09:41.871Z</time>
      </trkpt>
      <trkpt lat="45.81155" lon="5.85088">
        <ele>255</ele>
        <time>2022-05-01T12:09:42.871Z</time>
      </trkpt>
      <trkpt lat="45.81151" lon="5.85081">
        <ele>254</ele>
        <time>2022-05-01T12:09:43.871Z</time>
      </trkpt>
      <trkpt lat="45.81146" lon="5.85075">
        <ele>253</ele>
        <time>2022-05-01T12:09:44.871Z</time>
      </trkpt>
      <trkpt lat="45.81141" lon="5.8507">
        <ele>253</ele>
        <time>2022-05-01T12:09:45.871Z</time>
      </trkpt>
      <trkpt lat="45.81136" lon="5.85068">
        <ele>252</ele>
        <time>2022-05-01T12:09:46.870Z</time>
      </trkpt>
      <trkpt lat="45.81132" lon="5.85066">
        <ele>252</ele>
        <time>2022-05-01T12:09:47.871Z</time>
      </trkpt>
      <trkpt lat="45.81128" lon="5.85066">
        <ele>251</ele>
        <time>2022-05-01T12:09:48.870Z</time>
      </trkpt>
      <trkpt lat="45.81123" lon="5.85066">
        <ele>251</ele>
        <time>2022-05-01T12:09:49.871Z</time>
      </trkpt>
      <trkpt lat="45.81119" lon="5.85067">
        <ele>251</ele>
        <time>2022-05-01T12:09:50.871Z</time>
      </trkpt>
      <trkpt lat="45.81115" lon="5.85069">
        <ele>251</ele>
        <time>2022-05-01T12:09:51.871Z</time>
      </trkpt>
      <trkpt lat="45.81112" lon="5.85072">
        <ele>251</ele>
        <time>2022-05-01T12:09:52.871Z</time>
      </trkpt>
      <trkpt lat="45.81109" lon="5.85074">
        <ele>250</ele>
        <time>2022-05-01T12:09:53.871Z</time>
      </trkpt>
      <trkpt lat="45.81107" lon="5.85076">
        <ele>250</ele>
        <time>2022-05-01T12:09:54.871Z</time>
      </trkpt>
      <trkpt lat="45.81106" lon="5.85077">
        <ele>250</ele>
        <time>2022-05-01T12:09:55.871Z</time>
      </trkpt>
      <trkpt lat="45.81105" lon="5.85078">
        <ele>250</ele>
        <time>2022-05-01T12:09:56.871Z</time>
      </trkpt>
      <trkpt lat="45.81104" lon="5.85078">
        <ele>250</ele>
        <time>2022-05-01T12:09:57.870Z</time>
      </trkpt>
      <trkpt lat="45.81104" lon="5.85078">
        <ele>250</ele>
        <time>2022-05-01T12:09:58.871Z</time>
      </trkpt>
      <trkpt lat="45.81102" lon="5.85085">
        <ele>254</ele>
        <time>2022-05-01T12:15:03.897Z</time>
      </trkpt>
      <trkpt lat="45.81099" lon="5.85086">
        <ele>254</ele>
        <time>2022-05-01T12:15:04.898Z</time>
      </trkpt>
      <trkpt lat="45.81096" lon="5.85087">
        <ele>254</ele>
        <time>2022-05-01T12:15:05.897Z</time>
      </trkpt>
      <trkpt lat="45.81093" lon="5.85086">
        <ele>253</ele>
        <time>2022-05-01T12:15:06.897Z</time>
      </trkpt>
      <trkpt lat="45.8109" lon="5.85084">
        <ele>252</ele>
        <time>2022-05-01T12:15:07.898Z</time>
      </trkpt>
      <trkpt lat="45.81087" lon="5.8508">
        <ele>251</ele>
        <time>2022-05-01T12:15:08.898Z</time>
      </trkpt>
      <trkpt lat="45.81085" lon="5.85077">
        <ele>251</ele>
        <time>2022-05-01T12:15:09.898Z</time>
      </trkpt>
      <trkpt lat="45.81082" lon="5.85073">
        <ele>250</ele>
        <time>2022-05-01T12:15:10.898Z</time>
      </trkpt>
      <trkpt lat="45.8108" lon="5.85068">
        <ele>249</ele>
        <time>2022-05-01T12:15:11.897Z</time>
      </trkpt>
      <trkpt lat="45.81078" lon="5.85063">
        <ele>249</ele>
        <time>2022-05-01T12:15:12.898Z</time>
      </trkpt>
      <trkpt lat="45.81074" lon="5.85058">
        <ele>249</ele>
        <time>2022-05-01T12:15:13.898Z</time>
      </trkpt>
      <trkpt lat="45.81071" lon="5.85055">
        <ele>249</ele>
        <time>2022-05-01T12:15:14.898Z</time>
      </trkpt>
      <trkpt lat="45.81067" lon="5.85054">
        <ele>248</ele>
        <time>2022-05-01T12:15:15.897Z</time>
      </trkpt>
      <trkpt lat="45.81063" lon="5.85054">
        <ele>247</ele>
        <time>2022-05-01T12:15:16.898Z</time>
      </trkpt>
      <trkpt lat="45.81059" lon="5.85056">
        <ele>247</ele>
        <time>2022-05-01T12:15:17.897Z</time>
      </trkpt>
      <trkpt lat="45.81056" lon="5.85061">
        <ele>247</ele>
        <time>2022-05-01T12:15:18.898Z</time>
      </trkpt>
      <trkpt lat="45.81053" lon="5.85066">
        <ele>248</ele>
        <time>2022-05-01T12:15:19.898Z</time>
      </trkpt>
      <trkpt lat="45.81051" lon="5.85071">
        <ele>247</ele>
        <time>2022-05-01T12:15:20.898Z</time>
      </trkpt>
      <trkpt lat="45.8105" lon="5.85077">
        <ele>247</ele>
        <time>2022-05-01T12:15:21.898Z</time>
      </trkpt>
      <trkpt lat="45.81048" lon="5.85082">
        <ele>246</ele>
        <time>2022-05-01T12:15:22.898Z</time>
      </trkpt>
      <trkpt lat="45.81046" lon="5.85088">
        <ele>245</ele>
        <time>2022-05-01T12:15:23.898Z</time>
      </trkpt>
      <trkpt lat="45.81044" lon="5.85092">
        <ele>245</ele>
        <time>2022-05-01T12:15:24.898Z</time>
      </trkpt>
      <trkpt lat="45.81042" lon="5.85096">
        <ele>244</ele>
        <time>2022-05-01T12:15:25.897Z</time>
      </trkpt>
      <trkpt lat="45.81039" lon="5.851">
        <ele>244</ele>
        <time>2022-05-01T12:15:26.897Z</time>
      </trkpt>
      <trkpt lat="45.81035" lon="5.85103">
        <ele>244</ele>
        <time>2022-05-01T12:15:27.898Z</time>
      </trkpt>
      <trkpt lat="45.81031" lon="5.85107">
        <ele>244</ele>
        <time>2022-05-01T12:15:28.898Z</time>
      </trkpt>
      <trkpt lat="45.81028" lon="5.85109">
        <ele>244</ele>
        <time>2022-05-01T12:15:29.898Z</time>
      </trkpt>
      <trkpt lat="45.81024" lon="5.85113">
        <ele>244</ele>
        <time>2022-05-01T12:15:30.897Z</time>
      </trkpt>
      <trkpt lat="45.8102" lon="5.85116">
        <ele>244</ele>
        <time>2022-05-01T12:15:31.897Z</time>
      </trkpt>
      <trkpt lat="45.81016" lon="5.85119">
        <ele>244</ele>
        <time>2022-05-01T12:15:32.898Z</time>
      </trkpt>
      <trkpt lat="45.81013" lon="5.85123">
        <ele>244</ele>
        <time>2022-05-01T12:15:33.898Z</time>
      </trkpt>
      <trkpt lat="45.81008" lon="5.85127">
        <ele>244</ele>
        <time>2022-05-01T12:15:34.898Z</time>
      </trkpt>
      <trkpt lat="45.81004" lon="5.85131">
        <ele>244</ele>
        <time>2022-05-01T12:15:35.897Z</time>
      </trkpt>
      <trkpt lat="45.81" lon="5.85135">
        <ele>244</ele>
        <time>2022-05-01T12:15:36.898Z</time>
      </trkpt>
      <trkpt lat="45.80995" lon="5.85139">
        <ele>244</ele>
        <time>2022-05-01T12:15:37.897Z</time>
      </trkpt>
      <trkpt lat="45.80991" lon="5.85143">
        <ele>244</ele>
        <time>2022-05-01T12:15:38.898Z</time>
      </trkpt>
      <trkpt lat="45.80986" lon="5.85147">
        <ele>244</ele>
        <time>2022-05-01T12:15:39.898Z</time>
      </trkpt>
      <trkpt lat="45.80982" lon="5.85152">
        <ele>244</ele>
        <time>2022-05-01T12:15:40.897Z</time>
      </trkpt>
      <trkpt lat="45.80976" lon="5.85157">
        <ele>244</ele>
        <time>2022-05-01T12:15:41.898Z</time>
      </trkpt>
      <trkpt lat="45.80971" lon="5.85161">
        <ele>244</ele>
        <time>2022-05-01T12:15:42.898Z</time>
      </trkpt>
      <trkpt lat="45.80967" lon="5.85165">
        <ele>244</ele>
        <time>2022-05-01T12:15:43.898Z</time>
      </trkpt>
      <trkpt lat="45.80963" lon="5.85168">
        <ele>244</ele>
        <time>2022-05-01T12:15:44.898Z</time>
      </trkpt>
      <trkpt lat="45.80959" lon="5.85171">
        <ele>244</ele>
        <time>2022-05-01T12:15:45.898Z</time>
      </trkpt>
      <trkpt lat="45.80953" lon="5.85176">
        <ele>244</ele>
        <time>2022-05-01T12:15:46.897Z</time>
      </trkpt>
      <trkpt lat="45.80948" lon="5.8518">
        <ele>244</ele>
        <time>2022-05-01T12:15:47.898Z</time>
      </trkpt>
      <trkpt lat="45.80943" lon="5.85184">
        <ele>244</ele>
        <time>2022-05-01T12:15:48.898Z</time>
      </trkpt>
      <trkpt lat="45.8094" lon="5.85188">
        <ele>244</ele>
        <time>2022-05-01T12:15:49.898Z</time>
      </trkpt>
      <trkpt lat="45.80935" lon="5.85192">
        <ele>245</ele>
        <time>2022-05-01T12:15:50.897Z</time>
      </trkpt>
      <trkpt lat="45.8093" lon="5.85196">
        <ele>245</ele>
        <time>2022-05-01T12:15:51.897Z</time>
      </trkpt>
      <trkpt lat="45.80924" lon="5.85202">
        <ele>246</ele>
        <time>2022-05-01T12:15:52.897Z</time>
      </trkpt>
      <trkpt lat="45.8092" lon="5.85206">
        <ele>246</ele>
        <time>2022-05-01T12:15:53.898Z</time>
      </trkpt>
      <trkpt lat="45.80916" lon="5.85209">
        <ele>246</ele>
        <time>2022-05-01T12:15:54.898Z</time>
      </trkpt>
      <trkpt lat="45.80911" lon="5.85214">
        <ele>246</ele>
        <time>2022-05-01T12:15:55.897Z</time>
      </trkpt>
      <trkpt lat="45.80906" lon="5.85219">
        <ele>246</ele>
        <time>2022-05-01T12:15:56.897Z</time>
      </trkpt>
      <trkpt lat="45.80902" lon="5.85223">
        <ele>246</ele>
        <time>2022-05-01T12:15:57.898Z</time>
      </trkpt>
      <trkpt lat="45.80897" lon="5.85228">
        <ele>246</ele>
        <time>2022-05-01T12:15:58.898Z</time>
      </trkpt>
      <trkpt lat="45.80892" lon="5.85233">
        <ele>246</ele>
        <time>2022-05-01T12:15:59.897Z</time>
      </trkpt>
      <trkpt lat="45.80887" lon="5.85237">
        <ele>246</ele>
        <time>2022-05-01T12:16:00.897Z</time>
      </trkpt>
      <trkpt lat="45.80882" lon="5.85242">
        <ele>246</ele>
        <time>2022-05-01T12:16:01.897Z</time>
      </trkpt>
      <trkpt lat="45.80876" lon="5.85248">
        <ele>246</ele>
        <time>2022-05-01T12:16:02.898Z</time>
      </trkpt>
      <trkpt lat="45.80872" lon="5.85252">
        <ele>246</ele>
        <time>2022-05-01T12:16:03.898Z</time>
      </trkpt>
      <trkpt lat="45.80867" lon="5.85256">
        <ele>246</ele>
        <time>2022-05-01T12:16:04.898Z</time>
      </trkpt>
      <trkpt lat="45.80862" lon="5.85261">
        <ele>246</ele>
        <time>2022-05-01T12:16:05.898Z</time>
      </trkpt>
      <trkpt lat="45.80857" lon="5.85266">
        <ele>246</ele>
        <time>2022-05-01T12:16:06.897Z</time>
      </trkpt>
      <trkpt lat="45.80851" lon="5.85271">
        <ele>246</ele>
        <time>2022-05-01T12:16:07.898Z</time>
      </trkpt>
      <trkpt lat="45.80847" lon="5.85275">
        <ele>246</ele>
        <time>2022-05-01T12:16:08.898Z</time>
      </trkpt>
      <trkpt lat="45.80842" lon="5.85279">
        <ele>246</ele>
        <time>2022-05-01T12:16:09.898Z</time>
      </trkpt>
      <trkpt lat="45.80835" lon="5.85285">
        <ele>246</ele>
        <time>2022-05-01T12:16:10.898Z</time>
      </trkpt>
      <trkpt lat="45.8083" lon="5.85289">
        <ele>246</ele>
        <time>2022-05-01T12:16:11.897Z</time>
      </trkpt>
      <trkpt lat="45.80826" lon="5.85293">
        <ele>246</ele>
        <time>2022-05-01T12:16:12.898Z</time>
      </trkpt>
      <trkpt lat="45.80821" lon="5.85298">
        <ele>245</ele>
        <time>2022-05-01T12:16:13.898Z</time>
      </trkpt>
      <trkpt lat="45.80816" lon="5.85303">
        <ele>245</ele>
        <time>2022-05-01T12:16:14.898Z</time>
      </trkpt>
      <trkpt lat="45.80811" lon="5.85307">
        <ele>245</ele>
        <time>2022-05-01T12:16:15.898Z</time>
      </trkpt>
      <trkpt lat="45.80805" lon="5.85311">
        <ele>244</ele>
        <time>2022-05-01T12:16:16.897Z</time>
      </trkpt>
      <trkpt lat="45.808" lon="5.85314">
        <ele>244</ele>
        <time>2022-05-01T12:16:17.898Z</time>
      </trkpt>
      <trkpt lat="45.80794" lon="5.85318">
        <ele>243</ele>
        <time>2022-05-01T12:16:18.897Z</time>
      </trkpt>
      <trkpt lat="45.80787" lon="5.85322">
        <ele>243</ele>
        <time>2022-05-01T12:16:19.897Z</time>
      </trkpt>
      <trkpt lat="45.80781" lon="5.85325">
        <ele>243</ele>
        <time>2022-05-01T12:16:20.898Z</time>
      </trkpt>
      <trkpt lat="45.80777" lon="5.85326">
        <ele>243</ele>
        <time>2022-05-01T12:16:21.898Z</time>
      </trkpt>
      <trkpt lat="45.80771" lon="5.85328">
        <ele>242</ele>
        <time>2022-05-01T12:16:22.898Z</time>
      </trkpt>
      <trkpt lat="45.80764" lon="5.8533">
        <ele>242</ele>
        <time>2022-05-01T12:16:23.898Z</time>
      </trkpt>
      <trkpt lat="45.80758" lon="5.85332">
        <ele>242</ele>
        <time>2022-05-01T12:16:24.898Z</time>
      </trkpt>
      <trkpt lat="45.80752" lon="5.85333">
        <ele>242</ele>
        <time>2022-05-01T12:16:25.898Z</time>
      </trkpt>
      <trkpt lat="45.80747" lon="5.85334">
        <ele>242</ele>
        <time>2022-05-01T12:16:26.897Z</time>
      </trkpt>
      <trkpt lat="45.80741" lon="5.85336">
        <ele>243</ele>
        <time>2022-05-01T12:16:27.897Z</time>
      </trkpt>
      <trkpt lat="45.80734" lon="5.85338">
        <ele>243</ele>
        <time>2022-05-01T12:16:28.898Z</time>
      </trkpt>
      <trkpt lat="45.80728" lon="5.85339">
        <ele>243</ele>
        <time>2022-05-01T12:16:29.898Z</time>
      </trkpt>
      <trkpt lat="45.80722" lon="5.8534">
        <ele>243</ele>
        <time>2022-05-01T12:16:30.898Z</time>
      </trkpt>
      <trkpt lat="45.80717" lon="5.85341">
        <ele>243</ele>
        <time>2022-05-01T12:16:31.897Z</time>
      </trkpt>
      <trkpt lat="45.80711" lon="5.85342">
        <ele>243</ele>
        <time>2022-05-01T12:16:32.898Z</time>
      </trkpt>
      <trkpt lat="45.80706" lon="5.85343">
        <ele>242</ele>
        <time>2022-05-01T12:16:33.898Z</time>
      </trkpt>
      <trkpt lat="45.807" lon="5.85344">
        <ele>242</ele>
        <time>2022-05-01T12:16:34.898Z</time>
      </trkpt>
      <trkpt lat="45.80693" lon="5.85345">
        <ele>242</ele>
        <time>2022-05-01T12:16:35.898Z</time>
      </trkpt>
      <trkpt lat="45.80688" lon="5.85345">
        <ele>241</ele>
        <time>2022-05-01T12:16:36.898Z</time>
      </trkpt>
      <trkpt lat="45.80682" lon="5.85346">
        <ele>241</ele>
        <time>2022-05-01T12:16:37.897Z</time>
      </trkpt>
      <trkpt lat="45.80675" lon="5.85348">
        <ele>241</ele>
        <time>2022-05-01T12:16:38.898Z</time>
      </trkpt>
      <trkpt lat="45.8067" lon="5.85349">
        <ele>241</ele>
        <time>2022-05-01T12:16:39.898Z</time>
      </trkpt>
      <trkpt lat="45.80664" lon="5.8535">
        <ele>241</ele>
        <time>2022-05-01T12:16:40.898Z</time>
      </trkpt>
      <trkpt lat="45.80658" lon="5.85351">
        <ele>241</ele>
        <time>2022-05-01T12:16:41.898Z</time>
      </trkpt>
      <trkpt lat="45.80651" lon="5.85353">
        <ele>241</ele>
        <time>2022-05-01T12:16:42.898Z</time>
      </trkpt>
      <trkpt lat="45.80645" lon="5.85355">
        <ele>241</ele>
        <time>2022-05-01T12:16:43.898Z</time>
      </trkpt>
      <trkpt lat="45.80639" lon="5.85357">
        <ele>242</ele>
        <time>2022-05-01T12:16:44.898Z</time>
      </trkpt>
      <trkpt lat="45.80635" lon="5.85358">
        <ele>242</ele>
        <time>2022-05-01T12:16:45.897Z</time>
      </trkpt>
      <trkpt lat="45.80628" lon="5.85361">
        <ele>242</ele>
        <time>2022-05-01T12:16:46.898Z</time>
      </trkpt>
      <trkpt lat="45.80622" lon="5.85364">
        <ele>242</ele>
        <time>2022-05-01T12:16:47.898Z</time>
      </trkpt>
      <trkpt lat="45.80618" lon="5.85366">
        <ele>242</ele>
        <time>2022-05-01T12:16:48.898Z</time>
      </trkpt>
      <trkpt lat="45.80612" lon="5.85371">
        <ele>242</ele>
        <time>2022-05-01T12:16:49.898Z</time>
      </trkpt>
      <trkpt lat="45.80608" lon="5.85373">
        <ele>243</ele>
        <time>2022-05-01T12:16:50.898Z</time>
      </trkpt>
      <trkpt lat="45.80602" lon="5.85378">
        <ele>243</ele>
        <time>2022-05-01T12:16:51.897Z</time>
      </trkpt>
      <trkpt lat="45.80598" lon="5.85383">
        <ele>243</ele>
        <time>2022-05-01T12:16:52.898Z</time>
      </trkpt>
      <trkpt lat="45.80594" lon="5.85388">
        <ele>242</ele>
        <time>2022-05-01T12:16:53.897Z</time>
      </trkpt>
      <trkpt lat="45.80589" lon="5.85393">
        <ele>242</ele>
        <time>2022-05-01T12:16:54.898Z</time>
      </trkpt>
      <trkpt lat="45.80586" lon="5.85396">
        <ele>241</ele>
        <time>2022-05-01T12:16:55.897Z</time>
      </trkpt>
      <trkpt lat="45.80581" lon="5.85403">
        <ele>241</ele>
        <time>2022-05-01T12:16:56.898Z</time>
      </trkpt>
      <trkpt lat="45.80577" lon="5.85407">
        <ele>242</ele>
        <time>2022-05-01T12:16:57.898Z</time>
      </trkpt>
      <trkpt lat="45.80572" lon="5.85411">
        <ele>242</ele>
        <time>2022-05-01T12:16:58.898Z</time>
      </trkpt>
      <trkpt lat="45.80567" lon="5.85416">
        <ele>242</ele>
        <time>2022-05-01T12:16:59.898Z</time>
      </trkpt>
      <trkpt lat="45.80562" lon="5.85421">
        <ele>243</ele>
        <time>2022-05-01T12:17:00.898Z</time>
      </trkpt>
      <trkpt lat="45.80557" lon="5.85426">
        <ele>243</ele>
        <time>2022-05-01T12:17:01.898Z</time>
      </trkpt>
      <trkpt lat="45.80551" lon="5.85432">
        <ele>243</ele>
        <time>2022-05-01T12:17:02.898Z</time>
      </trkpt>
      <trkpt lat="45.80547" lon="5.85435">
        <ele>243</ele>
        <time>2022-05-01T12:17:03.897Z</time>
      </trkpt>
      <trkpt lat="45.80541" lon="5.85438">
        <ele>243</ele>
        <time>2022-05-01T12:17:04.898Z</time>
      </trkpt>
      <trkpt lat="45.80536" lon="5.85442">
        <ele>243</ele>
        <time>2022-05-01T12:17:05.898Z</time>
      </trkpt>
      <trkpt lat="45.8053" lon="5.85445">
        <ele>242</ele>
        <time>2022-05-01T12:17:06.898Z</time>
      </trkpt>
      <trkpt lat="45.80525" lon="5.85448">
        <ele>242</ele>
        <time>2022-05-01T12:17:07.898Z</time>
      </trkpt>
      <trkpt lat="45.8052" lon="5.85451">
        <ele>242</ele>
        <time>2022-05-01T12:17:08.898Z</time>
      </trkpt>
      <trkpt lat="45.80515" lon="5.85452">
        <ele>242</ele>
        <time>2022-05-01T12:17:09.898Z</time>
      </trkpt>
      <trkpt lat="45.8051" lon="5.85455">
        <ele>243</ele>
        <time>2022-05-01T12:17:10.897Z</time>
      </trkpt>
      <trkpt lat="45.80503" lon="5.85458">
        <ele>243</ele>
        <time>2022-05-01T12:17:11.897Z</time>
      </trkpt>
      <trkpt lat="45.80498" lon="5.8546">
        <ele>243</ele>
        <time>2022-05-01T12:17:12.898Z</time>
      </trkpt>
      <trkpt lat="45.80493" lon="5.85462">
        <ele>243</ele>
        <time>2022-05-01T12:17:13.898Z</time>
      </trkpt>
      <trkpt lat="45.80487" lon="5.85464">
        <ele>243</ele>
        <time>2022-05-01T12:17:14.897Z</time>
      </trkpt>
      <trkpt lat="45.80482" lon="5.85466">
        <ele>243</ele>
        <time>2022-05-01T12:17:15.897Z</time>
      </trkpt>
      <trkpt lat="45.80476" lon="5.85469">
        <ele>243</ele>
        <time>2022-05-01T12:17:16.898Z</time>
      </trkpt>
      <trkpt lat="45.80471" lon="5.8547">
        <ele>243</ele>
        <time>2022-05-01T12:17:17.898Z</time>
      </trkpt>
      <trkpt lat="45.80466" lon="5.85472">
        <ele>244</ele>
        <time>2022-05-01T12:17:18.897Z</time>
      </trkpt>
      <trkpt lat="45.8046" lon="5.85475">
        <ele>244</ele>
        <time>2022-05-01T12:17:19.898Z</time>
      </trkpt>
      <trkpt lat="45.80455" lon="5.85477">
        <ele>244</ele>
        <time>2022-05-01T12:17:20.898Z</time>
      </trkpt>
      <trkpt lat="45.8045" lon="5.8548">
        <ele>244</ele>
        <time>2022-05-01T12:17:21.898Z</time>
      </trkpt>
      <trkpt lat="45.80444" lon="5.85482">
        <ele>244</ele>
        <time>2022-05-01T12:17:22.898Z</time>
      </trkpt>
      <trkpt lat="45.8044" lon="5.85484">
        <ele>244</ele>
        <time>2022-05-01T12:17:23.898Z</time>
      </trkpt>
      <trkpt lat="45.80434" lon="5.85487">
        <ele>243</ele>
        <time>2022-05-01T12:17:24.898Z</time>
      </trkpt>
      <trkpt lat="45.80429" lon="5.8549">
        <ele>242</ele>
        <time>2022-05-01T12:17:25.898Z</time>
      </trkpt>
      <trkpt lat="45.80424" lon="5.85492">
        <ele>241</ele>
        <time>2022-05-01T12:17:26.898Z</time>
      </trkpt>
      <trkpt lat="45.8042" lon="5.85495">
        <ele>241</ele>
        <time>2022-05-01T12:17:27.898Z</time>
      </trkpt>
      <trkpt lat="45.80415" lon="5.85497">
        <ele>241</ele>
        <time>2022-05-01T12:17:28.898Z</time>
      </trkpt>
      <trkpt lat="45.80409" lon="5.855">
        <ele>240</ele>
        <time>2022-05-01T12:17:29.898Z</time>
      </trkpt>
      <trkpt lat="45.80405" lon="5.85503">
        <ele>239</ele>
        <time>2022-05-01T12:17:30.898Z</time>
      </trkpt>
      <trkpt lat="45.804" lon="5.85506">
        <ele>239</ele>
        <time>2022-05-01T12:17:31.898Z</time>
      </trkpt>
      <trkpt lat="45.80396" lon="5.85509">
        <ele>238</ele>
        <time>2022-05-01T12:17:32.898Z</time>
      </trkpt>
      <trkpt lat="45.80392" lon="5.85511">
        <ele>238</ele>
        <time>2022-05-01T12:17:33.898Z</time>
      </trkpt>
      <trkpt lat="45.80387" lon="5.85514">
        <ele>238</ele>
        <time>2022-05-01T12:17:34.898Z</time>
      </trkpt>
      <trkpt lat="45.80383" lon="5.85517">
        <ele>239</ele>
        <time>2022-05-01T12:17:35.898Z</time>
      </trkpt>
      <trkpt lat="45.8038" lon="5.85519">
        <ele>239</ele>
        <time>2022-05-01T12:17:36.897Z</time>
      </trkpt>
      <trkpt lat="45.80376" lon="5.85521">
        <ele>239</ele>
        <time>2022-05-01T12:17:37.898Z</time>
      </trkpt>
      <trkpt lat="45.80372" lon="5.85524">
        <ele>240</ele>
        <time>2022-05-01T12:17:38.898Z</time>
      </trkpt>
      <trkpt lat="45.80368" lon="5.85527">
        <ele>241</ele>
        <time>2022-05-01T12:17:39.897Z</time>
      </trkpt>
      <trkpt lat="45.80365" lon="5.85529">
        <ele>241</ele>
        <time>2022-05-01T12:17:40.898Z</time>
      </trkpt>
      <trkpt lat="45.80362" lon="5.85531">
        <ele>242</ele>
        <time>2022-05-01T12:17:41.898Z</time>
      </trkpt>
      <trkpt lat="45.80359" lon="5.85534">
        <ele>242</ele>
        <time>2022-05-01T12:17:42.898Z</time>
      </trkpt>
      <trkpt lat="45.80355" lon="5.85537">
        <ele>242</ele>
        <time>2022-05-01T12:17:43.897Z</time>
      </trkpt>
      <trkpt lat="45.80352" lon="5.85539">
        <ele>243</ele>
        <time>2022-05-01T12:17:44.898Z</time>
      </trkpt>
      <trkpt lat="45.8035" lon="5.85541">
        <ele>243</ele>
        <time>2022-05-01T12:17:45.898Z</time>
      </trkpt>
      <trkpt lat="45.80347" lon="5.85543">
        <ele>244</ele>
        <time>2022-05-01T12:17:46.898Z</time>
      </trkpt>
      <trkpt lat="45.80344" lon="5.85546">
        <ele>244</ele>
        <time>2022-05-01T12:17:47.898Z</time>
      </trkpt>
      <trkpt lat="45.80341" lon="5.85549">
        <ele>244</ele>
        <time>2022-05-01T12:17:48.898Z</time>
      </trkpt>
      <trkpt lat="45.80339" lon="5.85551">
        <ele>244</ele>
        <time>2022-05-01T12:17:49.898Z</time>
      </trkpt>
      <trkpt lat="45.80336" lon="5.85554">
        <ele>244</ele>
        <time>2022-05-01T12:17:50.898Z</time>
      </trkpt>
      <trkpt lat="45.80334" lon="5.85556">
        <ele>243</ele>
        <time>2022-05-01T12:17:51.898Z</time>
      </trkpt>
      <trkpt lat="45.80331" lon="5.85559">
        <ele>243</ele>
        <time>2022-05-01T12:17:52.898Z</time>
      </trkpt>
      <trkpt lat="45.80328" lon="5.85562">
        <ele>243</ele>
        <time>2022-05-01T12:17:53.898Z</time>
      </trkpt>
      <trkpt lat="45.80326" lon="5.85565">
        <ele>243</ele>
        <time>2022-05-01T12:17:54.897Z</time>
      </trkpt>
      <trkpt lat="45.80323" lon="5.85568">
        <ele>243</ele>
        <time>2022-05-01T12:17:55.898Z</time>
      </trkpt>
      <trkpt lat="45.80321" lon="5.8557">
        <ele>243</ele>
        <time>2022-05-01T12:17:56.897Z</time>
      </trkpt>
      <trkpt lat="45.80319" lon="5.85572">
        <ele>243</ele>
        <time>2022-05-01T12:17:57.898Z</time>
      </trkpt>
      <trkpt lat="45.80316" lon="5.85575">
        <ele>243</ele>
        <time>2022-05-01T12:17:58.898Z</time>
      </trkpt>
      <trkpt lat="45.80315" lon="5.85577">
        <ele>243</ele>
        <time>2022-05-01T12:17:59.898Z</time>
      </trkpt>
      <trkpt lat="45.80313" lon="5.8558">
        <ele>243</ele>
        <time>2022-05-01T12:18:00.898Z</time>
      </trkpt>
      <trkpt lat="45.80311" lon="5.85583">
        <ele>243</ele>
        <time>2022-05-01T12:18:01.898Z</time>
      </trkpt>
      <trkpt lat="45.80308" lon="5.85586">
        <ele>243</ele>
        <time>2022-05-01T12:18:02.898Z</time>
      </trkpt>
      <trkpt lat="45.80306" lon="5.8559">
        <ele>243</ele>
        <time>2022-05-01T12:18:03.898Z</time>
      </trkpt>
      <trkpt lat="45.80304" lon="5.85593">
        <ele>243</ele>
        <time>2022-05-01T12:18:04.898Z</time>
      </trkpt>
      <trkpt lat="45.80301" lon="5.85595">
        <ele>243</ele>
        <time>2022-05-01T12:18:05.897Z</time>
      </trkpt>
      <trkpt lat="45.80299" lon="5.85598">
        <ele>243</ele>
        <time>2022-05-01T12:18:06.897Z</time>
      </trkpt>
      <trkpt lat="45.80297" lon="5.85601">
        <ele>243</ele>
        <time>2022-05-01T12:18:07.898Z</time>
      </trkpt>
      <trkpt lat="45.80294" lon="5.85603">
        <ele>243</ele>
        <time>2022-05-01T12:18:08.898Z</time>
      </trkpt>
      <trkpt lat="45.80292" lon="5.85606">
        <ele>243</ele>
        <time>2022-05-01T12:18:09.898Z</time>
      </trkpt>
      <trkpt lat="45.80289" lon="5.85609">
        <ele>243</ele>
        <time>2022-05-01T12:18:10.897Z</time>
      </trkpt>
      <trkpt lat="45.80287" lon="5.85612">
        <ele>244</ele>
        <time>2022-05-01T12:18:11.898Z</time>
      </trkpt>
      <trkpt lat="45.80284" lon="5.85615">
        <ele>244</ele>
        <time>2022-05-01T12:18:12.898Z</time>
      </trkpt>
      <trkpt lat="45.80282" lon="5.85618">
        <ele>244</ele>
        <time>2022-05-01T12:18:13.898Z</time>
      </trkpt>
      <trkpt lat="45.8028" lon="5.8562">
        <ele>245</ele>
        <time>2022-05-01T12:18:14.898Z</time>
      </trkpt>
      <trkpt lat="45.80278" lon="5.85623">
        <ele>245</ele>
        <time>2022-05-01T12:18:15.897Z</time>
      </trkpt>
      <trkpt lat="45.80276" lon="5.85627">
        <ele>245</ele>
        <time>2022-05-01T12:18:16.898Z</time>
      </trkpt>
      <trkpt lat="45.80274" lon="5.85629">
        <ele>245</ele>
        <time>2022-05-01T12:18:17.897Z</time>
      </trkpt>
      <trkpt lat="45.80271" lon="5.85632">
        <ele>245</ele>
        <time>2022-05-01T12:18:18.898Z</time>
      </trkpt>
      <trkpt lat="45.80269" lon="5.85635">
        <ele>246</ele>
        <time>2022-05-01T12:18:19.898Z</time>
      </trkpt>
      <trkpt lat="45.80267" lon="5.85638">
        <ele>246</ele>
        <time>2022-05-01T12:18:20.898Z</time>
      </trkpt>
      <trkpt lat="45.80265" lon="5.85641">
        <ele>246</ele>
        <time>2022-05-01T12:18:21.897Z</time>
      </trkpt>
      <trkpt lat="45.80262" lon="5.85644">
        <ele>247</ele>
        <time>2022-05-01T12:18:22.898Z</time>
      </trkpt>
      <trkpt lat="45.8026" lon="5.85648">
        <ele>247</ele>
        <time>2022-05-01T12:18:23.898Z</time>
      </trkpt>
      <trkpt lat="45.80258" lon="5.85651">
        <ele>247</ele>
        <time>2022-05-01T12:18:24.898Z</time>
      </trkpt>
      <trkpt lat="45.80256" lon="5.85654">
        <ele>248</ele>
        <time>2022-05-01T12:18:25.897Z</time>
      </trkpt>
      <trkpt lat="45.80253" lon="5.85657">
        <ele>248</ele>
        <time>2022-05-01T12:18:26.898Z</time>
      </trkpt>
      <trkpt lat="45.80251" lon="5.8566">
        <ele>248</ele>
        <time>2022-05-01T12:18:27.898Z</time>
      </trkpt>
      <trkpt lat="45.80248" lon="5.85663">
        <ele>248</ele>
        <time>2022-05-01T12:18:28.898Z</time>
      </trkpt>
      <trkpt lat="45.80247" lon="5.85665">
        <ele>248</ele>
        <time>2022-05-01T12:18:29.898Z</time>
      </trkpt>
      <trkpt lat="45.80244" lon="5.85669">
        <ele>249</ele>
        <time>2022-05-01T12:18:30.898Z</time>
      </trkpt>
      <trkpt lat="45.80241" lon="5.85671">
        <ele>249</ele>
        <time>2022-05-01T12:18:31.898Z</time>
      </trkpt>
      <trkpt lat="45.80239" lon="5.85673">
        <ele>249</ele>
        <time>2022-05-01T12:18:32.898Z</time>
      </trkpt>
      <trkpt lat="45.80235" lon="5.85676">
        <ele>249</ele>
        <time>2022-05-01T12:18:33.897Z</time>
      </trkpt>
      <trkpt lat="45.80232" lon="5.85678">
        <ele>249</ele>
        <time>2022-05-01T12:18:34.898Z</time>
      </trkpt>
      <trkpt lat="45.80229" lon="5.8568">
        <ele>249</ele>
        <time>2022-05-01T12:18:35.898Z</time>
      </trkpt>
      <trkpt lat="45.80226" lon="5.85682">
        <ele>249</ele>
        <time>2022-05-01T12:18:36.898Z</time>
      </trkpt>
      <trkpt lat="45.80224" lon="5.85684">
        <ele>249</ele>
        <time>2022-05-01T12:18:37.897Z</time>
      </trkpt>
      <trkpt lat="45.8022" lon="5.85685">
        <ele>248</ele>
        <time>2022-05-01T12:18:38.898Z</time>
      </trkpt>
      <trkpt lat="45.80217" lon="5.85687">
        <ele>248</ele>
        <time>2022-05-01T12:18:39.898Z</time>
      </trkpt>
      <trkpt lat="45.80214" lon="5.85688">
        <ele>247</ele>
        <time>2022-05-01T12:18:40.898Z</time>
      </trkpt>
      <trkpt lat="45.8021" lon="5.85689">
        <ele>247</ele>
        <time>2022-05-01T12:18:41.898Z</time>
      </trkpt>
      <trkpt lat="45.80207" lon="5.8569">
        <ele>247</ele>
        <time>2022-05-01T12:18:42.898Z</time>
      </trkpt>
      <trkpt lat="45.80203" lon="5.85691">
        <ele>246</ele>
        <time>2022-05-01T12:18:43.898Z</time>
      </trkpt>
      <trkpt lat="45.802" lon="5.85692">
        <ele>246</ele>
        <time>2022-05-01T12:18:44.898Z</time>
      </trkpt>
      <trkpt lat="45.80197" lon="5.85693">
        <ele>246</ele>
        <time>2022-05-01T12:18:45.898Z</time>
      </trkpt>
      <trkpt lat="45.80194" lon="5.85693">
        <ele>246</ele>
        <time>2022-05-01T12:18:46.897Z</time>
      </trkpt>
      <trkpt lat="45.80191" lon="5.85694">
        <ele>246</ele>
        <time>2022-05-01T12:18:47.898Z</time>
      </trkpt>
      <trkpt lat="45.80187" lon="5.85694">
        <ele>246</ele>
        <time>2022-05-01T12:18:48.898Z</time>
      </trkpt>
      <trkpt lat="45.80184" lon="5.85695">
        <ele>246</ele>
        <time>2022-05-01T12:18:49.898Z</time>
      </trkpt>
      <trkpt lat="45.80181" lon="5.85696">
        <ele>246</ele>
        <time>2022-05-01T12:18:50.897Z</time>
      </trkpt>
      <trkpt lat="45.80178" lon="5.85698">
        <ele>246</ele>
        <time>2022-05-01T12:18:51.898Z</time>
      </trkpt>
      <trkpt lat="45.80174" lon="5.85699">
        <ele>246</ele>
        <time>2022-05-01T12:18:52.898Z</time>
      </trkpt>
      <trkpt lat="45.80171" lon="5.857">
        <ele>247</ele>
        <time>2022-05-01T12:18:53.898Z</time>
      </trkpt>
      <trkpt lat="45.80167" lon="5.857">
        <ele>247</ele>
        <time>2022-05-01T12:18:54.898Z</time>
      </trkpt>
      <trkpt lat="45.80164" lon="5.857">
        <ele>248</ele>
        <time>2022-05-01T12:18:55.898Z</time>
      </trkpt>
      <trkpt lat="45.80161" lon="5.85701">
        <ele>248</ele>
        <time>2022-05-01T12:18:56.898Z</time>
      </trkpt>
      <trkpt lat="45.80158" lon="5.85701">
        <ele>249</ele>
        <time>2022-05-01T12:18:57.898Z</time>
      </trkpt>
      <trkpt lat="45.80155" lon="5.85703">
        <ele>249</ele>
        <time>2022-05-01T12:18:58.898Z</time>
      </trkpt>
      <trkpt lat="45.80152" lon="5.85704">
        <ele>250</ele>
        <time>2022-05-01T12:18:59.898Z</time>
      </trkpt>
      <trkpt lat="45.8015" lon="5.85706">
        <ele>251</ele>
        <time>2022-05-01T12:19:00.897Z</time>
      </trkpt>
      <trkpt lat="45.80146" lon="5.85707">
        <ele>252</ele>
        <time>2022-05-01T12:19:01.897Z</time>
      </trkpt>
      <trkpt lat="45.80143" lon="5.85708">
        <ele>252</ele>
        <time>2022-05-01T12:19:02.898Z</time>
      </trkpt>
      <trkpt lat="45.8014" lon="5.8571">
        <ele>252</ele>
        <time>2022-05-01T12:19:03.898Z</time>
      </trkpt>
      <trkpt lat="45.80137" lon="5.85712">
        <ele>253</ele>
        <time>2022-05-01T12:19:04.897Z</time>
      </trkpt>
      <trkpt lat="45.80134" lon="5.85714">
        <ele>253</ele>
        <time>2022-05-01T12:19:05.898Z</time>
      </trkpt>
      <trkpt lat="45.80131" lon="5.85716">
        <ele>253</ele>
        <time>2022-05-01T12:19:06.898Z</time>
      </trkpt>
      <trkpt lat="45.80128" lon="5.85718">
        <ele>252</ele>
        <time>2022-05-01T12:19:07.897Z</time>
      </trkpt>
      <trkpt lat="45.80125" lon="5.85719">
        <ele>252</ele>
        <time>2022-05-01T12:19:08.898Z</time>
      </trkpt>
      <trkpt lat="45.80122" lon="5.8572">
        <ele>252</ele>
        <time>2022-05-01T12:19:09.898Z</time>
      </trkpt>
      <trkpt lat="45.80119" lon="5.85721">
        <ele>252</ele>
        <time>2022-05-01T12:19:10.897Z</time>
      </trkpt>
      <trkpt lat="45.80116" lon="5.85722">
        <ele>253</ele>
        <time>2022-05-01T12:19:11.897Z</time>
      </trkpt>
      <trkpt lat="45.80114" lon="5.85724">
        <ele>253</ele>
        <time>2022-05-01T12:19:12.898Z</time>
      </trkpt>
      <trkpt lat="45.80111" lon="5.85725">
        <ele>254</ele>
        <time>2022-05-01T12:19:13.898Z</time>
      </trkpt>
      <trkpt lat="45.80108" lon="5.85727">
        <ele>254</ele>
        <time>2022-05-01T12:19:14.898Z</time>
      </trkpt>
      <trkpt lat="45.80106" lon="5.85728">
        <ele>254</ele>
        <time>2022-05-01T12:19:15.897Z</time>
      </trkpt>
      <trkpt lat="45.80104" lon="5.8573">
        <ele>255</ele>
        <time>2022-05-01T12:19:16.898Z</time>
      </trkpt>
      <trkpt lat="45.80102" lon="5.85732">
        <ele>254</ele>
        <time>2022-05-01T12:19:17.898Z</time>
      </trkpt>
      <trkpt lat="45.80099" lon="5.85734">
        <ele>254</ele>
        <time>2022-05-01T12:19:18.898Z</time>
      </trkpt>
      <trkpt lat="45.80097" lon="5.85735">
        <ele>254</ele>
        <time>2022-05-01T12:19:19.898Z</time>
      </trkpt>
      <trkpt lat="45.80094" lon="5.85737">
        <ele>254</ele>
        <time>2022-05-01T12:19:20.898Z</time>
      </trkpt>
      <trkpt lat="45.80092" lon="5.85738">
        <ele>254</ele>
        <time>2022-05-01T12:19:21.897Z</time>
      </trkpt>
      <trkpt lat="45.8009" lon="5.8574">
        <ele>255</ele>
        <time>2022-05-01T12:19:22.898Z</time>
      </trkpt>
      <trkpt lat="45.80087" lon="5.85741">
        <ele>254</ele>
        <time>2022-05-01T12:19:23.898Z</time>
      </trkpt>
      <trkpt lat="45.80085" lon="5.85742">
        <ele>255</ele>
        <time>2022-05-01T12:19:24.898Z</time>
      </trkpt>
      <trkpt lat="45.80083" lon="5.85743">
        <ele>255</ele>
        <time>2022-05-01T12:19:25.898Z</time>
      </trkpt>
      <trkpt lat="45.8008" lon="5.85744">
        <ele>255</ele>
        <time>2022-05-01T12:19:26.898Z</time>
      </trkpt>
      <trkpt lat="45.80078" lon="5.85745">
        <ele>255</ele>
        <time>2022-05-01T12:19:27.898Z</time>
      </trkpt>
      <trkpt lat="45.80075" lon="5.85746">
        <ele>255</ele>
        <time>2022-05-01T12:19:28.898Z</time>
      </trkpt>
      <trkpt lat="45.80073" lon="5.85748">
        <ele>255</ele>
        <time>2022-05-01T12:19:29.898Z</time>
      </trkpt>
      <trkpt lat="45.8007" lon="5.85749">
        <ele>255</ele>
        <time>2022-05-01T12:19:30.898Z</time>
      </trkpt>
      <trkpt lat="45.80068" lon="5.8575">
        <ele>255</ele>
        <time>2022-05-01T12:19:31.897Z</time>
      </trkpt>
      <trkpt lat="45.80066" lon="5.85752">
        <ele>255</ele>
        <time>2022-05-01T12:19:32.898Z</time>
      </trkpt>
      <trkpt lat="45.80064" lon="5.85753">
        <ele>254</ele>
        <time>2022-05-01T12:19:33.898Z</time>
      </trkpt>
      <trkpt lat="45.80062" lon="5.85755">
        <ele>254</ele>
        <time>2022-05-01T12:19:34.898Z</time>
      </trkpt>
      <trkpt lat="45.8006" lon="5.85756">
        <ele>254</ele>
        <time>2022-05-01T12:19:35.898Z</time>
      </trkpt>
      <trkpt lat="45.80058" lon="5.85758">
        <ele>254</ele>
        <time>2022-05-01T12:19:36.898Z</time>
      </trkpt>
      <trkpt lat="45.80056" lon="5.8576">
        <ele>253</ele>
        <time>2022-05-01T12:19:37.898Z</time>
      </trkpt>
      <trkpt lat="45.80054" lon="5.85761">
        <ele>253</ele>
        <time>2022-05-01T12:19:38.897Z</time>
      </trkpt>
      <trkpt lat="45.80052" lon="5.85763">
        <ele>253</ele>
        <time>2022-05-01T12:19:39.897Z</time>
      </trkpt>
      <trkpt lat="45.8005" lon="5.85765">
        <ele>253</ele>
        <time>2022-05-01T12:19:40.898Z</time>
      </trkpt>
      <trkpt lat="45.80047" lon="5.85766">
        <ele>253</ele>
        <time>2022-05-01T12:19:41.898Z</time>
      </trkpt>
      <trkpt lat="45.80044" lon="5.85767">
        <ele>253</ele>
        <time>2022-05-01T12:19:42.898Z</time>
      </trkpt>
      <trkpt lat="45.80042" lon="5.85769">
        <ele>253</ele>
        <time>2022-05-01T12:19:43.897Z</time>
      </trkpt>
      <trkpt lat="45.80041" lon="5.8577">
        <ele>253</ele>
        <time>2022-05-01T12:19:44.898Z</time>
      </trkpt>
      <trkpt lat="45.80039" lon="5.85771">
        <ele>253</ele>
        <time>2022-05-01T12:19:45.898Z</time>
      </trkpt>
      <trkpt lat="45.80037" lon="5.85772">
        <ele>253</ele>
        <time>2022-05-01T12:19:46.898Z</time>
      </trkpt>
      <trkpt lat="45.80034" lon="5.85773">
        <ele>254</ele>
        <time>2022-05-01T12:19:47.898Z</time>
      </trkpt>
      <trkpt lat="45.80032" lon="5.85775">
        <ele>254</ele>
        <time>2022-05-01T12:19:48.898Z</time>
      </trkpt>
      <trkpt lat="45.8003" lon="5.85776">
        <ele>255</ele>
        <time>2022-05-01T12:19:49.898Z</time>
      </trkpt>
      <trkpt lat="45.80028" lon="5.85777">
        <ele>255</ele>
        <time>2022-05-01T12:19:50.897Z</time>
      </trkpt>
      <trkpt lat="45.80026" lon="5.85779">
        <ele>256</ele>
        <time>2022-05-01T12:19:51.897Z</time>
      </trkpt>
      <trkpt lat="45.80023" lon="5.8578">
        <ele>256</ele>
        <time>2022-05-01T12:19:52.898Z</time>
      </trkpt>
      <trkpt lat="45.80021" lon="5.85781">
        <ele>257</ele>
        <time>2022-05-01T12:19:53.897Z</time>
      </trkpt>
      <trkpt lat="45.80019" lon="5.85783">
        <ele>257</ele>
        <time>2022-05-01T12:19:54.898Z</time>
      </trkpt>
      <trkpt lat="45.80016" lon="5.85784">
        <ele>257</ele>
        <time>2022-05-01T12:19:55.897Z</time>
      </trkpt>
      <trkpt lat="45.80014" lon="5.85785">
        <ele>258</ele>
        <time>2022-05-01T12:19:56.897Z</time>
      </trkpt>
      <trkpt lat="45.80012" lon="5.85787">
        <ele>258</ele>
        <time>2022-05-01T12:19:57.898Z</time>
      </trkpt>
      <trkpt lat="45.8001" lon="5.85788">
        <ele>258</ele>
        <time>2022-05-01T12:19:58.897Z</time>
      </trkpt>
      <trkpt lat="45.80007" lon="5.85789">
        <ele>258</ele>
        <time>2022-05-01T12:19:59.897Z</time>
      </trkpt>
      <trkpt lat="45.80005" lon="5.8579">
        <ele>258</ele>
        <time>2022-05-01T12:20:00.898Z</time>
      </trkpt>
      <trkpt lat="45.80002" lon="5.85791">
        <ele>259</ele>
        <time>2022-05-01T12:20:01.897Z</time>
      </trkpt>
      <trkpt lat="45.8" lon="5.85792">
        <ele>259</ele>
        <time>2022-05-01T12:20:02.898Z</time>
      </trkpt>
      <trkpt lat="45.79997" lon="5.85794">
        <ele>260</ele>
        <time>2022-05-01T12:20:03.898Z</time>
      </trkpt>
      <trkpt lat="45.79995" lon="5.85795">
        <ele>260</ele>
        <time>2022-05-01T12:20:04.898Z</time>
      </trkpt>
      <trkpt lat="45.79993" lon="5.85797">
        <ele>261</ele>
        <time>2022-05-01T12:20:05.898Z</time>
      </trkpt>
      <trkpt lat="45.7999" lon="5.85798">
        <ele>261</ele>
        <time>2022-05-01T12:20:06.898Z</time>
      </trkpt>
      <trkpt lat="45.79988" lon="5.85799">
        <ele>261</ele>
        <time>2022-05-01T12:20:07.897Z</time>
      </trkpt>
      <trkpt lat="45.79986" lon="5.85801">
        <ele>261</ele>
        <time>2022-05-01T12:20:08.898Z</time>
      </trkpt>
      <trkpt lat="45.79984" lon="5.85802">
        <ele>262</ele>
        <time>2022-05-01T12:20:09.898Z</time>
      </trkpt>
      <trkpt lat="45.79983" lon="5.85803">
        <ele>261</ele>
        <time>2022-05-01T12:20:10.898Z</time>
      </trkpt>
      <trkpt lat="45.79981" lon="5.85804">
        <ele>261</ele>
        <time>2022-05-01T12:20:11.898Z</time>
      </trkpt>
      <trkpt lat="45.79978" lon="5.85807">
        <ele>261</ele>
        <time>2022-05-01T12:20:12.898Z</time>
      </trkpt>
      <trkpt lat="45.79976" lon="5.85808">
        <ele>261</ele>
        <time>2022-05-01T12:20:13.898Z</time>
      </trkpt>
      <trkpt lat="45.79974" lon="5.85809">
        <ele>260</ele>
        <time>2022-05-01T12:20:14.898Z</time>
      </trkpt>
      <trkpt lat="45.79973" lon="5.85811">
        <ele>260</ele>
        <time>2022-05-01T12:20:15.898Z</time>
      </trkpt>
      <trkpt lat="45.79971" lon="5.85813">
        <ele>259</ele>
        <time>2022-05-01T12:20:16.898Z</time>
      </trkpt>
      <trkpt lat="45.79968" lon="5.85814">
        <ele>259</ele>
        <time>2022-05-01T12:20:17.897Z</time>
      </trkpt>
      <trkpt lat="45.79966" lon="5.85816">
        <ele>259</ele>
        <time>2022-05-01T12:20:18.897Z</time>
      </trkpt>
      <trkpt lat="45.79964" lon="5.85817">
        <ele>259</ele>
        <time>2022-05-01T12:20:19.897Z</time>
      </trkpt>
      <trkpt lat="45.79962" lon="5.85818">
        <ele>259</ele>
        <time>2022-05-01T12:20:20.898Z</time>
      </trkpt>
      <trkpt lat="45.79959" lon="5.85819">
        <ele>258</ele>
        <time>2022-05-01T12:20:21.897Z</time>
      </trkpt>
      <trkpt lat="45.79957" lon="5.8582">
        <ele>258</ele>
        <time>2022-05-01T12:20:22.898Z</time>
      </trkpt>
      <trkpt lat="45.79955" lon="5.85821">
        <ele>258</ele>
        <time>2022-05-01T12:20:23.897Z</time>
      </trkpt>
      <trkpt lat="45.79953" lon="5.85823">
        <ele>258</ele>
        <time>2022-05-01T12:20:24.898Z</time>
      </trkpt>
      <trkpt lat="45.79951" lon="5.85824">
        <ele>258</ele>
        <time>2022-05-01T12:20:25.898Z</time>
      </trkpt>
      <trkpt lat="45.79948" lon="5.85825">
        <ele>258</ele>
        <time>2022-05-01T12:20:26.898Z</time>
      </trkpt>
      <trkpt lat="45.79946" lon="5.85826">
        <ele>258</ele>
        <time>2022-05-01T12:20:27.897Z</time>
      </trkpt>
      <trkpt lat="45.79944" lon="5.85827">
        <ele>259</ele>
        <time>2022-05-01T12:20:28.898Z</time>
      </trkpt>
      <trkpt lat="45.79942" lon="5.85828">
        <ele>259</ele>
        <time>2022-05-01T12:20:29.897Z</time>
      </trkpt>
      <trkpt lat="45.7994" lon="5.8583">
        <ele>259</ele>
        <time>2022-05-01T12:20:30.898Z</time>
      </trkpt>
      <trkpt lat="45.79938" lon="5.85831">
        <ele>259</ele>
        <time>2022-05-01T12:20:31.898Z</time>
      </trkpt>
      <trkpt lat="45.79935" lon="5.85832">
        <ele>260</ele>
        <time>2022-05-01T12:20:32.898Z</time>
      </trkpt>
      <trkpt lat="45.79933" lon="5.85833">
        <ele>261</ele>
        <time>2022-05-01T12:20:33.897Z</time>
      </trkpt>
      <trkpt lat="45.7993" lon="5.85834">
        <ele>262</ele>
        <time>2022-05-01T12:20:34.898Z</time>
      </trkpt>
      <trkpt lat="45.79928" lon="5.85835">
        <ele>263</ele>
        <time>2022-05-01T12:20:35.898Z</time>
      </trkpt>
      <trkpt lat="45.79926" lon="5.85836">
        <ele>264</ele>
        <time>2022-05-01T12:20:36.898Z</time>
      </trkpt>
      <trkpt lat="45.79923" lon="5.85837">
        <ele>265</ele>
        <time>2022-05-01T12:20:37.898Z</time>
      </trkpt>
      <trkpt lat="45.79921" lon="5.85838">
        <ele>266</ele>
        <time>2022-05-01T12:20:38.897Z</time>
      </trkpt>
      <trkpt lat="45.79918" lon="5.85838">
        <ele>266</ele>
        <time>2022-05-01T12:20:39.898Z</time>
      </trkpt>
      <trkpt lat="45.79915" lon="5.85839">
        <ele>267</ele>
        <time>2022-05-01T12:20:40.898Z</time>
      </trkpt>
      <trkpt lat="45.79912" lon="5.85841">
        <ele>267</ele>
        <time>2022-05-01T12:20:41.898Z</time>
      </trkpt>
      <trkpt lat="45.7991" lon="5.85842">
        <ele>267</ele>
        <time>2022-05-01T12:20:42.897Z</time>
      </trkpt>
      <trkpt lat="45.79908" lon="5.85844">
        <ele>268</ele>
        <time>2022-05-01T12:20:43.897Z</time>
      </trkpt>
      <trkpt lat="45.79907" lon="5.85845">
        <ele>268</ele>
        <time>2022-05-01T12:20:44.898Z</time>
      </trkpt>
      <trkpt lat="45.79904" lon="5.85847">
        <ele>268</ele>
        <time>2022-05-01T12:20:45.898Z</time>
      </trkpt>
      <trkpt lat="45.79903" lon="5.85849">
        <ele>268</ele>
        <time>2022-05-01T12:20:46.897Z</time>
      </trkpt>
      <trkpt lat="45.799" lon="5.85851">
        <ele>268</ele>
        <time>2022-05-01T12:20:47.898Z</time>
      </trkpt>
      <trkpt lat="45.79898" lon="5.85852">
        <ele>269</ele>
        <time>2022-05-01T12:20:48.898Z</time>
      </trkpt>
      <trkpt lat="45.79896" lon="5.85854">
        <ele>269</ele>
        <time>2022-05-01T12:20:49.898Z</time>
      </trkpt>
      <trkpt lat="45.79894" lon="5.85856">
        <ele>269</ele>
        <time>2022-05-01T12:20:50.897Z</time>
      </trkpt>
      <trkpt lat="45.79892" lon="5.85858">
        <ele>269</ele>
        <time>2022-05-01T12:20:51.898Z</time>
      </trkpt>
      <trkpt lat="45.79889" lon="5.8586">
        <ele>269</ele>
        <time>2022-05-01T12:20:52.897Z</time>
      </trkpt>
      <trkpt lat="45.79887" lon="5.85862">
        <ele>269</ele>
        <time>2022-05-01T12:20:53.898Z</time>
      </trkpt>
      <trkpt lat="45.79885" lon="5.85864">
        <ele>269</ele>
        <time>2022-05-01T12:20:54.898Z</time>
      </trkpt>
      <trkpt lat="45.79882" lon="5.85866">
        <ele>269</ele>
        <time>2022-05-01T12:20:55.898Z</time>
      </trkpt>
      <trkpt lat="45.7988" lon="5.85867">
        <ele>269</ele>
        <time>2022-05-01T12:20:56.898Z</time>
      </trkpt>
      <trkpt lat="45.79877" lon="5.85869">
        <ele>269</ele>
        <time>2022-05-01T12:20:57.898Z</time>
      </trkpt>
      <trkpt lat="45.79874" lon="5.85871">
        <ele>269</ele>
        <time>2022-05-01T12:20:58.898Z</time>
      </trkpt>
      <trkpt lat="45.79871" lon="5.85872">
        <ele>269</ele>
        <time>2022-05-01T12:20:59.898Z</time>
      </trkpt>
      <trkpt lat="45.79869" lon="5.85873">
        <ele>269</ele>
        <time>2022-05-01T12:21:00.897Z</time>
      </trkpt>
      <trkpt lat="45.79866" lon="5.85875">
        <ele>269</ele>
        <time>2022-05-01T12:21:01.898Z</time>
      </trkpt>
      <trkpt lat="45.79863" lon="5.85874">
        <ele>269</ele>
        <time>2022-05-01T12:21:02.898Z</time>
      </trkpt>
      <trkpt lat="45.79859" lon="5.85875">
        <ele>270</ele>
        <time>2022-05-01T12:21:03.898Z</time>
      </trkpt>
      <trkpt lat="45.79856" lon="5.85876">
        <ele>270</ele>
        <time>2022-05-01T12:21:04.898Z</time>
      </trkpt>
      <trkpt lat="45.79854" lon="5.85878">
        <ele>270</ele>
        <time>2022-05-01T12:21:05.897Z</time>
      </trkpt>
      <trkpt lat="45.79852" lon="5.85879">
        <ele>270</ele>
        <time>2022-05-01T12:21:06.897Z</time>
      </trkpt>
      <trkpt lat="45.79849" lon="5.85881">
        <ele>270</ele>
        <time>2022-05-01T12:21:07.898Z</time>
      </trkpt>
      <trkpt lat="45.79846" lon="5.85883">
        <ele>271</ele>
        <time>2022-05-01T12:21:08.898Z</time>
      </trkpt>
      <trkpt lat="45.79844" lon="5.85884">
        <ele>271</ele>
        <time>2022-05-01T12:21:09.898Z</time>
      </trkpt>
      <trkpt lat="45.79842" lon="5.85886">
        <ele>271</ele>
        <time>2022-05-01T12:21:10.897Z</time>
      </trkpt>
      <trkpt lat="45.7984" lon="5.85887">
        <ele>270</ele>
        <time>2022-05-01T12:21:11.898Z</time>
      </trkpt>
      <trkpt lat="45.79837" lon="5.85889">
        <ele>270</ele>
        <time>2022-05-01T12:21:12.897Z</time>
      </trkpt>
      <trkpt lat="45.79835" lon="5.8589">
        <ele>270</ele>
        <time>2022-05-01T12:21:13.898Z</time>
      </trkpt>
      <trkpt lat="45.79832" lon="5.85891">
        <ele>271</ele>
        <time>2022-05-01T12:21:14.897Z</time>
      </trkpt>
      <trkpt lat="45.79829" lon="5.85893">
        <ele>271</ele>
        <time>2022-05-01T12:21:15.898Z</time>
      </trkpt>
      <trkpt lat="45.79825" lon="5.85893">
        <ele>271</ele>
        <time>2022-05-01T12:21:16.898Z</time>
      </trkpt>
      <trkpt lat="45.79822" lon="5.85894">
        <ele>271</ele>
        <time>2022-05-01T12:21:17.897Z</time>
      </trkpt>
      <trkpt lat="45.7982" lon="5.85896">
        <ele>271</ele>
        <time>2022-05-01T12:21:18.897Z</time>
      </trkpt>
      <trkpt lat="45.79817" lon="5.85897">
        <ele>271</ele>
        <time>2022-05-01T12:21:19.898Z</time>
      </trkpt>
      <trkpt lat="45.79815" lon="5.85898">
        <ele>270</ele>
        <time>2022-05-01T12:21:20.898Z</time>
      </trkpt>
      <trkpt lat="45.79812" lon="5.859">
        <ele>270</ele>
        <time>2022-05-01T12:21:21.897Z</time>
      </trkpt>
      <trkpt lat="45.7981" lon="5.85901">
        <ele>270</ele>
        <time>2022-05-01T12:21:22.898Z</time>
      </trkpt>
      <trkpt lat="45.79808" lon="5.85902">
        <ele>270</ele>
        <time>2022-05-01T12:21:23.898Z</time>
      </trkpt>
      <trkpt lat="45.79805" lon="5.85903">
        <ele>269</ele>
        <time>2022-05-01T12:21:24.898Z</time>
      </trkpt>
      <trkpt lat="45.79803" lon="5.85904">
        <ele>269</ele>
        <time>2022-05-01T12:21:25.897Z</time>
      </trkpt>
      <trkpt lat="45.798" lon="5.85904">
        <ele>268</ele>
        <time>2022-05-01T12:21:26.898Z</time>
      </trkpt>
      <trkpt lat="45.79798" lon="5.85903">
        <ele>267</ele>
        <time>2022-05-01T12:21:27.898Z</time>
      </trkpt>
      <trkpt lat="45.79795" lon="5.85903">
        <ele>267</ele>
        <time>2022-05-01T12:21:28.898Z</time>
      </trkpt>
      <trkpt lat="45.79792" lon="5.85902">
        <ele>266</ele>
        <time>2022-05-01T12:21:29.898Z</time>
      </trkpt>
      <trkpt lat="45.7979" lon="5.85902">
        <ele>266</ele>
        <time>2022-05-01T12:21:30.897Z</time>
      </trkpt>
      <trkpt lat="45.79787" lon="5.85902">
        <ele>267</ele>
        <time>2022-05-01T12:21:31.897Z</time>
      </trkpt>
      <trkpt lat="45.79784" lon="5.85903">
        <ele>268</ele>
        <time>2022-05-01T12:21:32.898Z</time>
      </trkpt>
      <trkpt lat="45.79782" lon="5.85903">
        <ele>268</ele>
        <time>2022-05-01T12:21:33.898Z</time>
      </trkpt>
      <trkpt lat="45.7978" lon="5.85904">
        <ele>268</ele>
        <time>2022-05-01T12:21:34.897Z</time>
      </trkpt>
      <trkpt lat="45.79778" lon="5.85905">
        <ele>268</ele>
        <time>2022-05-01T12:21:35.897Z</time>
      </trkpt>
      <trkpt lat="45.79776" lon="5.85905">
        <ele>269</ele>
        <time>2022-05-01T12:21:36.898Z</time>
      </trkpt>
      <trkpt lat="45.79774" lon="5.85906">
        <ele>270</ele>
        <time>2022-05-01T12:21:37.898Z</time>
      </trkpt>
      <trkpt lat="45.79771" lon="5.85906">
        <ele>270</ele>
        <time>2022-05-01T12:21:38.898Z</time>
      </trkpt>
      <trkpt lat="45.79769" lon="5.85907">
        <ele>270</ele>
        <time>2022-05-01T12:21:39.898Z</time>
      </trkpt>
      <trkpt lat="45.79767" lon="5.85907">
        <ele>270</ele>
        <time>2022-05-01T12:21:40.897Z</time>
      </trkpt>
      <trkpt lat="45.79764" lon="5.85908">
        <ele>270</ele>
        <time>2022-05-01T12:21:41.897Z</time>
      </trkpt>
      <trkpt lat="45.79762" lon="5.85908">
        <ele>270</ele>
        <time>2022-05-01T12:21:42.898Z</time>
      </trkpt>
      <trkpt lat="45.79759" lon="5.85909">
        <ele>270</ele>
        <time>2022-05-01T12:21:43.897Z</time>
      </trkpt>
      <trkpt lat="45.79757" lon="5.8591">
        <ele>271</ele>
        <time>2022-05-01T12:21:44.898Z</time>
      </trkpt>
      <trkpt lat="45.79754" lon="5.8591">
        <ele>271</ele>
        <time>2022-05-01T12:21:45.898Z</time>
      </trkpt>
      <trkpt lat="45.79752" lon="5.85911">
        <ele>271</ele>
        <time>2022-05-01T12:21:46.897Z</time>
      </trkpt>
      <trkpt lat="45.79749" lon="5.85912">
        <ele>271</ele>
        <time>2022-05-01T12:21:47.898Z</time>
      </trkpt>
      <trkpt lat="45.79747" lon="5.85912">
        <ele>271</ele>
        <time>2022-05-01T12:21:48.898Z</time>
      </trkpt>
      <trkpt lat="45.79745" lon="5.85913">
        <ele>271</ele>
        <time>2022-05-01T12:21:49.898Z</time>
      </trkpt>
      <trkpt lat="45.79742" lon="5.85913">
        <ele>272</ele>
        <time>2022-05-01T12:21:50.898Z</time>
      </trkpt>
      <trkpt lat="45.7974" lon="5.85914">
        <ele>272</ele>
        <time>2022-05-01T12:21:51.898Z</time>
      </trkpt>
      <trkpt lat="45.79738" lon="5.85914">
        <ele>272</ele>
        <time>2022-05-01T12:21:52.898Z</time>
      </trkpt>
      <trkpt lat="45.79736" lon="5.85915">
        <ele>273</ele>
        <time>2022-05-01T12:21:53.897Z</time>
      </trkpt>
      <trkpt lat="45.79733" lon="5.85915">
        <ele>273</ele>
        <time>2022-05-01T12:21:54.898Z</time>
      </trkpt>
      <trkpt lat="45.79732" lon="5.85916">
        <ele>273</ele>
        <time>2022-05-01T12:21:55.897Z</time>
      </trkpt>
      <trkpt lat="45.79729" lon="5.85916">
        <ele>274</ele>
        <time>2022-05-01T12:21:56.897Z</time>
      </trkpt>
      <trkpt lat="45.79726" lon="5.85917">
        <ele>275</ele>
        <time>2022-05-01T12:21:57.898Z</time>
      </trkpt>
      <trkpt lat="45.79724" lon="5.85917">
        <ele>276</ele>
        <time>2022-05-01T12:21:58.898Z</time>
      </trkpt>
      <trkpt lat="45.79721" lon="5.85917">
        <ele>276</ele>
        <time>2022-05-01T12:21:59.898Z</time>
      </trkpt>
      <trkpt lat="45.79719" lon="5.85917">
        <ele>278</ele>
        <time>2022-05-01T12:22:00.897Z</time>
      </trkpt>
      <trkpt lat="45.79716" lon="5.85918">
        <ele>279</ele>
        <time>2022-05-01T12:22:01.898Z</time>
      </trkpt>
      <trkpt lat="45.79714" lon="5.85919">
        <ele>279</ele>
        <time>2022-05-01T12:22:02.897Z</time>
      </trkpt>
      <trkpt lat="45.79711" lon="5.85919">
        <ele>280</ele>
        <time>2022-05-01T12:22:03.898Z</time>
      </trkpt>
      <trkpt lat="45.79708" lon="5.85919">
        <ele>280</ele>
        <time>2022-05-01T12:22:04.898Z</time>
      </trkpt>
      <trkpt lat="45.79706" lon="5.8592">
        <ele>280</ele>
        <time>2022-05-01T12:22:05.898Z</time>
      </trkpt>
      <trkpt lat="45.79704" lon="5.8592">
        <ele>280</ele>
        <time>2022-05-01T12:22:06.897Z</time>
      </trkpt>
      <trkpt lat="45.79701" lon="5.85921">
        <ele>280</ele>
        <time>2022-05-01T12:22:07.898Z</time>
      </trkpt>
      <trkpt lat="45.79699" lon="5.85922">
        <ele>280</ele>
        <time>2022-05-01T12:22:08.898Z</time>
      </trkpt>
      <trkpt lat="45.79697" lon="5.85923">
        <ele>280</ele>
        <time>2022-05-01T12:22:09.898Z</time>
      </trkpt>
      <trkpt lat="45.79695" lon="5.85923">
        <ele>281</ele>
        <time>2022-05-01T12:22:10.898Z</time>
      </trkpt>
      <trkpt lat="45.79693" lon="5.85924">
        <ele>281</ele>
        <time>2022-05-01T12:22:11.897Z</time>
      </trkpt>
      <trkpt lat="45.79691" lon="5.85925">
        <ele>282</ele>
        <time>2022-05-01T12:22:12.897Z</time>
      </trkpt>
      <trkpt lat="45.79689" lon="5.85926">
        <ele>281</ele>
        <time>2022-05-01T12:22:13.898Z</time>
      </trkpt>
      <trkpt lat="45.79687" lon="5.85926">
        <ele>281</ele>
        <time>2022-05-01T12:22:14.898Z</time>
      </trkpt>
      <trkpt lat="45.79685" lon="5.85926">
        <ele>281</ele>
        <time>2022-05-01T12:22:15.898Z</time>
      </trkpt>
      <trkpt lat="45.79682" lon="5.85926">
        <ele>281</ele>
        <time>2022-05-01T12:22:16.898Z</time>
      </trkpt>
      <trkpt lat="45.7968" lon="5.85927">
        <ele>281</ele>
        <time>2022-05-01T12:22:17.897Z</time>
      </trkpt>
      <trkpt lat="45.79678" lon="5.85927">
        <ele>281</ele>
        <time>2022-05-01T12:22:18.898Z</time>
      </trkpt>
      <trkpt lat="45.79676" lon="5.85928">
        <ele>281</ele>
        <time>2022-05-01T12:22:19.898Z</time>
      </trkpt>
      <trkpt lat="45.79673" lon="5.85929">
        <ele>281</ele>
        <time>2022-05-01T12:22:20.897Z</time>
      </trkpt>
      <trkpt lat="45.79671" lon="5.8593">
        <ele>281</ele>
        <time>2022-05-01T12:22:21.897Z</time>
      </trkpt>
      <trkpt lat="45.79668" lon="5.85931">
        <ele>281</ele>
        <time>2022-05-01T12:22:22.897Z</time>
      </trkpt>
      <trkpt lat="45.79667" lon="5.85931">
        <ele>281</ele>
        <time>2022-05-01T12:22:23.898Z</time>
      </trkpt>
      <trkpt lat="45.79664" lon="5.85932">
        <ele>281</ele>
        <time>2022-05-01T12:22:24.898Z</time>
      </trkpt>
      <trkpt lat="45.79661" lon="5.85933">
        <ele>282</ele>
        <time>2022-05-01T12:22:25.898Z</time>
      </trkpt>
      <trkpt lat="45.79659" lon="5.85933">
        <ele>282</ele>
        <time>2022-05-01T12:22:26.897Z</time>
      </trkpt>
      <trkpt lat="45.79656" lon="5.85934">
        <ele>282</ele>
        <time>2022-05-01T12:22:27.898Z</time>
      </trkpt>
      <trkpt lat="45.79654" lon="5.85934">
        <ele>281</ele>
        <time>2022-05-01T12:22:28.898Z</time>
      </trkpt>
      <trkpt lat="45.79651" lon="5.85935">
        <ele>280</ele>
        <time>2022-05-01T12:22:29.898Z</time>
      </trkpt>
      <trkpt lat="45.79649" lon="5.85935">
        <ele>280</ele>
        <time>2022-05-01T12:22:30.898Z</time>
      </trkpt>
      <trkpt lat="45.79647" lon="5.85936">
        <ele>280</ele>
        <time>2022-05-01T12:22:31.897Z</time>
      </trkpt>
      <trkpt lat="45.79644" lon="5.85937">
        <ele>280</ele>
        <time>2022-05-01T12:22:32.897Z</time>
      </trkpt>
      <trkpt lat="45.79642" lon="5.85938">
        <ele>280</ele>
        <time>2022-05-01T12:22:33.897Z</time>
      </trkpt>
      <trkpt lat="45.7964" lon="5.85939">
        <ele>280</ele>
        <time>2022-05-01T12:22:34.898Z</time>
      </trkpt>
      <trkpt lat="45.79637" lon="5.85939">
        <ele>280</ele>
        <time>2022-05-01T12:22:35.898Z</time>
      </trkpt>
      <trkpt lat="45.79635" lon="5.8594">
        <ele>280</ele>
        <time>2022-05-01T12:22:36.897Z</time>
      </trkpt>
      <trkpt lat="45.79634" lon="5.8594">
        <ele>280</ele>
        <time>2022-05-01T12:22:37.898Z</time>
      </trkpt>
      <trkpt lat="45.79631" lon="5.85941">
        <ele>280</ele>
        <time>2022-05-01T12:22:38.898Z</time>
      </trkpt>
      <trkpt lat="45.79629" lon="5.85942">
        <ele>280</ele>
        <time>2022-05-01T12:22:39.897Z</time>
      </trkpt>
      <trkpt lat="45.79626" lon="5.85943">
        <ele>280</ele>
        <time>2022-05-01T12:22:40.897Z</time>
      </trkpt>
      <trkpt lat="45.79623" lon="5.85944">
        <ele>280</ele>
        <time>2022-05-01T12:22:41.897Z</time>
      </trkpt>
      <trkpt lat="45.79621" lon="5.85944">
        <ele>281</ele>
        <time>2022-05-01T12:22:42.897Z</time>
      </trkpt>
      <trkpt lat="45.79619" lon="5.85944">
        <ele>281</ele>
        <time>2022-05-01T12:22:43.897Z</time>
      </trkpt>
      <trkpt lat="45.79616" lon="5.85945">
        <ele>281</ele>
        <time>2022-05-01T12:22:44.898Z</time>
      </trkpt>
      <trkpt lat="45.79614" lon="5.85946">
        <ele>281</ele>
        <time>2022-05-01T12:22:45.897Z</time>
      </trkpt>
      <trkpt lat="45.79611" lon="5.85947">
        <ele>280</ele>
        <time>2022-05-01T12:22:46.897Z</time>
      </trkpt>
      <trkpt lat="45.7961" lon="5.85947">
        <ele>280</ele>
        <time>2022-05-01T12:22:47.898Z</time>
      </trkpt>
      <trkpt lat="45.79607" lon="5.85948">
        <ele>281</ele>
        <time>2022-05-01T12:22:48.898Z</time>
      </trkpt>
      <trkpt lat="45.79604" lon="5.85949">
        <ele>281</ele>
        <time>2022-05-01T12:22:49.898Z</time>
      </trkpt>
      <trkpt lat="45.79602" lon="5.8595">
        <ele>281</ele>
        <time>2022-05-01T12:22:50.898Z</time>
      </trkpt>
      <trkpt lat="45.796" lon="5.85951">
        <ele>281</ele>
        <time>2022-05-01T12:22:51.897Z</time>
      </trkpt>
      <trkpt lat="45.79597" lon="5.85952">
        <ele>282</ele>
        <time>2022-05-01T12:22:52.897Z</time>
      </trkpt>
      <trkpt lat="45.79595" lon="5.85953">
        <ele>282</ele>
        <time>2022-05-01T12:22:53.897Z</time>
      </trkpt>
      <trkpt lat="45.79592" lon="5.85953">
        <ele>282</ele>
        <time>2022-05-01T12:22:54.897Z</time>
      </trkpt>
      <trkpt lat="45.7959" lon="5.85954">
        <ele>283</ele>
        <time>2022-05-01T12:22:55.898Z</time>
      </trkpt>
      <trkpt lat="45.79588" lon="5.85955">
        <ele>283</ele>
        <time>2022-05-01T12:22:56.897Z</time>
      </trkpt>
      <trkpt lat="45.79585" lon="5.85955">
        <ele>283</ele>
        <time>2022-05-01T12:22:57.898Z</time>
      </trkpt>
      <trkpt lat="45.79582" lon="5.85956">
        <ele>284</ele>
        <time>2022-05-01T12:22:58.897Z</time>
      </trkpt>
      <trkpt lat="45.7958" lon="5.85957">
        <ele>284</ele>
        <time>2022-05-01T12:22:59.897Z</time>
      </trkpt>
      <trkpt lat="45.79578" lon="5.85957">
        <ele>284</ele>
        <time>2022-05-01T12:23:00.898Z</time>
      </trkpt>
      <trkpt lat="45.79576" lon="5.85958">
        <ele>284</ele>
        <time>2022-05-01T12:23:01.898Z</time>
      </trkpt>
      <trkpt lat="45.79573" lon="5.85959">
        <ele>285</ele>
        <time>2022-05-01T12:23:02.898Z</time>
      </trkpt>
      <trkpt lat="45.7957" lon="5.85959">
        <ele>285</ele>
        <time>2022-05-01T12:23:03.898Z</time>
      </trkpt>
      <trkpt lat="45.79567" lon="5.8596">
        <ele>284</ele>
        <time>2022-05-01T12:23:04.898Z</time>
      </trkpt>
      <trkpt lat="45.79565" lon="5.85961">
        <ele>284</ele>
        <time>2022-05-01T12:23:05.898Z</time>
      </trkpt>
      <trkpt lat="45.79563" lon="5.85961">
        <ele>284</ele>
        <time>2022-05-01T12:23:06.898Z</time>
      </trkpt>
      <trkpt lat="45.7956" lon="5.85963">
        <ele>284</ele>
        <time>2022-05-01T12:23:07.898Z</time>
      </trkpt>
      <trkpt lat="45.79557" lon="5.85963">
        <ele>285</ele>
        <time>2022-05-01T12:23:08.897Z</time>
      </trkpt>
      <trkpt lat="45.79555" lon="5.85964">
        <ele>285</ele>
        <time>2022-05-01T12:23:09.898Z</time>
      </trkpt>
      <trkpt lat="45.79553" lon="5.85964">
        <ele>285</ele>
        <time>2022-05-01T12:23:10.897Z</time>
      </trkpt>
      <trkpt lat="45.7955" lon="5.85965">
        <ele>285</ele>
        <time>2022-05-01T12:23:11.898Z</time>
      </trkpt>
      <trkpt lat="45.79547" lon="5.85966">
        <ele>285</ele>
        <time>2022-05-01T12:23:12.898Z</time>
      </trkpt>
      <trkpt lat="45.79545" lon="5.85967">
        <ele>285</ele>
        <time>2022-05-01T12:23:13.898Z</time>
      </trkpt>
      <trkpt lat="45.79543" lon="5.85967">
        <ele>285</ele>
        <time>2022-05-01T12:23:14.898Z</time>
      </trkpt>
      <trkpt lat="45.79541" lon="5.85968">
        <ele>285</ele>
        <time>2022-05-01T12:23:15.897Z</time>
      </trkpt>
      <trkpt lat="45.79538" lon="5.85968">
        <ele>285</ele>
        <time>2022-05-01T12:23:16.898Z</time>
      </trkpt>
      <trkpt lat="45.79535" lon="5.85969">
        <ele>286</ele>
        <time>2022-05-01T12:23:17.898Z</time>
      </trkpt>
      <trkpt lat="45.79532" lon="5.85969">
        <ele>286</ele>
        <time>2022-05-01T12:23:18.898Z</time>
      </trkpt>
      <trkpt lat="45.7953" lon="5.8597">
        <ele>286</ele>
        <time>2022-05-01T12:23:19.898Z</time>
      </trkpt>
      <trkpt lat="45.79527" lon="5.85971">
        <ele>286</ele>
        <time>2022-05-01T12:23:20.898Z</time>
      </trkpt>
      <trkpt lat="45.79524" lon="5.85972">
        <ele>286</ele>
        <time>2022-05-01T12:23:21.898Z</time>
      </trkpt>
      <trkpt lat="45.79521" lon="5.85973">
        <ele>286</ele>
        <time>2022-05-01T12:23:22.898Z</time>
      </trkpt>
      <trkpt lat="45.79518" lon="5.85974">
        <ele>286</ele>
        <time>2022-05-01T12:23:23.897Z</time>
      </trkpt>
      <trkpt lat="45.79516" lon="5.85974">
        <ele>285</ele>
        <time>2022-05-01T12:23:24.898Z</time>
      </trkpt>
      <trkpt lat="45.79513" lon="5.85976">
        <ele>285</ele>
        <time>2022-05-01T12:23:25.898Z</time>
      </trkpt>
      <trkpt lat="45.7951" lon="5.85977">
        <ele>284</ele>
        <time>2022-05-01T12:23:26.898Z</time>
      </trkpt>
      <trkpt lat="45.79507" lon="5.85977">
        <ele>284</ele>
        <time>2022-05-01T12:23:27.898Z</time>
      </trkpt>
      <trkpt lat="45.79504" lon="5.85978">
        <ele>284</ele>
        <time>2022-05-01T12:23:28.898Z</time>
      </trkpt>
      <trkpt lat="45.79501" lon="5.85979">
        <ele>283</ele>
        <time>2022-05-01T12:23:29.898Z</time>
      </trkpt>
      <trkpt lat="45.79498" lon="5.85979">
        <ele>283</ele>
        <time>2022-05-01T12:23:30.898Z</time>
      </trkpt>
      <trkpt lat="45.79494" lon="5.8598">
        <ele>283</ele>
        <time>2022-05-01T12:23:31.898Z</time>
      </trkpt>
      <trkpt lat="45.79492" lon="5.8598">
        <ele>284</ele>
        <time>2022-05-01T12:23:32.897Z</time>
      </trkpt>
      <trkpt lat="45.79488" lon="5.85981">
        <ele>284</ele>
        <time>2022-05-01T12:23:33.898Z</time>
      </trkpt>
      <trkpt lat="45.79485" lon="5.85981">
        <ele>284</ele>
        <time>2022-05-01T12:23:34.898Z</time>
      </trkpt>
      <trkpt lat="45.79481" lon="5.85982">
        <ele>284</ele>
        <time>2022-05-01T12:23:35.898Z</time>
      </trkpt>
      <trkpt lat="45.79478" lon="5.85982">
        <ele>284</ele>
        <time>2022-05-01T12:23:36.897Z</time>
      </trkpt>
      <trkpt lat="45.79475" lon="5.85983">
        <ele>284</ele>
        <time>2022-05-01T12:23:37.898Z</time>
      </trkpt>
      <trkpt lat="45.79472" lon="5.85984">
        <ele>284</ele>
        <time>2022-05-01T12:23:38.898Z</time>
      </trkpt>
      <trkpt lat="45.79468" lon="5.85985">
        <ele>285</ele>
        <time>2022-05-01T12:23:39.898Z</time>
      </trkpt>
      <trkpt lat="45.79465" lon="5.85985">
        <ele>285</ele>
        <time>2022-05-01T12:23:40.898Z</time>
      </trkpt>
      <trkpt lat="45.79461" lon="5.85986">
        <ele>286</ele>
        <time>2022-05-01T12:23:41.898Z</time>
      </trkpt>
      <trkpt lat="45.79458" lon="5.85986">
        <ele>286</ele>
        <time>2022-05-01T12:23:42.897Z</time>
      </trkpt>
      <trkpt lat="45.79455" lon="5.85987">
        <ele>287</ele>
        <time>2022-05-01T12:23:43.898Z</time>
      </trkpt>
      <trkpt lat="45.79451" lon="5.85987">
        <ele>287</ele>
        <time>2022-05-01T12:23:44.898Z</time>
      </trkpt>
      <trkpt lat="45.79448" lon="5.85988">
        <ele>287</ele>
        <time>2022-05-01T12:23:45.897Z</time>
      </trkpt>
      <trkpt lat="45.79445" lon="5.85989">
        <ele>288</ele>
        <time>2022-05-01T12:23:46.898Z</time>
      </trkpt>
      <trkpt lat="45.79442" lon="5.8599">
        <ele>288</ele>
        <time>2022-05-01T12:23:47.898Z</time>
      </trkpt>
      <trkpt lat="45.79438" lon="5.85991">
        <ele>288</ele>
        <time>2022-05-01T12:23:48.898Z</time>
      </trkpt>
      <trkpt lat="45.79435" lon="5.85991">
        <ele>288</ele>
        <time>2022-05-01T12:23:49.898Z</time>
      </trkpt>
      <trkpt lat="45.79431" lon="5.85992">
        <ele>288</ele>
        <time>2022-05-01T12:23:50.897Z</time>
      </trkpt>
      <trkpt lat="45.79427" lon="5.85992">
        <ele>288</ele>
        <time>2022-05-01T12:23:51.898Z</time>
      </trkpt>
      <trkpt lat="45.79424" lon="5.85992">
        <ele>288</ele>
        <time>2022-05-01T12:23:52.897Z</time>
      </trkpt>
      <trkpt lat="45.7942" lon="5.85993">
        <ele>289</ele>
        <time>2022-05-01T12:23:53.898Z</time>
      </trkpt>
      <trkpt lat="45.79416" lon="5.85993">
        <ele>289</ele>
        <time>2022-05-01T12:23:54.897Z</time>
      </trkpt>
      <trkpt lat="45.79412" lon="5.85994">
        <ele>289</ele>
        <time>2022-05-01T12:23:55.898Z</time>
      </trkpt>
      <trkpt lat="45.79408" lon="5.85995">
        <ele>289</ele>
        <time>2022-05-01T12:23:56.897Z</time>
      </trkpt>
      <trkpt lat="45.79405" lon="5.85996">
        <ele>289</ele>
        <time>2022-05-01T12:23:57.898Z</time>
      </trkpt>
      <trkpt lat="45.794" lon="5.85997">
        <ele>288</ele>
        <time>2022-05-01T12:23:58.898Z</time>
      </trkpt>
      <trkpt lat="45.79396" lon="5.85997">
        <ele>288</ele>
        <time>2022-05-01T12:23:59.898Z</time>
      </trkpt>
      <trkpt lat="45.79392" lon="5.85998">
        <ele>288</ele>
        <time>2022-05-01T12:24:00.897Z</time>
      </trkpt>
      <trkpt lat="45.79389" lon="5.85999">
        <ele>287</ele>
        <time>2022-05-01T12:24:01.898Z</time>
      </trkpt>
      <trkpt lat="45.79385" lon="5.86">
        <ele>287</ele>
        <time>2022-05-01T12:24:02.898Z</time>
      </trkpt>
      <trkpt lat="45.79382" lon="5.86">
        <ele>287</ele>
        <time>2022-05-01T12:24:03.897Z</time>
      </trkpt>
      <trkpt lat="45.79379" lon="5.86001">
        <ele>286</ele>
        <time>2022-05-01T12:24:04.898Z</time>
      </trkpt>
      <trkpt lat="45.79376" lon="5.86002">
        <ele>286</ele>
        <time>2022-05-01T12:24:05.898Z</time>
      </trkpt>
      <trkpt lat="45.79372" lon="5.86003">
        <ele>285</ele>
        <time>2022-05-01T12:24:06.898Z</time>
      </trkpt>
      <trkpt lat="45.79368" lon="5.86004">
        <ele>285</ele>
        <time>2022-05-01T12:24:07.897Z</time>
      </trkpt>
      <trkpt lat="45.79365" lon="5.86004">
        <ele>284</ele>
        <time>2022-05-01T12:24:08.897Z</time>
      </trkpt>
      <trkpt lat="45.79361" lon="5.86005">
        <ele>284</ele>
        <time>2022-05-01T12:24:09.898Z</time>
      </trkpt>
      <trkpt lat="45.79356" lon="5.86006">
        <ele>284</ele>
        <time>2022-05-01T12:24:10.898Z</time>
      </trkpt>
      <trkpt lat="45.79351" lon="5.86008">
        <ele>284</ele>
        <time>2022-05-01T12:24:11.898Z</time>
      </trkpt>
      <trkpt lat="45.79348" lon="5.86009">
        <ele>285</ele>
        <time>2022-05-01T12:24:12.898Z</time>
      </trkpt>
      <trkpt lat="45.79344" lon="5.8601">
        <ele>285</ele>
        <time>2022-05-01T12:24:13.897Z</time>
      </trkpt>
      <trkpt lat="45.79339" lon="5.8601">
        <ele>285</ele>
        <time>2022-05-01T12:24:14.898Z</time>
      </trkpt>
      <trkpt lat="45.79335" lon="5.8601">
        <ele>286</ele>
        <time>2022-05-01T12:24:15.898Z</time>
      </trkpt>
      <trkpt lat="45.7933" lon="5.86011">
        <ele>286</ele>
        <time>2022-05-01T12:24:16.898Z</time>
      </trkpt>
      <trkpt lat="45.79325" lon="5.86012">
        <ele>286</ele>
        <time>2022-05-01T12:24:17.897Z</time>
      </trkpt>
      <trkpt lat="45.7932" lon="5.86013">
        <ele>286</ele>
        <time>2022-05-01T12:24:18.898Z</time>
      </trkpt>
      <trkpt lat="45.79315" lon="5.86015">
        <ele>286</ele>
        <time>2022-05-01T12:24:19.898Z</time>
      </trkpt>
      <trkpt lat="45.7931" lon="5.86017">
        <ele>286</ele>
        <time>2022-05-01T12:24:20.898Z</time>
      </trkpt>
      <trkpt lat="45.79305" lon="5.86017">
        <ele>286</ele>
        <time>2022-05-01T12:24:21.897Z</time>
      </trkpt>
      <trkpt lat="45.79301" lon="5.86017">
        <ele>286</ele>
        <time>2022-05-01T12:24:22.897Z</time>
      </trkpt>
      <trkpt lat="45.79295" lon="5.86018">
        <ele>286</ele>
        <time>2022-05-01T12:24:23.898Z</time>
      </trkpt>
      <trkpt lat="45.7929" lon="5.86019">
        <ele>285</ele>
        <time>2022-05-01T12:24:24.898Z</time>
      </trkpt>
      <trkpt lat="45.79285" lon="5.86019">
        <ele>284</ele>
        <time>2022-05-01T12:24:25.897Z</time>
      </trkpt>
      <trkpt lat="45.79279" lon="5.8602">
        <ele>284</ele>
        <time>2022-05-01T12:24:26.898Z</time>
      </trkpt>
      <trkpt lat="45.79273" lon="5.86021">
        <ele>283</ele>
        <time>2022-05-01T12:24:27.898Z</time>
      </trkpt>
      <trkpt lat="45.79267" lon="5.86022">
        <ele>282</ele>
        <time>2022-05-01T12:24:28.897Z</time>
      </trkpt>
      <trkpt lat="45.79261" lon="5.86023">
        <ele>282</ele>
        <time>2022-05-01T12:24:29.898Z</time>
      </trkpt>
      <trkpt lat="45.79254" lon="5.86024">
        <ele>281</ele>
        <time>2022-05-01T12:24:30.898Z</time>
      </trkpt>
      <trkpt lat="45.79248" lon="5.86025">
        <ele>281</ele>
        <time>2022-05-01T12:24:31.897Z</time>
      </trkpt>
      <trkpt lat="45.79242" lon="5.86026">
        <ele>280</ele>
        <time>2022-05-01T12:24:32.897Z</time>
      </trkpt>
      <trkpt lat="45.79235" lon="5.86027">
        <ele>279</ele>
        <time>2022-05-01T12:24:33.898Z</time>
      </trkpt>
      <trkpt lat="45.79228" lon="5.86028">
        <ele>279</ele>
        <time>2022-05-01T12:24:34.898Z</time>
      </trkpt>
      <trkpt lat="45.79219" lon="5.8603">
        <ele>278</ele>
        <time>2022-05-01T12:24:35.898Z</time>
      </trkpt>
      <trkpt lat="45.79212" lon="5.86031">
        <ele>277</ele>
        <time>2022-05-01T12:24:36.898Z</time>
      </trkpt>
      <trkpt lat="45.79204" lon="5.86032">
        <ele>277</ele>
        <time>2022-05-01T12:24:37.898Z</time>
      </trkpt>
      <trkpt lat="45.79198" lon="5.86033">
        <ele>276</ele>
        <time>2022-05-01T12:24:38.898Z</time>
      </trkpt>
      <trkpt lat="45.79191" lon="5.86035">
        <ele>276</ele>
        <time>2022-05-01T12:24:39.898Z</time>
      </trkpt>
      <trkpt lat="45.79182" lon="5.86036">
        <ele>275</ele>
        <time>2022-05-01T12:24:40.897Z</time>
      </trkpt>
      <trkpt lat="45.79175" lon="5.86037">
        <ele>275</ele>
        <time>2022-05-01T12:24:41.898Z</time>
      </trkpt>
      <trkpt lat="45.79168" lon="5.86038">
        <ele>274</ele>
        <time>2022-05-01T12:24:42.897Z</time>
      </trkpt>
      <trkpt lat="45.79161" lon="5.8604">
        <ele>273</ele>
        <time>2022-05-01T12:24:43.898Z</time>
      </trkpt>
      <trkpt lat="45.79153" lon="5.86041">
        <ele>272</ele>
        <time>2022-05-01T12:24:44.897Z</time>
      </trkpt>
      <trkpt lat="45.79146" lon="5.86041">
        <ele>272</ele>
        <time>2022-05-01T12:24:45.898Z</time>
      </trkpt>
      <trkpt lat="45.79139" lon="5.86042">
        <ele>271</ele>
        <time>2022-05-01T12:24:46.897Z</time>
      </trkpt>
      <trkpt lat="45.79132" lon="5.86043">
        <ele>271</ele>
        <time>2022-05-01T12:24:47.898Z</time>
      </trkpt>
      <trkpt lat="45.79125" lon="5.86045">
        <ele>271</ele>
        <time>2022-05-01T12:24:48.897Z</time>
      </trkpt>
      <trkpt lat="45.79118" lon="5.86046">
        <ele>270</ele>
        <time>2022-05-01T12:24:49.898Z</time>
      </trkpt>
      <trkpt lat="45.79111" lon="5.86047">
        <ele>270</ele>
        <time>2022-05-01T12:24:50.897Z</time>
      </trkpt>
      <trkpt lat="45.79104" lon="5.86048">
        <ele>270</ele>
        <time>2022-05-01T12:24:51.897Z</time>
      </trkpt>
      <trkpt lat="45.79098" lon="5.86049">
        <ele>270</ele>
        <time>2022-05-01T12:24:52.898Z</time>
      </trkpt>
      <trkpt lat="45.79091" lon="5.8605">
        <ele>269</ele>
        <time>2022-05-01T12:24:53.898Z</time>
      </trkpt>
      <trkpt lat="45.79084" lon="5.86052">
        <ele>269</ele>
        <time>2022-05-01T12:24:54.898Z</time>
      </trkpt>
      <trkpt lat="45.79077" lon="5.86053">
        <ele>269</ele>
        <time>2022-05-01T12:24:55.898Z</time>
      </trkpt>
      <trkpt lat="45.7907" lon="5.86053">
        <ele>269</ele>
        <time>2022-05-01T12:24:56.898Z</time>
      </trkpt>
      <trkpt lat="45.79063" lon="5.86055">
        <ele>269</ele>
        <time>2022-05-01T12:24:57.898Z</time>
      </trkpt>
      <trkpt lat="45.79056" lon="5.86055">
        <ele>269</ele>
        <time>2022-05-01T12:24:58.898Z</time>
      </trkpt>
      <trkpt lat="45.79049" lon="5.86056">
        <ele>269</ele>
        <time>2022-05-01T12:24:59.898Z</time>
      </trkpt>
      <trkpt lat="45.79042" lon="5.86057">
        <ele>268</ele>
        <time>2022-05-01T12:25:00.898Z</time>
      </trkpt>
      <trkpt lat="45.79035" lon="5.86058">
        <ele>268</ele>
        <time>2022-05-01T12:25:01.898Z</time>
      </trkpt>
      <trkpt lat="45.79028" lon="5.8606">
        <ele>268</ele>
        <time>2022-05-01T12:25:02.897Z</time>
      </trkpt>
      <trkpt lat="45.7902" lon="5.86061">
        <ele>268</ele>
        <time>2022-05-01T12:25:03.897Z</time>
      </trkpt>
      <trkpt lat="45.79013" lon="5.86062">
        <ele>268</ele>
        <time>2022-05-01T12:25:04.897Z</time>
      </trkpt>
      <trkpt lat="45.79006" lon="5.86063">
        <ele>267</ele>
        <time>2022-05-01T12:25:05.898Z</time>
      </trkpt>
      <trkpt lat="45.78999" lon="5.86064">
        <ele>267</ele>
        <time>2022-05-01T12:25:06.898Z</time>
      </trkpt>
      <trkpt lat="45.78992" lon="5.86065">
        <ele>267</ele>
        <time>2022-05-01T12:25:07.897Z</time>
      </trkpt>
      <trkpt lat="45.78984" lon="5.86066">
        <ele>267</ele>
        <time>2022-05-01T12:25:08.897Z</time>
      </trkpt>
      <trkpt lat="45.78976" lon="5.86067">
        <ele>267</ele>
        <time>2022-05-01T12:25:09.898Z</time>
      </trkpt>
      <trkpt lat="45.78969" lon="5.86068">
        <ele>266</ele>
        <time>2022-05-01T12:25:10.898Z</time>
      </trkpt>
      <trkpt lat="45.78961" lon="5.86069">
        <ele>266</ele>
        <time>2022-05-01T12:25:11.898Z</time>
      </trkpt>
      <trkpt lat="45.78953" lon="5.8607">
        <ele>266</ele>
        <time>2022-05-01T12:25:12.898Z</time>
      </trkpt>
      <trkpt lat="45.78945" lon="5.86071">
        <ele>266</ele>
        <time>2022-05-01T12:25:13.898Z</time>
      </trkpt>
      <trkpt lat="45.78937" lon="5.86072">
        <ele>266</ele>
        <time>2022-05-01T12:25:14.898Z</time>
      </trkpt>
      <trkpt lat="45.78929" lon="5.86073">
        <ele>266</ele>
        <time>2022-05-01T12:25:15.898Z</time>
      </trkpt>
      <trkpt lat="45.78921" lon="5.86074">
        <ele>266</ele>
        <time>2022-05-01T12:25:16.898Z</time>
      </trkpt>
      <trkpt lat="45.78914" lon="5.86075">
        <ele>266</ele>
        <time>2022-05-01T12:25:17.898Z</time>
      </trkpt>
      <trkpt lat="45.78906" lon="5.86077">
        <ele>265</ele>
        <time>2022-05-01T12:25:18.897Z</time>
      </trkpt>
      <trkpt lat="45.78897" lon="5.86078">
        <ele>265</ele>
        <time>2022-05-01T12:25:19.898Z</time>
      </trkpt>
      <trkpt lat="45.78889" lon="5.86079">
        <ele>264</ele>
        <time>2022-05-01T12:25:20.897Z</time>
      </trkpt>
      <trkpt lat="45.7888" lon="5.86081">
        <ele>264</ele>
        <time>2022-05-01T12:25:21.897Z</time>
      </trkpt>
      <trkpt lat="45.78872" lon="5.86082">
        <ele>263</ele>
        <time>2022-05-01T12:25:22.898Z</time>
      </trkpt>
      <trkpt lat="45.78864" lon="5.86083">
        <ele>263</ele>
        <time>2022-05-01T12:25:23.898Z</time>
      </trkpt>
      <trkpt lat="45.78855" lon="5.86085">
        <ele>262</ele>
        <time>2022-05-01T12:25:24.897Z</time>
      </trkpt>
      <trkpt lat="45.78847" lon="5.86086">
        <ele>262</ele>
        <time>2022-05-01T12:25:25.898Z</time>
      </trkpt>
      <trkpt lat="45.78839" lon="5.86087">
        <ele>262</ele>
        <time>2022-05-01T12:25:26.898Z</time>
      </trkpt>
      <trkpt lat="45.78831" lon="5.86088">
        <ele>261</ele>
        <time>2022-05-01T12:25:27.897Z</time>
      </trkpt>
      <trkpt lat="45.78823" lon="5.8609">
        <ele>261</ele>
        <time>2022-05-01T12:25:28.897Z</time>
      </trkpt>
      <trkpt lat="45.78816" lon="5.86091">
        <ele>260</ele>
        <time>2022-05-01T12:25:29.898Z</time>
      </trkpt>
      <trkpt lat="45.78806" lon="5.86092">
        <ele>260</ele>
        <time>2022-05-01T12:25:30.897Z</time>
      </trkpt>
      <trkpt lat="45.788" lon="5.86093">
        <ele>259</ele>
        <time>2022-05-01T12:25:31.897Z</time>
      </trkpt>
      <trkpt lat="45.78792" lon="5.86094">
        <ele>259</ele>
        <time>2022-05-01T12:25:32.898Z</time>
      </trkpt>
      <trkpt lat="45.78784" lon="5.86095">
        <ele>259</ele>
        <time>2022-05-01T12:25:33.897Z</time>
      </trkpt>
      <trkpt lat="45.78777" lon="5.86096">
        <ele>259</ele>
        <time>2022-05-01T12:25:34.897Z</time>
      </trkpt>
      <trkpt lat="45.78769" lon="5.86099">
        <ele>258</ele>
        <time>2022-05-01T12:25:35.897Z</time>
      </trkpt>
      <trkpt lat="45.78761" lon="5.861">
        <ele>258</ele>
        <time>2022-05-01T12:25:36.898Z</time>
      </trkpt>
      <trkpt lat="45.78752" lon="5.86101">
        <ele>258</ele>
        <time>2022-05-01T12:25:37.898Z</time>
      </trkpt>
      <trkpt lat="45.78743" lon="5.86102">
        <ele>258</ele>
        <time>2022-05-01T12:25:38.898Z</time>
      </trkpt>
      <trkpt lat="45.78735" lon="5.86103">
        <ele>258</ele>
        <time>2022-05-01T12:25:39.898Z</time>
      </trkpt>
      <trkpt lat="45.78727" lon="5.86104">
        <ele>257</ele>
        <time>2022-05-01T12:25:40.898Z</time>
      </trkpt>
      <trkpt lat="45.78719" lon="5.86106">
        <ele>257</ele>
        <time>2022-05-01T12:25:41.898Z</time>
      </trkpt>
      <trkpt lat="45.78711" lon="5.86108">
        <ele>257</ele>
        <time>2022-05-01T12:25:42.898Z</time>
      </trkpt>
      <trkpt lat="45.78703" lon="5.86109">
        <ele>256</ele>
        <time>2022-05-01T12:25:43.897Z</time>
      </trkpt>
      <trkpt lat="45.78694" lon="5.86111">
        <ele>256</ele>
        <time>2022-05-01T12:25:44.898Z</time>
      </trkpt>
      <trkpt lat="45.78686" lon="5.86113">
        <ele>256</ele>
        <time>2022-05-01T12:25:45.898Z</time>
      </trkpt>
      <trkpt lat="45.78678" lon="5.86115">
        <ele>255</ele>
        <time>2022-05-01T12:25:46.898Z</time>
      </trkpt>
      <trkpt lat="45.7867" lon="5.86118">
        <ele>255</ele>
        <time>2022-05-01T12:25:47.898Z</time>
      </trkpt>
      <trkpt lat="45.78662" lon="5.86122">
        <ele>255</ele>
        <time>2022-05-01T12:25:48.898Z</time>
      </trkpt>
      <trkpt lat="45.78654" lon="5.86126">
        <ele>254</ele>
        <time>2022-05-01T12:25:49.898Z</time>
      </trkpt>
      <trkpt lat="45.78645" lon="5.86132">
        <ele>254</ele>
        <time>2022-05-01T12:25:50.898Z</time>
      </trkpt>
      <trkpt lat="45.78637" lon="5.86137">
        <ele>254</ele>
        <time>2022-05-01T12:25:51.897Z</time>
      </trkpt>
      <trkpt lat="45.78628" lon="5.86143">
        <ele>253</ele>
        <time>2022-05-01T12:25:52.897Z</time>
      </trkpt>
      <trkpt lat="45.78621" lon="5.86148">
        <ele>253</ele>
        <time>2022-05-01T12:25:53.898Z</time>
      </trkpt>
      <trkpt lat="45.78613" lon="5.86154">
        <ele>252</ele>
        <time>2022-05-01T12:25:54.898Z</time>
      </trkpt>
      <trkpt lat="45.78604" lon="5.86159">
        <ele>252</ele>
        <time>2022-05-01T12:25:55.897Z</time>
      </trkpt>
      <trkpt lat="45.78596" lon="5.86165">
        <ele>251</ele>
        <time>2022-05-01T12:25:56.898Z</time>
      </trkpt>
      <trkpt lat="45.78588" lon="5.8617">
        <ele>250</ele>
        <time>2022-05-01T12:25:57.898Z</time>
      </trkpt>
      <trkpt lat="45.78579" lon="5.86175">
        <ele>250</ele>
        <time>2022-05-01T12:25:58.898Z</time>
      </trkpt>
      <trkpt lat="45.7857" lon="5.8618">
        <ele>249</ele>
        <time>2022-05-01T12:25:59.898Z</time>
      </trkpt>
      <trkpt lat="45.78561" lon="5.86185">
        <ele>249</ele>
        <time>2022-05-01T12:26:00.897Z</time>
      </trkpt>
      <trkpt lat="45.78552" lon="5.86191">
        <ele>248</ele>
        <time>2022-05-01T12:26:01.898Z</time>
      </trkpt>
      <trkpt lat="45.78543" lon="5.86196">
        <ele>248</ele>
        <time>2022-05-01T12:26:02.898Z</time>
      </trkpt>
      <trkpt lat="45.78532" lon="5.86203">
        <ele>248</ele>
        <time>2022-05-01T12:26:03.898Z</time>
      </trkpt>
      <trkpt lat="45.78524" lon="5.86209">
        <ele>247</ele>
        <time>2022-05-01T12:26:04.898Z</time>
      </trkpt>
      <trkpt lat="45.78515" lon="5.86214">
        <ele>247</ele>
        <time>2022-05-01T12:26:05.898Z</time>
      </trkpt>
      <trkpt lat="45.78506" lon="5.8622">
        <ele>247</ele>
        <time>2022-05-01T12:26:06.898Z</time>
      </trkpt>
      <trkpt lat="45.78498" lon="5.86225">
        <ele>247</ele>
        <time>2022-05-01T12:26:07.898Z</time>
      </trkpt>
      <trkpt lat="45.78489" lon="5.8623">
        <ele>247</ele>
        <time>2022-05-01T12:26:08.897Z</time>
      </trkpt>
      <trkpt lat="45.78481" lon="5.86235">
        <ele>246</ele>
        <time>2022-05-01T12:26:09.898Z</time>
      </trkpt>
      <trkpt lat="45.78472" lon="5.8624">
        <ele>246</ele>
        <time>2022-05-01T12:26:10.898Z</time>
      </trkpt>
      <trkpt lat="45.78465" lon="5.86244">
        <ele>246</ele>
        <time>2022-05-01T12:26:11.897Z</time>
      </trkpt>
      <trkpt lat="45.78456" lon="5.86249">
        <ele>245</ele>
        <time>2022-05-01T12:26:12.898Z</time>
      </trkpt>
      <trkpt lat="45.78448" lon="5.86255">
        <ele>245</ele>
        <time>2022-05-01T12:26:13.897Z</time>
      </trkpt>
      <trkpt lat="45.78439" lon="5.86261">
        <ele>245</ele>
        <time>2022-05-01T12:26:14.898Z</time>
      </trkpt>
      <trkpt lat="45.78431" lon="5.86268">
        <ele>245</ele>
        <time>2022-05-01T12:26:15.898Z</time>
      </trkpt>
      <trkpt lat="45.78423" lon="5.86275">
        <ele>245</ele>
        <time>2022-05-01T12:26:16.897Z</time>
      </trkpt>
      <trkpt lat="45.78415" lon="5.86282">
        <ele>245</ele>
        <time>2022-05-01T12:26:17.897Z</time>
      </trkpt>
      <trkpt lat="45.78406" lon="5.86288">
        <ele>245</ele>
        <time>2022-05-01T12:26:18.898Z</time>
      </trkpt>
      <trkpt lat="45.78397" lon="5.86296">
        <ele>245</ele>
        <time>2022-05-01T12:26:19.898Z</time>
      </trkpt>
      <trkpt lat="45.78387" lon="5.86305">
        <ele>245</ele>
        <time>2022-05-01T12:26:20.898Z</time>
      </trkpt>
      <trkpt lat="45.78378" lon="5.86313">
        <ele>245</ele>
        <time>2022-05-01T12:26:21.897Z</time>
      </trkpt>
      <trkpt lat="45.78369" lon="5.8632">
        <ele>244</ele>
        <time>2022-05-01T12:26:22.897Z</time>
      </trkpt>
      <trkpt lat="45.78361" lon="5.86328">
        <ele>244</ele>
        <time>2022-05-01T12:26:23.898Z</time>
      </trkpt>
      <trkpt lat="45.78352" lon="5.86336">
        <ele>244</ele>
        <time>2022-05-01T12:26:24.898Z</time>
      </trkpt>
      <trkpt lat="45.78343" lon="5.86343">
        <ele>244</ele>
        <time>2022-05-01T12:26:25.898Z</time>
      </trkpt>
      <trkpt lat="45.78336" lon="5.86348">
        <ele>243</ele>
        <time>2022-05-01T12:26:26.898Z</time>
      </trkpt>
      <trkpt lat="45.78325" lon="5.86354">
        <ele>243</ele>
        <time>2022-05-01T12:26:27.898Z</time>
      </trkpt>
      <trkpt lat="45.78315" lon="5.86358">
        <ele>243</ele>
        <time>2022-05-01T12:26:28.898Z</time>
      </trkpt>
      <trkpt lat="45.78305" lon="5.86361">
        <ele>243</ele>
        <time>2022-05-01T12:26:29.898Z</time>
      </trkpt>
      <trkpt lat="45.78295" lon="5.86363">
        <ele>242</ele>
        <time>2022-05-01T12:26:30.898Z</time>
      </trkpt>
      <trkpt lat="45.78285" lon="5.86365">
        <ele>242</ele>
        <time>2022-05-01T12:26:31.898Z</time>
      </trkpt>
      <trkpt lat="45.78276" lon="5.86367">
        <ele>242</ele>
        <time>2022-05-01T12:26:32.897Z</time>
      </trkpt>
      <trkpt lat="45.78266" lon="5.86368">
        <ele>241</ele>
        <time>2022-05-01T12:26:33.898Z</time>
      </trkpt>
      <trkpt lat="45.78256" lon="5.86369">
        <ele>241</ele>
        <time>2022-05-01T12:26:34.898Z</time>
      </trkpt>
      <trkpt lat="45.78247" lon="5.8637">
        <ele>240</ele>
        <time>2022-05-01T12:26:35.898Z</time>
      </trkpt>
      <trkpt lat="45.78237" lon="5.86372">
        <ele>240</ele>
        <time>2022-05-01T12:26:36.898Z</time>
      </trkpt>
      <trkpt lat="45.78229" lon="5.86373">
        <ele>240</ele>
        <time>2022-05-01T12:26:37.898Z</time>
      </trkpt>
      <trkpt lat="45.78219" lon="5.86375">
        <ele>240</ele>
        <time>2022-05-01T12:26:38.898Z</time>
      </trkpt>
      <trkpt lat="45.7821" lon="5.86378">
        <ele>240</ele>
        <time>2022-05-01T12:26:39.898Z</time>
      </trkpt>
      <trkpt lat="45.78202" lon="5.86381">
        <ele>239</ele>
        <time>2022-05-01T12:26:40.898Z</time>
      </trkpt>
      <trkpt lat="45.78194" lon="5.86385">
        <ele>239</ele>
        <time>2022-05-01T12:26:41.897Z</time>
      </trkpt>
      <trkpt lat="45.78186" lon="5.86388">
        <ele>239</ele>
        <time>2022-05-01T12:26:42.898Z</time>
      </trkpt>
      <trkpt lat="45.78178" lon="5.86392">
        <ele>238</ele>
        <time>2022-05-01T12:26:43.897Z</time>
      </trkpt>
      <trkpt lat="45.78172" lon="5.86396">
        <ele>238</ele>
        <time>2022-05-01T12:26:44.898Z</time>
      </trkpt>
      <trkpt lat="45.78162" lon="5.864">
        <ele>237</ele>
        <time>2022-05-01T12:26:45.897Z</time>
      </trkpt>
      <trkpt lat="45.78155" lon="5.86405">
        <ele>237</ele>
        <time>2022-05-01T12:26:46.897Z</time>
      </trkpt>
      <trkpt lat="45.78147" lon="5.86408">
        <ele>236</ele>
        <time>2022-05-01T12:26:47.898Z</time>
      </trkpt>
      <trkpt lat="45.7814" lon="5.86413">
        <ele>236</ele>
        <time>2022-05-01T12:26:48.898Z</time>
      </trkpt>
      <trkpt lat="45.78132" lon="5.86418">
        <ele>235</ele>
        <time>2022-05-01T12:26:49.898Z</time>
      </trkpt>
      <trkpt lat="45.78124" lon="5.86423">
        <ele>235</ele>
        <time>2022-05-01T12:26:50.898Z</time>
      </trkpt>
      <trkpt lat="45.78117" lon="5.86429">
        <ele>234</ele>
        <time>2022-05-01T12:26:51.897Z</time>
      </trkpt>
      <trkpt lat="45.78109" lon="5.86434">
        <ele>234</ele>
        <time>2022-05-01T12:26:52.898Z</time>
      </trkpt>
      <trkpt lat="45.78101" lon="5.8644">
        <ele>234</ele>
        <time>2022-05-01T12:26:53.897Z</time>
      </trkpt>
      <trkpt lat="45.78093" lon="5.86445">
        <ele>233</ele>
        <time>2022-05-01T12:26:54.898Z</time>
      </trkpt>
      <trkpt lat="45.78084" lon="5.86449">
        <ele>233</ele>
        <time>2022-05-01T12:26:55.898Z</time>
      </trkpt>
      <trkpt lat="45.78075" lon="5.86453">
        <ele>233</ele>
        <time>2022-05-01T12:26:56.897Z</time>
      </trkpt>
      <trkpt lat="45.78067" lon="5.86455">
        <ele>233</ele>
        <time>2022-05-01T12:26:57.898Z</time>
      </trkpt>
      <trkpt lat="45.78059" lon="5.86459">
        <ele>233</ele>
        <time>2022-05-01T12:26:58.898Z</time>
      </trkpt>
      <trkpt lat="45.78051" lon="5.86461">
        <ele>232</ele>
        <time>2022-05-01T12:26:59.897Z</time>
      </trkpt>
      <trkpt lat="45.78043" lon="5.86464">
        <ele>232</ele>
        <time>2022-05-01T12:27:00.897Z</time>
      </trkpt>
      <trkpt lat="45.78034" lon="5.86465">
        <ele>231</ele>
        <time>2022-05-01T12:27:01.898Z</time>
      </trkpt>
      <trkpt lat="45.78027" lon="5.86466">
        <ele>231</ele>
        <time>2022-05-01T12:27:02.897Z</time>
      </trkpt>
      <trkpt lat="45.7802" lon="5.86466">
        <ele>231</ele>
        <time>2022-05-01T12:27:03.898Z</time>
      </trkpt>
      <trkpt lat="45.78012" lon="5.86466">
        <ele>231</ele>
        <time>2022-05-01T12:27:04.898Z</time>
      </trkpt>
      <trkpt lat="45.78005" lon="5.86468">
        <ele>232</ele>
        <time>2022-05-01T12:27:05.898Z</time>
      </trkpt>
      <trkpt lat="45.77998" lon="5.86468">
        <ele>233</ele>
        <time>2022-05-01T12:27:06.898Z</time>
      </trkpt>
      <trkpt lat="45.77991" lon="5.86469">
        <ele>233</ele>
        <time>2022-05-01T12:27:07.898Z</time>
      </trkpt>
      <trkpt lat="45.77984" lon="5.8647">
        <ele>234</ele>
        <time>2022-05-01T12:27:08.897Z</time>
      </trkpt>
      <trkpt lat="45.77977" lon="5.86471">
        <ele>234</ele>
        <time>2022-05-01T12:27:09.898Z</time>
      </trkpt>
      <trkpt lat="45.77971" lon="5.86473">
        <ele>234</ele>
        <time>2022-05-01T12:27:10.897Z</time>
      </trkpt>
      <trkpt lat="45.77964" lon="5.86474">
        <ele>235</ele>
        <time>2022-05-01T12:27:11.898Z</time>
      </trkpt>
      <trkpt lat="45.77957" lon="5.86475">
        <ele>235</ele>
        <time>2022-05-01T12:27:12.898Z</time>
      </trkpt>
      <trkpt lat="45.77951" lon="5.86477">
        <ele>235</ele>
        <time>2022-05-01T12:27:13.898Z</time>
      </trkpt>
      <trkpt lat="45.77945" lon="5.86478">
        <ele>235</ele>
        <time>2022-05-01T12:27:14.897Z</time>
      </trkpt>
      <trkpt lat="45.77939" lon="5.86479">
        <ele>235</ele>
        <time>2022-05-01T12:27:15.898Z</time>
      </trkpt>
      <trkpt lat="45.77933" lon="5.86478">
        <ele>234</ele>
        <time>2022-05-01T12:27:16.897Z</time>
      </trkpt>
      <trkpt lat="45.77926" lon="5.86477">
        <ele>234</ele>
        <time>2022-05-01T12:27:17.898Z</time>
      </trkpt>
      <trkpt lat="45.77921" lon="5.86475">
        <ele>234</ele>
        <time>2022-05-01T12:27:18.898Z</time>
      </trkpt>
      <trkpt lat="45.77915" lon="5.86472">
        <ele>235</ele>
        <time>2022-05-01T12:27:19.898Z</time>
      </trkpt>
      <trkpt lat="45.7791" lon="5.86469">
        <ele>235</ele>
        <time>2022-05-01T12:27:20.898Z</time>
      </trkpt>
      <trkpt lat="45.77905" lon="5.86467">
        <ele>236</ele>
        <time>2022-05-01T12:27:21.897Z</time>
      </trkpt>
      <trkpt lat="45.779" lon="5.86465">
        <ele>236</ele>
        <time>2022-05-01T12:27:22.898Z</time>
      </trkpt>
      <trkpt lat="45.77894" lon="5.86464">
        <ele>236</ele>
        <time>2022-05-01T12:27:23.898Z</time>
      </trkpt>
      <trkpt lat="45.77889" lon="5.86464">
        <ele>237</ele>
        <time>2022-05-01T12:27:24.898Z</time>
      </trkpt>
      <trkpt lat="45.77884" lon="5.86464">
        <ele>237</ele>
        <time>2022-05-01T12:27:25.898Z</time>
      </trkpt>
      <trkpt lat="45.77878" lon="5.86465">
        <ele>237</ele>
        <time>2022-05-01T12:27:26.898Z</time>
      </trkpt>
      <trkpt lat="45.77873" lon="5.86466">
        <ele>237</ele>
        <time>2022-05-01T12:27:27.897Z</time>
      </trkpt>
      <trkpt lat="45.77868" lon="5.86468">
        <ele>237</ele>
        <time>2022-05-01T12:27:28.898Z</time>
      </trkpt>
      <trkpt lat="45.77862" lon="5.8647">
        <ele>237</ele>
        <time>2022-05-01T12:27:29.898Z</time>
      </trkpt>
      <trkpt lat="45.77857" lon="5.86473">
        <ele>236</ele>
        <time>2022-05-01T12:27:30.897Z</time>
      </trkpt>
      <trkpt lat="45.77852" lon="5.86475">
        <ele>236</ele>
        <time>2022-05-01T12:27:31.897Z</time>
      </trkpt>
      <trkpt lat="45.77847" lon="5.86478">
        <ele>235</ele>
        <time>2022-05-01T12:27:32.898Z</time>
      </trkpt>
      <trkpt lat="45.77842" lon="5.8648">
        <ele>235</ele>
        <time>2022-05-01T12:27:33.898Z</time>
      </trkpt>
      <trkpt lat="45.77837" lon="5.86482">
        <ele>235</ele>
        <time>2022-05-01T12:27:34.898Z</time>
      </trkpt>
      <trkpt lat="45.77832" lon="5.86485">
        <ele>234</ele>
        <time>2022-05-01T12:27:35.898Z</time>
      </trkpt>
      <trkpt lat="45.77828" lon="5.86488">
        <ele>233</ele>
        <time>2022-05-01T12:27:36.897Z</time>
      </trkpt>
      <trkpt lat="45.77823" lon="5.86489">
        <ele>233</ele>
        <time>2022-05-01T12:27:37.898Z</time>
      </trkpt>
      <trkpt lat="45.77819" lon="5.86491">
        <ele>232</ele>
        <time>2022-05-01T12:27:38.898Z</time>
      </trkpt>
      <trkpt lat="45.77814" lon="5.86492">
        <ele>233</ele>
        <time>2022-05-01T12:27:39.898Z</time>
      </trkpt>
      <trkpt lat="45.7781" lon="5.86493">
        <ele>233</ele>
        <time>2022-05-01T12:27:40.898Z</time>
      </trkpt>
      <trkpt lat="45.77805" lon="5.86495">
        <ele>233</ele>
        <time>2022-05-01T12:27:41.897Z</time>
      </trkpt>
      <trkpt lat="45.778" lon="5.86498">
        <ele>233</ele>
        <time>2022-05-01T12:27:42.897Z</time>
      </trkpt>
      <trkpt lat="45.77796" lon="5.865">
        <ele>233</ele>
        <time>2022-05-01T12:27:43.898Z</time>
      </trkpt>
      <trkpt lat="45.77791" lon="5.86502">
        <ele>232</ele>
        <time>2022-05-01T12:27:44.898Z</time>
      </trkpt>
      <trkpt lat="45.77786" lon="5.86504">
        <ele>232</ele>
        <time>2022-05-01T12:27:45.897Z</time>
      </trkpt>
      <trkpt lat="45.77782" lon="5.86506">
        <ele>232</ele>
        <time>2022-05-01T12:27:46.898Z</time>
      </trkpt>
      <trkpt lat="45.77777" lon="5.86508">
        <ele>232</ele>
        <time>2022-05-01T12:27:47.897Z</time>
      </trkpt>
      <trkpt lat="45.77771" lon="5.86511">
        <ele>231</ele>
        <time>2022-05-01T12:27:48.898Z</time>
      </trkpt>
      <trkpt lat="45.77767" lon="5.86514">
        <ele>231</ele>
        <time>2022-05-01T12:27:49.898Z</time>
      </trkpt>
      <trkpt lat="45.77763" lon="5.86517">
        <ele>230</ele>
        <time>2022-05-01T12:27:50.897Z</time>
      </trkpt>
      <trkpt lat="45.77759" lon="5.86519">
        <ele>230</ele>
        <time>2022-05-01T12:27:51.897Z</time>
      </trkpt>
      <trkpt lat="45.77755" lon="5.86522">
        <ele>229</ele>
        <time>2022-05-01T12:27:52.897Z</time>
      </trkpt>
      <trkpt lat="45.7775" lon="5.86525">
        <ele>228</ele>
        <time>2022-05-01T12:27:53.898Z</time>
      </trkpt>
      <trkpt lat="45.77746" lon="5.86527">
        <ele>227</ele>
        <time>2022-05-01T12:27:54.898Z</time>
      </trkpt>
      <trkpt lat="45.77741" lon="5.86529">
        <ele>227</ele>
        <time>2022-05-01T12:27:55.897Z</time>
      </trkpt>
      <trkpt lat="45.77736" lon="5.86531">
        <ele>226</ele>
        <time>2022-05-01T12:27:56.897Z</time>
      </trkpt>
      <trkpt lat="45.77732" lon="5.86533">
        <ele>227</ele>
        <time>2022-05-01T12:27:57.898Z</time>
      </trkpt>
      <trkpt lat="45.77727" lon="5.86535">
        <ele>227</ele>
        <time>2022-05-01T12:27:58.898Z</time>
      </trkpt>
      <trkpt lat="45.77722" lon="5.86537">
        <ele>227</ele>
        <time>2022-05-01T12:27:59.897Z</time>
      </trkpt>
      <trkpt lat="45.77717" lon="5.86539">
        <ele>228</ele>
        <time>2022-05-01T12:28:00.897Z</time>
      </trkpt>
      <trkpt lat="45.77712" lon="5.86541">
        <ele>228</ele>
        <time>2022-05-01T12:28:01.897Z</time>
      </trkpt>
      <trkpt lat="45.77708" lon="5.86543">
        <ele>228</ele>
        <time>2022-05-01T12:28:02.898Z</time>
      </trkpt>
      <trkpt lat="45.77703" lon="5.86545">
        <ele>229</ele>
        <time>2022-05-01T12:28:03.898Z</time>
      </trkpt>
      <trkpt lat="45.77698" lon="5.86547">
        <ele>229</ele>
        <time>2022-05-01T12:28:04.898Z</time>
      </trkpt>
      <trkpt lat="45.77694" lon="5.86549">
        <ele>230</ele>
        <time>2022-05-01T12:28:05.897Z</time>
      </trkpt>
      <trkpt lat="45.77689" lon="5.86552">
        <ele>231</ele>
        <time>2022-05-01T12:28:06.897Z</time>
      </trkpt>
      <trkpt lat="45.77684" lon="5.86554">
        <ele>232</ele>
        <time>2022-05-01T12:28:07.897Z</time>
      </trkpt>
      <trkpt lat="45.77679" lon="5.86556">
        <ele>232</ele>
        <time>2022-05-01T12:28:08.897Z</time>
      </trkpt>
      <trkpt lat="45.77675" lon="5.86558">
        <ele>233</ele>
        <time>2022-05-01T12:28:09.897Z</time>
      </trkpt>
      <trkpt lat="45.7767" lon="5.86561">
        <ele>233</ele>
        <time>2022-05-01T12:28:10.897Z</time>
      </trkpt>
      <trkpt lat="45.77665" lon="5.86563">
        <ele>233</ele>
        <time>2022-05-01T12:28:11.897Z</time>
      </trkpt>
      <trkpt lat="45.77661" lon="5.86566">
        <ele>234</ele>
        <time>2022-05-01T12:28:12.898Z</time>
      </trkpt>
      <trkpt lat="45.77656" lon="5.86568">
        <ele>233</ele>
        <time>2022-05-01T12:28:13.897Z</time>
      </trkpt>
      <trkpt lat="45.77651" lon="5.8657">
        <ele>234</ele>
        <time>2022-05-01T12:28:14.898Z</time>
      </trkpt>
      <trkpt lat="45.77646" lon="5.86573">
        <ele>234</ele>
        <time>2022-05-01T12:28:15.897Z</time>
      </trkpt>
      <trkpt lat="45.77641" lon="5.86575">
        <ele>234</ele>
        <time>2022-05-01T12:28:16.897Z</time>
      </trkpt>
      <trkpt lat="45.77637" lon="5.86578">
        <ele>234</ele>
        <time>2022-05-01T12:28:17.898Z</time>
      </trkpt>
      <trkpt lat="45.77632" lon="5.8658">
        <ele>234</ele>
        <time>2022-05-01T12:28:18.897Z</time>
      </trkpt>
      <trkpt lat="45.77627" lon="5.86583">
        <ele>234</ele>
        <time>2022-05-01T12:28:19.898Z</time>
      </trkpt>
      <trkpt lat="45.77623" lon="5.86585">
        <ele>234</ele>
        <time>2022-05-01T12:28:20.897Z</time>
      </trkpt>
      <trkpt lat="45.77619" lon="5.86587">
        <ele>234</ele>
        <time>2022-05-01T12:28:21.898Z</time>
      </trkpt>
      <trkpt lat="45.77613" lon="5.86591">
        <ele>234</ele>
        <time>2022-05-01T12:28:22.897Z</time>
      </trkpt>
      <trkpt lat="45.77609" lon="5.86594">
        <ele>233</ele>
        <time>2022-05-01T12:28:23.898Z</time>
      </trkpt>
      <trkpt lat="45.77604" lon="5.86596">
        <ele>233</ele>
        <time>2022-05-01T12:28:24.898Z</time>
      </trkpt>
      <trkpt lat="45.776" lon="5.86598">
        <ele>233</ele>
        <time>2022-05-01T12:28:25.897Z</time>
      </trkpt>
      <trkpt lat="45.77595" lon="5.86601">
        <ele>232</ele>
        <time>2022-05-01T12:28:26.898Z</time>
      </trkpt>
      <trkpt lat="45.7759" lon="5.86604">
        <ele>232</ele>
        <time>2022-05-01T12:28:27.897Z</time>
      </trkpt>
      <trkpt lat="45.77586" lon="5.86606">
        <ele>232</ele>
        <time>2022-05-01T12:28:28.897Z</time>
      </trkpt>
      <trkpt lat="45.77581" lon="5.86608">
        <ele>232</ele>
        <time>2022-05-01T12:28:29.897Z</time>
      </trkpt>
      <trkpt lat="45.77576" lon="5.86611">
        <ele>232</ele>
        <time>2022-05-01T12:28:30.898Z</time>
      </trkpt>
      <trkpt lat="45.77571" lon="5.86613">
        <ele>233</ele>
        <time>2022-05-01T12:28:31.898Z</time>
      </trkpt>
      <trkpt lat="45.77566" lon="5.86616">
        <ele>233</ele>
        <time>2022-05-01T12:28:32.898Z</time>
      </trkpt>
      <trkpt lat="45.77561" lon="5.86618">
        <ele>234</ele>
        <time>2022-05-01T12:28:33.898Z</time>
      </trkpt>
      <trkpt lat="45.77556" lon="5.86621">
        <ele>234</ele>
        <time>2022-05-01T12:28:34.898Z</time>
      </trkpt>
      <trkpt lat="45.77551" lon="5.86624">
        <ele>234</ele>
        <time>2022-05-01T12:28:35.898Z</time>
      </trkpt>
      <trkpt lat="45.77547" lon="5.86626">
        <ele>234</ele>
        <time>2022-05-01T12:28:36.898Z</time>
      </trkpt>
      <trkpt lat="45.77542" lon="5.86628">
        <ele>234</ele>
        <time>2022-05-01T12:28:37.898Z</time>
      </trkpt>
      <trkpt lat="45.77536" lon="5.86631">
        <ele>234</ele>
        <time>2022-05-01T12:28:38.897Z</time>
      </trkpt>
      <trkpt lat="45.7753" lon="5.86633">
        <ele>235</ele>
        <time>2022-05-01T12:28:39.897Z</time>
      </trkpt>
      <trkpt lat="45.77525" lon="5.86635">
        <ele>235</ele>
        <time>2022-05-01T12:28:40.897Z</time>
      </trkpt>
      <trkpt lat="45.7752" lon="5.86637">
        <ele>235</ele>
        <time>2022-05-01T12:28:41.898Z</time>
      </trkpt>
      <trkpt lat="45.77515" lon="5.8664">
        <ele>235</ele>
        <time>2022-05-01T12:28:42.898Z</time>
      </trkpt>
      <trkpt lat="45.7751" lon="5.86642">
        <ele>234</ele>
        <time>2022-05-01T12:28:43.897Z</time>
      </trkpt>
      <trkpt lat="45.77506" lon="5.86645">
        <ele>234</ele>
        <time>2022-05-01T12:28:44.898Z</time>
      </trkpt>
      <trkpt lat="45.77501" lon="5.86647">
        <ele>234</ele>
        <time>2022-05-01T12:28:45.898Z</time>
      </trkpt>
      <trkpt lat="45.77496" lon="5.8665">
        <ele>233</ele>
        <time>2022-05-01T12:28:46.897Z</time>
      </trkpt>
      <trkpt lat="45.77491" lon="5.86653">
        <ele>233</ele>
        <time>2022-05-01T12:28:47.898Z</time>
      </trkpt>
      <trkpt lat="45.77486" lon="5.86655">
        <ele>233</ele>
        <time>2022-05-01T12:28:48.898Z</time>
      </trkpt>
      <trkpt lat="45.77482" lon="5.86658">
        <ele>233</ele>
        <time>2022-05-01T12:28:49.898Z</time>
      </trkpt>
      <trkpt lat="45.77477" lon="5.8666">
        <ele>233</ele>
        <time>2022-05-01T12:28:50.898Z</time>
      </trkpt>
      <trkpt lat="45.77472" lon="5.86663">
        <ele>233</ele>
        <time>2022-05-01T12:28:51.897Z</time>
      </trkpt>
      <trkpt lat="45.77467" lon="5.86666">
        <ele>233</ele>
        <time>2022-05-01T12:28:52.897Z</time>
      </trkpt>
      <trkpt lat="45.77462" lon="5.86669">
        <ele>233</ele>
        <time>2022-05-01T12:28:53.898Z</time>
      </trkpt>
      <trkpt lat="45.77458" lon="5.86672">
        <ele>233</ele>
        <time>2022-05-01T12:28:54.898Z</time>
      </trkpt>
      <trkpt lat="45.77453" lon="5.86675">
        <ele>233</ele>
        <time>2022-05-01T12:28:55.898Z</time>
      </trkpt>
      <trkpt lat="45.77448" lon="5.86678">
        <ele>233</ele>
        <time>2022-05-01T12:28:56.898Z</time>
      </trkpt>
      <trkpt lat="45.77443" lon="5.86681">
        <ele>233</ele>
        <time>2022-05-01T12:28:57.898Z</time>
      </trkpt>
      <trkpt lat="45.77438" lon="5.86684">
        <ele>234</ele>
        <time>2022-05-01T12:28:58.898Z</time>
      </trkpt>
      <trkpt lat="45.77434" lon="5.86688">
        <ele>234</ele>
        <time>2022-05-01T12:28:59.898Z</time>
      </trkpt>
      <trkpt lat="45.77429" lon="5.86691">
        <ele>234</ele>
        <time>2022-05-01T12:29:00.898Z</time>
      </trkpt>
      <trkpt lat="45.77424" lon="5.86694">
        <ele>234</ele>
        <time>2022-05-01T12:29:01.898Z</time>
      </trkpt>
      <trkpt lat="45.7742" lon="5.86697">
        <ele>234</ele>
        <time>2022-05-01T12:29:02.897Z</time>
      </trkpt>
      <trkpt lat="45.77415" lon="5.86701">
        <ele>233</ele>
        <time>2022-05-01T12:29:03.898Z</time>
      </trkpt>
      <trkpt lat="45.7741" lon="5.86704">
        <ele>233</ele>
        <time>2022-05-01T12:29:04.898Z</time>
      </trkpt>
      <trkpt lat="45.77406" lon="5.86707">
        <ele>233</ele>
        <time>2022-05-01T12:29:05.897Z</time>
      </trkpt>
      <trkpt lat="45.77401" lon="5.86709">
        <ele>234</ele>
        <time>2022-05-01T12:29:06.897Z</time>
      </trkpt>
      <trkpt lat="45.77397" lon="5.86713">
        <ele>234</ele>
        <time>2022-05-01T12:29:07.898Z</time>
      </trkpt>
      <trkpt lat="45.77393" lon="5.86716">
        <ele>233</ele>
        <time>2022-05-01T12:29:08.897Z</time>
      </trkpt>
      <trkpt lat="45.77388" lon="5.86719">
        <ele>233</ele>
        <time>2022-05-01T12:29:09.897Z</time>
      </trkpt>
      <trkpt lat="45.77384" lon="5.86722">
        <ele>233</ele>
        <time>2022-05-01T12:29:10.898Z</time>
      </trkpt>
      <trkpt lat="45.77379" lon="5.86725">
        <ele>233</ele>
        <time>2022-05-01T12:29:11.898Z</time>
      </trkpt>
      <trkpt lat="45.77375" lon="5.86729">
        <ele>233</ele>
        <time>2022-05-01T12:29:12.898Z</time>
      </trkpt>
      <trkpt lat="45.77371" lon="5.86731">
        <ele>233</ele>
        <time>2022-05-01T12:29:13.898Z</time>
      </trkpt>
      <trkpt lat="45.77367" lon="5.86734">
        <ele>232</ele>
        <time>2022-05-01T12:29:14.898Z</time>
      </trkpt>
      <trkpt lat="45.77363" lon="5.86736">
        <ele>232</ele>
        <time>2022-05-01T12:29:15.897Z</time>
      </trkpt>
      <trkpt lat="45.77358" lon="5.86738">
        <ele>232</ele>
        <time>2022-05-01T12:29:16.897Z</time>
      </trkpt>
      <trkpt lat="45.77354" lon="5.8674">
        <ele>232</ele>
        <time>2022-05-01T12:29:17.897Z</time>
      </trkpt>
      <trkpt lat="45.77349" lon="5.86742">
        <ele>232</ele>
        <time>2022-05-01T12:29:18.897Z</time>
      </trkpt>
      <trkpt lat="45.77345" lon="5.86744">
        <ele>232</ele>
        <time>2022-05-01T12:29:19.897Z</time>
      </trkpt>
      <trkpt lat="45.7734" lon="5.86746">
        <ele>232</ele>
        <time>2022-05-01T12:29:20.898Z</time>
      </trkpt>
      <trkpt lat="45.77336" lon="5.86748">
        <ele>233</ele>
        <time>2022-05-01T12:29:21.897Z</time>
      </trkpt>
      <trkpt lat="45.77332" lon="5.8675">
        <ele>233</ele>
        <time>2022-05-01T12:29:22.898Z</time>
      </trkpt>
      <trkpt lat="45.77328" lon="5.86752">
        <ele>233</ele>
        <time>2022-05-01T12:29:23.898Z</time>
      </trkpt>
      <trkpt lat="45.77323" lon="5.86753">
        <ele>233</ele>
        <time>2022-05-01T12:29:24.898Z</time>
      </trkpt>
      <trkpt lat="45.77318" lon="5.86755">
        <ele>233</ele>
        <time>2022-05-01T12:29:25.898Z</time>
      </trkpt>
      <trkpt lat="45.77312" lon="5.86757">
        <ele>232</ele>
        <time>2022-05-01T12:29:26.897Z</time>
      </trkpt>
      <trkpt lat="45.77307" lon="5.86759">
        <ele>232</ele>
        <time>2022-05-01T12:29:27.898Z</time>
      </trkpt>
      <trkpt lat="45.773" lon="5.86761">
        <ele>231</ele>
        <time>2022-05-01T12:29:28.898Z</time>
      </trkpt>
      <trkpt lat="45.77295" lon="5.86764">
        <ele>231</ele>
        <time>2022-05-01T12:29:29.898Z</time>
      </trkpt>
      <trkpt lat="45.7729" lon="5.86766">
        <ele>230</ele>
        <time>2022-05-01T12:29:30.897Z</time>
      </trkpt>
      <trkpt lat="45.77285" lon="5.86768">
        <ele>229</ele>
        <time>2022-05-01T12:29:31.898Z</time>
      </trkpt>
      <trkpt lat="45.77279" lon="5.86771">
        <ele>229</ele>
        <time>2022-05-01T12:29:32.897Z</time>
      </trkpt>
      <trkpt lat="45.77274" lon="5.86773">
        <ele>228</ele>
        <time>2022-05-01T12:29:33.898Z</time>
      </trkpt>
      <trkpt lat="45.77269" lon="5.86774">
        <ele>228</ele>
        <time>2022-05-01T12:29:34.898Z</time>
      </trkpt>
      <trkpt lat="45.77264" lon="5.86775">
        <ele>228</ele>
        <time>2022-05-01T12:29:35.898Z</time>
      </trkpt>
      <trkpt lat="45.77259" lon="5.86777">
        <ele>229</ele>
        <time>2022-05-01T12:29:36.898Z</time>
      </trkpt>
      <trkpt lat="45.77255" lon="5.86778">
        <ele>229</ele>
        <time>2022-05-01T12:29:37.898Z</time>
      </trkpt>
      <trkpt lat="45.77249" lon="5.86779">
        <ele>230</ele>
        <time>2022-05-01T12:29:38.898Z</time>
      </trkpt>
      <trkpt lat="45.77244" lon="5.86781">
        <ele>231</ele>
        <time>2022-05-01T12:29:39.897Z</time>
      </trkpt>
      <trkpt lat="45.7724" lon="5.86782">
        <ele>231</ele>
        <time>2022-05-01T12:29:40.897Z</time>
      </trkpt>
      <trkpt lat="45.77235" lon="5.86784">
        <ele>231</ele>
        <time>2022-05-01T12:29:41.897Z</time>
      </trkpt>
      <trkpt lat="45.7723" lon="5.86786">
        <ele>232</ele>
        <time>2022-05-01T12:29:42.898Z</time>
      </trkpt>
      <trkpt lat="45.77225" lon="5.86788">
        <ele>232</ele>
        <time>2022-05-01T12:29:43.898Z</time>
      </trkpt>
      <trkpt lat="45.77221" lon="5.8679">
        <ele>231</ele>
        <time>2022-05-01T12:29:44.898Z</time>
      </trkpt>
      <trkpt lat="45.77215" lon="5.86792">
        <ele>231</ele>
        <time>2022-05-01T12:29:45.897Z</time>
      </trkpt>
      <trkpt lat="45.7721" lon="5.86794">
        <ele>231</ele>
        <time>2022-05-01T12:29:46.898Z</time>
      </trkpt>
      <trkpt lat="45.77206" lon="5.86796">
        <ele>231</ele>
        <time>2022-05-01T12:29:47.898Z</time>
      </trkpt>
      <trkpt lat="45.77201" lon="5.86799">
        <ele>231</ele>
        <time>2022-05-01T12:29:48.897Z</time>
      </trkpt>
      <trkpt lat="45.77196" lon="5.86801">
        <ele>231</ele>
        <time>2022-05-01T12:29:49.898Z</time>
      </trkpt>
      <trkpt lat="45.77192" lon="5.86803">
        <ele>231</ele>
        <time>2022-05-01T12:29:50.898Z</time>
      </trkpt>
      <trkpt lat="45.77187" lon="5.86806">
        <ele>231</ele>
        <time>2022-05-01T12:29:51.898Z</time>
      </trkpt>
      <trkpt lat="45.77183" lon="5.86808">
        <ele>231</ele>
        <time>2022-05-01T12:29:52.898Z</time>
      </trkpt>
      <trkpt lat="45.77178" lon="5.86811">
        <ele>231</ele>
        <time>2022-05-01T12:29:53.898Z</time>
      </trkpt>
      <trkpt lat="45.77174" lon="5.86814">
        <ele>231</ele>
        <time>2022-05-01T12:29:54.898Z</time>
      </trkpt>
      <trkpt lat="45.77169" lon="5.86816">
        <ele>231</ele>
        <time>2022-05-01T12:29:55.898Z</time>
      </trkpt>
      <trkpt lat="45.77165" lon="5.86819">
        <ele>231</ele>
        <time>2022-05-01T12:29:56.898Z</time>
      </trkpt>
      <trkpt lat="45.7716" lon="5.86822">
        <ele>231</ele>
        <time>2022-05-01T12:29:57.898Z</time>
      </trkpt>
      <trkpt lat="45.77155" lon="5.86824">
        <ele>232</ele>
        <time>2022-05-01T12:29:58.898Z</time>
      </trkpt>
      <trkpt lat="45.77151" lon="5.86827">
        <ele>232</ele>
        <time>2022-05-01T12:29:59.897Z</time>
      </trkpt>
      <trkpt lat="45.77146" lon="5.8683">
        <ele>232</ele>
        <time>2022-05-01T12:30:00.897Z</time>
      </trkpt>
      <trkpt lat="45.77141" lon="5.86832">
        <ele>232</ele>
        <time>2022-05-01T12:30:01.897Z</time>
      </trkpt>
      <trkpt lat="45.77136" lon="5.86834">
        <ele>232</ele>
        <time>2022-05-01T12:30:02.898Z</time>
      </trkpt>
      <trkpt lat="45.7713" lon="5.86837">
        <ele>232</ele>
        <time>2022-05-01T12:30:03.898Z</time>
      </trkpt>
      <trkpt lat="45.77125" lon="5.86839">
        <ele>233</ele>
        <time>2022-05-01T12:30:04.897Z</time>
      </trkpt>
      <trkpt lat="45.7712" lon="5.86842">
        <ele>233</ele>
        <time>2022-05-01T12:30:05.897Z</time>
      </trkpt>
      <trkpt lat="45.77114" lon="5.86844">
        <ele>234</ele>
        <time>2022-05-01T12:30:06.898Z</time>
      </trkpt>
      <trkpt lat="45.77109" lon="5.86847">
        <ele>234</ele>
        <time>2022-05-01T12:30:07.897Z</time>
      </trkpt>
      <trkpt lat="45.77104" lon="5.8685">
        <ele>234</ele>
        <time>2022-05-01T12:30:08.898Z</time>
      </trkpt>
      <trkpt lat="45.77099" lon="5.86853">
        <ele>234</ele>
        <time>2022-05-01T12:30:09.898Z</time>
      </trkpt>
      <trkpt lat="45.77094" lon="5.86856">
        <ele>234</ele>
        <time>2022-05-01T12:30:10.898Z</time>
      </trkpt>
      <trkpt lat="45.7709" lon="5.86859">
        <ele>234</ele>
        <time>2022-05-01T12:30:11.898Z</time>
      </trkpt>
      <trkpt lat="45.77085" lon="5.86863">
        <ele>234</ele>
        <time>2022-05-01T12:30:12.898Z</time>
      </trkpt>
      <trkpt lat="45.7708" lon="5.86866">
        <ele>234</ele>
        <time>2022-05-01T12:30:13.898Z</time>
      </trkpt>
      <trkpt lat="45.77076" lon="5.8687">
        <ele>234</ele>
        <time>2022-05-01T12:30:14.897Z</time>
      </trkpt>
      <trkpt lat="45.77071" lon="5.86874">
        <ele>234</ele>
        <time>2022-05-01T12:30:15.898Z</time>
      </trkpt>
      <trkpt lat="45.77066" lon="5.86878">
        <ele>234</ele>
        <time>2022-05-01T12:30:16.898Z</time>
      </trkpt>
      <trkpt lat="45.77061" lon="5.86882">
        <ele>234</ele>
        <time>2022-05-01T12:30:17.897Z</time>
      </trkpt>
      <trkpt lat="45.77056" lon="5.86885">
        <ele>234</ele>
        <time>2022-05-01T12:30:18.898Z</time>
      </trkpt>
      <trkpt lat="45.77051" lon="5.86888">
        <ele>234</ele>
        <time>2022-05-01T12:30:19.898Z</time>
      </trkpt>
      <trkpt lat="45.77046" lon="5.8689">
        <ele>234</ele>
        <time>2022-05-01T12:30:20.897Z</time>
      </trkpt>
      <trkpt lat="45.76992" lon="5.86916">
        <ele>234</ele>
        <time>2022-05-01T12:30:31.897Z</time>
      </trkpt>
      <trkpt lat="45.76987" lon="5.86918">
        <ele>234</ele>
        <time>2022-05-01T12:30:32.898Z</time>
      </trkpt>
      <trkpt lat="45.7698" lon="5.86922">
        <ele>234</ele>
        <time>2022-05-01T12:30:33.898Z</time>
      </trkpt>
      <trkpt lat="45.76975" lon="5.86925">
        <ele>234</ele>
        <time>2022-05-01T12:30:34.898Z</time>
      </trkpt>
      <trkpt lat="45.7697" lon="5.86927">
        <ele>234</ele>
        <time>2022-05-01T12:30:35.898Z</time>
      </trkpt>
      <trkpt lat="45.76964" lon="5.8693">
        <ele>234</ele>
        <time>2022-05-01T12:30:36.897Z</time>
      </trkpt>
      <trkpt lat="45.76957" lon="5.86934">
        <ele>233</ele>
        <time>2022-05-01T12:30:37.898Z</time>
      </trkpt>
      <trkpt lat="45.76951" lon="5.86936">
        <ele>233</ele>
        <time>2022-05-01T12:30:38.898Z</time>
      </trkpt>
      <trkpt lat="45.76946" lon="5.86937">
        <ele>233</ele>
        <time>2022-05-01T12:30:39.898Z</time>
      </trkpt>
      <trkpt lat="45.7694" lon="5.86939">
        <ele>233</ele>
        <time>2022-05-01T12:30:40.897Z</time>
      </trkpt>
      <trkpt lat="45.76934" lon="5.86941">
        <ele>233</ele>
        <time>2022-05-01T12:30:41.897Z</time>
      </trkpt>
      <trkpt lat="45.76929" lon="5.86944">
        <ele>233</ele>
        <time>2022-05-01T12:30:42.898Z</time>
      </trkpt>
      <trkpt lat="45.76924" lon="5.86946">
        <ele>234</ele>
        <time>2022-05-01T12:30:43.898Z</time>
      </trkpt>
      <trkpt lat="45.76919" lon="5.86948">
        <ele>233</ele>
        <time>2022-05-01T12:30:44.898Z</time>
      </trkpt>
      <trkpt lat="45.76914" lon="5.8695">
        <ele>233</ele>
        <time>2022-05-01T12:30:45.898Z</time>
      </trkpt>
      <trkpt lat="45.7691" lon="5.86953">
        <ele>233</ele>
        <time>2022-05-01T12:30:46.897Z</time>
      </trkpt>
      <trkpt lat="45.76905" lon="5.86955">
        <ele>233</ele>
        <time>2022-05-01T12:30:47.898Z</time>
      </trkpt>
      <trkpt lat="45.76901" lon="5.86957">
        <ele>233</ele>
        <time>2022-05-01T12:30:48.898Z</time>
      </trkpt>
      <trkpt lat="45.76896" lon="5.8696">
        <ele>232</ele>
        <time>2022-05-01T12:30:49.898Z</time>
      </trkpt>
      <trkpt lat="45.76892" lon="5.86962">
        <ele>232</ele>
        <time>2022-05-01T12:30:50.897Z</time>
      </trkpt>
      <trkpt lat="45.76887" lon="5.86964">
        <ele>232</ele>
        <time>2022-05-01T12:30:51.898Z</time>
      </trkpt>
      <trkpt lat="45.76883" lon="5.86966">
        <ele>232</ele>
        <time>2022-05-01T12:30:52.898Z</time>
      </trkpt>
      <trkpt lat="45.76878" lon="5.86969">
        <ele>231</ele>
        <time>2022-05-01T12:30:53.898Z</time>
      </trkpt>
      <trkpt lat="45.76874" lon="5.8697">
        <ele>231</ele>
        <time>2022-05-01T12:30:54.897Z</time>
      </trkpt>
      <trkpt lat="45.76869" lon="5.86972">
        <ele>232</ele>
        <time>2022-05-01T12:30:55.898Z</time>
      </trkpt>
      <trkpt lat="45.76864" lon="5.86974">
        <ele>232</ele>
        <time>2022-05-01T12:30:56.898Z</time>
      </trkpt>
      <trkpt lat="45.7686" lon="5.86977">
        <ele>232</ele>
        <time>2022-05-01T12:30:57.898Z</time>
      </trkpt>
      <trkpt lat="45.76855" lon="5.86979">
        <ele>232</ele>
        <time>2022-05-01T12:30:58.898Z</time>
      </trkpt>
      <trkpt lat="45.7685" lon="5.86982">
        <ele>232</ele>
        <time>2022-05-01T12:30:59.898Z</time>
      </trkpt>
      <trkpt lat="45.76846" lon="5.86985">
        <ele>232</ele>
        <time>2022-05-01T12:31:00.898Z</time>
      </trkpt>
      <trkpt lat="45.76841" lon="5.86987">
        <ele>232</ele>
        <time>2022-05-01T12:31:01.898Z</time>
      </trkpt>
      <trkpt lat="45.76836" lon="5.86989">
        <ele>232</ele>
        <time>2022-05-01T12:31:02.897Z</time>
      </trkpt>
      <trkpt lat="45.76831" lon="5.86991">
        <ele>233</ele>
        <time>2022-05-01T12:31:03.898Z</time>
      </trkpt>
      <trkpt lat="45.76827" lon="5.86994">
        <ele>233</ele>
        <time>2022-05-01T12:31:04.898Z</time>
      </trkpt>
      <trkpt lat="45.76823" lon="5.86997">
        <ele>233</ele>
        <time>2022-05-01T12:31:05.897Z</time>
      </trkpt>
      <trkpt lat="45.76818" lon="5.87">
        <ele>233</ele>
        <time>2022-05-01T12:31:06.897Z</time>
      </trkpt>
      <trkpt lat="45.76814" lon="5.87001">
        <ele>234</ele>
        <time>2022-05-01T12:31:07.898Z</time>
      </trkpt>
      <trkpt lat="45.7681" lon="5.87002">
        <ele>234</ele>
        <time>2022-05-01T12:31:08.898Z</time>
      </trkpt>
      <trkpt lat="45.76806" lon="5.87003">
        <ele>234</ele>
        <time>2022-05-01T12:31:09.898Z</time>
      </trkpt>
      <trkpt lat="45.76802" lon="5.87005">
        <ele>233</ele>
        <time>2022-05-01T12:31:10.897Z</time>
      </trkpt>
      <trkpt lat="45.76798" lon="5.87007">
        <ele>233</ele>
        <time>2022-05-01T12:31:11.898Z</time>
      </trkpt>
      <trkpt lat="45.76793" lon="5.87009">
        <ele>232</ele>
        <time>2022-05-01T12:31:12.897Z</time>
      </trkpt>
      <trkpt lat="45.76789" lon="5.8701">
        <ele>231</ele>
        <time>2022-05-01T12:31:13.898Z</time>
      </trkpt>
      <trkpt lat="45.76785" lon="5.87012">
        <ele>231</ele>
        <time>2022-05-01T12:31:14.898Z</time>
      </trkpt>
      <trkpt lat="45.7678" lon="5.87014">
        <ele>231</ele>
        <time>2022-05-01T12:31:15.898Z</time>
      </trkpt>
      <trkpt lat="45.76776" lon="5.87014">
        <ele>232</ele>
        <time>2022-05-01T12:31:16.898Z</time>
      </trkpt>
      <trkpt lat="45.76771" lon="5.87016">
        <ele>233</ele>
        <time>2022-05-01T12:31:17.898Z</time>
      </trkpt>
      <trkpt lat="45.76767" lon="5.87017">
        <ele>233</ele>
        <time>2022-05-01T12:31:18.898Z</time>
      </trkpt>
      <trkpt lat="45.76762" lon="5.87018">
        <ele>233</ele>
        <time>2022-05-01T12:31:19.897Z</time>
      </trkpt>
      <trkpt lat="45.76758" lon="5.8702">
        <ele>233</ele>
        <time>2022-05-01T12:31:20.897Z</time>
      </trkpt>
      <trkpt lat="45.76754" lon="5.87021">
        <ele>234</ele>
        <time>2022-05-01T12:31:21.898Z</time>
      </trkpt>
      <trkpt lat="45.76749" lon="5.87023">
        <ele>234</ele>
        <time>2022-05-01T12:31:22.897Z</time>
      </trkpt>
      <trkpt lat="45.76744" lon="5.87024">
        <ele>234</ele>
        <time>2022-05-01T12:31:23.897Z</time>
      </trkpt>
      <trkpt lat="45.76739" lon="5.87026">
        <ele>234</ele>
        <time>2022-05-01T12:31:24.898Z</time>
      </trkpt>
      <trkpt lat="45.76734" lon="5.87027">
        <ele>234</ele>
        <time>2022-05-01T12:31:25.898Z</time>
      </trkpt>
      <trkpt lat="45.76729" lon="5.87028">
        <ele>234</ele>
        <time>2022-05-01T12:31:26.897Z</time>
      </trkpt>
      <trkpt lat="45.76724" lon="5.8703">
        <ele>234</ele>
        <time>2022-05-01T12:31:27.897Z</time>
      </trkpt>
      <trkpt lat="45.76718" lon="5.87031">
        <ele>233</ele>
        <time>2022-05-01T12:31:28.898Z</time>
      </trkpt>
      <trkpt lat="45.76714" lon="5.87032">
        <ele>233</ele>
        <time>2022-05-01T12:31:29.898Z</time>
      </trkpt>
      <trkpt lat="45.76709" lon="5.87034">
        <ele>232</ele>
        <time>2022-05-01T12:31:30.897Z</time>
      </trkpt>
      <trkpt lat="45.76704" lon="5.87035">
        <ele>232</ele>
        <time>2022-05-01T12:31:31.898Z</time>
      </trkpt>
      <trkpt lat="45.76699" lon="5.87036">
        <ele>231</ele>
        <time>2022-05-01T12:31:32.898Z</time>
      </trkpt>
      <trkpt lat="45.76694" lon="5.87037">
        <ele>230</ele>
        <time>2022-05-01T12:31:33.898Z</time>
      </trkpt>
      <trkpt lat="45.76689" lon="5.87038">
        <ele>230</ele>
        <time>2022-05-01T12:31:34.898Z</time>
      </trkpt>
      <trkpt lat="45.76683" lon="5.87039">
        <ele>230</ele>
        <time>2022-05-01T12:31:35.897Z</time>
      </trkpt>
      <trkpt lat="45.76678" lon="5.8704">
        <ele>229</ele>
        <time>2022-05-01T12:31:36.897Z</time>
      </trkpt>
      <trkpt lat="45.76674" lon="5.8704">
        <ele>229</ele>
        <time>2022-05-01T12:31:37.898Z</time>
      </trkpt>
      <trkpt lat="45.76669" lon="5.87041">
        <ele>229</ele>
        <time>2022-05-01T12:31:38.898Z</time>
      </trkpt>
      <trkpt lat="45.76664" lon="5.87042">
        <ele>229</ele>
        <time>2022-05-01T12:31:39.898Z</time>
      </trkpt>
      <trkpt lat="45.76659" lon="5.87042">
        <ele>229</ele>
        <time>2022-05-01T12:31:40.897Z</time>
      </trkpt>
      <trkpt lat="45.76654" lon="5.87042">
        <ele>230</ele>
        <time>2022-05-01T12:31:41.898Z</time>
      </trkpt>
      <trkpt lat="45.76649" lon="5.87043">
        <ele>230</ele>
        <time>2022-05-01T12:31:42.898Z</time>
      </trkpt>
      <trkpt lat="45.76644" lon="5.87043">
        <ele>230</ele>
        <time>2022-05-01T12:31:43.897Z</time>
      </trkpt>
      <trkpt lat="45.76639" lon="5.87043">
        <ele>230</ele>
        <time>2022-05-01T12:31:44.898Z</time>
      </trkpt>
      <trkpt lat="45.76634" lon="5.87043">
        <ele>231</ele>
        <time>2022-05-01T12:31:45.898Z</time>
      </trkpt>
      <trkpt lat="45.76629" lon="5.87044">
        <ele>232</ele>
        <time>2022-05-01T12:31:46.898Z</time>
      </trkpt>
      <trkpt lat="45.76624" lon="5.87044">
        <ele>233</ele>
        <time>2022-05-01T12:31:47.898Z</time>
      </trkpt>
      <trkpt lat="45.76619" lon="5.87044">
        <ele>232</ele>
        <time>2022-05-01T12:31:48.897Z</time>
      </trkpt>
      <trkpt lat="45.76615" lon="5.87045">
        <ele>232</ele>
        <time>2022-05-01T12:31:49.898Z</time>
      </trkpt>
      <trkpt lat="45.7661" lon="5.87045">
        <ele>232</ele>
        <time>2022-05-01T12:31:50.897Z</time>
      </trkpt>
      <trkpt lat="45.76605" lon="5.87045">
        <ele>231</ele>
        <time>2022-05-01T12:31:51.898Z</time>
      </trkpt>
      <trkpt lat="45.766" lon="5.87045">
        <ele>231</ele>
        <time>2022-05-01T12:31:52.897Z</time>
      </trkpt>
      <trkpt lat="45.76595" lon="5.87045">
        <ele>231</ele>
        <time>2022-05-01T12:31:53.898Z</time>
      </trkpt>
      <trkpt lat="45.7659" lon="5.87045">
        <ele>231</ele>
        <time>2022-05-01T12:31:54.898Z</time>
      </trkpt>
      <trkpt lat="45.76586" lon="5.87044">
        <ele>231</ele>
        <time>2022-05-01T12:31:55.898Z</time>
      </trkpt>
      <trkpt lat="45.7658" lon="5.87044">
        <ele>231</ele>
        <time>2022-05-01T12:31:56.897Z</time>
      </trkpt>
      <trkpt lat="45.76575" lon="5.87044">
        <ele>231</ele>
        <time>2022-05-01T12:31:57.898Z</time>
      </trkpt>
      <trkpt lat="45.76571" lon="5.87044">
        <ele>231</ele>
        <time>2022-05-01T12:31:58.898Z</time>
      </trkpt>
      <trkpt lat="45.76566" lon="5.87044">
        <ele>231</ele>
        <time>2022-05-01T12:31:59.897Z</time>
      </trkpt>
      <trkpt lat="45.76561" lon="5.87043">
        <ele>231</ele>
        <time>2022-05-01T12:32:00.897Z</time>
      </trkpt>
      <trkpt lat="45.76556" lon="5.87043">
        <ele>231</ele>
        <time>2022-05-01T12:32:01.898Z</time>
      </trkpt>
      <trkpt lat="45.76551" lon="5.87042">
        <ele>231</ele>
        <time>2022-05-01T12:32:02.898Z</time>
      </trkpt>
      <trkpt lat="45.76546" lon="5.87042">
        <ele>231</ele>
        <time>2022-05-01T12:32:03.898Z</time>
      </trkpt>
      <trkpt lat="45.76541" lon="5.87042">
        <ele>231</ele>
        <time>2022-05-01T12:32:04.898Z</time>
      </trkpt>
      <trkpt lat="45.76537" lon="5.87042">
        <ele>231</ele>
        <time>2022-05-01T12:32:05.898Z</time>
      </trkpt>
      <trkpt lat="45.76532" lon="5.87041">
        <ele>230</ele>
        <time>2022-05-01T12:32:06.898Z</time>
      </trkpt>
      <trkpt lat="45.76527" lon="5.87041">
        <ele>230</ele>
        <time>2022-05-01T12:32:07.898Z</time>
      </trkpt>
      <trkpt lat="45.76522" lon="5.87041">
        <ele>230</ele>
        <time>2022-05-01T12:32:08.897Z</time>
      </trkpt>
      <trkpt lat="45.76518" lon="5.8704">
        <ele>230</ele>
        <time>2022-05-01T12:32:09.897Z</time>
      </trkpt>
      <trkpt lat="45.76513" lon="5.8704">
        <ele>230</ele>
        <time>2022-05-01T12:32:10.898Z</time>
      </trkpt>
      <trkpt lat="45.76508" lon="5.8704">
        <ele>230</ele>
        <time>2022-05-01T12:32:11.898Z</time>
      </trkpt>
      <trkpt lat="45.76503" lon="5.87039">
        <ele>231</ele>
        <time>2022-05-01T12:32:12.898Z</time>
      </trkpt>
      <trkpt lat="45.76497" lon="5.87039">
        <ele>231</ele>
        <time>2022-05-01T12:32:13.898Z</time>
      </trkpt>
      <trkpt lat="45.76493" lon="5.87039">
        <ele>231</ele>
        <time>2022-05-01T12:32:14.897Z</time>
      </trkpt>
      <trkpt lat="45.76488" lon="5.87038">
        <ele>232</ele>
        <time>2022-05-01T12:32:15.898Z</time>
      </trkpt>
      <trkpt lat="45.76483" lon="5.87038">
        <ele>232</ele>
        <time>2022-05-01T12:32:16.898Z</time>
      </trkpt>
      <trkpt lat="45.76478" lon="5.87037">
        <ele>232</ele>
        <time>2022-05-01T12:32:17.898Z</time>
      </trkpt>
      <trkpt lat="45.76473" lon="5.87037">
        <ele>233</ele>
        <time>2022-05-01T12:32:18.898Z</time>
      </trkpt>
      <trkpt lat="45.76468" lon="5.87037">
        <ele>233</ele>
        <time>2022-05-01T12:32:19.898Z</time>
      </trkpt>
      <trkpt lat="45.76463" lon="5.87036">
        <ele>233</ele>
        <time>2022-05-01T12:32:20.897Z</time>
      </trkpt>
      <trkpt lat="45.76458" lon="5.87036">
        <ele>233</ele>
        <time>2022-05-01T12:32:21.897Z</time>
      </trkpt>
      <trkpt lat="45.76453" lon="5.87036">
        <ele>233</ele>
        <time>2022-05-01T12:32:22.898Z</time>
      </trkpt>
      <trkpt lat="45.76448" lon="5.87035">
        <ele>233</ele>
        <time>2022-05-01T12:32:23.898Z</time>
      </trkpt>
      <trkpt lat="45.76443" lon="5.87035">
        <ele>233</ele>
        <time>2022-05-01T12:32:24.897Z</time>
      </trkpt>
      <trkpt lat="45.76437" lon="5.87034">
        <ele>233</ele>
        <time>2022-05-01T12:32:25.897Z</time>
      </trkpt>
      <trkpt lat="45.76431" lon="5.87034">
        <ele>234</ele>
        <time>2022-05-01T12:32:26.897Z</time>
      </trkpt>
      <trkpt lat="45.76427" lon="5.87033">
        <ele>234</ele>
        <time>2022-05-01T12:32:27.898Z</time>
      </trkpt>
      <trkpt lat="45.76422" lon="5.87033">
        <ele>234</ele>
        <time>2022-05-01T12:32:28.897Z</time>
      </trkpt>
      <trkpt lat="45.76416" lon="5.87033">
        <ele>234</ele>
        <time>2022-05-01T12:32:29.898Z</time>
      </trkpt>
      <trkpt lat="45.76411" lon="5.87032">
        <ele>234</ele>
        <time>2022-05-01T12:32:30.898Z</time>
      </trkpt>
      <trkpt lat="45.76406" lon="5.87032">
        <ele>234</ele>
        <time>2022-05-01T12:32:31.898Z</time>
      </trkpt>
      <trkpt lat="45.76401" lon="5.87032">
        <ele>234</ele>
        <time>2022-05-01T12:32:32.898Z</time>
      </trkpt>
      <trkpt lat="45.76396" lon="5.87031">
        <ele>234</ele>
        <time>2022-05-01T12:32:33.898Z</time>
      </trkpt>
      <trkpt lat="45.76391" lon="5.87031">
        <ele>234</ele>
        <time>2022-05-01T12:32:34.898Z</time>
      </trkpt>
      <trkpt lat="45.76385" lon="5.87031">
        <ele>234</ele>
        <time>2022-05-01T12:32:35.898Z</time>
      </trkpt>
      <trkpt lat="45.7638" lon="5.87031">
        <ele>234</ele>
        <time>2022-05-01T12:32:36.898Z</time>
      </trkpt>
      <trkpt lat="45.76375" lon="5.8703">
        <ele>234</ele>
        <time>2022-05-01T12:32:37.897Z</time>
      </trkpt>
      <trkpt lat="45.7637" lon="5.8703">
        <ele>234</ele>
        <time>2022-05-01T12:32:38.898Z</time>
      </trkpt>
      <trkpt lat="45.76365" lon="5.8703">
        <ele>234</ele>
        <time>2022-05-01T12:32:39.897Z</time>
      </trkpt>
      <trkpt lat="45.76359" lon="5.8703">
        <ele>234</ele>
        <time>2022-05-01T12:32:40.898Z</time>
      </trkpt>
      <trkpt lat="45.76355" lon="5.8703">
        <ele>234</ele>
        <time>2022-05-01T12:32:41.897Z</time>
      </trkpt>
      <trkpt lat="45.7635" lon="5.8703">
        <ele>234</ele>
        <time>2022-05-01T12:32:42.898Z</time>
      </trkpt>
      <trkpt lat="45.76345" lon="5.87031">
        <ele>234</ele>
        <time>2022-05-01T12:32:43.898Z</time>
      </trkpt>
      <trkpt lat="45.7634" lon="5.87031">
        <ele>234</ele>
        <time>2022-05-01T12:32:44.898Z</time>
      </trkpt>
      <trkpt lat="45.76334" lon="5.87032">
        <ele>235</ele>
        <time>2022-05-01T12:32:45.897Z</time>
      </trkpt>
      <trkpt lat="45.7633" lon="5.87032">
        <ele>235</ele>
        <time>2022-05-01T12:32:46.898Z</time>
      </trkpt>
      <trkpt lat="45.76325" lon="5.87032">
        <ele>235</ele>
        <time>2022-05-01T12:32:47.898Z</time>
      </trkpt>
      <trkpt lat="45.7632" lon="5.87033">
        <ele>234</ele>
        <time>2022-05-01T12:32:48.898Z</time>
      </trkpt>
      <trkpt lat="45.76315" lon="5.87034">
        <ele>234</ele>
        <time>2022-05-01T12:32:49.897Z</time>
      </trkpt>
      <trkpt lat="45.7631" lon="5.87035">
        <ele>233</ele>
        <time>2022-05-01T12:32:50.897Z</time>
      </trkpt>
      <trkpt lat="45.76305" lon="5.87035">
        <ele>233</ele>
        <time>2022-05-01T12:32:51.898Z</time>
      </trkpt>
      <trkpt lat="45.763" lon="5.87036">
        <ele>232</ele>
        <time>2022-05-01T12:32:52.898Z</time>
      </trkpt>
      <trkpt lat="45.76294" lon="5.87037">
        <ele>232</ele>
        <time>2022-05-01T12:32:53.898Z</time>
      </trkpt>
      <trkpt lat="45.76289" lon="5.87038">
        <ele>232</ele>
        <time>2022-05-01T12:32:54.897Z</time>
      </trkpt>
      <trkpt lat="45.76284" lon="5.87039">
        <ele>232</ele>
        <time>2022-05-01T12:32:55.897Z</time>
      </trkpt>
      <trkpt lat="45.76279" lon="5.87039">
        <ele>232</ele>
        <time>2022-05-01T12:32:56.898Z</time>
      </trkpt>
      <trkpt lat="45.76273" lon="5.8704">
        <ele>232</ele>
        <time>2022-05-01T12:32:57.897Z</time>
      </trkpt>
      <trkpt lat="45.76268" lon="5.8704">
        <ele>232</ele>
        <time>2022-05-01T12:32:58.897Z</time>
      </trkpt>
      <trkpt lat="45.76264" lon="5.87041">
        <ele>232</ele>
        <time>2022-05-01T12:32:59.897Z</time>
      </trkpt>
      <trkpt lat="45.76259" lon="5.87042">
        <ele>232</ele>
        <time>2022-05-01T12:33:00.897Z</time>
      </trkpt>
      <trkpt lat="45.76254" lon="5.87042">
        <ele>231</ele>
        <time>2022-05-01T12:33:01.898Z</time>
      </trkpt>
      <trkpt lat="45.76249" lon="5.87043">
        <ele>231</ele>
        <time>2022-05-01T12:33:02.897Z</time>
      </trkpt>
      <trkpt lat="45.76244" lon="5.87044">
        <ele>230</ele>
        <time>2022-05-01T12:33:03.897Z</time>
      </trkpt>
      <trkpt lat="45.76238" lon="5.87045">
        <ele>230</ele>
        <time>2022-05-01T12:33:04.898Z</time>
      </trkpt>
      <trkpt lat="45.76233" lon="5.87046">
        <ele>231</ele>
        <time>2022-05-01T12:33:05.898Z</time>
      </trkpt>
      <trkpt lat="45.76228" lon="5.87046">
        <ele>231</ele>
        <time>2022-05-01T12:33:06.897Z</time>
      </trkpt>
      <trkpt lat="45.76222" lon="5.87047">
        <ele>231</ele>
        <time>2022-05-01T12:33:07.898Z</time>
      </trkpt>
      <trkpt lat="45.76217" lon="5.87048">
        <ele>231</ele>
        <time>2022-05-01T12:33:08.898Z</time>
      </trkpt>
      <trkpt lat="45.76212" lon="5.87049">
        <ele>231</ele>
        <time>2022-05-01T12:33:09.898Z</time>
      </trkpt>
      <trkpt lat="45.76207" lon="5.87049">
        <ele>231</ele>
        <time>2022-05-01T12:33:10.898Z</time>
      </trkpt>
      <trkpt lat="45.76203" lon="5.8705">
        <ele>231</ele>
        <time>2022-05-01T12:33:11.897Z</time>
      </trkpt>
      <trkpt lat="45.76197" lon="5.87051">
        <ele>232</ele>
        <time>2022-05-01T12:33:12.897Z</time>
      </trkpt>
      <trkpt lat="45.76192" lon="5.87052">
        <ele>232</ele>
        <time>2022-05-01T12:33:13.898Z</time>
      </trkpt>
      <trkpt lat="45.76188" lon="5.87052">
        <ele>232</ele>
        <time>2022-05-01T12:33:14.898Z</time>
      </trkpt>
      <trkpt lat="45.76183" lon="5.87053">
        <ele>232</ele>
        <time>2022-05-01T12:33:15.898Z</time>
      </trkpt>
      <trkpt lat="45.76177" lon="5.87055">
        <ele>231</ele>
        <time>2022-05-01T12:33:16.898Z</time>
      </trkpt>
      <trkpt lat="45.76173" lon="5.87055">
        <ele>231</ele>
        <time>2022-05-01T12:33:17.897Z</time>
      </trkpt>
      <trkpt lat="45.76168" lon="5.87056">
        <ele>231</ele>
        <time>2022-05-01T12:33:18.897Z</time>
      </trkpt>
      <trkpt lat="45.76163" lon="5.87056">
        <ele>230</ele>
        <time>2022-05-01T12:33:19.898Z</time>
      </trkpt>
      <trkpt lat="45.76158" lon="5.87057">
        <ele>230</ele>
        <time>2022-05-01T12:33:20.897Z</time>
      </trkpt>
      <trkpt lat="45.76154" lon="5.87058">
        <ele>229</ele>
        <time>2022-05-01T12:33:21.898Z</time>
      </trkpt>
      <trkpt lat="45.76148" lon="5.87059">
        <ele>229</ele>
        <time>2022-05-01T12:33:22.898Z</time>
      </trkpt>
      <trkpt lat="45.76143" lon="5.8706">
        <ele>229</ele>
        <time>2022-05-01T12:33:23.897Z</time>
      </trkpt>
      <trkpt lat="45.76139" lon="5.87061">
        <ele>229</ele>
        <time>2022-05-01T12:33:24.898Z</time>
      </trkpt>
      <trkpt lat="45.76134" lon="5.87062">
        <ele>229</ele>
        <time>2022-05-01T12:33:25.898Z</time>
      </trkpt>
      <trkpt lat="45.76129" lon="5.87064">
        <ele>229</ele>
        <time>2022-05-01T12:33:26.898Z</time>
      </trkpt>
      <trkpt lat="45.76124" lon="5.87066">
        <ele>229</ele>
        <time>2022-05-01T12:33:27.897Z</time>
      </trkpt>
      <trkpt lat="45.76121" lon="5.87067">
        <ele>229</ele>
        <time>2022-05-01T12:33:28.897Z</time>
      </trkpt>
      <trkpt lat="45.76116" lon="5.87068">
        <ele>229</ele>
        <time>2022-05-01T12:33:29.898Z</time>
      </trkpt>
      <trkpt lat="45.76111" lon="5.87069">
        <ele>230</ele>
        <time>2022-05-01T12:33:30.898Z</time>
      </trkpt>
      <trkpt lat="45.76106" lon="5.87071">
        <ele>229</ele>
        <time>2022-05-01T12:33:31.897Z</time>
      </trkpt>
      <trkpt lat="45.76101" lon="5.87072">
        <ele>229</ele>
        <time>2022-05-01T12:33:32.898Z</time>
      </trkpt>
      <trkpt lat="45.76097" lon="5.87073">
        <ele>229</ele>
        <time>2022-05-01T12:33:33.898Z</time>
      </trkpt>
      <trkpt lat="45.76092" lon="5.87074">
        <ele>229</ele>
        <time>2022-05-01T12:33:34.898Z</time>
      </trkpt>
      <trkpt lat="45.76087" lon="5.87075">
        <ele>230</ele>
        <time>2022-05-01T12:33:35.898Z</time>
      </trkpt>
      <trkpt lat="45.76082" lon="5.87075">
        <ele>230</ele>
        <time>2022-05-01T12:33:36.898Z</time>
      </trkpt>
      <trkpt lat="45.76077" lon="5.87075">
        <ele>231</ele>
        <time>2022-05-01T12:33:37.898Z</time>
      </trkpt>
      <trkpt lat="45.76073" lon="5.87075">
        <ele>232</ele>
        <time>2022-05-01T12:33:38.898Z</time>
      </trkpt>
      <trkpt lat="45.76067" lon="5.87075">
        <ele>233</ele>
        <time>2022-05-01T12:33:39.898Z</time>
      </trkpt>
      <trkpt lat="45.76062" lon="5.87074">
        <ele>233</ele>
        <time>2022-05-01T12:33:40.898Z</time>
      </trkpt>
      <trkpt lat="45.76058" lon="5.87074">
        <ele>233</ele>
        <time>2022-05-01T12:33:41.898Z</time>
      </trkpt>
      <trkpt lat="45.76054" lon="5.87074">
        <ele>232</ele>
        <time>2022-05-01T12:33:42.897Z</time>
      </trkpt>
      <trkpt lat="45.76049" lon="5.87073">
        <ele>232</ele>
        <time>2022-05-01T12:33:43.898Z</time>
      </trkpt>
      <trkpt lat="45.76043" lon="5.87072">
        <ele>232</ele>
        <time>2022-05-01T12:33:44.898Z</time>
      </trkpt>
      <trkpt lat="45.76039" lon="5.87072">
        <ele>231</ele>
        <time>2022-05-01T12:33:45.898Z</time>
      </trkpt>
      <trkpt lat="45.76033" lon="5.87072">
        <ele>231</ele>
        <time>2022-05-01T12:33:46.898Z</time>
      </trkpt>
      <trkpt lat="45.76029" lon="5.87072">
        <ele>232</ele>
        <time>2022-05-01T12:33:47.897Z</time>
      </trkpt>
      <trkpt lat="45.76024" lon="5.87072">
        <ele>232</ele>
        <time>2022-05-01T12:33:48.898Z</time>
      </trkpt>
      <trkpt lat="45.76019" lon="5.87072">
        <ele>232</ele>
        <time>2022-05-01T12:33:49.898Z</time>
      </trkpt>
      <trkpt lat="45.76014" lon="5.87072">
        <ele>232</ele>
        <time>2022-05-01T12:33:50.897Z</time>
      </trkpt>
      <trkpt lat="45.76009" lon="5.87072">
        <ele>233</ele>
        <time>2022-05-01T12:33:51.898Z</time>
      </trkpt>
      <trkpt lat="45.76004" lon="5.87073">
        <ele>233</ele>
        <time>2022-05-01T12:33:52.897Z</time>
      </trkpt>
      <trkpt lat="45.75998" lon="5.87073">
        <ele>233</ele>
        <time>2022-05-01T12:33:53.898Z</time>
      </trkpt>
      <trkpt lat="45.75994" lon="5.87074">
        <ele>233</ele>
        <time>2022-05-01T12:33:54.898Z</time>
      </trkpt>
      <trkpt lat="45.75989" lon="5.87074">
        <ele>233</ele>
        <time>2022-05-01T12:33:55.898Z</time>
      </trkpt>
      <trkpt lat="45.75983" lon="5.87074">
        <ele>234</ele>
        <time>2022-05-01T12:33:56.897Z</time>
      </trkpt>
      <trkpt lat="45.75978" lon="5.87074">
        <ele>234</ele>
        <time>2022-05-01T12:33:57.897Z</time>
      </trkpt>
      <trkpt lat="45.75972" lon="5.87072">
        <ele>233</ele>
        <time>2022-05-01T12:33:58.897Z</time>
      </trkpt>
      <trkpt lat="45.75967" lon="5.87071">
        <ele>233</ele>
        <time>2022-05-01T12:33:59.898Z</time>
      </trkpt>
      <trkpt lat="45.75962" lon="5.87068">
        <ele>233</ele>
        <time>2022-05-01T12:34:00.897Z</time>
      </trkpt>
      <trkpt lat="45.75957" lon="5.87065">
        <ele>233</ele>
        <time>2022-05-01T12:34:01.898Z</time>
      </trkpt>
      <trkpt lat="45.75954" lon="5.87063">
        <ele>234</ele>
        <time>2022-05-01T12:34:02.898Z</time>
      </trkpt>
      <trkpt lat="45.75949" lon="5.87061">
        <ele>233</ele>
        <time>2022-05-01T12:34:03.898Z</time>
      </trkpt>
      <trkpt lat="45.75944" lon="5.8706">
        <ele>234</ele>
        <time>2022-05-01T12:34:04.897Z</time>
      </trkpt>
      <trkpt lat="45.75939" lon="5.87059">
        <ele>233</ele>
        <time>2022-05-01T12:34:05.898Z</time>
      </trkpt>
      <trkpt lat="45.75935" lon="5.87059">
        <ele>233</ele>
        <time>2022-05-01T12:34:06.898Z</time>
      </trkpt>
      <trkpt lat="45.7593" lon="5.87061">
        <ele>234</ele>
        <time>2022-05-01T12:34:07.898Z</time>
      </trkpt>
      <trkpt lat="45.75926" lon="5.87065">
        <ele>234</ele>
        <time>2022-05-01T12:34:08.897Z</time>
      </trkpt>
      <trkpt lat="45.75922" lon="5.87068">
        <ele>234</ele>
        <time>2022-05-01T12:34:09.898Z</time>
      </trkpt>
      <trkpt lat="45.75917" lon="5.87073">
        <ele>234</ele>
        <time>2022-05-01T12:34:10.898Z</time>
      </trkpt>
      <trkpt lat="45.75913" lon="5.87077">
        <ele>234</ele>
        <time>2022-05-01T12:34:11.898Z</time>
      </trkpt>
      <trkpt lat="45.75908" lon="5.87082">
        <ele>234</ele>
        <time>2022-05-01T12:34:12.897Z</time>
      </trkpt>
      <trkpt lat="45.75905" lon="5.87086">
        <ele>233</ele>
        <time>2022-05-01T12:34:13.897Z</time>
      </trkpt>
      <trkpt lat="45.759" lon="5.87092">
        <ele>233</ele>
        <time>2022-05-01T12:34:14.897Z</time>
      </trkpt>
      <trkpt lat="45.75897" lon="5.87096">
        <ele>233</ele>
        <time>2022-05-01T12:34:15.898Z</time>
      </trkpt>
      <trkpt lat="45.75892" lon="5.87101">
        <ele>233</ele>
        <time>2022-05-01T12:34:16.898Z</time>
      </trkpt>
      <trkpt lat="45.75889" lon="5.87106">
        <ele>233</ele>
        <time>2022-05-01T12:34:17.898Z</time>
      </trkpt>
      <trkpt lat="45.75885" lon="5.87111">
        <ele>233</ele>
        <time>2022-05-01T12:34:18.898Z</time>
      </trkpt>
      <trkpt lat="45.75881" lon="5.87115">
        <ele>233</ele>
        <time>2022-05-01T12:34:19.897Z</time>
      </trkpt>
      <trkpt lat="45.75877" lon="5.8712">
        <ele>232</ele>
        <time>2022-05-01T12:34:20.897Z</time>
      </trkpt>
      <trkpt lat="45.75873" lon="5.87124">
        <ele>231</ele>
        <time>2022-05-01T12:34:21.897Z</time>
      </trkpt>
      <trkpt lat="45.75868" lon="5.87128">
        <ele>231</ele>
        <time>2022-05-01T12:34:22.898Z</time>
      </trkpt>
      <trkpt lat="45.75864" lon="5.87131">
        <ele>230</ele>
        <time>2022-05-01T12:34:23.898Z</time>
      </trkpt>
      <trkpt lat="45.75859" lon="5.87135">
        <ele>230</ele>
        <time>2022-05-01T12:34:24.897Z</time>
      </trkpt>
      <trkpt lat="45.75854" lon="5.87137">
        <ele>229</ele>
        <time>2022-05-01T12:34:25.897Z</time>
      </trkpt>
      <trkpt lat="45.75849" lon="5.8714">
        <ele>229</ele>
        <time>2022-05-01T12:34:26.898Z</time>
      </trkpt>
      <trkpt lat="45.75844" lon="5.87144">
        <ele>230</ele>
        <time>2022-05-01T12:34:27.898Z</time>
      </trkpt>
      <trkpt lat="45.7584" lon="5.87148">
        <ele>230</ele>
        <time>2022-05-01T12:34:28.898Z</time>
      </trkpt>
      <trkpt lat="45.75835" lon="5.87152">
        <ele>230</ele>
        <time>2022-05-01T12:34:29.897Z</time>
      </trkpt>
      <trkpt lat="45.7583" lon="5.87156">
        <ele>231</ele>
        <time>2022-05-01T12:34:30.898Z</time>
      </trkpt>
      <trkpt lat="45.75826" lon="5.8716">
        <ele>231</ele>
        <time>2022-05-01T12:34:31.898Z</time>
      </trkpt>
      <trkpt lat="45.75821" lon="5.87165">
        <ele>232</ele>
        <time>2022-05-01T12:34:32.897Z</time>
      </trkpt>
      <trkpt lat="45.75817" lon="5.8717">
        <ele>232</ele>
        <time>2022-05-01T12:34:33.897Z</time>
      </trkpt>
      <trkpt lat="45.75813" lon="5.87175">
        <ele>232</ele>
        <time>2022-05-01T12:34:34.898Z</time>
      </trkpt>
      <trkpt lat="45.7581" lon="5.8718">
        <ele>233</ele>
        <time>2022-05-01T12:34:35.898Z</time>
      </trkpt>
      <trkpt lat="45.75806" lon="5.87186">
        <ele>233</ele>
        <time>2022-05-01T12:34:36.898Z</time>
      </trkpt>
      <trkpt lat="45.75803" lon="5.87191">
        <ele>233</ele>
        <time>2022-05-01T12:34:37.898Z</time>
      </trkpt>
      <trkpt lat="45.758" lon="5.87197">
        <ele>233</ele>
        <time>2022-05-01T12:34:38.898Z</time>
      </trkpt>
      <trkpt lat="45.75797" lon="5.87203">
        <ele>234</ele>
        <time>2022-05-01T12:34:39.898Z</time>
      </trkpt>
      <trkpt lat="45.75795" lon="5.8721">
        <ele>234</ele>
        <time>2022-05-01T12:34:40.898Z</time>
      </trkpt>
      <trkpt lat="45.75793" lon="5.87217">
        <ele>234</ele>
        <time>2022-05-01T12:34:41.898Z</time>
      </trkpt>
      <trkpt lat="45.75791" lon="5.87224">
        <ele>234</ele>
        <time>2022-05-01T12:34:42.898Z</time>
      </trkpt>
      <trkpt lat="45.75789" lon="5.87231">
        <ele>234</ele>
        <time>2022-05-01T12:34:43.898Z</time>
      </trkpt>
      <trkpt lat="45.75788" lon="5.87239">
        <ele>235</ele>
        <time>2022-05-01T12:34:44.898Z</time>
      </trkpt>
      <trkpt lat="45.75788" lon="5.87246">
        <ele>235</ele>
        <time>2022-05-01T12:34:45.897Z</time>
      </trkpt>
      <trkpt lat="45.75786" lon="5.87254">
        <ele>235</ele>
        <time>2022-05-01T12:34:46.898Z</time>
      </trkpt>
      <trkpt lat="45.75785" lon="5.87261">
        <ele>235</ele>
        <time>2022-05-01T12:34:47.898Z</time>
      </trkpt>
      <trkpt lat="45.75784" lon="5.87269">
        <ele>235</ele>
        <time>2022-05-01T12:34:48.898Z</time>
      </trkpt>
      <trkpt lat="45.75783" lon="5.87276">
        <ele>235</ele>
        <time>2022-05-01T12:34:49.897Z</time>
      </trkpt>
      <trkpt lat="45.75782" lon="5.87283">
        <ele>235</ele>
        <time>2022-05-01T12:34:50.898Z</time>
      </trkpt>
      <trkpt lat="45.7578" lon="5.8729">
        <ele>235</ele>
        <time>2022-05-01T12:34:51.898Z</time>
      </trkpt>
      <trkpt lat="45.75779" lon="5.87298">
        <ele>236</ele>
        <time>2022-05-01T12:34:52.898Z</time>
      </trkpt>
      <trkpt lat="45.75778" lon="5.87305">
        <ele>236</ele>
        <time>2022-05-01T12:34:53.898Z</time>
      </trkpt>
      <trkpt lat="45.75777" lon="5.87312">
        <ele>236</ele>
        <time>2022-05-01T12:34:54.897Z</time>
      </trkpt>
      <trkpt lat="45.75776" lon="5.87319">
        <ele>236</ele>
        <time>2022-05-01T12:34:55.898Z</time>
      </trkpt>
      <trkpt lat="45.75774" lon="5.87326">
        <ele>236</ele>
        <time>2022-05-01T12:34:56.897Z</time>
      </trkpt>
      <trkpt lat="45.75773" lon="5.87332">
        <ele>236</ele>
        <time>2022-05-01T12:34:57.898Z</time>
      </trkpt>
      <trkpt lat="45.75772" lon="5.87339">
        <ele>236</ele>
        <time>2022-05-01T12:34:58.897Z</time>
      </trkpt>
      <trkpt lat="45.7577" lon="5.87346">
        <ele>237</ele>
        <time>2022-05-01T12:34:59.898Z</time>
      </trkpt>
      <trkpt lat="45.75769" lon="5.87352">
        <ele>237</ele>
        <time>2022-05-01T12:35:00.898Z</time>
      </trkpt>
      <trkpt lat="45.75767" lon="5.87358">
        <ele>237</ele>
        <time>2022-05-01T12:35:01.898Z</time>
      </trkpt>
      <trkpt lat="45.75766" lon="5.87365">
        <ele>237</ele>
        <time>2022-05-01T12:35:02.898Z</time>
      </trkpt>
      <trkpt lat="45.75764" lon="5.87372">
        <ele>237</ele>
        <time>2022-05-01T12:35:03.897Z</time>
      </trkpt>
      <trkpt lat="45.75762" lon="5.87378">
        <ele>237</ele>
        <time>2022-05-01T12:35:04.897Z</time>
      </trkpt>
      <trkpt lat="45.7576" lon="5.87385">
        <ele>237</ele>
        <time>2022-05-01T12:35:05.898Z</time>
      </trkpt>
      <trkpt lat="45.75757" lon="5.87392">
        <ele>237</ele>
        <time>2022-05-01T12:35:06.897Z</time>
      </trkpt>
      <trkpt lat="45.75754" lon="5.87399">
        <ele>237</ele>
        <time>2022-05-01T12:35:07.898Z</time>
      </trkpt>
      <trkpt lat="45.75751" lon="5.87405">
        <ele>236</ele>
        <time>2022-05-01T12:35:08.898Z</time>
      </trkpt>
      <trkpt lat="45.75748" lon="5.87412">
        <ele>236</ele>
        <time>2022-05-01T12:35:09.897Z</time>
      </trkpt>
      <trkpt lat="45.75745" lon="5.87418">
        <ele>236</ele>
        <time>2022-05-01T12:35:10.898Z</time>
      </trkpt>
      <trkpt lat="45.75741" lon="5.87425">
        <ele>236</ele>
        <time>2022-05-01T12:35:11.897Z</time>
      </trkpt>
      <trkpt lat="45.75738" lon="5.87431">
        <ele>236</ele>
        <time>2022-05-01T12:35:12.898Z</time>
      </trkpt>
      <trkpt lat="45.75735" lon="5.87437">
        <ele>236</ele>
        <time>2022-05-01T12:35:13.898Z</time>
      </trkpt>
      <trkpt lat="45.75732" lon="5.87444">
        <ele>236</ele>
        <time>2022-05-01T12:35:14.897Z</time>
      </trkpt>
      <trkpt lat="45.75728" lon="5.8745">
        <ele>236</ele>
        <time>2022-05-01T12:35:15.898Z</time>
      </trkpt>
      <trkpt lat="45.75725" lon="5.87456">
        <ele>236</ele>
        <time>2022-05-01T12:35:16.898Z</time>
      </trkpt>
      <trkpt lat="45.75721" lon="5.87462">
        <ele>236</ele>
        <time>2022-05-01T12:35:17.897Z</time>
      </trkpt>
      <trkpt lat="45.75718" lon="5.87468">
        <ele>236</ele>
        <time>2022-05-01T12:35:18.898Z</time>
      </trkpt>
      <trkpt lat="45.75714" lon="5.87473">
        <ele>235</ele>
        <time>2022-05-01T12:35:19.898Z</time>
      </trkpt>
      <trkpt lat="45.7571" lon="5.87479">
        <ele>235</ele>
        <time>2022-05-01T12:35:20.898Z</time>
      </trkpt>
      <trkpt lat="45.75706" lon="5.87484">
        <ele>235</ele>
        <time>2022-05-01T12:35:21.898Z</time>
      </trkpt>
      <trkpt lat="45.75702" lon="5.87489">
        <ele>235</ele>
        <time>2022-05-01T12:35:22.898Z</time>
      </trkpt>
      <trkpt lat="45.75699" lon="5.87494">
        <ele>236</ele>
        <time>2022-05-01T12:35:23.898Z</time>
      </trkpt>
      <trkpt lat="45.75695" lon="5.87499">
        <ele>236</ele>
        <time>2022-05-01T12:35:24.898Z</time>
      </trkpt>
      <trkpt lat="45.75691" lon="5.87504">
        <ele>236</ele>
        <time>2022-05-01T12:35:25.898Z</time>
      </trkpt>
      <trkpt lat="45.75687" lon="5.87508">
        <ele>236</ele>
        <time>2022-05-01T12:35:26.898Z</time>
      </trkpt>
      <trkpt lat="45.75683" lon="5.87513">
        <ele>236</ele>
        <time>2022-05-01T12:35:27.897Z</time>
      </trkpt>
      <trkpt lat="45.75679" lon="5.87517">
        <ele>236</ele>
        <time>2022-05-01T12:35:28.898Z</time>
      </trkpt>
      <trkpt lat="45.75675" lon="5.87521">
        <ele>236</ele>
        <time>2022-05-01T12:35:29.897Z</time>
      </trkpt>
      <trkpt lat="45.75671" lon="5.87525">
        <ele>235</ele>
        <time>2022-05-01T12:35:30.898Z</time>
      </trkpt>
      <trkpt lat="45.75666" lon="5.87529">
        <ele>235</ele>
        <time>2022-05-01T12:35:31.898Z</time>
      </trkpt>
      <trkpt lat="45.75662" lon="5.87533">
        <ele>235</ele>
        <time>2022-05-01T12:35:32.897Z</time>
      </trkpt>
      <trkpt lat="45.75658" lon="5.87536">
        <ele>235</ele>
        <time>2022-05-01T12:35:33.898Z</time>
      </trkpt>
      <trkpt lat="45.75653" lon="5.8754">
        <ele>236</ele>
        <time>2022-05-01T12:35:34.898Z</time>
      </trkpt>
      <trkpt lat="45.75649" lon="5.87544">
        <ele>236</ele>
        <time>2022-05-01T12:35:35.898Z</time>
      </trkpt>
      <trkpt lat="45.75645" lon="5.87548">
        <ele>236</ele>
        <time>2022-05-01T12:35:36.898Z</time>
      </trkpt>
      <trkpt lat="45.75641" lon="5.87553">
        <ele>236</ele>
        <time>2022-05-01T12:35:37.897Z</time>
      </trkpt>
      <trkpt lat="45.75637" lon="5.87557">
        <ele>236</ele>
        <time>2022-05-01T12:35:38.898Z</time>
      </trkpt>
      <trkpt lat="45.75634" lon="5.87563">
        <ele>237</ele>
        <time>2022-05-01T12:35:39.898Z</time>
      </trkpt>
      <trkpt lat="45.7563" lon="5.87568">
        <ele>237</ele>
        <time>2022-05-01T12:35:40.897Z</time>
      </trkpt>
      <trkpt lat="45.75626" lon="5.87573">
        <ele>237</ele>
        <time>2022-05-01T12:35:41.898Z</time>
      </trkpt>
      <trkpt lat="45.75623" lon="5.87578">
        <ele>238</ele>
        <time>2022-05-01T12:35:42.897Z</time>
      </trkpt>
      <trkpt lat="45.75619" lon="5.87584">
        <ele>238</ele>
        <time>2022-05-01T12:35:43.898Z</time>
      </trkpt>
      <trkpt lat="45.75616" lon="5.87589">
        <ele>239</ele>
        <time>2022-05-01T12:35:44.897Z</time>
      </trkpt>
      <trkpt lat="45.75612" lon="5.87595">
        <ele>238</ele>
        <time>2022-05-01T12:35:45.897Z</time>
      </trkpt>
      <trkpt lat="45.75609" lon="5.87601">
        <ele>238</ele>
        <time>2022-05-01T12:35:46.898Z</time>
      </trkpt>
      <trkpt lat="45.75605" lon="5.87607">
        <ele>238</ele>
        <time>2022-05-01T12:35:47.897Z</time>
      </trkpt>
      <trkpt lat="45.75602" lon="5.87613">
        <ele>238</ele>
        <time>2022-05-01T12:35:48.898Z</time>
      </trkpt>
      <trkpt lat="45.75599" lon="5.87619">
        <ele>238</ele>
        <time>2022-05-01T12:35:49.898Z</time>
      </trkpt>
      <trkpt lat="45.75596" lon="5.87625">
        <ele>238</ele>
        <time>2022-05-01T12:35:50.898Z</time>
      </trkpt>
      <trkpt lat="45.75592" lon="5.87631">
        <ele>238</ele>
        <time>2022-05-01T12:35:51.898Z</time>
      </trkpt>
      <trkpt lat="45.75589" lon="5.87638">
        <ele>238</ele>
        <time>2022-05-01T12:35:52.897Z</time>
      </trkpt>
      <trkpt lat="45.75586" lon="5.87644">
        <ele>238</ele>
        <time>2022-05-01T12:35:53.898Z</time>
      </trkpt>
      <trkpt lat="45.75582" lon="5.8765">
        <ele>238</ele>
        <time>2022-05-01T12:35:54.898Z</time>
      </trkpt>
      <trkpt lat="45.75579" lon="5.87656">
        <ele>238</ele>
        <time>2022-05-01T12:35:55.898Z</time>
      </trkpt>
      <trkpt lat="45.75576" lon="5.87663">
        <ele>238</ele>
        <time>2022-05-01T12:35:56.897Z</time>
      </trkpt>
      <trkpt lat="45.75574" lon="5.87669">
        <ele>238</ele>
        <time>2022-05-01T12:35:57.898Z</time>
      </trkpt>
      <trkpt lat="45.75571" lon="5.87676">
        <ele>237</ele>
        <time>2022-05-01T12:35:58.897Z</time>
      </trkpt>
      <trkpt lat="45.75568" lon="5.87682">
        <ele>237</ele>
        <time>2022-05-01T12:35:59.898Z</time>
      </trkpt>
      <trkpt lat="45.75565" lon="5.87689">
        <ele>237</ele>
        <time>2022-05-01T12:36:00.897Z</time>
      </trkpt>
      <trkpt lat="45.75562" lon="5.87695">
        <ele>236</ele>
        <time>2022-05-01T12:36:01.898Z</time>
      </trkpt>
      <trkpt lat="45.75559" lon="5.87701">
        <ele>236</ele>
        <time>2022-05-01T12:36:02.898Z</time>
      </trkpt>
      <trkpt lat="45.75556" lon="5.87708">
        <ele>236</ele>
        <time>2022-05-01T12:36:03.898Z</time>
      </trkpt>
      <trkpt lat="45.75553" lon="5.87714">
        <ele>236</ele>
        <time>2022-05-01T12:36:04.897Z</time>
      </trkpt>
      <trkpt lat="45.7555" lon="5.87721">
        <ele>236</ele>
        <time>2022-05-01T12:36:05.898Z</time>
      </trkpt>
      <trkpt lat="45.75547" lon="5.87728">
        <ele>236</ele>
        <time>2022-05-01T12:36:06.898Z</time>
      </trkpt>
      <trkpt lat="45.75544" lon="5.87735">
        <ele>236</ele>
        <time>2022-05-01T12:36:07.898Z</time>
      </trkpt>
      <trkpt lat="45.75542" lon="5.87741">
        <ele>236</ele>
        <time>2022-05-01T12:36:08.898Z</time>
      </trkpt>
      <trkpt lat="45.7554" lon="5.87746">
        <ele>236</ele>
        <time>2022-05-01T12:36:09.897Z</time>
      </trkpt>
      <trkpt lat="45.75537" lon="5.87753">
        <ele>236</ele>
        <time>2022-05-01T12:36:10.898Z</time>
      </trkpt>
      <trkpt lat="45.75535" lon="5.87761">
        <ele>236</ele>
        <time>2022-05-01T12:36:11.898Z</time>
      </trkpt>
      <trkpt lat="45.75533" lon="5.87768">
        <ele>236</ele>
        <time>2022-05-01T12:36:12.898Z</time>
      </trkpt>
      <trkpt lat="45.75531" lon="5.87774">
        <ele>236</ele>
        <time>2022-05-01T12:36:13.898Z</time>
      </trkpt>
      <trkpt lat="45.75529" lon="5.87781">
        <ele>236</ele>
        <time>2022-05-01T12:36:14.898Z</time>
      </trkpt>
      <trkpt lat="45.75527" lon="5.87787">
        <ele>236</ele>
        <time>2022-05-01T12:36:15.898Z</time>
      </trkpt>
      <trkpt lat="45.75525" lon="5.87794">
        <ele>236</ele>
        <time>2022-05-01T12:36:16.898Z</time>
      </trkpt>
      <trkpt lat="45.75523" lon="5.878">
        <ele>236</ele>
        <time>2022-05-01T12:36:17.898Z</time>
      </trkpt>
      <trkpt lat="45.75521" lon="5.87807">
        <ele>236</ele>
        <time>2022-05-01T12:36:18.898Z</time>
      </trkpt>
      <trkpt lat="45.75519" lon="5.87814">
        <ele>236</ele>
        <time>2022-05-01T12:36:19.898Z</time>
      </trkpt>
      <trkpt lat="45.75518" lon="5.87821">
        <ele>236</ele>
        <time>2022-05-01T12:36:20.897Z</time>
      </trkpt>
      <trkpt lat="45.75517" lon="5.87827">
        <ele>236</ele>
        <time>2022-05-01T12:36:21.898Z</time>
      </trkpt>
      <trkpt lat="45.75516" lon="5.87834">
        <ele>235</ele>
        <time>2022-05-01T12:36:22.898Z</time>
      </trkpt>
      <trkpt lat="45.75514" lon="5.8784">
        <ele>235</ele>
        <time>2022-05-01T12:36:23.897Z</time>
      </trkpt>
      <trkpt lat="45.75513" lon="5.87847">
        <ele>235</ele>
        <time>2022-05-01T12:36:24.898Z</time>
      </trkpt>
      <trkpt lat="45.75512" lon="5.87855">
        <ele>235</ele>
        <time>2022-05-01T12:36:25.898Z</time>
      </trkpt>
      <trkpt lat="45.7551" lon="5.87861">
        <ele>235</ele>
        <time>2022-05-01T12:36:26.897Z</time>
      </trkpt>
      <trkpt lat="45.75508" lon="5.87867">
        <ele>235</ele>
        <time>2022-05-01T12:36:27.898Z</time>
      </trkpt>
      <trkpt lat="45.75506" lon="5.87872">
        <ele>236</ele>
        <time>2022-05-01T12:36:28.898Z</time>
      </trkpt>
      <trkpt lat="45.75504" lon="5.8788">
        <ele>236</ele>
        <time>2022-05-01T12:36:29.897Z</time>
      </trkpt>
      <trkpt lat="45.75501" lon="5.87886">
        <ele>236</ele>
        <time>2022-05-01T12:36:30.898Z</time>
      </trkpt>
      <trkpt lat="45.75499" lon="5.87892">
        <ele>236</ele>
        <time>2022-05-01T12:36:31.898Z</time>
      </trkpt>
      <trkpt lat="45.75497" lon="5.87897">
        <ele>235</ele>
        <time>2022-05-01T12:36:32.898Z</time>
      </trkpt>
      <trkpt lat="45.75495" lon="5.87902">
        <ele>235</ele>
        <time>2022-05-01T12:36:33.897Z</time>
      </trkpt>
      <trkpt lat="45.75492" lon="5.87908">
        <ele>235</ele>
        <time>2022-05-01T12:36:34.897Z</time>
      </trkpt>
      <trkpt lat="45.75489" lon="5.87913">
        <ele>234</ele>
        <time>2022-05-01T12:36:35.898Z</time>
      </trkpt>
      <trkpt lat="45.75487" lon="5.87918">
        <ele>234</ele>
        <time>2022-05-01T12:36:36.898Z</time>
      </trkpt>
      <trkpt lat="45.75484" lon="5.87922">
        <ele>234</ele>
        <time>2022-05-01T12:36:37.898Z</time>
      </trkpt>
      <trkpt lat="45.7548" lon="5.87927">
        <ele>234</ele>
        <time>2022-05-01T12:36:38.898Z</time>
      </trkpt>
      <trkpt lat="45.75477" lon="5.87931">
        <ele>235</ele>
        <time>2022-05-01T12:36:39.898Z</time>
      </trkpt>
      <trkpt lat="45.75474" lon="5.87936">
        <ele>235</ele>
        <time>2022-05-01T12:36:40.898Z</time>
      </trkpt>
      <trkpt lat="45.7547" lon="5.8794">
        <ele>235</ele>
        <time>2022-05-01T12:36:41.897Z</time>
      </trkpt>
      <trkpt lat="45.75466" lon="5.87945">
        <ele>235</ele>
        <time>2022-05-01T12:36:42.898Z</time>
      </trkpt>
      <trkpt lat="45.75462" lon="5.87949">
        <ele>235</ele>
        <time>2022-05-01T12:36:43.897Z</time>
      </trkpt>
      <trkpt lat="45.75459" lon="5.87953">
        <ele>235</ele>
        <time>2022-05-01T12:36:44.897Z</time>
      </trkpt>
      <trkpt lat="45.75455" lon="5.87957">
        <ele>235</ele>
        <time>2022-05-01T12:36:45.897Z</time>
      </trkpt>
      <trkpt lat="45.75451" lon="5.87961">
        <ele>235</ele>
        <time>2022-05-01T12:36:46.898Z</time>
      </trkpt>
      <trkpt lat="45.75447" lon="5.87965">
        <ele>235</ele>
        <time>2022-05-01T12:36:47.898Z</time>
      </trkpt>
      <trkpt lat="45.75443" lon="5.87969">
        <ele>236</ele>
        <time>2022-05-01T12:36:48.897Z</time>
      </trkpt>
      <trkpt lat="45.75439" lon="5.87972">
        <ele>236</ele>
        <time>2022-05-01T12:36:49.897Z</time>
      </trkpt>
      <trkpt lat="45.75434" lon="5.87975">
        <ele>236</ele>
        <time>2022-05-01T12:36:50.898Z</time>
      </trkpt>
      <trkpt lat="45.7543" lon="5.87978">
        <ele>236</ele>
        <time>2022-05-01T12:36:51.898Z</time>
      </trkpt>
      <trkpt lat="45.75426" lon="5.8798">
        <ele>236</ele>
        <time>2022-05-01T12:36:52.898Z</time>
      </trkpt>
      <trkpt lat="45.7542" lon="5.87983">
        <ele>237</ele>
        <time>2022-05-01T12:36:53.898Z</time>
      </trkpt>
      <trkpt lat="45.75416" lon="5.87985">
        <ele>237</ele>
        <time>2022-05-01T12:36:54.898Z</time>
      </trkpt>
      <trkpt lat="45.75411" lon="5.87986">
        <ele>238</ele>
        <time>2022-05-01T12:36:55.898Z</time>
      </trkpt>
      <trkpt lat="45.75406" lon="5.87988">
        <ele>238</ele>
        <time>2022-05-01T12:36:56.898Z</time>
      </trkpt>
      <trkpt lat="45.75402" lon="5.87989">
        <ele>238</ele>
        <time>2022-05-01T12:36:57.897Z</time>
      </trkpt>
      <trkpt lat="45.75397" lon="5.87991">
        <ele>238</ele>
        <time>2022-05-01T12:36:58.897Z</time>
      </trkpt>
      <trkpt lat="45.75392" lon="5.87993">
        <ele>238</ele>
        <time>2022-05-01T12:36:59.897Z</time>
      </trkpt>
      <trkpt lat="45.75388" lon="5.87995">
        <ele>237</ele>
        <time>2022-05-01T12:37:00.897Z</time>
      </trkpt>
      <trkpt lat="45.75384" lon="5.87996">
        <ele>237</ele>
        <time>2022-05-01T12:37:01.897Z</time>
      </trkpt>
      <trkpt lat="45.75378" lon="5.87998">
        <ele>237</ele>
        <time>2022-05-01T12:37:02.898Z</time>
      </trkpt>
      <trkpt lat="45.75373" lon="5.88">
        <ele>237</ele>
        <time>2022-05-01T12:37:03.897Z</time>
      </trkpt>
      <trkpt lat="45.75369" lon="5.88002">
        <ele>237</ele>
        <time>2022-05-01T12:37:04.897Z</time>
      </trkpt>
      <trkpt lat="45.75364" lon="5.88003">
        <ele>237</ele>
        <time>2022-05-01T12:37:05.898Z</time>
      </trkpt>
      <trkpt lat="45.75359" lon="5.88005">
        <ele>237</ele>
        <time>2022-05-01T12:37:06.897Z</time>
      </trkpt>
      <trkpt lat="45.75355" lon="5.88007">
        <ele>236</ele>
        <time>2022-05-01T12:37:07.898Z</time>
      </trkpt>
      <trkpt lat="45.7535" lon="5.88009">
        <ele>236</ele>
        <time>2022-05-01T12:37:08.897Z</time>
      </trkpt>
      <trkpt lat="45.75345" lon="5.88011">
        <ele>236</ele>
        <time>2022-05-01T12:37:09.897Z</time>
      </trkpt>
      <trkpt lat="45.75342" lon="5.88012">
        <ele>236</ele>
        <time>2022-05-01T12:37:10.898Z</time>
      </trkpt>
      <trkpt lat="45.75337" lon="5.88013">
        <ele>235</ele>
        <time>2022-05-01T12:37:11.898Z</time>
      </trkpt>
      <trkpt lat="45.75332" lon="5.88014">
        <ele>235</ele>
        <time>2022-05-01T12:37:12.898Z</time>
      </trkpt>
      <trkpt lat="45.75328" lon="5.88014">
        <ele>234</ele>
        <time>2022-05-01T12:37:13.897Z</time>
      </trkpt>
      <trkpt lat="45.75322" lon="5.88014">
        <ele>235</ele>
        <time>2022-05-01T12:37:14.897Z</time>
      </trkpt>
      <trkpt lat="45.75318" lon="5.88015">
        <ele>235</ele>
        <time>2022-05-01T12:37:15.897Z</time>
      </trkpt>
      <trkpt lat="45.75313" lon="5.88015">
        <ele>234</ele>
        <time>2022-05-01T12:37:16.898Z</time>
      </trkpt>
      <trkpt lat="45.75308" lon="5.88017">
        <ele>234</ele>
        <time>2022-05-01T12:37:17.897Z</time>
      </trkpt>
      <trkpt lat="45.75304" lon="5.88018">
        <ele>234</ele>
        <time>2022-05-01T12:37:18.897Z</time>
      </trkpt>
      <trkpt lat="45.75299" lon="5.8802">
        <ele>234</ele>
        <time>2022-05-01T12:37:19.898Z</time>
      </trkpt>
      <trkpt lat="45.75294" lon="5.88023">
        <ele>234</ele>
        <time>2022-05-01T12:37:20.898Z</time>
      </trkpt>
      <trkpt lat="45.75289" lon="5.88026">
        <ele>234</ele>
        <time>2022-05-01T12:37:21.897Z</time>
      </trkpt>
      <trkpt lat="45.75284" lon="5.8803">
        <ele>235</ele>
        <time>2022-05-01T12:37:22.897Z</time>
      </trkpt>
      <trkpt lat="45.75279" lon="5.88033">
        <ele>235</ele>
        <time>2022-05-01T12:37:23.897Z</time>
      </trkpt>
      <trkpt lat="45.75274" lon="5.88036">
        <ele>235</ele>
        <time>2022-05-01T12:37:24.898Z</time>
      </trkpt>
      <trkpt lat="45.7527" lon="5.8804">
        <ele>235</ele>
        <time>2022-05-01T12:37:25.897Z</time>
      </trkpt>
      <trkpt lat="45.75265" lon="5.88043">
        <ele>235</ele>
        <time>2022-05-01T12:37:26.897Z</time>
      </trkpt>
      <trkpt lat="45.7526" lon="5.88045">
        <ele>236</ele>
        <time>2022-05-01T12:37:27.897Z</time>
      </trkpt>
      <trkpt lat="45.75255" lon="5.88048">
        <ele>236</ele>
        <time>2022-05-01T12:37:28.898Z</time>
      </trkpt>
      <trkpt lat="45.7525" lon="5.88051">
        <ele>236</ele>
        <time>2022-05-01T12:37:29.897Z</time>
      </trkpt>
      <trkpt lat="45.75246" lon="5.88053">
        <ele>236</ele>
        <time>2022-05-01T12:37:30.897Z</time>
      </trkpt>
      <trkpt lat="45.75241" lon="5.88056">
        <ele>235</ele>
        <time>2022-05-01T12:37:31.897Z</time>
      </trkpt>
      <trkpt lat="45.75236" lon="5.88058">
        <ele>235</ele>
        <time>2022-05-01T12:37:32.897Z</time>
      </trkpt>
      <trkpt lat="45.75232" lon="5.88061">
        <ele>235</ele>
        <time>2022-05-01T12:37:33.897Z</time>
      </trkpt>
      <trkpt lat="45.75228" lon="5.88063">
        <ele>234</ele>
        <time>2022-05-01T12:37:34.897Z</time>
      </trkpt>
      <trkpt lat="45.75223" lon="5.88067">
        <ele>234</ele>
        <time>2022-05-01T12:37:35.897Z</time>
      </trkpt>
      <trkpt lat="45.75219" lon="5.88069">
        <ele>234</ele>
        <time>2022-05-01T12:37:36.897Z</time>
      </trkpt>
      <trkpt lat="45.75214" lon="5.88071">
        <ele>234</ele>
        <time>2022-05-01T12:37:37.897Z</time>
      </trkpt>
      <trkpt lat="45.75209" lon="5.88074">
        <ele>234</ele>
        <time>2022-05-01T12:37:38.897Z</time>
      </trkpt>
      <trkpt lat="45.75205" lon="5.88076">
        <ele>234</ele>
        <time>2022-05-01T12:37:39.897Z</time>
      </trkpt>
      <trkpt lat="45.752" lon="5.88078">
        <ele>235</ele>
        <time>2022-05-01T12:37:40.897Z</time>
      </trkpt>
      <trkpt lat="45.75195" lon="5.8808">
        <ele>235</ele>
        <time>2022-05-01T12:37:41.897Z</time>
      </trkpt>
      <trkpt lat="45.75191" lon="5.88082">
        <ele>236</ele>
        <time>2022-05-01T12:37:42.898Z</time>
      </trkpt>
      <trkpt lat="45.75186" lon="5.88085">
        <ele>236</ele>
        <time>2022-05-01T12:37:43.897Z</time>
      </trkpt>
      <trkpt lat="45.75182" lon="5.88087">
        <ele>235</ele>
        <time>2022-05-01T12:37:44.897Z</time>
      </trkpt>
      <trkpt lat="45.75178" lon="5.8809">
        <ele>235</ele>
        <time>2022-05-01T12:37:45.897Z</time>
      </trkpt>
      <trkpt lat="45.75174" lon="5.88093">
        <ele>235</ele>
        <time>2022-05-01T12:37:46.898Z</time>
      </trkpt>
      <trkpt lat="45.75169" lon="5.88095">
        <ele>235</ele>
        <time>2022-05-01T12:37:47.897Z</time>
      </trkpt>
      <trkpt lat="45.75164" lon="5.88097">
        <ele>236</ele>
        <time>2022-05-01T12:37:48.897Z</time>
      </trkpt>
      <trkpt lat="45.75159" lon="5.88099">
        <ele>236</ele>
        <time>2022-05-01T12:37:49.898Z</time>
      </trkpt>
      <trkpt lat="45.75155" lon="5.88101">
        <ele>237</ele>
        <time>2022-05-01T12:37:50.897Z</time>
      </trkpt>
      <trkpt lat="45.7515" lon="5.88103">
        <ele>237</ele>
        <time>2022-05-01T12:37:51.897Z</time>
      </trkpt>
      <trkpt lat="45.75146" lon="5.88106">
        <ele>237</ele>
        <time>2022-05-01T12:37:52.898Z</time>
      </trkpt>
      <trkpt lat="45.75143" lon="5.88108">
        <ele>237</ele>
        <time>2022-05-01T12:37:53.897Z</time>
      </trkpt>
      <trkpt lat="45.75138" lon="5.88111">
        <ele>237</ele>
        <time>2022-05-01T12:37:54.897Z</time>
      </trkpt>
      <trkpt lat="45.75134" lon="5.88113">
        <ele>237</ele>
        <time>2022-05-01T12:37:55.897Z</time>
      </trkpt>
      <trkpt lat="45.7513" lon="5.88116">
        <ele>237</ele>
        <time>2022-05-01T12:37:56.897Z</time>
      </trkpt>
      <trkpt lat="45.75126" lon="5.88118">
        <ele>237</ele>
        <time>2022-05-01T12:37:57.897Z</time>
      </trkpt>
      <trkpt lat="45.75122" lon="5.88121">
        <ele>237</ele>
        <time>2022-05-01T12:37:58.897Z</time>
      </trkpt>
      <trkpt lat="45.75118" lon="5.88124">
        <ele>236</ele>
        <time>2022-05-01T12:37:59.897Z</time>
      </trkpt>
      <trkpt lat="45.75114" lon="5.88126">
        <ele>236</ele>
        <time>2022-05-01T12:38:00.897Z</time>
      </trkpt>
      <trkpt lat="45.75109" lon="5.88129">
        <ele>235</ele>
        <time>2022-05-01T12:38:01.897Z</time>
      </trkpt>
      <trkpt lat="45.75105" lon="5.88132">
        <ele>235</ele>
        <time>2022-05-01T12:38:02.897Z</time>
      </trkpt>
      <trkpt lat="45.75101" lon="5.88134">
        <ele>234</ele>
        <time>2022-05-01T12:38:03.898Z</time>
      </trkpt>
      <trkpt lat="45.75097" lon="5.88137">
        <ele>234</ele>
        <time>2022-05-01T12:38:04.897Z</time>
      </trkpt>
      <trkpt lat="45.75092" lon="5.88139">
        <ele>234</ele>
        <time>2022-05-01T12:38:05.898Z</time>
      </trkpt>
      <trkpt lat="45.75088" lon="5.88142">
        <ele>234</ele>
        <time>2022-05-01T12:38:06.897Z</time>
      </trkpt>
      <trkpt lat="45.75084" lon="5.88145">
        <ele>234</ele>
        <time>2022-05-01T12:38:07.897Z</time>
      </trkpt>
      <trkpt lat="45.7508" lon="5.88148">
        <ele>234</ele>
        <time>2022-05-01T12:38:08.898Z</time>
      </trkpt>
      <trkpt lat="45.75077" lon="5.8815">
        <ele>235</ele>
        <time>2022-05-01T12:38:09.897Z</time>
      </trkpt>
      <trkpt lat="45.75073" lon="5.88153">
        <ele>235</ele>
        <time>2022-05-01T12:38:10.898Z</time>
      </trkpt>
      <trkpt lat="45.75069" lon="5.88155">
        <ele>236</ele>
        <time>2022-05-01T12:38:11.897Z</time>
      </trkpt>
      <trkpt lat="45.75066" lon="5.88157">
        <ele>236</ele>
        <time>2022-05-01T12:38:12.897Z</time>
      </trkpt>
      <trkpt lat="45.75062" lon="5.8816">
        <ele>236</ele>
        <time>2022-05-01T12:38:13.898Z</time>
      </trkpt>
      <trkpt lat="45.75059" lon="5.88162">
        <ele>236</ele>
        <time>2022-05-01T12:38:14.898Z</time>
      </trkpt>
      <trkpt lat="45.75056" lon="5.88164">
        <ele>236</ele>
        <time>2022-05-01T12:38:15.898Z</time>
      </trkpt>
      <trkpt lat="45.75052" lon="5.88167">
        <ele>237</ele>
        <time>2022-05-01T12:38:16.897Z</time>
      </trkpt>
      <trkpt lat="45.75049" lon="5.8817">
        <ele>237</ele>
        <time>2022-05-01T12:38:17.898Z</time>
      </trkpt>
      <trkpt lat="45.75045" lon="5.88172">
        <ele>237</ele>
        <time>2022-05-01T12:38:18.897Z</time>
      </trkpt>
      <trkpt lat="45.75041" lon="5.88174">
        <ele>237</ele>
        <time>2022-05-01T12:38:19.898Z</time>
      </trkpt>
      <trkpt lat="45.75037" lon="5.88177">
        <ele>237</ele>
        <time>2022-05-01T12:38:20.898Z</time>
      </trkpt>
      <trkpt lat="45.75033" lon="5.8818">
        <ele>237</ele>
        <time>2022-05-01T12:38:21.898Z</time>
      </trkpt>
      <trkpt lat="45.75029" lon="5.88183">
        <ele>237</ele>
        <time>2022-05-01T12:38:22.897Z</time>
      </trkpt>
      <trkpt lat="45.75025" lon="5.88186">
        <ele>236</ele>
        <time>2022-05-01T12:38:23.898Z</time>
      </trkpt>
      <trkpt lat="45.75021" lon="5.88189">
        <ele>236</ele>
        <time>2022-05-01T12:38:24.898Z</time>
      </trkpt>
      <trkpt lat="45.75016" lon="5.88193">
        <ele>236</ele>
        <time>2022-05-01T12:38:25.897Z</time>
      </trkpt>
      <trkpt lat="45.75012" lon="5.88196">
        <ele>236</ele>
        <time>2022-05-01T12:38:26.898Z</time>
      </trkpt>
      <trkpt lat="45.75007" lon="5.88199">
        <ele>236</ele>
        <time>2022-05-01T12:38:27.897Z</time>
      </trkpt>
      <trkpt lat="45.75003" lon="5.88202">
        <ele>236</ele>
        <time>2022-05-01T12:38:28.898Z</time>
      </trkpt>
      <trkpt lat="45.74999" lon="5.88206">
        <ele>236</ele>
        <time>2022-05-01T12:38:29.898Z</time>
      </trkpt>
      <trkpt lat="45.74994" lon="5.88209">
        <ele>236</ele>
        <time>2022-05-01T12:38:30.898Z</time>
      </trkpt>
      <trkpt lat="45.7499" lon="5.88212">
        <ele>236</ele>
        <time>2022-05-01T12:38:31.897Z</time>
      </trkpt>
      <trkpt lat="45.74986" lon="5.88215">
        <ele>236</ele>
        <time>2022-05-01T12:38:32.897Z</time>
      </trkpt>
      <trkpt lat="45.74982" lon="5.88219">
        <ele>235</ele>
        <time>2022-05-01T12:38:33.898Z</time>
      </trkpt>
      <trkpt lat="45.74978" lon="5.88222">
        <ele>236</ele>
        <time>2022-05-01T12:38:34.898Z</time>
      </trkpt>
      <trkpt lat="45.74974" lon="5.88225">
        <ele>236</ele>
        <time>2022-05-01T12:38:35.898Z</time>
      </trkpt>
      <trkpt lat="45.7497" lon="5.88229">
        <ele>236</ele>
        <time>2022-05-01T12:38:36.897Z</time>
      </trkpt>
      <trkpt lat="45.74965" lon="5.88232">
        <ele>236</ele>
        <time>2022-05-01T12:38:37.897Z</time>
      </trkpt>
      <trkpt lat="45.74961" lon="5.88235">
        <ele>235</ele>
        <time>2022-05-01T12:38:38.898Z</time>
      </trkpt>
      <trkpt lat="45.74957" lon="5.88238">
        <ele>235</ele>
        <time>2022-05-01T12:38:39.898Z</time>
      </trkpt>
      <trkpt lat="45.74953" lon="5.88242">
        <ele>234</ele>
        <time>2022-05-01T12:38:40.898Z</time>
      </trkpt>
      <trkpt lat="45.74949" lon="5.88244">
        <ele>234</ele>
        <time>2022-05-01T12:38:41.897Z</time>
      </trkpt>
      <trkpt lat="45.74945" lon="5.88248">
        <ele>234</ele>
        <time>2022-05-01T12:38:42.898Z</time>
      </trkpt>
      <trkpt lat="45.7494" lon="5.88252">
        <ele>234</ele>
        <time>2022-05-01T12:38:43.898Z</time>
      </trkpt>
      <trkpt lat="45.74937" lon="5.88254">
        <ele>234</ele>
        <time>2022-05-01T12:38:44.897Z</time>
      </trkpt>
      <trkpt lat="45.74932" lon="5.88258">
        <ele>233</ele>
        <time>2022-05-01T12:38:45.898Z</time>
      </trkpt>
      <trkpt lat="45.74928" lon="5.88262">
        <ele>233</ele>
        <time>2022-05-01T12:38:46.898Z</time>
      </trkpt>
      <trkpt lat="45.74924" lon="5.88265">
        <ele>233</ele>
        <time>2022-05-01T12:38:47.897Z</time>
      </trkpt>
      <trkpt lat="45.74919" lon="5.88269">
        <ele>233</ele>
        <time>2022-05-01T12:38:48.898Z</time>
      </trkpt>
      <trkpt lat="45.74916" lon="5.88271">
        <ele>234</ele>
        <time>2022-05-01T12:38:49.898Z</time>
      </trkpt>
      <trkpt lat="45.7491" lon="5.88275">
        <ele>234</ele>
        <time>2022-05-01T12:38:50.897Z</time>
      </trkpt>
      <trkpt lat="45.74906" lon="5.88279">
        <ele>234</ele>
        <time>2022-05-01T12:38:51.897Z</time>
      </trkpt>
      <trkpt lat="45.74901" lon="5.88283">
        <ele>234</ele>
        <time>2022-05-01T12:38:52.897Z</time>
      </trkpt>
      <trkpt lat="45.74897" lon="5.88286">
        <ele>234</ele>
        <time>2022-05-01T12:38:53.898Z</time>
      </trkpt>
      <trkpt lat="45.74892" lon="5.8829">
        <ele>234</ele>
        <time>2022-05-01T12:38:54.898Z</time>
      </trkpt>
      <trkpt lat="45.74887" lon="5.88294">
        <ele>235</ele>
        <time>2022-05-01T12:38:55.898Z</time>
      </trkpt>
      <trkpt lat="45.74883" lon="5.88298">
        <ele>235</ele>
        <time>2022-05-01T12:38:56.897Z</time>
      </trkpt>
      <trkpt lat="45.74879" lon="5.88301">
        <ele>235</ele>
        <time>2022-05-01T12:38:57.897Z</time>
      </trkpt>
      <trkpt lat="45.74874" lon="5.88305">
        <ele>235</ele>
        <time>2022-05-01T12:38:58.898Z</time>
      </trkpt>
      <trkpt lat="45.74871" lon="5.88308">
        <ele>235</ele>
        <time>2022-05-01T12:38:59.897Z</time>
      </trkpt>
      <trkpt lat="45.74865" lon="5.88312">
        <ele>236</ele>
        <time>2022-05-01T12:39:00.898Z</time>
      </trkpt>
      <trkpt lat="45.74861" lon="5.88315">
        <ele>237</ele>
        <time>2022-05-01T12:39:01.897Z</time>
      </trkpt>
      <trkpt lat="45.74856" lon="5.88319">
        <ele>237</ele>
        <time>2022-05-01T12:39:02.897Z</time>
      </trkpt>
      <trkpt lat="45.74853" lon="5.88321">
        <ele>238</ele>
        <time>2022-05-01T12:39:03.898Z</time>
      </trkpt>
      <trkpt lat="45.74848" lon="5.88326">
        <ele>238</ele>
        <time>2022-05-01T12:39:04.897Z</time>
      </trkpt>
      <trkpt lat="45.74844" lon="5.8833">
        <ele>239</ele>
        <time>2022-05-01T12:39:05.897Z</time>
      </trkpt>
      <trkpt lat="45.7484" lon="5.88334">
        <ele>239</ele>
        <time>2022-05-01T12:39:06.897Z</time>
      </trkpt>
      <trkpt lat="45.74836" lon="5.88337">
        <ele>239</ele>
        <time>2022-05-01T12:39:07.897Z</time>
      </trkpt>
      <trkpt lat="45.74831" lon="5.88342">
        <ele>239</ele>
        <time>2022-05-01T12:39:08.898Z</time>
      </trkpt>
      <trkpt lat="45.74827" lon="5.88345">
        <ele>240</ele>
        <time>2022-05-01T12:39:09.898Z</time>
      </trkpt>
      <trkpt lat="45.74823" lon="5.88349">
        <ele>239</ele>
        <time>2022-05-01T12:39:10.897Z</time>
      </trkpt>
      <trkpt lat="45.74819" lon="5.88352">
        <ele>239</ele>
        <time>2022-05-01T12:39:11.898Z</time>
      </trkpt>
      <trkpt lat="45.74816" lon="5.88355">
        <ele>239</ele>
        <time>2022-05-01T12:39:12.897Z</time>
      </trkpt>
      <trkpt lat="45.74812" lon="5.88358">
        <ele>239</ele>
        <time>2022-05-01T12:39:13.898Z</time>
      </trkpt>
      <trkpt lat="45.74808" lon="5.88361">
        <ele>239</ele>
        <time>2022-05-01T12:39:14.898Z</time>
      </trkpt>
      <trkpt lat="45.74804" lon="5.88365">
        <ele>239</ele>
        <time>2022-05-01T12:39:15.898Z</time>
      </trkpt>
      <trkpt lat="45.748" lon="5.88369">
        <ele>239</ele>
        <time>2022-05-01T12:39:16.897Z</time>
      </trkpt>
      <trkpt lat="45.74796" lon="5.88373">
        <ele>238</ele>
        <time>2022-05-01T12:39:17.897Z</time>
      </trkpt>
      <trkpt lat="45.74792" lon="5.88376">
        <ele>238</ele>
        <time>2022-05-01T12:39:18.897Z</time>
      </trkpt>
      <trkpt lat="45.74788" lon="5.88379">
        <ele>238</ele>
        <time>2022-05-01T12:39:19.898Z</time>
      </trkpt>
      <trkpt lat="45.74784" lon="5.88383">
        <ele>238</ele>
        <time>2022-05-01T12:39:20.898Z</time>
      </trkpt>
      <trkpt lat="45.74778" lon="5.88386">
        <ele>238</ele>
        <time>2022-05-01T12:39:21.897Z</time>
      </trkpt>
      <trkpt lat="45.74774" lon="5.88389">
        <ele>238</ele>
        <time>2022-05-01T12:39:22.897Z</time>
      </trkpt>
      <trkpt lat="45.74769" lon="5.88392">
        <ele>238</ele>
        <time>2022-05-01T12:39:23.897Z</time>
      </trkpt>
      <trkpt lat="45.74765" lon="5.88395">
        <ele>238</ele>
        <time>2022-05-01T12:39:24.897Z</time>
      </trkpt>
      <trkpt lat="45.7476" lon="5.88398">
        <ele>238</ele>
        <time>2022-05-01T12:39:25.898Z</time>
      </trkpt>
      <trkpt lat="45.74756" lon="5.88401">
        <ele>238</ele>
        <time>2022-05-01T12:39:26.897Z</time>
      </trkpt>
      <trkpt lat="45.74751" lon="5.88404">
        <ele>238</ele>
        <time>2022-05-01T12:39:27.897Z</time>
      </trkpt>
      <trkpt lat="45.74747" lon="5.88407">
        <ele>238</ele>
        <time>2022-05-01T12:39:28.898Z</time>
      </trkpt>
      <trkpt lat="45.74742" lon="5.8841">
        <ele>238</ele>
        <time>2022-05-01T12:39:29.898Z</time>
      </trkpt>
      <trkpt lat="45.74737" lon="5.88413">
        <ele>238</ele>
        <time>2022-05-01T12:39:30.898Z</time>
      </trkpt>
      <trkpt lat="45.74732" lon="5.88415">
        <ele>237</ele>
        <time>2022-05-01T12:39:31.897Z</time>
      </trkpt>
      <trkpt lat="45.74727" lon="5.88417">
        <ele>237</ele>
        <time>2022-05-01T12:39:32.897Z</time>
      </trkpt>
      <trkpt lat="45.74721" lon="5.88418">
        <ele>237</ele>
        <time>2022-05-01T12:39:33.897Z</time>
      </trkpt>
      <trkpt lat="45.74716" lon="5.8842">
        <ele>237</ele>
        <time>2022-05-01T12:39:34.897Z</time>
      </trkpt>
      <trkpt lat="45.74712" lon="5.88422">
        <ele>237</ele>
        <time>2022-05-01T12:39:35.898Z</time>
      </trkpt>
      <trkpt lat="45.74707" lon="5.88424">
        <ele>237</ele>
        <time>2022-05-01T12:39:36.898Z</time>
      </trkpt>
      <trkpt lat="45.74702" lon="5.88428">
        <ele>237</ele>
        <time>2022-05-01T12:39:37.897Z</time>
      </trkpt>
      <trkpt lat="45.74698" lon="5.88431">
        <ele>237</ele>
        <time>2022-05-01T12:39:38.898Z</time>
      </trkpt>
      <trkpt lat="45.74693" lon="5.88435">
        <ele>237</ele>
        <time>2022-05-01T12:39:39.898Z</time>
      </trkpt>
      <trkpt lat="45.74689" lon="5.88439">
        <ele>236</ele>
        <time>2022-05-01T12:39:40.898Z</time>
      </trkpt>
      <trkpt lat="45.74685" lon="5.88444">
        <ele>236</ele>
        <time>2022-05-01T12:39:41.897Z</time>
      </trkpt>
      <trkpt lat="45.74681" lon="5.88448">
        <ele>236</ele>
        <time>2022-05-01T12:39:42.897Z</time>
      </trkpt>
      <trkpt lat="45.74676" lon="5.88452">
        <ele>237</ele>
        <time>2022-05-01T12:39:43.897Z</time>
      </trkpt>
      <trkpt lat="45.74673" lon="5.88457">
        <ele>237</ele>
        <time>2022-05-01T12:39:44.898Z</time>
      </trkpt>
      <trkpt lat="45.74669" lon="5.88461">
        <ele>237</ele>
        <time>2022-05-01T12:39:45.898Z</time>
      </trkpt>
      <trkpt lat="45.74666" lon="5.88466">
        <ele>237</ele>
        <time>2022-05-01T12:39:46.897Z</time>
      </trkpt>
      <trkpt lat="45.74662" lon="5.8847">
        <ele>237</ele>
        <time>2022-05-01T12:39:47.897Z</time>
      </trkpt>
      <trkpt lat="45.74659" lon="5.88475">
        <ele>237</ele>
        <time>2022-05-01T12:39:48.898Z</time>
      </trkpt>
      <trkpt lat="45.74655" lon="5.8848">
        <ele>237</ele>
        <time>2022-05-01T12:39:49.898Z</time>
      </trkpt>
      <trkpt lat="45.74651" lon="5.88484">
        <ele>237</ele>
        <time>2022-05-01T12:39:50.898Z</time>
      </trkpt>
      <trkpt lat="45.74646" lon="5.88488">
        <ele>237</ele>
        <time>2022-05-01T12:39:51.898Z</time>
      </trkpt>
      <trkpt lat="45.74642" lon="5.88491">
        <ele>237</ele>
        <time>2022-05-01T12:39:52.898Z</time>
      </trkpt>
      <trkpt lat="45.74638" lon="5.88494">
        <ele>237</ele>
        <time>2022-05-01T12:39:53.898Z</time>
      </trkpt>
      <trkpt lat="45.74633" lon="5.88497">
        <ele>237</ele>
        <time>2022-05-01T12:39:54.898Z</time>
      </trkpt>
      <trkpt lat="45.74628" lon="5.88499">
        <ele>237</ele>
        <time>2022-05-01T12:39:55.898Z</time>
      </trkpt>
      <trkpt lat="45.74623" lon="5.88501">
        <ele>237</ele>
        <time>2022-05-01T12:39:56.898Z</time>
      </trkpt>
      <trkpt lat="45.74618" lon="5.88502">
        <ele>237</ele>
        <time>2022-05-01T12:39:57.898Z</time>
      </trkpt>
      <trkpt lat="45.74613" lon="5.88504">
        <ele>237</ele>
        <time>2022-05-01T12:39:58.897Z</time>
      </trkpt>
      <trkpt lat="45.74608" lon="5.88505">
        <ele>237</ele>
        <time>2022-05-01T12:39:59.898Z</time>
      </trkpt>
      <trkpt lat="45.74603" lon="5.88508">
        <ele>237</ele>
        <time>2022-05-01T12:40:00.898Z</time>
      </trkpt>
      <trkpt lat="45.74599" lon="5.88511">
        <ele>237</ele>
        <time>2022-05-01T12:40:01.898Z</time>
      </trkpt>
      <trkpt lat="45.74594" lon="5.88516">
        <ele>237</ele>
        <time>2022-05-01T12:40:02.897Z</time>
      </trkpt>
      <trkpt lat="45.7459" lon="5.8852">
        <ele>237</ele>
        <time>2022-05-01T12:40:03.897Z</time>
      </trkpt>
      <trkpt lat="45.74586" lon="5.88525">
        <ele>237</ele>
        <time>2022-05-01T12:40:04.897Z</time>
      </trkpt>
      <trkpt lat="45.74581" lon="5.88529">
        <ele>237</ele>
        <time>2022-05-01T12:40:05.897Z</time>
      </trkpt>
      <trkpt lat="45.74576" lon="5.88532">
        <ele>237</ele>
        <time>2022-05-01T12:40:06.897Z</time>
      </trkpt>
      <trkpt lat="45.74571" lon="5.88535">
        <ele>238</ele>
        <time>2022-05-01T12:40:07.897Z</time>
      </trkpt>
      <trkpt lat="45.74567" lon="5.88537">
        <ele>238</ele>
        <time>2022-05-01T12:40:08.898Z</time>
      </trkpt>
      <trkpt lat="45.74561" lon="5.8854">
        <ele>238</ele>
        <time>2022-05-01T12:40:09.897Z</time>
      </trkpt>
      <trkpt lat="45.74556" lon="5.88544">
        <ele>237</ele>
        <time>2022-05-01T12:40:10.897Z</time>
      </trkpt>
      <trkpt lat="45.74551" lon="5.88548">
        <ele>237</ele>
        <time>2022-05-01T12:40:11.898Z</time>
      </trkpt>
      <trkpt lat="45.74546" lon="5.88552">
        <ele>237</ele>
        <time>2022-05-01T12:40:12.898Z</time>
      </trkpt>
      <trkpt lat="45.74541" lon="5.88556">
        <ele>238</ele>
        <time>2022-05-01T12:40:13.898Z</time>
      </trkpt>
      <trkpt lat="45.74537" lon="5.8856">
        <ele>238</ele>
        <time>2022-05-01T12:40:14.898Z</time>
      </trkpt>
      <trkpt lat="45.74533" lon="5.88564">
        <ele>238</ele>
        <time>2022-05-01T12:40:15.897Z</time>
      </trkpt>
      <trkpt lat="45.74529" lon="5.88569">
        <ele>237</ele>
        <time>2022-05-01T12:40:16.897Z</time>
      </trkpt>
      <trkpt lat="45.74525" lon="5.88574">
        <ele>237</ele>
        <time>2022-05-01T12:40:17.898Z</time>
      </trkpt>
      <trkpt lat="45.7452" lon="5.88579">
        <ele>237</ele>
        <time>2022-05-01T12:40:18.898Z</time>
      </trkpt>
      <trkpt lat="45.74516" lon="5.88584">
        <ele>237</ele>
        <time>2022-05-01T12:40:19.898Z</time>
      </trkpt>
      <trkpt lat="45.74512" lon="5.88588">
        <ele>236</ele>
        <time>2022-05-01T12:40:20.898Z</time>
      </trkpt>
      <trkpt lat="45.74509" lon="5.88592">
        <ele>237</ele>
        <time>2022-05-01T12:40:21.898Z</time>
      </trkpt>
      <trkpt lat="45.74505" lon="5.88597">
        <ele>237</ele>
        <time>2022-05-01T12:40:22.898Z</time>
      </trkpt>
      <trkpt lat="45.74501" lon="5.88601">
        <ele>237</ele>
        <time>2022-05-01T12:40:23.898Z</time>
      </trkpt>
      <trkpt lat="45.74497" lon="5.88606">
        <ele>237</ele>
        <time>2022-05-01T12:40:24.898Z</time>
      </trkpt>
      <trkpt lat="45.74492" lon="5.88611">
        <ele>237</ele>
        <time>2022-05-01T12:40:25.898Z</time>
      </trkpt>
      <trkpt lat="45.74488" lon="5.88616">
        <ele>238</ele>
        <time>2022-05-01T12:40:26.898Z</time>
      </trkpt>
      <trkpt lat="45.74484" lon="5.88621">
        <ele>238</ele>
        <time>2022-05-01T12:40:27.898Z</time>
      </trkpt>
      <trkpt lat="45.74481" lon="5.88627">
        <ele>238</ele>
        <time>2022-05-01T12:40:28.897Z</time>
      </trkpt>
      <trkpt lat="45.74478" lon="5.88632">
        <ele>238</ele>
        <time>2022-05-01T12:40:29.898Z</time>
      </trkpt>
      <trkpt lat="45.74475" lon="5.88639">
        <ele>239</ele>
        <time>2022-05-01T12:40:30.898Z</time>
      </trkpt>
      <trkpt lat="45.74472" lon="5.88645">
        <ele>239</ele>
        <time>2022-05-01T12:40:31.898Z</time>
      </trkpt>
      <trkpt lat="45.74468" lon="5.88651">
        <ele>238</ele>
        <time>2022-05-01T12:40:32.898Z</time>
      </trkpt>
      <trkpt lat="45.74464" lon="5.88656">
        <ele>238</ele>
        <time>2022-05-01T12:40:33.898Z</time>
      </trkpt>
      <trkpt lat="45.7446" lon="5.88661">
        <ele>238</ele>
        <time>2022-05-01T12:40:34.898Z</time>
      </trkpt>
      <trkpt lat="45.74456" lon="5.88665">
        <ele>238</ele>
        <time>2022-05-01T12:40:35.897Z</time>
      </trkpt>
      <trkpt lat="45.74452" lon="5.8867">
        <ele>238</ele>
        <time>2022-05-01T12:40:36.897Z</time>
      </trkpt>
      <trkpt lat="45.74449" lon="5.88674">
        <ele>238</ele>
        <time>2022-05-01T12:40:37.898Z</time>
      </trkpt>
      <trkpt lat="45.74444" lon="5.8868">
        <ele>238</ele>
        <time>2022-05-01T12:40:38.898Z</time>
      </trkpt>
      <trkpt lat="45.74441" lon="5.88685">
        <ele>238</ele>
        <time>2022-05-01T12:40:39.898Z</time>
      </trkpt>
      <trkpt lat="45.74437" lon="5.88691">
        <ele>238</ele>
        <time>2022-05-01T12:40:40.898Z</time>
      </trkpt>
      <trkpt lat="45.74433" lon="5.88696">
        <ele>238</ele>
        <time>2022-05-01T12:40:41.898Z</time>
      </trkpt>
      <trkpt lat="45.74429" lon="5.88702">
        <ele>238</ele>
        <time>2022-05-01T12:40:42.897Z</time>
      </trkpt>
      <trkpt lat="45.74425" lon="5.88708">
        <ele>238</ele>
        <time>2022-05-01T12:40:43.898Z</time>
      </trkpt>
      <trkpt lat="45.7442" lon="5.88713">
        <ele>238</ele>
        <time>2022-05-01T12:40:44.898Z</time>
      </trkpt>
      <trkpt lat="45.74415" lon="5.88718">
        <ele>238</ele>
        <time>2022-05-01T12:40:45.898Z</time>
      </trkpt>
      <trkpt lat="45.74411" lon="5.88722">
        <ele>238</ele>
        <time>2022-05-01T12:40:46.898Z</time>
      </trkpt>
      <trkpt lat="45.74405" lon="5.88727">
        <ele>238</ele>
        <time>2022-05-01T12:40:47.898Z</time>
      </trkpt>
      <trkpt lat="45.744" lon="5.8873">
        <ele>238</ele>
        <time>2022-05-01T12:40:48.898Z</time>
      </trkpt>
      <trkpt lat="45.74395" lon="5.88734">
        <ele>238</ele>
        <time>2022-05-01T12:40:49.898Z</time>
      </trkpt>
      <trkpt lat="45.7439" lon="5.88738">
        <ele>238</ele>
        <time>2022-05-01T12:40:50.897Z</time>
      </trkpt>
      <trkpt lat="45.74385" lon="5.88742">
        <ele>238</ele>
        <time>2022-05-01T12:40:51.897Z</time>
      </trkpt>
      <trkpt lat="45.7438" lon="5.88747">
        <ele>237</ele>
        <time>2022-05-01T12:40:52.898Z</time>
      </trkpt>
      <trkpt lat="45.74376" lon="5.88752">
        <ele>237</ele>
        <time>2022-05-01T12:40:53.897Z</time>
      </trkpt>
      <trkpt lat="45.74371" lon="5.88758">
        <ele>237</ele>
        <time>2022-05-01T12:40:54.898Z</time>
      </trkpt>
      <trkpt lat="45.74368" lon="5.88764">
        <ele>237</ele>
        <time>2022-05-01T12:40:55.898Z</time>
      </trkpt>
      <trkpt lat="45.74365" lon="5.88769">
        <ele>237</ele>
        <time>2022-05-01T12:40:56.898Z</time>
      </trkpt>
      <trkpt lat="45.7436" lon="5.88776">
        <ele>237</ele>
        <time>2022-05-01T12:40:57.898Z</time>
      </trkpt>
      <trkpt lat="45.74357" lon="5.88782">
        <ele>237</ele>
        <time>2022-05-01T12:40:58.898Z</time>
      </trkpt>
      <trkpt lat="45.74352" lon="5.88788">
        <ele>237</ele>
        <time>2022-05-01T12:40:59.897Z</time>
      </trkpt>
      <trkpt lat="45.74348" lon="5.88794">
        <ele>237</ele>
        <time>2022-05-01T12:41:00.898Z</time>
      </trkpt>
      <trkpt lat="45.74344" lon="5.888">
        <ele>237</ele>
        <time>2022-05-01T12:41:01.898Z</time>
      </trkpt>
      <trkpt lat="45.74341" lon="5.88806">
        <ele>237</ele>
        <time>2022-05-01T12:41:02.898Z</time>
      </trkpt>
      <trkpt lat="45.74338" lon="5.88812">
        <ele>237</ele>
        <time>2022-05-01T12:41:03.898Z</time>
      </trkpt>
      <trkpt lat="45.74334" lon="5.88819">
        <ele>237</ele>
        <time>2022-05-01T12:41:04.897Z</time>
      </trkpt>
      <trkpt lat="45.74331" lon="5.88826">
        <ele>236</ele>
        <time>2022-05-01T12:41:05.898Z</time>
      </trkpt>
      <trkpt lat="45.74327" lon="5.88832">
        <ele>236</ele>
        <time>2022-05-01T12:41:06.897Z</time>
      </trkpt>
      <trkpt lat="45.74323" lon="5.88837">
        <ele>235</ele>
        <time>2022-05-01T12:41:07.897Z</time>
      </trkpt>
      <trkpt lat="45.74319" lon="5.88843">
        <ele>235</ele>
        <time>2022-05-01T12:41:08.898Z</time>
      </trkpt>
      <trkpt lat="45.74314" lon="5.88847">
        <ele>235</ele>
        <time>2022-05-01T12:41:09.898Z</time>
      </trkpt>
      <trkpt lat="45.74309" lon="5.88852">
        <ele>234</ele>
        <time>2022-05-01T12:41:10.898Z</time>
      </trkpt>
      <trkpt lat="45.74305" lon="5.88856">
        <ele>234</ele>
        <time>2022-05-01T12:41:11.898Z</time>
      </trkpt>
      <trkpt lat="45.74301" lon="5.88861">
        <ele>234</ele>
        <time>2022-05-01T12:41:12.898Z</time>
      </trkpt>
      <trkpt lat="45.74296" lon="5.88865">
        <ele>234</ele>
        <time>2022-05-01T12:41:13.898Z</time>
      </trkpt>
      <trkpt lat="45.74291" lon="5.88869">
        <ele>235</ele>
        <time>2022-05-01T12:41:14.898Z</time>
      </trkpt>
      <trkpt lat="45.74285" lon="5.88873">
        <ele>235</ele>
        <time>2022-05-01T12:41:15.898Z</time>
      </trkpt>
      <trkpt lat="45.7428" lon="5.88876">
        <ele>236</ele>
        <time>2022-05-01T12:41:16.898Z</time>
      </trkpt>
      <trkpt lat="45.74275" lon="5.88878">
        <ele>236</ele>
        <time>2022-05-01T12:41:17.898Z</time>
      </trkpt>
      <trkpt lat="45.7427" lon="5.88881">
        <ele>237</ele>
        <time>2022-05-01T12:41:18.898Z</time>
      </trkpt>
      <trkpt lat="45.74264" lon="5.88883">
        <ele>237</ele>
        <time>2022-05-01T12:41:19.898Z</time>
      </trkpt>
      <trkpt lat="45.74259" lon="5.88886">
        <ele>237</ele>
        <time>2022-05-01T12:41:20.898Z</time>
      </trkpt>
      <trkpt lat="45.74255" lon="5.88889">
        <ele>237</ele>
        <time>2022-05-01T12:41:21.897Z</time>
      </trkpt>
      <trkpt lat="45.7425" lon="5.88892">
        <ele>236</ele>
        <time>2022-05-01T12:41:22.898Z</time>
      </trkpt>
      <trkpt lat="45.74247" lon="5.88895">
        <ele>235</ele>
        <time>2022-05-01T12:41:23.898Z</time>
      </trkpt>
      <trkpt lat="45.74242" lon="5.88899">
        <ele>235</ele>
        <time>2022-05-01T12:41:24.898Z</time>
      </trkpt>
      <trkpt lat="45.74237" lon="5.88902">
        <ele>234</ele>
        <time>2022-05-01T12:41:25.898Z</time>
      </trkpt>
      <trkpt lat="45.74233" lon="5.88905">
        <ele>234</ele>
        <time>2022-05-01T12:41:26.897Z</time>
      </trkpt>
      <trkpt lat="45.74228" lon="5.88908">
        <ele>234</ele>
        <time>2022-05-01T12:41:27.897Z</time>
      </trkpt>
      <trkpt lat="45.74225" lon="5.88912">
        <ele>233</ele>
        <time>2022-05-01T12:41:28.898Z</time>
      </trkpt>
      <trkpt lat="45.7422" lon="5.88917">
        <ele>233</ele>
        <time>2022-05-01T12:41:29.898Z</time>
      </trkpt>
      <trkpt lat="45.74216" lon="5.88921">
        <ele>234</ele>
        <time>2022-05-01T12:41:30.898Z</time>
      </trkpt>
      <trkpt lat="45.74211" lon="5.88926">
        <ele>234</ele>
        <time>2022-05-01T12:41:31.897Z</time>
      </trkpt>
      <trkpt lat="45.74207" lon="5.8893">
        <ele>234</ele>
        <time>2022-05-01T12:41:32.898Z</time>
      </trkpt>
      <trkpt lat="45.74203" lon="5.88934">
        <ele>235</ele>
        <time>2022-05-01T12:41:33.898Z</time>
      </trkpt>
      <trkpt lat="45.74198" lon="5.88938">
        <ele>235</ele>
        <time>2022-05-01T12:41:34.898Z</time>
      </trkpt>
      <trkpt lat="45.74194" lon="5.88943">
        <ele>235</ele>
        <time>2022-05-01T12:41:35.898Z</time>
      </trkpt>
      <trkpt lat="45.7419" lon="5.88947">
        <ele>235</ele>
        <time>2022-05-01T12:41:36.898Z</time>
      </trkpt>
      <trkpt lat="45.74185" lon="5.88951">
        <ele>235</ele>
        <time>2022-05-01T12:41:37.898Z</time>
      </trkpt>
      <trkpt lat="45.74181" lon="5.88955">
        <ele>235</ele>
        <time>2022-05-01T12:41:38.897Z</time>
      </trkpt>
      <trkpt lat="45.74176" lon="5.88958">
        <ele>234</ele>
        <time>2022-05-01T12:41:39.898Z</time>
      </trkpt>
      <trkpt lat="45.74172" lon="5.88961">
        <ele>234</ele>
        <time>2022-05-01T12:41:40.897Z</time>
      </trkpt>
      <trkpt lat="45.74167" lon="5.88965">
        <ele>234</ele>
        <time>2022-05-01T12:41:41.898Z</time>
      </trkpt>
      <trkpt lat="45.74163" lon="5.88968">
        <ele>234</ele>
        <time>2022-05-01T12:41:42.897Z</time>
      </trkpt>
      <trkpt lat="45.74159" lon="5.88971">
        <ele>234</ele>
        <time>2022-05-01T12:41:43.898Z</time>
      </trkpt>
      <trkpt lat="45.74155" lon="5.88975">
        <ele>234</ele>
        <time>2022-05-01T12:41:44.898Z</time>
      </trkpt>
      <trkpt lat="45.74151" lon="5.88978">
        <ele>234</ele>
        <time>2022-05-01T12:41:45.897Z</time>
      </trkpt>
      <trkpt lat="45.74147" lon="5.88981">
        <ele>234</ele>
        <time>2022-05-01T12:41:46.898Z</time>
      </trkpt>
      <trkpt lat="45.74143" lon="5.88984">
        <ele>234</ele>
        <time>2022-05-01T12:41:47.897Z</time>
      </trkpt>
      <trkpt lat="45.74139" lon="5.88988">
        <ele>234</ele>
        <time>2022-05-01T12:41:48.898Z</time>
      </trkpt>
      <trkpt lat="45.74135" lon="5.88991">
        <ele>234</ele>
        <time>2022-05-01T12:41:49.898Z</time>
      </trkpt>
      <trkpt lat="45.74131" lon="5.88994">
        <ele>233</ele>
        <time>2022-05-01T12:41:50.898Z</time>
      </trkpt>
      <trkpt lat="45.74127" lon="5.88998">
        <ele>233</ele>
        <time>2022-05-01T12:41:51.898Z</time>
      </trkpt>
      <trkpt lat="45.74123" lon="5.89001">
        <ele>233</ele>
        <time>2022-05-01T12:41:52.898Z</time>
      </trkpt>
      <trkpt lat="45.74119" lon="5.89005">
        <ele>233</ele>
        <time>2022-05-01T12:41:53.898Z</time>
      </trkpt>
      <trkpt lat="45.74115" lon="5.89009">
        <ele>234</ele>
        <time>2022-05-01T12:41:54.897Z</time>
      </trkpt>
      <trkpt lat="45.74112" lon="5.89012">
        <ele>234</ele>
        <time>2022-05-01T12:41:55.898Z</time>
      </trkpt>
      <trkpt lat="45.74108" lon="5.89016">
        <ele>235</ele>
        <time>2022-05-01T12:41:56.897Z</time>
      </trkpt>
      <trkpt lat="45.74104" lon="5.8902">
        <ele>235</ele>
        <time>2022-05-01T12:41:57.898Z</time>
      </trkpt>
      <trkpt lat="45.74101" lon="5.89024">
        <ele>236</ele>
        <time>2022-05-01T12:41:58.897Z</time>
      </trkpt>
      <trkpt lat="45.74097" lon="5.89026">
        <ele>236</ele>
        <time>2022-05-01T12:41:59.898Z</time>
      </trkpt>
      <trkpt lat="45.74093" lon="5.89029">
        <ele>236</ele>
        <time>2022-05-01T12:42:00.898Z</time>
      </trkpt>
      <trkpt lat="45.7409" lon="5.89031">
        <ele>236</ele>
        <time>2022-05-01T12:42:01.898Z</time>
      </trkpt>
      <trkpt lat="45.74086" lon="5.89034">
        <ele>237</ele>
        <time>2022-05-01T12:42:02.898Z</time>
      </trkpt>
      <trkpt lat="45.74082" lon="5.89037">
        <ele>237</ele>
        <time>2022-05-01T12:42:03.898Z</time>
      </trkpt>
      <trkpt lat="45.74078" lon="5.89041">
        <ele>237</ele>
        <time>2022-05-01T12:42:04.897Z</time>
      </trkpt>
      <trkpt lat="45.74075" lon="5.89046">
        <ele>237</ele>
        <time>2022-05-01T12:42:05.897Z</time>
      </trkpt>
      <trkpt lat="45.74071" lon="5.89051">
        <ele>238</ele>
        <time>2022-05-01T12:42:06.898Z</time>
      </trkpt>
      <trkpt lat="45.7405" lon="5.89082">
        <ele>238</ele>
        <time>2022-05-01T12:42:13.898Z</time>
      </trkpt>
      <trkpt lat="45.74047" lon="5.89083">
        <ele>238</ele>
        <time>2022-05-01T12:42:14.897Z</time>
      </trkpt>
      <trkpt lat="45.74042" lon="5.89089">
        <ele>239</ele>
        <time>2022-05-01T12:42:15.898Z</time>
      </trkpt>
      <trkpt lat="45.74039" lon="5.89092">
        <ele>239</ele>
        <time>2022-05-01T12:42:16.898Z</time>
      </trkpt>
      <trkpt lat="45.74036" lon="5.89094">
        <ele>239</ele>
        <time>2022-05-01T12:42:17.898Z</time>
      </trkpt>
      <trkpt lat="45.74033" lon="5.89097">
        <ele>239</ele>
        <time>2022-05-01T12:42:18.898Z</time>
      </trkpt>
      <trkpt lat="45.7403" lon="5.89101">
        <ele>239</ele>
        <time>2022-05-01T12:42:19.897Z</time>
      </trkpt>
      <trkpt lat="45.74026" lon="5.89104">
        <ele>239</ele>
        <time>2022-05-01T12:42:20.898Z</time>
      </trkpt>
      <trkpt lat="45.74023" lon="5.89108">
        <ele>239</ele>
        <time>2022-05-01T12:42:21.898Z</time>
      </trkpt>
      <trkpt lat="45.74019" lon="5.89112">
        <ele>239</ele>
        <time>2022-05-01T12:42:22.897Z</time>
      </trkpt>
      <trkpt lat="45.74016" lon="5.89116">
        <ele>239</ele>
        <time>2022-05-01T12:42:23.898Z</time>
      </trkpt>
      <trkpt lat="45.74012" lon="5.89119">
        <ele>239</ele>
        <time>2022-05-01T12:42:24.898Z</time>
      </trkpt>
      <trkpt lat="45.74008" lon="5.89122">
        <ele>239</ele>
        <time>2022-05-01T12:42:25.898Z</time>
      </trkpt>
      <trkpt lat="45.74004" lon="5.89125">
        <ele>240</ele>
        <time>2022-05-01T12:42:26.897Z</time>
      </trkpt>
      <trkpt lat="45.74" lon="5.89127">
        <ele>240</ele>
        <time>2022-05-01T12:42:27.898Z</time>
      </trkpt>
      <trkpt lat="45.73995" lon="5.89129">
        <ele>240</ele>
        <time>2022-05-01T12:42:28.898Z</time>
      </trkpt>
      <trkpt lat="45.73992" lon="5.89132">
        <ele>240</ele>
        <time>2022-05-01T12:42:29.898Z</time>
      </trkpt>
      <trkpt lat="45.73988" lon="5.89134">
        <ele>240</ele>
        <time>2022-05-01T12:42:30.898Z</time>
      </trkpt>
      <trkpt lat="45.73984" lon="5.89136">
        <ele>240</ele>
        <time>2022-05-01T12:42:31.897Z</time>
      </trkpt>
      <trkpt lat="45.73981" lon="5.89138">
        <ele>240</ele>
        <time>2022-05-01T12:42:32.898Z</time>
      </trkpt>
      <trkpt lat="45.73978" lon="5.8914">
        <ele>240</ele>
        <time>2022-05-01T12:42:33.898Z</time>
      </trkpt>
      <trkpt lat="45.73973" lon="5.89144">
        <ele>240</ele>
        <time>2022-05-01T12:42:34.898Z</time>
      </trkpt>
      <trkpt lat="45.73969" lon="5.89147">
        <ele>240</ele>
        <time>2022-05-01T12:42:35.898Z</time>
      </trkpt>
      <trkpt lat="45.73966" lon="5.89149">
        <ele>240</ele>
        <time>2022-05-01T12:42:36.897Z</time>
      </trkpt>
      <trkpt lat="45.73964" lon="5.89152">
        <ele>239</ele>
        <time>2022-05-01T12:42:37.898Z</time>
      </trkpt>
      <trkpt lat="45.7396" lon="5.89157">
        <ele>239</ele>
        <time>2022-05-01T12:42:38.898Z</time>
      </trkpt>
      <trkpt lat="45.73957" lon="5.89161">
        <ele>239</ele>
        <time>2022-05-01T12:42:39.898Z</time>
      </trkpt>
      <trkpt lat="45.73953" lon="5.89165">
        <ele>239</ele>
        <time>2022-05-01T12:42:40.898Z</time>
      </trkpt>
      <trkpt lat="45.7395" lon="5.89169">
        <ele>238</ele>
        <time>2022-05-01T12:42:41.897Z</time>
      </trkpt>
      <trkpt lat="45.73947" lon="5.89173">
        <ele>238</ele>
        <time>2022-05-01T12:42:42.898Z</time>
      </trkpt>
      <trkpt lat="45.73943" lon="5.89177">
        <ele>238</ele>
        <time>2022-05-01T12:42:43.898Z</time>
      </trkpt>
      <trkpt lat="45.7394" lon="5.89182">
        <ele>238</ele>
        <time>2022-05-01T12:42:44.898Z</time>
      </trkpt>
      <trkpt lat="45.73937" lon="5.89185">
        <ele>238</ele>
        <time>2022-05-01T12:42:45.897Z</time>
      </trkpt>
      <trkpt lat="45.73934" lon="5.89188">
        <ele>239</ele>
        <time>2022-05-01T12:42:46.898Z</time>
      </trkpt>
      <trkpt lat="45.73929" lon="5.89191">
        <ele>239</ele>
        <time>2022-05-01T12:42:47.897Z</time>
      </trkpt>
      <trkpt lat="45.73924" lon="5.89194">
        <ele>239</ele>
        <time>2022-05-01T12:42:48.898Z</time>
      </trkpt>
      <trkpt lat="45.73919" lon="5.89197">
        <ele>240</ele>
        <time>2022-05-01T12:42:49.898Z</time>
      </trkpt>
      <trkpt lat="45.73914" lon="5.892">
        <ele>240</ele>
        <time>2022-05-01T12:42:50.898Z</time>
      </trkpt>
      <trkpt lat="45.73908" lon="5.89202">
        <ele>240</ele>
        <time>2022-05-01T12:42:51.898Z</time>
      </trkpt>
      <trkpt lat="45.73903" lon="5.89204">
        <ele>240</ele>
        <time>2022-05-01T12:42:52.898Z</time>
      </trkpt>
      <trkpt lat="45.73897" lon="5.89207">
        <ele>240</ele>
        <time>2022-05-01T12:42:53.898Z</time>
      </trkpt>
      <trkpt lat="45.73892" lon="5.89209">
        <ele>240</ele>
        <time>2022-05-01T12:42:54.898Z</time>
      </trkpt>
      <trkpt lat="45.73887" lon="5.89212">
        <ele>241</ele>
        <time>2022-05-01T12:42:55.898Z</time>
      </trkpt>
      <trkpt lat="45.73883" lon="5.89214">
        <ele>241</ele>
        <time>2022-05-01T12:42:56.897Z</time>
      </trkpt>
      <trkpt lat="45.73876" lon="5.89217">
        <ele>241</ele>
        <time>2022-05-01T12:42:57.898Z</time>
      </trkpt>
      <trkpt lat="45.73871" lon="5.89219">
        <ele>241</ele>
        <time>2022-05-01T12:42:58.898Z</time>
      </trkpt>
      <trkpt lat="45.73865" lon="5.89221">
        <ele>241</ele>
        <time>2022-05-01T12:42:59.898Z</time>
      </trkpt>
      <trkpt lat="45.73861" lon="5.89224">
        <ele>241</ele>
        <time>2022-05-01T12:43:00.898Z</time>
      </trkpt>
      <trkpt lat="45.73855" lon="5.89226">
        <ele>241</ele>
        <time>2022-05-01T12:43:01.898Z</time>
      </trkpt>
      <trkpt lat="45.73848" lon="5.89229">
        <ele>241</ele>
        <time>2022-05-01T12:43:02.897Z</time>
      </trkpt>
      <trkpt lat="45.73842" lon="5.89232">
        <ele>241</ele>
        <time>2022-05-01T12:43:03.897Z</time>
      </trkpt>
      <trkpt lat="45.73836" lon="5.89234">
        <ele>241</ele>
        <time>2022-05-01T12:43:04.898Z</time>
      </trkpt>
      <trkpt lat="45.7383" lon="5.89237">
        <ele>241</ele>
        <time>2022-05-01T12:43:05.898Z</time>
      </trkpt>
      <trkpt lat="45.73824" lon="5.89239">
        <ele>241</ele>
        <time>2022-05-01T12:43:06.898Z</time>
      </trkpt>
      <trkpt lat="45.73818" lon="5.89242">
        <ele>241</ele>
        <time>2022-05-01T12:43:07.898Z</time>
      </trkpt>
      <trkpt lat="45.73813" lon="5.89244">
        <ele>241</ele>
        <time>2022-05-01T12:43:08.898Z</time>
      </trkpt>
      <trkpt lat="45.73807" lon="5.89247">
        <ele>241</ele>
        <time>2022-05-01T12:43:09.898Z</time>
      </trkpt>
      <trkpt lat="45.73801" lon="5.8925">
        <ele>241</ele>
        <time>2022-05-01T12:43:10.898Z</time>
      </trkpt>
      <trkpt lat="45.73794" lon="5.89252">
        <ele>241</ele>
        <time>2022-05-01T12:43:11.898Z</time>
      </trkpt>
      <trkpt lat="45.73788" lon="5.89255">
        <ele>241</ele>
        <time>2022-05-01T12:43:12.897Z</time>
      </trkpt>
      <trkpt lat="45.73782" lon="5.89257">
        <ele>241</ele>
        <time>2022-05-01T12:43:13.898Z</time>
      </trkpt>
      <trkpt lat="45.73775" lon="5.89261">
        <ele>241</ele>
        <time>2022-05-01T12:43:14.898Z</time>
      </trkpt>
      <trkpt lat="45.73768" lon="5.89264">
        <ele>241</ele>
        <time>2022-05-01T12:43:15.897Z</time>
      </trkpt>
      <trkpt lat="45.73761" lon="5.89266">
        <ele>241</ele>
        <time>2022-05-01T12:43:16.898Z</time>
      </trkpt>
      <trkpt lat="45.73754" lon="5.89268">
        <ele>241</ele>
        <time>2022-05-01T12:43:17.897Z</time>
      </trkpt>
      <trkpt lat="45.73746" lon="5.89271">
        <ele>240</ele>
        <time>2022-05-01T12:43:18.898Z</time>
      </trkpt>
      <trkpt lat="45.73739" lon="5.89273">
        <ele>240</ele>
        <time>2022-05-01T12:43:19.898Z</time>
      </trkpt>
      <trkpt lat="45.73732" lon="5.89275">
        <ele>241</ele>
        <time>2022-05-01T12:43:20.898Z</time>
      </trkpt>
      <trkpt lat="45.73726" lon="5.89277">
        <ele>241</ele>
        <time>2022-05-01T12:43:21.898Z</time>
      </trkpt>
      <trkpt lat="45.73719" lon="5.8928">
        <ele>241</ele>
        <time>2022-05-01T12:43:22.898Z</time>
      </trkpt>
      <trkpt lat="45.73714" lon="5.89281">
        <ele>240</ele>
        <time>2022-05-01T12:43:23.897Z</time>
      </trkpt>
      <trkpt lat="45.73707" lon="5.89284">
        <ele>240</ele>
        <time>2022-05-01T12:43:24.898Z</time>
      </trkpt>
      <trkpt lat="45.73699" lon="5.89286">
        <ele>239</ele>
        <time>2022-05-01T12:43:25.897Z</time>
      </trkpt>
      <trkpt lat="45.73692" lon="5.89288">
        <ele>239</ele>
        <time>2022-05-01T12:43:26.898Z</time>
      </trkpt>
      <trkpt lat="45.73685" lon="5.8929">
        <ele>239</ele>
        <time>2022-05-01T12:43:27.898Z</time>
      </trkpt>
      <trkpt lat="45.73678" lon="5.89292">
        <ele>238</ele>
        <time>2022-05-01T12:43:28.898Z</time>
      </trkpt>
      <trkpt lat="45.73671" lon="5.89294">
        <ele>238</ele>
        <time>2022-05-01T12:43:29.898Z</time>
      </trkpt>
      <trkpt lat="45.73665" lon="5.89295">
        <ele>238</ele>
        <time>2022-05-01T12:43:30.898Z</time>
      </trkpt>
      <trkpt lat="45.73658" lon="5.89297">
        <ele>238</ele>
        <time>2022-05-01T12:43:31.897Z</time>
      </trkpt>
      <trkpt lat="45.73651" lon="5.89298">
        <ele>237</ele>
        <time>2022-05-01T12:43:32.898Z</time>
      </trkpt>
      <trkpt lat="45.73645" lon="5.89298">
        <ele>237</ele>
        <time>2022-05-01T12:43:33.897Z</time>
      </trkpt>
      <trkpt lat="45.73638" lon="5.89298">
        <ele>236</ele>
        <time>2022-05-01T12:43:34.898Z</time>
      </trkpt>
      <trkpt lat="45.73632" lon="5.89298">
        <ele>236</ele>
        <time>2022-05-01T12:43:35.898Z</time>
      </trkpt>
      <trkpt lat="45.73626" lon="5.89297">
        <ele>236</ele>
        <time>2022-05-01T12:43:36.898Z</time>
      </trkpt>
      <trkpt lat="45.7362" lon="5.89295">
        <ele>236</ele>
        <time>2022-05-01T12:43:37.898Z</time>
      </trkpt>
      <trkpt lat="45.73614" lon="5.89294">
        <ele>236</ele>
        <time>2022-05-01T12:43:38.898Z</time>
      </trkpt>
      <trkpt lat="45.73608" lon="5.89292">
        <ele>235</ele>
        <time>2022-05-01T12:43:39.898Z</time>
      </trkpt>
      <trkpt lat="45.73602" lon="5.8929">
        <ele>235</ele>
        <time>2022-05-01T12:43:40.898Z</time>
      </trkpt>
      <trkpt lat="45.73596" lon="5.89288">
        <ele>235</ele>
        <time>2022-05-01T12:43:41.898Z</time>
      </trkpt>
      <trkpt lat="45.7359" lon="5.89285">
        <ele>235</ele>
        <time>2022-05-01T12:43:42.898Z</time>
      </trkpt>
      <trkpt lat="45.73584" lon="5.89282">
        <ele>236</ele>
        <time>2022-05-01T12:43:43.898Z</time>
      </trkpt>
      <trkpt lat="45.73579" lon="5.89278">
        <ele>236</ele>
        <time>2022-05-01T12:43:44.897Z</time>
      </trkpt>
      <trkpt lat="45.73574" lon="5.89275">
        <ele>236</ele>
        <time>2022-05-01T12:43:45.897Z</time>
      </trkpt>
      <trkpt lat="45.7357" lon="5.89271">
        <ele>236</ele>
        <time>2022-05-01T12:43:46.898Z</time>
      </trkpt>
      <trkpt lat="45.73565" lon="5.89266">
        <ele>236</ele>
        <time>2022-05-01T12:43:47.898Z</time>
      </trkpt>
      <trkpt lat="45.7356" lon="5.89262">
        <ele>236</ele>
        <time>2022-05-01T12:43:48.898Z</time>
      </trkpt>
      <trkpt lat="45.73556" lon="5.89257">
        <ele>236</ele>
        <time>2022-05-01T12:43:49.897Z</time>
      </trkpt>
      <trkpt lat="45.73552" lon="5.89252">
        <ele>236</ele>
        <time>2022-05-01T12:43:50.898Z</time>
      </trkpt>
      <trkpt lat="45.73548" lon="5.89247">
        <ele>236</ele>
        <time>2022-05-01T12:43:51.897Z</time>
      </trkpt>
      <trkpt lat="45.73544" lon="5.89241">
        <ele>237</ele>
        <time>2022-05-01T12:43:52.897Z</time>
      </trkpt>
      <trkpt lat="45.7354" lon="5.89236">
        <ele>237</ele>
        <time>2022-05-01T12:43:53.897Z</time>
      </trkpt>
      <trkpt lat="45.73537" lon="5.8923">
        <ele>237</ele>
        <time>2022-05-01T12:43:54.897Z</time>
      </trkpt>
      <trkpt lat="45.73533" lon="5.89224">
        <ele>237</ele>
        <time>2022-05-01T12:43:55.898Z</time>
      </trkpt>
      <trkpt lat="45.7353" lon="5.89218">
        <ele>237</ele>
        <time>2022-05-01T12:43:56.898Z</time>
      </trkpt>
      <trkpt lat="45.73526" lon="5.89213">
        <ele>238</ele>
        <time>2022-05-01T12:43:57.897Z</time>
      </trkpt>
      <trkpt lat="45.73522" lon="5.89208">
        <ele>238</ele>
        <time>2022-05-01T12:43:58.898Z</time>
      </trkpt>
      <trkpt lat="45.73518" lon="5.89202">
        <ele>238</ele>
        <time>2022-05-01T12:43:59.898Z</time>
      </trkpt>
      <trkpt lat="45.73514" lon="5.89197">
        <ele>237</ele>
        <time>2022-05-01T12:44:00.898Z</time>
      </trkpt>
      <trkpt lat="45.73512" lon="5.89193">
        <ele>237</ele>
        <time>2022-05-01T12:44:01.898Z</time>
      </trkpt>
      <trkpt lat="45.73508" lon="5.89187">
        <ele>236</ele>
        <time>2022-05-01T12:44:02.897Z</time>
      </trkpt>
      <trkpt lat="45.73504" lon="5.89181">
        <ele>236</ele>
        <time>2022-05-01T12:44:03.898Z</time>
      </trkpt>
      <trkpt lat="45.735" lon="5.89176">
        <ele>236</ele>
        <time>2022-05-01T12:44:04.897Z</time>
      </trkpt>
      <trkpt lat="45.73496" lon="5.89171">
        <ele>236</ele>
        <time>2022-05-01T12:44:05.898Z</time>
      </trkpt>
      <trkpt lat="45.73493" lon="5.89166">
        <ele>236</ele>
        <time>2022-05-01T12:44:06.898Z</time>
      </trkpt>
      <trkpt lat="45.73489" lon="5.89161">
        <ele>236</ele>
        <time>2022-05-01T12:44:07.898Z</time>
      </trkpt>
      <trkpt lat="45.73486" lon="5.89156">
        <ele>236</ele>
        <time>2022-05-01T12:44:08.898Z</time>
      </trkpt>
      <trkpt lat="45.73482" lon="5.89151">
        <ele>236</ele>
        <time>2022-05-01T12:44:09.897Z</time>
      </trkpt>
      <trkpt lat="45.73479" lon="5.89147">
        <ele>236</ele>
        <time>2022-05-01T12:44:10.898Z</time>
      </trkpt>
      <trkpt lat="45.73475" lon="5.89142">
        <ele>236</ele>
        <time>2022-05-01T12:44:11.897Z</time>
      </trkpt>
      <trkpt lat="45.73472" lon="5.89137">
        <ele>236</ele>
        <time>2022-05-01T12:44:12.897Z</time>
      </trkpt>
      <trkpt lat="45.73468" lon="5.89133">
        <ele>236</ele>
        <time>2022-05-01T12:44:13.898Z</time>
      </trkpt>
      <trkpt lat="45.73464" lon="5.89128">
        <ele>237</ele>
        <time>2022-05-01T12:44:14.898Z</time>
      </trkpt>
      <trkpt lat="45.7346" lon="5.89124">
        <ele>237</ele>
        <time>2022-05-01T12:44:15.898Z</time>
      </trkpt>
      <trkpt lat="45.73456" lon="5.89119">
        <ele>237</ele>
        <time>2022-05-01T12:44:16.897Z</time>
      </trkpt>
      <trkpt lat="45.73452" lon="5.89115">
        <ele>237</ele>
        <time>2022-05-01T12:44:17.898Z</time>
      </trkpt>
      <trkpt lat="45.73448" lon="5.89111">
        <ele>237</ele>
        <time>2022-05-01T12:44:18.898Z</time>
      </trkpt>
      <trkpt lat="45.73444" lon="5.89108">
        <ele>237</ele>
        <time>2022-05-01T12:44:19.898Z</time>
      </trkpt>
      <trkpt lat="45.7344" lon="5.89103">
        <ele>237</ele>
        <time>2022-05-01T12:44:20.898Z</time>
      </trkpt>
      <trkpt lat="45.73436" lon="5.891">
        <ele>237</ele>
        <time>2022-05-01T12:44:21.898Z</time>
      </trkpt>
      <trkpt lat="45.73432" lon="5.89097">
        <ele>238</ele>
        <time>2022-05-01T12:44:22.897Z</time>
      </trkpt>
      <trkpt lat="45.73429" lon="5.89094">
        <ele>238</ele>
        <time>2022-05-01T12:44:23.898Z</time>
      </trkpt>
      <trkpt lat="45.73425" lon="5.8909">
        <ele>238</ele>
        <time>2022-05-01T12:44:24.898Z</time>
      </trkpt>
      <trkpt lat="45.73422" lon="5.89087">
        <ele>238</ele>
        <time>2022-05-01T12:44:25.898Z</time>
      </trkpt>
      <trkpt lat="45.73419" lon="5.89084">
        <ele>238</ele>
        <time>2022-05-01T12:44:26.898Z</time>
      </trkpt>
      <trkpt lat="45.73415" lon="5.89081">
        <ele>238</ele>
        <time>2022-05-01T12:44:27.898Z</time>
      </trkpt>
      <trkpt lat="45.73412" lon="5.89078">
        <ele>239</ele>
        <time>2022-05-01T12:44:28.898Z</time>
      </trkpt>
      <trkpt lat="45.73409" lon="5.89075">
        <ele>239</ele>
        <time>2022-05-01T12:44:29.898Z</time>
      </trkpt>
      <trkpt lat="45.73406" lon="5.89071">
        <ele>239</ele>
        <time>2022-05-01T12:44:30.898Z</time>
      </trkpt>
      <trkpt lat="45.73403" lon="5.89068">
        <ele>239</ele>
        <time>2022-05-01T12:44:31.898Z</time>
      </trkpt>
      <trkpt lat="45.734" lon="5.89066">
        <ele>239</ele>
        <time>2022-05-01T12:44:32.898Z</time>
      </trkpt>
      <trkpt lat="45.73396" lon="5.89063">
        <ele>239</ele>
        <time>2022-05-01T12:44:33.897Z</time>
      </trkpt>
      <trkpt lat="45.73393" lon="5.8906">
        <ele>240</ele>
        <time>2022-05-01T12:44:34.898Z</time>
      </trkpt>
      <trkpt lat="45.73391" lon="5.89057">
        <ele>240</ele>
        <time>2022-05-01T12:44:35.897Z</time>
      </trkpt>
      <trkpt lat="45.73388" lon="5.89055">
        <ele>240</ele>
        <time>2022-05-01T12:44:36.898Z</time>
      </trkpt>
      <trkpt lat="45.73385" lon="5.89052">
        <ele>241</ele>
        <time>2022-05-01T12:44:37.898Z</time>
      </trkpt>
      <trkpt lat="45.73382" lon="5.89049">
        <ele>241</ele>
        <time>2022-05-01T12:44:38.898Z</time>
      </trkpt>
      <trkpt lat="45.73379" lon="5.89046">
        <ele>241</ele>
        <time>2022-05-01T12:44:39.898Z</time>
      </trkpt>
      <trkpt lat="45.73376" lon="5.89044">
        <ele>241</ele>
        <time>2022-05-01T12:44:40.898Z</time>
      </trkpt>
      <trkpt lat="45.73373" lon="5.89041">
        <ele>242</ele>
        <time>2022-05-01T12:44:41.898Z</time>
      </trkpt>
      <trkpt lat="45.73371" lon="5.89039">
        <ele>242</ele>
        <time>2022-05-01T12:44:42.898Z</time>
      </trkpt>
      <trkpt lat="45.73368" lon="5.89036">
        <ele>242</ele>
        <time>2022-05-01T12:44:43.897Z</time>
      </trkpt>
      <trkpt lat="45.73365" lon="5.89033">
        <ele>243</ele>
        <time>2022-05-01T12:44:44.897Z</time>
      </trkpt>
      <trkpt lat="45.73363" lon="5.89031">
        <ele>243</ele>
        <time>2022-05-01T12:44:45.897Z</time>
      </trkpt>
      <trkpt lat="45.7336" lon="5.89029">
        <ele>243</ele>
        <time>2022-05-01T12:44:46.897Z</time>
      </trkpt>
      <trkpt lat="45.73358" lon="5.89026">
        <ele>243</ele>
        <time>2022-05-01T12:44:47.897Z</time>
      </trkpt>
      <trkpt lat="45.73355" lon="5.89024">
        <ele>243</ele>
        <time>2022-05-01T12:44:48.897Z</time>
      </trkpt>
      <trkpt lat="45.73353" lon="5.89022">
        <ele>243</ele>
        <time>2022-05-01T12:44:49.898Z</time>
      </trkpt>
      <trkpt lat="45.73351" lon="5.89019">
        <ele>243</ele>
        <time>2022-05-01T12:44:50.897Z</time>
      </trkpt>
      <trkpt lat="45.73348" lon="5.89017">
        <ele>243</ele>
        <time>2022-05-01T12:44:51.898Z</time>
      </trkpt>
      <trkpt lat="45.73346" lon="5.89015">
        <ele>243</ele>
        <time>2022-05-01T12:44:52.898Z</time>
      </trkpt>
      <trkpt lat="45.73344" lon="5.89012">
        <ele>243</ele>
        <time>2022-05-01T12:44:53.897Z</time>
      </trkpt>
      <trkpt lat="45.73342" lon="5.8901">
        <ele>243</ele>
        <time>2022-05-01T12:44:54.898Z</time>
      </trkpt>
      <trkpt lat="45.7334" lon="5.89007">
        <ele>243</ele>
        <time>2022-05-01T12:44:55.897Z</time>
      </trkpt>
      <trkpt lat="45.73337" lon="5.89005">
        <ele>243</ele>
        <time>2022-05-01T12:44:56.897Z</time>
      </trkpt>
      <trkpt lat="45.73335" lon="5.89003">
        <ele>244</ele>
        <time>2022-05-01T12:44:57.897Z</time>
      </trkpt>
      <trkpt lat="45.73333" lon="5.89001">
        <ele>244</ele>
        <time>2022-05-01T12:44:58.897Z</time>
      </trkpt>
      <trkpt lat="45.73331" lon="5.88999">
        <ele>244</ele>
        <time>2022-05-01T12:44:59.898Z</time>
      </trkpt>
      <trkpt lat="45.73328" lon="5.88997">
        <ele>244</ele>
        <time>2022-05-01T12:45:00.898Z</time>
      </trkpt>
      <trkpt lat="45.73326" lon="5.88995">
        <ele>244</ele>
        <time>2022-05-01T12:45:01.898Z</time>
      </trkpt>
      <trkpt lat="45.73324" lon="5.88992">
        <ele>245</ele>
        <time>2022-05-01T12:45:02.897Z</time>
      </trkpt>
      <trkpt lat="45.73322" lon="5.8899">
        <ele>245</ele>
        <time>2022-05-01T12:45:03.897Z</time>
      </trkpt>
      <trkpt lat="45.7332" lon="5.88988">
        <ele>245</ele>
        <time>2022-05-01T12:45:04.898Z</time>
      </trkpt>
      <trkpt lat="45.73318" lon="5.88986">
        <ele>245</ele>
        <time>2022-05-01T12:45:05.898Z</time>
      </trkpt>
      <trkpt lat="45.73316" lon="5.88984">
        <ele>246</ele>
        <time>2022-05-01T12:45:06.897Z</time>
      </trkpt>
      <trkpt lat="45.73314" lon="5.88982">
        <ele>246</ele>
        <time>2022-05-01T12:45:07.898Z</time>
      </trkpt>
      <trkpt lat="45.73312" lon="5.88979">
        <ele>246</ele>
        <time>2022-05-01T12:45:08.897Z</time>
      </trkpt>
      <trkpt lat="45.7331" lon="5.88977">
        <ele>247</ele>
        <time>2022-05-01T12:45:09.898Z</time>
      </trkpt>
      <trkpt lat="45.73309" lon="5.88975">
        <ele>247</ele>
        <time>2022-05-01T12:45:10.897Z</time>
      </trkpt>
      <trkpt lat="45.73307" lon="5.88972">
        <ele>247</ele>
        <time>2022-05-01T12:45:11.898Z</time>
      </trkpt>
      <trkpt lat="45.73305" lon="5.8897">
        <ele>247</ele>
        <time>2022-05-01T12:45:12.897Z</time>
      </trkpt>
      <trkpt lat="45.73303" lon="5.88967">
        <ele>247</ele>
        <time>2022-05-01T12:45:13.898Z</time>
      </trkpt>
      <trkpt lat="45.73302" lon="5.88964">
        <ele>247</ele>
        <time>2022-05-01T12:45:14.898Z</time>
      </trkpt>
      <trkpt lat="45.733" lon="5.88962">
        <ele>247</ele>
        <time>2022-05-01T12:45:15.897Z</time>
      </trkpt>
      <trkpt lat="45.73298" lon="5.88958">
        <ele>247</ele>
        <time>2022-05-01T12:45:16.897Z</time>
      </trkpt>
      <trkpt lat="45.73296" lon="5.88955">
        <ele>248</ele>
        <time>2022-05-01T12:45:17.898Z</time>
      </trkpt>
      <trkpt lat="45.73295" lon="5.88952">
        <ele>247</ele>
        <time>2022-05-01T12:45:18.898Z</time>
      </trkpt>
      <trkpt lat="45.73293" lon="5.88948">
        <ele>247</ele>
        <time>2022-05-01T12:45:19.897Z</time>
      </trkpt>
      <trkpt lat="45.73292" lon="5.88945">
        <ele>247</ele>
        <time>2022-05-01T12:45:20.897Z</time>
      </trkpt>
      <trkpt lat="45.7329" lon="5.88941">
        <ele>247</ele>
        <time>2022-05-01T12:45:21.897Z</time>
      </trkpt>
      <trkpt lat="45.73289" lon="5.88937">
        <ele>247</ele>
        <time>2022-05-01T12:45:22.897Z</time>
      </trkpt>
      <trkpt lat="45.73288" lon="5.88933">
        <ele>247</ele>
        <time>2022-05-01T12:45:23.898Z</time>
      </trkpt>
      <trkpt lat="45.73286" lon="5.88929">
        <ele>247</ele>
        <time>2022-05-01T12:45:24.897Z</time>
      </trkpt>
      <trkpt lat="45.73285" lon="5.88926">
        <ele>248</ele>
        <time>2022-05-01T12:45:25.898Z</time>
      </trkpt>
      <trkpt lat="45.73283" lon="5.88922">
        <ele>248</ele>
        <time>2022-05-01T12:45:26.897Z</time>
      </trkpt>
      <trkpt lat="45.73282" lon="5.88918">
        <ele>248</ele>
        <time>2022-05-01T12:45:27.898Z</time>
      </trkpt>
      <trkpt lat="45.73281" lon="5.88914">
        <ele>248</ele>
        <time>2022-05-01T12:45:28.898Z</time>
      </trkpt>
      <trkpt lat="45.7328" lon="5.8891">
        <ele>248</ele>
        <time>2022-05-01T12:45:29.897Z</time>
      </trkpt>
      <trkpt lat="45.73279" lon="5.88906">
        <ele>248</ele>
        <time>2022-05-01T12:45:30.897Z</time>
      </trkpt>
      <trkpt lat="45.73277" lon="5.88901">
        <ele>248</ele>
        <time>2022-05-01T12:45:31.897Z</time>
      </trkpt>
      <trkpt lat="45.73276" lon="5.88897">
        <ele>248</ele>
        <time>2022-05-01T12:45:32.898Z</time>
      </trkpt>
      <trkpt lat="45.73275" lon="5.88893">
        <ele>249</ele>
        <time>2022-05-01T12:45:33.898Z</time>
      </trkpt>
      <trkpt lat="45.73274" lon="5.88888">
        <ele>249</ele>
        <time>2022-05-01T12:45:34.898Z</time>
      </trkpt>
      <trkpt lat="45.73273" lon="5.88884">
        <ele>249</ele>
        <time>2022-05-01T12:45:35.897Z</time>
      </trkpt>
      <trkpt lat="45.73272" lon="5.88879">
        <ele>249</ele>
        <time>2022-05-01T12:45:36.898Z</time>
      </trkpt>
      <trkpt lat="45.73271" lon="5.88874">
        <ele>250</ele>
        <time>2022-05-01T12:45:37.897Z</time>
      </trkpt>
      <trkpt lat="45.7327" lon="5.88869">
        <ele>250</ele>
        <time>2022-05-01T12:45:38.898Z</time>
      </trkpt>
      <trkpt lat="45.73269" lon="5.88864">
        <ele>250</ele>
        <time>2022-05-01T12:45:39.897Z</time>
      </trkpt>
      <trkpt lat="45.73268" lon="5.88859">
        <ele>250</ele>
        <time>2022-05-01T12:45:40.898Z</time>
      </trkpt>
      <trkpt lat="45.73267" lon="5.88855">
        <ele>249</ele>
        <time>2022-05-01T12:45:41.897Z</time>
      </trkpt>
      <trkpt lat="45.73266" lon="5.8885">
        <ele>249</ele>
        <time>2022-05-01T12:45:42.897Z</time>
      </trkpt>
      <trkpt lat="45.73265" lon="5.88845">
        <ele>249</ele>
        <time>2022-05-01T12:45:43.898Z</time>
      </trkpt>
      <trkpt lat="45.73263" lon="5.8884">
        <ele>249</ele>
        <time>2022-05-01T12:45:44.898Z</time>
      </trkpt>
      <trkpt lat="45.73262" lon="5.88835">
        <ele>249</ele>
        <time>2022-05-01T12:45:45.898Z</time>
      </trkpt>
      <trkpt lat="45.73261" lon="5.88829">
        <ele>249</ele>
        <time>2022-05-01T12:45:46.898Z</time>
      </trkpt>
      <trkpt lat="45.7326" lon="5.88824">
        <ele>249</ele>
        <time>2022-05-01T12:45:47.898Z</time>
      </trkpt>
      <trkpt lat="45.73259" lon="5.88819">
        <ele>249</ele>
        <time>2022-05-01T12:45:48.898Z</time>
      </trkpt>
      <trkpt lat="45.73258" lon="5.88813">
        <ele>249</ele>
        <time>2022-05-01T12:45:49.898Z</time>
      </trkpt>
      <trkpt lat="45.73257" lon="5.88807">
        <ele>249</ele>
        <time>2022-05-01T12:45:50.897Z</time>
      </trkpt>
      <trkpt lat="45.73256" lon="5.88802">
        <ele>249</ele>
        <time>2022-05-01T12:45:51.898Z</time>
      </trkpt>
      <trkpt lat="45.73255" lon="5.88797">
        <ele>250</ele>
        <time>2022-05-01T12:45:52.898Z</time>
      </trkpt>
      <trkpt lat="45.73254" lon="5.88792">
        <ele>250</ele>
        <time>2022-05-01T12:45:53.898Z</time>
      </trkpt>
      <trkpt lat="45.73253" lon="5.88787">
        <ele>251</ele>
        <time>2022-05-01T12:45:54.898Z</time>
      </trkpt>
      <trkpt lat="45.73252" lon="5.88782">
        <ele>251</ele>
        <time>2022-05-01T12:45:55.897Z</time>
      </trkpt>
      <trkpt lat="45.73251" lon="5.88777">
        <ele>251</ele>
        <time>2022-05-01T12:45:56.898Z</time>
      </trkpt>
      <trkpt lat="45.73251" lon="5.88772">
        <ele>251</ele>
        <time>2022-05-01T12:45:57.898Z</time>
      </trkpt>
      <trkpt lat="45.7325" lon="5.88767">
        <ele>252</ele>
        <time>2022-05-01T12:45:58.897Z</time>
      </trkpt>
      <trkpt lat="45.7325" lon="5.88762">
        <ele>252</ele>
        <time>2022-05-01T12:45:59.898Z</time>
      </trkpt>
      <trkpt lat="45.7325" lon="5.88757">
        <ele>252</ele>
        <time>2022-05-01T12:46:00.898Z</time>
      </trkpt>
      <trkpt lat="45.7325" lon="5.88752">
        <ele>252</ele>
        <time>2022-05-01T12:46:01.897Z</time>
      </trkpt>
      <trkpt lat="45.7325" lon="5.88747">
        <ele>252</ele>
        <time>2022-05-01T12:46:02.897Z</time>
      </trkpt>
      <trkpt lat="45.7325" lon="5.88741">
        <ele>252</ele>
        <time>2022-05-01T12:46:03.898Z</time>
      </trkpt>
      <trkpt lat="45.73251" lon="5.88736">
        <ele>252</ele>
        <time>2022-05-01T12:46:04.898Z</time>
      </trkpt>
      <trkpt lat="45.73252" lon="5.88731">
        <ele>252</ele>
        <time>2022-05-01T12:46:05.898Z</time>
      </trkpt>
      <trkpt lat="45.73252" lon="5.88725">
        <ele>252</ele>
        <time>2022-05-01T12:46:06.898Z</time>
      </trkpt>
      <trkpt lat="45.73253" lon="5.8872">
        <ele>252</ele>
        <time>2022-05-01T12:46:07.898Z</time>
      </trkpt>
      <trkpt lat="45.73254" lon="5.88715">
        <ele>252</ele>
        <time>2022-05-01T12:46:08.898Z</time>
      </trkpt>
      <trkpt lat="45.73256" lon="5.8871">
        <ele>252</ele>
        <time>2022-05-01T12:46:09.897Z</time>
      </trkpt>
      <trkpt lat="45.73257" lon="5.88705">
        <ele>252</ele>
        <time>2022-05-01T12:46:10.898Z</time>
      </trkpt>
      <trkpt lat="45.73259" lon="5.887">
        <ele>252</ele>
        <time>2022-05-01T12:46:11.897Z</time>
      </trkpt>
      <trkpt lat="45.73261" lon="5.88694">
        <ele>252</ele>
        <time>2022-05-01T12:46:12.898Z</time>
      </trkpt>
      <trkpt lat="45.73262" lon="5.88689">
        <ele>252</ele>
        <time>2022-05-01T12:46:13.898Z</time>
      </trkpt>
      <trkpt lat="45.73264" lon="5.88684">
        <ele>252</ele>
        <time>2022-05-01T12:46:14.897Z</time>
      </trkpt>
      <trkpt lat="45.73266" lon="5.8868">
        <ele>251</ele>
        <time>2022-05-01T12:46:15.897Z</time>
      </trkpt>
      <trkpt lat="45.73269" lon="5.88675">
        <ele>252</ele>
        <time>2022-05-01T12:46:16.898Z</time>
      </trkpt>
      <trkpt lat="45.73271" lon="5.88671">
        <ele>251</ele>
        <time>2022-05-01T12:46:17.898Z</time>
      </trkpt>
      <trkpt lat="45.73273" lon="5.88666">
        <ele>251</ele>
        <time>2022-05-01T12:46:18.898Z</time>
      </trkpt>
      <trkpt lat="45.73275" lon="5.88661">
        <ele>251</ele>
        <time>2022-05-01T12:46:19.898Z</time>
      </trkpt>
      <trkpt lat="45.73276" lon="5.88657">
        <ele>251</ele>
        <time>2022-05-01T12:46:20.898Z</time>
      </trkpt>
      <trkpt lat="45.73278" lon="5.88652">
        <ele>252</ele>
        <time>2022-05-01T12:46:21.898Z</time>
      </trkpt>
      <trkpt lat="45.73281" lon="5.88648">
        <ele>252</ele>
        <time>2022-05-01T12:46:22.898Z</time>
      </trkpt>
      <trkpt lat="45.73283" lon="5.88644">
        <ele>252</ele>
        <time>2022-05-01T12:46:23.898Z</time>
      </trkpt>
      <trkpt lat="45.73285" lon="5.8864">
        <ele>252</ele>
        <time>2022-05-01T12:46:24.898Z</time>
      </trkpt>
      <trkpt lat="45.73287" lon="5.88635">
        <ele>252</ele>
        <time>2022-05-01T12:46:25.898Z</time>
      </trkpt>
      <trkpt lat="45.73289" lon="5.88631">
        <ele>251</ele>
        <time>2022-05-01T12:46:26.898Z</time>
      </trkpt>
      <trkpt lat="45.73291" lon="5.88627">
        <ele>251</ele>
        <time>2022-05-01T12:46:27.898Z</time>
      </trkpt>
      <trkpt lat="45.73293" lon="5.88622">
        <ele>251</ele>
        <time>2022-05-01T12:46:28.897Z</time>
      </trkpt>
      <trkpt lat="45.73295" lon="5.88618">
        <ele>251</ele>
        <time>2022-05-01T12:46:29.897Z</time>
      </trkpt>
      <trkpt lat="45.73297" lon="5.88614">
        <ele>251</ele>
        <time>2022-05-01T12:46:30.897Z</time>
      </trkpt>
      <trkpt lat="45.73299" lon="5.88609">
        <ele>251</ele>
        <time>2022-05-01T12:46:31.897Z</time>
      </trkpt>
      <trkpt lat="45.73301" lon="5.88605">
        <ele>251</ele>
        <time>2022-05-01T12:46:32.898Z</time>
      </trkpt>
      <trkpt lat="45.73303" lon="5.88601">
        <ele>250</ele>
        <time>2022-05-01T12:46:33.898Z</time>
      </trkpt>
      <trkpt lat="45.73305" lon="5.88596">
        <ele>250</ele>
        <time>2022-05-01T12:46:34.898Z</time>
      </trkpt>
      <trkpt lat="45.73307" lon="5.88592">
        <ele>250</ele>
        <time>2022-05-01T12:46:35.897Z</time>
      </trkpt>
      <trkpt lat="45.73309" lon="5.88588">
        <ele>250</ele>
        <time>2022-05-01T12:46:36.897Z</time>
      </trkpt>
      <trkpt lat="45.73311" lon="5.88583">
        <ele>250</ele>
        <time>2022-05-01T12:46:37.898Z</time>
      </trkpt>
      <trkpt lat="45.73313" lon="5.88579">
        <ele>251</ele>
        <time>2022-05-01T12:46:38.898Z</time>
      </trkpt>
      <trkpt lat="45.73315" lon="5.88574">
        <ele>251</ele>
        <time>2022-05-01T12:46:39.898Z</time>
      </trkpt>
      <trkpt lat="45.73317" lon="5.8857">
        <ele>251</ele>
        <time>2022-05-01T12:46:40.898Z</time>
      </trkpt>
      <trkpt lat="45.73319" lon="5.88565">
        <ele>251</ele>
        <time>2022-05-01T12:46:41.898Z</time>
      </trkpt>
      <trkpt lat="45.73321" lon="5.88561">
        <ele>252</ele>
        <time>2022-05-01T12:46:42.898Z</time>
      </trkpt>
      <trkpt lat="45.73323" lon="5.88556">
        <ele>252</ele>
        <time>2022-05-01T12:46:43.898Z</time>
      </trkpt>
      <trkpt lat="45.73325" lon="5.88552">
        <ele>252</ele>
        <time>2022-05-01T12:46:44.898Z</time>
      </trkpt>
      <trkpt lat="45.73327" lon="5.88548">
        <ele>252</ele>
        <time>2022-05-01T12:46:45.898Z</time>
      </trkpt>
      <trkpt lat="45.73329" lon="5.88544">
        <ele>252</ele>
        <time>2022-05-01T12:46:46.898Z</time>
      </trkpt>
      <trkpt lat="45.73331" lon="5.88539">
        <ele>252</ele>
        <time>2022-05-01T12:46:47.898Z</time>
      </trkpt>
      <trkpt lat="45.73333" lon="5.88535">
        <ele>253</ele>
        <time>2022-05-01T12:46:48.897Z</time>
      </trkpt>
      <trkpt lat="45.73334" lon="5.88531">
        <ele>253</ele>
        <time>2022-05-01T12:46:49.898Z</time>
      </trkpt>
      <trkpt lat="45.73336" lon="5.88527">
        <ele>253</ele>
        <time>2022-05-01T12:46:50.898Z</time>
      </trkpt>
      <trkpt lat="45.73338" lon="5.88523">
        <ele>253</ele>
        <time>2022-05-01T12:46:51.897Z</time>
      </trkpt>
      <trkpt lat="45.7334" lon="5.88519">
        <ele>253</ele>
        <time>2022-05-01T12:46:52.898Z</time>
      </trkpt>
      <trkpt lat="45.73342" lon="5.88515">
        <ele>253</ele>
        <time>2022-05-01T12:46:53.898Z</time>
      </trkpt>
      <trkpt lat="45.73344" lon="5.88511">
        <ele>254</ele>
        <time>2022-05-01T12:46:54.897Z</time>
      </trkpt>
      <trkpt lat="45.73346" lon="5.88507">
        <ele>254</ele>
        <time>2022-05-01T12:46:55.897Z</time>
      </trkpt>
      <trkpt lat="45.73347" lon="5.88503">
        <ele>254</ele>
        <time>2022-05-01T12:46:56.897Z</time>
      </trkpt>
      <trkpt lat="45.73349" lon="5.88499">
        <ele>255</ele>
        <time>2022-05-01T12:46:57.897Z</time>
      </trkpt>
      <trkpt lat="45.73351" lon="5.88495">
        <ele>255</ele>
        <time>2022-05-01T12:46:58.898Z</time>
      </trkpt>
      <trkpt lat="45.73353" lon="5.88491">
        <ele>255</ele>
        <time>2022-05-01T12:46:59.898Z</time>
      </trkpt>
      <trkpt lat="45.73355" lon="5.88487">
        <ele>254</ele>
        <time>2022-05-01T12:47:00.898Z</time>
      </trkpt>
      <trkpt lat="45.73357" lon="5.88483">
        <ele>254</ele>
        <time>2022-05-01T12:47:01.898Z</time>
      </trkpt>
      <trkpt lat="45.73358" lon="5.88479">
        <ele>254</ele>
        <time>2022-05-01T12:47:02.897Z</time>
      </trkpt>
      <trkpt lat="45.7336" lon="5.88475">
        <ele>255</ele>
        <time>2022-05-01T12:47:03.897Z</time>
      </trkpt>
      <trkpt lat="45.73361" lon="5.88471">
        <ele>255</ele>
        <time>2022-05-01T12:47:04.898Z</time>
      </trkpt>
      <trkpt lat="45.73363" lon="5.88467">
        <ele>255</ele>
        <time>2022-05-01T12:47:05.897Z</time>
      </trkpt>
      <trkpt lat="45.73364" lon="5.88463">
        <ele>255</ele>
        <time>2022-05-01T12:47:06.897Z</time>
      </trkpt>
      <trkpt lat="45.73366" lon="5.88459">
        <ele>255</ele>
        <time>2022-05-01T12:47:07.898Z</time>
      </trkpt>
      <trkpt lat="45.73367" lon="5.88455">
        <ele>255</ele>
        <time>2022-05-01T12:47:08.898Z</time>
      </trkpt>
      <trkpt lat="45.73368" lon="5.8845">
        <ele>255</ele>
        <time>2022-05-01T12:47:09.898Z</time>
      </trkpt>
      <trkpt lat="45.73369" lon="5.88445">
        <ele>255</ele>
        <time>2022-05-01T12:47:10.898Z</time>
      </trkpt>
      <trkpt lat="45.7337" lon="5.88441">
        <ele>255</ele>
        <time>2022-05-01T12:47:11.898Z</time>
      </trkpt>
      <trkpt lat="45.7337" lon="5.88436">
        <ele>255</ele>
        <time>2022-05-01T12:47:12.898Z</time>
      </trkpt>
      <trkpt lat="45.73371" lon="5.88432">
        <ele>255</ele>
        <time>2022-05-01T12:47:13.898Z</time>
      </trkpt>
      <trkpt lat="45.73371" lon="5.88427">
        <ele>255</ele>
        <time>2022-05-01T12:47:14.897Z</time>
      </trkpt>
      <trkpt lat="45.73371" lon="5.88422">
        <ele>256</ele>
        <time>2022-05-01T12:47:15.897Z</time>
      </trkpt>
      <trkpt lat="45.73371" lon="5.88418">
        <ele>255</ele>
        <time>2022-05-01T12:47:16.898Z</time>
      </trkpt>
      <trkpt lat="45.73371" lon="5.88413">
        <ele>255</ele>
        <time>2022-05-01T12:47:17.898Z</time>
      </trkpt>
      <trkpt lat="45.73371" lon="5.88407">
        <ele>255</ele>
        <time>2022-05-01T12:47:18.898Z</time>
      </trkpt>
      <trkpt lat="45.73371" lon="5.88402">
        <ele>255</ele>
        <time>2022-05-01T12:47:19.898Z</time>
      </trkpt>
      <trkpt lat="45.73371" lon="5.88397">
        <ele>255</ele>
        <time>2022-05-01T12:47:20.897Z</time>
      </trkpt>
      <trkpt lat="45.7337" lon="5.88392">
        <ele>255</ele>
        <time>2022-05-01T12:47:21.898Z</time>
      </trkpt>
      <trkpt lat="45.73369" lon="5.88387">
        <ele>255</ele>
        <time>2022-05-01T12:47:22.898Z</time>
      </trkpt>
      <trkpt lat="45.73368" lon="5.88381">
        <ele>255</ele>
        <time>2022-05-01T12:47:23.898Z</time>
      </trkpt>
      <trkpt lat="45.73367" lon="5.88376">
        <ele>255</ele>
        <time>2022-05-01T12:47:24.898Z</time>
      </trkpt>
      <trkpt lat="45.73366" lon="5.88371">
        <ele>255</ele>
        <time>2022-05-01T12:47:25.898Z</time>
      </trkpt>
      <trkpt lat="45.73365" lon="5.88366">
        <ele>256</ele>
        <time>2022-05-01T12:47:26.897Z</time>
      </trkpt>
      <trkpt lat="45.73364" lon="5.88361">
        <ele>256</ele>
        <time>2022-05-01T12:47:27.897Z</time>
      </trkpt>
      <trkpt lat="45.73363" lon="5.88355">
        <ele>256</ele>
        <time>2022-05-01T12:47:28.898Z</time>
      </trkpt>
      <trkpt lat="45.73362" lon="5.8835">
        <ele>256</ele>
        <time>2022-05-01T12:47:29.898Z</time>
      </trkpt>
      <trkpt lat="45.73361" lon="5.88345">
        <ele>255</ele>
        <time>2022-05-01T12:47:30.897Z</time>
      </trkpt>
      <trkpt lat="45.7336" lon="5.88339">
        <ele>255</ele>
        <time>2022-05-01T12:47:31.897Z</time>
      </trkpt>
      <trkpt lat="45.7336" lon="5.88334">
        <ele>254</ele>
        <time>2022-05-01T12:47:32.898Z</time>
      </trkpt>
      <trkpt lat="45.73359" lon="5.88329">
        <ele>254</ele>
        <time>2022-05-01T12:47:33.897Z</time>
      </trkpt>
      <trkpt lat="45.73358" lon="5.88324">
        <ele>254</ele>
        <time>2022-05-01T12:47:34.898Z</time>
      </trkpt>
      <trkpt lat="45.73357" lon="5.88318">
        <ele>254</ele>
        <time>2022-05-01T12:47:35.897Z</time>
      </trkpt>
      <trkpt lat="45.73357" lon="5.88313">
        <ele>254</ele>
        <time>2022-05-01T12:47:36.898Z</time>
      </trkpt>
      <trkpt lat="45.73356" lon="5.88308">
        <ele>254</ele>
        <time>2022-05-01T12:47:37.897Z</time>
      </trkpt>
      <trkpt lat="45.73356" lon="5.88302">
        <ele>254</ele>
        <time>2022-05-01T12:47:38.898Z</time>
      </trkpt>
      <trkpt lat="45.73355" lon="5.88297">
        <ele>254</ele>
        <time>2022-05-01T12:47:39.898Z</time>
      </trkpt>
      <trkpt lat="45.73355" lon="5.88291">
        <ele>254</ele>
        <time>2022-05-01T12:47:40.898Z</time>
      </trkpt>
      <trkpt lat="45.73355" lon="5.88286">
        <ele>254</ele>
        <time>2022-05-01T12:47:41.898Z</time>
      </trkpt>
      <trkpt lat="45.73356" lon="5.8828">
        <ele>255</ele>
        <time>2022-05-01T12:47:42.898Z</time>
      </trkpt>
      <trkpt lat="45.73357" lon="5.88274">
        <ele>255</ele>
        <time>2022-05-01T12:47:43.898Z</time>
      </trkpt>
      <trkpt lat="45.73358" lon="5.88269">
        <ele>255</ele>
        <time>2022-05-01T12:47:44.898Z</time>
      </trkpt>
      <trkpt lat="45.73359" lon="5.88263">
        <ele>254</ele>
        <time>2022-05-01T12:47:45.898Z</time>
      </trkpt>
      <trkpt lat="45.73361" lon="5.88257">
        <ele>254</ele>
        <time>2022-05-01T12:47:46.897Z</time>
      </trkpt>
      <trkpt lat="45.73362" lon="5.88252">
        <ele>254</ele>
        <time>2022-05-01T12:47:47.897Z</time>
      </trkpt>
      <trkpt lat="45.73365" lon="5.88245">
        <ele>254</ele>
        <time>2022-05-01T12:47:48.898Z</time>
      </trkpt>
      <trkpt lat="45.73367" lon="5.8824">
        <ele>254</ele>
        <time>2022-05-01T12:47:49.897Z</time>
      </trkpt>
      <trkpt lat="45.73368" lon="5.88236">
        <ele>254</ele>
        <time>2022-05-01T12:47:50.898Z</time>
      </trkpt>
      <trkpt lat="45.73371" lon="5.8823">
        <ele>254</ele>
        <time>2022-05-01T12:47:51.897Z</time>
      </trkpt>
      <trkpt lat="45.73374" lon="5.88225">
        <ele>254</ele>
        <time>2022-05-01T12:47:52.898Z</time>
      </trkpt>
      <trkpt lat="45.73377" lon="5.88221">
        <ele>254</ele>
        <time>2022-05-01T12:47:53.897Z</time>
      </trkpt>
      <trkpt lat="45.73379" lon="5.88216">
        <ele>254</ele>
        <time>2022-05-01T12:47:54.897Z</time>
      </trkpt>
      <trkpt lat="45.73383" lon="5.88211">
        <ele>255</ele>
        <time>2022-05-01T12:47:55.898Z</time>
      </trkpt>
      <trkpt lat="45.73386" lon="5.88207">
        <ele>255</ele>
        <time>2022-05-01T12:47:56.898Z</time>
      </trkpt>
      <trkpt lat="45.73389" lon="5.88202">
        <ele>255</ele>
        <time>2022-05-01T12:47:57.897Z</time>
      </trkpt>
      <trkpt lat="45.73392" lon="5.88198">
        <ele>256</ele>
        <time>2022-05-01T12:47:58.898Z</time>
      </trkpt>
      <trkpt lat="45.73396" lon="5.88194">
        <ele>256</ele>
        <time>2022-05-01T12:47:59.898Z</time>
      </trkpt>
      <trkpt lat="45.734" lon="5.88191">
        <ele>256</ele>
        <time>2022-05-01T12:48:00.897Z</time>
      </trkpt>
      <trkpt lat="45.73403" lon="5.88187">
        <ele>256</ele>
        <time>2022-05-01T12:48:01.897Z</time>
      </trkpt>
      <trkpt lat="45.73406" lon="5.88183">
        <ele>256</ele>
        <time>2022-05-01T12:48:02.897Z</time>
      </trkpt>
      <trkpt lat="45.7341" lon="5.88179">
        <ele>257</ele>
        <time>2022-05-01T12:48:03.898Z</time>
      </trkpt>
      <trkpt lat="45.73413" lon="5.88176">
        <ele>257</ele>
        <time>2022-05-01T12:48:04.898Z</time>
      </trkpt>
      <trkpt lat="45.73417" lon="5.88172">
        <ele>257</ele>
        <time>2022-05-01T12:48:05.898Z</time>
      </trkpt>
      <trkpt lat="45.7342" lon="5.88168">
        <ele>256</ele>
        <time>2022-05-01T12:48:06.898Z</time>
      </trkpt>
      <trkpt lat="45.73424" lon="5.88164">
        <ele>256</ele>
        <time>2022-05-01T12:48:07.898Z</time>
      </trkpt>
      <trkpt lat="45.73427" lon="5.8816">
        <ele>256</ele>
        <time>2022-05-01T12:48:08.898Z</time>
      </trkpt>
      <trkpt lat="45.7343" lon="5.88156">
        <ele>255</ele>
        <time>2022-05-01T12:48:09.898Z</time>
      </trkpt>
      <trkpt lat="45.73432" lon="5.88151">
        <ele>256</ele>
        <time>2022-05-01T12:48:10.898Z</time>
      </trkpt>
      <trkpt lat="45.73434" lon="5.88146">
        <ele>256</ele>
        <time>2022-05-01T12:48:11.897Z</time>
      </trkpt>
      <trkpt lat="45.73437" lon="5.8814">
        <ele>255</ele>
        <time>2022-05-01T12:48:12.897Z</time>
      </trkpt>
      <trkpt lat="45.73438" lon="5.88135">
        <ele>255</ele>
        <time>2022-05-01T12:48:13.897Z</time>
      </trkpt>
      <trkpt lat="45.73439" lon="5.88129">
        <ele>255</ele>
        <time>2022-05-01T12:48:14.898Z</time>
      </trkpt>
      <trkpt lat="45.7344" lon="5.88124">
        <ele>255</ele>
        <time>2022-05-01T12:48:15.897Z</time>
      </trkpt>
      <trkpt lat="45.7344" lon="5.88118">
        <ele>256</ele>
        <time>2022-05-01T12:48:16.897Z</time>
      </trkpt>
      <trkpt lat="45.7344" lon="5.88112">
        <ele>256</ele>
        <time>2022-05-01T12:48:17.898Z</time>
      </trkpt>
      <trkpt lat="45.73439" lon="5.88106">
        <ele>256</ele>
        <time>2022-05-01T12:48:18.897Z</time>
      </trkpt>
      <trkpt lat="45.73437" lon="5.881">
        <ele>256</ele>
        <time>2022-05-01T12:48:19.898Z</time>
      </trkpt>
      <trkpt lat="45.73436" lon="5.88094">
        <ele>256</ele>
        <time>2022-05-01T12:48:20.897Z</time>
      </trkpt>
      <trkpt lat="45.73434" lon="5.88088">
        <ele>256</ele>
        <time>2022-05-01T12:48:21.898Z</time>
      </trkpt>
      <trkpt lat="45.73431" lon="5.88083">
        <ele>255</ele>
        <time>2022-05-01T12:48:22.898Z</time>
      </trkpt>
      <trkpt lat="45.73428" lon="5.88078">
        <ele>255</ele>
        <time>2022-05-01T12:48:23.897Z</time>
      </trkpt>
      <trkpt lat="45.73424" lon="5.88074">
        <ele>255</ele>
        <time>2022-05-01T12:48:24.898Z</time>
      </trkpt>
      <trkpt lat="45.7342" lon="5.88071">
        <ele>254</ele>
        <time>2022-05-01T12:48:25.898Z</time>
      </trkpt>
      <trkpt lat="45.73416" lon="5.88067">
        <ele>254</ele>
        <time>2022-05-01T12:48:26.898Z</time>
      </trkpt>
      <trkpt lat="45.73412" lon="5.88066">
        <ele>255</ele>
        <time>2022-05-01T12:48:27.898Z</time>
      </trkpt>
      <trkpt lat="45.73407" lon="5.88064">
        <ele>254</ele>
        <time>2022-05-01T12:48:28.897Z</time>
      </trkpt>
      <trkpt lat="45.73401" lon="5.88064">
        <ele>254</ele>
        <time>2022-05-01T12:48:29.898Z</time>
      </trkpt>
      <trkpt lat="45.73397" lon="5.88064">
        <ele>254</ele>
        <time>2022-05-01T12:48:30.897Z</time>
      </trkpt>
      <trkpt lat="45.73391" lon="5.88065">
        <ele>254</ele>
        <time>2022-05-01T12:48:31.898Z</time>
      </trkpt>
      <trkpt lat="45.73386" lon="5.88066">
        <ele>254</ele>
        <time>2022-05-01T12:48:32.898Z</time>
      </trkpt>
      <trkpt lat="45.73381" lon="5.88067">
        <ele>254</ele>
        <time>2022-05-01T12:48:33.898Z</time>
      </trkpt>
      <trkpt lat="45.73375" lon="5.88069">
        <ele>253</ele>
        <time>2022-05-01T12:48:34.898Z</time>
      </trkpt>
      <trkpt lat="45.73369" lon="5.88071">
        <ele>253</ele>
        <time>2022-05-01T12:48:35.898Z</time>
      </trkpt>
      <trkpt lat="45.73364" lon="5.88073">
        <ele>253</ele>
        <time>2022-05-01T12:48:36.898Z</time>
      </trkpt>
      <trkpt lat="45.73358" lon="5.88074">
        <ele>253</ele>
        <time>2022-05-01T12:48:37.897Z</time>
      </trkpt>
      <trkpt lat="45.73352" lon="5.88076">
        <ele>253</ele>
        <time>2022-05-01T12:48:38.897Z</time>
      </trkpt>
      <trkpt lat="45.73346" lon="5.88078">
        <ele>253</ele>
        <time>2022-05-01T12:48:39.897Z</time>
      </trkpt>
      <trkpt lat="45.7334" lon="5.8808">
        <ele>253</ele>
        <time>2022-05-01T12:48:40.897Z</time>
      </trkpt>
      <trkpt lat="45.73334" lon="5.88081">
        <ele>253</ele>
        <time>2022-05-01T12:48:41.898Z</time>
      </trkpt>
      <trkpt lat="45.73326" lon="5.88084">
        <ele>253</ele>
        <time>2022-05-01T12:48:42.897Z</time>
      </trkpt>
      <trkpt lat="45.7332" lon="5.88085">
        <ele>253</ele>
        <time>2022-05-01T12:48:43.898Z</time>
      </trkpt>
      <trkpt lat="45.73314" lon="5.88086">
        <ele>253</ele>
        <time>2022-05-01T12:48:44.897Z</time>
      </trkpt>
      <trkpt lat="45.73308" lon="5.88086">
        <ele>253</ele>
        <time>2022-05-01T12:48:45.898Z</time>
      </trkpt>
      <trkpt lat="45.73301" lon="5.88086">
        <ele>253</ele>
        <time>2022-05-01T12:48:46.898Z</time>
      </trkpt>
      <trkpt lat="45.73294" lon="5.88085">
        <ele>253</ele>
        <time>2022-05-01T12:48:47.897Z</time>
      </trkpt>
      <trkpt lat="45.73287" lon="5.88083">
        <ele>252</ele>
        <time>2022-05-01T12:48:48.898Z</time>
      </trkpt>
      <trkpt lat="45.73281" lon="5.8808">
        <ele>252</ele>
        <time>2022-05-01T12:48:49.898Z</time>
      </trkpt>
      <trkpt lat="45.73274" lon="5.88076">
        <ele>253</ele>
        <time>2022-05-01T12:48:50.898Z</time>
      </trkpt>
      <trkpt lat="45.73268" lon="5.88071">
        <ele>253</ele>
        <time>2022-05-01T12:48:51.898Z</time>
      </trkpt>
      <trkpt lat="45.73262" lon="5.88066">
        <ele>253</ele>
        <time>2022-05-01T12:48:52.897Z</time>
      </trkpt>
      <trkpt lat="45.73256" lon="5.8806">
        <ele>253</ele>
        <time>2022-05-01T12:48:53.898Z</time>
      </trkpt>
      <trkpt lat="45.7325" lon="5.88055">
        <ele>253</ele>
        <time>2022-05-01T12:48:54.898Z</time>
      </trkpt>
      <trkpt lat="45.73244" lon="5.88049">
        <ele>253</ele>
        <time>2022-05-01T12:48:55.898Z</time>
      </trkpt>
      <trkpt lat="45.73239" lon="5.88043">
        <ele>252</ele>
        <time>2022-05-01T12:48:56.898Z</time>
      </trkpt>
      <trkpt lat="45.73233" lon="5.88038">
        <ele>252</ele>
        <time>2022-05-01T12:48:57.898Z</time>
      </trkpt>
      <trkpt lat="45.73227" lon="5.88032">
        <ele>252</ele>
        <time>2022-05-01T12:48:58.898Z</time>
      </trkpt>
      <trkpt lat="45.73222" lon="5.88027">
        <ele>252</ele>
        <time>2022-05-01T12:48:59.898Z</time>
      </trkpt>
      <trkpt lat="45.73216" lon="5.88022">
        <ele>252</ele>
        <time>2022-05-01T12:49:00.898Z</time>
      </trkpt>
      <trkpt lat="45.73211" lon="5.88017">
        <ele>252</ele>
        <time>2022-05-01T12:49:01.897Z</time>
      </trkpt>
      <trkpt lat="45.73205" lon="5.88012">
        <ele>252</ele>
        <time>2022-05-01T12:49:02.897Z</time>
      </trkpt>
      <trkpt lat="45.732" lon="5.88008">
        <ele>252</ele>
        <time>2022-05-01T12:49:03.898Z</time>
      </trkpt>
      <trkpt lat="45.73194" lon="5.88005">
        <ele>252</ele>
        <time>2022-05-01T12:49:04.898Z</time>
      </trkpt>
      <trkpt lat="45.73188" lon="5.88001">
        <ele>252</ele>
        <time>2022-05-01T12:49:05.898Z</time>
      </trkpt>
      <trkpt lat="45.73182" lon="5.87999">
        <ele>252</ele>
        <time>2022-05-01T12:49:06.897Z</time>
      </trkpt>
      <trkpt lat="45.73176" lon="5.87996">
        <ele>252</ele>
        <time>2022-05-01T12:49:07.898Z</time>
      </trkpt>
      <trkpt lat="45.73171" lon="5.87994">
        <ele>252</ele>
        <time>2022-05-01T12:49:08.898Z</time>
      </trkpt>
      <trkpt lat="45.73165" lon="5.87993">
        <ele>252</ele>
        <time>2022-05-01T12:49:09.897Z</time>
      </trkpt>
      <trkpt lat="45.73159" lon="5.87991">
        <ele>252</ele>
        <time>2022-05-01T12:49:10.898Z</time>
      </trkpt>
      <trkpt lat="45.73153" lon="5.87991">
        <ele>252</ele>
        <time>2022-05-01T12:49:11.898Z</time>
      </trkpt>
      <trkpt lat="45.73148" lon="5.8799">
        <ele>251</ele>
        <time>2022-05-01T12:49:12.898Z</time>
      </trkpt>
      <trkpt lat="45.73142" lon="5.8799">
        <ele>252</ele>
        <time>2022-05-01T12:49:13.898Z</time>
      </trkpt>
      <trkpt lat="45.73136" lon="5.8799">
        <ele>252</ele>
        <time>2022-05-01T12:49:14.898Z</time>
      </trkpt>
      <trkpt lat="45.73131" lon="5.87991">
        <ele>252</ele>
        <time>2022-05-01T12:49:15.898Z</time>
      </trkpt>
      <trkpt lat="45.73126" lon="5.87992">
        <ele>252</ele>
        <time>2022-05-01T12:49:16.898Z</time>
      </trkpt>
      <trkpt lat="45.7312" lon="5.87993">
        <ele>252</ele>
        <time>2022-05-01T12:49:17.898Z</time>
      </trkpt>
      <trkpt lat="45.73114" lon="5.87994">
        <ele>251</ele>
        <time>2022-05-01T12:49:18.898Z</time>
      </trkpt>
      <trkpt lat="45.73108" lon="5.87995">
        <ele>251</ele>
        <time>2022-05-01T12:49:19.898Z</time>
      </trkpt>
      <trkpt lat="45.73104" lon="5.87997">
        <ele>251</ele>
        <time>2022-05-01T12:49:20.898Z</time>
      </trkpt>
      <trkpt lat="45.73098" lon="5.87999">
        <ele>251</ele>
        <time>2022-05-01T12:49:21.898Z</time>
      </trkpt>
      <trkpt lat="45.73093" lon="5.88001">
        <ele>251</ele>
        <time>2022-05-01T12:49:22.897Z</time>
      </trkpt>
      <trkpt lat="45.73088" lon="5.88004">
        <ele>252</ele>
        <time>2022-05-01T12:49:23.898Z</time>
      </trkpt>
      <trkpt lat="45.73081" lon="5.88006">
        <ele>252</ele>
        <time>2022-05-01T12:49:24.898Z</time>
      </trkpt>
      <trkpt lat="45.73077" lon="5.88008">
        <ele>253</ele>
        <time>2022-05-01T12:49:25.898Z</time>
      </trkpt>
      <trkpt lat="45.73072" lon="5.88011">
        <ele>253</ele>
        <time>2022-05-01T12:49:26.898Z</time>
      </trkpt>
      <trkpt lat="45.73066" lon="5.88013">
        <ele>253</ele>
        <time>2022-05-01T12:49:27.898Z</time>
      </trkpt>
      <trkpt lat="45.73061" lon="5.88014">
        <ele>253</ele>
        <time>2022-05-01T12:49:28.898Z</time>
      </trkpt>
      <trkpt lat="45.73056" lon="5.88016">
        <ele>253</ele>
        <time>2022-05-01T12:49:29.897Z</time>
      </trkpt>
      <trkpt lat="45.7305" lon="5.88019">
        <ele>253</ele>
        <time>2022-05-01T12:49:30.898Z</time>
      </trkpt>
      <trkpt lat="45.73045" lon="5.88021">
        <ele>253</ele>
        <time>2022-05-01T12:49:31.897Z</time>
      </trkpt>
      <trkpt lat="45.7304" lon="5.88023">
        <ele>253</ele>
        <time>2022-05-01T12:49:32.898Z</time>
      </trkpt>
      <trkpt lat="45.73035" lon="5.88025">
        <ele>253</ele>
        <time>2022-05-01T12:49:33.897Z</time>
      </trkpt>
      <trkpt lat="45.73031" lon="5.88026">
        <ele>253</ele>
        <time>2022-05-01T12:49:34.898Z</time>
      </trkpt>
      <trkpt lat="45.73026" lon="5.88028">
        <ele>253</ele>
        <time>2022-05-01T12:49:35.898Z</time>
      </trkpt>
      <trkpt lat="45.73021" lon="5.8803">
        <ele>253</ele>
        <time>2022-05-01T12:49:36.898Z</time>
      </trkpt>
      <trkpt lat="45.73016" lon="5.88031">
        <ele>253</ele>
        <time>2022-05-01T12:49:37.898Z</time>
      </trkpt>
      <trkpt lat="45.73012" lon="5.88033">
        <ele>253</ele>
        <time>2022-05-01T12:49:38.898Z</time>
      </trkpt>
      <trkpt lat="45.73007" lon="5.88035">
        <ele>253</ele>
        <time>2022-05-01T12:49:39.897Z</time>
      </trkpt>
      <trkpt lat="45.73003" lon="5.88037">
        <ele>253</ele>
        <time>2022-05-01T12:49:40.898Z</time>
      </trkpt>
      <trkpt lat="45.72998" lon="5.88038">
        <ele>254</ele>
        <time>2022-05-01T12:49:41.898Z</time>
      </trkpt>
      <trkpt lat="45.72993" lon="5.8804">
        <ele>254</ele>
        <time>2022-05-01T12:49:42.897Z</time>
      </trkpt>
      <trkpt lat="45.72988" lon="5.88042">
        <ele>254</ele>
        <time>2022-05-01T12:49:43.898Z</time>
      </trkpt>
      <trkpt lat="45.72984" lon="5.88044">
        <ele>254</ele>
        <time>2022-05-01T12:49:44.898Z</time>
      </trkpt>
      <trkpt lat="45.72979" lon="5.88046">
        <ele>254</ele>
        <time>2022-05-01T12:49:45.898Z</time>
      </trkpt>
      <trkpt lat="45.72974" lon="5.88048">
        <ele>254</ele>
        <time>2022-05-01T12:49:46.897Z</time>
      </trkpt>
      <trkpt lat="45.72969" lon="5.8805">
        <ele>254</ele>
        <time>2022-05-01T12:49:47.898Z</time>
      </trkpt>
      <trkpt lat="45.72964" lon="5.88051">
        <ele>254</ele>
        <time>2022-05-01T12:49:48.898Z</time>
      </trkpt>
      <trkpt lat="45.72959" lon="5.88053">
        <ele>254</ele>
        <time>2022-05-01T12:49:49.898Z</time>
      </trkpt>
      <trkpt lat="45.72954" lon="5.88055">
        <ele>254</ele>
        <time>2022-05-01T12:49:50.898Z</time>
      </trkpt>
      <trkpt lat="45.7295" lon="5.88057">
        <ele>254</ele>
        <time>2022-05-01T12:49:51.898Z</time>
      </trkpt>
      <trkpt lat="45.72945" lon="5.88059">
        <ele>254</ele>
        <time>2022-05-01T12:49:52.897Z</time>
      </trkpt>
      <trkpt lat="45.72941" lon="5.8806">
        <ele>255</ele>
        <time>2022-05-01T12:49:53.898Z</time>
      </trkpt>
      <trkpt lat="45.72937" lon="5.88062">
        <ele>255</ele>
        <time>2022-05-01T12:49:54.898Z</time>
      </trkpt>
      <trkpt lat="45.72933" lon="5.88064">
        <ele>255</ele>
        <time>2022-05-01T12:49:55.898Z</time>
      </trkpt>
      <trkpt lat="45.72929" lon="5.88066">
        <ele>255</ele>
        <time>2022-05-01T12:49:56.898Z</time>
      </trkpt>
      <trkpt lat="45.72924" lon="5.88068">
        <ele>255</ele>
        <time>2022-05-01T12:49:57.897Z</time>
      </trkpt>
      <trkpt lat="45.7292" lon="5.88069">
        <ele>255</ele>
        <time>2022-05-01T12:49:58.898Z</time>
      </trkpt>
      <trkpt lat="45.72916" lon="5.88071">
        <ele>255</ele>
        <time>2022-05-01T12:49:59.897Z</time>
      </trkpt>
      <trkpt lat="45.72912" lon="5.88073">
        <ele>254</ele>
        <time>2022-05-01T12:50:00.898Z</time>
      </trkpt>
      <trkpt lat="45.72907" lon="5.88075">
        <ele>255</ele>
        <time>2022-05-01T12:50:01.898Z</time>
      </trkpt>
      <trkpt lat="45.72903" lon="5.88077">
        <ele>255</ele>
        <time>2022-05-01T12:50:02.898Z</time>
      </trkpt>
      <trkpt lat="45.72899" lon="5.88079">
        <ele>255</ele>
        <time>2022-05-01T12:50:03.898Z</time>
      </trkpt>
      <trkpt lat="45.72896" lon="5.88081">
        <ele>255</ele>
        <time>2022-05-01T12:50:04.898Z</time>
      </trkpt>
      <trkpt lat="45.72891" lon="5.88084">
        <ele>255</ele>
        <time>2022-05-01T12:50:05.898Z</time>
      </trkpt>
      <trkpt lat="45.72887" lon="5.88086">
        <ele>256</ele>
        <time>2022-05-01T12:50:06.898Z</time>
      </trkpt>
      <trkpt lat="45.72883" lon="5.88088">
        <ele>256</ele>
        <time>2022-05-01T12:50:07.898Z</time>
      </trkpt>
      <trkpt lat="45.7288" lon="5.8809">
        <ele>256</ele>
        <time>2022-05-01T12:50:08.898Z</time>
      </trkpt>
      <trkpt lat="45.72876" lon="5.88092">
        <ele>256</ele>
        <time>2022-05-01T12:50:09.897Z</time>
      </trkpt>
      <trkpt lat="45.72871" lon="5.88095">
        <ele>255</ele>
        <time>2022-05-01T12:50:10.898Z</time>
      </trkpt>
      <trkpt lat="45.72867" lon="5.88097">
        <ele>255</ele>
        <time>2022-05-01T12:50:11.897Z</time>
      </trkpt>
      <trkpt lat="45.72864" lon="5.88099">
        <ele>255</ele>
        <time>2022-05-01T12:50:12.897Z</time>
      </trkpt>
      <trkpt lat="45.7286" lon="5.88101">
        <ele>255</ele>
        <time>2022-05-01T12:50:13.897Z</time>
      </trkpt>
      <trkpt lat="45.72856" lon="5.88104">
        <ele>255</ele>
        <time>2022-05-01T12:50:14.898Z</time>
      </trkpt>
      <trkpt lat="45.72853" lon="5.88106">
        <ele>256</ele>
        <time>2022-05-01T12:50:15.898Z</time>
      </trkpt>
      <trkpt lat="45.72849" lon="5.88108">
        <ele>256</ele>
        <time>2022-05-01T12:50:16.897Z</time>
      </trkpt>
      <trkpt lat="45.72845" lon="5.88111">
        <ele>256</ele>
        <time>2022-05-01T12:50:17.898Z</time>
      </trkpt>
      <trkpt lat="45.72841" lon="5.88113">
        <ele>256</ele>
        <time>2022-05-01T12:50:18.898Z</time>
      </trkpt>
      <trkpt lat="45.72836" lon="5.88116">
        <ele>257</ele>
        <time>2022-05-01T12:50:19.898Z</time>
      </trkpt>
      <trkpt lat="45.72833" lon="5.88119">
        <ele>257</ele>
        <time>2022-05-01T12:50:20.898Z</time>
      </trkpt>
      <trkpt lat="45.72829" lon="5.88121">
        <ele>257</ele>
        <time>2022-05-01T12:50:21.897Z</time>
      </trkpt>
      <trkpt lat="45.72826" lon="5.88122">
        <ele>257</ele>
        <time>2022-05-01T12:50:22.897Z</time>
      </trkpt>
      <trkpt lat="45.72821" lon="5.88125">
        <ele>258</ele>
        <time>2022-05-01T12:50:23.898Z</time>
      </trkpt>
      <trkpt lat="45.72818" lon="5.88127">
        <ele>258</ele>
        <time>2022-05-01T12:50:24.897Z</time>
      </trkpt>
      <trkpt lat="45.72814" lon="5.8813">
        <ele>258</ele>
        <time>2022-05-01T12:50:25.898Z</time>
      </trkpt>
      <trkpt lat="45.72811" lon="5.88131">
        <ele>259</ele>
        <time>2022-05-01T12:50:26.897Z</time>
      </trkpt>
      <trkpt lat="45.72807" lon="5.88134">
        <ele>259</ele>
        <time>2022-05-01T12:50:27.898Z</time>
      </trkpt>
      <trkpt lat="45.72803" lon="5.88136">
        <ele>260</ele>
        <time>2022-05-01T12:50:28.897Z</time>
      </trkpt>
      <trkpt lat="45.728" lon="5.88138">
        <ele>260</ele>
        <time>2022-05-01T12:50:29.898Z</time>
      </trkpt>
      <trkpt lat="45.72797" lon="5.88139">
        <ele>260</ele>
        <time>2022-05-01T12:50:30.898Z</time>
      </trkpt>
      <trkpt lat="45.72794" lon="5.88141">
        <ele>259</ele>
        <time>2022-05-01T12:50:31.897Z</time>
      </trkpt>
      <trkpt lat="45.72789" lon="5.88144">
        <ele>259</ele>
        <time>2022-05-01T12:50:32.898Z</time>
      </trkpt>
      <trkpt lat="45.72786" lon="5.88146">
        <ele>260</ele>
        <time>2022-05-01T12:50:33.897Z</time>
      </trkpt>
      <trkpt lat="45.72782" lon="5.88148">
        <ele>260</ele>
        <time>2022-05-01T12:50:34.897Z</time>
      </trkpt>
      <trkpt lat="45.72779" lon="5.8815">
        <ele>260</ele>
        <time>2022-05-01T12:50:35.898Z</time>
      </trkpt>
      <trkpt lat="45.72775" lon="5.88152">
        <ele>260</ele>
        <time>2022-05-01T12:50:36.897Z</time>
      </trkpt>
      <trkpt lat="45.72771" lon="5.88155">
        <ele>260</ele>
        <time>2022-05-01T12:50:37.897Z</time>
      </trkpt>
      <trkpt lat="45.72768" lon="5.88157">
        <ele>260</ele>
        <time>2022-05-01T12:50:38.898Z</time>
      </trkpt>
      <trkpt lat="45.72765" lon="5.88159">
        <ele>260</ele>
        <time>2022-05-01T12:50:39.897Z</time>
      </trkpt>
      <trkpt lat="45.72761" lon="5.88161">
        <ele>261</ele>
        <time>2022-05-01T12:50:40.898Z</time>
      </trkpt>
      <trkpt lat="45.72758" lon="5.88163">
        <ele>261</ele>
        <time>2022-05-01T12:50:41.897Z</time>
      </trkpt>
      <trkpt lat="45.72754" lon="5.88165">
        <ele>262</ele>
        <time>2022-05-01T12:50:42.898Z</time>
      </trkpt>
      <trkpt lat="45.7275" lon="5.88168">
        <ele>262</ele>
        <time>2022-05-01T12:50:43.898Z</time>
      </trkpt>
      <trkpt lat="45.72747" lon="5.8817">
        <ele>263</ele>
        <time>2022-05-01T12:50:44.898Z</time>
      </trkpt>
      <trkpt lat="45.72744" lon="5.88172">
        <ele>263</ele>
        <time>2022-05-01T12:50:45.898Z</time>
      </trkpt>
      <trkpt lat="45.7274" lon="5.88174">
        <ele>263</ele>
        <time>2022-05-01T12:50:46.898Z</time>
      </trkpt>
      <trkpt lat="45.72736" lon="5.88176">
        <ele>263</ele>
        <time>2022-05-01T12:50:47.897Z</time>
      </trkpt>
      <trkpt lat="45.72733" lon="5.88178">
        <ele>263</ele>
        <time>2022-05-01T12:50:48.898Z</time>
      </trkpt>
      <trkpt lat="45.72731" lon="5.88179">
        <ele>264</ele>
        <time>2022-05-01T12:50:49.897Z</time>
      </trkpt>
      <trkpt lat="45.72727" lon="5.88182">
        <ele>264</ele>
        <time>2022-05-01T12:50:50.898Z</time>
      </trkpt>
      <trkpt lat="45.72724" lon="5.88184">
        <ele>264</ele>
        <time>2022-05-01T12:50:51.897Z</time>
      </trkpt>
      <trkpt lat="45.7272" lon="5.88186">
        <ele>264</ele>
        <time>2022-05-01T12:50:52.897Z</time>
      </trkpt>
      <trkpt lat="45.72717" lon="5.88188">
        <ele>264</ele>
        <time>2022-05-01T12:50:53.898Z</time>
      </trkpt>
      <trkpt lat="45.72714" lon="5.8819">
        <ele>265</ele>
        <time>2022-05-01T12:50:54.897Z</time>
      </trkpt>
      <trkpt lat="45.72711" lon="5.88192">
        <ele>265</ele>
        <time>2022-05-01T12:50:55.898Z</time>
      </trkpt>
      <trkpt lat="45.72707" lon="5.88195">
        <ele>265</ele>
        <time>2022-05-01T12:50:56.897Z</time>
      </trkpt>
      <trkpt lat="45.72703" lon="5.88197">
        <ele>266</ele>
        <time>2022-05-01T12:50:57.897Z</time>
      </trkpt>
      <trkpt lat="45.727" lon="5.88198">
        <ele>266</ele>
        <time>2022-05-01T12:50:58.898Z</time>
      </trkpt>
      <trkpt lat="45.72696" lon="5.882">
        <ele>266</ele>
        <time>2022-05-01T12:50:59.898Z</time>
      </trkpt>
      <trkpt lat="45.72693" lon="5.88201">
        <ele>266</ele>
        <time>2022-05-01T12:51:00.897Z</time>
      </trkpt>
      <trkpt lat="45.7269" lon="5.88203">
        <ele>266</ele>
        <time>2022-05-01T12:51:01.897Z</time>
      </trkpt>
      <trkpt lat="45.72686" lon="5.88206">
        <ele>265</ele>
        <time>2022-05-01T12:51:02.897Z</time>
      </trkpt>
      <trkpt lat="45.72684" lon="5.88207">
        <ele>265</ele>
        <time>2022-05-01T12:51:03.898Z</time>
      </trkpt>
      <trkpt lat="45.7268" lon="5.8821">
        <ele>265</ele>
        <time>2022-05-01T12:51:04.898Z</time>
      </trkpt>
      <trkpt lat="45.72676" lon="5.88211">
        <ele>265</ele>
        <time>2022-05-01T12:51:05.898Z</time>
      </trkpt>
      <trkpt lat="45.72673" lon="5.88213">
        <ele>265</ele>
        <time>2022-05-01T12:51:06.897Z</time>
      </trkpt>
      <trkpt lat="45.72671" lon="5.88215">
        <ele>265</ele>
        <time>2022-05-01T12:51:07.898Z</time>
      </trkpt>
      <trkpt lat="45.72667" lon="5.88216">
        <ele>265</ele>
        <time>2022-05-01T12:51:08.898Z</time>
      </trkpt>
      <trkpt lat="45.72663" lon="5.88219">
        <ele>265</ele>
        <time>2022-05-01T12:51:09.898Z</time>
      </trkpt>
      <trkpt lat="45.7266" lon="5.88221">
        <ele>266</ele>
        <time>2022-05-01T12:51:10.897Z</time>
      </trkpt>
      <trkpt lat="45.72656" lon="5.88223">
        <ele>266</ele>
        <time>2022-05-01T12:51:11.898Z</time>
      </trkpt>
      <trkpt lat="45.72654" lon="5.88224">
        <ele>266</ele>
        <time>2022-05-01T12:51:12.897Z</time>
      </trkpt>
      <trkpt lat="45.72649" lon="5.88225">
        <ele>265</ele>
        <time>2022-05-01T12:51:13.897Z</time>
      </trkpt>
      <trkpt lat="45.72646" lon="5.88227">
        <ele>265</ele>
        <time>2022-05-01T12:51:14.898Z</time>
      </trkpt>
      <trkpt lat="45.72642" lon="5.88228">
        <ele>265</ele>
        <time>2022-05-01T12:51:15.897Z</time>
      </trkpt>
      <trkpt lat="45.72639" lon="5.88228">
        <ele>266</ele>
        <time>2022-05-01T12:51:16.898Z</time>
      </trkpt>
      <trkpt lat="45.72634" lon="5.8823">
        <ele>266</ele>
        <time>2022-05-01T12:51:17.897Z</time>
      </trkpt>
      <trkpt lat="45.7263" lon="5.8823">
        <ele>266</ele>
        <time>2022-05-01T12:51:18.898Z</time>
      </trkpt>
      <trkpt lat="45.72626" lon="5.88231">
        <ele>267</ele>
        <time>2022-05-01T12:51:19.898Z</time>
      </trkpt>
      <trkpt lat="45.72622" lon="5.88232">
        <ele>267</ele>
        <time>2022-05-01T12:51:20.897Z</time>
      </trkpt>
      <trkpt lat="45.72619" lon="5.88233">
        <ele>267</ele>
        <time>2022-05-01T12:51:21.897Z</time>
      </trkpt>
      <trkpt lat="45.72614" lon="5.88234">
        <ele>267</ele>
        <time>2022-05-01T12:51:22.897Z</time>
      </trkpt>
      <trkpt lat="45.72609" lon="5.88234">
        <ele>267</ele>
        <time>2022-05-01T12:51:23.898Z</time>
      </trkpt>
      <trkpt lat="45.72604" lon="5.88235">
        <ele>267</ele>
        <time>2022-05-01T12:51:24.898Z</time>
      </trkpt>
      <trkpt lat="45.726" lon="5.88236">
        <ele>266</ele>
        <time>2022-05-01T12:51:25.898Z</time>
      </trkpt>
      <trkpt lat="45.72595" lon="5.88236">
        <ele>266</ele>
        <time>2022-05-01T12:51:26.897Z</time>
      </trkpt>
      <trkpt lat="45.7259" lon="5.88237">
        <ele>266</ele>
        <time>2022-05-01T12:51:27.898Z</time>
      </trkpt>
      <trkpt lat="45.72585" lon="5.88237">
        <ele>267</ele>
        <time>2022-05-01T12:51:28.898Z</time>
      </trkpt>
      <trkpt lat="45.72578" lon="5.88239">
        <ele>267</ele>
        <time>2022-05-01T12:51:29.897Z</time>
      </trkpt>
      <trkpt lat="45.72573" lon="5.8824">
        <ele>268</ele>
        <time>2022-05-01T12:51:30.898Z</time>
      </trkpt>
      <trkpt lat="45.72566" lon="5.88241">
        <ele>268</ele>
        <time>2022-05-01T12:51:31.897Z</time>
      </trkpt>
      <trkpt lat="45.7256" lon="5.88242">
        <ele>269</ele>
        <time>2022-05-01T12:51:32.897Z</time>
      </trkpt>
      <trkpt lat="45.72554" lon="5.88242">
        <ele>268</ele>
        <time>2022-05-01T12:51:33.897Z</time>
      </trkpt>
      <trkpt lat="45.7255" lon="5.88243">
        <ele>268</ele>
        <time>2022-05-01T12:51:34.897Z</time>
      </trkpt>
      <trkpt lat="45.72544" lon="5.88243">
        <ele>268</ele>
        <time>2022-05-01T12:51:35.898Z</time>
      </trkpt>
      <trkpt lat="45.72536" lon="5.88244">
        <ele>267</ele>
        <time>2022-05-01T12:51:36.897Z</time>
      </trkpt>
      <trkpt lat="45.7253" lon="5.88245">
        <ele>267</ele>
        <time>2022-05-01T12:51:37.898Z</time>
      </trkpt>
      <trkpt lat="45.72524" lon="5.88246">
        <ele>267</ele>
        <time>2022-05-01T12:51:38.898Z</time>
      </trkpt>
      <trkpt lat="45.72519" lon="5.88246">
        <ele>267</ele>
        <time>2022-05-01T12:51:39.898Z</time>
      </trkpt>
      <trkpt lat="45.72512" lon="5.88247">
        <ele>267</ele>
        <time>2022-05-01T12:51:40.898Z</time>
      </trkpt>
      <trkpt lat="45.72506" lon="5.88247">
        <ele>267</ele>
        <time>2022-05-01T12:51:41.897Z</time>
      </trkpt>
      <trkpt lat="45.72499" lon="5.88248">
        <ele>266</ele>
        <time>2022-05-01T12:51:42.897Z</time>
      </trkpt>
      <trkpt lat="45.72493" lon="5.88249">
        <ele>266</ele>
        <time>2022-05-01T12:51:43.897Z</time>
      </trkpt>
      <trkpt lat="45.72486" lon="5.8825">
        <ele>266</ele>
        <time>2022-05-01T12:51:44.897Z</time>
      </trkpt>
      <trkpt lat="45.72479" lon="5.8825">
        <ele>265</ele>
        <time>2022-05-01T12:51:45.898Z</time>
      </trkpt>
      <trkpt lat="45.72471" lon="5.88251">
        <ele>265</ele>
        <time>2022-05-01T12:51:46.897Z</time>
      </trkpt>
      <trkpt lat="45.72462" lon="5.88252">
        <ele>264</ele>
        <time>2022-05-01T12:51:47.897Z</time>
      </trkpt>
      <trkpt lat="45.72455" lon="5.88252">
        <ele>263</ele>
        <time>2022-05-01T12:51:48.898Z</time>
      </trkpt>
      <trkpt lat="45.72448" lon="5.88253">
        <ele>263</ele>
        <time>2022-05-01T12:51:49.897Z</time>
      </trkpt>
      <trkpt lat="45.7244" lon="5.88253">
        <ele>262</ele>
        <time>2022-05-01T12:51:50.898Z</time>
      </trkpt>
      <trkpt lat="45.7243" lon="5.88254">
        <ele>262</ele>
        <time>2022-05-01T12:51:51.897Z</time>
      </trkpt>
      <trkpt lat="45.72422" lon="5.88254">
        <ele>262</ele>
        <time>2022-05-01T12:51:52.898Z</time>
      </trkpt>
      <trkpt lat="45.72413" lon="5.88254">
        <ele>262</ele>
        <time>2022-05-01T12:51:53.898Z</time>
      </trkpt>
      <trkpt lat="45.72406" lon="5.88253">
        <ele>262</ele>
        <time>2022-05-01T12:51:54.898Z</time>
      </trkpt>
      <trkpt lat="45.72396" lon="5.88252">
        <ele>261</ele>
        <time>2022-05-01T12:51:55.898Z</time>
      </trkpt>
      <trkpt lat="45.72387" lon="5.8825">
        <ele>261</ele>
        <time>2022-05-01T12:51:56.897Z</time>
      </trkpt>
      <trkpt lat="45.72379" lon="5.88248">
        <ele>261</ele>
        <time>2022-05-01T12:51:57.898Z</time>
      </trkpt>
      <trkpt lat="45.7237" lon="5.88245">
        <ele>260</ele>
        <time>2022-05-01T12:51:58.897Z</time>
      </trkpt>
      <trkpt lat="45.72361" lon="5.88242">
        <ele>259</ele>
        <time>2022-05-01T12:51:59.897Z</time>
      </trkpt>
      <trkpt lat="45.72352" lon="5.88238">
        <ele>259</ele>
        <time>2022-05-01T12:52:00.898Z</time>
      </trkpt>
      <trkpt lat="45.72341" lon="5.88233">
        <ele>258</ele>
        <time>2022-05-01T12:52:01.898Z</time>
      </trkpt>
      <trkpt lat="45.72331" lon="5.88228">
        <ele>258</ele>
        <time>2022-05-01T12:52:02.897Z</time>
      </trkpt>
      <trkpt lat="45.72324" lon="5.88223">
        <ele>258</ele>
        <time>2022-05-01T12:52:03.898Z</time>
      </trkpt>
      <trkpt lat="45.72315" lon="5.88217">
        <ele>258</ele>
        <time>2022-05-01T12:52:04.898Z</time>
      </trkpt>
      <trkpt lat="45.72304" lon="5.88209">
        <ele>258</ele>
        <time>2022-05-01T12:52:05.897Z</time>
      </trkpt>
      <trkpt lat="45.72295" lon="5.88202">
        <ele>258</ele>
        <time>2022-05-01T12:52:06.897Z</time>
      </trkpt>
      <trkpt lat="45.72286" lon="5.88195">
        <ele>258</ele>
        <time>2022-05-01T12:52:07.897Z</time>
      </trkpt>
      <trkpt lat="45.72279" lon="5.88189">
        <ele>258</ele>
        <time>2022-05-01T12:52:08.897Z</time>
      </trkpt>
      <trkpt lat="45.72269" lon="5.8818">
        <ele>258</ele>
        <time>2022-05-01T12:52:09.898Z</time>
      </trkpt>
      <trkpt lat="45.7226" lon="5.88173">
        <ele>258</ele>
        <time>2022-05-01T12:52:10.898Z</time>
      </trkpt>
      <trkpt lat="45.72251" lon="5.88165">
        <ele>258</ele>
        <time>2022-05-01T12:52:11.897Z</time>
      </trkpt>
      <trkpt lat="45.72243" lon="5.88158">
        <ele>258</ele>
        <time>2022-05-01T12:52:12.897Z</time>
      </trkpt>
      <trkpt lat="45.72234" lon="5.88152">
        <ele>258</ele>
        <time>2022-05-01T12:52:13.898Z</time>
      </trkpt>
      <trkpt lat="45.72226" lon="5.88148">
        <ele>258</ele>
        <time>2022-05-01T12:52:14.898Z</time>
      </trkpt>
      <trkpt lat="45.72217" lon="5.88146">
        <ele>257</ele>
        <time>2022-05-01T12:52:15.898Z</time>
      </trkpt>
      <trkpt lat="45.72208" lon="5.88147">
        <ele>256</ele>
        <time>2022-05-01T12:52:16.897Z</time>
      </trkpt>
      <trkpt lat="45.72199" lon="5.88152">
        <ele>255</ele>
        <time>2022-05-01T12:52:17.898Z</time>
      </trkpt>
      <trkpt lat="45.72191" lon="5.88158">
        <ele>254</ele>
        <time>2022-05-01T12:52:18.898Z</time>
      </trkpt>
      <trkpt lat="45.72184" lon="5.88167">
        <ele>253</ele>
        <time>2022-05-01T12:52:19.898Z</time>
      </trkpt>
      <trkpt lat="45.72177" lon="5.88176">
        <ele>252</ele>
        <time>2022-05-01T12:52:20.897Z</time>
      </trkpt>
      <trkpt lat="45.72174" lon="5.88185">
        <ele>251</ele>
        <time>2022-05-01T12:52:21.898Z</time>
      </trkpt>
      <trkpt lat="45.72168" lon="5.88198">
        <ele>251</ele>
        <time>2022-05-01T12:52:22.897Z</time>
      </trkpt>
      <trkpt lat="45.72163" lon="5.88209">
        <ele>251</ele>
        <time>2022-05-01T12:52:23.898Z</time>
      </trkpt>
      <trkpt lat="45.72158" lon="5.88219">
        <ele>251</ele>
        <time>2022-05-01T12:52:24.898Z</time>
      </trkpt>
      <trkpt lat="45.72154" lon="5.88231">
        <ele>251</ele>
        <time>2022-05-01T12:52:25.897Z</time>
      </trkpt>
      <trkpt lat="45.72149" lon="5.88242">
        <ele>251</ele>
        <time>2022-05-01T12:52:26.897Z</time>
      </trkpt>
      <trkpt lat="45.72144" lon="5.88252">
        <ele>250</ele>
        <time>2022-05-01T12:52:27.897Z</time>
      </trkpt>
      <trkpt lat="45.72139" lon="5.88262">
        <ele>250</ele>
        <time>2022-05-01T12:52:28.897Z</time>
      </trkpt>
      <trkpt lat="45.72134" lon="5.88272">
        <ele>249</ele>
        <time>2022-05-01T12:52:29.897Z</time>
      </trkpt>
      <trkpt lat="45.72131" lon="5.88279">
        <ele>248</ele>
        <time>2022-05-01T12:52:30.897Z</time>
      </trkpt>
      <trkpt lat="45.72127" lon="5.88288">
        <ele>248</ele>
        <time>2022-05-01T12:52:31.897Z</time>
      </trkpt>
      <trkpt lat="45.72123" lon="5.88296">
        <ele>248</ele>
        <time>2022-05-01T12:52:32.898Z</time>
      </trkpt>
      <trkpt lat="45.72118" lon="5.88305">
        <ele>248</ele>
        <time>2022-05-01T12:52:33.898Z</time>
      </trkpt>
      <trkpt lat="45.72115" lon="5.88311">
        <ele>248</ele>
        <time>2022-05-01T12:52:34.898Z</time>
      </trkpt>
      <trkpt lat="45.72112" lon="5.88318">
        <ele>248</ele>
        <time>2022-05-01T12:52:35.898Z</time>
      </trkpt>
      <trkpt lat="45.72108" lon="5.88325">
        <ele>247</ele>
        <time>2022-05-01T12:52:36.898Z</time>
      </trkpt>
      <trkpt lat="45.72104" lon="5.88333">
        <ele>247</ele>
        <time>2022-05-01T12:52:37.898Z</time>
      </trkpt>
      <trkpt lat="45.72101" lon="5.88339">
        <ele>247</ele>
        <time>2022-05-01T12:52:38.898Z</time>
      </trkpt>
      <trkpt lat="45.72098" lon="5.88345">
        <ele>247</ele>
        <time>2022-05-01T12:52:39.898Z</time>
      </trkpt>
      <trkpt lat="45.72096" lon="5.8835">
        <ele>248</ele>
        <time>2022-05-01T12:52:40.897Z</time>
      </trkpt>
      <trkpt lat="45.72092" lon="5.88356">
        <ele>247</ele>
        <time>2022-05-01T12:52:41.898Z</time>
      </trkpt>
      <trkpt lat="45.72088" lon="5.88363">
        <ele>247</ele>
        <time>2022-05-01T12:52:42.897Z</time>
      </trkpt>
      <trkpt lat="45.72086" lon="5.88369">
        <ele>247</ele>
        <time>2022-05-01T12:52:43.898Z</time>
      </trkpt>
      <trkpt lat="45.72083" lon="5.88375">
        <ele>248</ele>
        <time>2022-05-01T12:52:44.898Z</time>
      </trkpt>
      <trkpt lat="45.72081" lon="5.88379">
        <ele>248</ele>
        <time>2022-05-01T12:52:45.898Z</time>
      </trkpt>
      <trkpt lat="45.72079" lon="5.88385">
        <ele>248</ele>
        <time>2022-05-01T12:52:46.897Z</time>
      </trkpt>
      <trkpt lat="45.72076" lon="5.88391">
        <ele>248</ele>
        <time>2022-05-01T12:52:47.898Z</time>
      </trkpt>
      <trkpt lat="45.72073" lon="5.88397">
        <ele>249</ele>
        <time>2022-05-01T12:52:48.898Z</time>
      </trkpt>
      <trkpt lat="45.7207" lon="5.88403">
        <ele>250</ele>
        <time>2022-05-01T12:52:49.898Z</time>
      </trkpt>
      <trkpt lat="45.72068" lon="5.88407">
        <ele>251</ele>
        <time>2022-05-01T12:52:50.898Z</time>
      </trkpt>
      <trkpt lat="45.72064" lon="5.88413">
        <ele>252</ele>
        <time>2022-05-01T12:52:51.897Z</time>
      </trkpt>
      <trkpt lat="45.72061" lon="5.88418">
        <ele>253</ele>
        <time>2022-05-01T12:52:52.898Z</time>
      </trkpt>
      <trkpt lat="45.72058" lon="5.88424">
        <ele>253</ele>
        <time>2022-05-01T12:52:53.898Z</time>
      </trkpt>
      <trkpt lat="45.72055" lon="5.88428">
        <ele>254</ele>
        <time>2022-05-01T12:52:54.898Z</time>
      </trkpt>
      <trkpt lat="45.72053" lon="5.88434">
        <ele>254</ele>
        <time>2022-05-01T12:52:55.898Z</time>
      </trkpt>
      <trkpt lat="45.72048" lon="5.8844">
        <ele>254</ele>
        <time>2022-05-01T12:52:56.898Z</time>
      </trkpt>
      <trkpt lat="45.72045" lon="5.88446">
        <ele>254</ele>
        <time>2022-05-01T12:52:57.898Z</time>
      </trkpt>
      <trkpt lat="45.72041" lon="5.88451">
        <ele>255</ele>
        <time>2022-05-01T12:52:58.897Z</time>
      </trkpt>
      <trkpt lat="45.72038" lon="5.88455">
        <ele>255</ele>
        <time>2022-05-01T12:52:59.897Z</time>
      </trkpt>
      <trkpt lat="45.72035" lon="5.8846">
        <ele>255</ele>
        <time>2022-05-01T12:53:00.898Z</time>
      </trkpt>
      <trkpt lat="45.72032" lon="5.88464">
        <ele>256</ele>
        <time>2022-05-01T12:53:01.898Z</time>
      </trkpt>
      <trkpt lat="45.72028" lon="5.88468">
        <ele>256</ele>
        <time>2022-05-01T12:53:02.897Z</time>
      </trkpt>
      <trkpt lat="45.72025" lon="5.88472">
        <ele>256</ele>
        <time>2022-05-01T12:53:03.898Z</time>
      </trkpt>
      <trkpt lat="45.72022" lon="5.88477">
        <ele>257</ele>
        <time>2022-05-01T12:53:04.897Z</time>
      </trkpt>
      <trkpt lat="45.72019" lon="5.88481">
        <ele>257</ele>
        <time>2022-05-01T12:53:05.898Z</time>
      </trkpt>
      <trkpt lat="45.72016" lon="5.88486">
        <ele>257</ele>
        <time>2022-05-01T12:53:06.898Z</time>
      </trkpt>
      <trkpt lat="45.72013" lon="5.8849">
        <ele>258</ele>
        <time>2022-05-01T12:53:07.898Z</time>
      </trkpt>
      <trkpt lat="45.7201" lon="5.88494">
        <ele>258</ele>
        <time>2022-05-01T12:53:08.898Z</time>
      </trkpt>
      <trkpt lat="45.72006" lon="5.885">
        <ele>258</ele>
        <time>2022-05-01T12:53:09.898Z</time>
      </trkpt>
      <trkpt lat="45.72002" lon="5.88505">
        <ele>259</ele>
        <time>2022-05-01T12:53:10.898Z</time>
      </trkpt>
      <trkpt lat="45.71999" lon="5.88509">
        <ele>259</ele>
        <time>2022-05-01T12:53:11.898Z</time>
      </trkpt>
      <trkpt lat="45.71996" lon="5.88514">
        <ele>259</ele>
        <time>2022-05-01T12:53:12.898Z</time>
      </trkpt>
      <trkpt lat="45.71993" lon="5.88518">
        <ele>260</ele>
        <time>2022-05-01T12:53:13.898Z</time>
      </trkpt>
      <trkpt lat="45.7199" lon="5.88523">
        <ele>260</ele>
        <time>2022-05-01T12:53:14.898Z</time>
      </trkpt>
      <trkpt lat="45.71987" lon="5.88526">
        <ele>261</ele>
        <time>2022-05-01T12:53:15.898Z</time>
      </trkpt>
      <trkpt lat="45.71983" lon="5.88531">
        <ele>261</ele>
        <time>2022-05-01T12:53:16.898Z</time>
      </trkpt>
      <trkpt lat="45.7198" lon="5.88535">
        <ele>261</ele>
        <time>2022-05-01T12:53:17.898Z</time>
      </trkpt>
      <trkpt lat="45.71977" lon="5.88539">
        <ele>261</ele>
        <time>2022-05-01T12:53:18.898Z</time>
      </trkpt>
      <trkpt lat="45.71974" lon="5.88543">
        <ele>261</ele>
        <time>2022-05-01T12:53:19.897Z</time>
      </trkpt>
      <trkpt lat="45.71971" lon="5.88546">
        <ele>261</ele>
        <time>2022-05-01T12:53:20.897Z</time>
      </trkpt>
      <trkpt lat="45.71967" lon="5.8855">
        <ele>261</ele>
        <time>2022-05-01T12:53:21.898Z</time>
      </trkpt>
      <trkpt lat="45.71964" lon="5.88553">
        <ele>261</ele>
        <time>2022-05-01T12:53:22.898Z</time>
      </trkpt>
      <trkpt lat="45.7196" lon="5.88558">
        <ele>261</ele>
        <time>2022-05-01T12:53:23.898Z</time>
      </trkpt>
      <trkpt lat="45.71957" lon="5.88561">
        <ele>261</ele>
        <time>2022-05-01T12:53:24.898Z</time>
      </trkpt>
      <trkpt lat="45.71954" lon="5.88565">
        <ele>261</ele>
        <time>2022-05-01T12:53:25.897Z</time>
      </trkpt>
      <trkpt lat="45.7195" lon="5.88569">
        <ele>261</ele>
        <time>2022-05-01T12:53:26.898Z</time>
      </trkpt>
      <trkpt lat="45.71947" lon="5.88572">
        <ele>261</ele>
        <time>2022-05-01T12:53:27.898Z</time>
      </trkpt>
      <trkpt lat="45.71943" lon="5.88576">
        <ele>261</ele>
        <time>2022-05-01T12:53:28.898Z</time>
      </trkpt>
      <trkpt lat="45.7194" lon="5.8858">
        <ele>261</ele>
        <time>2022-05-01T12:53:29.897Z</time>
      </trkpt>
      <trkpt lat="45.71937" lon="5.88584">
        <ele>261</ele>
        <time>2022-05-01T12:53:30.898Z</time>
      </trkpt>
      <trkpt lat="45.71933" lon="5.88587">
        <ele>261</ele>
        <time>2022-05-01T12:53:31.897Z</time>
      </trkpt>
      <trkpt lat="45.7193" lon="5.88591">
        <ele>262</ele>
        <time>2022-05-01T12:53:32.898Z</time>
      </trkpt>
      <trkpt lat="45.71926" lon="5.88594">
        <ele>262</ele>
        <time>2022-05-01T12:53:33.898Z</time>
      </trkpt>
      <trkpt lat="45.71923" lon="5.88597">
        <ele>262</ele>
        <time>2022-05-01T12:53:34.898Z</time>
      </trkpt>
      <trkpt lat="45.7192" lon="5.886">
        <ele>262</ele>
        <time>2022-05-01T12:53:35.898Z</time>
      </trkpt>
      <trkpt lat="45.71917" lon="5.88603">
        <ele>262</ele>
        <time>2022-05-01T12:53:36.898Z</time>
      </trkpt>
      <trkpt lat="45.71914" lon="5.88605">
        <ele>262</ele>
        <time>2022-05-01T12:53:37.898Z</time>
      </trkpt>
      <trkpt lat="45.71911" lon="5.88608">
        <ele>262</ele>
        <time>2022-05-01T12:53:38.898Z</time>
      </trkpt>
      <trkpt lat="45.71908" lon="5.88611">
        <ele>262</ele>
        <time>2022-05-01T12:53:39.898Z</time>
      </trkpt>
      <trkpt lat="45.71906" lon="5.88613">
        <ele>262</ele>
        <time>2022-05-01T12:53:40.898Z</time>
      </trkpt>
      <trkpt lat="45.71903" lon="5.88615">
        <ele>262</ele>
        <time>2022-05-01T12:53:41.897Z</time>
      </trkpt>
      <trkpt lat="45.71901" lon="5.88617">
        <ele>262</ele>
        <time>2022-05-01T12:53:42.898Z</time>
      </trkpt>
      <trkpt lat="45.71898" lon="5.88618">
        <ele>261</ele>
        <time>2022-05-01T12:53:43.898Z</time>
      </trkpt>
      <trkpt lat="45.71895" lon="5.88621">
        <ele>261</ele>
        <time>2022-05-01T12:53:44.898Z</time>
      </trkpt>
      <trkpt lat="45.71893" lon="5.88623">
        <ele>261</ele>
        <time>2022-05-01T12:53:45.898Z</time>
      </trkpt>
      <trkpt lat="45.7189" lon="5.88625">
        <ele>261</ele>
        <time>2022-05-01T12:53:46.898Z</time>
      </trkpt>
      <trkpt lat="45.71887" lon="5.88627">
        <ele>261</ele>
        <time>2022-05-01T12:53:47.897Z</time>
      </trkpt>
      <trkpt lat="45.71884" lon="5.8863">
        <ele>261</ele>
        <time>2022-05-01T12:53:48.898Z</time>
      </trkpt>
      <trkpt lat="45.71881" lon="5.88632">
        <ele>261</ele>
        <time>2022-05-01T12:53:49.898Z</time>
      </trkpt>
      <trkpt lat="45.71879" lon="5.88634">
        <ele>261</ele>
        <time>2022-05-01T12:53:50.897Z</time>
      </trkpt>
      <trkpt lat="45.71876" lon="5.88636">
        <ele>262</ele>
        <time>2022-05-01T12:53:51.897Z</time>
      </trkpt>
      <trkpt lat="45.71872" lon="5.88638">
        <ele>262</ele>
        <time>2022-05-01T12:53:52.898Z</time>
      </trkpt>
      <trkpt lat="45.7187" lon="5.8864">
        <ele>262</ele>
        <time>2022-05-01T12:53:53.897Z</time>
      </trkpt>
      <trkpt lat="45.71867" lon="5.88642">
        <ele>261</ele>
        <time>2022-05-01T12:53:54.897Z</time>
      </trkpt>
      <trkpt lat="45.71864" lon="5.88644">
        <ele>261</ele>
        <time>2022-05-01T12:53:55.897Z</time>
      </trkpt>
      <trkpt lat="45.71861" lon="5.88646">
        <ele>261</ele>
        <time>2022-05-01T12:53:56.898Z</time>
      </trkpt>
      <trkpt lat="45.71858" lon="5.88648">
        <ele>261</ele>
        <time>2022-05-01T12:53:57.897Z</time>
      </trkpt>
      <trkpt lat="45.71855" lon="5.8865">
        <ele>261</ele>
        <time>2022-05-01T12:53:58.898Z</time>
      </trkpt>
      <trkpt lat="45.71851" lon="5.88652">
        <ele>261</ele>
        <time>2022-05-01T12:53:59.898Z</time>
      </trkpt>
      <trkpt lat="45.71848" lon="5.88654">
        <ele>261</ele>
        <time>2022-05-01T12:54:00.898Z</time>
      </trkpt>
      <trkpt lat="45.71845" lon="5.88655">
        <ele>261</ele>
        <time>2022-05-01T12:54:01.898Z</time>
      </trkpt>
      <trkpt lat="45.71842" lon="5.88657">
        <ele>261</ele>
        <time>2022-05-01T12:54:02.897Z</time>
      </trkpt>
      <trkpt lat="45.71839" lon="5.88658">
        <ele>261</ele>
        <time>2022-05-01T12:54:03.897Z</time>
      </trkpt>
      <trkpt lat="45.71836" lon="5.8866">
        <ele>261</ele>
        <time>2022-05-01T12:54:04.898Z</time>
      </trkpt>
      <trkpt lat="45.71833" lon="5.88662">
        <ele>261</ele>
        <time>2022-05-01T12:54:05.898Z</time>
      </trkpt>
      <trkpt lat="45.7183" lon="5.88663">
        <ele>261</ele>
        <time>2022-05-01T12:54:06.897Z</time>
      </trkpt>
      <trkpt lat="45.71827" lon="5.88665">
        <ele>261</ele>
        <time>2022-05-01T12:54:07.898Z</time>
      </trkpt>
      <trkpt lat="45.71824" lon="5.88667">
        <ele>261</ele>
        <time>2022-05-01T12:54:08.897Z</time>
      </trkpt>
      <trkpt lat="45.71821" lon="5.88669">
        <ele>261</ele>
        <time>2022-05-01T12:54:09.898Z</time>
      </trkpt>
      <trkpt lat="45.71818" lon="5.8867">
        <ele>261</ele>
        <time>2022-05-01T12:54:10.898Z</time>
      </trkpt>
      <trkpt lat="45.71815" lon="5.88672">
        <ele>260</ele>
        <time>2022-05-01T12:54:11.898Z</time>
      </trkpt>
      <trkpt lat="45.71811" lon="5.88674">
        <ele>260</ele>
        <time>2022-05-01T12:54:12.897Z</time>
      </trkpt>
      <trkpt lat="45.71808" lon="5.88675">
        <ele>259</ele>
        <time>2022-05-01T12:54:13.898Z</time>
      </trkpt>
      <trkpt lat="45.71804" lon="5.88677">
        <ele>259</ele>
        <time>2022-05-01T12:54:14.898Z</time>
      </trkpt>
      <trkpt lat="45.718" lon="5.88679">
        <ele>259</ele>
        <time>2022-05-01T12:54:15.898Z</time>
      </trkpt>
      <trkpt lat="45.71796" lon="5.88681">
        <ele>259</ele>
        <time>2022-05-01T12:54:16.898Z</time>
      </trkpt>
      <trkpt lat="45.71792" lon="5.88684">
        <ele>259</ele>
        <time>2022-05-01T12:54:17.898Z</time>
      </trkpt>
      <trkpt lat="45.71788" lon="5.88686">
        <ele>259</ele>
        <time>2022-05-01T12:54:18.898Z</time>
      </trkpt>
      <trkpt lat="45.71784" lon="5.88688">
        <ele>260</ele>
        <time>2022-05-01T12:54:19.898Z</time>
      </trkpt>
      <trkpt lat="45.7178" lon="5.88691">
        <ele>260</ele>
        <time>2022-05-01T12:54:20.897Z</time>
      </trkpt>
      <trkpt lat="45.71775" lon="5.88693">
        <ele>260</ele>
        <time>2022-05-01T12:54:21.898Z</time>
      </trkpt>
      <trkpt lat="45.71771" lon="5.88696">
        <ele>260</ele>
        <time>2022-05-01T12:54:22.897Z</time>
      </trkpt>
      <trkpt lat="45.71767" lon="5.88699">
        <ele>260</ele>
        <time>2022-05-01T12:54:23.898Z</time>
      </trkpt>
      <trkpt lat="45.71762" lon="5.88701">
        <ele>260</ele>
        <time>2022-05-01T12:54:24.898Z</time>
      </trkpt>
      <trkpt lat="45.71757" lon="5.88703">
        <ele>260</ele>
        <time>2022-05-01T12:54:25.897Z</time>
      </trkpt>
      <trkpt lat="45.71753" lon="5.88706">
        <ele>260</ele>
        <time>2022-05-01T12:54:26.898Z</time>
      </trkpt>
      <trkpt lat="45.71748" lon="5.88708">
        <ele>260</ele>
        <time>2022-05-01T12:54:27.898Z</time>
      </trkpt>
      <trkpt lat="45.71744" lon="5.88711">
        <ele>260</ele>
        <time>2022-05-01T12:54:28.897Z</time>
      </trkpt>
      <trkpt lat="45.71739" lon="5.88714">
        <ele>260</ele>
        <time>2022-05-01T12:54:29.898Z</time>
      </trkpt>
      <trkpt lat="45.71735" lon="5.88716">
        <ele>260</ele>
        <time>2022-05-01T12:54:30.898Z</time>
      </trkpt>
      <trkpt lat="45.71729" lon="5.88719">
        <ele>260</ele>
        <time>2022-05-01T12:54:31.898Z</time>
      </trkpt>
      <trkpt lat="45.71724" lon="5.88722">
        <ele>260</ele>
        <time>2022-05-01T12:54:32.897Z</time>
      </trkpt>
      <trkpt lat="45.7172" lon="5.88724">
        <ele>260</ele>
        <time>2022-05-01T12:54:33.897Z</time>
      </trkpt>
      <trkpt lat="45.71715" lon="5.88727">
        <ele>260</ele>
        <time>2022-05-01T12:54:34.898Z</time>
      </trkpt>
      <trkpt lat="45.7171" lon="5.8873">
        <ele>260</ele>
        <time>2022-05-01T12:54:35.898Z</time>
      </trkpt>
      <trkpt lat="45.71703" lon="5.88734">
        <ele>260</ele>
        <time>2022-05-01T12:54:36.897Z</time>
      </trkpt>
      <trkpt lat="45.71698" lon="5.88737">
        <ele>260</ele>
        <time>2022-05-01T12:54:37.897Z</time>
      </trkpt>
      <trkpt lat="45.71694" lon="5.88739">
        <ele>260</ele>
        <time>2022-05-01T12:54:38.898Z</time>
      </trkpt>
      <trkpt lat="45.71688" lon="5.88742">
        <ele>260</ele>
        <time>2022-05-01T12:54:39.898Z</time>
      </trkpt>
      <trkpt lat="45.71682" lon="5.88745">
        <ele>260</ele>
        <time>2022-05-01T12:54:40.898Z</time>
      </trkpt>
      <trkpt lat="45.71676" lon="5.88749">
        <ele>259</ele>
        <time>2022-05-01T12:54:41.897Z</time>
      </trkpt>
      <trkpt lat="45.7167" lon="5.88752">
        <ele>259</ele>
        <time>2022-05-01T12:54:42.897Z</time>
      </trkpt>
      <trkpt lat="45.71665" lon="5.88754">
        <ele>259</ele>
        <time>2022-05-01T12:54:43.898Z</time>
      </trkpt>
      <trkpt lat="45.71658" lon="5.88758">
        <ele>259</ele>
        <time>2022-05-01T12:54:44.898Z</time>
      </trkpt>
      <trkpt lat="45.71653" lon="5.88762">
        <ele>259</ele>
        <time>2022-05-01T12:54:45.898Z</time>
      </trkpt>
      <trkpt lat="45.71647" lon="5.88765">
        <ele>259</ele>
        <time>2022-05-01T12:54:46.898Z</time>
      </trkpt>
      <trkpt lat="45.71643" lon="5.88768">
        <ele>258</ele>
        <time>2022-05-01T12:54:47.897Z</time>
      </trkpt>
      <trkpt lat="45.71637" lon="5.88771">
        <ele>258</ele>
        <time>2022-05-01T12:54:48.897Z</time>
      </trkpt>
      <trkpt lat="45.71631" lon="5.88775">
        <ele>259</ele>
        <time>2022-05-01T12:54:49.897Z</time>
      </trkpt>
      <trkpt lat="45.71627" lon="5.88777">
        <ele>259</ele>
        <time>2022-05-01T12:54:50.898Z</time>
      </trkpt>
      <trkpt lat="45.71621" lon="5.88781">
        <ele>259</ele>
        <time>2022-05-01T12:54:51.898Z</time>
      </trkpt>
      <trkpt lat="45.71616" lon="5.88785">
        <ele>259</ele>
        <time>2022-05-01T12:54:52.898Z</time>
      </trkpt>
      <trkpt lat="45.71611" lon="5.8879">
        <ele>259</ele>
        <time>2022-05-01T12:54:53.897Z</time>
      </trkpt>
      <trkpt lat="45.71606" lon="5.88794">
        <ele>259</ele>
        <time>2022-05-01T12:54:54.898Z</time>
      </trkpt>
      <trkpt lat="45.71601" lon="5.88799">
        <ele>259</ele>
        <time>2022-05-01T12:54:55.898Z</time>
      </trkpt>
      <trkpt lat="45.71596" lon="5.88804">
        <ele>259</ele>
        <time>2022-05-01T12:54:56.898Z</time>
      </trkpt>
      <trkpt lat="45.71591" lon="5.88809">
        <ele>259</ele>
        <time>2022-05-01T12:54:57.897Z</time>
      </trkpt>
      <trkpt lat="45.71587" lon="5.88815">
        <ele>259</ele>
        <time>2022-05-01T12:54:58.898Z</time>
      </trkpt>
      <trkpt lat="45.71583" lon="5.88821">
        <ele>259</ele>
        <time>2022-05-01T12:54:59.898Z</time>
      </trkpt>
      <trkpt lat="45.71579" lon="5.88827">
        <ele>259</ele>
        <time>2022-05-01T12:55:00.898Z</time>
      </trkpt>
      <trkpt lat="45.71574" lon="5.88835">
        <ele>259</ele>
        <time>2022-05-01T12:55:01.897Z</time>
      </trkpt>
      <trkpt lat="45.71571" lon="5.8884">
        <ele>259</ele>
        <time>2022-05-01T12:55:02.897Z</time>
      </trkpt>
      <trkpt lat="45.71567" lon="5.88846">
        <ele>259</ele>
        <time>2022-05-01T12:55:03.897Z</time>
      </trkpt>
      <trkpt lat="45.71563" lon="5.88853">
        <ele>258</ele>
        <time>2022-05-01T12:55:04.897Z</time>
      </trkpt>
      <trkpt lat="45.71559" lon="5.88859">
        <ele>258</ele>
        <time>2022-05-01T12:55:05.897Z</time>
      </trkpt>
      <trkpt lat="45.71556" lon="5.88865">
        <ele>258</ele>
        <time>2022-05-01T12:55:06.897Z</time>
      </trkpt>
      <trkpt lat="45.71553" lon="5.88869">
        <ele>258</ele>
        <time>2022-05-01T12:55:07.897Z</time>
      </trkpt>
      <trkpt lat="45.7155" lon="5.88875">
        <ele>258</ele>
        <time>2022-05-01T12:55:08.897Z</time>
      </trkpt>
      <trkpt lat="45.71546" lon="5.88882">
        <ele>258</ele>
        <time>2022-05-01T12:55:09.897Z</time>
      </trkpt>
      <trkpt lat="45.71542" lon="5.88887">
        <ele>258</ele>
        <time>2022-05-01T12:55:10.897Z</time>
      </trkpt>
      <trkpt lat="45.71539" lon="5.88892">
        <ele>258</ele>
        <time>2022-05-01T12:55:11.898Z</time>
      </trkpt>
      <trkpt lat="45.71535" lon="5.88898">
        <ele>258</ele>
        <time>2022-05-01T12:55:12.897Z</time>
      </trkpt>
      <trkpt lat="45.71532" lon="5.88903">
        <ele>258</ele>
        <time>2022-05-01T12:55:13.897Z</time>
      </trkpt>
      <trkpt lat="45.71529" lon="5.88908">
        <ele>259</ele>
        <time>2022-05-01T12:55:14.897Z</time>
      </trkpt>
      <trkpt lat="45.71527" lon="5.88912">
        <ele>259</ele>
        <time>2022-05-01T12:55:15.897Z</time>
      </trkpt>
      <trkpt lat="45.71524" lon="5.88917">
        <ele>259</ele>
        <time>2022-05-01T12:55:16.898Z</time>
      </trkpt>
      <trkpt lat="45.71521" lon="5.88921">
        <ele>259</ele>
        <time>2022-05-01T12:55:17.897Z</time>
      </trkpt>
      <trkpt lat="45.71518" lon="5.88925">
        <ele>259</ele>
        <time>2022-05-01T12:55:18.897Z</time>
      </trkpt>
      <trkpt lat="45.71514" lon="5.88931">
        <ele>260</ele>
        <time>2022-05-01T12:55:19.898Z</time>
      </trkpt>
      <trkpt lat="45.71511" lon="5.88935">
        <ele>260</ele>
        <time>2022-05-01T12:55:20.897Z</time>
      </trkpt>
      <trkpt lat="45.71509" lon="5.8894">
        <ele>260</ele>
        <time>2022-05-01T12:55:21.897Z</time>
      </trkpt>
      <trkpt lat="45.71505" lon="5.88944">
        <ele>260</ele>
        <time>2022-05-01T12:55:22.897Z</time>
      </trkpt>
      <trkpt lat="45.71502" lon="5.88949">
        <ele>260</ele>
        <time>2022-05-01T12:55:23.897Z</time>
      </trkpt>
      <trkpt lat="45.71498" lon="5.88953">
        <ele>260</ele>
        <time>2022-05-01T12:55:24.898Z</time>
      </trkpt>
      <trkpt lat="45.71496" lon="5.88956">
        <ele>260</ele>
        <time>2022-05-01T12:55:25.898Z</time>
      </trkpt>
      <trkpt lat="45.71492" lon="5.88961">
        <ele>260</ele>
        <time>2022-05-01T12:55:26.897Z</time>
      </trkpt>
      <trkpt lat="45.71488" lon="5.88965">
        <ele>260</ele>
        <time>2022-05-01T12:55:27.898Z</time>
      </trkpt>
      <trkpt lat="45.71485" lon="5.88969">
        <ele>260</ele>
        <time>2022-05-01T12:55:28.897Z</time>
      </trkpt>
      <trkpt lat="45.71482" lon="5.88973">
        <ele>260</ele>
        <time>2022-05-01T12:55:29.897Z</time>
      </trkpt>
      <trkpt lat="45.71479" lon="5.88977">
        <ele>259</ele>
        <time>2022-05-01T12:55:30.898Z</time>
      </trkpt>
      <trkpt lat="45.71474" lon="5.88982">
        <ele>260</ele>
        <time>2022-05-01T12:55:31.898Z</time>
      </trkpt>
      <trkpt lat="45.71471" lon="5.88986">
        <ele>260</ele>
        <time>2022-05-01T12:55:32.898Z</time>
      </trkpt>
      <trkpt lat="45.71468" lon="5.88989">
        <ele>260</ele>
        <time>2022-05-01T12:55:33.898Z</time>
      </trkpt>
      <trkpt lat="45.71464" lon="5.88993">
        <ele>260</ele>
        <time>2022-05-01T12:55:34.898Z</time>
      </trkpt>
      <trkpt lat="45.7146" lon="5.88999">
        <ele>260</ele>
        <time>2022-05-01T12:55:35.898Z</time>
      </trkpt>
      <trkpt lat="45.71457" lon="5.89002">
        <ele>261</ele>
        <time>2022-05-01T12:55:36.898Z</time>
      </trkpt>
      <trkpt lat="45.71453" lon="5.89007">
        <ele>262</ele>
        <time>2022-05-01T12:55:37.898Z</time>
      </trkpt>
      <trkpt lat="45.7145" lon="5.89011">
        <ele>262</ele>
        <time>2022-05-01T12:55:38.898Z</time>
      </trkpt>
      <trkpt lat="45.71446" lon="5.89015">
        <ele>262</ele>
        <time>2022-05-01T12:55:39.898Z</time>
      </trkpt>
      <trkpt lat="45.71442" lon="5.89019">
        <ele>262</ele>
        <time>2022-05-01T12:55:40.898Z</time>
      </trkpt>
      <trkpt lat="45.71438" lon="5.89024">
        <ele>262</ele>
        <time>2022-05-01T12:55:41.898Z</time>
      </trkpt>
      <trkpt lat="45.71434" lon="5.89028">
        <ele>263</ele>
        <time>2022-05-01T12:55:42.898Z</time>
      </trkpt>
      <trkpt lat="45.71431" lon="5.89032">
        <ele>263</ele>
        <time>2022-05-01T12:55:43.897Z</time>
      </trkpt>
      <trkpt lat="45.71427" lon="5.89036">
        <ele>263</ele>
        <time>2022-05-01T12:55:44.898Z</time>
      </trkpt>
      <trkpt lat="45.71423" lon="5.89041">
        <ele>263</ele>
        <time>2022-05-01T12:55:45.898Z</time>
      </trkpt>
      <trkpt lat="45.71419" lon="5.89045">
        <ele>263</ele>
        <time>2022-05-01T12:55:46.897Z</time>
      </trkpt>
      <trkpt lat="45.71416" lon="5.89049">
        <ele>263</ele>
        <time>2022-05-01T12:55:47.898Z</time>
      </trkpt>
      <trkpt lat="45.71413" lon="5.89052">
        <ele>263</ele>
        <time>2022-05-01T12:55:48.897Z</time>
      </trkpt>
      <trkpt lat="45.71409" lon="5.89056">
        <ele>264</ele>
        <time>2022-05-01T12:55:49.897Z</time>
      </trkpt>
      <trkpt lat="45.71406" lon="5.8906">
        <ele>264</ele>
        <time>2022-05-01T12:55:50.897Z</time>
      </trkpt>
      <trkpt lat="45.71402" lon="5.89065">
        <ele>264</ele>
        <time>2022-05-01T12:55:51.897Z</time>
      </trkpt>
      <trkpt lat="45.71399" lon="5.89069">
        <ele>264</ele>
        <time>2022-05-01T12:55:52.898Z</time>
      </trkpt>
      <trkpt lat="45.71395" lon="5.89073">
        <ele>264</ele>
        <time>2022-05-01T12:55:53.897Z</time>
      </trkpt>
      <trkpt lat="45.71391" lon="5.89078">
        <ele>264</ele>
        <time>2022-05-01T12:55:54.898Z</time>
      </trkpt>
      <trkpt lat="45.71388" lon="5.89081">
        <ele>263</ele>
        <time>2022-05-01T12:55:55.898Z</time>
      </trkpt>
      <trkpt lat="45.71384" lon="5.89086">
        <ele>263</ele>
        <time>2022-05-01T12:55:56.897Z</time>
      </trkpt>
      <trkpt lat="45.71382" lon="5.89089">
        <ele>263</ele>
        <time>2022-05-01T12:55:57.898Z</time>
      </trkpt>
      <trkpt lat="45.71378" lon="5.89094">
        <ele>264</ele>
        <time>2022-05-01T12:55:58.898Z</time>
      </trkpt>
      <trkpt lat="45.71375" lon="5.89098">
        <ele>264</ele>
        <time>2022-05-01T12:55:59.898Z</time>
      </trkpt>
      <trkpt lat="45.71371" lon="5.89102">
        <ele>264</ele>
        <time>2022-05-01T12:56:00.897Z</time>
      </trkpt>
      <trkpt lat="45.71367" lon="5.89107">
        <ele>264</ele>
        <time>2022-05-01T12:56:01.897Z</time>
      </trkpt>
      <trkpt lat="45.71364" lon="5.8911">
        <ele>264</ele>
        <time>2022-05-01T12:56:02.898Z</time>
      </trkpt>
      <trkpt lat="45.7136" lon="5.89115">
        <ele>264</ele>
        <time>2022-05-01T12:56:03.898Z</time>
      </trkpt>
      <trkpt lat="45.71356" lon="5.8912">
        <ele>265</ele>
        <time>2022-05-01T12:56:04.897Z</time>
      </trkpt>
      <trkpt lat="45.71353" lon="5.89125">
        <ele>265</ele>
        <time>2022-05-01T12:56:05.897Z</time>
      </trkpt>
      <trkpt lat="45.7135" lon="5.8913">
        <ele>265</ele>
        <time>2022-05-01T12:56:06.898Z</time>
      </trkpt>
      <trkpt lat="45.71347" lon="5.89134">
        <ele>266</ele>
        <time>2022-05-01T12:56:07.898Z</time>
      </trkpt>
      <trkpt lat="45.71344" lon="5.89139">
        <ele>265</ele>
        <time>2022-05-01T12:56:08.897Z</time>
      </trkpt>
      <trkpt lat="45.71341" lon="5.89145">
        <ele>265</ele>
        <time>2022-05-01T12:56:09.897Z</time>
      </trkpt>
      <trkpt lat="45.71339" lon="5.8915">
        <ele>265</ele>
        <time>2022-05-01T12:56:10.898Z</time>
      </trkpt>
      <trkpt lat="45.71336" lon="5.89157">
        <ele>265</ele>
        <time>2022-05-01T12:56:11.897Z</time>
      </trkpt>
      <trkpt lat="45.71335" lon="5.89162">
        <ele>266</ele>
        <time>2022-05-01T12:56:12.897Z</time>
      </trkpt>
      <trkpt lat="45.71333" lon="5.89168">
        <ele>266</ele>
        <time>2022-05-01T12:56:13.898Z</time>
      </trkpt>
      <trkpt lat="45.71331" lon="5.89174">
        <ele>266</ele>
        <time>2022-05-01T12:56:14.898Z</time>
      </trkpt>
      <trkpt lat="45.71329" lon="5.8918">
        <ele>267</ele>
        <time>2022-05-01T12:56:15.898Z</time>
      </trkpt>
      <trkpt lat="45.71328" lon="5.89185">
        <ele>267</ele>
        <time>2022-05-01T12:56:16.898Z</time>
      </trkpt>
      <trkpt lat="45.71327" lon="5.89192">
        <ele>268</ele>
        <time>2022-05-01T12:56:17.898Z</time>
      </trkpt>
      <trkpt lat="45.71326" lon="5.89198">
        <ele>268</ele>
        <time>2022-05-01T12:56:18.898Z</time>
      </trkpt>
      <trkpt lat="45.71325" lon="5.89205">
        <ele>269</ele>
        <time>2022-05-01T12:56:19.898Z</time>
      </trkpt>
      <trkpt lat="45.71324" lon="5.8921">
        <ele>269</ele>
        <time>2022-05-01T12:56:20.898Z</time>
      </trkpt>
      <trkpt lat="45.71324" lon="5.89217">
        <ele>270</ele>
        <time>2022-05-01T12:56:21.897Z</time>
      </trkpt>
      <trkpt lat="45.71324" lon="5.89225">
        <ele>270</ele>
        <time>2022-05-01T12:56:22.898Z</time>
      </trkpt>
      <trkpt lat="45.71324" lon="5.89229">
        <ele>270</ele>
        <time>2022-05-01T12:56:23.898Z</time>
      </trkpt>
      <trkpt lat="45.71323" lon="5.89237">
        <ele>271</ele>
        <time>2022-05-01T12:56:24.898Z</time>
      </trkpt>
      <trkpt lat="45.71323" lon="5.89242">
        <ele>271</ele>
        <time>2022-05-01T12:56:25.898Z</time>
      </trkpt>
      <trkpt lat="45.71323" lon="5.89248">
        <ele>271</ele>
        <time>2022-05-01T12:56:26.898Z</time>
      </trkpt>
      <trkpt lat="45.71323" lon="5.89254">
        <ele>271</ele>
        <time>2022-05-01T12:56:27.898Z</time>
      </trkpt>
      <trkpt lat="45.71322" lon="5.8926">
        <ele>271</ele>
        <time>2022-05-01T12:56:28.897Z</time>
      </trkpt>
      <trkpt lat="45.71322" lon="5.89265">
        <ele>271</ele>
        <time>2022-05-01T12:56:29.897Z</time>
      </trkpt>
      <trkpt lat="45.71322" lon="5.89271">
        <ele>271</ele>
        <time>2022-05-01T12:56:30.898Z</time>
      </trkpt>
      <trkpt lat="45.71322" lon="5.89277">
        <ele>272</ele>
        <time>2022-05-01T12:56:31.898Z</time>
      </trkpt>
      <trkpt lat="45.71322" lon="5.89282">
        <ele>272</ele>
        <time>2022-05-01T12:56:32.898Z</time>
      </trkpt>
      <trkpt lat="45.71322" lon="5.89289">
        <ele>272</ele>
        <time>2022-05-01T12:56:33.898Z</time>
      </trkpt>
      <trkpt lat="45.71322" lon="5.89294">
        <ele>272</ele>
        <time>2022-05-01T12:56:34.897Z</time>
      </trkpt>
      <trkpt lat="45.71322" lon="5.893">
        <ele>272</ele>
        <time>2022-05-01T12:56:35.898Z</time>
      </trkpt>
      <trkpt lat="45.71321" lon="5.89305">
        <ele>272</ele>
        <time>2022-05-01T12:56:36.898Z</time>
      </trkpt>
      <trkpt lat="45.71319" lon="5.89311">
        <ele>272</ele>
        <time>2022-05-01T12:56:37.897Z</time>
      </trkpt>
      <trkpt lat="45.71317" lon="5.89316">
        <ele>273</ele>
        <time>2022-05-01T12:56:38.897Z</time>
      </trkpt>
      <trkpt lat="45.71315" lon="5.89322">
        <ele>273</ele>
        <time>2022-05-01T12:56:39.897Z</time>
      </trkpt>
      <trkpt lat="45.71313" lon="5.89327">
        <ele>273</ele>
        <time>2022-05-01T12:56:40.897Z</time>
      </trkpt>
      <trkpt lat="45.71312" lon="5.89333">
        <ele>273</ele>
        <time>2022-05-01T12:56:41.897Z</time>
      </trkpt>
      <trkpt lat="45.71309" lon="5.89339">
        <ele>273</ele>
        <time>2022-05-01T12:56:42.898Z</time>
      </trkpt>
      <trkpt lat="45.71305" lon="5.89344">
        <ele>273</ele>
        <time>2022-05-01T12:56:43.897Z</time>
      </trkpt>
      <trkpt lat="45.713" lon="5.89347">
        <ele>273</ele>
        <time>2022-05-01T12:56:44.898Z</time>
      </trkpt>
      <trkpt lat="45.71296" lon="5.89348">
        <ele>273</ele>
        <time>2022-05-01T12:56:45.898Z</time>
      </trkpt>
      <trkpt lat="45.7129" lon="5.89347">
        <ele>273</ele>
        <time>2022-05-01T12:56:46.898Z</time>
      </trkpt>
      <trkpt lat="45.71284" lon="5.89345">
        <ele>273</ele>
        <time>2022-05-01T12:56:47.897Z</time>
      </trkpt>
      <trkpt lat="45.71277" lon="5.89344">
        <ele>273</ele>
        <time>2022-05-01T12:56:48.898Z</time>
      </trkpt>
      <trkpt lat="45.71272" lon="5.89342">
        <ele>273</ele>
        <time>2022-05-01T12:56:49.898Z</time>
      </trkpt>
      <trkpt lat="45.71265" lon="5.8934">
        <ele>273</ele>
        <time>2022-05-01T12:56:50.898Z</time>
      </trkpt>
      <trkpt lat="45.71259" lon="5.89338">
        <ele>272</ele>
        <time>2022-05-01T12:56:51.897Z</time>
      </trkpt>
      <trkpt lat="45.71252" lon="5.89336">
        <ele>272</ele>
        <time>2022-05-01T12:56:52.897Z</time>
      </trkpt>
      <trkpt lat="45.71246" lon="5.89334">
        <ele>272</ele>
        <time>2022-05-01T12:56:53.898Z</time>
      </trkpt>
      <trkpt lat="45.71239" lon="5.89331">
        <ele>272</ele>
        <time>2022-05-01T12:56:54.898Z</time>
      </trkpt>
      <trkpt lat="45.71232" lon="5.89328">
        <ele>272</ele>
        <time>2022-05-01T12:56:55.898Z</time>
      </trkpt>
      <trkpt lat="45.71224" lon="5.89325">
        <ele>272</ele>
        <time>2022-05-01T12:56:56.898Z</time>
      </trkpt>
      <trkpt lat="45.71215" lon="5.89322">
        <ele>271</ele>
        <time>2022-05-01T12:56:57.898Z</time>
      </trkpt>
      <trkpt lat="45.71207" lon="5.8932">
        <ele>271</ele>
        <time>2022-05-01T12:56:58.898Z</time>
      </trkpt>
      <trkpt lat="45.71199" lon="5.89318">
        <ele>270</ele>
        <time>2022-05-01T12:56:59.898Z</time>
      </trkpt>
      <trkpt lat="45.7119" lon="5.89317">
        <ele>270</ele>
        <time>2022-05-01T12:57:00.898Z</time>
      </trkpt>
      <trkpt lat="45.71182" lon="5.89316">
        <ele>269</ele>
        <time>2022-05-01T12:57:01.897Z</time>
      </trkpt>
      <trkpt lat="45.71173" lon="5.89316">
        <ele>269</ele>
        <time>2022-05-01T12:57:02.897Z</time>
      </trkpt>
      <trkpt lat="45.71163" lon="5.89316">
        <ele>269</ele>
        <time>2022-05-01T12:57:03.897Z</time>
      </trkpt>
      <trkpt lat="45.71154" lon="5.89317">
        <ele>269</ele>
        <time>2022-05-01T12:57:04.897Z</time>
      </trkpt>
      <trkpt lat="45.71144" lon="5.89318">
        <ele>269</ele>
        <time>2022-05-01T12:57:05.898Z</time>
      </trkpt>
      <trkpt lat="45.71134" lon="5.8932">
        <ele>269</ele>
        <time>2022-05-01T12:57:06.898Z</time>
      </trkpt>
      <trkpt lat="45.71124" lon="5.89323">
        <ele>269</ele>
        <time>2022-05-01T12:57:07.898Z</time>
      </trkpt>
      <trkpt lat="45.71114" lon="5.89325">
        <ele>268</ele>
        <time>2022-05-01T12:57:08.897Z</time>
      </trkpt>
      <trkpt lat="45.71104" lon="5.89329">
        <ele>267</ele>
        <time>2022-05-01T12:57:09.898Z</time>
      </trkpt>
      <trkpt lat="45.71093" lon="5.89332">
        <ele>267</ele>
        <time>2022-05-01T12:57:10.898Z</time>
      </trkpt>
      <trkpt lat="45.71083" lon="5.89336">
        <ele>267</ele>
        <time>2022-05-01T12:57:11.897Z</time>
      </trkpt>
      <trkpt lat="45.71072" lon="5.8934">
        <ele>266</ele>
        <time>2022-05-01T12:57:12.897Z</time>
      </trkpt>
      <trkpt lat="45.71061" lon="5.89344">
        <ele>266</ele>
        <time>2022-05-01T12:57:13.898Z</time>
      </trkpt>
      <trkpt lat="45.7105" lon="5.89347">
        <ele>265</ele>
        <time>2022-05-01T12:57:14.897Z</time>
      </trkpt>
      <trkpt lat="45.71039" lon="5.89351">
        <ele>265</ele>
        <time>2022-05-01T12:57:15.898Z</time>
      </trkpt>
      <trkpt lat="45.71028" lon="5.89355">
        <ele>264</ele>
        <time>2022-05-01T12:57:16.898Z</time>
      </trkpt>
      <trkpt lat="45.71017" lon="5.89359">
        <ele>263</ele>
        <time>2022-05-01T12:57:17.897Z</time>
      </trkpt>
      <trkpt lat="45.71006" lon="5.89361">
        <ele>262</ele>
        <time>2022-05-01T12:57:18.897Z</time>
      </trkpt>
      <trkpt lat="45.70996" lon="5.89362">
        <ele>261</ele>
        <time>2022-05-01T12:57:19.898Z</time>
      </trkpt>
      <trkpt lat="45.70987" lon="5.89361">
        <ele>260</ele>
        <time>2022-05-01T12:57:20.897Z</time>
      </trkpt>
      <trkpt lat="45.70979" lon="5.8936">
        <ele>259</ele>
        <time>2022-05-01T12:57:21.897Z</time>
      </trkpt>
      <trkpt lat="45.70971" lon="5.89359">
        <ele>259</ele>
        <time>2022-05-01T12:57:22.898Z</time>
      </trkpt>
      <trkpt lat="45.70963" lon="5.89358">
        <ele>258</ele>
        <time>2022-05-01T12:57:23.898Z</time>
      </trkpt>
      <trkpt lat="45.70956" lon="5.89358">
        <ele>257</ele>
        <time>2022-05-01T12:57:24.897Z</time>
      </trkpt>
      <trkpt lat="45.70949" lon="5.89358">
        <ele>256</ele>
        <time>2022-05-01T12:57:25.897Z</time>
      </trkpt>
      <trkpt lat="45.70941" lon="5.8936">
        <ele>255</ele>
        <time>2022-05-01T12:57:26.898Z</time>
      </trkpt>
      <trkpt lat="45.70934" lon="5.89361">
        <ele>254</ele>
        <time>2022-05-01T12:57:27.898Z</time>
      </trkpt>
      <trkpt lat="45.70926" lon="5.89364">
        <ele>253</ele>
        <time>2022-05-01T12:57:28.898Z</time>
      </trkpt>
      <trkpt lat="45.70918" lon="5.89367">
        <ele>252</ele>
        <time>2022-05-01T12:57:29.898Z</time>
      </trkpt>
      <trkpt lat="45.70909" lon="5.8937">
        <ele>251</ele>
        <time>2022-05-01T12:57:30.898Z</time>
      </trkpt>
      <trkpt lat="45.70901" lon="5.89374">
        <ele>250</ele>
        <time>2022-05-01T12:57:31.898Z</time>
      </trkpt>
      <trkpt lat="45.70892" lon="5.89379">
        <ele>250</ele>
        <time>2022-05-01T12:57:32.898Z</time>
      </trkpt>
      <trkpt lat="45.70883" lon="5.89383">
        <ele>249</ele>
        <time>2022-05-01T12:57:33.897Z</time>
      </trkpt>
      <trkpt lat="45.70874" lon="5.89386">
        <ele>249</ele>
        <time>2022-05-01T12:57:34.898Z</time>
      </trkpt>
      <trkpt lat="45.70864" lon="5.89389">
        <ele>248</ele>
        <time>2022-05-01T12:57:35.897Z</time>
      </trkpt>
      <trkpt lat="45.70855" lon="5.89392">
        <ele>247</ele>
        <time>2022-05-01T12:57:36.898Z</time>
      </trkpt>
      <trkpt lat="45.70845" lon="5.89393">
        <ele>247</ele>
        <time>2022-05-01T12:57:37.897Z</time>
      </trkpt>
      <trkpt lat="45.70837" lon="5.89394">
        <ele>246</ele>
        <time>2022-05-01T12:57:38.897Z</time>
      </trkpt>
      <trkpt lat="45.70828" lon="5.89394">
        <ele>246</ele>
        <time>2022-05-01T12:57:39.898Z</time>
      </trkpt>
      <trkpt lat="45.70819" lon="5.89395">
        <ele>245</ele>
        <time>2022-05-01T12:57:40.898Z</time>
      </trkpt>
      <trkpt lat="45.70811" lon="5.89396">
        <ele>245</ele>
        <time>2022-05-01T12:57:41.897Z</time>
      </trkpt>
      <trkpt lat="45.70803" lon="5.89396">
        <ele>245</ele>
        <time>2022-05-01T12:57:42.897Z</time>
      </trkpt>
      <trkpt lat="45.70795" lon="5.89396">
        <ele>245</ele>
        <time>2022-05-01T12:57:43.897Z</time>
      </trkpt>
      <trkpt lat="45.70788" lon="5.89397">
        <ele>245</ele>
        <time>2022-05-01T12:57:44.898Z</time>
      </trkpt>
      <trkpt lat="45.7078" lon="5.89397">
        <ele>245</ele>
        <time>2022-05-01T12:57:45.898Z</time>
      </trkpt>
      <trkpt lat="45.70772" lon="5.89397">
        <ele>244</ele>
        <time>2022-05-01T12:57:46.897Z</time>
      </trkpt>
      <trkpt lat="45.70765" lon="5.89397">
        <ele>244</ele>
        <time>2022-05-01T12:57:47.897Z</time>
      </trkpt>
      <trkpt lat="45.70757" lon="5.89398">
        <ele>243</ele>
        <time>2022-05-01T12:57:48.898Z</time>
      </trkpt>
      <trkpt lat="45.7075" lon="5.89398">
        <ele>243</ele>
        <time>2022-05-01T12:57:49.897Z</time>
      </trkpt>
      <trkpt lat="45.70743" lon="5.89399">
        <ele>243</ele>
        <time>2022-05-01T12:57:50.897Z</time>
      </trkpt>
      <trkpt lat="45.70736" lon="5.89399">
        <ele>243</ele>
        <time>2022-05-01T12:57:51.898Z</time>
      </trkpt>
      <trkpt lat="45.70729" lon="5.89399">
        <ele>243</ele>
        <time>2022-05-01T12:57:52.898Z</time>
      </trkpt>
      <trkpt lat="45.70721" lon="5.89399">
        <ele>243</ele>
        <time>2022-05-01T12:57:53.898Z</time>
      </trkpt>
      <trkpt lat="45.70714" lon="5.894">
        <ele>243</ele>
        <time>2022-05-01T12:57:54.898Z</time>
      </trkpt>
      <trkpt lat="45.70707" lon="5.894">
        <ele>243</ele>
        <time>2022-05-01T12:57:55.897Z</time>
      </trkpt>
      <trkpt lat="45.707" lon="5.894">
        <ele>243</ele>
        <time>2022-05-01T12:57:56.898Z</time>
      </trkpt>
      <trkpt lat="45.70693" lon="5.894">
        <ele>243</ele>
        <time>2022-05-01T12:57:57.898Z</time>
      </trkpt>
      <trkpt lat="45.70686" lon="5.89401">
        <ele>243</ele>
        <time>2022-05-01T12:57:58.897Z</time>
      </trkpt>
      <trkpt lat="45.7068" lon="5.89402">
        <ele>243</ele>
        <time>2022-05-01T12:57:59.898Z</time>
      </trkpt>
      <trkpt lat="45.70673" lon="5.89402">
        <ele>243</ele>
        <time>2022-05-01T12:58:00.898Z</time>
      </trkpt>
      <trkpt lat="45.70666" lon="5.89403">
        <ele>243</ele>
        <time>2022-05-01T12:58:01.898Z</time>
      </trkpt>
      <trkpt lat="45.7066" lon="5.89405">
        <ele>243</ele>
        <time>2022-05-01T12:58:02.897Z</time>
      </trkpt>
      <trkpt lat="45.70654" lon="5.89406">
        <ele>243</ele>
        <time>2022-05-01T12:58:03.897Z</time>
      </trkpt>
      <trkpt lat="45.70647" lon="5.89408">
        <ele>243</ele>
        <time>2022-05-01T12:58:04.898Z</time>
      </trkpt>
      <trkpt lat="45.70642" lon="5.8941">
        <ele>243</ele>
        <time>2022-05-01T12:58:05.898Z</time>
      </trkpt>
      <trkpt lat="45.70636" lon="5.89412">
        <ele>242</ele>
        <time>2022-05-01T12:58:06.897Z</time>
      </trkpt>
      <trkpt lat="45.70629" lon="5.89414">
        <ele>242</ele>
        <time>2022-05-01T12:58:07.898Z</time>
      </trkpt>
      <trkpt lat="45.70623" lon="5.89416">
        <ele>242</ele>
        <time>2022-05-01T12:58:08.898Z</time>
      </trkpt>
      <trkpt lat="45.70617" lon="5.89419">
        <ele>242</ele>
        <time>2022-05-01T12:58:09.897Z</time>
      </trkpt>
      <trkpt lat="45.70611" lon="5.89421">
        <ele>242</ele>
        <time>2022-05-01T12:58:10.898Z</time>
      </trkpt>
      <trkpt lat="45.70605" lon="5.89423">
        <ele>242</ele>
        <time>2022-05-01T12:58:11.897Z</time>
      </trkpt>
      <trkpt lat="45.706" lon="5.89426">
        <ele>242</ele>
        <time>2022-05-01T12:58:12.897Z</time>
      </trkpt>
      <trkpt lat="45.70595" lon="5.89428">
        <ele>241</ele>
        <time>2022-05-01T12:58:13.898Z</time>
      </trkpt>
      <trkpt lat="45.70589" lon="5.8943">
        <ele>241</ele>
        <time>2022-05-01T12:58:14.898Z</time>
      </trkpt>
      <trkpt lat="45.70584" lon="5.89432">
        <ele>241</ele>
        <time>2022-05-01T12:58:15.898Z</time>
      </trkpt>
      <trkpt lat="45.7058" lon="5.89434">
        <ele>241</ele>
        <time>2022-05-01T12:58:16.898Z</time>
      </trkpt>
      <trkpt lat="45.70573" lon="5.89436">
        <ele>241</ele>
        <time>2022-05-01T12:58:17.898Z</time>
      </trkpt>
      <trkpt lat="45.70567" lon="5.89437">
        <ele>242</ele>
        <time>2022-05-01T12:58:18.898Z</time>
      </trkpt>
      <trkpt lat="45.70562" lon="5.89439">
        <ele>242</ele>
        <time>2022-05-01T12:58:19.897Z</time>
      </trkpt>
      <trkpt lat="45.70556" lon="5.8944">
        <ele>242</ele>
        <time>2022-05-01T12:58:20.898Z</time>
      </trkpt>
      <trkpt lat="45.7055" lon="5.89441">
        <ele>241</ele>
        <time>2022-05-01T12:58:21.898Z</time>
      </trkpt>
      <trkpt lat="45.70544" lon="5.89442">
        <ele>241</ele>
        <time>2022-05-01T12:58:22.897Z</time>
      </trkpt>
      <trkpt lat="45.70539" lon="5.89444">
        <ele>242</ele>
        <time>2022-05-01T12:58:23.898Z</time>
      </trkpt>
      <trkpt lat="45.70533" lon="5.89445">
        <ele>242</ele>
        <time>2022-05-01T12:58:24.898Z</time>
      </trkpt>
      <trkpt lat="45.70527" lon="5.89446">
        <ele>243</ele>
        <time>2022-05-01T12:58:25.898Z</time>
      </trkpt>
      <trkpt lat="45.70521" lon="5.89447">
        <ele>243</ele>
        <time>2022-05-01T12:58:26.898Z</time>
      </trkpt>
      <trkpt lat="45.70516" lon="5.89448">
        <ele>243</ele>
        <time>2022-05-01T12:58:27.897Z</time>
      </trkpt>
      <trkpt lat="45.70511" lon="5.89449">
        <ele>242</ele>
        <time>2022-05-01T12:58:28.898Z</time>
      </trkpt>
      <trkpt lat="45.70505" lon="5.8945">
        <ele>242</ele>
        <time>2022-05-01T12:58:29.898Z</time>
      </trkpt>
      <trkpt lat="45.70498" lon="5.89452">
        <ele>242</ele>
        <time>2022-05-01T12:58:30.897Z</time>
      </trkpt>
      <trkpt lat="45.70493" lon="5.89453">
        <ele>242</ele>
        <time>2022-05-01T12:58:31.898Z</time>
      </trkpt>
      <trkpt lat="45.70488" lon="5.89454">
        <ele>243</ele>
        <time>2022-05-01T12:58:32.898Z</time>
      </trkpt>
      <trkpt lat="45.70482" lon="5.89455">
        <ele>243</ele>
        <time>2022-05-01T12:58:33.897Z</time>
      </trkpt>
      <trkpt lat="45.70477" lon="5.89456">
        <ele>243</ele>
        <time>2022-05-01T12:58:34.898Z</time>
      </trkpt>
      <trkpt lat="45.70472" lon="5.89457">
        <ele>243</ele>
        <time>2022-05-01T12:58:35.898Z</time>
      </trkpt>
      <trkpt lat="45.70467" lon="5.89458">
        <ele>243</ele>
        <time>2022-05-01T12:58:36.898Z</time>
      </trkpt>
      <trkpt lat="45.70462" lon="5.89459">
        <ele>243</ele>
        <time>2022-05-01T12:58:37.897Z</time>
      </trkpt>
      <trkpt lat="45.70459" lon="5.89459">
        <ele>243</ele>
        <time>2022-05-01T12:58:38.898Z</time>
      </trkpt>
      <trkpt lat="45.70455" lon="5.8946">
        <ele>243</ele>
        <time>2022-05-01T12:58:39.898Z</time>
      </trkpt>
      <trkpt lat="45.70453" lon="5.8946">
        <ele>243</ele>
        <time>2022-05-01T12:58:40.897Z</time>
      </trkpt>
      <trkpt lat="45.7045" lon="5.89461">
        <ele>243</ele>
        <time>2022-05-01T12:58:41.897Z</time>
      </trkpt>
      <trkpt lat="45.70447" lon="5.89462">
        <ele>243</ele>
        <time>2022-05-01T12:58:42.897Z</time>
      </trkpt>
      <trkpt lat="45.70444" lon="5.89462">
        <ele>243</ele>
        <time>2022-05-01T12:58:43.898Z</time>
      </trkpt>
      <trkpt lat="45.70441" lon="5.89461">
        <ele>242</ele>
        <time>2022-05-01T12:58:44.898Z</time>
      </trkpt>
      <trkpt lat="45.70438" lon="5.89459">
        <ele>242</ele>
        <time>2022-05-01T12:58:45.897Z</time>
      </trkpt>
      <trkpt lat="45.70436" lon="5.89455">
        <ele>241</ele>
        <time>2022-05-01T12:58:46.897Z</time>
      </trkpt>
      <trkpt lat="45.70435" lon="5.8945">
        <ele>241</ele>
        <time>2022-05-01T12:58:47.898Z</time>
      </trkpt>
      <trkpt lat="45.70435" lon="5.89446">
        <ele>240</ele>
        <time>2022-05-01T12:58:48.898Z</time>
      </trkpt>
      <trkpt lat="45.70436" lon="5.89438">
        <ele>239</ele>
        <time>2022-05-01T12:58:49.898Z</time>
      </trkpt>
      <trkpt lat="45.70437" lon="5.89432">
        <ele>239</ele>
        <time>2022-05-01T12:58:50.898Z</time>
      </trkpt>
      <trkpt lat="45.70438" lon="5.89425">
        <ele>239</ele>
        <time>2022-05-01T12:58:51.898Z</time>
      </trkpt>
      <trkpt lat="45.70439" lon="5.89417">
        <ele>239</ele>
        <time>2022-05-01T12:58:52.898Z</time>
      </trkpt>
      <trkpt lat="45.7044" lon="5.8941">
        <ele>239</ele>
        <time>2022-05-01T12:58:53.898Z</time>
      </trkpt>
      <trkpt lat="45.70441" lon="5.89402">
        <ele>239</ele>
        <time>2022-05-01T12:58:54.897Z</time>
      </trkpt>
      <trkpt lat="45.70442" lon="5.89394">
        <ele>239</ele>
        <time>2022-05-01T12:58:55.898Z</time>
      </trkpt>
      <trkpt lat="45.70443" lon="5.89386">
        <ele>239</ele>
        <time>2022-05-01T12:58:56.897Z</time>
      </trkpt>
      <trkpt lat="45.70443" lon="5.89378">
        <ele>239</ele>
        <time>2022-05-01T12:58:57.898Z</time>
      </trkpt>
      <trkpt lat="45.70444" lon="5.8937">
        <ele>239</ele>
        <time>2022-05-01T12:58:58.897Z</time>
      </trkpt>
      <trkpt lat="45.70445" lon="5.89363">
        <ele>240</ele>
        <time>2022-05-01T12:58:59.898Z</time>
      </trkpt>
      <trkpt lat="45.70445" lon="5.89355">
        <ele>240</ele>
        <time>2022-05-01T12:59:00.898Z</time>
      </trkpt>
      <trkpt lat="45.70446" lon="5.89348">
        <ele>240</ele>
        <time>2022-05-01T12:59:01.898Z</time>
      </trkpt>
      <trkpt lat="45.70447" lon="5.89342">
        <ele>240</ele>
        <time>2022-05-01T12:59:02.898Z</time>
      </trkpt>
      <trkpt lat="45.70447" lon="5.89333">
        <ele>241</ele>
        <time>2022-05-01T12:59:03.898Z</time>
      </trkpt>
      <trkpt lat="45.70448" lon="5.89325">
        <ele>241</ele>
        <time>2022-05-01T12:59:04.898Z</time>
      </trkpt>
      <trkpt lat="45.70449" lon="5.89317">
        <ele>241</ele>
        <time>2022-05-01T12:59:05.897Z</time>
      </trkpt>
      <trkpt lat="45.7045" lon="5.89308">
        <ele>241</ele>
        <time>2022-05-01T12:59:06.898Z</time>
      </trkpt>
      <trkpt lat="45.70451" lon="5.89301">
        <ele>241</ele>
        <time>2022-05-01T12:59:07.897Z</time>
      </trkpt>
      <trkpt lat="45.70452" lon="5.89292">
        <ele>241</ele>
        <time>2022-05-01T12:59:08.898Z</time>
      </trkpt>
      <trkpt lat="45.70453" lon="5.89284">
        <ele>241</ele>
        <time>2022-05-01T12:59:09.897Z</time>
      </trkpt>
      <trkpt lat="45.70454" lon="5.89275">
        <ele>241</ele>
        <time>2022-05-01T12:59:10.897Z</time>
      </trkpt>
      <trkpt lat="45.70455" lon="5.89267">
        <ele>241</ele>
        <time>2022-05-01T12:59:11.898Z</time>
      </trkpt>
      <trkpt lat="45.70455" lon="5.89258">
        <ele>241</ele>
        <time>2022-05-01T12:59:12.898Z</time>
      </trkpt>
      <trkpt lat="45.70456" lon="5.89247">
        <ele>240</ele>
        <time>2022-05-01T12:59:13.898Z</time>
      </trkpt>
      <trkpt lat="45.70457" lon="5.89238">
        <ele>240</ele>
        <time>2022-05-01T12:59:14.897Z</time>
      </trkpt>
      <trkpt lat="45.70458" lon="5.8923">
        <ele>240</ele>
        <time>2022-05-01T12:59:15.898Z</time>
      </trkpt>
      <trkpt lat="45.70459" lon="5.89221">
        <ele>240</ele>
        <time>2022-05-01T12:59:16.898Z</time>
      </trkpt>
      <trkpt lat="45.7046" lon="5.89213">
        <ele>240</ele>
        <time>2022-05-01T12:59:17.897Z</time>
      </trkpt>
      <trkpt lat="45.70461" lon="5.89204">
        <ele>239</ele>
        <time>2022-05-01T12:59:18.897Z</time>
      </trkpt>
      <trkpt lat="45.70461" lon="5.89195">
        <ele>239</ele>
        <time>2022-05-01T12:59:19.897Z</time>
      </trkpt>
      <trkpt lat="45.70462" lon="5.89187">
        <ele>238</ele>
        <time>2022-05-01T12:59:20.898Z</time>
      </trkpt>
      <trkpt lat="45.70463" lon="5.89179">
        <ele>238</ele>
        <time>2022-05-01T12:59:21.898Z</time>
      </trkpt>
      <trkpt lat="45.70465" lon="5.8917">
        <ele>237</ele>
        <time>2022-05-01T12:59:22.898Z</time>
      </trkpt>
      <trkpt lat="45.70465" lon="5.89161">
        <ele>237</ele>
        <time>2022-05-01T12:59:23.898Z</time>
      </trkpt>
      <trkpt lat="45.70466" lon="5.89154">
        <ele>237</ele>
        <time>2022-05-01T12:59:24.898Z</time>
      </trkpt>
      <trkpt lat="45.70467" lon="5.89146">
        <ele>237</ele>
        <time>2022-05-01T12:59:25.898Z</time>
      </trkpt>
      <trkpt lat="45.70468" lon="5.89137">
        <ele>238</ele>
        <time>2022-05-01T12:59:26.898Z</time>
      </trkpt>
      <trkpt lat="45.70468" lon="5.89128">
        <ele>238</ele>
        <time>2022-05-01T12:59:27.897Z</time>
      </trkpt>
      <trkpt lat="45.70469" lon="5.89119">
        <ele>238</ele>
        <time>2022-05-01T12:59:28.898Z</time>
      </trkpt>
      <trkpt lat="45.7047" lon="5.8911">
        <ele>238</ele>
        <time>2022-05-01T12:59:29.898Z</time>
      </trkpt>
      <trkpt lat="45.70471" lon="5.89102">
        <ele>238</ele>
        <time>2022-05-01T12:59:30.897Z</time>
      </trkpt>
      <trkpt lat="45.70472" lon="5.89093">
        <ele>238</ele>
        <time>2022-05-01T12:59:31.898Z</time>
      </trkpt>
      <trkpt lat="45.70472" lon="5.89085">
        <ele>238</ele>
        <time>2022-05-01T12:59:32.897Z</time>
      </trkpt>
      <trkpt lat="45.70473" lon="5.89077">
        <ele>238</ele>
        <time>2022-05-01T12:59:33.898Z</time>
      </trkpt>
      <trkpt lat="45.70473" lon="5.89069">
        <ele>238</ele>
        <time>2022-05-01T12:59:34.898Z</time>
      </trkpt>
      <trkpt lat="45.70473" lon="5.8906">
        <ele>238</ele>
        <time>2022-05-01T12:59:35.897Z</time>
      </trkpt>
      <trkpt lat="45.70473" lon="5.89052">
        <ele>238</ele>
        <time>2022-05-01T12:59:36.898Z</time>
      </trkpt>
      <trkpt lat="45.70474" lon="5.89043">
        <ele>238</ele>
        <time>2022-05-01T12:59:37.898Z</time>
      </trkpt>
      <trkpt lat="45.70474" lon="5.89035">
        <ele>238</ele>
        <time>2022-05-01T12:59:38.898Z</time>
      </trkpt>
      <trkpt lat="45.70474" lon="5.89028">
        <ele>238</ele>
        <time>2022-05-01T12:59:39.898Z</time>
      </trkpt>
      <trkpt lat="45.70474" lon="5.89019">
        <ele>238</ele>
        <time>2022-05-01T12:59:40.897Z</time>
      </trkpt>
      <trkpt lat="45.70475" lon="5.89012">
        <ele>238</ele>
        <time>2022-05-01T12:59:41.898Z</time>
      </trkpt>
      <trkpt lat="45.70476" lon="5.89004">
        <ele>238</ele>
        <time>2022-05-01T12:59:42.898Z</time>
      </trkpt>
      <trkpt lat="45.70477" lon="5.88996">
        <ele>238</ele>
        <time>2022-05-01T12:59:43.897Z</time>
      </trkpt>
      <trkpt lat="45.70478" lon="5.88988">
        <ele>238</ele>
        <time>2022-05-01T12:59:44.897Z</time>
      </trkpt>
      <trkpt lat="45.70479" lon="5.88981">
        <ele>238</ele>
        <time>2022-05-01T12:59:45.898Z</time>
      </trkpt>
      <trkpt lat="45.70479" lon="5.88974">
        <ele>238</ele>
        <time>2022-05-01T12:59:46.897Z</time>
      </trkpt>
      <trkpt lat="45.7048" lon="5.88966">
        <ele>237</ele>
        <time>2022-05-01T12:59:47.897Z</time>
      </trkpt>
      <trkpt lat="45.70481" lon="5.88958">
        <ele>237</ele>
        <time>2022-05-01T12:59:48.898Z</time>
      </trkpt>
      <trkpt lat="45.70482" lon="5.8895">
        <ele>237</ele>
        <time>2022-05-01T12:59:49.898Z</time>
      </trkpt>
      <trkpt lat="45.70483" lon="5.88942">
        <ele>237</ele>
        <time>2022-05-01T12:59:50.898Z</time>
      </trkpt>
      <trkpt lat="45.70483" lon="5.88935">
        <ele>236</ele>
        <time>2022-05-01T12:59:51.897Z</time>
      </trkpt>
      <trkpt lat="45.70484" lon="5.88927">
        <ele>236</ele>
        <time>2022-05-01T12:59:52.897Z</time>
      </trkpt>
      <trkpt lat="45.70485" lon="5.88919">
        <ele>236</ele>
        <time>2022-05-01T12:59:53.898Z</time>
      </trkpt>
      <trkpt lat="45.70486" lon="5.8891">
        <ele>236</ele>
        <time>2022-05-01T12:59:54.898Z</time>
      </trkpt>
      <trkpt lat="45.70486" lon="5.88902">
        <ele>236</ele>
        <time>2022-05-01T12:59:55.897Z</time>
      </trkpt>
      <trkpt lat="45.70486" lon="5.88895">
        <ele>236</ele>
        <time>2022-05-01T12:59:56.898Z</time>
      </trkpt>
      <trkpt lat="45.70486" lon="5.88889">
        <ele>236</ele>
        <time>2022-05-01T12:59:57.898Z</time>
      </trkpt>
      <trkpt lat="45.70487" lon="5.88885">
        <ele>236</ele>
        <time>2022-05-01T12:59:58.897Z</time>
      </trkpt>
      <trkpt lat="45.70487" lon="5.8888">
        <ele>236</ele>
        <time>2022-05-01T12:59:59.897Z</time>
      </trkpt>
      <trkpt lat="45.70487" lon="5.88877">
        <ele>236</ele>
        <time>2022-05-01T13:00:00.897Z</time>
      </trkpt>
      <trkpt lat="45.70488" lon="5.88873">
        <ele>236</ele>
        <time>2022-05-01T13:00:01.897Z</time>
      </trkpt>
      <trkpt lat="45.70488" lon="5.8887">
        <ele>236</ele>
        <time>2022-05-01T13:00:02.898Z</time>
      </trkpt>
      <trkpt lat="45.70489" lon="5.88866">
        <ele>236</ele>
        <time>2022-05-01T13:00:03.897Z</time>
      </trkpt>
      <trkpt lat="45.7049" lon="5.88862">
        <ele>237</ele>
        <time>2022-05-01T13:00:04.898Z</time>
      </trkpt>
      <trkpt lat="45.70491" lon="5.88857">
        <ele>237</ele>
        <time>2022-05-01T13:00:05.897Z</time>
      </trkpt>
      <trkpt lat="45.70492" lon="5.88852">
        <ele>237</ele>
        <time>2022-05-01T13:00:06.898Z</time>
      </trkpt>
      <trkpt lat="45.70492" lon="5.88845">
        <ele>236</ele>
        <time>2022-05-01T13:00:07.898Z</time>
      </trkpt>
      <trkpt lat="45.70492" lon="5.88839">
        <ele>236</ele>
        <time>2022-05-01T13:00:08.897Z</time>
      </trkpt>
      <trkpt lat="45.70493" lon="5.88833">
        <ele>236</ele>
        <time>2022-05-01T13:00:09.898Z</time>
      </trkpt>
      <trkpt lat="45.70494" lon="5.88827">
        <ele>236</ele>
        <time>2022-05-01T13:00:10.897Z</time>
      </trkpt>
      <trkpt lat="45.70494" lon="5.88822">
        <ele>236</ele>
        <time>2022-05-01T13:00:11.897Z</time>
      </trkpt>
      <trkpt lat="45.70495" lon="5.88816">
        <ele>236</ele>
        <time>2022-05-01T13:00:12.897Z</time>
      </trkpt>
      <trkpt lat="45.70495" lon="5.8881">
        <ele>236</ele>
        <time>2022-05-01T13:00:13.897Z</time>
      </trkpt>
      <trkpt lat="45.70496" lon="5.88803">
        <ele>236</ele>
        <time>2022-05-01T13:00:14.897Z</time>
      </trkpt>
      <trkpt lat="45.70496" lon="5.88798">
        <ele>236</ele>
        <time>2022-05-01T13:00:15.898Z</time>
      </trkpt>
      <trkpt lat="45.70497" lon="5.88793">
        <ele>236</ele>
        <time>2022-05-01T13:00:16.897Z</time>
      </trkpt>
      <trkpt lat="45.70497" lon="5.88789">
        <ele>236</ele>
        <time>2022-05-01T13:00:17.898Z</time>
      </trkpt>
      <trkpt lat="45.70497" lon="5.88786">
        <ele>236</ele>
        <time>2022-05-01T13:00:18.898Z</time>
      </trkpt>
      <trkpt lat="45.70497" lon="5.88783">
        <ele>236</ele>
        <time>2022-05-01T13:00:19.897Z</time>
      </trkpt>
      <trkpt lat="45.70497" lon="5.8878">
        <ele>235</ele>
        <time>2022-05-01T13:00:20.898Z</time>
      </trkpt>
      <trkpt lat="45.70498" lon="5.88776">
        <ele>235</ele>
        <time>2022-05-01T13:00:21.898Z</time>
      </trkpt>
      <trkpt lat="45.70498" lon="5.88771">
        <ele>235</ele>
        <time>2022-05-01T13:00:22.898Z</time>
      </trkpt>
      <trkpt lat="45.70498" lon="5.88766">
        <ele>235</ele>
        <time>2022-05-01T13:00:23.897Z</time>
      </trkpt>
      <trkpt lat="45.70498" lon="5.88761">
        <ele>235</ele>
        <time>2022-05-01T13:00:24.898Z</time>
      </trkpt>
      <trkpt lat="45.70498" lon="5.88753">
        <ele>235</ele>
        <time>2022-05-01T13:00:25.898Z</time>
      </trkpt>
      <trkpt lat="45.70499" lon="5.88748">
        <ele>235</ele>
        <time>2022-05-01T13:00:26.897Z</time>
      </trkpt>
      <trkpt lat="45.70499" lon="5.88742">
        <ele>235</ele>
        <time>2022-05-01T13:00:27.898Z</time>
      </trkpt>
      <trkpt lat="45.705" lon="5.88735">
        <ele>235</ele>
        <time>2022-05-01T13:00:28.897Z</time>
      </trkpt>
      <trkpt lat="45.705" lon="5.88728">
        <ele>235</ele>
        <time>2022-05-01T13:00:29.898Z</time>
      </trkpt>
      <trkpt lat="45.70501" lon="5.88721">
        <ele>235</ele>
        <time>2022-05-01T13:00:30.898Z</time>
      </trkpt>
      <trkpt lat="45.70501" lon="5.88713">
        <ele>235</ele>
        <time>2022-05-01T13:00:31.897Z</time>
      </trkpt>
      <trkpt lat="45.70502" lon="5.88706">
        <ele>236</ele>
        <time>2022-05-01T13:00:32.898Z</time>
      </trkpt>
      <trkpt lat="45.70502" lon="5.88699">
        <ele>236</ele>
        <time>2022-05-01T13:00:33.898Z</time>
      </trkpt>
      <trkpt lat="45.70503" lon="5.88692">
        <ele>236</ele>
        <time>2022-05-01T13:00:34.898Z</time>
      </trkpt>
      <trkpt lat="45.70504" lon="5.88683">
        <ele>236</ele>
        <time>2022-05-01T13:00:35.898Z</time>
      </trkpt>
      <trkpt lat="45.70505" lon="5.88676">
        <ele>236</ele>
        <time>2022-05-01T13:00:36.897Z</time>
      </trkpt>
      <trkpt lat="45.70506" lon="5.88669">
        <ele>236</ele>
        <time>2022-05-01T13:00:37.897Z</time>
      </trkpt>
      <trkpt lat="45.70506" lon="5.88662">
        <ele>237</ele>
        <time>2022-05-01T13:00:38.897Z</time>
      </trkpt>
      <trkpt lat="45.70507" lon="5.88657">
        <ele>238</ele>
        <time>2022-05-01T13:00:39.898Z</time>
      </trkpt>
      <trkpt lat="45.70506" lon="5.8865">
        <ele>238</ele>
        <time>2022-05-01T13:00:40.898Z</time>
      </trkpt>
      <trkpt lat="45.70506" lon="5.88644">
        <ele>238</ele>
        <time>2022-05-01T13:00:41.897Z</time>
      </trkpt>
      <trkpt lat="45.70505" lon="5.88639">
        <ele>238</ele>
        <time>2022-05-01T13:00:42.898Z</time>
      </trkpt>
      <trkpt lat="45.70504" lon="5.88635">
        <ele>238</ele>
        <time>2022-05-01T13:00:43.898Z</time>
      </trkpt>
      <trkpt lat="45.70503" lon="5.88632">
        <ele>237</ele>
        <time>2022-05-01T13:00:44.898Z</time>
      </trkpt>
      <trkpt lat="45.705" lon="5.88626">
        <ele>237</ele>
        <time>2022-05-01T13:00:45.897Z</time>
      </trkpt>
      <trkpt lat="45.70496" lon="5.88622">
        <ele>237</ele>
        <time>2022-05-01T13:00:46.897Z</time>
      </trkpt>
      <trkpt lat="45.70492" lon="5.88619">
        <ele>237</ele>
        <time>2022-05-01T13:00:47.898Z</time>
      </trkpt>
      <trkpt lat="45.70489" lon="5.88618">
        <ele>237</ele>
        <time>2022-05-01T13:00:48.898Z</time>
      </trkpt>
      <trkpt lat="45.70484" lon="5.88616">
        <ele>238</ele>
        <time>2022-05-01T13:00:49.897Z</time>
      </trkpt>
      <trkpt lat="45.7048" lon="5.88614">
        <ele>238</ele>
        <time>2022-05-01T13:00:50.897Z</time>
      </trkpt>
      <trkpt lat="45.70475" lon="5.88612">
        <ele>238</ele>
        <time>2022-05-01T13:00:51.897Z</time>
      </trkpt>
      <trkpt lat="45.70471" lon="5.8861">
        <ele>238</ele>
        <time>2022-05-01T13:00:52.898Z</time>
      </trkpt>
      <trkpt lat="45.70467" lon="5.88609">
        <ele>239</ele>
        <time>2022-05-01T13:00:53.898Z</time>
      </trkpt>
      <trkpt lat="45.70462" lon="5.88607">
        <ele>239</ele>
        <time>2022-05-01T13:00:54.898Z</time>
      </trkpt>
      <trkpt lat="45.70459" lon="5.88605">
        <ele>240</ele>
        <time>2022-05-01T13:00:55.897Z</time>
      </trkpt>
      <trkpt lat="45.70455" lon="5.88603">
        <ele>240</ele>
        <time>2022-05-01T13:00:56.897Z</time>
      </trkpt>
      <trkpt lat="45.70452" lon="5.88601">
        <ele>240</ele>
        <time>2022-05-01T13:00:57.898Z</time>
      </trkpt>
      <trkpt lat="45.70448" lon="5.88599">
        <ele>241</ele>
        <time>2022-05-01T13:00:58.898Z</time>
      </trkpt>
      <trkpt lat="45.70443" lon="5.88597">
        <ele>241</ele>
        <time>2022-05-01T13:00:59.897Z</time>
      </trkpt>
      <trkpt lat="45.70439" lon="5.88595">
        <ele>241</ele>
        <time>2022-05-01T13:01:00.898Z</time>
      </trkpt>
      <trkpt lat="45.70435" lon="5.88593">
        <ele>241</ele>
        <time>2022-05-01T13:01:01.898Z</time>
      </trkpt>
      <trkpt lat="45.70432" lon="5.88592">
        <ele>241</ele>
        <time>2022-05-01T13:01:02.898Z</time>
      </trkpt>
      <trkpt lat="45.70429" lon="5.88589">
        <ele>241</ele>
        <time>2022-05-01T13:01:03.898Z</time>
      </trkpt>
      <trkpt lat="45.70426" lon="5.88587">
        <ele>241</ele>
        <time>2022-05-01T13:01:04.898Z</time>
      </trkpt>
      <trkpt lat="45.70424" lon="5.88585">
        <ele>242</ele>
        <time>2022-05-01T13:01:05.898Z</time>
      </trkpt>
      <trkpt lat="45.70423" lon="5.88584">
        <ele>242</ele>
        <time>2022-05-01T13:01:06.898Z</time>
      </trkpt>
      <trkpt lat="45.70423" lon="5.88584">
        <ele>243</ele>
        <time>2022-05-01T13:01:07.898Z</time>
      </trkpt>
      <trkpt lat="45.70423" lon="5.88582">
        <ele>243</ele>
        <time>2022-05-01T13:01:08.897Z</time>
      </trkpt>
      <trkpt lat="45.70423" lon="5.88584">
        <ele>243</ele>
        <time>2022-05-01T13:01:09.898Z</time>
      </trkpt>
      <trkpt lat="45.70423" lon="5.88584">
        <ele>243</ele>
        <time>2022-05-01T13:01:10.897Z</time>
      </trkpt>
      <trkpt lat="45.7042" lon="5.88581">
        <ele>237</ele>
        <time>2022-05-01T13:01:47.967Z</time>
      </trkpt>
      <trkpt lat="45.70418" lon="5.88579">
        <ele>237</ele>
        <time>2022-05-01T13:01:48.966Z</time>
      </trkpt>
      <trkpt lat="45.70415" lon="5.88577">
        <ele>237</ele>
        <time>2022-05-01T13:01:49.966Z</time>
      </trkpt>
      <trkpt lat="45.70411" lon="5.88574">
        <ele>237</ele>
        <time>2022-05-01T13:01:50.966Z</time>
      </trkpt>
      <trkpt lat="45.70408" lon="5.88572">
        <ele>237</ele>
        <time>2022-05-01T13:01:51.967Z</time>
      </trkpt>
      <trkpt lat="45.70405" lon="5.8857">
        <ele>237</ele>
        <time>2022-05-01T13:01:52.966Z</time>
      </trkpt>
      <trkpt lat="45.70402" lon="5.88567">
        <ele>237</ele>
        <time>2022-05-01T13:01:53.966Z</time>
      </trkpt>
      <trkpt lat="45.70399" lon="5.88565">
        <ele>238</ele>
        <time>2022-05-01T13:01:54.967Z</time>
      </trkpt>
      <trkpt lat="45.70396" lon="5.88563">
        <ele>238</ele>
        <time>2022-05-01T13:01:55.967Z</time>
      </trkpt>
      <trkpt lat="45.70393" lon="5.88561">
        <ele>239</ele>
        <time>2022-05-01T13:01:56.966Z</time>
      </trkpt>
      <trkpt lat="45.7039" lon="5.88559">
        <ele>240</ele>
        <time>2022-05-01T13:01:57.967Z</time>
      </trkpt>
      <trkpt lat="45.70387" lon="5.88556">
        <ele>240</ele>
        <time>2022-05-01T13:01:58.967Z</time>
      </trkpt>
      <trkpt lat="45.70384" lon="5.88554">
        <ele>241</ele>
        <time>2022-05-01T13:01:59.967Z</time>
      </trkpt>
      <trkpt lat="45.70381" lon="5.88551">
        <ele>242</ele>
        <time>2022-05-01T13:02:00.967Z</time>
      </trkpt>
      <trkpt lat="45.70378" lon="5.88549">
        <ele>242</ele>
        <time>2022-05-01T13:02:01.966Z</time>
      </trkpt>
      <trkpt lat="45.70375" lon="5.88546">
        <ele>242</ele>
        <time>2022-05-01T13:02:02.967Z</time>
      </trkpt>
      <trkpt lat="45.70371" lon="5.88544">
        <ele>243</ele>
        <time>2022-05-01T13:02:03.967Z</time>
      </trkpt>
      <trkpt lat="45.70368" lon="5.88542">
        <ele>244</ele>
        <time>2022-05-01T13:02:04.966Z</time>
      </trkpt>
      <trkpt lat="45.70366" lon="5.8854">
        <ele>244</ele>
        <time>2022-05-01T13:02:05.967Z</time>
      </trkpt>
      <trkpt lat="45.70364" lon="5.88538">
        <ele>243</ele>
        <time>2022-05-01T13:02:06.967Z</time>
      </trkpt>
      <trkpt lat="45.70362" lon="5.88535">
        <ele>242</ele>
        <time>2022-05-01T13:02:07.967Z</time>
      </trkpt>
      <trkpt lat="45.7036" lon="5.88533">
        <ele>242</ele>
        <time>2022-05-01T13:02:08.967Z</time>
      </trkpt>
      <trkpt lat="45.70359" lon="5.88531">
        <ele>241</ele>
        <time>2022-05-01T13:02:09.967Z</time>
      </trkpt>
      <trkpt lat="45.70357" lon="5.8853">
        <ele>241</ele>
        <time>2022-05-01T13:02:10.966Z</time>
      </trkpt>
      <trkpt lat="45.70355" lon="5.88527">
        <ele>241</ele>
        <time>2022-05-01T13:02:11.967Z</time>
      </trkpt>
      <trkpt lat="45.70354" lon="5.88524">
        <ele>241</ele>
        <time>2022-05-01T13:02:12.966Z</time>
      </trkpt>
      <trkpt lat="45.70352" lon="5.88521">
        <ele>240</ele>
        <time>2022-05-01T13:02:13.967Z</time>
      </trkpt>
      <trkpt lat="45.7035" lon="5.88518">
        <ele>240</ele>
        <time>2022-05-01T13:02:14.966Z</time>
      </trkpt>
      <trkpt lat="45.70348" lon="5.88517">
        <ele>240</ele>
        <time>2022-05-01T13:02:15.967Z</time>
      </trkpt>
      <trkpt lat="45.70347" lon="5.88517">
        <ele>239</ele>
        <time>2022-05-01T13:02:16.967Z</time>
      </trkpt>
      <trkpt lat="45.70345" lon="5.88518">
        <ele>239</ele>
        <time>2022-05-01T13:02:17.966Z</time>
      </trkpt>
      <trkpt lat="45.70343" lon="5.88518">
        <ele>239</ele>
        <time>2022-05-01T13:02:18.967Z</time>
      </trkpt>
      <trkpt lat="45.70341" lon="5.88518">
        <ele>239</ele>
        <time>2022-05-01T13:02:19.967Z</time>
      </trkpt>
      <trkpt lat="45.70339" lon="5.88516">
        <ele>239</ele>
        <time>2022-05-01T13:02:20.966Z</time>
      </trkpt>
      <trkpt lat="45.70337" lon="5.88514">
        <ele>239</ele>
        <time>2022-05-01T13:02:21.966Z</time>
      </trkpt>
      <trkpt lat="45.70335" lon="5.88512">
        <ele>238</ele>
        <time>2022-05-01T13:02:22.967Z</time>
      </trkpt>
      <trkpt lat="45.70331" lon="5.8851">
        <ele>238</ele>
        <time>2022-05-01T13:02:23.967Z</time>
      </trkpt>
      <trkpt lat="45.70329" lon="5.88508">
        <ele>238</ele>
        <time>2022-05-01T13:02:24.967Z</time>
      </trkpt>
      <trkpt lat="45.70326" lon="5.88505">
        <ele>239</ele>
        <time>2022-05-01T13:02:25.967Z</time>
      </trkpt>
      <trkpt lat="45.70324" lon="5.88504">
        <ele>239</ele>
        <time>2022-05-01T13:02:26.967Z</time>
      </trkpt>
      <trkpt lat="45.70321" lon="5.88502">
        <ele>239</ele>
        <time>2022-05-01T13:02:27.967Z</time>
      </trkpt>
      <trkpt lat="45.70319" lon="5.88502">
        <ele>239</ele>
        <time>2022-05-01T13:02:28.966Z</time>
      </trkpt>
      <trkpt lat="45.70316" lon="5.88504">
        <ele>239</ele>
        <time>2022-05-01T13:02:29.966Z</time>
      </trkpt>
      <trkpt lat="45.70314" lon="5.88507">
        <ele>239</ele>
        <time>2022-05-01T13:02:30.967Z</time>
      </trkpt>
      <trkpt lat="45.70313" lon="5.88509">
        <ele>239</ele>
        <time>2022-05-01T13:02:31.967Z</time>
      </trkpt>
      <trkpt lat="45.70311" lon="5.88512">
        <ele>239</ele>
        <time>2022-05-01T13:02:32.967Z</time>
      </trkpt>
      <trkpt lat="45.7031" lon="5.88515">
        <ele>239</ele>
        <time>2022-05-01T13:02:33.966Z</time>
      </trkpt>
      <trkpt lat="45.70307" lon="5.88518">
        <ele>239</ele>
        <time>2022-05-01T13:02:34.967Z</time>
      </trkpt>
      <trkpt lat="45.70306" lon="5.8852">
        <ele>239</ele>
        <time>2022-05-01T13:02:35.967Z</time>
      </trkpt>
      <trkpt lat="45.70305" lon="5.88523">
        <ele>239</ele>
        <time>2022-05-01T13:02:36.967Z</time>
      </trkpt>
      <trkpt lat="45.70303" lon="5.88526">
        <ele>239</ele>
        <time>2022-05-01T13:02:37.967Z</time>
      </trkpt>
      <trkpt lat="45.70301" lon="5.88527">
        <ele>239</ele>
        <time>2022-05-01T13:02:38.966Z</time>
      </trkpt>
      <trkpt lat="45.70299" lon="5.88527">
        <ele>239</ele>
        <time>2022-05-01T13:02:39.967Z</time>
      </trkpt>
      <trkpt lat="45.70297" lon="5.88527">
        <ele>239</ele>
        <time>2022-05-01T13:02:40.966Z</time>
      </trkpt>
      <trkpt lat="45.70295" lon="5.88528">
        <ele>239</ele>
        <time>2022-05-01T13:02:41.967Z</time>
      </trkpt>
      <trkpt lat="45.70293" lon="5.88528">
        <ele>239</ele>
        <time>2022-05-01T13:02:42.967Z</time>
      </trkpt>
      <trkpt lat="45.70292" lon="5.8853">
        <ele>239</ele>
        <time>2022-05-01T13:02:43.966Z</time>
      </trkpt>
      <trkpt lat="45.70291" lon="5.88532">
        <ele>239</ele>
        <time>2022-05-01T13:02:44.966Z</time>
      </trkpt>
      <trkpt lat="45.70291" lon="5.88534">
        <ele>240</ele>
        <time>2022-05-01T13:02:45.967Z</time>
      </trkpt>
      <trkpt lat="45.70291" lon="5.88536">
        <ele>240</ele>
        <time>2022-05-01T13:02:46.966Z</time>
      </trkpt>
      <trkpt lat="45.70291" lon="5.88538">
        <ele>241</ele>
        <time>2022-05-01T13:02:47.967Z</time>
      </trkpt>
      <trkpt lat="45.70291" lon="5.88541">
        <ele>241</ele>
        <time>2022-05-01T13:02:48.967Z</time>
      </trkpt>
      <trkpt lat="45.70291" lon="5.88544">
        <ele>241</ele>
        <time>2022-05-01T13:02:49.967Z</time>
      </trkpt>
      <trkpt lat="45.70291" lon="5.88546">
        <ele>241</ele>
        <time>2022-05-01T13:02:50.967Z</time>
      </trkpt>
      <trkpt lat="45.7029" lon="5.8855">
        <ele>241</ele>
        <time>2022-05-01T13:02:51.967Z</time>
      </trkpt>
      <trkpt lat="45.70289" lon="5.88553">
        <ele>241</ele>
        <time>2022-05-01T13:02:52.966Z</time>
      </trkpt>
      <trkpt lat="45.70289" lon="5.88557">
        <ele>241</ele>
        <time>2022-05-01T13:02:53.967Z</time>
      </trkpt>
      <trkpt lat="45.70288" lon="5.88561">
        <ele>240</ele>
        <time>2022-05-01T13:02:54.966Z</time>
      </trkpt>
      <trkpt lat="45.70287" lon="5.88564">
        <ele>240</ele>
        <time>2022-05-01T13:02:55.967Z</time>
      </trkpt>
      <trkpt lat="45.70287" lon="5.88568">
        <ele>239</ele>
        <time>2022-05-01T13:02:56.967Z</time>
      </trkpt>
      <trkpt lat="45.70285" lon="5.88571">
        <ele>239</ele>
        <time>2022-05-01T13:02:57.967Z</time>
      </trkpt>
      <trkpt lat="45.70283" lon="5.88574">
        <ele>238</ele>
        <time>2022-05-01T13:02:58.966Z</time>
      </trkpt>
      <trkpt lat="45.70282" lon="5.88575">
        <ele>238</ele>
        <time>2022-05-01T13:02:59.967Z</time>
      </trkpt>
      <trkpt lat="45.70281" lon="5.88576">
        <ele>237</ele>
        <time>2022-05-01T13:03:00.967Z</time>
      </trkpt>
      <trkpt lat="45.70279" lon="5.88577">
        <ele>237</ele>
        <time>2022-05-01T13:03:01.966Z</time>
      </trkpt>
      <trkpt lat="45.70277" lon="5.88577">
        <ele>237</ele>
        <time>2022-05-01T13:03:02.966Z</time>
      </trkpt>
      <trkpt lat="45.70274" lon="5.88577">
        <ele>236</ele>
        <time>2022-05-01T13:03:03.967Z</time>
      </trkpt>
      <trkpt lat="45.70271" lon="5.88576">
        <ele>236</ele>
        <time>2022-05-01T13:03:04.966Z</time>
      </trkpt>
      <trkpt lat="45.70268" lon="5.88575">
        <ele>236</ele>
        <time>2022-05-01T13:03:05.966Z</time>
      </trkpt>
      <trkpt lat="45.70266" lon="5.88574">
        <ele>236</ele>
        <time>2022-05-01T13:03:06.966Z</time>
      </trkpt>
      <trkpt lat="45.70264" lon="5.88572">
        <ele>235</ele>
        <time>2022-05-01T13:03:07.966Z</time>
      </trkpt>
      <trkpt lat="45.70262" lon="5.88571">
        <ele>235</ele>
        <time>2022-05-01T13:03:08.966Z</time>
      </trkpt>
      <trkpt lat="45.7026" lon="5.88571">
        <ele>235</ele>
        <time>2022-05-01T13:03:09.966Z</time>
      </trkpt>
      <trkpt lat="45.70258" lon="5.8857">
        <ele>235</ele>
        <time>2022-05-01T13:03:10.967Z</time>
      </trkpt>
      <trkpt lat="45.70256" lon="5.8857">
        <ele>235</ele>
        <time>2022-05-01T13:03:11.967Z</time>
      </trkpt>
      <trkpt lat="45.70254" lon="5.88569">
        <ele>236</ele>
        <time>2022-05-01T13:03:12.967Z</time>
      </trkpt>
      <trkpt lat="45.70252" lon="5.88569">
        <ele>236</ele>
        <time>2022-05-01T13:03:13.967Z</time>
      </trkpt>
      <trkpt lat="45.70249" lon="5.88568">
        <ele>236</ele>
        <time>2022-05-01T13:03:14.967Z</time>
      </trkpt>
      <trkpt lat="45.70247" lon="5.88566">
        <ele>236</ele>
        <time>2022-05-01T13:03:15.967Z</time>
      </trkpt>
      <trkpt lat="45.70245" lon="5.88563">
        <ele>236</ele>
        <time>2022-05-01T13:03:16.967Z</time>
      </trkpt>
      <trkpt lat="45.70244" lon="5.88559">
        <ele>236</ele>
        <time>2022-05-01T13:03:17.967Z</time>
      </trkpt>
      <trkpt lat="45.70244" lon="5.88557">
        <ele>237</ele>
        <time>2022-05-01T13:03:18.966Z</time>
      </trkpt>
      <trkpt lat="45.70244" lon="5.88553">
        <ele>237</ele>
        <time>2022-05-01T13:03:19.966Z</time>
      </trkpt>
      <trkpt lat="45.70245" lon="5.88549">
        <ele>237</ele>
        <time>2022-05-01T13:03:20.967Z</time>
      </trkpt>
      <trkpt lat="45.70246" lon="5.88546">
        <ele>237</ele>
        <time>2022-05-01T13:03:21.967Z</time>
      </trkpt>
      <trkpt lat="45.70246" lon="5.88543">
        <ele>237</ele>
        <time>2022-05-01T13:03:22.967Z</time>
      </trkpt>
      <trkpt lat="45.70247" lon="5.8854">
        <ele>237</ele>
        <time>2022-05-01T13:03:23.966Z</time>
      </trkpt>
      <trkpt lat="45.70248" lon="5.88537">
        <ele>237</ele>
        <time>2022-05-01T13:03:24.967Z</time>
      </trkpt>
      <trkpt lat="45.70249" lon="5.88534">
        <ele>237</ele>
        <time>2022-05-01T13:03:25.967Z</time>
      </trkpt>
      <trkpt lat="45.7025" lon="5.8853">
        <ele>236</ele>
        <time>2022-05-01T13:03:26.967Z</time>
      </trkpt>
      <trkpt lat="45.7025" lon="5.88528">
        <ele>236</ele>
        <time>2022-05-01T13:03:27.966Z</time>
      </trkpt>
      <trkpt lat="45.70251" lon="5.88524">
        <ele>236</ele>
        <time>2022-05-01T13:03:28.967Z</time>
      </trkpt>
      <trkpt lat="45.70252" lon="5.88521">
        <ele>236</ele>
        <time>2022-05-01T13:03:29.967Z</time>
      </trkpt>
      <trkpt lat="45.70253" lon="5.88517">
        <ele>236</ele>
        <time>2022-05-01T13:03:30.966Z</time>
      </trkpt>
      <trkpt lat="45.70253" lon="5.88514">
        <ele>236</ele>
        <time>2022-05-01T13:03:31.967Z</time>
      </trkpt>
      <trkpt lat="45.70254" lon="5.8851">
        <ele>236</ele>
        <time>2022-05-01T13:03:32.967Z</time>
      </trkpt>
      <trkpt lat="45.70254" lon="5.88507">
        <ele>236</ele>
        <time>2022-05-01T13:03:33.967Z</time>
      </trkpt>
      <trkpt lat="45.70255" lon="5.88503">
        <ele>236</ele>
        <time>2022-05-01T13:03:34.967Z</time>
      </trkpt>
      <trkpt lat="45.70256" lon="5.88498">
        <ele>236</ele>
        <time>2022-05-01T13:03:35.966Z</time>
      </trkpt>
      <trkpt lat="45.70256" lon="5.88495">
        <ele>236</ele>
        <time>2022-05-01T13:03:36.967Z</time>
      </trkpt>
      <trkpt lat="45.70257" lon="5.8849">
        <ele>236</ele>
        <time>2022-05-01T13:03:37.967Z</time>
      </trkpt>
      <trkpt lat="45.70256" lon="5.88485">
        <ele>236</ele>
        <time>2022-05-01T13:03:38.967Z</time>
      </trkpt>
      <trkpt lat="45.70254" lon="5.88481">
        <ele>237</ele>
        <time>2022-05-01T13:03:39.966Z</time>
      </trkpt>
      <trkpt lat="45.70253" lon="5.8848">
        <ele>237</ele>
        <time>2022-05-01T13:03:40.967Z</time>
      </trkpt>
      <trkpt lat="45.7025" lon="5.88477">
        <ele>238</ele>
        <time>2022-05-01T13:03:41.966Z</time>
      </trkpt>
      <trkpt lat="45.70247" lon="5.88476">
        <ele>237</ele>
        <time>2022-05-01T13:03:42.967Z</time>
      </trkpt>
      <trkpt lat="45.70243" lon="5.88476">
        <ele>237</ele>
        <time>2022-05-01T13:03:43.967Z</time>
      </trkpt>
      <trkpt lat="45.7024" lon="5.88475">
        <ele>237</ele>
        <time>2022-05-01T13:03:44.967Z</time>
      </trkpt>
      <trkpt lat="45.70238" lon="5.88475">
        <ele>237</ele>
        <time>2022-05-01T13:03:45.967Z</time>
      </trkpt>
      <trkpt lat="45.70235" lon="5.88474">
        <ele>237</ele>
        <time>2022-05-01T13:03:46.967Z</time>
      </trkpt>
      <trkpt lat="45.70233" lon="5.88473">
        <ele>237</ele>
        <time>2022-05-01T13:03:47.967Z</time>
      </trkpt>
      <trkpt lat="45.7023" lon="5.88472">
        <ele>236</ele>
        <time>2022-05-01T13:03:48.966Z</time>
      </trkpt>
      <trkpt lat="45.70227" lon="5.88471">
        <ele>236</ele>
        <time>2022-05-01T13:03:49.966Z</time>
      </trkpt>
      <trkpt lat="45.70225" lon="5.8847">
        <ele>235</ele>
        <time>2022-05-01T13:03:50.967Z</time>
      </trkpt>
      <trkpt lat="45.70222" lon="5.88469">
        <ele>235</ele>
        <time>2022-05-01T13:03:51.966Z</time>
      </trkpt>
      <trkpt lat="45.70219" lon="5.88469">
        <ele>235</ele>
        <time>2022-05-01T13:03:52.966Z</time>
      </trkpt>
      <trkpt lat="45.70217" lon="5.88468">
        <ele>235</ele>
        <time>2022-05-01T13:03:53.967Z</time>
      </trkpt>
      <trkpt lat="45.70213" lon="5.88468">
        <ele>235</ele>
        <time>2022-05-01T13:03:54.967Z</time>
      </trkpt>
      <trkpt lat="45.7021" lon="5.88468">
        <ele>235</ele>
        <time>2022-05-01T13:03:55.967Z</time>
      </trkpt>
      <trkpt lat="45.70208" lon="5.88468">
        <ele>235</ele>
        <time>2022-05-01T13:03:56.966Z</time>
      </trkpt>
      <trkpt lat="45.70205" lon="5.88469">
        <ele>235</ele>
        <time>2022-05-01T13:03:57.967Z</time>
      </trkpt>
      <trkpt lat="45.70202" lon="5.88469">
        <ele>235</ele>
        <time>2022-05-01T13:03:58.967Z</time>
      </trkpt>
      <trkpt lat="45.70199" lon="5.88469">
        <ele>235</ele>
        <time>2022-05-01T13:03:59.967Z</time>
      </trkpt>
      <trkpt lat="45.70197" lon="5.88469">
        <ele>235</ele>
        <time>2022-05-01T13:04:00.966Z</time>
      </trkpt>
      <trkpt lat="45.70194" lon="5.88468">
        <ele>235</ele>
        <time>2022-05-01T13:04:01.967Z</time>
      </trkpt>
      <trkpt lat="45.70191" lon="5.88468">
        <ele>235</ele>
        <time>2022-05-01T13:04:02.967Z</time>
      </trkpt>
      <trkpt lat="45.70188" lon="5.88468">
        <ele>235</ele>
        <time>2022-05-01T13:04:03.967Z</time>
      </trkpt>
      <trkpt lat="45.70185" lon="5.88468">
        <ele>235</ele>
        <time>2022-05-01T13:04:04.967Z</time>
      </trkpt>
      <trkpt lat="45.70183" lon="5.88468">
        <ele>235</ele>
        <time>2022-05-01T13:04:05.966Z</time>
      </trkpt>
      <trkpt lat="45.7018" lon="5.88467">
        <ele>236</ele>
        <time>2022-05-01T13:04:06.967Z</time>
      </trkpt>
      <trkpt lat="45.70177" lon="5.88466">
        <ele>236</ele>
        <time>2022-05-01T13:04:07.966Z</time>
      </trkpt>
      <trkpt lat="45.70175" lon="5.88466">
        <ele>236</ele>
        <time>2022-05-01T13:04:08.967Z</time>
      </trkpt>
      <trkpt lat="45.70173" lon="5.88465">
        <ele>236</ele>
        <time>2022-05-01T13:04:09.967Z</time>
      </trkpt>
      <trkpt lat="45.7017" lon="5.88463">
        <ele>236</ele>
        <time>2022-05-01T13:04:10.966Z</time>
      </trkpt>
      <trkpt lat="45.70167" lon="5.88462">
        <ele>236</ele>
        <time>2022-05-01T13:04:11.967Z</time>
      </trkpt>
      <trkpt lat="45.70164" lon="5.88461">
        <ele>236</ele>
        <time>2022-05-01T13:04:12.966Z</time>
      </trkpt>
      <trkpt lat="45.70161" lon="5.88459">
        <ele>236</ele>
        <time>2022-05-01T13:04:13.967Z</time>
      </trkpt>
      <trkpt lat="45.70159" lon="5.88458">
        <ele>236</ele>
        <time>2022-05-01T13:04:14.966Z</time>
      </trkpt>
      <trkpt lat="45.70157" lon="5.88456">
        <ele>236</ele>
        <time>2022-05-01T13:04:15.966Z</time>
      </trkpt>
      <trkpt lat="45.70155" lon="5.88453">
        <ele>236</ele>
        <time>2022-05-01T13:04:16.966Z</time>
      </trkpt>
      <trkpt lat="45.70153" lon="5.88449">
        <ele>236</ele>
        <time>2022-05-01T13:04:17.966Z</time>
      </trkpt>
      <trkpt lat="45.70153" lon="5.88445">
        <ele>237</ele>
        <time>2022-05-01T13:04:18.967Z</time>
      </trkpt>
      <trkpt lat="45.70152" lon="5.88442">
        <ele>237</ele>
        <time>2022-05-01T13:04:19.967Z</time>
      </trkpt>
      <trkpt lat="45.70152" lon="5.88436">
        <ele>237</ele>
        <time>2022-05-01T13:04:20.967Z</time>
      </trkpt>
      <trkpt lat="45.70152" lon="5.88432">
        <ele>237</ele>
        <time>2022-05-01T13:04:21.966Z</time>
      </trkpt>
      <trkpt lat="45.70153" lon="5.88427">
        <ele>237</ele>
        <time>2022-05-01T13:04:22.966Z</time>
      </trkpt>
      <trkpt lat="45.70153" lon="5.88425">
        <ele>237</ele>
        <time>2022-05-01T13:04:23.967Z</time>
      </trkpt>
      <trkpt lat="45.70153" lon="5.88421">
        <ele>237</ele>
        <time>2022-05-01T13:04:24.967Z</time>
      </trkpt>
      <trkpt lat="45.70152" lon="5.88418">
        <ele>237</ele>
        <time>2022-05-01T13:04:25.967Z</time>
      </trkpt>
      <trkpt lat="45.70151" lon="5.88416">
        <ele>237</ele>
        <time>2022-05-01T13:04:26.967Z</time>
      </trkpt>
      <trkpt lat="45.7015" lon="5.88415">
        <ele>237</ele>
        <time>2022-05-01T13:04:27.967Z</time>
      </trkpt>
      <trkpt lat="45.70149" lon="5.88414">
        <ele>238</ele>
        <time>2022-05-01T13:04:28.967Z</time>
      </trkpt>
      <trkpt lat="45.70147" lon="5.88413">
        <ele>238</ele>
        <time>2022-05-01T13:04:29.967Z</time>
      </trkpt>
      <trkpt lat="45.70146" lon="5.88412">
        <ele>237</ele>
        <time>2022-05-01T13:04:30.966Z</time>
      </trkpt>
      <trkpt lat="45.70145" lon="5.88412">
        <ele>237</ele>
        <time>2022-05-01T13:04:31.967Z</time>
      </trkpt>
      <trkpt lat="45.70144" lon="5.88411">
        <ele>237</ele>
        <time>2022-05-01T13:04:32.966Z</time>
      </trkpt>
      <trkpt lat="45.70142" lon="5.8841">
        <ele>237</ele>
        <time>2022-05-01T13:04:33.967Z</time>
      </trkpt>
      <trkpt lat="45.7014" lon="5.88409">
        <ele>237</ele>
        <time>2022-05-01T13:04:34.967Z</time>
      </trkpt>
      <trkpt lat="45.70138" lon="5.88409">
        <ele>237</ele>
        <time>2022-05-01T13:04:35.967Z</time>
      </trkpt>
      <trkpt lat="45.70136" lon="5.88408">
        <ele>238</ele>
        <time>2022-05-01T13:04:36.967Z</time>
      </trkpt>
      <trkpt lat="45.70135" lon="5.88408">
        <ele>238</ele>
        <time>2022-05-01T13:04:37.966Z</time>
      </trkpt>
      <trkpt lat="45.70133" lon="5.88408">
        <ele>237</ele>
        <time>2022-05-01T13:04:38.966Z</time>
      </trkpt>
      <trkpt lat="45.70131" lon="5.88407">
        <ele>237</ele>
        <time>2022-05-01T13:04:39.967Z</time>
      </trkpt>
      <trkpt lat="45.70129" lon="5.88407">
        <ele>237</ele>
        <time>2022-05-01T13:04:40.967Z</time>
      </trkpt>
      <trkpt lat="45.70127" lon="5.88407">
        <ele>237</ele>
        <time>2022-05-01T13:04:41.967Z</time>
      </trkpt>
      <trkpt lat="45.70125" lon="5.88407">
        <ele>236</ele>
        <time>2022-05-01T13:04:42.967Z</time>
      </trkpt>
      <trkpt lat="45.70123" lon="5.88406">
        <ele>236</ele>
        <time>2022-05-01T13:04:43.967Z</time>
      </trkpt>
      <trkpt lat="45.70121" lon="5.88406">
        <ele>236</ele>
        <time>2022-05-01T13:04:44.967Z</time>
      </trkpt>
      <trkpt lat="45.70119" lon="5.88406">
        <ele>235</ele>
        <time>2022-05-01T13:04:45.966Z</time>
      </trkpt>
      <trkpt lat="45.70117" lon="5.88406">
        <ele>235</ele>
        <time>2022-05-01T13:04:46.967Z</time>
      </trkpt>
      <trkpt lat="45.70115" lon="5.88406">
        <ele>235</ele>
        <time>2022-05-01T13:04:47.967Z</time>
      </trkpt>
      <trkpt lat="45.70112" lon="5.88406">
        <ele>235</ele>
        <time>2022-05-01T13:04:48.967Z</time>
      </trkpt>
      <trkpt lat="45.7011" lon="5.88406">
        <ele>235</ele>
        <time>2022-05-01T13:04:49.967Z</time>
      </trkpt>
      <trkpt lat="45.70108" lon="5.88406">
        <ele>235</ele>
        <time>2022-05-01T13:04:50.966Z</time>
      </trkpt>
      <trkpt lat="45.70106" lon="5.88406">
        <ele>235</ele>
        <time>2022-05-01T13:04:51.967Z</time>
      </trkpt>
      <trkpt lat="45.70105" lon="5.88407">
        <ele>235</ele>
        <time>2022-05-01T13:04:52.967Z</time>
      </trkpt>
      <trkpt lat="45.70104" lon="5.88407">
        <ele>235</ele>
        <time>2022-05-01T13:04:53.967Z</time>
      </trkpt>
      <trkpt lat="45.70102" lon="5.88407">
        <ele>234</ele>
        <time>2022-05-01T13:04:54.967Z</time>
      </trkpt>
      <trkpt lat="45.70101" lon="5.88407">
        <ele>234</ele>
        <time>2022-05-01T13:04:55.967Z</time>
      </trkpt>
      <trkpt lat="45.701" lon="5.88407">
        <ele>234</ele>
        <time>2022-05-01T13:04:56.966Z</time>
      </trkpt>
      <trkpt lat="45.701" lon="5.88407">
        <ele>234</ele>
        <time>2022-05-01T13:04:57.967Z</time>
      </trkpt>
      <trkpt lat="45.701" lon="5.88407">
        <ele>234</ele>
        <time>2022-05-01T13:04:58.967Z</time>
      </trkpt>
      <trkpt lat="45.70099" lon="5.88407">
        <ele>235</ele>
        <time>2022-05-01T13:04:59.967Z</time>
      </trkpt>
      <trkpt lat="45.70099" lon="5.88407">
        <ele>234</ele>
        <time>2022-05-01T13:05:00.967Z</time>
      </trkpt>
      <trkpt lat="45.70099" lon="5.88407">
        <ele>233</ele>
        <time>2022-05-01T13:05:01.966Z</time>
      </trkpt>
      <trkpt lat="45.701" lon="5.88407">
        <ele>232</ele>
        <time>2022-05-01T13:05:02.966Z</time>
      </trkpt>
      <trkpt lat="45.70095" lon="5.88412">
        <ele>239</ele>
        <time>2022-05-01T13:07:08.974Z</time>
      </trkpt>
      <trkpt lat="45.70094" lon="5.88414">
        <ele>239</ele>
        <time>2022-05-01T13:07:09.975Z</time>
      </trkpt>
      <trkpt lat="45.70092" lon="5.88416">
        <ele>239</ele>
        <time>2022-05-01T13:07:10.975Z</time>
      </trkpt>
      <trkpt lat="45.7009" lon="5.88417">
        <ele>239</ele>
        <time>2022-05-01T13:07:11.974Z</time>
      </trkpt>
      <trkpt lat="45.70087" lon="5.88418">
        <ele>240</ele>
        <time>2022-05-01T13:07:12.975Z</time>
      </trkpt>
      <trkpt lat="45.70085" lon="5.8842">
        <ele>240</ele>
        <time>2022-05-01T13:07:13.975Z</time>
      </trkpt>
      <trkpt lat="45.70082" lon="5.88421">
        <ele>241</ele>
        <time>2022-05-01T13:07:14.974Z</time>
      </trkpt>
      <trkpt lat="45.70079" lon="5.88422">
        <ele>241</ele>
        <time>2022-05-01T13:07:15.974Z</time>
      </trkpt>
      <trkpt lat="45.70076" lon="5.88423">
        <ele>242</ele>
        <time>2022-05-01T13:07:16.975Z</time>
      </trkpt>
      <trkpt lat="45.70074" lon="5.88424">
        <ele>243</ele>
        <time>2022-05-01T13:07:17.975Z</time>
      </trkpt>
      <trkpt lat="45.7007" lon="5.88426">
        <ele>243</ele>
        <time>2022-05-01T13:07:18.974Z</time>
      </trkpt>
      <trkpt lat="45.70067" lon="5.88428">
        <ele>244</ele>
        <time>2022-05-01T13:07:19.975Z</time>
      </trkpt>
      <trkpt lat="45.70064" lon="5.8843">
        <ele>244</ele>
        <time>2022-05-01T13:07:20.974Z</time>
      </trkpt>
      <trkpt lat="45.70061" lon="5.88432">
        <ele>245</ele>
        <time>2022-05-01T13:07:21.975Z</time>
      </trkpt>
      <trkpt lat="45.70058" lon="5.88434">
        <ele>246</ele>
        <time>2022-05-01T13:07:22.975Z</time>
      </trkpt>
      <trkpt lat="45.70055" lon="5.88436">
        <ele>246</ele>
        <time>2022-05-01T13:07:23.974Z</time>
      </trkpt>
      <trkpt lat="45.70052" lon="5.88437">
        <ele>246</ele>
        <time>2022-05-01T13:07:24.974Z</time>
      </trkpt>
      <trkpt lat="45.70049" lon="5.88438">
        <ele>247</ele>
        <time>2022-05-01T13:07:25.975Z</time>
      </trkpt>
      <trkpt lat="45.70046" lon="5.88439">
        <ele>247</ele>
        <time>2022-05-01T13:07:26.974Z</time>
      </trkpt>
      <trkpt lat="45.70043" lon="5.88439">
        <ele>247</ele>
        <time>2022-05-01T13:07:27.974Z</time>
      </trkpt>
      <trkpt lat="45.70041" lon="5.88441">
        <ele>247</ele>
        <time>2022-05-01T13:07:28.974Z</time>
      </trkpt>
      <trkpt lat="45.70038" lon="5.88443">
        <ele>247</ele>
        <time>2022-05-01T13:07:29.975Z</time>
      </trkpt>
      <trkpt lat="45.70036" lon="5.88444">
        <ele>247</ele>
        <time>2022-05-01T13:07:30.975Z</time>
      </trkpt>
      <trkpt lat="45.70034" lon="5.88444">
        <ele>247</ele>
        <time>2022-05-01T13:07:31.974Z</time>
      </trkpt>
      <trkpt lat="45.70033" lon="5.88443">
        <ele>247</ele>
        <time>2022-05-01T13:07:32.974Z</time>
      </trkpt>
      <trkpt lat="45.70031" lon="5.88441">
        <ele>247</ele>
        <time>2022-05-01T13:07:33.975Z</time>
      </trkpt>
      <trkpt lat="45.7003" lon="5.88442">
        <ele>246</ele>
        <time>2022-05-01T13:07:34.974Z</time>
      </trkpt>
      <trkpt lat="45.70028" lon="5.88443">
        <ele>246</ele>
        <time>2022-05-01T13:07:35.974Z</time>
      </trkpt>
      <trkpt lat="45.70028" lon="5.88444">
        <ele>246</ele>
        <time>2022-05-01T13:07:36.974Z</time>
      </trkpt>
      <trkpt lat="45.70027" lon="5.88444">
        <ele>246</ele>
        <time>2022-05-01T13:07:37.975Z</time>
      </trkpt>
      <trkpt lat="45.70025" lon="5.88445">
        <ele>246</ele>
        <time>2022-05-01T13:07:38.975Z</time>
      </trkpt>
      <trkpt lat="45.70024" lon="5.88445">
        <ele>246</ele>
        <time>2022-05-01T13:07:39.974Z</time>
      </trkpt>
      <trkpt lat="45.70022" lon="5.88446">
        <ele>246</ele>
        <time>2022-05-01T13:07:40.974Z</time>
      </trkpt>
      <trkpt lat="45.7002" lon="5.88448">
        <ele>246</ele>
        <time>2022-05-01T13:07:41.974Z</time>
      </trkpt>
      <trkpt lat="45.70017" lon="5.8845">
        <ele>246</ele>
        <time>2022-05-01T13:07:42.974Z</time>
      </trkpt>
      <trkpt lat="45.70014" lon="5.88452">
        <ele>246</ele>
        <time>2022-05-01T13:07:43.975Z</time>
      </trkpt>
      <trkpt lat="45.7001" lon="5.88454">
        <ele>246</ele>
        <time>2022-05-01T13:07:44.974Z</time>
      </trkpt>
      <trkpt lat="45.70007" lon="5.88457">
        <ele>246</ele>
        <time>2022-05-01T13:07:45.974Z</time>
      </trkpt>
      <trkpt lat="45.70003" lon="5.88459">
        <ele>246</ele>
        <time>2022-05-01T13:07:46.974Z</time>
      </trkpt>
      <trkpt lat="45.7" lon="5.88461">
        <ele>246</ele>
        <time>2022-05-01T13:07:47.974Z</time>
      </trkpt>
      <trkpt lat="45.69997" lon="5.88464">
        <ele>246</ele>
        <time>2022-05-01T13:07:48.974Z</time>
      </trkpt>
      <trkpt lat="45.69994" lon="5.88466">
        <ele>246</ele>
        <time>2022-05-01T13:07:49.974Z</time>
      </trkpt>
      <trkpt lat="45.69991" lon="5.88469">
        <ele>246</ele>
        <time>2022-05-01T13:07:50.974Z</time>
      </trkpt>
      <trkpt lat="45.69989" lon="5.88471">
        <ele>246</ele>
        <time>2022-05-01T13:07:51.975Z</time>
      </trkpt>
      <trkpt lat="45.69987" lon="5.88473">
        <ele>246</ele>
        <time>2022-05-01T13:07:52.974Z</time>
      </trkpt>
      <trkpt lat="45.69985" lon="5.88474">
        <ele>247</ele>
        <time>2022-05-01T13:07:53.974Z</time>
      </trkpt>
      <trkpt lat="45.69982" lon="5.88475">
        <ele>247</ele>
        <time>2022-05-01T13:07:54.974Z</time>
      </trkpt>
      <trkpt lat="45.6998" lon="5.88476">
        <ele>247</ele>
        <time>2022-05-01T13:07:55.975Z</time>
      </trkpt>
      <trkpt lat="45.69977" lon="5.88478">
        <ele>247</ele>
        <time>2022-05-01T13:07:56.974Z</time>
      </trkpt>
      <trkpt lat="45.69975" lon="5.8848">
        <ele>247</ele>
        <time>2022-05-01T13:07:57.975Z</time>
      </trkpt>
      <trkpt lat="45.69973" lon="5.88481">
        <ele>248</ele>
        <time>2022-05-01T13:07:58.975Z</time>
      </trkpt>
      <trkpt lat="45.69971" lon="5.88482">
        <ele>248</ele>
        <time>2022-05-01T13:07:59.974Z</time>
      </trkpt>
      <trkpt lat="45.69968" lon="5.88483">
        <ele>248</ele>
        <time>2022-05-01T13:08:00.974Z</time>
      </trkpt>
      <trkpt lat="45.69966" lon="5.88483">
        <ele>248</ele>
        <time>2022-05-01T13:08:01.975Z</time>
      </trkpt>
      <trkpt lat="45.69963" lon="5.88485">
        <ele>249</ele>
        <time>2022-05-01T13:08:02.975Z</time>
      </trkpt>
      <trkpt lat="45.6996" lon="5.88487">
        <ele>249</ele>
        <time>2022-05-01T13:08:03.974Z</time>
      </trkpt>
      <trkpt lat="45.69956" lon="5.88488">
        <ele>249</ele>
        <time>2022-05-01T13:08:04.975Z</time>
      </trkpt>
      <trkpt lat="45.69954" lon="5.88489">
        <ele>249</ele>
        <time>2022-05-01T13:08:05.974Z</time>
      </trkpt>
      <trkpt lat="45.69952" lon="5.8849">
        <ele>249</ele>
        <time>2022-05-01T13:08:06.974Z</time>
      </trkpt>
      <trkpt lat="45.6995" lon="5.88492">
        <ele>249</ele>
        <time>2022-05-01T13:08:07.974Z</time>
      </trkpt>
      <trkpt lat="45.69947" lon="5.88493">
        <ele>249</ele>
        <time>2022-05-01T13:08:08.974Z</time>
      </trkpt>
      <trkpt lat="45.69945" lon="5.88495">
        <ele>248</ele>
        <time>2022-05-01T13:08:09.974Z</time>
      </trkpt>
      <trkpt lat="45.69943" lon="5.88496">
        <ele>248</ele>
        <time>2022-05-01T13:08:10.974Z</time>
      </trkpt>
      <trkpt lat="45.6994" lon="5.88497">
        <ele>248</ele>
        <time>2022-05-01T13:08:11.974Z</time>
      </trkpt>
      <trkpt lat="45.69937" lon="5.88499">
        <ele>248</ele>
        <time>2022-05-01T13:08:12.974Z</time>
      </trkpt>
      <trkpt lat="45.69934" lon="5.88501">
        <ele>248</ele>
        <time>2022-05-01T13:08:13.975Z</time>
      </trkpt>
      <trkpt lat="45.69931" lon="5.88504">
        <ele>248</ele>
        <time>2022-05-01T13:08:14.975Z</time>
      </trkpt>
      <trkpt lat="45.69928" lon="5.88506">
        <ele>248</ele>
        <time>2022-05-01T13:08:15.974Z</time>
      </trkpt>
      <trkpt lat="45.69926" lon="5.88507">
        <ele>248</ele>
        <time>2022-05-01T13:08:16.974Z</time>
      </trkpt>
      <trkpt lat="45.69923" lon="5.88508">
        <ele>248</ele>
        <time>2022-05-01T13:08:17.974Z</time>
      </trkpt>
      <trkpt lat="45.69921" lon="5.8851">
        <ele>248</ele>
        <time>2022-05-01T13:08:18.975Z</time>
      </trkpt>
      <trkpt lat="45.69918" lon="5.88512">
        <ele>248</ele>
        <time>2022-05-01T13:08:19.974Z</time>
      </trkpt>
      <trkpt lat="45.69915" lon="5.88513">
        <ele>248</ele>
        <time>2022-05-01T13:08:20.975Z</time>
      </trkpt>
      <trkpt lat="45.69913" lon="5.88514">
        <ele>248</ele>
        <time>2022-05-01T13:08:21.974Z</time>
      </trkpt>
      <trkpt lat="45.69911" lon="5.88515">
        <ele>247</ele>
        <time>2022-05-01T13:08:22.974Z</time>
      </trkpt>
      <trkpt lat="45.69909" lon="5.88516">
        <ele>247</ele>
        <time>2022-05-01T13:08:23.975Z</time>
      </trkpt>
      <trkpt lat="45.69908" lon="5.88517">
        <ele>247</ele>
        <time>2022-05-01T13:08:24.974Z</time>
      </trkpt>
      <trkpt lat="45.69906" lon="5.88517">
        <ele>247</ele>
        <time>2022-05-01T13:08:25.974Z</time>
      </trkpt>
      <trkpt lat="45.69904" lon="5.88518">
        <ele>247</ele>
        <time>2022-05-01T13:08:26.974Z</time>
      </trkpt>
      <trkpt lat="45.69903" lon="5.88519">
        <ele>246</ele>
        <time>2022-05-01T13:08:27.974Z</time>
      </trkpt>
      <trkpt lat="45.69901" lon="5.8852">
        <ele>246</ele>
        <time>2022-05-01T13:08:28.974Z</time>
      </trkpt>
      <trkpt lat="45.699" lon="5.88521">
        <ele>246</ele>
        <time>2022-05-01T13:08:29.975Z</time>
      </trkpt>
      <trkpt lat="45.69898" lon="5.88522">
        <ele>246</ele>
        <time>2022-05-01T13:08:30.975Z</time>
      </trkpt>
      <trkpt lat="45.69897" lon="5.88522">
        <ele>246</ele>
        <time>2022-05-01T13:08:31.975Z</time>
      </trkpt>
      <trkpt lat="45.69896" lon="5.88523">
        <ele>246</ele>
        <time>2022-05-01T13:08:32.974Z</time>
      </trkpt>
      <trkpt lat="45.69895" lon="5.88524">
        <ele>246</ele>
        <time>2022-05-01T13:08:33.975Z</time>
      </trkpt>
      <trkpt lat="45.69894" lon="5.88525">
        <ele>246</ele>
        <time>2022-05-01T13:08:34.975Z</time>
      </trkpt>
      <trkpt lat="45.69894" lon="5.88525">
        <ele>245</ele>
        <time>2022-05-01T13:08:35.975Z</time>
      </trkpt>
      <trkpt lat="45.69893" lon="5.88526">
        <ele>245</ele>
        <time>2022-05-01T13:08:36.974Z</time>
      </trkpt>
      <trkpt lat="45.69891" lon="5.88527">
        <ele>245</ele>
        <time>2022-05-01T13:08:37.975Z</time>
      </trkpt>
      <trkpt lat="45.6989" lon="5.88528">
        <ele>244</ele>
        <time>2022-05-01T13:08:38.974Z</time>
      </trkpt>
      <trkpt lat="45.69888" lon="5.88529">
        <ele>244</ele>
        <time>2022-05-01T13:08:39.975Z</time>
      </trkpt>
      <trkpt lat="45.69887" lon="5.88529">
        <ele>244</ele>
        <time>2022-05-01T13:08:40.975Z</time>
      </trkpt>
      <trkpt lat="45.69886" lon="5.88531">
        <ele>244</ele>
        <time>2022-05-01T13:08:41.975Z</time>
      </trkpt>
      <trkpt lat="45.69884" lon="5.88532">
        <ele>244</ele>
        <time>2022-05-01T13:08:42.975Z</time>
      </trkpt>
      <trkpt lat="45.69883" lon="5.88533">
        <ele>243</ele>
        <time>2022-05-01T13:08:43.975Z</time>
      </trkpt>
      <trkpt lat="45.69882" lon="5.88533">
        <ele>243</ele>
        <time>2022-05-01T13:08:44.975Z</time>
      </trkpt>
      <trkpt lat="45.6988" lon="5.88534">
        <ele>244</ele>
        <time>2022-05-01T13:08:45.975Z</time>
      </trkpt>
      <trkpt lat="45.69877" lon="5.88535">
        <ele>244</ele>
        <time>2022-05-01T13:08:46.975Z</time>
      </trkpt>
      <trkpt lat="45.69875" lon="5.88536">
        <ele>244</ele>
        <time>2022-05-01T13:08:47.975Z</time>
      </trkpt>
      <trkpt lat="45.69872" lon="5.88537">
        <ele>244</ele>
        <time>2022-05-01T13:08:48.975Z</time>
      </trkpt>
      <trkpt lat="45.6987" lon="5.88539">
        <ele>244</ele>
        <time>2022-05-01T13:08:49.975Z</time>
      </trkpt>
      <trkpt lat="45.69867" lon="5.88541">
        <ele>244</ele>
        <time>2022-05-01T13:08:50.975Z</time>
      </trkpt>
      <trkpt lat="45.69864" lon="5.88543">
        <ele>244</ele>
        <time>2022-05-01T13:08:51.975Z</time>
      </trkpt>
      <trkpt lat="45.69862" lon="5.88545">
        <ele>245</ele>
        <time>2022-05-01T13:08:52.975Z</time>
      </trkpt>
      <trkpt lat="45.69859" lon="5.88547">
        <ele>245</ele>
        <time>2022-05-01T13:08:53.975Z</time>
      </trkpt>
      <trkpt lat="45.69856" lon="5.88549">
        <ele>245</ele>
        <time>2022-05-01T13:08:54.975Z</time>
      </trkpt>
      <trkpt lat="45.69853" lon="5.8855">
        <ele>245</ele>
        <time>2022-05-01T13:08:55.975Z</time>
      </trkpt>
      <trkpt lat="45.6985" lon="5.88552">
        <ele>244</ele>
        <time>2022-05-01T13:08:56.975Z</time>
      </trkpt>
      <trkpt lat="45.69847" lon="5.88554">
        <ele>244</ele>
        <time>2022-05-01T13:08:57.975Z</time>
      </trkpt>
      <trkpt lat="45.69844" lon="5.88555">
        <ele>243</ele>
        <time>2022-05-01T13:08:58.974Z</time>
      </trkpt>
      <trkpt lat="45.69841" lon="5.88557">
        <ele>243</ele>
        <time>2022-05-01T13:08:59.975Z</time>
      </trkpt>
      <trkpt lat="45.69838" lon="5.88559">
        <ele>243</ele>
        <time>2022-05-01T13:09:00.975Z</time>
      </trkpt>
      <trkpt lat="45.69836" lon="5.88561">
        <ele>242</ele>
        <time>2022-05-01T13:09:01.975Z</time>
      </trkpt>
      <trkpt lat="45.69833" lon="5.88564">
        <ele>242</ele>
        <time>2022-05-01T13:09:02.975Z</time>
      </trkpt>
      <trkpt lat="45.69831" lon="5.88566">
        <ele>242</ele>
        <time>2022-05-01T13:09:03.975Z</time>
      </trkpt>
      <trkpt lat="45.69828" lon="5.88568">
        <ele>241</ele>
        <time>2022-05-01T13:09:04.974Z</time>
      </trkpt>
      <trkpt lat="45.69826" lon="5.88569">
        <ele>241</ele>
        <time>2022-05-01T13:09:05.974Z</time>
      </trkpt>
      <trkpt lat="45.69823" lon="5.88571">
        <ele>241</ele>
        <time>2022-05-01T13:09:06.975Z</time>
      </trkpt>
      <trkpt lat="45.6982" lon="5.88573">
        <ele>241</ele>
        <time>2022-05-01T13:09:07.975Z</time>
      </trkpt>
      <trkpt lat="45.69818" lon="5.88574">
        <ele>241</ele>
        <time>2022-05-01T13:09:08.975Z</time>
      </trkpt>
      <trkpt lat="45.69816" lon="5.88576">
        <ele>241</ele>
        <time>2022-05-01T13:09:09.975Z</time>
      </trkpt>
      <trkpt lat="45.69814" lon="5.88577">
        <ele>241</ele>
        <time>2022-05-01T13:09:10.974Z</time>
      </trkpt>
      <trkpt lat="45.69812" lon="5.88579">
        <ele>241</ele>
        <time>2022-05-01T13:09:11.975Z</time>
      </trkpt>
      <trkpt lat="45.6981" lon="5.8858">
        <ele>241</ele>
        <time>2022-05-01T13:09:12.975Z</time>
      </trkpt>
      <trkpt lat="45.69807" lon="5.8858">
        <ele>241</ele>
        <time>2022-05-01T13:09:13.975Z</time>
      </trkpt>
      <trkpt lat="45.69805" lon="5.88581">
        <ele>241</ele>
        <time>2022-05-01T13:09:14.975Z</time>
      </trkpt>
      <trkpt lat="45.69802" lon="5.88582">
        <ele>241</ele>
        <time>2022-05-01T13:09:15.975Z</time>
      </trkpt>
      <trkpt lat="45.69799" lon="5.88584">
        <ele>241</ele>
        <time>2022-05-01T13:09:16.975Z</time>
      </trkpt>
      <trkpt lat="45.69797" lon="5.88586">
        <ele>241</ele>
        <time>2022-05-01T13:09:17.975Z</time>
      </trkpt>
      <trkpt lat="45.69794" lon="5.88589">
        <ele>241</ele>
        <time>2022-05-01T13:09:18.975Z</time>
      </trkpt>
      <trkpt lat="45.69792" lon="5.8859">
        <ele>241</ele>
        <time>2022-05-01T13:09:19.975Z</time>
      </trkpt>
      <trkpt lat="45.69789" lon="5.88592">
        <ele>241</ele>
        <time>2022-05-01T13:09:20.974Z</time>
      </trkpt>
      <trkpt lat="45.69787" lon="5.88594">
        <ele>241</ele>
        <time>2022-05-01T13:09:21.975Z</time>
      </trkpt>
      <trkpt lat="45.69785" lon="5.88596">
        <ele>241</ele>
        <time>2022-05-01T13:09:22.975Z</time>
      </trkpt>
      <trkpt lat="45.69783" lon="5.88599">
        <ele>241</ele>
        <time>2022-05-01T13:09:23.975Z</time>
      </trkpt>
      <trkpt lat="45.6978" lon="5.88602">
        <ele>241</ele>
        <time>2022-05-01T13:09:24.975Z</time>
      </trkpt>
      <trkpt lat="45.69777" lon="5.88605">
        <ele>241</ele>
        <time>2022-05-01T13:09:25.975Z</time>
      </trkpt>
      <trkpt lat="45.69774" lon="5.88607">
        <ele>242</ele>
        <time>2022-05-01T13:09:26.975Z</time>
      </trkpt>
      <trkpt lat="45.69772" lon="5.88609">
        <ele>242</ele>
        <time>2022-05-01T13:09:27.975Z</time>
      </trkpt>
      <trkpt lat="45.69769" lon="5.88611">
        <ele>242</ele>
        <time>2022-05-01T13:09:28.975Z</time>
      </trkpt>
      <trkpt lat="45.69766" lon="5.88612">
        <ele>242</ele>
        <time>2022-05-01T13:09:29.975Z</time>
      </trkpt>
      <trkpt lat="45.69763" lon="5.88613">
        <ele>242</ele>
        <time>2022-05-01T13:09:30.975Z</time>
      </trkpt>
      <trkpt lat="45.69761" lon="5.88614">
        <ele>241</ele>
        <time>2022-05-01T13:09:31.974Z</time>
      </trkpt>
      <trkpt lat="45.69758" lon="5.88615">
        <ele>241</ele>
        <time>2022-05-01T13:09:32.975Z</time>
      </trkpt>
      <trkpt lat="45.69756" lon="5.88615">
        <ele>240</ele>
        <time>2022-05-01T13:09:33.975Z</time>
      </trkpt>
      <trkpt lat="45.69754" lon="5.88616">
        <ele>240</ele>
        <time>2022-05-01T13:09:34.975Z</time>
      </trkpt>
      <trkpt lat="45.69751" lon="5.88618">
        <ele>239</ele>
        <time>2022-05-01T13:09:35.975Z</time>
      </trkpt>
      <trkpt lat="45.69748" lon="5.8862">
        <ele>239</ele>
        <time>2022-05-01T13:09:36.975Z</time>
      </trkpt>
      <trkpt lat="45.69745" lon="5.88622">
        <ele>238</ele>
        <time>2022-05-01T13:09:37.974Z</time>
      </trkpt>
      <trkpt lat="45.69741" lon="5.88624">
        <ele>238</ele>
        <time>2022-05-01T13:09:38.975Z</time>
      </trkpt>
      <trkpt lat="45.69738" lon="5.88626">
        <ele>237</ele>
        <time>2022-05-01T13:09:39.975Z</time>
      </trkpt>
      <trkpt lat="45.69735" lon="5.88627">
        <ele>237</ele>
        <time>2022-05-01T13:09:40.974Z</time>
      </trkpt>
      <trkpt lat="45.69731" lon="5.88629">
        <ele>236</ele>
        <time>2022-05-01T13:09:41.975Z</time>
      </trkpt>
      <trkpt lat="45.69729" lon="5.88632">
        <ele>235</ele>
        <time>2022-05-01T13:09:42.975Z</time>
      </trkpt>
      <trkpt lat="45.69726" lon="5.88635">
        <ele>235</ele>
        <time>2022-05-01T13:09:43.974Z</time>
      </trkpt>
      <trkpt lat="45.69724" lon="5.88638">
        <ele>235</ele>
        <time>2022-05-01T13:09:44.974Z</time>
      </trkpt>
      <trkpt lat="45.69721" lon="5.8864">
        <ele>234</ele>
        <time>2022-05-01T13:09:45.975Z</time>
      </trkpt>
      <trkpt lat="45.69718" lon="5.88642">
        <ele>234</ele>
        <time>2022-05-01T13:09:46.974Z</time>
      </trkpt>
      <trkpt lat="45.69714" lon="5.88643">
        <ele>233</ele>
        <time>2022-05-01T13:09:47.975Z</time>
      </trkpt>
      <trkpt lat="45.6971" lon="5.88645">
        <ele>233</ele>
        <time>2022-05-01T13:09:48.974Z</time>
      </trkpt>
      <trkpt lat="45.69706" lon="5.88647">
        <ele>233</ele>
        <time>2022-05-01T13:09:49.975Z</time>
      </trkpt>
      <trkpt lat="45.69702" lon="5.88649">
        <ele>233</ele>
        <time>2022-05-01T13:09:50.975Z</time>
      </trkpt>
      <trkpt lat="45.69697" lon="5.88651">
        <ele>233</ele>
        <time>2022-05-01T13:09:51.975Z</time>
      </trkpt>
      <trkpt lat="45.69693" lon="5.88653">
        <ele>234</ele>
        <time>2022-05-01T13:09:52.975Z</time>
      </trkpt>
      <trkpt lat="45.69689" lon="5.88655">
        <ele>234</ele>
        <time>2022-05-01T13:09:53.975Z</time>
      </trkpt>
      <trkpt lat="45.69685" lon="5.88657">
        <ele>234</ele>
        <time>2022-05-01T13:09:54.975Z</time>
      </trkpt>
      <trkpt lat="45.69682" lon="5.88659">
        <ele>235</ele>
        <time>2022-05-01T13:09:55.975Z</time>
      </trkpt>
      <trkpt lat="45.69678" lon="5.88662">
        <ele>236</ele>
        <time>2022-05-01T13:09:56.975Z</time>
      </trkpt>
      <trkpt lat="45.69674" lon="5.88664">
        <ele>236</ele>
        <time>2022-05-01T13:09:57.975Z</time>
      </trkpt>
      <trkpt lat="45.6967" lon="5.88667">
        <ele>236</ele>
        <time>2022-05-01T13:09:58.975Z</time>
      </trkpt>
      <trkpt lat="45.69667" lon="5.88669">
        <ele>236</ele>
        <time>2022-05-01T13:09:59.975Z</time>
      </trkpt>
      <trkpt lat="45.69663" lon="5.88671">
        <ele>236</ele>
        <time>2022-05-01T13:10:00.975Z</time>
      </trkpt>
      <trkpt lat="45.6966" lon="5.88675">
        <ele>236</ele>
        <time>2022-05-01T13:10:01.974Z</time>
      </trkpt>
      <trkpt lat="45.69656" lon="5.88677">
        <ele>237</ele>
        <time>2022-05-01T13:10:02.974Z</time>
      </trkpt>
      <trkpt lat="45.69652" lon="5.88679">
        <ele>237</ele>
        <time>2022-05-01T13:10:03.974Z</time>
      </trkpt>
      <trkpt lat="45.69649" lon="5.8868">
        <ele>237</ele>
        <time>2022-05-01T13:10:04.975Z</time>
      </trkpt>
      <trkpt lat="45.69645" lon="5.88682">
        <ele>237</ele>
        <time>2022-05-01T13:10:05.975Z</time>
      </trkpt>
      <trkpt lat="45.69642" lon="5.88684">
        <ele>237</ele>
        <time>2022-05-01T13:10:06.975Z</time>
      </trkpt>
      <trkpt lat="45.69639" lon="5.88687">
        <ele>237</ele>
        <time>2022-05-01T13:10:07.975Z</time>
      </trkpt>
      <trkpt lat="45.69636" lon="5.88689">
        <ele>237</ele>
        <time>2022-05-01T13:10:08.975Z</time>
      </trkpt>
      <trkpt lat="45.69633" lon="5.88692">
        <ele>237</ele>
        <time>2022-05-01T13:10:09.975Z</time>
      </trkpt>
      <trkpt lat="45.6963" lon="5.88694">
        <ele>236</ele>
        <time>2022-05-01T13:10:10.975Z</time>
      </trkpt>
      <trkpt lat="45.69627" lon="5.88695">
        <ele>236</ele>
        <time>2022-05-01T13:10:11.975Z</time>
      </trkpt>
      <trkpt lat="45.69624" lon="5.88697">
        <ele>236</ele>
        <time>2022-05-01T13:10:12.974Z</time>
      </trkpt>
      <trkpt lat="45.69621" lon="5.88699">
        <ele>236</ele>
        <time>2022-05-01T13:10:13.975Z</time>
      </trkpt>
      <trkpt lat="45.69618" lon="5.88701">
        <ele>236</ele>
        <time>2022-05-01T13:10:14.974Z</time>
      </trkpt>
      <trkpt lat="45.69615" lon="5.88703">
        <ele>236</ele>
        <time>2022-05-01T13:10:15.975Z</time>
      </trkpt>
      <trkpt lat="45.69611" lon="5.88705">
        <ele>236</ele>
        <time>2022-05-01T13:10:16.975Z</time>
      </trkpt>
      <trkpt lat="45.69608" lon="5.88707">
        <ele>236</ele>
        <time>2022-05-01T13:10:17.975Z</time>
      </trkpt>
      <trkpt lat="45.69604" lon="5.88709">
        <ele>235</ele>
        <time>2022-05-01T13:10:18.975Z</time>
      </trkpt>
      <trkpt lat="45.696" lon="5.88712">
        <ele>235</ele>
        <time>2022-05-01T13:10:19.975Z</time>
      </trkpt>
      <trkpt lat="45.69596" lon="5.88714">
        <ele>235</ele>
        <time>2022-05-01T13:10:20.974Z</time>
      </trkpt>
      <trkpt lat="45.69593" lon="5.88716">
        <ele>235</ele>
        <time>2022-05-01T13:10:21.975Z</time>
      </trkpt>
      <trkpt lat="45.69589" lon="5.88719">
        <ele>236</ele>
        <time>2022-05-01T13:10:22.975Z</time>
      </trkpt>
      <trkpt lat="45.69587" lon="5.8872">
        <ele>236</ele>
        <time>2022-05-01T13:10:23.975Z</time>
      </trkpt>
      <trkpt lat="45.69585" lon="5.88722">
        <ele>236</ele>
        <time>2022-05-01T13:10:24.974Z</time>
      </trkpt>
      <trkpt lat="45.69583" lon="5.88722">
        <ele>236</ele>
        <time>2022-05-01T13:10:25.974Z</time>
      </trkpt>
      <trkpt lat="45.69582" lon="5.88723">
        <ele>236</ele>
        <time>2022-05-01T13:10:26.974Z</time>
      </trkpt>
      <trkpt lat="45.6958" lon="5.88723">
        <ele>236</ele>
        <time>2022-05-01T13:10:27.975Z</time>
      </trkpt>
      <trkpt lat="45.69579" lon="5.88724">
        <ele>236</ele>
        <time>2022-05-01T13:10:28.975Z</time>
      </trkpt>
      <trkpt lat="45.69578" lon="5.88726">
        <ele>236</ele>
        <time>2022-05-01T13:10:29.975Z</time>
      </trkpt>
      <trkpt lat="45.69577" lon="5.88727">
        <ele>236</ele>
        <time>2022-05-01T13:10:30.975Z</time>
      </trkpt>
      <trkpt lat="45.69575" lon="5.88729">
        <ele>237</ele>
        <time>2022-05-01T13:10:31.974Z</time>
      </trkpt>
      <trkpt lat="45.69574" lon="5.88731">
        <ele>237</ele>
        <time>2022-05-01T13:10:32.975Z</time>
      </trkpt>
      <trkpt lat="45.69572" lon="5.88734">
        <ele>237</ele>
        <time>2022-05-01T13:10:33.974Z</time>
      </trkpt>
      <trkpt lat="45.69569" lon="5.88736">
        <ele>237</ele>
        <time>2022-05-01T13:10:34.975Z</time>
      </trkpt>
      <trkpt lat="45.69566" lon="5.88738">
        <ele>237</ele>
        <time>2022-05-01T13:10:35.974Z</time>
      </trkpt>
      <trkpt lat="45.69562" lon="5.88739">
        <ele>237</ele>
        <time>2022-05-01T13:10:36.974Z</time>
      </trkpt>
      <trkpt lat="45.69558" lon="5.8874">
        <ele>237</ele>
        <time>2022-05-01T13:10:37.974Z</time>
      </trkpt>
      <trkpt lat="45.69554" lon="5.88742">
        <ele>237</ele>
        <time>2022-05-01T13:10:38.975Z</time>
      </trkpt>
      <trkpt lat="45.6955" lon="5.88743">
        <ele>238</ele>
        <time>2022-05-01T13:10:39.974Z</time>
      </trkpt>
      <trkpt lat="45.69546" lon="5.88746">
        <ele>238</ele>
        <time>2022-05-01T13:10:40.975Z</time>
      </trkpt>
      <trkpt lat="45.69542" lon="5.88748">
        <ele>238</ele>
        <time>2022-05-01T13:10:41.975Z</time>
      </trkpt>
      <trkpt lat="45.69538" lon="5.88751">
        <ele>238</ele>
        <time>2022-05-01T13:10:42.974Z</time>
      </trkpt>
      <trkpt lat="45.69534" lon="5.88754">
        <ele>238</ele>
        <time>2022-05-01T13:10:43.975Z</time>
      </trkpt>
      <trkpt lat="45.6953" lon="5.88757">
        <ele>238</ele>
        <time>2022-05-01T13:10:44.975Z</time>
      </trkpt>
      <trkpt lat="45.69525" lon="5.8876">
        <ele>238</ele>
        <time>2022-05-01T13:10:45.974Z</time>
      </trkpt>
      <trkpt lat="45.6952" lon="5.88762">
        <ele>238</ele>
        <time>2022-05-01T13:10:46.974Z</time>
      </trkpt>
      <trkpt lat="45.69516" lon="5.88765">
        <ele>238</ele>
        <time>2022-05-01T13:10:47.974Z</time>
      </trkpt>
      <trkpt lat="45.69512" lon="5.88767">
        <ele>239</ele>
        <time>2022-05-01T13:10:48.975Z</time>
      </trkpt>
      <trkpt lat="45.69507" lon="5.88769">
        <ele>239</ele>
        <time>2022-05-01T13:10:49.975Z</time>
      </trkpt>
      <trkpt lat="45.69503" lon="5.88772">
        <ele>239</ele>
        <time>2022-05-01T13:10:50.974Z</time>
      </trkpt>
      <trkpt lat="45.69499" lon="5.88776">
        <ele>239</ele>
        <time>2022-05-01T13:10:51.975Z</time>
      </trkpt>
      <trkpt lat="45.69494" lon="5.88779">
        <ele>238</ele>
        <time>2022-05-01T13:10:52.975Z</time>
      </trkpt>
      <trkpt lat="45.69489" lon="5.88782">
        <ele>238</ele>
        <time>2022-05-01T13:10:53.975Z</time>
      </trkpt>
      <trkpt lat="45.69485" lon="5.88785">
        <ele>238</ele>
        <time>2022-05-01T13:10:54.974Z</time>
      </trkpt>
      <trkpt lat="45.6948" lon="5.88788">
        <ele>238</ele>
        <time>2022-05-01T13:10:55.975Z</time>
      </trkpt>
      <trkpt lat="45.69476" lon="5.88791">
        <ele>238</ele>
        <time>2022-05-01T13:10:56.975Z</time>
      </trkpt>
      <trkpt lat="45.69471" lon="5.88793">
        <ele>238</ele>
        <time>2022-05-01T13:10:57.975Z</time>
      </trkpt>
      <trkpt lat="45.69467" lon="5.88795">
        <ele>238</ele>
        <time>2022-05-01T13:10:58.975Z</time>
      </trkpt>
      <trkpt lat="45.69463" lon="5.88797">
        <ele>238</ele>
        <time>2022-05-01T13:10:59.975Z</time>
      </trkpt>
      <trkpt lat="45.69459" lon="5.88799">
        <ele>238</ele>
        <time>2022-05-01T13:11:00.975Z</time>
      </trkpt>
      <trkpt lat="45.69455" lon="5.88802">
        <ele>239</ele>
        <time>2022-05-01T13:11:01.975Z</time>
      </trkpt>
      <trkpt lat="45.69451" lon="5.88805">
        <ele>239</ele>
        <time>2022-05-01T13:11:02.974Z</time>
      </trkpt>
      <trkpt lat="45.69447" lon="5.88807">
        <ele>239</ele>
        <time>2022-05-01T13:11:03.974Z</time>
      </trkpt>
      <trkpt lat="45.69444" lon="5.8881">
        <ele>239</ele>
        <time>2022-05-01T13:11:04.974Z</time>
      </trkpt>
      <trkpt lat="45.69443" lon="5.88812">
        <ele>239</ele>
        <time>2022-05-01T13:11:05.975Z</time>
      </trkpt>
      <trkpt lat="45.69442" lon="5.88814">
        <ele>240</ele>
        <time>2022-05-01T13:11:06.975Z</time>
      </trkpt>
      <trkpt lat="45.69441" lon="5.88816">
        <ele>240</ele>
        <time>2022-05-01T13:11:07.975Z</time>
      </trkpt>
      <trkpt lat="45.69441" lon="5.88817">
        <ele>240</ele>
        <time>2022-05-01T13:11:08.975Z</time>
      </trkpt>
      <trkpt lat="45.69441" lon="5.88819">
        <ele>240</ele>
        <time>2022-05-01T13:11:09.975Z</time>
      </trkpt>
      <trkpt lat="45.6944" lon="5.88821">
        <ele>240</ele>
        <time>2022-05-01T13:11:10.975Z</time>
      </trkpt>
      <trkpt lat="45.69441" lon="5.88825">
        <ele>240</ele>
        <time>2022-05-01T13:11:11.974Z</time>
      </trkpt>
      <trkpt lat="45.69441" lon="5.88828">
        <ele>240</ele>
        <time>2022-05-01T13:11:12.974Z</time>
      </trkpt>
      <trkpt lat="45.69441" lon="5.88832">
        <ele>240</ele>
        <time>2022-05-01T13:11:13.975Z</time>
      </trkpt>
      <trkpt lat="45.69441" lon="5.88838">
        <ele>239</ele>
        <time>2022-05-01T13:11:14.975Z</time>
      </trkpt>
      <trkpt lat="45.69441" lon="5.88842">
        <ele>239</ele>
        <time>2022-05-01T13:11:15.975Z</time>
      </trkpt>
      <trkpt lat="45.6944" lon="5.88847">
        <ele>239</ele>
        <time>2022-05-01T13:11:16.975Z</time>
      </trkpt>
      <trkpt lat="45.69439" lon="5.8885">
        <ele>238</ele>
        <time>2022-05-01T13:11:17.975Z</time>
      </trkpt>
      <trkpt lat="45.69437" lon="5.88852">
        <ele>238</ele>
        <time>2022-05-01T13:11:18.974Z</time>
      </trkpt>
      <trkpt lat="45.69434" lon="5.88854">
        <ele>238</ele>
        <time>2022-05-01T13:11:19.974Z</time>
      </trkpt>
      <trkpt lat="45.69432" lon="5.88855">
        <ele>237</ele>
        <time>2022-05-01T13:11:20.974Z</time>
      </trkpt>
      <trkpt lat="45.69429" lon="5.88856">
        <ele>237</ele>
        <time>2022-05-01T13:11:21.974Z</time>
      </trkpt>
      <trkpt lat="45.69426" lon="5.88857">
        <ele>237</ele>
        <time>2022-05-01T13:11:22.974Z</time>
      </trkpt>
      <trkpt lat="45.69423" lon="5.88857">
        <ele>237</ele>
        <time>2022-05-01T13:11:23.974Z</time>
      </trkpt>
      <trkpt lat="45.69421" lon="5.88858">
        <ele>236</ele>
        <time>2022-05-01T13:11:24.975Z</time>
      </trkpt>
      <trkpt lat="45.69419" lon="5.88859">
        <ele>236</ele>
        <time>2022-05-01T13:11:25.975Z</time>
      </trkpt>
      <trkpt lat="45.69417" lon="5.8886">
        <ele>236</ele>
        <time>2022-05-01T13:11:26.974Z</time>
      </trkpt>
      <trkpt lat="45.69416" lon="5.88861">
        <ele>235</ele>
        <time>2022-05-01T13:11:27.974Z</time>
      </trkpt>
      <trkpt lat="45.69414" lon="5.88863">
        <ele>234</ele>
        <time>2022-05-01T13:11:28.974Z</time>
      </trkpt>
      <trkpt lat="45.69413" lon="5.88864">
        <ele>234</ele>
        <time>2022-05-01T13:11:29.975Z</time>
      </trkpt>
      <trkpt lat="45.69412" lon="5.88864">
        <ele>234</ele>
        <time>2022-05-01T13:11:30.975Z</time>
      </trkpt>
      <trkpt lat="45.69411" lon="5.88865">
        <ele>234</ele>
        <time>2022-05-01T13:11:31.974Z</time>
      </trkpt>
      <trkpt lat="45.6941" lon="5.88866">
        <ele>234</ele>
        <time>2022-05-01T13:11:32.974Z</time>
      </trkpt>
      <trkpt lat="45.69408" lon="5.88866">
        <ele>234</ele>
        <time>2022-05-01T13:11:33.975Z</time>
      </trkpt>
      <trkpt lat="45.69406" lon="5.88867">
        <ele>233</ele>
        <time>2022-05-01T13:11:34.975Z</time>
      </trkpt>
      <trkpt lat="45.69403" lon="5.88868">
        <ele>233</ele>
        <time>2022-05-01T13:11:35.975Z</time>
      </trkpt>
      <trkpt lat="45.694" lon="5.88869">
        <ele>233</ele>
        <time>2022-05-01T13:11:36.975Z</time>
      </trkpt>
      <trkpt lat="45.69397" lon="5.8887">
        <ele>233</ele>
        <time>2022-05-01T13:11:37.975Z</time>
      </trkpt>
      <trkpt lat="45.69394" lon="5.8887">
        <ele>233</ele>
        <time>2022-05-01T13:11:38.975Z</time>
      </trkpt>
      <trkpt lat="45.69392" lon="5.88872">
        <ele>232</ele>
        <time>2022-05-01T13:11:39.975Z</time>
      </trkpt>
      <trkpt lat="45.69389" lon="5.88874">
        <ele>232</ele>
        <time>2022-05-01T13:11:40.974Z</time>
      </trkpt>
      <trkpt lat="45.69386" lon="5.88877">
        <ele>232</ele>
        <time>2022-05-01T13:11:41.975Z</time>
      </trkpt>
      <trkpt lat="45.69384" lon="5.88879">
        <ele>232</ele>
        <time>2022-05-01T13:11:42.975Z</time>
      </trkpt>
      <trkpt lat="45.69382" lon="5.88881">
        <ele>232</ele>
        <time>2022-05-01T13:11:43.974Z</time>
      </trkpt>
      <trkpt lat="45.6938" lon="5.88883">
        <ele>232</ele>
        <time>2022-05-01T13:11:44.975Z</time>
      </trkpt>
      <trkpt lat="45.69377" lon="5.88885">
        <ele>232</ele>
        <time>2022-05-01T13:11:45.974Z</time>
      </trkpt>
      <trkpt lat="45.69375" lon="5.88887">
        <ele>233</ele>
        <time>2022-05-01T13:11:46.974Z</time>
      </trkpt>
      <trkpt lat="45.69372" lon="5.88889">
        <ele>233</ele>
        <time>2022-05-01T13:11:47.975Z</time>
      </trkpt>
      <trkpt lat="45.69369" lon="5.8889">
        <ele>233</ele>
        <time>2022-05-01T13:11:48.974Z</time>
      </trkpt>
      <trkpt lat="45.69366" lon="5.88891">
        <ele>233</ele>
        <time>2022-05-01T13:11:49.975Z</time>
      </trkpt>
      <trkpt lat="45.69362" lon="5.88892">
        <ele>233</ele>
        <time>2022-05-01T13:11:50.975Z</time>
      </trkpt>
      <trkpt lat="45.69359" lon="5.88894">
        <ele>233</ele>
        <time>2022-05-01T13:11:51.974Z</time>
      </trkpt>
      <trkpt lat="45.69355" lon="5.88895">
        <ele>233</ele>
        <time>2022-05-01T13:11:52.975Z</time>
      </trkpt>
      <trkpt lat="45.69351" lon="5.88896">
        <ele>233</ele>
        <time>2022-05-01T13:11:53.975Z</time>
      </trkpt>
      <trkpt lat="45.69346" lon="5.88897">
        <ele>233</ele>
        <time>2022-05-01T13:11:54.975Z</time>
      </trkpt>
      <trkpt lat="45.69342" lon="5.88897">
        <ele>233</ele>
        <time>2022-05-01T13:11:55.974Z</time>
      </trkpt>
      <trkpt lat="45.69337" lon="5.88896">
        <ele>233</ele>
        <time>2022-05-01T13:11:56.975Z</time>
      </trkpt>
      <trkpt lat="45.69332" lon="5.88895">
        <ele>233</ele>
        <time>2022-05-01T13:11:57.975Z</time>
      </trkpt>
      <trkpt lat="45.69328" lon="5.88894">
        <ele>233</ele>
        <time>2022-05-01T13:11:58.975Z</time>
      </trkpt>
      <trkpt lat="45.69323" lon="5.88895">
        <ele>232</ele>
        <time>2022-05-01T13:11:59.975Z</time>
      </trkpt>
      <trkpt lat="45.69319" lon="5.88896">
        <ele>232</ele>
        <time>2022-05-01T13:12:00.975Z</time>
      </trkpt>
      <trkpt lat="45.69315" lon="5.88898">
        <ele>233</ele>
        <time>2022-05-01T13:12:01.975Z</time>
      </trkpt>
      <trkpt lat="45.69312" lon="5.889">
        <ele>233</ele>
        <time>2022-05-01T13:12:02.975Z</time>
      </trkpt>
      <trkpt lat="45.69309" lon="5.88903">
        <ele>233</ele>
        <time>2022-05-01T13:12:03.975Z</time>
      </trkpt>
      <trkpt lat="45.69306" lon="5.88906">
        <ele>233</ele>
        <time>2022-05-01T13:12:04.974Z</time>
      </trkpt>
      <trkpt lat="45.69304" lon="5.8891">
        <ele>234</ele>
        <time>2022-05-01T13:12:05.975Z</time>
      </trkpt>
      <trkpt lat="45.69301" lon="5.88913">
        <ele>234</ele>
        <time>2022-05-01T13:12:06.974Z</time>
      </trkpt>
      <trkpt lat="45.69298" lon="5.88917">
        <ele>234</ele>
        <time>2022-05-01T13:12:07.974Z</time>
      </trkpt>
      <trkpt lat="45.69296" lon="5.8892">
        <ele>234</ele>
        <time>2022-05-01T13:12:08.975Z</time>
      </trkpt>
      <trkpt lat="45.69292" lon="5.88923">
        <ele>233</ele>
        <time>2022-05-01T13:12:09.975Z</time>
      </trkpt>
      <trkpt lat="45.69289" lon="5.88925">
        <ele>233</ele>
        <time>2022-05-01T13:12:10.975Z</time>
      </trkpt>
      <trkpt lat="45.69287" lon="5.88928">
        <ele>233</ele>
        <time>2022-05-01T13:12:11.975Z</time>
      </trkpt>
      <trkpt lat="45.69284" lon="5.8893">
        <ele>233</ele>
        <time>2022-05-01T13:12:12.975Z</time>
      </trkpt>
      <trkpt lat="45.69282" lon="5.88932">
        <ele>233</ele>
        <time>2022-05-01T13:12:13.975Z</time>
      </trkpt>
      <trkpt lat="45.6928" lon="5.88935">
        <ele>233</ele>
        <time>2022-05-01T13:12:14.975Z</time>
      </trkpt>
      <trkpt lat="45.69278" lon="5.88937">
        <ele>233</ele>
        <time>2022-05-01T13:12:15.975Z</time>
      </trkpt>
      <trkpt lat="45.69276" lon="5.88939">
        <ele>233</ele>
        <time>2022-05-01T13:12:16.975Z</time>
      </trkpt>
      <trkpt lat="45.69275" lon="5.88941">
        <ele>234</ele>
        <time>2022-05-01T13:12:17.975Z</time>
      </trkpt>
      <trkpt lat="45.69273" lon="5.88943">
        <ele>234</ele>
        <time>2022-05-01T13:12:18.975Z</time>
      </trkpt>
      <trkpt lat="45.69272" lon="5.88945">
        <ele>235</ele>
        <time>2022-05-01T13:12:19.975Z</time>
      </trkpt>
      <trkpt lat="45.6927" lon="5.88947">
        <ele>235</ele>
        <time>2022-05-01T13:12:20.975Z</time>
      </trkpt>
      <trkpt lat="45.69269" lon="5.8895">
        <ele>236</ele>
        <time>2022-05-01T13:12:21.974Z</time>
      </trkpt>
      <trkpt lat="45.69268" lon="5.88952">
        <ele>236</ele>
        <time>2022-05-01T13:12:22.974Z</time>
      </trkpt>
      <trkpt lat="45.69267" lon="5.88956">
        <ele>236</ele>
        <time>2022-05-01T13:12:23.975Z</time>
      </trkpt>
      <trkpt lat="45.69266" lon="5.88959">
        <ele>237</ele>
        <time>2022-05-01T13:12:24.975Z</time>
      </trkpt>
      <trkpt lat="45.69264" lon="5.88963">
        <ele>237</ele>
        <time>2022-05-01T13:12:25.975Z</time>
      </trkpt>
      <trkpt lat="45.69264" lon="5.88967">
        <ele>237</ele>
        <time>2022-05-01T13:12:26.975Z</time>
      </trkpt>
      <trkpt lat="45.69264" lon="5.8897">
        <ele>237</ele>
        <time>2022-05-01T13:12:27.975Z</time>
      </trkpt>
      <trkpt lat="45.69265" lon="5.88974">
        <ele>237</ele>
        <time>2022-05-01T13:12:28.975Z</time>
      </trkpt>
      <trkpt lat="45.69266" lon="5.88977">
        <ele>237</ele>
        <time>2022-05-01T13:12:29.975Z</time>
      </trkpt>
      <trkpt lat="45.69266" lon="5.88981">
        <ele>238</ele>
        <time>2022-05-01T13:12:30.975Z</time>
      </trkpt>
      <trkpt lat="45.69267" lon="5.88985">
        <ele>238</ele>
        <time>2022-05-01T13:12:31.975Z</time>
      </trkpt>
      <trkpt lat="45.69268" lon="5.88988">
        <ele>239</ele>
        <time>2022-05-01T13:12:32.974Z</time>
      </trkpt>
      <trkpt lat="45.69269" lon="5.88992">
        <ele>239</ele>
        <time>2022-05-01T13:12:33.974Z</time>
      </trkpt>
      <trkpt lat="45.6927" lon="5.88996">
        <ele>240</ele>
        <time>2022-05-01T13:12:34.975Z</time>
      </trkpt>
      <trkpt lat="45.6927" lon="5.89001">
        <ele>241</ele>
        <time>2022-05-01T13:12:35.975Z</time>
      </trkpt>
      <trkpt lat="45.69271" lon="5.89006">
        <ele>241</ele>
        <time>2022-05-01T13:12:36.975Z</time>
      </trkpt>
      <trkpt lat="45.69271" lon="5.89011">
        <ele>241</ele>
        <time>2022-05-01T13:12:37.975Z</time>
      </trkpt>
      <trkpt lat="45.6927" lon="5.89015">
        <ele>241</ele>
        <time>2022-05-01T13:12:38.975Z</time>
      </trkpt>
      <trkpt lat="45.69269" lon="5.89019">
        <ele>240</ele>
        <time>2022-05-01T13:12:39.974Z</time>
      </trkpt>
      <trkpt lat="45.69268" lon="5.89024">
        <ele>240</ele>
        <time>2022-05-01T13:12:40.975Z</time>
      </trkpt>
      <trkpt lat="45.69267" lon="5.89027">
        <ele>240</ele>
        <time>2022-05-01T13:12:41.975Z</time>
      </trkpt>
      <trkpt lat="45.69266" lon="5.8903">
        <ele>239</ele>
        <time>2022-05-01T13:12:42.974Z</time>
      </trkpt>
      <trkpt lat="45.69265" lon="5.89032">
        <ele>239</ele>
        <time>2022-05-01T13:12:43.975Z</time>
      </trkpt>
      <trkpt lat="45.69265" lon="5.89033">
        <ele>239</ele>
        <time>2022-05-01T13:12:44.974Z</time>
      </trkpt>
      <trkpt lat="45.69264" lon="5.89034">
        <ele>239</ele>
        <time>2022-05-01T13:12:45.975Z</time>
      </trkpt>
      <trkpt lat="45.69264" lon="5.89036">
        <ele>238</ele>
        <time>2022-05-01T13:12:46.974Z</time>
      </trkpt>
      <trkpt lat="45.69264" lon="5.89037">
        <ele>237</ele>
        <time>2022-05-01T13:12:47.975Z</time>
      </trkpt>
      <trkpt lat="45.69263" lon="5.89038">
        <ele>236</ele>
        <time>2022-05-01T13:12:48.974Z</time>
      </trkpt>
      <trkpt lat="45.69262" lon="5.89038">
        <ele>236</ele>
        <time>2022-05-01T13:12:49.975Z</time>
      </trkpt>
      <trkpt lat="45.69259" lon="5.89038">
        <ele>236</ele>
        <time>2022-05-01T13:12:50.975Z</time>
      </trkpt>
      <trkpt lat="45.69256" lon="5.89039">
        <ele>236</ele>
        <time>2022-05-01T13:12:51.975Z</time>
      </trkpt>
      <trkpt lat="45.69252" lon="5.89041">
        <ele>236</ele>
        <time>2022-05-01T13:12:52.974Z</time>
      </trkpt>
      <trkpt lat="45.69247" lon="5.89043">
        <ele>236</ele>
        <time>2022-05-01T13:12:53.975Z</time>
      </trkpt>
      <trkpt lat="45.69242" lon="5.89046">
        <ele>236</ele>
        <time>2022-05-01T13:12:54.974Z</time>
      </trkpt>
      <trkpt lat="45.69238" lon="5.89049">
        <ele>237</ele>
        <time>2022-05-01T13:12:55.975Z</time>
      </trkpt>
      <trkpt lat="45.69233" lon="5.89052">
        <ele>237</ele>
        <time>2022-05-01T13:12:56.975Z</time>
      </trkpt>
      <trkpt lat="45.69229" lon="5.89054">
        <ele>238</ele>
        <time>2022-05-01T13:12:57.975Z</time>
      </trkpt>
      <trkpt lat="45.69226" lon="5.89055">
        <ele>238</ele>
        <time>2022-05-01T13:12:58.974Z</time>
      </trkpt>
      <trkpt lat="45.69223" lon="5.89057">
        <ele>238</ele>
        <time>2022-05-01T13:12:59.975Z</time>
      </trkpt>
      <trkpt lat="45.69221" lon="5.89058">
        <ele>238</ele>
        <time>2022-05-01T13:13:00.974Z</time>
      </trkpt>
      <trkpt lat="45.69219" lon="5.89061">
        <ele>238</ele>
        <time>2022-05-01T13:13:01.975Z</time>
      </trkpt>
      <trkpt lat="45.69217" lon="5.89063">
        <ele>238</ele>
        <time>2022-05-01T13:13:02.974Z</time>
      </trkpt>
      <trkpt lat="45.69214" lon="5.89066">
        <ele>237</ele>
        <time>2022-05-01T13:13:03.975Z</time>
      </trkpt>
      <trkpt lat="45.6921" lon="5.89069">
        <ele>237</ele>
        <time>2022-05-01T13:13:04.975Z</time>
      </trkpt>
      <trkpt lat="45.69206" lon="5.89072">
        <ele>236</ele>
        <time>2022-05-01T13:13:05.974Z</time>
      </trkpt>
      <trkpt lat="45.69202" lon="5.89076">
        <ele>236</ele>
        <time>2022-05-01T13:13:06.975Z</time>
      </trkpt>
      <trkpt lat="45.69197" lon="5.8908">
        <ele>236</ele>
        <time>2022-05-01T13:13:07.975Z</time>
      </trkpt>
      <trkpt lat="45.69193" lon="5.89085">
        <ele>235</ele>
        <time>2022-05-01T13:13:08.975Z</time>
      </trkpt>
      <trkpt lat="45.69189" lon="5.8909">
        <ele>234</ele>
        <time>2022-05-01T13:13:09.974Z</time>
      </trkpt>
      <trkpt lat="45.69185" lon="5.89094">
        <ele>234</ele>
        <time>2022-05-01T13:13:10.975Z</time>
      </trkpt>
      <trkpt lat="45.69181" lon="5.89099">
        <ele>233</ele>
        <time>2022-05-01T13:13:11.975Z</time>
      </trkpt>
      <trkpt lat="45.69178" lon="5.89103">
        <ele>233</ele>
        <time>2022-05-01T13:13:12.975Z</time>
      </trkpt>
      <trkpt lat="45.69175" lon="5.89108">
        <ele>232</ele>
        <time>2022-05-01T13:13:13.975Z</time>
      </trkpt>
      <trkpt lat="45.69173" lon="5.89114">
        <ele>233</ele>
        <time>2022-05-01T13:13:14.975Z</time>
      </trkpt>
      <trkpt lat="45.6917" lon="5.89119">
        <ele>233</ele>
        <time>2022-05-01T13:13:15.975Z</time>
      </trkpt>
      <trkpt lat="45.69168" lon="5.89124">
        <ele>233</ele>
        <time>2022-05-01T13:13:16.975Z</time>
      </trkpt>
      <trkpt lat="45.69165" lon="5.89129">
        <ele>233</ele>
        <time>2022-05-01T13:13:17.975Z</time>
      </trkpt>
      <trkpt lat="45.69162" lon="5.89134">
        <ele>233</ele>
        <time>2022-05-01T13:13:18.975Z</time>
      </trkpt>
      <trkpt lat="45.69159" lon="5.89139">
        <ele>233</ele>
        <time>2022-05-01T13:13:19.975Z</time>
      </trkpt>
      <trkpt lat="45.69156" lon="5.89144">
        <ele>232</ele>
        <time>2022-05-01T13:13:20.975Z</time>
      </trkpt>
      <trkpt lat="45.69154" lon="5.89149">
        <ele>232</ele>
        <time>2022-05-01T13:13:21.975Z</time>
      </trkpt>
      <trkpt lat="45.69151" lon="5.89154">
        <ele>232</ele>
        <time>2022-05-01T13:13:22.975Z</time>
      </trkpt>
      <trkpt lat="45.69149" lon="5.89159">
        <ele>232</ele>
        <time>2022-05-01T13:13:23.974Z</time>
      </trkpt>
      <trkpt lat="45.69146" lon="5.89165">
        <ele>233</ele>
        <time>2022-05-01T13:13:24.975Z</time>
      </trkpt>
      <trkpt lat="45.69144" lon="5.89172">
        <ele>233</ele>
        <time>2022-05-01T13:13:25.975Z</time>
      </trkpt>
      <trkpt lat="45.69141" lon="5.89177">
        <ele>233</ele>
        <time>2022-05-01T13:13:26.975Z</time>
      </trkpt>
      <trkpt lat="45.69139" lon="5.89183">
        <ele>233</ele>
        <time>2022-05-01T13:13:27.974Z</time>
      </trkpt>
      <trkpt lat="45.69136" lon="5.89189">
        <ele>233</ele>
        <time>2022-05-01T13:13:28.975Z</time>
      </trkpt>
      <trkpt lat="45.69134" lon="5.89195">
        <ele>234</ele>
        <time>2022-05-01T13:13:29.975Z</time>
      </trkpt>
      <trkpt lat="45.69131" lon="5.89201">
        <ele>234</ele>
        <time>2022-05-01T13:13:30.974Z</time>
      </trkpt>
      <trkpt lat="45.69129" lon="5.89206">
        <ele>234</ele>
        <time>2022-05-01T13:13:31.975Z</time>
      </trkpt>
      <trkpt lat="45.69127" lon="5.8921">
        <ele>234</ele>
        <time>2022-05-01T13:13:32.975Z</time>
      </trkpt>
      <trkpt lat="45.69125" lon="5.89214">
        <ele>233</ele>
        <time>2022-05-01T13:13:33.975Z</time>
      </trkpt>
      <trkpt lat="45.69124" lon="5.89216">
        <ele>233</ele>
        <time>2022-05-01T13:13:34.975Z</time>
      </trkpt>
      <trkpt lat="45.69123" lon="5.89219">
        <ele>233</ele>
        <time>2022-05-01T13:13:35.975Z</time>
      </trkpt>
      <trkpt lat="45.69122" lon="5.89222">
        <ele>233</ele>
        <time>2022-05-01T13:13:36.975Z</time>
      </trkpt>
      <trkpt lat="45.69121" lon="5.89226">
        <ele>233</ele>
        <time>2022-05-01T13:13:37.975Z</time>
      </trkpt>
      <trkpt lat="45.6912" lon="5.89231">
        <ele>234</ele>
        <time>2022-05-01T13:13:38.975Z</time>
      </trkpt>
      <trkpt lat="45.69118" lon="5.89236">
        <ele>234</ele>
        <time>2022-05-01T13:13:39.975Z</time>
      </trkpt>
      <trkpt lat="45.69116" lon="5.89241">
        <ele>234</ele>
        <time>2022-05-01T13:13:40.974Z</time>
      </trkpt>
      <trkpt lat="45.69114" lon="5.89247">
        <ele>235</ele>
        <time>2022-05-01T13:13:41.975Z</time>
      </trkpt>
      <trkpt lat="45.69111" lon="5.89252">
        <ele>235</ele>
        <time>2022-05-01T13:13:42.975Z</time>
      </trkpt>
      <trkpt lat="45.69108" lon="5.89256">
        <ele>234</ele>
        <time>2022-05-01T13:13:43.974Z</time>
      </trkpt>
      <trkpt lat="45.69104" lon="5.89261">
        <ele>234</ele>
        <time>2022-05-01T13:13:44.975Z</time>
      </trkpt>
      <trkpt lat="45.691" lon="5.89266">
        <ele>234</ele>
        <time>2022-05-01T13:13:45.975Z</time>
      </trkpt>
      <trkpt lat="45.69097" lon="5.89272">
        <ele>234</ele>
        <time>2022-05-01T13:13:46.975Z</time>
      </trkpt>
      <trkpt lat="45.69093" lon="5.89278">
        <ele>234</ele>
        <time>2022-05-01T13:13:47.975Z</time>
      </trkpt>
      <trkpt lat="45.6909" lon="5.89284">
        <ele>234</ele>
        <time>2022-05-01T13:13:48.975Z</time>
      </trkpt>
      <trkpt lat="45.69087" lon="5.8929">
        <ele>234</ele>
        <time>2022-05-01T13:13:49.975Z</time>
      </trkpt>
      <trkpt lat="45.69084" lon="5.89297">
        <ele>234</ele>
        <time>2022-05-01T13:13:50.975Z</time>
      </trkpt>
      <trkpt lat="45.69081" lon="5.89303">
        <ele>233</ele>
        <time>2022-05-01T13:13:51.975Z</time>
      </trkpt>
      <trkpt lat="45.69078" lon="5.89309">
        <ele>233</ele>
        <time>2022-05-01T13:13:52.974Z</time>
      </trkpt>
      <trkpt lat="45.69075" lon="5.89314">
        <ele>233</ele>
        <time>2022-05-01T13:13:53.975Z</time>
      </trkpt>
      <trkpt lat="45.69072" lon="5.8932">
        <ele>233</ele>
        <time>2022-05-01T13:13:54.975Z</time>
      </trkpt>
      <trkpt lat="45.69068" lon="5.89325">
        <ele>233</ele>
        <time>2022-05-01T13:13:55.974Z</time>
      </trkpt>
      <trkpt lat="45.69065" lon="5.89329">
        <ele>234</ele>
        <time>2022-05-01T13:13:56.975Z</time>
      </trkpt>
      <trkpt lat="45.69062" lon="5.89333">
        <ele>234</ele>
        <time>2022-05-01T13:13:57.974Z</time>
      </trkpt>
      <trkpt lat="45.69059" lon="5.89337">
        <ele>234</ele>
        <time>2022-05-01T13:13:58.974Z</time>
      </trkpt>
      <trkpt lat="45.69057" lon="5.8934">
        <ele>234</ele>
        <time>2022-05-01T13:13:59.975Z</time>
      </trkpt>
      <trkpt lat="45.69055" lon="5.89344">
        <ele>234</ele>
        <time>2022-05-01T13:14:00.974Z</time>
      </trkpt>
      <trkpt lat="45.69053" lon="5.89347">
        <ele>234</ele>
        <time>2022-05-01T13:14:01.974Z</time>
      </trkpt>
      <trkpt lat="45.6905" lon="5.8935">
        <ele>234</ele>
        <time>2022-05-01T13:14:02.975Z</time>
      </trkpt>
      <trkpt lat="45.69048" lon="5.89352">
        <ele>234</ele>
        <time>2022-05-01T13:14:03.974Z</time>
      </trkpt>
      <trkpt lat="45.69045" lon="5.89354">
        <ele>234</ele>
        <time>2022-05-01T13:14:04.975Z</time>
      </trkpt>
      <trkpt lat="45.69043" lon="5.89356">
        <ele>234</ele>
        <time>2022-05-01T13:14:05.974Z</time>
      </trkpt>
      <trkpt lat="45.69041" lon="5.89359">
        <ele>234</ele>
        <time>2022-05-01T13:14:06.975Z</time>
      </trkpt>
      <trkpt lat="45.69039" lon="5.89361">
        <ele>234</ele>
        <time>2022-05-01T13:14:07.975Z</time>
      </trkpt>
      <trkpt lat="45.69036" lon="5.89364">
        <ele>234</ele>
        <time>2022-05-01T13:14:08.974Z</time>
      </trkpt>
      <trkpt lat="45.69034" lon="5.89366">
        <ele>234</ele>
        <time>2022-05-01T13:14:09.975Z</time>
      </trkpt>
      <trkpt lat="45.69032" lon="5.89369">
        <ele>234</ele>
        <time>2022-05-01T13:14:10.974Z</time>
      </trkpt>
      <trkpt lat="45.6903" lon="5.89373">
        <ele>234</ele>
        <time>2022-05-01T13:14:11.975Z</time>
      </trkpt>
      <trkpt lat="45.69028" lon="5.89376">
        <ele>233</ele>
        <time>2022-05-01T13:14:12.975Z</time>
      </trkpt>
      <trkpt lat="45.69026" lon="5.8938">
        <ele>233</ele>
        <time>2022-05-01T13:14:13.975Z</time>
      </trkpt>
      <trkpt lat="45.69024" lon="5.89384">
        <ele>233</ele>
        <time>2022-05-01T13:14:14.975Z</time>
      </trkpt>
      <trkpt lat="45.69021" lon="5.89389">
        <ele>233</ele>
        <time>2022-05-01T13:14:15.975Z</time>
      </trkpt>
      <trkpt lat="45.69019" lon="5.89394">
        <ele>233</ele>
        <time>2022-05-01T13:14:16.975Z</time>
      </trkpt>
      <trkpt lat="45.69016" lon="5.894">
        <ele>233</ele>
        <time>2022-05-01T13:14:17.974Z</time>
      </trkpt>
      <trkpt lat="45.69014" lon="5.89406">
        <ele>233</ele>
        <time>2022-05-01T13:14:18.975Z</time>
      </trkpt>
      <trkpt lat="45.69013" lon="5.89413">
        <ele>233</ele>
        <time>2022-05-01T13:14:19.975Z</time>
      </trkpt>
      <trkpt lat="45.69013" lon="5.8942">
        <ele>233</ele>
        <time>2022-05-01T13:14:20.974Z</time>
      </trkpt>
      <trkpt lat="45.69014" lon="5.89427">
        <ele>233</ele>
        <time>2022-05-01T13:14:21.975Z</time>
      </trkpt>
      <trkpt lat="45.69015" lon="5.89433">
        <ele>233</ele>
        <time>2022-05-01T13:14:22.975Z</time>
      </trkpt>
      <trkpt lat="45.69016" lon="5.89439">
        <ele>233</ele>
        <time>2022-05-01T13:14:23.974Z</time>
      </trkpt>
      <trkpt lat="45.69016" lon="5.89444">
        <ele>233</ele>
        <time>2022-05-01T13:14:24.975Z</time>
      </trkpt>
      <trkpt lat="45.69014" lon="5.89447">
        <ele>233</ele>
        <time>2022-05-01T13:14:25.974Z</time>
      </trkpt>
      <trkpt lat="45.69012" lon="5.89447">
        <ele>234</ele>
        <time>2022-05-01T13:14:26.975Z</time>
      </trkpt>
      <trkpt lat="45.6901" lon="5.89445">
        <ele>234</ele>
        <time>2022-05-01T13:14:27.975Z</time>
      </trkpt>
      <trkpt lat="45.69007" lon="5.89442">
        <ele>235</ele>
        <time>2022-05-01T13:14:28.975Z</time>
      </trkpt>
      <trkpt lat="45.69004" lon="5.89439">
        <ele>235</ele>
        <time>2022-05-01T13:14:29.975Z</time>
      </trkpt>
      <trkpt lat="45.69001" lon="5.89437">
        <ele>235</ele>
        <time>2022-05-01T13:14:30.975Z</time>
      </trkpt>
      <trkpt lat="45.68997" lon="5.89437">
        <ele>235</ele>
        <time>2022-05-01T13:14:31.975Z</time>
      </trkpt>
      <trkpt lat="45.68994" lon="5.89438">
        <ele>236</ele>
        <time>2022-05-01T13:14:32.975Z</time>
      </trkpt>
      <trkpt lat="45.68991" lon="5.8944">
        <ele>236</ele>
        <time>2022-05-01T13:14:33.974Z</time>
      </trkpt>
      <trkpt lat="45.68988" lon="5.89442">
        <ele>236</ele>
        <time>2022-05-01T13:14:34.974Z</time>
      </trkpt>
      <trkpt lat="45.68985" lon="5.89444">
        <ele>237</ele>
        <time>2022-05-01T13:14:35.974Z</time>
      </trkpt>
      <trkpt lat="45.68983" lon="5.89446">
        <ele>237</ele>
        <time>2022-05-01T13:14:36.975Z</time>
      </trkpt>
      <trkpt lat="45.6898" lon="5.89449">
        <ele>237</ele>
        <time>2022-05-01T13:14:37.974Z</time>
      </trkpt>
      <trkpt lat="45.68976" lon="5.89451">
        <ele>238</ele>
        <time>2022-05-01T13:14:38.974Z</time>
      </trkpt>
      <trkpt lat="45.68973" lon="5.89454">
        <ele>238</ele>
        <time>2022-05-01T13:14:39.975Z</time>
      </trkpt>
      <trkpt lat="45.68969" lon="5.89458">
        <ele>238</ele>
        <time>2022-05-01T13:14:40.974Z</time>
      </trkpt>
      <trkpt lat="45.68966" lon="5.89462">
        <ele>239</ele>
        <time>2022-05-01T13:14:41.975Z</time>
      </trkpt>
      <trkpt lat="45.68963" lon="5.89467">
        <ele>239</ele>
        <time>2022-05-01T13:14:42.975Z</time>
      </trkpt>
      <trkpt lat="45.6896" lon="5.89473">
        <ele>239</ele>
        <time>2022-05-01T13:14:43.974Z</time>
      </trkpt>
      <trkpt lat="45.68958" lon="5.89479">
        <ele>239</ele>
        <time>2022-05-01T13:14:44.975Z</time>
      </trkpt>
      <trkpt lat="45.68955" lon="5.89485">
        <ele>239</ele>
        <time>2022-05-01T13:14:45.975Z</time>
      </trkpt>
      <trkpt lat="45.68953" lon="5.89491">
        <ele>238</ele>
        <time>2022-05-01T13:14:46.975Z</time>
      </trkpt>
      <trkpt lat="45.6895" lon="5.89497">
        <ele>238</ele>
        <time>2022-05-01T13:14:47.975Z</time>
      </trkpt>
      <trkpt lat="45.68947" lon="5.89503">
        <ele>238</ele>
        <time>2022-05-01T13:14:48.974Z</time>
      </trkpt>
      <trkpt lat="45.68944" lon="5.89508">
        <ele>237</ele>
        <time>2022-05-01T13:14:49.974Z</time>
      </trkpt>
      <trkpt lat="45.68941" lon="5.89512">
        <ele>237</ele>
        <time>2022-05-01T13:14:50.974Z</time>
      </trkpt>
      <trkpt lat="45.68938" lon="5.89516">
        <ele>237</ele>
        <time>2022-05-01T13:14:51.975Z</time>
      </trkpt>
      <trkpt lat="45.68935" lon="5.89519">
        <ele>237</ele>
        <time>2022-05-01T13:14:52.975Z</time>
      </trkpt>
      <trkpt lat="45.68932" lon="5.8952">
        <ele>237</ele>
        <time>2022-05-01T13:14:53.975Z</time>
      </trkpt>
      <trkpt lat="45.68929" lon="5.8952">
        <ele>236</ele>
        <time>2022-05-01T13:14:54.975Z</time>
      </trkpt>
      <trkpt lat="45.68926" lon="5.8952">
        <ele>236</ele>
        <time>2022-05-01T13:14:55.975Z</time>
      </trkpt>
      <trkpt lat="45.68922" lon="5.8952">
        <ele>236</ele>
        <time>2022-05-01T13:14:56.974Z</time>
      </trkpt>
      <trkpt lat="45.68919" lon="5.8952">
        <ele>236</ele>
        <time>2022-05-01T13:14:57.974Z</time>
      </trkpt>
      <trkpt lat="45.68917" lon="5.8952">
        <ele>236</ele>
        <time>2022-05-01T13:14:58.974Z</time>
      </trkpt>
      <trkpt lat="45.68914" lon="5.89521">
        <ele>235</ele>
        <time>2022-05-01T13:14:59.974Z</time>
      </trkpt>
      <trkpt lat="45.68911" lon="5.89523">
        <ele>235</ele>
        <time>2022-05-01T13:15:00.975Z</time>
      </trkpt>
      <trkpt lat="45.68909" lon="5.89527">
        <ele>234</ele>
        <time>2022-05-01T13:15:01.975Z</time>
      </trkpt>
      <trkpt lat="45.68907" lon="5.89531">
        <ele>235</ele>
        <time>2022-05-01T13:15:02.975Z</time>
      </trkpt>
      <trkpt lat="45.68905" lon="5.89536">
        <ele>235</ele>
        <time>2022-05-01T13:15:03.975Z</time>
      </trkpt>
      <trkpt lat="45.68904" lon="5.8954">
        <ele>235</ele>
        <time>2022-05-01T13:15:04.974Z</time>
      </trkpt>
      <trkpt lat="45.68902" lon="5.89544">
        <ele>235</ele>
        <time>2022-05-01T13:15:05.974Z</time>
      </trkpt>
      <trkpt lat="45.68901" lon="5.89546">
        <ele>235</ele>
        <time>2022-05-01T13:15:06.974Z</time>
      </trkpt>
      <trkpt lat="45.68899" lon="5.89548">
        <ele>235</ele>
        <time>2022-05-01T13:15:07.974Z</time>
      </trkpt>
      <trkpt lat="45.68898" lon="5.8955">
        <ele>236</ele>
        <time>2022-05-01T13:15:08.974Z</time>
      </trkpt>
      <trkpt lat="45.68898" lon="5.8955">
        <ele>236</ele>
        <time>2022-05-01T13:15:09.975Z</time>
      </trkpt>
      <trkpt lat="45.68897" lon="5.8955">
        <ele>236</ele>
        <time>2022-05-01T13:15:10.975Z</time>
      </trkpt>
      <trkpt lat="45.68897" lon="5.8955">
        <ele>235</ele>
        <time>2022-05-01T13:15:11.975Z</time>
      </trkpt>
      <trkpt lat="45.68899" lon="5.89549">
        <ele>229</ele>
        <time>2022-05-01T13:15:19.966Z</time>
      </trkpt>
      <trkpt lat="45.68899" lon="5.8955">
        <ele>229</ele>
        <time>2022-05-01T13:15:20.965Z</time>
      </trkpt>
      <trkpt lat="45.68899" lon="5.89552">
        <ele>230</ele>
        <time>2022-05-01T13:15:21.965Z</time>
      </trkpt>
      <trkpt lat="45.68899" lon="5.89554">
        <ele>230</ele>
        <time>2022-05-01T13:15:22.965Z</time>
      </trkpt>
      <trkpt lat="45.68899" lon="5.89556">
        <ele>231</ele>
        <time>2022-05-01T13:15:23.966Z</time>
      </trkpt>
      <trkpt lat="45.68899" lon="5.89557">
        <ele>231</ele>
        <time>2022-05-01T13:15:24.966Z</time>
      </trkpt>
      <trkpt lat="45.68898" lon="5.89558">
        <ele>231</ele>
        <time>2022-05-01T13:15:25.966Z</time>
      </trkpt>
      <trkpt lat="45.68898" lon="5.89558">
        <ele>232</ele>
        <time>2022-05-01T13:15:26.965Z</time>
      </trkpt>
      <trkpt lat="45.68897" lon="5.89558">
        <ele>232</ele>
        <time>2022-05-01T13:15:27.965Z</time>
      </trkpt>
      <trkpt lat="45.68895" lon="5.89558">
        <ele>232</ele>
        <time>2022-05-01T13:15:28.965Z</time>
      </trkpt>
      <trkpt lat="45.68894" lon="5.89558">
        <ele>232</ele>
        <time>2022-05-01T13:15:29.966Z</time>
      </trkpt>
      <trkpt lat="45.68893" lon="5.89559">
        <ele>233</ele>
        <time>2022-05-01T13:15:30.966Z</time>
      </trkpt>
      <trkpt lat="45.6889" lon="5.89559">
        <ele>233</ele>
        <time>2022-05-01T13:15:31.965Z</time>
      </trkpt>
      <trkpt lat="45.68886" lon="5.89559">
        <ele>234</ele>
        <time>2022-05-01T13:15:32.965Z</time>
      </trkpt>
      <trkpt lat="45.68882" lon="5.89559">
        <ele>235</ele>
        <time>2022-05-01T13:15:33.966Z</time>
      </trkpt>
      <trkpt lat="45.68877" lon="5.89559">
        <ele>235</ele>
        <time>2022-05-01T13:15:34.966Z</time>
      </trkpt>
      <trkpt lat="45.68873" lon="5.89558">
        <ele>235</ele>
        <time>2022-05-01T13:15:35.966Z</time>
      </trkpt>
      <trkpt lat="45.68867" lon="5.89558">
        <ele>236</ele>
        <time>2022-05-01T13:15:36.966Z</time>
      </trkpt>
      <trkpt lat="45.68862" lon="5.89557">
        <ele>236</ele>
        <time>2022-05-01T13:15:37.966Z</time>
      </trkpt>
      <trkpt lat="45.68856" lon="5.89557">
        <ele>237</ele>
        <time>2022-05-01T13:15:38.966Z</time>
      </trkpt>
      <trkpt lat="45.6885" lon="5.89556">
        <ele>237</ele>
        <time>2022-05-01T13:15:39.966Z</time>
      </trkpt>
      <trkpt lat="45.68844" lon="5.89555">
        <ele>238</ele>
        <time>2022-05-01T13:15:40.966Z</time>
      </trkpt>
      <trkpt lat="45.68839" lon="5.89554">
        <ele>238</ele>
        <time>2022-05-01T13:15:41.965Z</time>
      </trkpt>
      <trkpt lat="45.68834" lon="5.89553">
        <ele>238</ele>
        <time>2022-05-01T13:15:42.966Z</time>
      </trkpt>
      <trkpt lat="45.68828" lon="5.89552">
        <ele>237</ele>
        <time>2022-05-01T13:15:43.965Z</time>
      </trkpt>
      <trkpt lat="45.68824" lon="5.89551">
        <ele>237</ele>
        <time>2022-05-01T13:15:44.966Z</time>
      </trkpt>
      <trkpt lat="45.68819" lon="5.8955">
        <ele>237</ele>
        <time>2022-05-01T13:15:45.966Z</time>
      </trkpt>
      <trkpt lat="45.68813" lon="5.89549">
        <ele>237</ele>
        <time>2022-05-01T13:15:46.966Z</time>
      </trkpt>
      <trkpt lat="45.68808" lon="5.89548">
        <ele>237</ele>
        <time>2022-05-01T13:15:47.965Z</time>
      </trkpt>
      <trkpt lat="45.68802" lon="5.89547">
        <ele>237</ele>
        <time>2022-05-01T13:15:48.966Z</time>
      </trkpt>
      <trkpt lat="45.68797" lon="5.89546">
        <ele>238</ele>
        <time>2022-05-01T13:15:49.966Z</time>
      </trkpt>
      <trkpt lat="45.68791" lon="5.89545">
        <ele>239</ele>
        <time>2022-05-01T13:15:50.966Z</time>
      </trkpt>
      <trkpt lat="45.68785" lon="5.89544">
        <ele>239</ele>
        <time>2022-05-01T13:15:51.965Z</time>
      </trkpt>
      <trkpt lat="45.68778" lon="5.89543">
        <ele>239</ele>
        <time>2022-05-01T13:15:52.966Z</time>
      </trkpt>
      <trkpt lat="45.68772" lon="5.89542">
        <ele>239</ele>
        <time>2022-05-01T13:15:53.966Z</time>
      </trkpt>
      <trkpt lat="45.68767" lon="5.89541">
        <ele>239</ele>
        <time>2022-05-01T13:15:54.966Z</time>
      </trkpt>
      <trkpt lat="45.68761" lon="5.89539">
        <ele>239</ele>
        <time>2022-05-01T13:15:55.966Z</time>
      </trkpt>
      <trkpt lat="45.68755" lon="5.89538">
        <ele>240</ele>
        <time>2022-05-01T13:15:56.966Z</time>
      </trkpt>
      <trkpt lat="45.6875" lon="5.89537">
        <ele>241</ele>
        <time>2022-05-01T13:15:57.966Z</time>
      </trkpt>
      <trkpt lat="45.68744" lon="5.89536">
        <ele>241</ele>
        <time>2022-05-01T13:15:58.966Z</time>
      </trkpt>
      <trkpt lat="45.68739" lon="5.89535">
        <ele>242</ele>
        <time>2022-05-01T13:15:59.966Z</time>
      </trkpt>
      <trkpt lat="45.68734" lon="5.89534">
        <ele>243</ele>
        <time>2022-05-01T13:16:00.965Z</time>
      </trkpt>
      <trkpt lat="45.68728" lon="5.89534">
        <ele>244</ele>
        <time>2022-05-01T13:16:01.966Z</time>
      </trkpt>
      <trkpt lat="45.68723" lon="5.89533">
        <ele>244</ele>
        <time>2022-05-01T13:16:02.966Z</time>
      </trkpt>
      <trkpt lat="45.68717" lon="5.89532">
        <ele>245</ele>
        <time>2022-05-01T13:16:03.966Z</time>
      </trkpt>
      <trkpt lat="45.68711" lon="5.89531">
        <ele>245</ele>
        <time>2022-05-01T13:16:04.965Z</time>
      </trkpt>
      <trkpt lat="45.68705" lon="5.8953">
        <ele>245</ele>
        <time>2022-05-01T13:16:05.966Z</time>
      </trkpt>
      <trkpt lat="45.68699" lon="5.89529">
        <ele>244</ele>
        <time>2022-05-01T13:16:06.966Z</time>
      </trkpt>
      <trkpt lat="45.68694" lon="5.89528">
        <ele>244</ele>
        <time>2022-05-01T13:16:07.966Z</time>
      </trkpt>
      <trkpt lat="45.68688" lon="5.89528">
        <ele>244</ele>
        <time>2022-05-01T13:16:08.966Z</time>
      </trkpt>
      <trkpt lat="45.68682" lon="5.89527">
        <ele>243</ele>
        <time>2022-05-01T13:16:09.966Z</time>
      </trkpt>
      <trkpt lat="45.68676" lon="5.89527">
        <ele>243</ele>
        <time>2022-05-01T13:16:10.965Z</time>
      </trkpt>
      <trkpt lat="45.6867" lon="5.89526">
        <ele>243</ele>
        <time>2022-05-01T13:16:11.966Z</time>
      </trkpt>
      <trkpt lat="45.68664" lon="5.89526">
        <ele>243</ele>
        <time>2022-05-01T13:16:12.965Z</time>
      </trkpt>
      <trkpt lat="45.68658" lon="5.89526">
        <ele>243</ele>
        <time>2022-05-01T13:16:13.966Z</time>
      </trkpt>
      <trkpt lat="45.68652" lon="5.89526">
        <ele>243</ele>
        <time>2022-05-01T13:16:14.965Z</time>
      </trkpt>
      <trkpt lat="45.68647" lon="5.89526">
        <ele>243</ele>
        <time>2022-05-01T13:16:15.965Z</time>
      </trkpt>
      <trkpt lat="45.68641" lon="5.89524">
        <ele>242</ele>
        <time>2022-05-01T13:16:16.966Z</time>
      </trkpt>
      <trkpt lat="45.68635" lon="5.89522">
        <ele>242</ele>
        <time>2022-05-01T13:16:17.966Z</time>
      </trkpt>
      <trkpt lat="45.68629" lon="5.89521">
        <ele>241</ele>
        <time>2022-05-01T13:16:18.966Z</time>
      </trkpt>
      <trkpt lat="45.68623" lon="5.8952">
        <ele>242</ele>
        <time>2022-05-01T13:16:19.965Z</time>
      </trkpt>
      <trkpt lat="45.68616" lon="5.89518">
        <ele>242</ele>
        <time>2022-05-01T13:16:20.966Z</time>
      </trkpt>
      <trkpt lat="45.6861" lon="5.89516">
        <ele>242</ele>
        <time>2022-05-01T13:16:21.966Z</time>
      </trkpt>
      <trkpt lat="45.68604" lon="5.89514">
        <ele>241</ele>
        <time>2022-05-01T13:16:22.965Z</time>
      </trkpt>
      <trkpt lat="45.68597" lon="5.89512">
        <ele>241</ele>
        <time>2022-05-01T13:16:23.965Z</time>
      </trkpt>
      <trkpt lat="45.68591" lon="5.8951">
        <ele>241</ele>
        <time>2022-05-01T13:16:24.965Z</time>
      </trkpt>
      <trkpt lat="45.68585" lon="5.89509">
        <ele>241</ele>
        <time>2022-05-01T13:16:25.966Z</time>
      </trkpt>
      <trkpt lat="45.68579" lon="5.89508">
        <ele>241</ele>
        <time>2022-05-01T13:16:26.965Z</time>
      </trkpt>
      <trkpt lat="45.68573" lon="5.89507">
        <ele>241</ele>
        <time>2022-05-01T13:16:27.965Z</time>
      </trkpt>
      <trkpt lat="45.68568" lon="5.89506">
        <ele>241</ele>
        <time>2022-05-01T13:16:28.966Z</time>
      </trkpt>
      <trkpt lat="45.6856" lon="5.89505">
        <ele>242</ele>
        <time>2022-05-01T13:16:29.965Z</time>
      </trkpt>
      <trkpt lat="45.68554" lon="5.89504">
        <ele>242</ele>
        <time>2022-05-01T13:16:30.966Z</time>
      </trkpt>
      <trkpt lat="45.68547" lon="5.89503">
        <ele>242</ele>
        <time>2022-05-01T13:16:31.965Z</time>
      </trkpt>
      <trkpt lat="45.68541" lon="5.89502">
        <ele>242</ele>
        <time>2022-05-01T13:16:32.966Z</time>
      </trkpt>
      <trkpt lat="45.68534" lon="5.89501">
        <ele>242</ele>
        <time>2022-05-01T13:16:33.965Z</time>
      </trkpt>
      <trkpt lat="45.68528" lon="5.895">
        <ele>241</ele>
        <time>2022-05-01T13:16:34.966Z</time>
      </trkpt>
      <trkpt lat="45.68521" lon="5.89499">
        <ele>241</ele>
        <time>2022-05-01T13:16:35.966Z</time>
      </trkpt>
      <trkpt lat="45.68514" lon="5.89498">
        <ele>240</ele>
        <time>2022-05-01T13:16:36.966Z</time>
      </trkpt>
      <trkpt lat="45.68507" lon="5.89497">
        <ele>240</ele>
        <time>2022-05-01T13:16:37.965Z</time>
      </trkpt>
      <trkpt lat="45.68501" lon="5.89496">
        <ele>240</ele>
        <time>2022-05-01T13:16:38.965Z</time>
      </trkpt>
      <trkpt lat="45.68494" lon="5.89495">
        <ele>241</ele>
        <time>2022-05-01T13:16:39.965Z</time>
      </trkpt>
      <trkpt lat="45.68487" lon="5.89494">
        <ele>242</ele>
        <time>2022-05-01T13:16:40.966Z</time>
      </trkpt>
      <trkpt lat="45.68481" lon="5.89494">
        <ele>242</ele>
        <time>2022-05-01T13:16:41.965Z</time>
      </trkpt>
      <trkpt lat="45.68474" lon="5.89493">
        <ele>243</ele>
        <time>2022-05-01T13:16:42.965Z</time>
      </trkpt>
      <trkpt lat="45.68467" lon="5.89492">
        <ele>244</ele>
        <time>2022-05-01T13:16:43.965Z</time>
      </trkpt>
      <trkpt lat="45.6846" lon="5.89491">
        <ele>245</ele>
        <time>2022-05-01T13:16:44.966Z</time>
      </trkpt>
      <trkpt lat="45.68454" lon="5.8949">
        <ele>245</ele>
        <time>2022-05-01T13:16:45.966Z</time>
      </trkpt>
      <trkpt lat="45.68447" lon="5.89489">
        <ele>245</ele>
        <time>2022-05-01T13:16:46.966Z</time>
      </trkpt>
      <trkpt lat="45.6844" lon="5.89488">
        <ele>246</ele>
        <time>2022-05-01T13:16:47.966Z</time>
      </trkpt>
      <trkpt lat="45.68433" lon="5.89487">
        <ele>246</ele>
        <time>2022-05-01T13:16:48.966Z</time>
      </trkpt>
      <trkpt lat="45.68426" lon="5.89485">
        <ele>246</ele>
        <time>2022-05-01T13:16:49.965Z</time>
      </trkpt>
      <trkpt lat="45.68419" lon="5.89484">
        <ele>245</ele>
        <time>2022-05-01T13:16:50.966Z</time>
      </trkpt>
      <trkpt lat="45.68412" lon="5.89483">
        <ele>245</ele>
        <time>2022-05-01T13:16:51.966Z</time>
      </trkpt>
      <trkpt lat="45.68406" lon="5.89482">
        <ele>244</ele>
        <time>2022-05-01T13:16:52.965Z</time>
      </trkpt>
      <trkpt lat="45.68399" lon="5.89481">
        <ele>244</ele>
        <time>2022-05-01T13:16:53.966Z</time>
      </trkpt>
      <trkpt lat="45.68392" lon="5.8948">
        <ele>244</ele>
        <time>2022-05-01T13:16:54.965Z</time>
      </trkpt>
      <trkpt lat="45.68385" lon="5.89479">
        <ele>243</ele>
        <time>2022-05-01T13:16:55.965Z</time>
      </trkpt>
      <trkpt lat="45.68379" lon="5.89476">
        <ele>243</ele>
        <time>2022-05-01T13:16:56.966Z</time>
      </trkpt>
      <trkpt lat="45.68373" lon="5.89473">
        <ele>242</ele>
        <time>2022-05-01T13:16:57.966Z</time>
      </trkpt>
      <trkpt lat="45.68366" lon="5.89469">
        <ele>241</ele>
        <time>2022-05-01T13:16:58.965Z</time>
      </trkpt>
      <trkpt lat="45.6836" lon="5.89467">
        <ele>241</ele>
        <time>2022-05-01T13:16:59.966Z</time>
      </trkpt>
      <trkpt lat="45.68354" lon="5.89465">
        <ele>240</ele>
        <time>2022-05-01T13:17:00.966Z</time>
      </trkpt>
      <trkpt lat="45.68348" lon="5.89465">
        <ele>240</ele>
        <time>2022-05-01T13:17:01.966Z</time>
      </trkpt>
      <trkpt lat="45.68341" lon="5.89465">
        <ele>241</ele>
        <time>2022-05-01T13:17:02.965Z</time>
      </trkpt>
      <trkpt lat="45.68335" lon="5.89465">
        <ele>241</ele>
        <time>2022-05-01T13:17:03.966Z</time>
      </trkpt>
      <trkpt lat="45.68328" lon="5.89464">
        <ele>242</ele>
        <time>2022-05-01T13:17:04.966Z</time>
      </trkpt>
      <trkpt lat="45.68322" lon="5.89463">
        <ele>242</ele>
        <time>2022-05-01T13:17:05.965Z</time>
      </trkpt>
      <trkpt lat="45.68315" lon="5.89462">
        <ele>242</ele>
        <time>2022-05-01T13:17:06.966Z</time>
      </trkpt>
      <trkpt lat="45.6831" lon="5.89462">
        <ele>242</ele>
        <time>2022-05-01T13:17:07.966Z</time>
      </trkpt>
      <trkpt lat="45.68304" lon="5.89461">
        <ele>241</ele>
        <time>2022-05-01T13:17:08.965Z</time>
      </trkpt>
      <trkpt lat="45.68298" lon="5.8946">
        <ele>241</ele>
        <time>2022-05-01T13:17:09.966Z</time>
      </trkpt>
      <trkpt lat="45.68292" lon="5.89459">
        <ele>241</ele>
        <time>2022-05-01T13:17:10.966Z</time>
      </trkpt>
      <trkpt lat="45.68285" lon="5.89457">
        <ele>240</ele>
        <time>2022-05-01T13:17:11.966Z</time>
      </trkpt>
      <trkpt lat="45.68279" lon="5.89456">
        <ele>240</ele>
        <time>2022-05-01T13:17:12.966Z</time>
      </trkpt>
      <trkpt lat="45.68272" lon="5.89455">
        <ele>240</ele>
        <time>2022-05-01T13:17:13.966Z</time>
      </trkpt>
      <trkpt lat="45.68266" lon="5.89453">
        <ele>239</ele>
        <time>2022-05-01T13:17:14.966Z</time>
      </trkpt>
      <trkpt lat="45.6826" lon="5.89452">
        <ele>239</ele>
        <time>2022-05-01T13:17:15.965Z</time>
      </trkpt>
      <trkpt lat="45.68253" lon="5.89451">
        <ele>239</ele>
        <time>2022-05-01T13:17:16.966Z</time>
      </trkpt>
      <trkpt lat="45.68247" lon="5.89449">
        <ele>239</ele>
        <time>2022-05-01T13:17:17.965Z</time>
      </trkpt>
      <trkpt lat="45.68241" lon="5.89448">
        <ele>239</ele>
        <time>2022-05-01T13:17:18.966Z</time>
      </trkpt>
      <trkpt lat="45.68235" lon="5.89447">
        <ele>238</ele>
        <time>2022-05-01T13:17:19.966Z</time>
      </trkpt>
      <trkpt lat="45.68229" lon="5.89445">
        <ele>238</ele>
        <time>2022-05-01T13:17:20.966Z</time>
      </trkpt>
      <trkpt lat="45.68222" lon="5.89444">
        <ele>238</ele>
        <time>2022-05-01T13:17:21.966Z</time>
      </trkpt>
      <trkpt lat="45.68216" lon="5.89442">
        <ele>237</ele>
        <time>2022-05-01T13:17:22.966Z</time>
      </trkpt>
      <trkpt lat="45.6821" lon="5.89441">
        <ele>237</ele>
        <time>2022-05-01T13:17:23.966Z</time>
      </trkpt>
      <trkpt lat="45.68204" lon="5.8944">
        <ele>237</ele>
        <time>2022-05-01T13:17:24.966Z</time>
      </trkpt>
      <trkpt lat="45.68197" lon="5.89438">
        <ele>237</ele>
        <time>2022-05-01T13:17:25.966Z</time>
      </trkpt>
      <trkpt lat="45.68191" lon="5.89437">
        <ele>237</ele>
        <time>2022-05-01T13:17:26.966Z</time>
      </trkpt>
      <trkpt lat="45.68185" lon="5.89435">
        <ele>238</ele>
        <time>2022-05-01T13:17:27.965Z</time>
      </trkpt>
      <trkpt lat="45.6818" lon="5.89434">
        <ele>238</ele>
        <time>2022-05-01T13:17:28.966Z</time>
      </trkpt>
      <trkpt lat="45.68173" lon="5.89432">
        <ele>238</ele>
        <time>2022-05-01T13:17:29.966Z</time>
      </trkpt>
      <trkpt lat="45.68168" lon="5.89431">
        <ele>239</ele>
        <time>2022-05-01T13:17:30.966Z</time>
      </trkpt>
      <trkpt lat="45.68161" lon="5.89429">
        <ele>239</ele>
        <time>2022-05-01T13:17:31.966Z</time>
      </trkpt>
      <trkpt lat="45.68155" lon="5.89428">
        <ele>239</ele>
        <time>2022-05-01T13:17:32.965Z</time>
      </trkpt>
      <trkpt lat="45.68148" lon="5.89427">
        <ele>239</ele>
        <time>2022-05-01T13:17:33.965Z</time>
      </trkpt>
      <trkpt lat="45.68142" lon="5.89426">
        <ele>238</ele>
        <time>2022-05-01T13:17:34.966Z</time>
      </trkpt>
      <trkpt lat="45.68136" lon="5.89425">
        <ele>238</ele>
        <time>2022-05-01T13:17:35.966Z</time>
      </trkpt>
      <trkpt lat="45.68128" lon="5.89423">
        <ele>238</ele>
        <time>2022-05-01T13:17:36.966Z</time>
      </trkpt>
      <trkpt lat="45.68122" lon="5.89421">
        <ele>238</ele>
        <time>2022-05-01T13:17:37.966Z</time>
      </trkpt>
      <trkpt lat="45.68116" lon="5.8942">
        <ele>238</ele>
        <time>2022-05-01T13:17:38.966Z</time>
      </trkpt>
      <trkpt lat="45.68109" lon="5.89419">
        <ele>238</ele>
        <time>2022-05-01T13:17:39.966Z</time>
      </trkpt>
      <trkpt lat="45.68102" lon="5.89417">
        <ele>238</ele>
        <time>2022-05-01T13:17:40.965Z</time>
      </trkpt>
      <trkpt lat="45.68096" lon="5.89415">
        <ele>238</ele>
        <time>2022-05-01T13:17:41.966Z</time>
      </trkpt>
      <trkpt lat="45.6809" lon="5.89413">
        <ele>238</ele>
        <time>2022-05-01T13:17:42.966Z</time>
      </trkpt>
      <trkpt lat="45.68083" lon="5.89411">
        <ele>238</ele>
        <time>2022-05-01T13:17:43.966Z</time>
      </trkpt>
      <trkpt lat="45.68076" lon="5.8941">
        <ele>237</ele>
        <time>2022-05-01T13:17:44.966Z</time>
      </trkpt>
      <trkpt lat="45.6807" lon="5.89409">
        <ele>237</ele>
        <time>2022-05-01T13:17:45.966Z</time>
      </trkpt>
      <trkpt lat="45.68063" lon="5.89407">
        <ele>236</ele>
        <time>2022-05-01T13:17:46.966Z</time>
      </trkpt>
      <trkpt lat="45.68056" lon="5.89406">
        <ele>236</ele>
        <time>2022-05-01T13:17:47.965Z</time>
      </trkpt>
      <trkpt lat="45.6805" lon="5.89404">
        <ele>236</ele>
        <time>2022-05-01T13:17:48.965Z</time>
      </trkpt>
      <trkpt lat="45.68042" lon="5.89403">
        <ele>236</ele>
        <time>2022-05-01T13:17:49.965Z</time>
      </trkpt>
      <trkpt lat="45.68037" lon="5.89402">
        <ele>236</ele>
        <time>2022-05-01T13:17:50.966Z</time>
      </trkpt>
      <trkpt lat="45.68031" lon="5.89401">
        <ele>237</ele>
        <time>2022-05-01T13:17:51.965Z</time>
      </trkpt>
      <trkpt lat="45.68024" lon="5.894">
        <ele>237</ele>
        <time>2022-05-01T13:17:52.966Z</time>
      </trkpt>
      <trkpt lat="45.68017" lon="5.89399">
        <ele>237</ele>
        <time>2022-05-01T13:17:53.966Z</time>
      </trkpt>
      <trkpt lat="45.68011" lon="5.89398">
        <ele>237</ele>
        <time>2022-05-01T13:17:54.966Z</time>
      </trkpt>
      <trkpt lat="45.68004" lon="5.89397">
        <ele>237</ele>
        <time>2022-05-01T13:17:55.966Z</time>
      </trkpt>
      <trkpt lat="45.67997" lon="5.89397">
        <ele>237</ele>
        <time>2022-05-01T13:17:56.966Z</time>
      </trkpt>
      <trkpt lat="45.6799" lon="5.89397">
        <ele>237</ele>
        <time>2022-05-01T13:17:57.965Z</time>
      </trkpt>
      <trkpt lat="45.67983" lon="5.89397">
        <ele>237</ele>
        <time>2022-05-01T13:17:58.966Z</time>
      </trkpt>
      <trkpt lat="45.67977" lon="5.89398">
        <ele>238</ele>
        <time>2022-05-01T13:17:59.965Z</time>
      </trkpt>
      <trkpt lat="45.6797" lon="5.89398">
        <ele>237</ele>
        <time>2022-05-01T13:18:00.966Z</time>
      </trkpt>
      <trkpt lat="45.67963" lon="5.89398">
        <ele>238</ele>
        <time>2022-05-01T13:18:01.965Z</time>
      </trkpt>
      <trkpt lat="45.67957" lon="5.89398">
        <ele>238</ele>
        <time>2022-05-01T13:18:02.966Z</time>
      </trkpt>
      <trkpt lat="45.67948" lon="5.89399">
        <ele>238</ele>
        <time>2022-05-01T13:18:03.966Z</time>
      </trkpt>
      <trkpt lat="45.67943" lon="5.894">
        <ele>238</ele>
        <time>2022-05-01T13:18:04.966Z</time>
      </trkpt>
      <trkpt lat="45.67936" lon="5.894">
        <ele>239</ele>
        <time>2022-05-01T13:18:05.966Z</time>
      </trkpt>
      <trkpt lat="45.67929" lon="5.89401">
        <ele>239</ele>
        <time>2022-05-01T13:18:06.966Z</time>
      </trkpt>
      <trkpt lat="45.67922" lon="5.89401">
        <ele>239</ele>
        <time>2022-05-01T13:18:07.966Z</time>
      </trkpt>
      <trkpt lat="45.67915" lon="5.89402">
        <ele>240</ele>
        <time>2022-05-01T13:18:08.966Z</time>
      </trkpt>
      <trkpt lat="45.67907" lon="5.89402">
        <ele>240</ele>
        <time>2022-05-01T13:18:09.966Z</time>
      </trkpt>
      <trkpt lat="45.679" lon="5.89403">
        <ele>240</ele>
        <time>2022-05-01T13:18:10.966Z</time>
      </trkpt>
      <trkpt lat="45.67895" lon="5.89403">
        <ele>240</ele>
        <time>2022-05-01T13:18:11.966Z</time>
      </trkpt>
      <trkpt lat="45.67888" lon="5.89404">
        <ele>240</ele>
        <time>2022-05-01T13:18:12.966Z</time>
      </trkpt>
      <trkpt lat="45.67881" lon="5.89404">
        <ele>240</ele>
        <time>2022-05-01T13:18:13.966Z</time>
      </trkpt>
      <trkpt lat="45.67874" lon="5.89405">
        <ele>240</ele>
        <time>2022-05-01T13:18:14.966Z</time>
      </trkpt>
      <trkpt lat="45.67867" lon="5.89405">
        <ele>240</ele>
        <time>2022-05-01T13:18:15.965Z</time>
      </trkpt>
      <trkpt lat="45.6786" lon="5.89405">
        <ele>241</ele>
        <time>2022-05-01T13:18:16.966Z</time>
      </trkpt>
      <trkpt lat="45.67853" lon="5.89405">
        <ele>241</ele>
        <time>2022-05-01T13:18:17.966Z</time>
      </trkpt>
      <trkpt lat="45.67846" lon="5.89405">
        <ele>241</ele>
        <time>2022-05-01T13:18:18.966Z</time>
      </trkpt>
      <trkpt lat="45.67838" lon="5.89405">
        <ele>241</ele>
        <time>2022-05-01T13:18:19.966Z</time>
      </trkpt>
      <trkpt lat="45.67831" lon="5.89405">
        <ele>241</ele>
        <time>2022-05-01T13:18:20.966Z</time>
      </trkpt>
      <trkpt lat="45.67824" lon="5.89404">
        <ele>241</ele>
        <time>2022-05-01T13:18:21.966Z</time>
      </trkpt>
      <trkpt lat="45.67817" lon="5.89404">
        <ele>240</ele>
        <time>2022-05-01T13:18:22.966Z</time>
      </trkpt>
      <trkpt lat="45.6781" lon="5.89403">
        <ele>240</ele>
        <time>2022-05-01T13:18:23.966Z</time>
      </trkpt>
      <trkpt lat="45.67802" lon="5.89403">
        <ele>240</ele>
        <time>2022-05-01T13:18:24.966Z</time>
      </trkpt>
      <trkpt lat="45.67795" lon="5.89403">
        <ele>240</ele>
        <time>2022-05-01T13:18:25.965Z</time>
      </trkpt>
      <trkpt lat="45.67788" lon="5.89403">
        <ele>240</ele>
        <time>2022-05-01T13:18:26.966Z</time>
      </trkpt>
      <trkpt lat="45.6778" lon="5.89403">
        <ele>240</ele>
        <time>2022-05-01T13:18:27.965Z</time>
      </trkpt>
      <trkpt lat="45.67774" lon="5.89402">
        <ele>240</ele>
        <time>2022-05-01T13:18:28.966Z</time>
      </trkpt>
      <trkpt lat="45.67767" lon="5.89402">
        <ele>241</ele>
        <time>2022-05-01T13:18:29.966Z</time>
      </trkpt>
      <trkpt lat="45.6776" lon="5.89401">
        <ele>241</ele>
        <time>2022-05-01T13:18:30.966Z</time>
      </trkpt>
      <trkpt lat="45.67753" lon="5.89401">
        <ele>241</ele>
        <time>2022-05-01T13:18:31.966Z</time>
      </trkpt>
      <trkpt lat="45.67745" lon="5.89401">
        <ele>241</ele>
        <time>2022-05-01T13:18:32.965Z</time>
      </trkpt>
      <trkpt lat="45.67738" lon="5.894">
        <ele>241</ele>
        <time>2022-05-01T13:18:33.966Z</time>
      </trkpt>
      <trkpt lat="45.67731" lon="5.89399">
        <ele>241</ele>
        <time>2022-05-01T13:18:34.966Z</time>
      </trkpt>
      <trkpt lat="45.67724" lon="5.89398">
        <ele>241</ele>
        <time>2022-05-01T13:18:35.966Z</time>
      </trkpt>
      <trkpt lat="45.67717" lon="5.89397">
        <ele>241</ele>
        <time>2022-05-01T13:18:36.966Z</time>
      </trkpt>
      <trkpt lat="45.6771" lon="5.89397">
        <ele>241</ele>
        <time>2022-05-01T13:18:37.965Z</time>
      </trkpt>
      <trkpt lat="45.67703" lon="5.89396">
        <ele>242</ele>
        <time>2022-05-01T13:18:38.966Z</time>
      </trkpt>
      <trkpt lat="45.67696" lon="5.89396">
        <ele>242</ele>
        <time>2022-05-01T13:18:39.966Z</time>
      </trkpt>
      <trkpt lat="45.67689" lon="5.89395">
        <ele>241</ele>
        <time>2022-05-01T13:18:40.965Z</time>
      </trkpt>
      <trkpt lat="45.67682" lon="5.89395">
        <ele>241</ele>
        <time>2022-05-01T13:18:41.966Z</time>
      </trkpt>
      <trkpt lat="45.67675" lon="5.89394">
        <ele>240</ele>
        <time>2022-05-01T13:18:42.966Z</time>
      </trkpt>
      <trkpt lat="45.67668" lon="5.89394">
        <ele>240</ele>
        <time>2022-05-01T13:18:43.966Z</time>
      </trkpt>
      <trkpt lat="45.67661" lon="5.89394">
        <ele>240</ele>
        <time>2022-05-01T13:18:44.966Z</time>
      </trkpt>
      <trkpt lat="45.67654" lon="5.89394">
        <ele>240</ele>
        <time>2022-05-01T13:18:45.966Z</time>
      </trkpt>
      <trkpt lat="45.67647" lon="5.89394">
        <ele>240</ele>
        <time>2022-05-01T13:18:46.966Z</time>
      </trkpt>
      <trkpt lat="45.6764" lon="5.89394">
        <ele>240</ele>
        <time>2022-05-01T13:18:47.966Z</time>
      </trkpt>
      <trkpt lat="45.67634" lon="5.89393">
        <ele>241</ele>
        <time>2022-05-01T13:18:48.965Z</time>
      </trkpt>
      <trkpt lat="45.67627" lon="5.89393">
        <ele>241</ele>
        <time>2022-05-01T13:18:49.966Z</time>
      </trkpt>
      <trkpt lat="45.6762" lon="5.89392">
        <ele>240</ele>
        <time>2022-05-01T13:18:50.966Z</time>
      </trkpt>
      <trkpt lat="45.67613" lon="5.89391">
        <ele>240</ele>
        <time>2022-05-01T13:18:51.966Z</time>
      </trkpt>
      <trkpt lat="45.67606" lon="5.89391">
        <ele>240</ele>
        <time>2022-05-01T13:18:52.966Z</time>
      </trkpt>
      <trkpt lat="45.67598" lon="5.8939">
        <ele>240</ele>
        <time>2022-05-01T13:18:53.966Z</time>
      </trkpt>
      <trkpt lat="45.67593" lon="5.89389">
        <ele>240</ele>
        <time>2022-05-01T13:18:54.966Z</time>
      </trkpt>
      <trkpt lat="45.67586" lon="5.89388">
        <ele>240</ele>
        <time>2022-05-01T13:18:55.966Z</time>
      </trkpt>
      <trkpt lat="45.67579" lon="5.89388">
        <ele>240</ele>
        <time>2022-05-01T13:18:56.966Z</time>
      </trkpt>
      <trkpt lat="45.67571" lon="5.89387">
        <ele>241</ele>
        <time>2022-05-01T13:18:57.966Z</time>
      </trkpt>
      <trkpt lat="45.67564" lon="5.89386">
        <ele>241</ele>
        <time>2022-05-01T13:18:58.965Z</time>
      </trkpt>
      <trkpt lat="45.67558" lon="5.89386">
        <ele>241</ele>
        <time>2022-05-01T13:18:59.966Z</time>
      </trkpt>
      <trkpt lat="45.6755" lon="5.89385">
        <ele>241</ele>
        <time>2022-05-01T13:19:00.965Z</time>
      </trkpt>
      <trkpt lat="45.67543" lon="5.89384">
        <ele>241</ele>
        <time>2022-05-01T13:19:01.966Z</time>
      </trkpt>
      <trkpt lat="45.67535" lon="5.89383">
        <ele>241</ele>
        <time>2022-05-01T13:19:02.965Z</time>
      </trkpt>
      <trkpt lat="45.6753" lon="5.89382">
        <ele>241</ele>
        <time>2022-05-01T13:19:03.966Z</time>
      </trkpt>
      <trkpt lat="45.67522" lon="5.89382">
        <ele>241</ele>
        <time>2022-05-01T13:19:04.966Z</time>
      </trkpt>
      <trkpt lat="45.67515" lon="5.89381">
        <ele>241</ele>
        <time>2022-05-01T13:19:05.966Z</time>
      </trkpt>
      <trkpt lat="45.67508" lon="5.8938">
        <ele>241</ele>
        <time>2022-05-01T13:19:06.966Z</time>
      </trkpt>
      <trkpt lat="45.67501" lon="5.8938">
        <ele>241</ele>
        <time>2022-05-01T13:19:07.966Z</time>
      </trkpt>
      <trkpt lat="45.67493" lon="5.89379">
        <ele>241</ele>
        <time>2022-05-01T13:19:08.965Z</time>
      </trkpt>
      <trkpt lat="45.67486" lon="5.89378">
        <ele>241</ele>
        <time>2022-05-01T13:19:09.966Z</time>
      </trkpt>
      <trkpt lat="45.67479" lon="5.89377">
        <ele>240</ele>
        <time>2022-05-01T13:19:10.966Z</time>
      </trkpt>
      <trkpt lat="45.6747" lon="5.89376">
        <ele>241</ele>
        <time>2022-05-01T13:19:11.965Z</time>
      </trkpt>
      <trkpt lat="45.67464" lon="5.89375">
        <ele>241</ele>
        <time>2022-05-01T13:19:12.966Z</time>
      </trkpt>
      <trkpt lat="45.67457" lon="5.89375">
        <ele>241</ele>
        <time>2022-05-01T13:19:13.966Z</time>
      </trkpt>
      <trkpt lat="45.6745" lon="5.89374">
        <ele>241</ele>
        <time>2022-05-01T13:19:14.966Z</time>
      </trkpt>
      <trkpt lat="45.67441" lon="5.89373">
        <ele>241</ele>
        <time>2022-05-01T13:19:15.965Z</time>
      </trkpt>
      <trkpt lat="45.67435" lon="5.89373">
        <ele>241</ele>
        <time>2022-05-01T13:19:16.966Z</time>
      </trkpt>
      <trkpt lat="45.67428" lon="5.89373">
        <ele>242</ele>
        <time>2022-05-01T13:19:17.965Z</time>
      </trkpt>
      <trkpt lat="45.67421" lon="5.89372">
        <ele>242</ele>
        <time>2022-05-01T13:19:18.965Z</time>
      </trkpt>
      <trkpt lat="45.67412" lon="5.89371">
        <ele>242</ele>
        <time>2022-05-01T13:19:19.966Z</time>
      </trkpt>
      <trkpt lat="45.67405" lon="5.8937">
        <ele>242</ele>
        <time>2022-05-01T13:19:20.966Z</time>
      </trkpt>
      <trkpt lat="45.67398" lon="5.8937">
        <ele>242</ele>
        <time>2022-05-01T13:19:21.966Z</time>
      </trkpt>
      <trkpt lat="45.67393" lon="5.89369">
        <ele>242</ele>
        <time>2022-05-01T13:19:22.965Z</time>
      </trkpt>
      <trkpt lat="45.67385" lon="5.89369">
        <ele>242</ele>
        <time>2022-05-01T13:19:23.966Z</time>
      </trkpt>
      <trkpt lat="45.67377" lon="5.89368">
        <ele>243</ele>
        <time>2022-05-01T13:19:24.966Z</time>
      </trkpt>
      <trkpt lat="45.6737" lon="5.89367">
        <ele>243</ele>
        <time>2022-05-01T13:19:25.966Z</time>
      </trkpt>
      <trkpt lat="45.67363" lon="5.89367">
        <ele>243</ele>
        <time>2022-05-01T13:19:26.966Z</time>
      </trkpt>
      <trkpt lat="45.67356" lon="5.89367">
        <ele>243</ele>
        <time>2022-05-01T13:19:27.966Z</time>
      </trkpt>
      <trkpt lat="45.67349" lon="5.89366">
        <ele>243</ele>
        <time>2022-05-01T13:19:28.965Z</time>
      </trkpt>
      <trkpt lat="45.67342" lon="5.89366">
        <ele>243</ele>
        <time>2022-05-01T13:19:29.966Z</time>
      </trkpt>
      <trkpt lat="45.67335" lon="5.89366">
        <ele>242</ele>
        <time>2022-05-01T13:19:30.965Z</time>
      </trkpt>
      <trkpt lat="45.67328" lon="5.89365">
        <ele>242</ele>
        <time>2022-05-01T13:19:31.966Z</time>
      </trkpt>
      <trkpt lat="45.67323" lon="5.89365">
        <ele>243</ele>
        <time>2022-05-01T13:19:32.965Z</time>
      </trkpt>
      <trkpt lat="45.67314" lon="5.89365">
        <ele>243</ele>
        <time>2022-05-01T13:19:33.966Z</time>
      </trkpt>
      <trkpt lat="45.67307" lon="5.89365">
        <ele>243</ele>
        <time>2022-05-01T13:19:34.965Z</time>
      </trkpt>
      <trkpt lat="45.673" lon="5.89364">
        <ele>244</ele>
        <time>2022-05-01T13:19:35.966Z</time>
      </trkpt>
      <trkpt lat="45.67295" lon="5.89363">
        <ele>244</ele>
        <time>2022-05-01T13:19:36.966Z</time>
      </trkpt>
      <trkpt lat="45.67288" lon="5.89362">
        <ele>244</ele>
        <time>2022-05-01T13:19:37.965Z</time>
      </trkpt>
      <trkpt lat="45.6728" lon="5.89362">
        <ele>243</ele>
        <time>2022-05-01T13:19:38.965Z</time>
      </trkpt>
      <trkpt lat="45.67273" lon="5.89361">
        <ele>243</ele>
        <time>2022-05-01T13:19:39.966Z</time>
      </trkpt>
      <trkpt lat="45.67266" lon="5.8936">
        <ele>243</ele>
        <time>2022-05-01T13:19:40.966Z</time>
      </trkpt>
      <trkpt lat="45.6726" lon="5.8936">
        <ele>243</ele>
        <time>2022-05-01T13:19:41.965Z</time>
      </trkpt>
      <trkpt lat="45.67253" lon="5.89359">
        <ele>242</ele>
        <time>2022-05-01T13:19:42.966Z</time>
      </trkpt>
      <trkpt lat="45.67244" lon="5.89358">
        <ele>242</ele>
        <time>2022-05-01T13:19:43.966Z</time>
      </trkpt>
      <trkpt lat="45.67237" lon="5.89357">
        <ele>241</ele>
        <time>2022-05-01T13:19:44.966Z</time>
      </trkpt>
      <trkpt lat="45.6723" lon="5.89357">
        <ele>241</ele>
        <time>2022-05-01T13:19:45.966Z</time>
      </trkpt>
      <trkpt lat="45.67224" lon="5.89356">
        <ele>241</ele>
        <time>2022-05-01T13:19:46.966Z</time>
      </trkpt>
      <trkpt lat="45.67217" lon="5.89355">
        <ele>241</ele>
        <time>2022-05-01T13:19:47.965Z</time>
      </trkpt>
      <trkpt lat="45.67209" lon="5.89354">
        <ele>241</ele>
        <time>2022-05-01T13:19:48.966Z</time>
      </trkpt>
      <trkpt lat="45.67201" lon="5.89353">
        <ele>240</ele>
        <time>2022-05-01T13:19:49.966Z</time>
      </trkpt>
      <trkpt lat="45.67195" lon="5.89352">
        <ele>240</ele>
        <time>2022-05-01T13:19:50.965Z</time>
      </trkpt>
      <trkpt lat="45.67189" lon="5.89351">
        <ele>240</ele>
        <time>2022-05-01T13:19:51.965Z</time>
      </trkpt>
      <trkpt lat="45.67182" lon="5.89351">
        <ele>239</ele>
        <time>2022-05-01T13:19:52.966Z</time>
      </trkpt>
      <trkpt lat="45.67173" lon="5.89349">
        <ele>239</ele>
        <time>2022-05-01T13:19:53.965Z</time>
      </trkpt>
      <trkpt lat="45.67167" lon="5.89349">
        <ele>239</ele>
        <time>2022-05-01T13:19:54.966Z</time>
      </trkpt>
      <trkpt lat="45.6716" lon="5.89348">
        <ele>239</ele>
        <time>2022-05-01T13:19:55.965Z</time>
      </trkpt>
      <trkpt lat="45.67153" lon="5.89347">
        <ele>239</ele>
        <time>2022-05-01T13:19:56.966Z</time>
      </trkpt>
      <trkpt lat="45.67144" lon="5.89346">
        <ele>239</ele>
        <time>2022-05-01T13:19:57.965Z</time>
      </trkpt>
      <trkpt lat="45.67139" lon="5.89346">
        <ele>239</ele>
        <time>2022-05-01T13:19:58.965Z</time>
      </trkpt>
      <trkpt lat="45.6713" lon="5.89345">
        <ele>239</ele>
        <time>2022-05-01T13:19:59.966Z</time>
      </trkpt>
      <trkpt lat="45.67125" lon="5.89344">
        <ele>239</ele>
        <time>2022-05-01T13:20:00.966Z</time>
      </trkpt>
      <trkpt lat="45.67118" lon="5.89344">
        <ele>239</ele>
        <time>2022-05-01T13:20:01.966Z</time>
      </trkpt>
      <trkpt lat="45.6711" lon="5.89343">
        <ele>238</ele>
        <time>2022-05-01T13:20:02.966Z</time>
      </trkpt>
      <trkpt lat="45.67104" lon="5.89343">
        <ele>238</ele>
        <time>2022-05-01T13:20:03.965Z</time>
      </trkpt>
      <trkpt lat="45.67097" lon="5.89343">
        <ele>238</ele>
        <time>2022-05-01T13:20:04.965Z</time>
      </trkpt>
      <trkpt lat="45.6709" lon="5.89344">
        <ele>238</ele>
        <time>2022-05-01T13:20:05.966Z</time>
      </trkpt>
      <trkpt lat="45.67083" lon="5.89344">
        <ele>238</ele>
        <time>2022-05-01T13:20:06.966Z</time>
      </trkpt>
      <trkpt lat="45.67075" lon="5.89345">
        <ele>238</ele>
        <time>2022-05-01T13:20:07.965Z</time>
      </trkpt>
      <trkpt lat="45.67069" lon="5.89346">
        <ele>237</ele>
        <time>2022-05-01T13:20:08.965Z</time>
      </trkpt>
      <trkpt lat="45.67063" lon="5.89347">
        <ele>237</ele>
        <time>2022-05-01T13:20:09.966Z</time>
      </trkpt>
      <trkpt lat="45.67057" lon="5.89348">
        <ele>237</ele>
        <time>2022-05-01T13:20:10.965Z</time>
      </trkpt>
      <trkpt lat="45.67051" lon="5.89349">
        <ele>237</ele>
        <time>2022-05-01T13:20:11.966Z</time>
      </trkpt>
      <trkpt lat="45.67044" lon="5.8935">
        <ele>237</ele>
        <time>2022-05-01T13:20:12.965Z</time>
      </trkpt>
      <trkpt lat="45.67036" lon="5.89351">
        <ele>237</ele>
        <time>2022-05-01T13:20:13.965Z</time>
      </trkpt>
      <trkpt lat="45.67031" lon="5.89352">
        <ele>236</ele>
        <time>2022-05-01T13:20:14.966Z</time>
      </trkpt>
      <trkpt lat="45.67025" lon="5.89353">
        <ele>236</ele>
        <time>2022-05-01T13:20:15.965Z</time>
      </trkpt>
      <trkpt lat="45.67017" lon="5.89355">
        <ele>236</ele>
        <time>2022-05-01T13:20:16.966Z</time>
      </trkpt>
      <trkpt lat="45.67013" lon="5.89356">
        <ele>237</ele>
        <time>2022-05-01T13:20:17.965Z</time>
      </trkpt>
      <trkpt lat="45.67007" lon="5.89357">
        <ele>237</ele>
        <time>2022-05-01T13:20:18.965Z</time>
      </trkpt>
      <trkpt lat="45.67002" lon="5.89359">
        <ele>237</ele>
        <time>2022-05-01T13:20:19.966Z</time>
      </trkpt>
      <trkpt lat="45.66996" lon="5.89361">
        <ele>237</ele>
        <time>2022-05-01T13:20:20.966Z</time>
      </trkpt>
      <trkpt lat="45.66991" lon="5.89363">
        <ele>237</ele>
        <time>2022-05-01T13:20:21.966Z</time>
      </trkpt>
      <trkpt lat="45.66985" lon="5.89366">
        <ele>237</ele>
        <time>2022-05-01T13:20:22.965Z</time>
      </trkpt>
      <trkpt lat="45.66979" lon="5.8937">
        <ele>237</ele>
        <time>2022-05-01T13:20:23.966Z</time>
      </trkpt>
      <trkpt lat="45.66974" lon="5.89374">
        <ele>237</ele>
        <time>2022-05-01T13:20:24.966Z</time>
      </trkpt>
      <trkpt lat="45.66969" lon="5.89379">
        <ele>237</ele>
        <time>2022-05-01T13:20:25.966Z</time>
      </trkpt>
      <trkpt lat="45.66962" lon="5.89385">
        <ele>237</ele>
        <time>2022-05-01T13:20:26.966Z</time>
      </trkpt>
      <trkpt lat="45.66958" lon="5.89389">
        <ele>237</ele>
        <time>2022-05-01T13:20:27.966Z</time>
      </trkpt>
      <trkpt lat="45.66953" lon="5.89395">
        <ele>238</ele>
        <time>2022-05-01T13:20:28.966Z</time>
      </trkpt>
      <trkpt lat="45.66948" lon="5.89402">
        <ele>238</ele>
        <time>2022-05-01T13:20:29.966Z</time>
      </trkpt>
      <trkpt lat="45.66943" lon="5.89409">
        <ele>238</ele>
        <time>2022-05-01T13:20:30.966Z</time>
      </trkpt>
      <trkpt lat="45.66938" lon="5.89416">
        <ele>238</ele>
        <time>2022-05-01T13:20:31.966Z</time>
      </trkpt>
      <trkpt lat="45.66933" lon="5.89422">
        <ele>238</ele>
        <time>2022-05-01T13:20:32.966Z</time>
      </trkpt>
      <trkpt lat="45.66927" lon="5.89428">
        <ele>238</ele>
        <time>2022-05-01T13:20:33.965Z</time>
      </trkpt>
      <trkpt lat="45.66921" lon="5.89433">
        <ele>238</ele>
        <time>2022-05-01T13:20:34.966Z</time>
      </trkpt>
      <trkpt lat="45.66915" lon="5.89438">
        <ele>238</ele>
        <time>2022-05-01T13:20:35.966Z</time>
      </trkpt>
      <trkpt lat="45.66909" lon="5.89442">
        <ele>238</ele>
        <time>2022-05-01T13:20:36.966Z</time>
      </trkpt>
      <trkpt lat="45.66902" lon="5.89446">
        <ele>238</ele>
        <time>2022-05-01T13:20:37.965Z</time>
      </trkpt>
      <trkpt lat="45.66896" lon="5.8945">
        <ele>238</ele>
        <time>2022-05-01T13:20:38.966Z</time>
      </trkpt>
      <trkpt lat="45.66889" lon="5.89453">
        <ele>237</ele>
        <time>2022-05-01T13:20:39.966Z</time>
      </trkpt>
      <trkpt lat="45.66881" lon="5.89456">
        <ele>237</ele>
        <time>2022-05-01T13:20:40.966Z</time>
      </trkpt>
      <trkpt lat="45.66875" lon="5.89459">
        <ele>237</ele>
        <time>2022-05-01T13:20:41.966Z</time>
      </trkpt>
      <trkpt lat="45.6687" lon="5.89462">
        <ele>237</ele>
        <time>2022-05-01T13:20:42.966Z</time>
      </trkpt>
      <trkpt lat="45.66863" lon="5.89465">
        <ele>236</ele>
        <time>2022-05-01T13:20:43.966Z</time>
      </trkpt>
      <trkpt lat="45.66856" lon="5.89468">
        <ele>236</ele>
        <time>2022-05-01T13:20:44.965Z</time>
      </trkpt>
      <trkpt lat="45.66848" lon="5.89472">
        <ele>236</ele>
        <time>2022-05-01T13:20:45.966Z</time>
      </trkpt>
      <trkpt lat="45.66843" lon="5.89474">
        <ele>236</ele>
        <time>2022-05-01T13:20:46.966Z</time>
      </trkpt>
      <trkpt lat="45.66836" lon="5.89476">
        <ele>236</ele>
        <time>2022-05-01T13:20:47.966Z</time>
      </trkpt>
      <trkpt lat="45.66829" lon="5.89478">
        <ele>236</ele>
        <time>2022-05-01T13:20:48.965Z</time>
      </trkpt>
      <trkpt lat="45.66822" lon="5.8948">
        <ele>236</ele>
        <time>2022-05-01T13:20:49.966Z</time>
      </trkpt>
      <trkpt lat="45.66815" lon="5.89481">
        <ele>237</ele>
        <time>2022-05-01T13:20:50.966Z</time>
      </trkpt>
      <trkpt lat="45.66809" lon="5.89481">
        <ele>237</ele>
        <time>2022-05-01T13:20:51.966Z</time>
      </trkpt>
      <trkpt lat="45.66803" lon="5.89482">
        <ele>237</ele>
        <time>2022-05-01T13:20:52.966Z</time>
      </trkpt>
      <trkpt lat="45.66798" lon="5.89482">
        <ele>237</ele>
        <time>2022-05-01T13:20:53.966Z</time>
      </trkpt>
      <trkpt lat="45.66793" lon="5.89481">
        <ele>237</ele>
        <time>2022-05-01T13:20:54.966Z</time>
      </trkpt>
      <trkpt lat="45.66789" lon="5.89478">
        <ele>237</ele>
        <time>2022-05-01T13:20:55.966Z</time>
      </trkpt>
      <trkpt lat="45.66787" lon="5.89475">
        <ele>237</ele>
        <time>2022-05-01T13:20:56.966Z</time>
      </trkpt>
      <trkpt lat="45.66785" lon="5.89472">
        <ele>237</ele>
        <time>2022-05-01T13:20:57.966Z</time>
      </trkpt>
      <trkpt lat="45.66784" lon="5.89468">
        <ele>237</ele>
        <time>2022-05-01T13:20:58.965Z</time>
      </trkpt>
      <trkpt lat="45.66784" lon="5.89464">
        <ele>237</ele>
        <time>2022-05-01T13:20:59.966Z</time>
      </trkpt>
      <trkpt lat="45.66785" lon="5.8946">
        <ele>237</ele>
        <time>2022-05-01T13:21:00.966Z</time>
      </trkpt>
      <trkpt lat="45.66785" lon="5.89456">
        <ele>237</ele>
        <time>2022-05-01T13:21:01.966Z</time>
      </trkpt>
      <trkpt lat="45.66784" lon="5.89454">
        <ele>237</ele>
        <time>2022-05-01T13:21:02.965Z</time>
      </trkpt>
      <trkpt lat="45.66783" lon="5.89451">
        <ele>237</ele>
        <time>2022-05-01T13:21:03.966Z</time>
      </trkpt>
      <trkpt lat="45.6678" lon="5.89449">
        <ele>237</ele>
        <time>2022-05-01T13:21:04.966Z</time>
      </trkpt>
      <trkpt lat="45.66778" lon="5.89448">
        <ele>237</ele>
        <time>2022-05-01T13:21:05.966Z</time>
      </trkpt>
      <trkpt lat="45.66775" lon="5.89447">
        <ele>237</ele>
        <time>2022-05-01T13:21:06.965Z</time>
      </trkpt>
      <trkpt lat="45.66772" lon="5.89449">
        <ele>238</ele>
        <time>2022-05-01T13:21:07.966Z</time>
      </trkpt>
      <trkpt lat="45.66768" lon="5.89452">
        <ele>238</ele>
        <time>2022-05-01T13:21:08.966Z</time>
      </trkpt>
      <trkpt lat="45.66764" lon="5.89455">
        <ele>238</ele>
        <time>2022-05-01T13:21:09.966Z</time>
      </trkpt>
      <trkpt lat="45.6676" lon="5.89459">
        <ele>238</ele>
        <time>2022-05-01T13:21:10.966Z</time>
      </trkpt>
      <trkpt lat="45.66755" lon="5.89463">
        <ele>238</ele>
        <time>2022-05-01T13:21:11.966Z</time>
      </trkpt>
      <trkpt lat="45.66752" lon="5.89465">
        <ele>238</ele>
        <time>2022-05-01T13:21:12.965Z</time>
      </trkpt>
      <trkpt lat="45.66747" lon="5.89469">
        <ele>238</ele>
        <time>2022-05-01T13:21:13.966Z</time>
      </trkpt>
      <trkpt lat="45.66743" lon="5.89472">
        <ele>239</ele>
        <time>2022-05-01T13:21:14.965Z</time>
      </trkpt>
      <trkpt lat="45.66738" lon="5.89476">
        <ele>239</ele>
        <time>2022-05-01T13:21:15.966Z</time>
      </trkpt>
      <trkpt lat="45.66734" lon="5.89479">
        <ele>239</ele>
        <time>2022-05-01T13:21:16.965Z</time>
      </trkpt>
      <trkpt lat="45.66729" lon="5.89483">
        <ele>239</ele>
        <time>2022-05-01T13:21:17.966Z</time>
      </trkpt>
      <trkpt lat="45.66724" lon="5.89486">
        <ele>239</ele>
        <time>2022-05-01T13:21:18.965Z</time>
      </trkpt>
      <trkpt lat="45.6672" lon="5.8949">
        <ele>239</ele>
        <time>2022-05-01T13:21:19.966Z</time>
      </trkpt>
      <trkpt lat="45.66714" lon="5.89493">
        <ele>239</ele>
        <time>2022-05-01T13:21:20.966Z</time>
      </trkpt>
      <trkpt lat="45.66709" lon="5.89496">
        <ele>239</ele>
        <time>2022-05-01T13:21:21.965Z</time>
      </trkpt>
      <trkpt lat="45.66703" lon="5.89498">
        <ele>239</ele>
        <time>2022-05-01T13:21:22.966Z</time>
      </trkpt>
      <trkpt lat="45.66699" lon="5.89501">
        <ele>239</ele>
        <time>2022-05-01T13:21:23.966Z</time>
      </trkpt>
      <trkpt lat="45.66694" lon="5.89503">
        <ele>238</ele>
        <time>2022-05-01T13:21:24.965Z</time>
      </trkpt>
      <trkpt lat="45.6669" lon="5.89505">
        <ele>239</ele>
        <time>2022-05-01T13:21:25.966Z</time>
      </trkpt>
      <trkpt lat="45.66686" lon="5.89508">
        <ele>239</ele>
        <time>2022-05-01T13:21:26.965Z</time>
      </trkpt>
      <trkpt lat="45.66682" lon="5.89511">
        <ele>239</ele>
        <time>2022-05-01T13:21:27.966Z</time>
      </trkpt>
      <trkpt lat="45.66678" lon="5.89514">
        <ele>239</ele>
        <time>2022-05-01T13:21:28.966Z</time>
      </trkpt>
      <trkpt lat="45.66673" lon="5.89517">
        <ele>239</ele>
        <time>2022-05-01T13:21:29.966Z</time>
      </trkpt>
      <trkpt lat="45.66668" lon="5.8952">
        <ele>240</ele>
        <time>2022-05-01T13:21:30.965Z</time>
      </trkpt>
      <trkpt lat="45.66662" lon="5.89523">
        <ele>240</ele>
        <time>2022-05-01T13:21:31.966Z</time>
      </trkpt>
      <trkpt lat="45.66657" lon="5.89526">
        <ele>240</ele>
        <time>2022-05-01T13:21:32.966Z</time>
      </trkpt>
      <trkpt lat="45.66651" lon="5.8953">
        <ele>240</ele>
        <time>2022-05-01T13:21:33.966Z</time>
      </trkpt>
      <trkpt lat="45.66646" lon="5.89534">
        <ele>240</ele>
        <time>2022-05-01T13:21:34.966Z</time>
      </trkpt>
      <trkpt lat="45.6664" lon="5.89538">
        <ele>240</ele>
        <time>2022-05-01T13:21:35.966Z</time>
      </trkpt>
      <trkpt lat="45.66635" lon="5.89541">
        <ele>240</ele>
        <time>2022-05-01T13:21:36.966Z</time>
      </trkpt>
      <trkpt lat="45.6663" lon="5.89545">
        <ele>239</ele>
        <time>2022-05-01T13:21:37.966Z</time>
      </trkpt>
      <trkpt lat="45.66624" lon="5.89547">
        <ele>239</ele>
        <time>2022-05-01T13:21:38.965Z</time>
      </trkpt>
      <trkpt lat="45.66619" lon="5.8955">
        <ele>239</ele>
        <time>2022-05-01T13:21:39.966Z</time>
      </trkpt>
      <trkpt lat="45.66614" lon="5.89552">
        <ele>238</ele>
        <time>2022-05-01T13:21:40.965Z</time>
      </trkpt>
      <trkpt lat="45.66609" lon="5.89555">
        <ele>238</ele>
        <time>2022-05-01T13:21:41.966Z</time>
      </trkpt>
      <trkpt lat="45.66604" lon="5.89557">
        <ele>238</ele>
        <time>2022-05-01T13:21:42.966Z</time>
      </trkpt>
      <trkpt lat="45.66598" lon="5.89559">
        <ele>238</ele>
        <time>2022-05-01T13:21:43.965Z</time>
      </trkpt>
      <trkpt lat="45.66594" lon="5.89561">
        <ele>238</ele>
        <time>2022-05-01T13:21:44.966Z</time>
      </trkpt>
      <trkpt lat="45.66587" lon="5.89565">
        <ele>239</ele>
        <time>2022-05-01T13:21:45.965Z</time>
      </trkpt>
      <trkpt lat="45.66581" lon="5.89568">
        <ele>239</ele>
        <time>2022-05-01T13:21:46.966Z</time>
      </trkpt>
      <trkpt lat="45.66576" lon="5.8957">
        <ele>238</ele>
        <time>2022-05-01T13:21:47.965Z</time>
      </trkpt>
      <trkpt lat="45.6657" lon="5.89573">
        <ele>238</ele>
        <time>2022-05-01T13:21:48.965Z</time>
      </trkpt>
      <trkpt lat="45.66564" lon="5.89575">
        <ele>238</ele>
        <time>2022-05-01T13:21:49.966Z</time>
      </trkpt>
      <trkpt lat="45.66558" lon="5.89577">
        <ele>238</ele>
        <time>2022-05-01T13:21:50.966Z</time>
      </trkpt>
      <trkpt lat="45.66553" lon="5.89579">
        <ele>237</ele>
        <time>2022-05-01T13:21:51.966Z</time>
      </trkpt>
      <trkpt lat="45.66547" lon="5.89581">
        <ele>237</ele>
        <time>2022-05-01T13:21:52.966Z</time>
      </trkpt>
      <trkpt lat="45.66541" lon="5.89583">
        <ele>237</ele>
        <time>2022-05-01T13:21:53.966Z</time>
      </trkpt>
      <trkpt lat="45.66535" lon="5.89585">
        <ele>238</ele>
        <time>2022-05-01T13:21:54.965Z</time>
      </trkpt>
      <trkpt lat="45.6653" lon="5.89587">
        <ele>238</ele>
        <time>2022-05-01T13:21:55.966Z</time>
      </trkpt>
      <trkpt lat="45.66524" lon="5.8959">
        <ele>238</ele>
        <time>2022-05-01T13:21:56.966Z</time>
      </trkpt>
      <trkpt lat="45.66519" lon="5.89591">
        <ele>238</ele>
        <time>2022-05-01T13:21:57.965Z</time>
      </trkpt>
      <trkpt lat="45.66513" lon="5.89594">
        <ele>238</ele>
        <time>2022-05-01T13:21:58.966Z</time>
      </trkpt>
      <trkpt lat="45.66507" lon="5.89595">
        <ele>237</ele>
        <time>2022-05-01T13:21:59.966Z</time>
      </trkpt>
      <trkpt lat="45.66501" lon="5.89596">
        <ele>237</ele>
        <time>2022-05-01T13:22:00.966Z</time>
      </trkpt>
      <trkpt lat="45.66495" lon="5.89597">
        <ele>236</ele>
        <time>2022-05-01T13:22:01.966Z</time>
      </trkpt>
      <trkpt lat="45.66489" lon="5.89598">
        <ele>236</ele>
        <time>2022-05-01T13:22:02.966Z</time>
      </trkpt>
      <trkpt lat="45.66485" lon="5.89598">
        <ele>236</ele>
        <time>2022-05-01T13:22:03.966Z</time>
      </trkpt>
      <trkpt lat="45.66478" lon="5.89599">
        <ele>236</ele>
        <time>2022-05-01T13:22:04.965Z</time>
      </trkpt>
      <trkpt lat="45.66473" lon="5.89599">
        <ele>237</ele>
        <time>2022-05-01T13:22:05.966Z</time>
      </trkpt>
      <trkpt lat="45.66467" lon="5.896">
        <ele>237</ele>
        <time>2022-05-01T13:22:06.965Z</time>
      </trkpt>
      <trkpt lat="45.66464" lon="5.896">
        <ele>237</ele>
        <time>2022-05-01T13:22:07.966Z</time>
      </trkpt>
      <trkpt lat="45.66458" lon="5.89601">
        <ele>237</ele>
        <time>2022-05-01T13:22:08.965Z</time>
      </trkpt>
      <trkpt lat="45.66453" lon="5.89602">
        <ele>236</ele>
        <time>2022-05-01T13:22:09.965Z</time>
      </trkpt>
      <trkpt lat="45.66449" lon="5.89603">
        <ele>236</ele>
        <time>2022-05-01T13:22:10.966Z</time>
      </trkpt>
      <trkpt lat="45.66446" lon="5.89603">
        <ele>236</ele>
        <time>2022-05-01T13:22:11.966Z</time>
      </trkpt>
      <trkpt lat="45.66444" lon="5.89604">
        <ele>236</ele>
        <time>2022-05-01T13:22:12.965Z</time>
      </trkpt>
      <trkpt lat="45.66441" lon="5.89604">
        <ele>236</ele>
        <time>2022-05-01T13:22:13.966Z</time>
      </trkpt>
      <trkpt lat="45.66438" lon="5.89605">
        <ele>237</ele>
        <time>2022-05-01T13:22:14.965Z</time>
      </trkpt>
      <trkpt lat="45.66434" lon="5.89605">
        <ele>237</ele>
        <time>2022-05-01T13:22:15.965Z</time>
      </trkpt>
      <trkpt lat="45.6643" lon="5.89605">
        <ele>238</ele>
        <time>2022-05-01T13:22:16.965Z</time>
      </trkpt>
      <trkpt lat="45.66425" lon="5.89604">
        <ele>238</ele>
        <time>2022-05-01T13:22:17.966Z</time>
      </trkpt>
      <trkpt lat="45.6642" lon="5.89604">
        <ele>239</ele>
        <time>2022-05-01T13:22:18.965Z</time>
      </trkpt>
      <trkpt lat="45.66415" lon="5.89603">
        <ele>239</ele>
        <time>2022-05-01T13:22:19.965Z</time>
      </trkpt>
      <trkpt lat="45.66409" lon="5.89602">
        <ele>239</ele>
        <time>2022-05-01T13:22:20.966Z</time>
      </trkpt>
      <trkpt lat="45.66402" lon="5.89601">
        <ele>239</ele>
        <time>2022-05-01T13:22:21.966Z</time>
      </trkpt>
      <trkpt lat="45.66396" lon="5.896">
        <ele>239</ele>
        <time>2022-05-01T13:22:22.966Z</time>
      </trkpt>
      <trkpt lat="45.66391" lon="5.89599">
        <ele>239</ele>
        <time>2022-05-01T13:22:23.965Z</time>
      </trkpt>
      <trkpt lat="45.66384" lon="5.89599">
        <ele>239</ele>
        <time>2022-05-01T13:22:24.966Z</time>
      </trkpt>
      <trkpt lat="45.66378" lon="5.89598">
        <ele>239</ele>
        <time>2022-05-01T13:22:25.965Z</time>
      </trkpt>
      <trkpt lat="45.6637" lon="5.89597">
        <ele>239</ele>
        <time>2022-05-01T13:22:26.966Z</time>
      </trkpt>
      <trkpt lat="45.66365" lon="5.89597">
        <ele>239</ele>
        <time>2022-05-01T13:22:27.966Z</time>
      </trkpt>
      <trkpt lat="45.66359" lon="5.89596">
        <ele>239</ele>
        <time>2022-05-01T13:22:28.966Z</time>
      </trkpt>
      <trkpt lat="45.66352" lon="5.89595">
        <ele>239</ele>
        <time>2022-05-01T13:22:29.965Z</time>
      </trkpt>
      <trkpt lat="45.66345" lon="5.89594">
        <ele>239</ele>
        <time>2022-05-01T13:22:30.965Z</time>
      </trkpt>
      <trkpt lat="45.66339" lon="5.89593">
        <ele>239</ele>
        <time>2022-05-01T13:22:31.966Z</time>
      </trkpt>
      <trkpt lat="45.66332" lon="5.89592">
        <ele>239</ele>
        <time>2022-05-01T13:22:32.966Z</time>
      </trkpt>
      <trkpt lat="45.66325" lon="5.8959">
        <ele>239</ele>
        <time>2022-05-01T13:22:33.966Z</time>
      </trkpt>
      <trkpt lat="45.66319" lon="5.89589">
        <ele>239</ele>
        <time>2022-05-01T13:22:34.966Z</time>
      </trkpt>
      <trkpt lat="45.66312" lon="5.89588">
        <ele>239</ele>
        <time>2022-05-01T13:22:35.966Z</time>
      </trkpt>
      <trkpt lat="45.66305" lon="5.89586">
        <ele>239</ele>
        <time>2022-05-01T13:22:36.966Z</time>
      </trkpt>
      <trkpt lat="45.66299" lon="5.89584">
        <ele>239</ele>
        <time>2022-05-01T13:22:37.966Z</time>
      </trkpt>
      <trkpt lat="45.66292" lon="5.89581">
        <ele>238</ele>
        <time>2022-05-01T13:22:38.966Z</time>
      </trkpt>
      <trkpt lat="45.66286" lon="5.89578">
        <ele>238</ele>
        <time>2022-05-01T13:22:39.966Z</time>
      </trkpt>
      <trkpt lat="45.66281" lon="5.89576">
        <ele>237</ele>
        <time>2022-05-01T13:22:40.966Z</time>
      </trkpt>
      <trkpt lat="45.66276" lon="5.89573">
        <ele>237</ele>
        <time>2022-05-01T13:22:41.966Z</time>
      </trkpt>
      <trkpt lat="45.66271" lon="5.89572">
        <ele>237</ele>
        <time>2022-05-01T13:22:42.965Z</time>
      </trkpt>
      <trkpt lat="45.66267" lon="5.89572">
        <ele>236</ele>
        <time>2022-05-01T13:22:43.966Z</time>
      </trkpt>
      <trkpt lat="45.66262" lon="5.89571">
        <ele>236</ele>
        <time>2022-05-01T13:22:44.966Z</time>
      </trkpt>
      <trkpt lat="45.66256" lon="5.8957">
        <ele>236</ele>
        <time>2022-05-01T13:22:45.966Z</time>
      </trkpt>
      <trkpt lat="45.66251" lon="5.89569">
        <ele>237</ele>
        <time>2022-05-01T13:22:46.966Z</time>
      </trkpt>
      <trkpt lat="45.66246" lon="5.89568">
        <ele>237</ele>
        <time>2022-05-01T13:22:47.966Z</time>
      </trkpt>
      <trkpt lat="45.6624" lon="5.89567">
        <ele>237</ele>
        <time>2022-05-01T13:22:48.966Z</time>
      </trkpt>
      <trkpt lat="45.66236" lon="5.89566">
        <ele>237</ele>
        <time>2022-05-01T13:22:49.965Z</time>
      </trkpt>
      <trkpt lat="45.6623" lon="5.89564">
        <ele>236</ele>
        <time>2022-05-01T13:22:50.966Z</time>
      </trkpt>
      <trkpt lat="45.66225" lon="5.89562">
        <ele>236</ele>
        <time>2022-05-01T13:22:51.966Z</time>
      </trkpt>
      <trkpt lat="45.6622" lon="5.89559">
        <ele>236</ele>
        <time>2022-05-01T13:22:52.966Z</time>
      </trkpt>
      <trkpt lat="45.66215" lon="5.89557">
        <ele>236</ele>
        <time>2022-05-01T13:22:53.965Z</time>
      </trkpt>
      <trkpt lat="45.66211" lon="5.89554">
        <ele>235</ele>
        <time>2022-05-01T13:22:54.966Z</time>
      </trkpt>
      <trkpt lat="45.66206" lon="5.89552">
        <ele>235</ele>
        <time>2022-05-01T13:22:55.965Z</time>
      </trkpt>
      <trkpt lat="45.66201" lon="5.89549">
        <ele>235</ele>
        <time>2022-05-01T13:22:56.966Z</time>
      </trkpt>
      <trkpt lat="45.66195" lon="5.89547">
        <ele>235</ele>
        <time>2022-05-01T13:22:57.965Z</time>
      </trkpt>
      <trkpt lat="45.66191" lon="5.89545">
        <ele>235</ele>
        <time>2022-05-01T13:22:58.966Z</time>
      </trkpt>
      <trkpt lat="45.66185" lon="5.89542">
        <ele>235</ele>
        <time>2022-05-01T13:22:59.965Z</time>
      </trkpt>
      <trkpt lat="45.66181" lon="5.8954">
        <ele>235</ele>
        <time>2022-05-01T13:23:00.965Z</time>
      </trkpt>
      <trkpt lat="45.66174" lon="5.89536">
        <ele>235</ele>
        <time>2022-05-01T13:23:01.966Z</time>
      </trkpt>
      <trkpt lat="45.66169" lon="5.89534">
        <ele>235</ele>
        <time>2022-05-01T13:23:02.965Z</time>
      </trkpt>
      <trkpt lat="45.66165" lon="5.89532">
        <ele>235</ele>
        <time>2022-05-01T13:23:03.966Z</time>
      </trkpt>
      <trkpt lat="45.6616" lon="5.89529">
        <ele>234</ele>
        <time>2022-05-01T13:23:04.965Z</time>
      </trkpt>
      <trkpt lat="45.66154" lon="5.89526">
        <ele>234</ele>
        <time>2022-05-01T13:23:05.965Z</time>
      </trkpt>
      <trkpt lat="45.6615" lon="5.89524">
        <ele>235</ele>
        <time>2022-05-01T13:23:06.966Z</time>
      </trkpt>
      <trkpt lat="45.66145" lon="5.89522">
        <ele>236</ele>
        <time>2022-05-01T13:23:07.966Z</time>
      </trkpt>
      <trkpt lat="45.66139" lon="5.8952">
        <ele>236</ele>
        <time>2022-05-01T13:23:08.966Z</time>
      </trkpt>
      <trkpt lat="45.66134" lon="5.89518">
        <ele>237</ele>
        <time>2022-05-01T13:23:09.966Z</time>
      </trkpt>
      <trkpt lat="45.66128" lon="5.89517">
        <ele>237</ele>
        <time>2022-05-01T13:23:10.965Z</time>
      </trkpt>
      <trkpt lat="45.66122" lon="5.89516">
        <ele>237</ele>
        <time>2022-05-01T13:23:11.966Z</time>
      </trkpt>
      <trkpt lat="45.66118" lon="5.89515">
        <ele>237</ele>
        <time>2022-05-01T13:23:12.965Z</time>
      </trkpt>
      <trkpt lat="45.66113" lon="5.89514">
        <ele>237</ele>
        <time>2022-05-01T13:23:13.966Z</time>
      </trkpt>
      <trkpt lat="45.66107" lon="5.89512">
        <ele>237</ele>
        <time>2022-05-01T13:23:14.965Z</time>
      </trkpt>
      <trkpt lat="45.66101" lon="5.89509">
        <ele>237</ele>
        <time>2022-05-01T13:23:15.965Z</time>
      </trkpt>
      <trkpt lat="45.66097" lon="5.89507">
        <ele>237</ele>
        <time>2022-05-01T13:23:16.966Z</time>
      </trkpt>
      <trkpt lat="45.66092" lon="5.89504">
        <ele>236</ele>
        <time>2022-05-01T13:23:17.965Z</time>
      </trkpt>
      <trkpt lat="45.66086" lon="5.89501">
        <ele>236</ele>
        <time>2022-05-01T13:23:18.965Z</time>
      </trkpt>
      <trkpt lat="45.66081" lon="5.89499">
        <ele>236</ele>
        <time>2022-05-01T13:23:19.966Z</time>
      </trkpt>
      <trkpt lat="45.66075" lon="5.89496">
        <ele>237</ele>
        <time>2022-05-01T13:23:20.966Z</time>
      </trkpt>
      <trkpt lat="45.6607" lon="5.89494">
        <ele>237</ele>
        <time>2022-05-01T13:23:21.966Z</time>
      </trkpt>
      <trkpt lat="45.66065" lon="5.89492">
        <ele>237</ele>
        <time>2022-05-01T13:23:22.965Z</time>
      </trkpt>
      <trkpt lat="45.6606" lon="5.89491">
        <ele>237</ele>
        <time>2022-05-01T13:23:23.965Z</time>
      </trkpt>
      <trkpt lat="45.66056" lon="5.89489">
        <ele>237</ele>
        <time>2022-05-01T13:23:24.966Z</time>
      </trkpt>
      <trkpt lat="45.66051" lon="5.89486">
        <ele>237</ele>
        <time>2022-05-01T13:23:25.966Z</time>
      </trkpt>
      <trkpt lat="45.66046" lon="5.89484">
        <ele>237</ele>
        <time>2022-05-01T13:23:26.965Z</time>
      </trkpt>
      <trkpt lat="45.66041" lon="5.89482">
        <ele>238</ele>
        <time>2022-05-01T13:23:27.965Z</time>
      </trkpt>
      <trkpt lat="45.66036" lon="5.8948">
        <ele>238</ele>
        <time>2022-05-01T13:23:28.966Z</time>
      </trkpt>
      <trkpt lat="45.66031" lon="5.89478">
        <ele>238</ele>
        <time>2022-05-01T13:23:29.965Z</time>
      </trkpt>
      <trkpt lat="45.66026" lon="5.89477">
        <ele>237</ele>
        <time>2022-05-01T13:23:30.966Z</time>
      </trkpt>
      <trkpt lat="45.66022" lon="5.89475">
        <ele>236</ele>
        <time>2022-05-01T13:23:31.966Z</time>
      </trkpt>
      <trkpt lat="45.66017" lon="5.89472">
        <ele>236</ele>
        <time>2022-05-01T13:23:32.965Z</time>
      </trkpt>
      <trkpt lat="45.6601" lon="5.89468">
        <ele>236</ele>
        <time>2022-05-01T13:23:33.966Z</time>
      </trkpt>
      <trkpt lat="45.66005" lon="5.89465">
        <ele>235</ele>
        <time>2022-05-01T13:23:34.966Z</time>
      </trkpt>
      <trkpt lat="45.66001" lon="5.89463">
        <ele>235</ele>
        <time>2022-05-01T13:23:35.965Z</time>
      </trkpt>
      <trkpt lat="45.65996" lon="5.8946">
        <ele>235</ele>
        <time>2022-05-01T13:23:36.965Z</time>
      </trkpt>
      <trkpt lat="45.6599" lon="5.89457">
        <ele>234</ele>
        <time>2022-05-01T13:23:37.966Z</time>
      </trkpt>
      <trkpt lat="45.65985" lon="5.89455">
        <ele>235</ele>
        <time>2022-05-01T13:23:38.966Z</time>
      </trkpt>
      <trkpt lat="45.6598" lon="5.89454">
        <ele>235</ele>
        <time>2022-05-01T13:23:39.965Z</time>
      </trkpt>
      <trkpt lat="45.65976" lon="5.89454">
        <ele>235</ele>
        <time>2022-05-01T13:23:40.966Z</time>
      </trkpt>
      <trkpt lat="45.6597" lon="5.89454">
        <ele>235</ele>
        <time>2022-05-01T13:23:41.966Z</time>
      </trkpt>
      <trkpt lat="45.65963" lon="5.89455">
        <ele>236</ele>
        <time>2022-05-01T13:23:42.966Z</time>
      </trkpt>
      <trkpt lat="45.65958" lon="5.89455">
        <ele>236</ele>
        <time>2022-05-01T13:23:43.966Z</time>
      </trkpt>
      <trkpt lat="45.65952" lon="5.89455">
        <ele>236</ele>
        <time>2022-05-01T13:23:44.965Z</time>
      </trkpt>
      <trkpt lat="45.65947" lon="5.89454">
        <ele>236</ele>
        <time>2022-05-01T13:23:45.966Z</time>
      </trkpt>
      <trkpt lat="45.65942" lon="5.89453">
        <ele>235</ele>
        <time>2022-05-01T13:23:46.966Z</time>
      </trkpt>
      <trkpt lat="45.65936" lon="5.89452">
        <ele>235</ele>
        <time>2022-05-01T13:23:47.965Z</time>
      </trkpt>
      <trkpt lat="45.65931" lon="5.89451">
        <ele>235</ele>
        <time>2022-05-01T13:23:48.965Z</time>
      </trkpt>
      <trkpt lat="45.65926" lon="5.8945">
        <ele>235</ele>
        <time>2022-05-01T13:23:49.966Z</time>
      </trkpt>
      <trkpt lat="45.65921" lon="5.89449">
        <ele>235</ele>
        <time>2022-05-01T13:23:50.966Z</time>
      </trkpt>
      <trkpt lat="45.65916" lon="5.89448">
        <ele>235</ele>
        <time>2022-05-01T13:23:51.966Z</time>
      </trkpt>
      <trkpt lat="45.65912" lon="5.89447">
        <ele>234</ele>
        <time>2022-05-01T13:23:52.966Z</time>
      </trkpt>
      <trkpt lat="45.65907" lon="5.89447">
        <ele>235</ele>
        <time>2022-05-01T13:23:53.965Z</time>
      </trkpt>
      <trkpt lat="45.65903" lon="5.89446">
        <ele>235</ele>
        <time>2022-05-01T13:23:54.966Z</time>
      </trkpt>
      <trkpt lat="45.65898" lon="5.89445">
        <ele>235</ele>
        <time>2022-05-01T13:23:55.965Z</time>
      </trkpt>
      <trkpt lat="45.65893" lon="5.89445">
        <ele>235</ele>
        <time>2022-05-01T13:23:56.966Z</time>
      </trkpt>
      <trkpt lat="45.65889" lon="5.89445">
        <ele>235</ele>
        <time>2022-05-01T13:23:57.965Z</time>
      </trkpt>
      <trkpt lat="45.65884" lon="5.89445">
        <ele>235</ele>
        <time>2022-05-01T13:23:58.966Z</time>
      </trkpt>
      <trkpt lat="45.6588" lon="5.89444">
        <ele>235</ele>
        <time>2022-05-01T13:23:59.966Z</time>
      </trkpt>
      <trkpt lat="45.65875" lon="5.89444">
        <ele>235</ele>
        <time>2022-05-01T13:24:00.965Z</time>
      </trkpt>
      <trkpt lat="45.65871" lon="5.89444">
        <ele>236</ele>
        <time>2022-05-01T13:24:01.966Z</time>
      </trkpt>
      <trkpt lat="45.65867" lon="5.89443">
        <ele>236</ele>
        <time>2022-05-01T13:24:02.966Z</time>
      </trkpt>
      <trkpt lat="45.65863" lon="5.89443">
        <ele>236</ele>
        <time>2022-05-01T13:24:03.966Z</time>
      </trkpt>
      <trkpt lat="45.65859" lon="5.89442">
        <ele>236</ele>
        <time>2022-05-01T13:24:04.965Z</time>
      </trkpt>
      <trkpt lat="45.65855" lon="5.89441">
        <ele>236</ele>
        <time>2022-05-01T13:24:05.966Z</time>
      </trkpt>
      <trkpt lat="45.6585" lon="5.8944">
        <ele>236</ele>
        <time>2022-05-01T13:24:06.965Z</time>
      </trkpt>
      <trkpt lat="45.65845" lon="5.89439">
        <ele>236</ele>
        <time>2022-05-01T13:24:07.966Z</time>
      </trkpt>
      <trkpt lat="45.6584" lon="5.89438">
        <ele>236</ele>
        <time>2022-05-01T13:24:08.966Z</time>
      </trkpt>
      <trkpt lat="45.65835" lon="5.89438">
        <ele>237</ele>
        <time>2022-05-01T13:24:09.966Z</time>
      </trkpt>
      <trkpt lat="45.65831" lon="5.89437">
        <ele>237</ele>
        <time>2022-05-01T13:24:10.965Z</time>
      </trkpt>
      <trkpt lat="45.65826" lon="5.89435">
        <ele>237</ele>
        <time>2022-05-01T13:24:11.966Z</time>
      </trkpt>
      <trkpt lat="45.65822" lon="5.89433">
        <ele>237</ele>
        <time>2022-05-01T13:24:12.965Z</time>
      </trkpt>
      <trkpt lat="45.65817" lon="5.89431">
        <ele>238</ele>
        <time>2022-05-01T13:24:13.966Z</time>
      </trkpt>
      <trkpt lat="45.65813" lon="5.8943">
        <ele>238</ele>
        <time>2022-05-01T13:24:14.966Z</time>
      </trkpt>
      <trkpt lat="45.65809" lon="5.89428">
        <ele>238</ele>
        <time>2022-05-01T13:24:15.965Z</time>
      </trkpt>
      <trkpt lat="45.65806" lon="5.89426">
        <ele>238</ele>
        <time>2022-05-01T13:24:16.966Z</time>
      </trkpt>
      <trkpt lat="45.65803" lon="5.89424">
        <ele>238</ele>
        <time>2022-05-01T13:24:17.966Z</time>
      </trkpt>
      <trkpt lat="45.65801" lon="5.89422">
        <ele>237</ele>
        <time>2022-05-01T13:24:18.965Z</time>
      </trkpt>
      <trkpt lat="45.658" lon="5.8942">
        <ele>237</ele>
        <time>2022-05-01T13:24:19.966Z</time>
      </trkpt>
      <trkpt lat="45.658" lon="5.89418">
        <ele>237</ele>
        <time>2022-05-01T13:24:20.966Z</time>
      </trkpt>
      <trkpt lat="45.65801" lon="5.89417">
        <ele>237</ele>
        <time>2022-05-01T13:24:21.966Z</time>
      </trkpt>
      <trkpt lat="45.65802" lon="5.89417">
        <ele>237</ele>
        <time>2022-05-01T13:24:22.965Z</time>
      </trkpt>
      <trkpt lat="45.65803" lon="5.89416">
        <ele>237</ele>
        <time>2022-05-01T13:24:23.966Z</time>
      </trkpt>
      <trkpt lat="45.65804" lon="5.89416">
        <ele>236</ele>
        <time>2022-05-01T13:24:24.965Z</time>
      </trkpt>
      <trkpt lat="45.65805" lon="5.89417">
        <ele>236</ele>
        <time>2022-05-01T13:24:25.966Z</time>
      </trkpt>
      <trkpt lat="45.65805" lon="5.89417">
        <ele>236</ele>
        <time>2022-05-01T13:24:26.965Z</time>
      </trkpt>
      <trkpt lat="45.65809" lon="5.89416">
        <ele>234</ele>
        <time>2022-05-01T13:46:22.558Z</time>
      </trkpt>
      <trkpt lat="45.65809" lon="5.89416">
        <ele>234</ele>
        <time>2022-05-01T13:46:23.559Z</time>
      </trkpt>
      <trkpt lat="45.65809" lon="5.89416">
        <ele>234</ele>
        <time>2022-05-01T13:46:24.559Z</time>
      </trkpt>
      <trkpt lat="45.65809" lon="5.89417">
        <ele>234</ele>
        <time>2022-05-01T13:46:25.559Z</time>
      </trkpt>
      <trkpt lat="45.65808" lon="5.89418">
        <ele>234</ele>
        <time>2022-05-01T13:46:26.559Z</time>
      </trkpt>
      <trkpt lat="45.65808" lon="5.89418">
        <ele>233</ele>
        <time>2022-05-01T13:46:27.558Z</time>
      </trkpt>
      <trkpt lat="45.65808" lon="5.89418">
        <ele>233</ele>
        <time>2022-05-01T13:46:28.558Z</time>
      </trkpt>
      <trkpt lat="45.65808" lon="5.89418">
        <ele>232</ele>
        <time>2022-05-01T13:46:29.558Z</time>
      </trkpt>
      <trkpt lat="45.65808" lon="5.89418">
        <ele>232</ele>
        <time>2022-05-01T13:46:30.559Z</time>
      </trkpt>
      <trkpt lat="45.65808" lon="5.89418">
        <ele>232</ele>
        <time>2022-05-01T13:46:31.559Z</time>
      </trkpt>
      <trkpt lat="45.65808" lon="5.89418">
        <ele>232</ele>
        <time>2022-05-01T13:46:32.558Z</time>
      </trkpt>
      <trkpt lat="45.65808" lon="5.89418">
        <ele>232</ele>
        <time>2022-05-01T13:46:33.559Z</time>
      </trkpt>
      <trkpt lat="45.65806" lon="5.89418">
        <ele>232</ele>
        <time>2022-05-01T13:46:34.558Z</time>
      </trkpt>
      <trkpt lat="45.65804" lon="5.89419">
        <ele>232</ele>
        <time>2022-05-01T13:46:35.559Z</time>
      </trkpt>
      <trkpt lat="45.65802" lon="5.8942">
        <ele>231</ele>
        <time>2022-05-01T13:46:36.559Z</time>
      </trkpt>
      <trkpt lat="45.65799" lon="5.8942">
        <ele>231</ele>
        <time>2022-05-01T13:46:37.558Z</time>
      </trkpt>
      <trkpt lat="45.65797" lon="5.8942">
        <ele>231</ele>
        <time>2022-05-01T13:46:38.559Z</time>
      </trkpt>
      <trkpt lat="45.65794" lon="5.8942">
        <ele>231</ele>
        <time>2022-05-01T13:46:39.559Z</time>
      </trkpt>
      <trkpt lat="45.65791" lon="5.8942">
        <ele>231</ele>
        <time>2022-05-01T13:46:40.559Z</time>
      </trkpt>
      <trkpt lat="45.65788" lon="5.8942">
        <ele>232</ele>
        <time>2022-05-01T13:46:41.559Z</time>
      </trkpt>
      <trkpt lat="45.65785" lon="5.8942">
        <ele>232</ele>
        <time>2022-05-01T13:46:42.558Z</time>
      </trkpt>
      <trkpt lat="45.65783" lon="5.89419">
        <ele>232</ele>
        <time>2022-05-01T13:46:43.559Z</time>
      </trkpt>
      <trkpt lat="45.6578" lon="5.89419">
        <ele>232</ele>
        <time>2022-05-01T13:46:44.559Z</time>
      </trkpt>
      <trkpt lat="45.65777" lon="5.89418">
        <ele>232</ele>
        <time>2022-05-01T13:46:45.559Z</time>
      </trkpt>
      <trkpt lat="45.65775" lon="5.89417">
        <ele>232</ele>
        <time>2022-05-01T13:46:46.559Z</time>
      </trkpt>
      <trkpt lat="45.65772" lon="5.89416">
        <ele>232</ele>
        <time>2022-05-01T13:46:47.558Z</time>
      </trkpt>
      <trkpt lat="45.65769" lon="5.89415">
        <ele>233</ele>
        <time>2022-05-01T13:46:48.559Z</time>
      </trkpt>
      <trkpt lat="45.65767" lon="5.89413">
        <ele>233</ele>
        <time>2022-05-01T13:46:49.559Z</time>
      </trkpt>
      <trkpt lat="45.65764" lon="5.89411">
        <ele>233</ele>
        <time>2022-05-01T13:46:50.558Z</time>
      </trkpt>
      <trkpt lat="45.65762" lon="5.89408">
        <ele>233</ele>
        <time>2022-05-01T13:46:51.558Z</time>
      </trkpt>
      <trkpt lat="45.6576" lon="5.89406">
        <ele>234</ele>
        <time>2022-05-01T13:46:52.558Z</time>
      </trkpt>
      <trkpt lat="45.65758" lon="5.89404">
        <ele>234</ele>
        <time>2022-05-01T13:46:53.558Z</time>
      </trkpt>
      <trkpt lat="45.65756" lon="5.89401">
        <ele>233</ele>
        <time>2022-05-01T13:46:54.559Z</time>
      </trkpt>
      <trkpt lat="45.65754" lon="5.89399">
        <ele>233</ele>
        <time>2022-05-01T13:46:55.559Z</time>
      </trkpt>
      <trkpt lat="45.65753" lon="5.89396">
        <ele>233</ele>
        <time>2022-05-01T13:46:56.559Z</time>
      </trkpt>
      <trkpt lat="45.65751" lon="5.89394">
        <ele>233</ele>
        <time>2022-05-01T13:46:57.558Z</time>
      </trkpt>
      <trkpt lat="45.65749" lon="5.89391">
        <ele>234</ele>
        <time>2022-05-01T13:46:58.558Z</time>
      </trkpt>
      <trkpt lat="45.65747" lon="5.89389">
        <ele>234</ele>
        <time>2022-05-01T13:46:59.559Z</time>
      </trkpt>
      <trkpt lat="45.65745" lon="5.89387">
        <ele>234</ele>
        <time>2022-05-01T13:47:00.559Z</time>
      </trkpt>
      <trkpt lat="45.65742" lon="5.89386">
        <ele>234</ele>
        <time>2022-05-01T13:47:01.559Z</time>
      </trkpt>
      <trkpt lat="45.65739" lon="5.89386">
        <ele>235</ele>
        <time>2022-05-01T13:47:02.558Z</time>
      </trkpt>
      <trkpt lat="45.65736" lon="5.89386">
        <ele>235</ele>
        <time>2022-05-01T13:47:03.558Z</time>
      </trkpt>
      <trkpt lat="45.65733" lon="5.89387">
        <ele>235</ele>
        <time>2022-05-01T13:47:04.559Z</time>
      </trkpt>
      <trkpt lat="45.65729" lon="5.89388">
        <ele>235</ele>
        <time>2022-05-01T13:47:05.558Z</time>
      </trkpt>
      <trkpt lat="45.65726" lon="5.89391">
        <ele>235</ele>
        <time>2022-05-01T13:47:06.559Z</time>
      </trkpt>
      <trkpt lat="45.65724" lon="5.89394">
        <ele>235</ele>
        <time>2022-05-01T13:47:07.558Z</time>
      </trkpt>
      <trkpt lat="45.65721" lon="5.89397">
        <ele>235</ele>
        <time>2022-05-01T13:47:08.558Z</time>
      </trkpt>
      <trkpt lat="45.65719" lon="5.89401">
        <ele>235</ele>
        <time>2022-05-01T13:47:09.559Z</time>
      </trkpt>
      <trkpt lat="45.65717" lon="5.89404">
        <ele>234</ele>
        <time>2022-05-01T13:47:10.559Z</time>
      </trkpt>
      <trkpt lat="45.65715" lon="5.89408">
        <ele>234</ele>
        <time>2022-05-01T13:47:11.558Z</time>
      </trkpt>
      <trkpt lat="45.65713" lon="5.89412">
        <ele>234</ele>
        <time>2022-05-01T13:47:12.558Z</time>
      </trkpt>
      <trkpt lat="45.65711" lon="5.89416">
        <ele>235</ele>
        <time>2022-05-01T13:47:13.558Z</time>
      </trkpt>
      <trkpt lat="45.6571" lon="5.8942">
        <ele>236</ele>
        <time>2022-05-01T13:47:14.558Z</time>
      </trkpt>
      <trkpt lat="45.65708" lon="5.89423">
        <ele>236</ele>
        <time>2022-05-01T13:47:15.559Z</time>
      </trkpt>
      <trkpt lat="45.65707" lon="5.89426">
        <ele>237</ele>
        <time>2022-05-01T13:47:16.558Z</time>
      </trkpt>
      <trkpt lat="45.65705" lon="5.89428">
        <ele>237</ele>
        <time>2022-05-01T13:47:17.559Z</time>
      </trkpt>
      <trkpt lat="45.65704" lon="5.8943">
        <ele>237</ele>
        <time>2022-05-01T13:47:18.558Z</time>
      </trkpt>
      <trkpt lat="45.65704" lon="5.89432">
        <ele>237</ele>
        <time>2022-05-01T13:47:19.559Z</time>
      </trkpt>
      <trkpt lat="45.65703" lon="5.89434">
        <ele>236</ele>
        <time>2022-05-01T13:47:20.558Z</time>
      </trkpt>
      <trkpt lat="45.65701" lon="5.89435">
        <ele>236</ele>
        <time>2022-05-01T13:47:21.559Z</time>
      </trkpt>
      <trkpt lat="45.657" lon="5.89437">
        <ele>235</ele>
        <time>2022-05-01T13:47:22.559Z</time>
      </trkpt>
      <trkpt lat="45.65698" lon="5.89438">
        <ele>235</ele>
        <time>2022-05-01T13:47:23.558Z</time>
      </trkpt>
      <trkpt lat="45.65696" lon="5.89439">
        <ele>235</ele>
        <time>2022-05-01T13:47:24.558Z</time>
      </trkpt>
      <trkpt lat="45.65694" lon="5.8944">
        <ele>236</ele>
        <time>2022-05-01T13:47:25.558Z</time>
      </trkpt>
      <trkpt lat="45.65693" lon="5.89441">
        <ele>236</ele>
        <time>2022-05-01T13:47:26.558Z</time>
      </trkpt>
      <trkpt lat="45.65692" lon="5.89442">
        <ele>235</ele>
        <time>2022-05-01T13:47:27.558Z</time>
      </trkpt>
      <trkpt lat="45.65691" lon="5.89442">
        <ele>235</ele>
        <time>2022-05-01T13:47:28.558Z</time>
      </trkpt>
      <trkpt lat="45.65691" lon="5.89442">
        <ele>235</ele>
        <time>2022-05-01T13:47:29.558Z</time>
      </trkpt>
      <trkpt lat="45.6569" lon="5.89443">
        <ele>235</ele>
        <time>2022-05-01T13:47:30.558Z</time>
      </trkpt>
      <trkpt lat="45.6569" lon="5.89443">
        <ele>235</ele>
        <time>2022-05-01T13:47:31.559Z</time>
      </trkpt>
      <trkpt lat="45.6569" lon="5.89443">
        <ele>235</ele>
        <time>2022-05-01T13:47:32.558Z</time>
      </trkpt>
      <trkpt lat="45.6569" lon="5.89444">
        <ele>235</ele>
        <time>2022-05-01T13:47:33.558Z</time>
      </trkpt>
      <trkpt lat="45.65689" lon="5.89444">
        <ele>235</ele>
        <time>2022-05-01T13:47:34.559Z</time>
      </trkpt>
      <trkpt lat="45.6569" lon="5.89445">
        <ele>235</ele>
        <time>2022-05-01T13:47:35.559Z</time>
      </trkpt>
      <trkpt lat="45.6569" lon="5.89446">
        <ele>235</ele>
        <time>2022-05-01T13:47:36.559Z</time>
      </trkpt>
      <trkpt lat="45.65691" lon="5.89446">
        <ele>235</ele>
        <time>2022-05-01T13:47:37.559Z</time>
      </trkpt>
      <trkpt lat="45.65692" lon="5.89447">
        <ele>235</ele>
        <time>2022-05-01T13:47:38.559Z</time>
      </trkpt>
      <trkpt lat="45.65692" lon="5.89448">
        <ele>236</ele>
        <time>2022-05-01T13:47:39.559Z</time>
      </trkpt>
      <trkpt lat="45.65692" lon="5.89449">
        <ele>236</ele>
        <time>2022-05-01T13:47:40.558Z</time>
      </trkpt>
      <trkpt lat="45.65692" lon="5.8945">
        <ele>236</ele>
        <time>2022-05-01T13:47:41.558Z</time>
      </trkpt>
      <trkpt lat="45.65693" lon="5.89451">
        <ele>237</ele>
        <time>2022-05-01T13:47:42.559Z</time>
      </trkpt>
      <trkpt lat="45.65693" lon="5.89452">
        <ele>237</ele>
        <time>2022-05-01T13:47:43.558Z</time>
      </trkpt>
      <trkpt lat="45.65693" lon="5.89453">
        <ele>238</ele>
        <time>2022-05-01T13:47:44.558Z</time>
      </trkpt>
      <trkpt lat="45.65693" lon="5.89454">
        <ele>238</ele>
        <time>2022-05-01T13:47:45.558Z</time>
      </trkpt>
      <trkpt lat="45.65692" lon="5.89455">
        <ele>238</ele>
        <time>2022-05-01T13:47:46.559Z</time>
      </trkpt>
      <trkpt lat="45.65692" lon="5.89456">
        <ele>237</ele>
        <time>2022-05-01T13:47:47.559Z</time>
      </trkpt>
      <trkpt lat="45.65692" lon="5.89457">
        <ele>237</ele>
        <time>2022-05-01T13:47:48.558Z</time>
      </trkpt>
      <trkpt lat="45.65691" lon="5.89457">
        <ele>237</ele>
        <time>2022-05-01T13:47:49.558Z</time>
      </trkpt>
      <trkpt lat="45.65691" lon="5.89458">
        <ele>238</ele>
        <time>2022-05-01T13:47:50.559Z</time>
      </trkpt>
      <trkpt lat="45.6569" lon="5.89459">
        <ele>238</ele>
        <time>2022-05-01T13:47:51.559Z</time>
      </trkpt>
      <trkpt lat="45.65689" lon="5.8946">
        <ele>238</ele>
        <time>2022-05-01T13:47:52.558Z</time>
      </trkpt>
      <trkpt lat="45.65688" lon="5.89461">
        <ele>238</ele>
        <time>2022-05-01T13:47:53.559Z</time>
      </trkpt>
      <trkpt lat="45.65685" lon="5.89462">
        <ele>237</ele>
        <time>2022-05-01T13:47:54.559Z</time>
      </trkpt>
      <trkpt lat="45.65683" lon="5.89462">
        <ele>237</ele>
        <time>2022-05-01T13:47:55.559Z</time>
      </trkpt>
      <trkpt lat="45.6568" lon="5.89462">
        <ele>237</ele>
        <time>2022-05-01T13:47:56.559Z</time>
      </trkpt>
      <trkpt lat="45.65677" lon="5.89463">
        <ele>237</ele>
        <time>2022-05-01T13:47:57.559Z</time>
      </trkpt>
      <trkpt lat="45.65673" lon="5.89463">
        <ele>237</ele>
        <time>2022-05-01T13:47:58.559Z</time>
      </trkpt>
      <trkpt lat="45.6567" lon="5.89464">
        <ele>237</ele>
        <time>2022-05-01T13:47:59.558Z</time>
      </trkpt>
      <trkpt lat="45.65666" lon="5.89464">
        <ele>238</ele>
        <time>2022-05-01T13:48:00.559Z</time>
      </trkpt>
      <trkpt lat="45.65662" lon="5.89464">
        <ele>238</ele>
        <time>2022-05-01T13:48:01.559Z</time>
      </trkpt>
      <trkpt lat="45.65658" lon="5.89465">
        <ele>238</ele>
        <time>2022-05-01T13:48:02.559Z</time>
      </trkpt>
      <trkpt lat="45.65653" lon="5.89465">
        <ele>239</ele>
        <time>2022-05-01T13:48:03.558Z</time>
      </trkpt>
      <trkpt lat="45.6565" lon="5.89465">
        <ele>239</ele>
        <time>2022-05-01T13:48:04.559Z</time>
      </trkpt>
      <trkpt lat="45.65645" lon="5.89465">
        <ele>239</ele>
        <time>2022-05-01T13:48:05.559Z</time>
      </trkpt>
      <trkpt lat="45.6564" lon="5.89464">
        <ele>240</ele>
        <time>2022-05-01T13:48:06.559Z</time>
      </trkpt>
      <trkpt lat="45.65637" lon="5.89464">
        <ele>240</ele>
        <time>2022-05-01T13:48:07.558Z</time>
      </trkpt>
      <trkpt lat="45.65633" lon="5.89464">
        <ele>240</ele>
        <time>2022-05-01T13:48:08.559Z</time>
      </trkpt>
      <trkpt lat="45.65629" lon="5.89463">
        <ele>240</ele>
        <time>2022-05-01T13:48:09.559Z</time>
      </trkpt>
      <trkpt lat="45.65624" lon="5.89462">
        <ele>240</ele>
        <time>2022-05-01T13:48:10.559Z</time>
      </trkpt>
      <trkpt lat="45.6562" lon="5.89462">
        <ele>239</ele>
        <time>2022-05-01T13:48:11.559Z</time>
      </trkpt>
      <trkpt lat="45.65615" lon="5.89461">
        <ele>239</ele>
        <time>2022-05-01T13:48:12.559Z</time>
      </trkpt>
      <trkpt lat="45.65611" lon="5.8946">
        <ele>240</ele>
        <time>2022-05-01T13:48:13.559Z</time>
      </trkpt>
      <trkpt lat="45.65607" lon="5.89459">
        <ele>240</ele>
        <time>2022-05-01T13:48:14.559Z</time>
      </trkpt>
      <trkpt lat="45.65601" lon="5.89458">
        <ele>240</ele>
        <time>2022-05-01T13:48:15.559Z</time>
      </trkpt>
      <trkpt lat="45.65597" lon="5.89457">
        <ele>241</ele>
        <time>2022-05-01T13:48:16.559Z</time>
      </trkpt>
      <trkpt lat="45.65593" lon="5.89456">
        <ele>241</ele>
        <time>2022-05-01T13:48:17.559Z</time>
      </trkpt>
      <trkpt lat="45.65588" lon="5.89454">
        <ele>241</ele>
        <time>2022-05-01T13:48:18.559Z</time>
      </trkpt>
      <trkpt lat="45.65584" lon="5.89452">
        <ele>241</ele>
        <time>2022-05-01T13:48:19.558Z</time>
      </trkpt>
      <trkpt lat="45.65578" lon="5.89449">
        <ele>241</ele>
        <time>2022-05-01T13:48:20.559Z</time>
      </trkpt>
      <trkpt lat="45.65575" lon="5.89447">
        <ele>241</ele>
        <time>2022-05-01T13:48:21.559Z</time>
      </trkpt>
      <trkpt lat="45.6557" lon="5.89444">
        <ele>240</ele>
        <time>2022-05-01T13:48:22.559Z</time>
      </trkpt>
      <trkpt lat="45.65566" lon="5.89441">
        <ele>240</ele>
        <time>2022-05-01T13:48:23.559Z</time>
      </trkpt>
      <trkpt lat="45.65562" lon="5.89438">
        <ele>240</ele>
        <time>2022-05-01T13:48:24.559Z</time>
      </trkpt>
      <trkpt lat="45.65557" lon="5.89434">
        <ele>240</ele>
        <time>2022-05-01T13:48:25.559Z</time>
      </trkpt>
      <trkpt lat="45.65553" lon="5.8943">
        <ele>239</ele>
        <time>2022-05-01T13:48:26.559Z</time>
      </trkpt>
      <trkpt lat="45.65548" lon="5.89425">
        <ele>239</ele>
        <time>2022-05-01T13:48:27.558Z</time>
      </trkpt>
      <trkpt lat="45.65544" lon="5.8942">
        <ele>238</ele>
        <time>2022-05-01T13:48:28.558Z</time>
      </trkpt>
      <trkpt lat="45.6554" lon="5.89415">
        <ele>238</ele>
        <time>2022-05-01T13:48:29.559Z</time>
      </trkpt>
      <trkpt lat="45.65535" lon="5.8941">
        <ele>238</ele>
        <time>2022-05-01T13:48:30.559Z</time>
      </trkpt>
      <trkpt lat="45.65531" lon="5.89405">
        <ele>238</ele>
        <time>2022-05-01T13:48:31.558Z</time>
      </trkpt>
      <trkpt lat="45.65527" lon="5.89399">
        <ele>238</ele>
        <time>2022-05-01T13:48:32.558Z</time>
      </trkpt>
      <trkpt lat="45.65523" lon="5.89394">
        <ele>238</ele>
        <time>2022-05-01T13:48:33.558Z</time>
      </trkpt>
      <trkpt lat="45.65518" lon="5.89389">
        <ele>238</ele>
        <time>2022-05-01T13:48:34.558Z</time>
      </trkpt>
      <trkpt lat="45.65514" lon="5.89385">
        <ele>239</ele>
        <time>2022-05-01T13:48:35.558Z</time>
      </trkpt>
      <trkpt lat="45.65509" lon="5.8938">
        <ele>239</ele>
        <time>2022-05-01T13:48:36.558Z</time>
      </trkpt>
      <trkpt lat="45.65505" lon="5.89376">
        <ele>239</ele>
        <time>2022-05-01T13:48:37.559Z</time>
      </trkpt>
      <trkpt lat="45.655" lon="5.89372">
        <ele>238</ele>
        <time>2022-05-01T13:48:38.558Z</time>
      </trkpt>
      <trkpt lat="45.65495" lon="5.89369">
        <ele>238</ele>
        <time>2022-05-01T13:48:39.559Z</time>
      </trkpt>
      <trkpt lat="45.6549" lon="5.89365">
        <ele>238</ele>
        <time>2022-05-01T13:48:40.558Z</time>
      </trkpt>
      <trkpt lat="45.65485" lon="5.89362">
        <ele>238</ele>
        <time>2022-05-01T13:48:41.558Z</time>
      </trkpt>
      <trkpt lat="45.65479" lon="5.89359">
        <ele>238</ele>
        <time>2022-05-01T13:48:42.558Z</time>
      </trkpt>
      <trkpt lat="45.65474" lon="5.89357">
        <ele>238</ele>
        <time>2022-05-01T13:48:43.559Z</time>
      </trkpt>
      <trkpt lat="45.65469" lon="5.89355">
        <ele>239</ele>
        <time>2022-05-01T13:48:44.558Z</time>
      </trkpt>
      <trkpt lat="45.65463" lon="5.89353">
        <ele>239</ele>
        <time>2022-05-01T13:48:45.559Z</time>
      </trkpt>
      <trkpt lat="45.65458" lon="5.89352">
        <ele>240</ele>
        <time>2022-05-01T13:48:46.558Z</time>
      </trkpt>
      <trkpt lat="45.65452" lon="5.89351">
        <ele>240</ele>
        <time>2022-05-01T13:48:47.559Z</time>
      </trkpt>
      <trkpt lat="45.65447" lon="5.8935">
        <ele>241</ele>
        <time>2022-05-01T13:48:48.559Z</time>
      </trkpt>
      <trkpt lat="45.65441" lon="5.89349">
        <ele>241</ele>
        <time>2022-05-01T13:48:49.559Z</time>
      </trkpt>
      <trkpt lat="45.65436" lon="5.89348">
        <ele>241</ele>
        <time>2022-05-01T13:48:50.559Z</time>
      </trkpt>
      <trkpt lat="45.6543" lon="5.89346">
        <ele>242</ele>
        <time>2022-05-01T13:48:51.558Z</time>
      </trkpt>
      <trkpt lat="45.65425" lon="5.89345">
        <ele>242</ele>
        <time>2022-05-01T13:48:52.558Z</time>
      </trkpt>
      <trkpt lat="45.65419" lon="5.89344">
        <ele>241</ele>
        <time>2022-05-01T13:48:53.559Z</time>
      </trkpt>
      <trkpt lat="45.65414" lon="5.89343">
        <ele>242</ele>
        <time>2022-05-01T13:48:54.558Z</time>
      </trkpt>
      <trkpt lat="45.65408" lon="5.89341">
        <ele>242</ele>
        <time>2022-05-01T13:48:55.559Z</time>
      </trkpt>
      <trkpt lat="45.65403" lon="5.8934">
        <ele>242</ele>
        <time>2022-05-01T13:48:56.559Z</time>
      </trkpt>
      <trkpt lat="45.65397" lon="5.89339">
        <ele>242</ele>
        <time>2022-05-01T13:48:57.558Z</time>
      </trkpt>
      <trkpt lat="45.65391" lon="5.89339">
        <ele>241</ele>
        <time>2022-05-01T13:48:58.559Z</time>
      </trkpt>
      <trkpt lat="45.65386" lon="5.89338">
        <ele>241</ele>
        <time>2022-05-01T13:48:59.559Z</time>
      </trkpt>
      <trkpt lat="45.6538" lon="5.89338">
        <ele>242</ele>
        <time>2022-05-01T13:49:00.558Z</time>
      </trkpt>
      <trkpt lat="45.65375" lon="5.89337">
        <ele>242</ele>
        <time>2022-05-01T13:49:01.558Z</time>
      </trkpt>
      <trkpt lat="45.65369" lon="5.89336">
        <ele>242</ele>
        <time>2022-05-01T13:49:02.559Z</time>
      </trkpt>
      <trkpt lat="45.65364" lon="5.89336">
        <ele>242</ele>
        <time>2022-05-01T13:49:03.558Z</time>
      </trkpt>
      <trkpt lat="45.65358" lon="5.89335">
        <ele>243</ele>
        <time>2022-05-01T13:49:04.559Z</time>
      </trkpt>
      <trkpt lat="45.65353" lon="5.89334">
        <ele>243</ele>
        <time>2022-05-01T13:49:05.559Z</time>
      </trkpt>
      <trkpt lat="45.65347" lon="5.89333">
        <ele>243</ele>
        <time>2022-05-01T13:49:06.559Z</time>
      </trkpt>
      <trkpt lat="45.65342" lon="5.89333">
        <ele>243</ele>
        <time>2022-05-01T13:49:07.559Z</time>
      </trkpt>
      <trkpt lat="45.65336" lon="5.89332">
        <ele>243</ele>
        <time>2022-05-01T13:49:08.559Z</time>
      </trkpt>
      <trkpt lat="45.65331" lon="5.89331">
        <ele>242</ele>
        <time>2022-05-01T13:49:09.558Z</time>
      </trkpt>
      <trkpt lat="45.65325" lon="5.89331">
        <ele>242</ele>
        <time>2022-05-01T13:49:10.559Z</time>
      </trkpt>
      <trkpt lat="45.65319" lon="5.8933">
        <ele>241</ele>
        <time>2022-05-01T13:49:11.559Z</time>
      </trkpt>
      <trkpt lat="45.65314" lon="5.89329">
        <ele>241</ele>
        <time>2022-05-01T13:49:12.559Z</time>
      </trkpt>
      <trkpt lat="45.65308" lon="5.89329">
        <ele>241</ele>
        <time>2022-05-01T13:49:13.559Z</time>
      </trkpt>
      <trkpt lat="45.65302" lon="5.89329">
        <ele>241</ele>
        <time>2022-05-01T13:49:14.558Z</time>
      </trkpt>
      <trkpt lat="45.65296" lon="5.89328">
        <ele>241</ele>
        <time>2022-05-01T13:49:15.558Z</time>
      </trkpt>
      <trkpt lat="45.6529" lon="5.89328">
        <ele>241</ele>
        <time>2022-05-01T13:49:16.559Z</time>
      </trkpt>
      <trkpt lat="45.65284" lon="5.89328">
        <ele>241</ele>
        <time>2022-05-01T13:49:17.558Z</time>
      </trkpt>
      <trkpt lat="45.65277" lon="5.89327">
        <ele>241</ele>
        <time>2022-05-01T13:49:18.559Z</time>
      </trkpt>
      <trkpt lat="45.65272" lon="5.89326">
        <ele>241</ele>
        <time>2022-05-01T13:49:19.558Z</time>
      </trkpt>
      <trkpt lat="45.65266" lon="5.89326">
        <ele>241</ele>
        <time>2022-05-01T13:49:20.558Z</time>
      </trkpt>
      <trkpt lat="45.6526" lon="5.89325">
        <ele>241</ele>
        <time>2022-05-01T13:49:21.559Z</time>
      </trkpt>
      <trkpt lat="45.65254" lon="5.89325">
        <ele>240</ele>
        <time>2022-05-01T13:49:22.559Z</time>
      </trkpt>
      <trkpt lat="45.65247" lon="5.89324">
        <ele>240</ele>
        <time>2022-05-01T13:49:23.559Z</time>
      </trkpt>
      <trkpt lat="45.65241" lon="5.89324">
        <ele>239</ele>
        <time>2022-05-01T13:49:24.559Z</time>
      </trkpt>
      <trkpt lat="45.65235" lon="5.89323">
        <ele>239</ele>
        <time>2022-05-01T13:49:25.558Z</time>
      </trkpt>
      <trkpt lat="45.65229" lon="5.89323">
        <ele>239</ele>
        <time>2022-05-01T13:49:26.558Z</time>
      </trkpt>
      <trkpt lat="45.65221" lon="5.89323">
        <ele>239</ele>
        <time>2022-05-01T13:49:27.559Z</time>
      </trkpt>
      <trkpt lat="45.65216" lon="5.89323">
        <ele>240</ele>
        <time>2022-05-01T13:49:28.558Z</time>
      </trkpt>
      <trkpt lat="45.6521" lon="5.89322">
        <ele>240</ele>
        <time>2022-05-01T13:49:29.559Z</time>
      </trkpt>
      <trkpt lat="45.65203" lon="5.89322">
        <ele>241</ele>
        <time>2022-05-01T13:49:30.559Z</time>
      </trkpt>
      <trkpt lat="45.65197" lon="5.89321">
        <ele>241</ele>
        <time>2022-05-01T13:49:31.558Z</time>
      </trkpt>
      <trkpt lat="45.6519" lon="5.89321">
        <ele>240</ele>
        <time>2022-05-01T13:49:32.559Z</time>
      </trkpt>
      <trkpt lat="45.65183" lon="5.8932">
        <ele>240</ele>
        <time>2022-05-01T13:49:33.558Z</time>
      </trkpt>
      <trkpt lat="45.65177" lon="5.8932">
        <ele>240</ele>
        <time>2022-05-01T13:49:34.559Z</time>
      </trkpt>
      <trkpt lat="45.65171" lon="5.89319">
        <ele>239</ele>
        <time>2022-05-01T13:49:35.558Z</time>
      </trkpt>
      <trkpt lat="45.65164" lon="5.89319">
        <ele>239</ele>
        <time>2022-05-01T13:49:36.558Z</time>
      </trkpt>
      <trkpt lat="45.65158" lon="5.89319">
        <ele>240</ele>
        <time>2022-05-01T13:49:37.559Z</time>
      </trkpt>
      <trkpt lat="45.65152" lon="5.89318">
        <ele>240</ele>
        <time>2022-05-01T13:49:38.559Z</time>
      </trkpt>
      <trkpt lat="45.65145" lon="5.89318">
        <ele>240</ele>
        <time>2022-05-01T13:49:39.559Z</time>
      </trkpt>
      <trkpt lat="45.65139" lon="5.89318">
        <ele>240</ele>
        <time>2022-05-01T13:49:40.558Z</time>
      </trkpt>
      <trkpt lat="45.65134" lon="5.89318">
        <ele>240</ele>
        <time>2022-05-01T13:49:41.559Z</time>
      </trkpt>
      <trkpt lat="45.65128" lon="5.89317">
        <ele>240</ele>
        <time>2022-05-01T13:49:42.558Z</time>
      </trkpt>
      <trkpt lat="45.65123" lon="5.89315">
        <ele>240</ele>
        <time>2022-05-01T13:49:43.558Z</time>
      </trkpt>
      <trkpt lat="45.65118" lon="5.89311">
        <ele>240</ele>
        <time>2022-05-01T13:49:44.559Z</time>
      </trkpt>
      <trkpt lat="45.65113" lon="5.89307">
        <ele>240</ele>
        <time>2022-05-01T13:49:45.559Z</time>
      </trkpt>
      <trkpt lat="45.65108" lon="5.89304">
        <ele>240</ele>
        <time>2022-05-01T13:49:46.558Z</time>
      </trkpt>
      <trkpt lat="45.65102" lon="5.89301">
        <ele>240</ele>
        <time>2022-05-01T13:49:47.559Z</time>
      </trkpt>
      <trkpt lat="45.65097" lon="5.89301">
        <ele>241</ele>
        <time>2022-05-01T13:49:48.559Z</time>
      </trkpt>
      <trkpt lat="45.65092" lon="5.89303">
        <ele>241</ele>
        <time>2022-05-01T13:49:49.558Z</time>
      </trkpt>
      <trkpt lat="45.65087" lon="5.89306">
        <ele>242</ele>
        <time>2022-05-01T13:49:50.558Z</time>
      </trkpt>
      <trkpt lat="45.65081" lon="5.89309">
        <ele>242</ele>
        <time>2022-05-01T13:49:51.559Z</time>
      </trkpt>
      <trkpt lat="45.65075" lon="5.89311">
        <ele>242</ele>
        <time>2022-05-01T13:49:52.558Z</time>
      </trkpt>
      <trkpt lat="45.6507" lon="5.89311">
        <ele>242</ele>
        <time>2022-05-01T13:49:53.558Z</time>
      </trkpt>
      <trkpt lat="45.65065" lon="5.89312">
        <ele>242</ele>
        <time>2022-05-01T13:49:54.559Z</time>
      </trkpt>
      <trkpt lat="45.65059" lon="5.89312">
        <ele>241</ele>
        <time>2022-05-01T13:49:55.559Z</time>
      </trkpt>
      <trkpt lat="45.65053" lon="5.89312">
        <ele>240</ele>
        <time>2022-05-01T13:49:56.559Z</time>
      </trkpt>
      <trkpt lat="45.65047" lon="5.89312">
        <ele>240</ele>
        <time>2022-05-01T13:49:57.558Z</time>
      </trkpt>
      <trkpt lat="45.65041" lon="5.89311">
        <ele>239</ele>
        <time>2022-05-01T13:49:58.559Z</time>
      </trkpt>
      <trkpt lat="45.65035" lon="5.89311">
        <ele>238</ele>
        <time>2022-05-01T13:49:59.559Z</time>
      </trkpt>
      <trkpt lat="45.65029" lon="5.8931">
        <ele>238</ele>
        <time>2022-05-01T13:50:00.559Z</time>
      </trkpt>
      <trkpt lat="45.65022" lon="5.8931">
        <ele>238</ele>
        <time>2022-05-01T13:50:01.559Z</time>
      </trkpt>
      <trkpt lat="45.65016" lon="5.8931">
        <ele>238</ele>
        <time>2022-05-01T13:50:02.559Z</time>
      </trkpt>
      <trkpt lat="45.6501" lon="5.89309">
        <ele>237</ele>
        <time>2022-05-01T13:50:03.559Z</time>
      </trkpt>
      <trkpt lat="45.65003" lon="5.89309">
        <ele>237</ele>
        <time>2022-05-01T13:50:04.559Z</time>
      </trkpt>
      <trkpt lat="45.64997" lon="5.89308">
        <ele>237</ele>
        <time>2022-05-01T13:50:05.559Z</time>
      </trkpt>
      <trkpt lat="45.64991" lon="5.89308">
        <ele>236</ele>
        <time>2022-05-01T13:50:06.559Z</time>
      </trkpt>
      <trkpt lat="45.64985" lon="5.89308">
        <ele>235</ele>
        <time>2022-05-01T13:50:07.559Z</time>
      </trkpt>
      <trkpt lat="45.64979" lon="5.89308">
        <ele>235</ele>
        <time>2022-05-01T13:50:08.559Z</time>
      </trkpt>
      <trkpt lat="45.64972" lon="5.89307">
        <ele>235</ele>
        <time>2022-05-01T13:50:09.559Z</time>
      </trkpt>
      <trkpt lat="45.64965" lon="5.89307">
        <ele>235</ele>
        <time>2022-05-01T13:50:10.559Z</time>
      </trkpt>
      <trkpt lat="45.6496" lon="5.89306">
        <ele>236</ele>
        <time>2022-05-01T13:50:11.559Z</time>
      </trkpt>
      <trkpt lat="45.64954" lon="5.89306">
        <ele>236</ele>
        <time>2022-05-01T13:50:12.558Z</time>
      </trkpt>
      <trkpt lat="45.64948" lon="5.89306">
        <ele>236</ele>
        <time>2022-05-01T13:50:13.559Z</time>
      </trkpt>
      <trkpt lat="45.64941" lon="5.89305">
        <ele>236</ele>
        <time>2022-05-01T13:50:14.559Z</time>
      </trkpt>
      <trkpt lat="45.64935" lon="5.89305">
        <ele>236</ele>
        <time>2022-05-01T13:50:15.559Z</time>
      </trkpt>
      <trkpt lat="45.64928" lon="5.89304">
        <ele>236</ele>
        <time>2022-05-01T13:50:16.559Z</time>
      </trkpt>
      <trkpt lat="45.64922" lon="5.89304">
        <ele>236</ele>
        <time>2022-05-01T13:50:17.559Z</time>
      </trkpt>
      <trkpt lat="45.64916" lon="5.89305">
        <ele>236</ele>
        <time>2022-05-01T13:50:18.559Z</time>
      </trkpt>
      <trkpt lat="45.64909" lon="5.89305">
        <ele>236</ele>
        <time>2022-05-01T13:50:19.558Z</time>
      </trkpt>
      <trkpt lat="45.64903" lon="5.89305">
        <ele>236</ele>
        <time>2022-05-01T13:50:20.559Z</time>
      </trkpt>
      <trkpt lat="45.64896" lon="5.89305">
        <ele>236</ele>
        <time>2022-05-01T13:50:21.558Z</time>
      </trkpt>
      <trkpt lat="45.6489" lon="5.89304">
        <ele>236</ele>
        <time>2022-05-01T13:50:22.558Z</time>
      </trkpt>
      <trkpt lat="45.64883" lon="5.89304">
        <ele>235</ele>
        <time>2022-05-01T13:50:23.558Z</time>
      </trkpt>
      <trkpt lat="45.64877" lon="5.89305">
        <ele>235</ele>
        <time>2022-05-01T13:50:24.559Z</time>
      </trkpt>
      <trkpt lat="45.6487" lon="5.89305">
        <ele>235</ele>
        <time>2022-05-01T13:50:25.559Z</time>
      </trkpt>
      <trkpt lat="45.64864" lon="5.89305">
        <ele>236</ele>
        <time>2022-05-01T13:50:26.559Z</time>
      </trkpt>
      <trkpt lat="45.64857" lon="5.89305">
        <ele>236</ele>
        <time>2022-05-01T13:50:27.559Z</time>
      </trkpt>
      <trkpt lat="45.64851" lon="5.89306">
        <ele>236</ele>
        <time>2022-05-01T13:50:28.559Z</time>
      </trkpt>
      <trkpt lat="45.64844" lon="5.89307">
        <ele>236</ele>
        <time>2022-05-01T13:50:29.559Z</time>
      </trkpt>
      <trkpt lat="45.64838" lon="5.89307">
        <ele>236</ele>
        <time>2022-05-01T13:50:30.559Z</time>
      </trkpt>
      <trkpt lat="45.64833" lon="5.89308">
        <ele>237</ele>
        <time>2022-05-01T13:50:31.558Z</time>
      </trkpt>
      <trkpt lat="45.64827" lon="5.89308">
        <ele>237</ele>
        <time>2022-05-01T13:50:32.558Z</time>
      </trkpt>
      <trkpt lat="45.64821" lon="5.89309">
        <ele>238</ele>
        <time>2022-05-01T13:50:33.559Z</time>
      </trkpt>
      <trkpt lat="45.64816" lon="5.89309">
        <ele>238</ele>
        <time>2022-05-01T13:50:34.559Z</time>
      </trkpt>
      <trkpt lat="45.64812" lon="5.89308">
        <ele>238</ele>
        <time>2022-05-01T13:50:35.558Z</time>
      </trkpt>
      <trkpt lat="45.64809" lon="5.89308">
        <ele>238</ele>
        <time>2022-05-01T13:50:36.559Z</time>
      </trkpt>
      <trkpt lat="45.64806" lon="5.89307">
        <ele>238</ele>
        <time>2022-05-01T13:50:37.559Z</time>
      </trkpt>
      <trkpt lat="45.64804" lon="5.89306">
        <ele>238</ele>
        <time>2022-05-01T13:50:38.559Z</time>
      </trkpt>
      <trkpt lat="45.64802" lon="5.89305">
        <ele>238</ele>
        <time>2022-05-01T13:50:39.558Z</time>
      </trkpt>
      <trkpt lat="45.648" lon="5.89302">
        <ele>238</ele>
        <time>2022-05-01T13:50:40.559Z</time>
      </trkpt>
      <trkpt lat="45.64797" lon="5.89299">
        <ele>238</ele>
        <time>2022-05-01T13:50:41.558Z</time>
      </trkpt>
      <trkpt lat="45.64795" lon="5.89295">
        <ele>237</ele>
        <time>2022-05-01T13:50:42.559Z</time>
      </trkpt>
      <trkpt lat="45.64792" lon="5.8929">
        <ele>237</ele>
        <time>2022-05-01T13:50:43.559Z</time>
      </trkpt>
      <trkpt lat="45.64788" lon="5.89286">
        <ele>237</ele>
        <time>2022-05-01T13:50:44.559Z</time>
      </trkpt>
      <trkpt lat="45.64784" lon="5.89282">
        <ele>236</ele>
        <time>2022-05-01T13:50:45.558Z</time>
      </trkpt>
      <trkpt lat="45.64779" lon="5.8928">
        <ele>237</ele>
        <time>2022-05-01T13:50:46.558Z</time>
      </trkpt>
      <trkpt lat="45.64773" lon="5.89279">
        <ele>237</ele>
        <time>2022-05-01T13:50:47.559Z</time>
      </trkpt>
      <trkpt lat="45.64768" lon="5.89281">
        <ele>237</ele>
        <time>2022-05-01T13:50:48.559Z</time>
      </trkpt>
      <trkpt lat="45.64763" lon="5.89285">
        <ele>236</ele>
        <time>2022-05-01T13:50:49.559Z</time>
      </trkpt>
      <trkpt lat="45.64759" lon="5.89291">
        <ele>236</ele>
        <time>2022-05-01T13:50:50.559Z</time>
      </trkpt>
      <trkpt lat="45.64756" lon="5.89299">
        <ele>236</ele>
        <time>2022-05-01T13:50:51.559Z</time>
      </trkpt>
      <trkpt lat="45.64755" lon="5.89308">
        <ele>236</ele>
        <time>2022-05-01T13:50:52.559Z</time>
      </trkpt>
      <trkpt lat="45.64757" lon="5.89318">
        <ele>236</ele>
        <time>2022-05-01T13:50:53.558Z</time>
      </trkpt>
      <trkpt lat="45.64759" lon="5.89328">
        <ele>236</ele>
        <time>2022-05-01T13:50:54.559Z</time>
      </trkpt>
      <trkpt lat="45.64761" lon="5.89339">
        <ele>236</ele>
        <time>2022-05-01T13:50:55.559Z</time>
      </trkpt>
      <trkpt lat="45.64763" lon="5.89349">
        <ele>236</ele>
        <time>2022-05-01T13:50:56.558Z</time>
      </trkpt>
      <trkpt lat="45.64766" lon="5.89359">
        <ele>236</ele>
        <time>2022-05-01T13:50:57.559Z</time>
      </trkpt>
      <trkpt lat="45.64769" lon="5.89368">
        <ele>237</ele>
        <time>2022-05-01T13:50:58.559Z</time>
      </trkpt>
      <trkpt lat="45.64772" lon="5.89376">
        <ele>237</ele>
        <time>2022-05-01T13:50:59.559Z</time>
      </trkpt>
      <trkpt lat="45.64775" lon="5.89384">
        <ele>237</ele>
        <time>2022-05-01T13:51:00.559Z</time>
      </trkpt>
      <trkpt lat="45.64779" lon="5.89392">
        <ele>237</ele>
        <time>2022-05-01T13:51:01.558Z</time>
      </trkpt>
      <trkpt lat="45.64782" lon="5.89399">
        <ele>237</ele>
        <time>2022-05-01T13:51:02.559Z</time>
      </trkpt>
      <trkpt lat="45.64786" lon="5.89407">
        <ele>237</ele>
        <time>2022-05-01T13:51:03.558Z</time>
      </trkpt>
      <trkpt lat="45.64789" lon="5.89415">
        <ele>238</ele>
        <time>2022-05-01T13:51:04.559Z</time>
      </trkpt>
      <trkpt lat="45.64792" lon="5.89422">
        <ele>238</ele>
        <time>2022-05-01T13:51:05.559Z</time>
      </trkpt>
      <trkpt lat="45.64794" lon="5.8943">
        <ele>238</ele>
        <time>2022-05-01T13:51:06.559Z</time>
      </trkpt>
      <trkpt lat="45.64796" lon="5.89439">
        <ele>237</ele>
        <time>2022-05-01T13:51:07.559Z</time>
      </trkpt>
      <trkpt lat="45.64796" lon="5.89447">
        <ele>237</ele>
        <time>2022-05-01T13:51:08.559Z</time>
      </trkpt>
      <trkpt lat="45.64797" lon="5.89455">
        <ele>237</ele>
        <time>2022-05-01T13:51:09.559Z</time>
      </trkpt>
      <trkpt lat="45.64796" lon="5.89464">
        <ele>237</ele>
        <time>2022-05-01T13:51:10.558Z</time>
      </trkpt>
      <trkpt lat="45.64796" lon="5.89472">
        <ele>237</ele>
        <time>2022-05-01T13:51:11.559Z</time>
      </trkpt>
      <trkpt lat="45.64794" lon="5.8948">
        <ele>237</ele>
        <time>2022-05-01T13:51:12.559Z</time>
      </trkpt>
      <trkpt lat="45.64792" lon="5.89488">
        <ele>237</ele>
        <time>2022-05-01T13:51:13.559Z</time>
      </trkpt>
      <trkpt lat="45.64789" lon="5.89495">
        <ele>237</ele>
        <time>2022-05-01T13:51:14.559Z</time>
      </trkpt>
      <trkpt lat="45.64786" lon="5.89501">
        <ele>237</ele>
        <time>2022-05-01T13:51:15.559Z</time>
      </trkpt>
      <trkpt lat="45.64782" lon="5.89507">
        <ele>236</ele>
        <time>2022-05-01T13:51:16.558Z</time>
      </trkpt>
      <trkpt lat="45.64778" lon="5.89513">
        <ele>236</ele>
        <time>2022-05-01T13:51:17.559Z</time>
      </trkpt>
      <trkpt lat="45.64773" lon="5.89519">
        <ele>236</ele>
        <time>2022-05-01T13:51:18.559Z</time>
      </trkpt>
      <trkpt lat="45.64769" lon="5.89524">
        <ele>236</ele>
        <time>2022-05-01T13:51:19.559Z</time>
      </trkpt>
      <trkpt lat="45.64764" lon="5.8953">
        <ele>236</ele>
        <time>2022-05-01T13:51:20.559Z</time>
      </trkpt>
      <trkpt lat="45.64759" lon="5.89535">
        <ele>236</ele>
        <time>2022-05-01T13:51:21.559Z</time>
      </trkpt>
      <trkpt lat="45.64755" lon="5.89541">
        <ele>236</ele>
        <time>2022-05-01T13:51:22.558Z</time>
      </trkpt>
      <trkpt lat="45.6475" lon="5.89546">
        <ele>236</ele>
        <time>2022-05-01T13:51:23.559Z</time>
      </trkpt>
      <trkpt lat="45.64746" lon="5.89552">
        <ele>236</ele>
        <time>2022-05-01T13:51:24.559Z</time>
      </trkpt>
      <trkpt lat="45.64741" lon="5.89558">
        <ele>236</ele>
        <time>2022-05-01T13:51:25.559Z</time>
      </trkpt>
      <trkpt lat="45.64737" lon="5.89564">
        <ele>237</ele>
        <time>2022-05-01T13:51:26.559Z</time>
      </trkpt>
      <trkpt lat="45.64733" lon="5.8957">
        <ele>237</ele>
        <time>2022-05-01T13:51:27.559Z</time>
      </trkpt>
      <trkpt lat="45.64729" lon="5.89576">
        <ele>237</ele>
        <time>2022-05-01T13:51:28.559Z</time>
      </trkpt>
      <trkpt lat="45.64725" lon="5.89582">
        <ele>237</ele>
        <time>2022-05-01T13:51:29.559Z</time>
      </trkpt>
      <trkpt lat="45.64721" lon="5.89588">
        <ele>237</ele>
        <time>2022-05-01T13:51:30.558Z</time>
      </trkpt>
      <trkpt lat="45.64717" lon="5.89594">
        <ele>237</ele>
        <time>2022-05-01T13:51:31.559Z</time>
      </trkpt>
      <trkpt lat="45.64713" lon="5.89601">
        <ele>237</ele>
        <time>2022-05-01T13:51:32.558Z</time>
      </trkpt>
      <trkpt lat="45.64709" lon="5.89607">
        <ele>237</ele>
        <time>2022-05-01T13:51:33.559Z</time>
      </trkpt>
      <trkpt lat="45.64706" lon="5.89613">
        <ele>237</ele>
        <time>2022-05-01T13:51:34.558Z</time>
      </trkpt>
      <trkpt lat="45.64702" lon="5.8962">
        <ele>237</ele>
        <time>2022-05-01T13:51:35.559Z</time>
      </trkpt>
      <trkpt lat="45.64698" lon="5.89627">
        <ele>237</ele>
        <time>2022-05-01T13:51:36.559Z</time>
      </trkpt>
      <trkpt lat="45.64694" lon="5.89633">
        <ele>236</ele>
        <time>2022-05-01T13:51:37.559Z</time>
      </trkpt>
      <trkpt lat="45.6469" lon="5.89639">
        <ele>236</ele>
        <time>2022-05-01T13:51:38.558Z</time>
      </trkpt>
      <trkpt lat="45.64687" lon="5.89645">
        <ele>235</ele>
        <time>2022-05-01T13:51:39.559Z</time>
      </trkpt>
      <trkpt lat="45.64683" lon="5.89651">
        <ele>235</ele>
        <time>2022-05-01T13:51:40.559Z</time>
      </trkpt>
      <trkpt lat="45.64678" lon="5.89657">
        <ele>235</ele>
        <time>2022-05-01T13:51:41.559Z</time>
      </trkpt>
      <trkpt lat="45.64674" lon="5.89663">
        <ele>235</ele>
        <time>2022-05-01T13:51:42.559Z</time>
      </trkpt>
      <trkpt lat="45.6467" lon="5.8967">
        <ele>235</ele>
        <time>2022-05-01T13:51:43.559Z</time>
      </trkpt>
      <trkpt lat="45.64667" lon="5.89676">
        <ele>235</ele>
        <time>2022-05-01T13:51:44.559Z</time>
      </trkpt>
      <trkpt lat="45.64663" lon="5.89682">
        <ele>235</ele>
        <time>2022-05-01T13:51:45.559Z</time>
      </trkpt>
      <trkpt lat="45.64659" lon="5.89688">
        <ele>235</ele>
        <time>2022-05-01T13:51:46.559Z</time>
      </trkpt>
      <trkpt lat="45.64656" lon="5.89695">
        <ele>235</ele>
        <time>2022-05-01T13:51:47.559Z</time>
      </trkpt>
      <trkpt lat="45.64653" lon="5.89701">
        <ele>235</ele>
        <time>2022-05-01T13:51:48.559Z</time>
      </trkpt>
      <trkpt lat="45.6465" lon="5.89708">
        <ele>235</ele>
        <time>2022-05-01T13:51:49.559Z</time>
      </trkpt>
      <trkpt lat="45.64647" lon="5.89715">
        <ele>235</ele>
        <time>2022-05-01T13:51:50.559Z</time>
      </trkpt>
      <trkpt lat="45.64645" lon="5.89722">
        <ele>236</ele>
        <time>2022-05-01T13:51:51.559Z</time>
      </trkpt>
      <trkpt lat="45.64643" lon="5.89729">
        <ele>237</ele>
        <time>2022-05-01T13:51:52.559Z</time>
      </trkpt>
      <trkpt lat="45.64641" lon="5.89735">
        <ele>237</ele>
        <time>2022-05-01T13:51:53.559Z</time>
      </trkpt>
      <trkpt lat="45.6464" lon="5.89741">
        <ele>237</ele>
        <time>2022-05-01T13:51:54.558Z</time>
      </trkpt>
      <trkpt lat="45.6464" lon="5.89746">
        <ele>237</ele>
        <time>2022-05-01T13:51:55.559Z</time>
      </trkpt>
      <trkpt lat="45.64639" lon="5.89752">
        <ele>236</ele>
        <time>2022-05-01T13:51:56.558Z</time>
      </trkpt>
      <trkpt lat="45.64641" lon="5.89757">
        <ele>236</ele>
        <time>2022-05-01T13:51:57.559Z</time>
      </trkpt>
      <trkpt lat="45.64643" lon="5.89761">
        <ele>235</ele>
        <time>2022-05-01T13:51:58.559Z</time>
      </trkpt>
      <trkpt lat="45.64646" lon="5.89765">
        <ele>236</ele>
        <time>2022-05-01T13:51:59.559Z</time>
      </trkpt>
      <trkpt lat="45.6465" lon="5.8977">
        <ele>235</ele>
        <time>2022-05-01T13:52:00.559Z</time>
      </trkpt>
      <trkpt lat="45.64654" lon="5.89774">
        <ele>236</ele>
        <time>2022-05-01T13:52:01.559Z</time>
      </trkpt>
      <trkpt lat="45.64658" lon="5.89777">
        <ele>236</ele>
        <time>2022-05-01T13:52:02.559Z</time>
      </trkpt>
      <trkpt lat="45.64662" lon="5.89781">
        <ele>236</ele>
        <time>2022-05-01T13:52:03.559Z</time>
      </trkpt>
      <trkpt lat="45.64666" lon="5.89784">
        <ele>236</ele>
        <time>2022-05-01T13:52:04.559Z</time>
      </trkpt>
      <trkpt lat="45.64671" lon="5.89787">
        <ele>236</ele>
        <time>2022-05-01T13:52:05.559Z</time>
      </trkpt>
      <trkpt lat="45.64674" lon="5.8979">
        <ele>236</ele>
        <time>2022-05-01T13:52:06.559Z</time>
      </trkpt>
      <trkpt lat="45.64678" lon="5.89792">
        <ele>236</ele>
        <time>2022-05-01T13:52:07.559Z</time>
      </trkpt>
      <trkpt lat="45.64682" lon="5.89795">
        <ele>236</ele>
        <time>2022-05-01T13:52:08.559Z</time>
      </trkpt>
      <trkpt lat="45.64686" lon="5.89797">
        <ele>236</ele>
        <time>2022-05-01T13:52:09.559Z</time>
      </trkpt>
      <trkpt lat="45.64689" lon="5.898">
        <ele>236</ele>
        <time>2022-05-01T13:52:10.559Z</time>
      </trkpt>
      <trkpt lat="45.64692" lon="5.89802">
        <ele>236</ele>
        <time>2022-05-01T13:52:11.559Z</time>
      </trkpt>
      <trkpt lat="45.64696" lon="5.89804">
        <ele>236</ele>
        <time>2022-05-01T13:52:12.558Z</time>
      </trkpt>
      <trkpt lat="45.64699" lon="5.89807">
        <ele>237</ele>
        <time>2022-05-01T13:52:13.559Z</time>
      </trkpt>
      <trkpt lat="45.64702" lon="5.8981">
        <ele>238</ele>
        <time>2022-05-01T13:52:14.559Z</time>
      </trkpt>
      <trkpt lat="45.64706" lon="5.89812">
        <ele>238</ele>
        <time>2022-05-01T13:52:15.559Z</time>
      </trkpt>
      <trkpt lat="45.64709" lon="5.89814">
        <ele>239</ele>
        <time>2022-05-01T13:52:16.559Z</time>
      </trkpt>
      <trkpt lat="45.64713" lon="5.89817">
        <ele>239</ele>
        <time>2022-05-01T13:52:17.558Z</time>
      </trkpt>
      <trkpt lat="45.64716" lon="5.89819">
        <ele>240</ele>
        <time>2022-05-01T13:52:18.559Z</time>
      </trkpt>
      <trkpt lat="45.6472" lon="5.89821">
        <ele>240</ele>
        <time>2022-05-01T13:52:19.559Z</time>
      </trkpt>
      <trkpt lat="45.64723" lon="5.89823">
        <ele>241</ele>
        <time>2022-05-01T13:52:20.559Z</time>
      </trkpt>
      <trkpt lat="45.64727" lon="5.89825">
        <ele>241</ele>
        <time>2022-05-01T13:52:21.558Z</time>
      </trkpt>
      <trkpt lat="45.6473" lon="5.89827">
        <ele>241</ele>
        <time>2022-05-01T13:52:22.559Z</time>
      </trkpt>
      <trkpt lat="45.64734" lon="5.89829">
        <ele>242</ele>
        <time>2022-05-01T13:52:23.559Z</time>
      </trkpt>
      <trkpt lat="45.64737" lon="5.89831">
        <ele>242</ele>
        <time>2022-05-01T13:52:24.558Z</time>
      </trkpt>
      <trkpt lat="45.64741" lon="5.89833">
        <ele>243</ele>
        <time>2022-05-01T13:52:25.558Z</time>
      </trkpt>
      <trkpt lat="45.64744" lon="5.89835">
        <ele>243</ele>
        <time>2022-05-01T13:52:26.559Z</time>
      </trkpt>
      <trkpt lat="45.64747" lon="5.89837">
        <ele>243</ele>
        <time>2022-05-01T13:52:27.559Z</time>
      </trkpt>
      <trkpt lat="45.6475" lon="5.89838">
        <ele>243</ele>
        <time>2022-05-01T13:52:28.558Z</time>
      </trkpt>
      <trkpt lat="45.64754" lon="5.8984">
        <ele>243</ele>
        <time>2022-05-01T13:52:29.558Z</time>
      </trkpt>
      <trkpt lat="45.64757" lon="5.89842">
        <ele>243</ele>
        <time>2022-05-01T13:52:30.559Z</time>
      </trkpt>
      <trkpt lat="45.6476" lon="5.89843">
        <ele>243</ele>
        <time>2022-05-01T13:52:31.558Z</time>
      </trkpt>
      <trkpt lat="45.64763" lon="5.89844">
        <ele>244</ele>
        <time>2022-05-01T13:52:32.558Z</time>
      </trkpt>
      <trkpt lat="45.64767" lon="5.89845">
        <ele>244</ele>
        <time>2022-05-01T13:52:33.559Z</time>
      </trkpt>
      <trkpt lat="45.6477" lon="5.89847">
        <ele>243</ele>
        <time>2022-05-01T13:52:34.559Z</time>
      </trkpt>
      <trkpt lat="45.64773" lon="5.89848">
        <ele>243</ele>
        <time>2022-05-01T13:52:35.558Z</time>
      </trkpt>
      <trkpt lat="45.64775" lon="5.89851">
        <ele>243</ele>
        <time>2022-05-01T13:52:36.558Z</time>
      </trkpt>
      <trkpt lat="45.64777" lon="5.89855">
        <ele>243</ele>
        <time>2022-05-01T13:52:37.559Z</time>
      </trkpt>
      <trkpt lat="45.64778" lon="5.89859">
        <ele>243</ele>
        <time>2022-05-01T13:52:38.559Z</time>
      </trkpt>
      <trkpt lat="45.64779" lon="5.89863">
        <ele>242</ele>
        <time>2022-05-01T13:52:39.558Z</time>
      </trkpt>
      <trkpt lat="45.6478" lon="5.89866">
        <ele>242</ele>
        <time>2022-05-01T13:52:40.559Z</time>
      </trkpt>
      <trkpt lat="45.64781" lon="5.89868">
        <ele>242</ele>
        <time>2022-05-01T13:52:41.558Z</time>
      </trkpt>
      <trkpt lat="45.64783" lon="5.89869">
        <ele>241</ele>
        <time>2022-05-01T13:52:42.559Z</time>
      </trkpt>
      <trkpt lat="45.64785" lon="5.8987">
        <ele>241</ele>
        <time>2022-05-01T13:52:43.559Z</time>
      </trkpt>
      <trkpt lat="45.64788" lon="5.89872">
        <ele>242</ele>
        <time>2022-05-01T13:52:44.559Z</time>
      </trkpt>
      <trkpt lat="45.6479" lon="5.89873">
        <ele>242</ele>
        <time>2022-05-01T13:52:45.559Z</time>
      </trkpt>
      <trkpt lat="45.64793" lon="5.89875">
        <ele>242</ele>
        <time>2022-05-01T13:52:46.558Z</time>
      </trkpt>
      <trkpt lat="45.64795" lon="5.89876">
        <ele>242</ele>
        <time>2022-05-01T13:52:47.559Z</time>
      </trkpt>
      <trkpt lat="45.64798" lon="5.89877">
        <ele>242</ele>
        <time>2022-05-01T13:52:48.559Z</time>
      </trkpt>
      <trkpt lat="45.648" lon="5.89879">
        <ele>243</ele>
        <time>2022-05-01T13:52:49.558Z</time>
      </trkpt>
      <trkpt lat="45.64803" lon="5.8988">
        <ele>243</ele>
        <time>2022-05-01T13:52:50.558Z</time>
      </trkpt>
      <trkpt lat="45.64806" lon="5.89882">
        <ele>243</ele>
        <time>2022-05-01T13:52:51.559Z</time>
      </trkpt>
      <trkpt lat="45.64808" lon="5.89883">
        <ele>243</ele>
        <time>2022-05-01T13:52:52.559Z</time>
      </trkpt>
      <trkpt lat="45.64811" lon="5.89885">
        <ele>243</ele>
        <time>2022-05-01T13:52:53.559Z</time>
      </trkpt>
      <trkpt lat="45.64814" lon="5.89887">
        <ele>243</ele>
        <time>2022-05-01T13:52:54.559Z</time>
      </trkpt>
      <trkpt lat="45.64816" lon="5.89888">
        <ele>243</ele>
        <time>2022-05-01T13:52:55.559Z</time>
      </trkpt>
      <trkpt lat="45.64819" lon="5.8989">
        <ele>243</ele>
        <time>2022-05-01T13:52:56.558Z</time>
      </trkpt>
      <trkpt lat="45.64822" lon="5.89891">
        <ele>243</ele>
        <time>2022-05-01T13:52:57.558Z</time>
      </trkpt>
      <trkpt lat="45.64824" lon="5.89893">
        <ele>244</ele>
        <time>2022-05-01T13:52:58.559Z</time>
      </trkpt>
      <trkpt lat="45.64827" lon="5.89895">
        <ele>244</ele>
        <time>2022-05-01T13:52:59.559Z</time>
      </trkpt>
      <trkpt lat="45.6483" lon="5.89897">
        <ele>244</ele>
        <time>2022-05-01T13:53:00.558Z</time>
      </trkpt>
      <trkpt lat="45.64833" lon="5.89898">
        <ele>244</ele>
        <time>2022-05-01T13:53:01.559Z</time>
      </trkpt>
      <trkpt lat="45.64835" lon="5.899">
        <ele>244</ele>
        <time>2022-05-01T13:53:02.559Z</time>
      </trkpt>
      <trkpt lat="45.64838" lon="5.89902">
        <ele>244</ele>
        <time>2022-05-01T13:53:03.559Z</time>
      </trkpt>
      <trkpt lat="45.6484" lon="5.89903">
        <ele>243</ele>
        <time>2022-05-01T13:53:04.558Z</time>
      </trkpt>
      <trkpt lat="45.64843" lon="5.89905">
        <ele>243</ele>
        <time>2022-05-01T13:53:05.559Z</time>
      </trkpt>
      <trkpt lat="45.64845" lon="5.89906">
        <ele>243</ele>
        <time>2022-05-01T13:53:06.559Z</time>
      </trkpt>
      <trkpt lat="45.64848" lon="5.89908">
        <ele>243</ele>
        <time>2022-05-01T13:53:07.559Z</time>
      </trkpt>
      <trkpt lat="45.64851" lon="5.8991">
        <ele>243</ele>
        <time>2022-05-01T13:53:08.559Z</time>
      </trkpt>
      <trkpt lat="45.64854" lon="5.89912">
        <ele>243</ele>
        <time>2022-05-01T13:53:09.559Z</time>
      </trkpt>
      <trkpt lat="45.64856" lon="5.89914">
        <ele>243</ele>
        <time>2022-05-01T13:53:10.559Z</time>
      </trkpt>
      <trkpt lat="45.64859" lon="5.89916">
        <ele>243</ele>
        <time>2022-05-01T13:53:11.558Z</time>
      </trkpt>
      <trkpt lat="45.64861" lon="5.89918">
        <ele>243</ele>
        <time>2022-05-01T13:53:12.559Z</time>
      </trkpt>
      <trkpt lat="45.64864" lon="5.8992">
        <ele>243</ele>
        <time>2022-05-01T13:53:13.559Z</time>
      </trkpt>
      <trkpt lat="45.64867" lon="5.89922">
        <ele>243</ele>
        <time>2022-05-01T13:53:14.559Z</time>
      </trkpt>
      <trkpt lat="45.64869" lon="5.89924">
        <ele>242</ele>
        <time>2022-05-01T13:53:15.558Z</time>
      </trkpt>
      <trkpt lat="45.64872" lon="5.89927">
        <ele>242</ele>
        <time>2022-05-01T13:53:16.559Z</time>
      </trkpt>
      <trkpt lat="45.64874" lon="5.89929">
        <ele>243</ele>
        <time>2022-05-01T13:53:17.559Z</time>
      </trkpt>
      <trkpt lat="45.64877" lon="5.89931">
        <ele>242</ele>
        <time>2022-05-01T13:53:18.559Z</time>
      </trkpt>
      <trkpt lat="45.6488" lon="5.89934">
        <ele>243</ele>
        <time>2022-05-01T13:53:19.558Z</time>
      </trkpt>
      <trkpt lat="45.64882" lon="5.89936">
        <ele>243</ele>
        <time>2022-05-01T13:53:20.558Z</time>
      </trkpt>
      <trkpt lat="45.64885" lon="5.89938">
        <ele>243</ele>
        <time>2022-05-01T13:53:21.558Z</time>
      </trkpt>
      <trkpt lat="45.64887" lon="5.8994">
        <ele>243</ele>
        <time>2022-05-01T13:53:22.558Z</time>
      </trkpt>
      <trkpt lat="45.6489" lon="5.89943">
        <ele>244</ele>
        <time>2022-05-01T13:53:23.559Z</time>
      </trkpt>
      <trkpt lat="45.64893" lon="5.89944">
        <ele>244</ele>
        <time>2022-05-01T13:53:24.558Z</time>
      </trkpt>
      <trkpt lat="45.64896" lon="5.89946">
        <ele>244</ele>
        <time>2022-05-01T13:53:25.558Z</time>
      </trkpt>
      <trkpt lat="45.64898" lon="5.89948">
        <ele>245</ele>
        <time>2022-05-01T13:53:26.559Z</time>
      </trkpt>
      <trkpt lat="45.64901" lon="5.8995">
        <ele>245</ele>
        <time>2022-05-01T13:53:27.558Z</time>
      </trkpt>
      <trkpt lat="45.64904" lon="5.89951">
        <ele>245</ele>
        <time>2022-05-01T13:53:28.559Z</time>
      </trkpt>
      <trkpt lat="45.64907" lon="5.89953">
        <ele>245</ele>
        <time>2022-05-01T13:53:29.559Z</time>
      </trkpt>
      <trkpt lat="45.6491" lon="5.89954">
        <ele>245</ele>
        <time>2022-05-01T13:53:30.558Z</time>
      </trkpt>
      <trkpt lat="45.64913" lon="5.89955">
        <ele>245</ele>
        <time>2022-05-01T13:53:31.558Z</time>
      </trkpt>
      <trkpt lat="45.64915" lon="5.89956">
        <ele>245</ele>
        <time>2022-05-01T13:53:32.558Z</time>
      </trkpt>
      <trkpt lat="45.64918" lon="5.89957">
        <ele>245</ele>
        <time>2022-05-01T13:53:33.559Z</time>
      </trkpt>
      <trkpt lat="45.64921" lon="5.89958">
        <ele>245</ele>
        <time>2022-05-01T13:53:34.559Z</time>
      </trkpt>
      <trkpt lat="45.64924" lon="5.89959">
        <ele>245</ele>
        <time>2022-05-01T13:53:35.558Z</time>
      </trkpt>
      <trkpt lat="45.64927" lon="5.89961">
        <ele>246</ele>
        <time>2022-05-01T13:53:36.559Z</time>
      </trkpt>
      <trkpt lat="45.64929" lon="5.89961">
        <ele>246</ele>
        <time>2022-05-01T13:53:37.559Z</time>
      </trkpt>
      <trkpt lat="45.64932" lon="5.89962">
        <ele>246</ele>
        <time>2022-05-01T13:53:38.558Z</time>
      </trkpt>
      <trkpt lat="45.64935" lon="5.89964">
        <ele>245</ele>
        <time>2022-05-01T13:53:39.558Z</time>
      </trkpt>
      <trkpt lat="45.64938" lon="5.89964">
        <ele>245</ele>
        <time>2022-05-01T13:53:40.559Z</time>
      </trkpt>
      <trkpt lat="45.64941" lon="5.89965">
        <ele>245</ele>
        <time>2022-05-01T13:53:41.558Z</time>
      </trkpt>
      <trkpt lat="45.64944" lon="5.89966">
        <ele>245</ele>
        <time>2022-05-01T13:53:42.559Z</time>
      </trkpt>
      <trkpt lat="45.64947" lon="5.89966">
        <ele>246</ele>
        <time>2022-05-01T13:53:43.559Z</time>
      </trkpt>
      <trkpt lat="45.64951" lon="5.89966">
        <ele>246</ele>
        <time>2022-05-01T13:53:44.559Z</time>
      </trkpt>
      <trkpt lat="45.64953" lon="5.89966">
        <ele>246</ele>
        <time>2022-05-01T13:53:45.559Z</time>
      </trkpt>
      <trkpt lat="45.64956" lon="5.89966">
        <ele>246</ele>
        <time>2022-05-01T13:53:46.559Z</time>
      </trkpt>
      <trkpt lat="45.64959" lon="5.89966">
        <ele>245</ele>
        <time>2022-05-01T13:53:47.558Z</time>
      </trkpt>
      <trkpt lat="45.64962" lon="5.89966">
        <ele>245</ele>
        <time>2022-05-01T13:53:48.558Z</time>
      </trkpt>
      <trkpt lat="45.64965" lon="5.89966">
        <ele>244</ele>
        <time>2022-05-01T13:53:49.558Z</time>
      </trkpt>
      <trkpt lat="45.64967" lon="5.89966">
        <ele>244</ele>
        <time>2022-05-01T13:53:50.558Z</time>
      </trkpt>
      <trkpt lat="45.6497" lon="5.89967">
        <ele>243</ele>
        <time>2022-05-01T13:53:51.559Z</time>
      </trkpt>
      <trkpt lat="45.64973" lon="5.89967">
        <ele>243</ele>
        <time>2022-05-01T13:53:52.559Z</time>
      </trkpt>
      <trkpt lat="45.64976" lon="5.89968">
        <ele>243</ele>
        <time>2022-05-01T13:53:53.559Z</time>
      </trkpt>
      <trkpt lat="45.64979" lon="5.89968">
        <ele>243</ele>
        <time>2022-05-01T13:53:54.559Z</time>
      </trkpt>
      <trkpt lat="45.64982" lon="5.89968">
        <ele>243</ele>
        <time>2022-05-01T13:53:55.559Z</time>
      </trkpt>
      <trkpt lat="45.64985" lon="5.89968">
        <ele>243</ele>
        <time>2022-05-01T13:53:56.558Z</time>
      </trkpt>
      <trkpt lat="45.64988" lon="5.89969">
        <ele>242</ele>
        <time>2022-05-01T13:53:57.558Z</time>
      </trkpt>
      <trkpt lat="45.64991" lon="5.89969">
        <ele>242</ele>
        <time>2022-05-01T13:53:58.558Z</time>
      </trkpt>
      <trkpt lat="45.64994" lon="5.89969">
        <ele>242</ele>
        <time>2022-05-01T13:53:59.559Z</time>
      </trkpt>
      <trkpt lat="45.64997" lon="5.8997">
        <ele>242</ele>
        <time>2022-05-01T13:54:00.558Z</time>
      </trkpt>
      <trkpt lat="45.65001" lon="5.8997">
        <ele>242</ele>
        <time>2022-05-01T13:54:01.559Z</time>
      </trkpt>
      <trkpt lat="45.65004" lon="5.8997">
        <ele>243</ele>
        <time>2022-05-01T13:54:02.558Z</time>
      </trkpt>
      <trkpt lat="45.65007" lon="5.89971">
        <ele>243</ele>
        <time>2022-05-01T13:54:03.558Z</time>
      </trkpt>
      <trkpt lat="45.6501" lon="5.89971">
        <ele>243</ele>
        <time>2022-05-01T13:54:04.558Z</time>
      </trkpt>
      <trkpt lat="45.65013" lon="5.89971">
        <ele>243</ele>
        <time>2022-05-01T13:54:05.559Z</time>
      </trkpt>
      <trkpt lat="45.65016" lon="5.89972">
        <ele>243</ele>
        <time>2022-05-01T13:54:06.559Z</time>
      </trkpt>
      <trkpt lat="45.65019" lon="5.89972">
        <ele>244</ele>
        <time>2022-05-01T13:54:07.559Z</time>
      </trkpt>
      <trkpt lat="45.65022" lon="5.89972">
        <ele>244</ele>
        <time>2022-05-01T13:54:08.559Z</time>
      </trkpt>
      <trkpt lat="45.65025" lon="5.89973">
        <ele>243</ele>
        <time>2022-05-01T13:54:09.558Z</time>
      </trkpt>
      <trkpt lat="45.65028" lon="5.89973">
        <ele>243</ele>
        <time>2022-05-01T13:54:10.559Z</time>
      </trkpt>
      <trkpt lat="45.65031" lon="5.89973">
        <ele>243</ele>
        <time>2022-05-01T13:54:11.559Z</time>
      </trkpt>
      <trkpt lat="45.65034" lon="5.89973">
        <ele>243</ele>
        <time>2022-05-01T13:54:12.559Z</time>
      </trkpt>
      <trkpt lat="45.65037" lon="5.89973">
        <ele>243</ele>
        <time>2022-05-01T13:54:13.559Z</time>
      </trkpt>
      <trkpt lat="45.6504" lon="5.89973">
        <ele>243</ele>
        <time>2022-05-01T13:54:14.559Z</time>
      </trkpt>
      <trkpt lat="45.65044" lon="5.89974">
        <ele>243</ele>
        <time>2022-05-01T13:54:15.559Z</time>
      </trkpt>
      <trkpt lat="45.65047" lon="5.89975">
        <ele>242</ele>
        <time>2022-05-01T13:54:16.558Z</time>
      </trkpt>
      <trkpt lat="45.6505" lon="5.89976">
        <ele>242</ele>
        <time>2022-05-01T13:54:17.559Z</time>
      </trkpt>
      <trkpt lat="45.65053" lon="5.89976">
        <ele>242</ele>
        <time>2022-05-01T13:54:18.559Z</time>
      </trkpt>
      <trkpt lat="45.65056" lon="5.89977">
        <ele>242</ele>
        <time>2022-05-01T13:54:19.559Z</time>
      </trkpt>
      <trkpt lat="45.65059" lon="5.89978">
        <ele>242</ele>
        <time>2022-05-01T13:54:20.559Z</time>
      </trkpt>
      <trkpt lat="45.65062" lon="5.89979">
        <ele>243</ele>
        <time>2022-05-01T13:54:21.559Z</time>
      </trkpt>
      <trkpt lat="45.65065" lon="5.8998">
        <ele>243</ele>
        <time>2022-05-01T13:54:22.559Z</time>
      </trkpt>
      <trkpt lat="45.65068" lon="5.8998">
        <ele>243</ele>
        <time>2022-05-01T13:54:23.558Z</time>
      </trkpt>
      <trkpt lat="45.65071" lon="5.89981">
        <ele>243</ele>
        <time>2022-05-01T13:54:24.558Z</time>
      </trkpt>
      <trkpt lat="45.65074" lon="5.89982">
        <ele>243</ele>
        <time>2022-05-01T13:54:25.558Z</time>
      </trkpt>
      <trkpt lat="45.65077" lon="5.89982">
        <ele>243</ele>
        <time>2022-05-01T13:54:26.559Z</time>
      </trkpt>
      <trkpt lat="45.6508" lon="5.89983">
        <ele>243</ele>
        <time>2022-05-01T13:54:27.559Z</time>
      </trkpt>
      <trkpt lat="45.65083" lon="5.89984">
        <ele>243</ele>
        <time>2022-05-01T13:54:28.559Z</time>
      </trkpt>
      <trkpt lat="45.65086" lon="5.89985">
        <ele>244</ele>
        <time>2022-05-01T13:54:29.559Z</time>
      </trkpt>
      <trkpt lat="45.6509" lon="5.89985">
        <ele>244</ele>
        <time>2022-05-01T13:54:30.559Z</time>
      </trkpt>
      <trkpt lat="45.65092" lon="5.89986">
        <ele>244</ele>
        <time>2022-05-01T13:54:31.559Z</time>
      </trkpt>
      <trkpt lat="45.65096" lon="5.89987">
        <ele>244</ele>
        <time>2022-05-01T13:54:32.558Z</time>
      </trkpt>
      <trkpt lat="45.65099" lon="5.89988">
        <ele>245</ele>
        <time>2022-05-01T13:54:33.559Z</time>
      </trkpt>
      <trkpt lat="45.65102" lon="5.89988">
        <ele>245</ele>
        <time>2022-05-01T13:54:34.558Z</time>
      </trkpt>
      <trkpt lat="45.65105" lon="5.89989">
        <ele>246</ele>
        <time>2022-05-01T13:54:35.559Z</time>
      </trkpt>
      <trkpt lat="45.65107" lon="5.89989">
        <ele>246</ele>
        <time>2022-05-01T13:54:36.558Z</time>
      </trkpt>
      <trkpt lat="45.6511" lon="5.89989">
        <ele>247</ele>
        <time>2022-05-01T13:54:37.559Z</time>
      </trkpt>
      <trkpt lat="45.65113" lon="5.89989">
        <ele>247</ele>
        <time>2022-05-01T13:54:38.559Z</time>
      </trkpt>
      <trkpt lat="45.65115" lon="5.89989">
        <ele>247</ele>
        <time>2022-05-01T13:54:39.559Z</time>
      </trkpt>
      <trkpt lat="45.65117" lon="5.8999">
        <ele>247</ele>
        <time>2022-05-01T13:54:40.559Z</time>
      </trkpt>
      <trkpt lat="45.65118" lon="5.89991">
        <ele>247</ele>
        <time>2022-05-01T13:54:41.559Z</time>
      </trkpt>
      <trkpt lat="45.6512" lon="5.89992">
        <ele>247</ele>
        <time>2022-05-01T13:54:42.559Z</time>
      </trkpt>
      <trkpt lat="45.65122" lon="5.89995">
        <ele>246</ele>
        <time>2022-05-01T13:54:43.559Z</time>
      </trkpt>
      <trkpt lat="45.65123" lon="5.89998">
        <ele>246</ele>
        <time>2022-05-01T13:54:44.558Z</time>
      </trkpt>
      <trkpt lat="45.65125" lon="5.90001">
        <ele>246</ele>
        <time>2022-05-01T13:54:45.558Z</time>
      </trkpt>
      <trkpt lat="45.65125" lon="5.90005">
        <ele>246</ele>
        <time>2022-05-01T13:54:46.559Z</time>
      </trkpt>
      <trkpt lat="45.65126" lon="5.90008">
        <ele>245</ele>
        <time>2022-05-01T13:54:47.558Z</time>
      </trkpt>
      <trkpt lat="45.65126" lon="5.90012">
        <ele>245</ele>
        <time>2022-05-01T13:54:48.559Z</time>
      </trkpt>
      <trkpt lat="45.65127" lon="5.90016">
        <ele>245</ele>
        <time>2022-05-01T13:54:49.558Z</time>
      </trkpt>
      <trkpt lat="45.65127" lon="5.90019">
        <ele>244</ele>
        <time>2022-05-01T13:54:50.559Z</time>
      </trkpt>
      <trkpt lat="45.65127" lon="5.90023">
        <ele>244</ele>
        <time>2022-05-01T13:54:51.559Z</time>
      </trkpt>
      <trkpt lat="45.65127" lon="5.90027">
        <ele>244</ele>
        <time>2022-05-01T13:54:52.558Z</time>
      </trkpt>
      <trkpt lat="45.65127" lon="5.90031">
        <ele>244</ele>
        <time>2022-05-01T13:54:53.559Z</time>
      </trkpt>
      <trkpt lat="45.65127" lon="5.90034">
        <ele>244</ele>
        <time>2022-05-01T13:54:54.559Z</time>
      </trkpt>
      <trkpt lat="45.65127" lon="5.90038">
        <ele>244</ele>
        <time>2022-05-01T13:54:55.559Z</time>
      </trkpt>
      <trkpt lat="45.65127" lon="5.90042">
        <ele>244</ele>
        <time>2022-05-01T13:54:56.559Z</time>
      </trkpt>
      <trkpt lat="45.65127" lon="5.90046">
        <ele>245</ele>
        <time>2022-05-01T13:54:57.559Z</time>
      </trkpt>
      <trkpt lat="45.65127" lon="5.9005">
        <ele>245</ele>
        <time>2022-05-01T13:54:58.559Z</time>
      </trkpt>
      <trkpt lat="45.65127" lon="5.90054">
        <ele>245</ele>
        <time>2022-05-01T13:54:59.559Z</time>
      </trkpt>
      <trkpt lat="45.65127" lon="5.90058">
        <ele>246</ele>
        <time>2022-05-01T13:55:00.559Z</time>
      </trkpt>
      <trkpt lat="45.65126" lon="5.90061">
        <ele>246</ele>
        <time>2022-05-01T13:55:01.559Z</time>
      </trkpt>
      <trkpt lat="45.65126" lon="5.90064">
        <ele>246</ele>
        <time>2022-05-01T13:55:02.559Z</time>
      </trkpt>
      <trkpt lat="45.65125" lon="5.90067">
        <ele>246</ele>
        <time>2022-05-01T13:55:03.559Z</time>
      </trkpt>
      <trkpt lat="45.65125" lon="5.9007">
        <ele>246</ele>
        <time>2022-05-01T13:55:04.559Z</time>
      </trkpt>
      <trkpt lat="45.65124" lon="5.90074">
        <ele>246</ele>
        <time>2022-05-01T13:55:05.559Z</time>
      </trkpt>
      <trkpt lat="45.65123" lon="5.90077">
        <ele>246</ele>
        <time>2022-05-01T13:55:06.559Z</time>
      </trkpt>
      <trkpt lat="45.65122" lon="5.9008">
        <ele>245</ele>
        <time>2022-05-01T13:55:07.559Z</time>
      </trkpt>
      <trkpt lat="45.65121" lon="5.90084">
        <ele>246</ele>
        <time>2022-05-01T13:55:08.559Z</time>
      </trkpt>
      <trkpt lat="45.6512" lon="5.90088">
        <ele>246</ele>
        <time>2022-05-01T13:55:09.559Z</time>
      </trkpt>
      <trkpt lat="45.65118" lon="5.90092">
        <ele>246</ele>
        <time>2022-05-01T13:55:10.559Z</time>
      </trkpt>
      <trkpt lat="45.65118" lon="5.90097">
        <ele>246</ele>
        <time>2022-05-01T13:55:11.559Z</time>
      </trkpt>
      <trkpt lat="45.65117" lon="5.90101">
        <ele>246</ele>
        <time>2022-05-01T13:55:12.559Z</time>
      </trkpt>
      <trkpt lat="45.65116" lon="5.90106">
        <ele>246</ele>
        <time>2022-05-01T13:55:13.559Z</time>
      </trkpt>
      <trkpt lat="45.65115" lon="5.90111">
        <ele>246</ele>
        <time>2022-05-01T13:55:14.559Z</time>
      </trkpt>
      <trkpt lat="45.65115" lon="5.90116">
        <ele>246</ele>
        <time>2022-05-01T13:55:15.558Z</time>
      </trkpt>
      <trkpt lat="45.65114" lon="5.9012">
        <ele>247</ele>
        <time>2022-05-01T13:55:16.558Z</time>
      </trkpt>
      <trkpt lat="45.65114" lon="5.90124">
        <ele>247</ele>
        <time>2022-05-01T13:55:17.559Z</time>
      </trkpt>
      <trkpt lat="45.65113" lon="5.90127">
        <ele>247</ele>
        <time>2022-05-01T13:55:18.559Z</time>
      </trkpt>
      <trkpt lat="45.65113" lon="5.90132">
        <ele>246</ele>
        <time>2022-05-01T13:55:19.559Z</time>
      </trkpt>
      <trkpt lat="45.65112" lon="5.90134">
        <ele>246</ele>
        <time>2022-05-01T13:55:20.559Z</time>
      </trkpt>
      <trkpt lat="45.65111" lon="5.90138">
        <ele>247</ele>
        <time>2022-05-01T13:55:21.559Z</time>
      </trkpt>
      <trkpt lat="45.6511" lon="5.90141">
        <ele>247</ele>
        <time>2022-05-01T13:55:22.559Z</time>
      </trkpt>
      <trkpt lat="45.6511" lon="5.90145">
        <ele>247</ele>
        <time>2022-05-01T13:55:23.559Z</time>
      </trkpt>
      <trkpt lat="45.6511" lon="5.90148">
        <ele>248</ele>
        <time>2022-05-01T13:55:24.559Z</time>
      </trkpt>
      <trkpt lat="45.6511" lon="5.90151">
        <ele>248</ele>
        <time>2022-05-01T13:55:25.558Z</time>
      </trkpt>
      <trkpt lat="45.6511" lon="5.90155">
        <ele>249</ele>
        <time>2022-05-01T13:55:26.559Z</time>
      </trkpt>
      <trkpt lat="45.6511" lon="5.90159">
        <ele>249</ele>
        <time>2022-05-01T13:55:27.559Z</time>
      </trkpt>
      <trkpt lat="45.6511" lon="5.90162">
        <ele>250</ele>
        <time>2022-05-01T13:55:28.558Z</time>
      </trkpt>
      <trkpt lat="45.6511" lon="5.90165">
        <ele>250</ele>
        <time>2022-05-01T13:55:29.559Z</time>
      </trkpt>
      <trkpt lat="45.6511" lon="5.90169">
        <ele>250</ele>
        <time>2022-05-01T13:55:30.559Z</time>
      </trkpt>
      <trkpt lat="45.6511" lon="5.90172">
        <ele>250</ele>
        <time>2022-05-01T13:55:31.558Z</time>
      </trkpt>
      <trkpt lat="45.65109" lon="5.90176">
        <ele>250</ele>
        <time>2022-05-01T13:55:32.558Z</time>
      </trkpt>
      <trkpt lat="45.6511" lon="5.9018">
        <ele>251</ele>
        <time>2022-05-01T13:55:33.559Z</time>
      </trkpt>
      <trkpt lat="45.6511" lon="5.90183">
        <ele>251</ele>
        <time>2022-05-01T13:55:34.559Z</time>
      </trkpt>
      <trkpt lat="45.6511" lon="5.90186">
        <ele>251</ele>
        <time>2022-05-01T13:55:35.558Z</time>
      </trkpt>
      <trkpt lat="45.6511" lon="5.9019">
        <ele>251</ele>
        <time>2022-05-01T13:55:36.559Z</time>
      </trkpt>
      <trkpt lat="45.6511" lon="5.90193">
        <ele>251</ele>
        <time>2022-05-01T13:55:37.559Z</time>
      </trkpt>
      <trkpt lat="45.65111" lon="5.90197">
        <ele>251</ele>
        <time>2022-05-01T13:55:38.558Z</time>
      </trkpt>
      <trkpt lat="45.65111" lon="5.90201">
        <ele>251</ele>
        <time>2022-05-01T13:55:39.559Z</time>
      </trkpt>
      <trkpt lat="45.65111" lon="5.90204">
        <ele>251</ele>
        <time>2022-05-01T13:55:40.559Z</time>
      </trkpt>
      <trkpt lat="45.65112" lon="5.90208">
        <ele>251</ele>
        <time>2022-05-01T13:55:41.559Z</time>
      </trkpt>
      <trkpt lat="45.65112" lon="5.90212">
        <ele>251</ele>
        <time>2022-05-01T13:55:42.559Z</time>
      </trkpt>
      <trkpt lat="45.65112" lon="5.90215">
        <ele>251</ele>
        <time>2022-05-01T13:55:43.559Z</time>
      </trkpt>
      <trkpt lat="45.65112" lon="5.90219">
        <ele>251</ele>
        <time>2022-05-01T13:55:44.559Z</time>
      </trkpt>
      <trkpt lat="45.65111" lon="5.90222">
        <ele>252</ele>
        <time>2022-05-01T13:55:45.559Z</time>
      </trkpt>
      <trkpt lat="45.65111" lon="5.90226">
        <ele>252</ele>
        <time>2022-05-01T13:55:46.559Z</time>
      </trkpt>
      <trkpt lat="45.65111" lon="5.90229">
        <ele>252</ele>
        <time>2022-05-01T13:55:47.559Z</time>
      </trkpt>
      <trkpt lat="45.6511" lon="5.90233">
        <ele>253</ele>
        <time>2022-05-01T13:55:48.559Z</time>
      </trkpt>
      <trkpt lat="45.6511" lon="5.90236">
        <ele>253</ele>
        <time>2022-05-01T13:55:49.559Z</time>
      </trkpt>
      <trkpt lat="45.6511" lon="5.9024">
        <ele>254</ele>
        <time>2022-05-01T13:55:50.559Z</time>
      </trkpt>
      <trkpt lat="45.6511" lon="5.90243">
        <ele>254</ele>
        <time>2022-05-01T13:55:51.559Z</time>
      </trkpt>
      <trkpt lat="45.6511" lon="5.90246">
        <ele>255</ele>
        <time>2022-05-01T13:55:52.558Z</time>
      </trkpt>
      <trkpt lat="45.65109" lon="5.90249">
        <ele>255</ele>
        <time>2022-05-01T13:55:53.558Z</time>
      </trkpt>
      <trkpt lat="45.65109" lon="5.90253">
        <ele>255</ele>
        <time>2022-05-01T13:55:54.558Z</time>
      </trkpt>
      <trkpt lat="45.65109" lon="5.90256">
        <ele>255</ele>
        <time>2022-05-01T13:55:55.558Z</time>
      </trkpt>
      <trkpt lat="45.65108" lon="5.90259">
        <ele>255</ele>
        <time>2022-05-01T13:55:56.559Z</time>
      </trkpt>
      <trkpt lat="45.65108" lon="5.90262">
        <ele>255</ele>
        <time>2022-05-01T13:55:57.558Z</time>
      </trkpt>
      <trkpt lat="45.65107" lon="5.90264">
        <ele>255</ele>
        <time>2022-05-01T13:55:58.559Z</time>
      </trkpt>
      <trkpt lat="45.65105" lon="5.90268">
        <ele>254</ele>
        <time>2022-05-01T13:55:59.558Z</time>
      </trkpt>
      <trkpt lat="45.65104" lon="5.9027">
        <ele>254</ele>
        <time>2022-05-01T13:56:00.559Z</time>
      </trkpt>
      <trkpt lat="45.65103" lon="5.90273">
        <ele>254</ele>
        <time>2022-05-01T13:56:01.559Z</time>
      </trkpt>
      <trkpt lat="45.65102" lon="5.90276">
        <ele>255</ele>
        <time>2022-05-01T13:56:02.558Z</time>
      </trkpt>
      <trkpt lat="45.65101" lon="5.90278">
        <ele>255</ele>
        <time>2022-05-01T13:56:03.559Z</time>
      </trkpt>
      <trkpt lat="45.651" lon="5.90281">
        <ele>255</ele>
        <time>2022-05-01T13:56:04.559Z</time>
      </trkpt>
      <trkpt lat="45.65099" lon="5.90284">
        <ele>254</ele>
        <time>2022-05-01T13:56:05.559Z</time>
      </trkpt>
      <trkpt lat="45.65097" lon="5.90287">
        <ele>255</ele>
        <time>2022-05-01T13:56:06.559Z</time>
      </trkpt>
      <trkpt lat="45.65096" lon="5.90289">
        <ele>255</ele>
        <time>2022-05-01T13:56:07.559Z</time>
      </trkpt>
      <trkpt lat="45.65094" lon="5.90291">
        <ele>255</ele>
        <time>2022-05-01T13:56:08.559Z</time>
      </trkpt>
      <trkpt lat="45.65093" lon="5.90293">
        <ele>255</ele>
        <time>2022-05-01T13:56:09.559Z</time>
      </trkpt>
      <trkpt lat="45.65091" lon="5.90295">
        <ele>255</ele>
        <time>2022-05-01T13:56:10.559Z</time>
      </trkpt>
      <trkpt lat="45.65089" lon="5.90297">
        <ele>256</ele>
        <time>2022-05-01T13:56:11.559Z</time>
      </trkpt>
      <trkpt lat="45.65088" lon="5.903">
        <ele>256</ele>
        <time>2022-05-01T13:56:12.558Z</time>
      </trkpt>
      <trkpt lat="45.65086" lon="5.90301">
        <ele>256</ele>
        <time>2022-05-01T13:56:13.558Z</time>
      </trkpt>
      <trkpt lat="45.65084" lon="5.90303">
        <ele>257</ele>
        <time>2022-05-01T13:56:14.558Z</time>
      </trkpt>
      <trkpt lat="45.65082" lon="5.90304">
        <ele>257</ele>
        <time>2022-05-01T13:56:15.559Z</time>
      </trkpt>
      <trkpt lat="45.6508" lon="5.90306">
        <ele>258</ele>
        <time>2022-05-01T13:56:16.559Z</time>
      </trkpt>
      <trkpt lat="45.65077" lon="5.90307">
        <ele>258</ele>
        <time>2022-05-01T13:56:17.558Z</time>
      </trkpt>
      <trkpt lat="45.65075" lon="5.90309">
        <ele>259</ele>
        <time>2022-05-01T13:56:18.559Z</time>
      </trkpt>
      <trkpt lat="45.65073" lon="5.90311">
        <ele>259</ele>
        <time>2022-05-01T13:56:19.558Z</time>
      </trkpt>
      <trkpt lat="45.65072" lon="5.90314">
        <ele>259</ele>
        <time>2022-05-01T13:56:20.558Z</time>
      </trkpt>
      <trkpt lat="45.65071" lon="5.90317">
        <ele>259</ele>
        <time>2022-05-01T13:56:21.558Z</time>
      </trkpt>
      <trkpt lat="45.6507" lon="5.9032">
        <ele>259</ele>
        <time>2022-05-01T13:56:22.559Z</time>
      </trkpt>
      <trkpt lat="45.65069" lon="5.90324">
        <ele>259</ele>
        <time>2022-05-01T13:56:23.559Z</time>
      </trkpt>
      <trkpt lat="45.65069" lon="5.90327">
        <ele>259</ele>
        <time>2022-05-01T13:56:24.559Z</time>
      </trkpt>
      <trkpt lat="45.65068" lon="5.9033">
        <ele>259</ele>
        <time>2022-05-01T13:56:25.559Z</time>
      </trkpt>
      <trkpt lat="45.65068" lon="5.90334">
        <ele>259</ele>
        <time>2022-05-01T13:56:26.559Z</time>
      </trkpt>
      <trkpt lat="45.65066" lon="5.90336">
        <ele>260</ele>
        <time>2022-05-01T13:56:27.559Z</time>
      </trkpt>
      <trkpt lat="45.65059" lon="5.90348">
        <ele>260</ele>
        <time>2022-05-01T13:56:32.558Z</time>
      </trkpt>
      <trkpt lat="45.6506" lon="5.90351">
        <ele>261</ele>
        <time>2022-05-01T13:56:33.559Z</time>
      </trkpt>
      <trkpt lat="45.65059" lon="5.90355">
        <ele>262</ele>
        <time>2022-05-01T13:56:34.559Z</time>
      </trkpt>
      <trkpt lat="45.65058" lon="5.90358">
        <ele>263</ele>
        <time>2022-05-01T13:56:35.559Z</time>
      </trkpt>
      <trkpt lat="45.65058" lon="5.90362">
        <ele>263</ele>
        <time>2022-05-01T13:56:36.559Z</time>
      </trkpt>
      <trkpt lat="45.65057" lon="5.90365">
        <ele>264</ele>
        <time>2022-05-01T13:56:37.559Z</time>
      </trkpt>
      <trkpt lat="45.65056" lon="5.90369">
        <ele>265</ele>
        <time>2022-05-01T13:56:38.559Z</time>
      </trkpt>
      <trkpt lat="45.65055" lon="5.90372">
        <ele>265</ele>
        <time>2022-05-01T13:56:39.559Z</time>
      </trkpt>
      <trkpt lat="45.65054" lon="5.90376">
        <ele>265</ele>
        <time>2022-05-01T13:56:40.559Z</time>
      </trkpt>
      <trkpt lat="45.65053" lon="5.90379">
        <ele>265</ele>
        <time>2022-05-01T13:56:41.559Z</time>
      </trkpt>
      <trkpt lat="45.65052" lon="5.90382">
        <ele>266</ele>
        <time>2022-05-01T13:56:42.559Z</time>
      </trkpt>
      <trkpt lat="45.65051" lon="5.90385">
        <ele>266</ele>
        <time>2022-05-01T13:56:43.559Z</time>
      </trkpt>
      <trkpt lat="45.6505" lon="5.9039">
        <ele>266</ele>
        <time>2022-05-01T13:56:44.559Z</time>
      </trkpt>
      <trkpt lat="45.65049" lon="5.90394">
        <ele>267</ele>
        <time>2022-05-01T13:56:45.559Z</time>
      </trkpt>
      <trkpt lat="45.65048" lon="5.90397">
        <ele>268</ele>
        <time>2022-05-01T13:56:46.559Z</time>
      </trkpt>
      <trkpt lat="45.65047" lon="5.904">
        <ele>268</ele>
        <time>2022-05-01T13:56:47.559Z</time>
      </trkpt>
      <trkpt lat="45.65046" lon="5.90403">
        <ele>269</ele>
        <time>2022-05-01T13:56:48.559Z</time>
      </trkpt>
      <trkpt lat="45.65045" lon="5.90406">
        <ele>270</ele>
        <time>2022-05-01T13:56:49.559Z</time>
      </trkpt>
      <trkpt lat="45.65043" lon="5.9041">
        <ele>270</ele>
        <time>2022-05-01T13:56:50.559Z</time>
      </trkpt>
      <trkpt lat="45.65042" lon="5.90413">
        <ele>271</ele>
        <time>2022-05-01T13:56:51.559Z</time>
      </trkpt>
      <trkpt lat="45.65041" lon="5.90416">
        <ele>271</ele>
        <time>2022-05-01T13:56:52.559Z</time>
      </trkpt>
      <trkpt lat="45.6504" lon="5.90419">
        <ele>271</ele>
        <time>2022-05-01T13:56:53.559Z</time>
      </trkpt>
      <trkpt lat="45.65038" lon="5.90422">
        <ele>272</ele>
        <time>2022-05-01T13:56:54.559Z</time>
      </trkpt>
      <trkpt lat="45.65037" lon="5.90426">
        <ele>272</ele>
        <time>2022-05-01T13:56:55.559Z</time>
      </trkpt>
      <trkpt lat="45.65037" lon="5.9043">
        <ele>272</ele>
        <time>2022-05-01T13:56:56.558Z</time>
      </trkpt>
      <trkpt lat="45.65036" lon="5.90434">
        <ele>273</ele>
        <time>2022-05-01T13:56:57.558Z</time>
      </trkpt>
      <trkpt lat="45.65036" lon="5.90438">
        <ele>273</ele>
        <time>2022-05-01T13:56:58.559Z</time>
      </trkpt>
      <trkpt lat="45.65036" lon="5.90442">
        <ele>274</ele>
        <time>2022-05-01T13:56:59.559Z</time>
      </trkpt>
      <trkpt lat="45.65036" lon="5.90445">
        <ele>274</ele>
        <time>2022-05-01T13:57:00.559Z</time>
      </trkpt>
      <trkpt lat="45.65036" lon="5.90449">
        <ele>274</ele>
        <time>2022-05-01T13:57:01.559Z</time>
      </trkpt>
      <trkpt lat="45.65036" lon="5.90453">
        <ele>274</ele>
        <time>2022-05-01T13:57:02.559Z</time>
      </trkpt>
      <trkpt lat="45.65035" lon="5.90456">
        <ele>274</ele>
        <time>2022-05-01T13:57:03.559Z</time>
      </trkpt>
      <trkpt lat="45.65034" lon="5.90458">
        <ele>273</ele>
        <time>2022-05-01T13:57:04.559Z</time>
      </trkpt>
      <trkpt lat="45.65032" lon="5.9046">
        <ele>273</ele>
        <time>2022-05-01T13:57:05.559Z</time>
      </trkpt>
      <trkpt lat="45.65032" lon="5.90463">
        <ele>273</ele>
        <time>2022-05-01T13:57:06.559Z</time>
      </trkpt>
      <trkpt lat="45.65031" lon="5.90465">
        <ele>273</ele>
        <time>2022-05-01T13:57:07.559Z</time>
      </trkpt>
      <trkpt lat="45.6503" lon="5.90467">
        <ele>273</ele>
        <time>2022-05-01T13:57:08.559Z</time>
      </trkpt>
      <trkpt lat="45.6503" lon="5.90469">
        <ele>273</ele>
        <time>2022-05-01T13:57:09.559Z</time>
      </trkpt>
      <trkpt lat="45.65029" lon="5.90471">
        <ele>273</ele>
        <time>2022-05-01T13:57:10.558Z</time>
      </trkpt>
      <trkpt lat="45.65028" lon="5.90473">
        <ele>274</ele>
        <time>2022-05-01T13:57:11.559Z</time>
      </trkpt>
      <trkpt lat="45.65026" lon="5.90475">
        <ele>274</ele>
        <time>2022-05-01T13:57:12.559Z</time>
      </trkpt>
      <trkpt lat="45.65024" lon="5.90478">
        <ele>274</ele>
        <time>2022-05-01T13:57:13.559Z</time>
      </trkpt>
      <trkpt lat="45.65022" lon="5.9048">
        <ele>274</ele>
        <time>2022-05-01T13:57:14.558Z</time>
      </trkpt>
      <trkpt lat="45.6502" lon="5.90483">
        <ele>275</ele>
        <time>2022-05-01T13:57:15.559Z</time>
      </trkpt>
      <trkpt lat="45.65018" lon="5.90486">
        <ele>275</ele>
        <time>2022-05-01T13:57:16.558Z</time>
      </trkpt>
      <trkpt lat="45.65016" lon="5.90488">
        <ele>275</ele>
        <time>2022-05-01T13:57:17.559Z</time>
      </trkpt>
      <trkpt lat="45.65014" lon="5.90491">
        <ele>275</ele>
        <time>2022-05-01T13:57:18.559Z</time>
      </trkpt>
      <trkpt lat="45.65012" lon="5.90493">
        <ele>275</ele>
        <time>2022-05-01T13:57:19.559Z</time>
      </trkpt>
      <trkpt lat="45.6501" lon="5.90496">
        <ele>275</ele>
        <time>2022-05-01T13:57:20.559Z</time>
      </trkpt>
      <trkpt lat="45.65008" lon="5.90498">
        <ele>275</ele>
        <time>2022-05-01T13:57:21.558Z</time>
      </trkpt>
      <trkpt lat="45.65005" lon="5.905">
        <ele>275</ele>
        <time>2022-05-01T13:57:22.559Z</time>
      </trkpt>
      <trkpt lat="45.65003" lon="5.90501">
        <ele>275</ele>
        <time>2022-05-01T13:57:23.559Z</time>
      </trkpt>
      <trkpt lat="45.65" lon="5.90503">
        <ele>275</ele>
        <time>2022-05-01T13:57:24.558Z</time>
      </trkpt>
      <trkpt lat="45.64998" lon="5.90504">
        <ele>275</ele>
        <time>2022-05-01T13:57:25.559Z</time>
      </trkpt>
      <trkpt lat="45.64995" lon="5.90506">
        <ele>275</ele>
        <time>2022-05-01T13:57:26.559Z</time>
      </trkpt>
      <trkpt lat="45.64992" lon="5.90508">
        <ele>275</ele>
        <time>2022-05-01T13:57:27.559Z</time>
      </trkpt>
      <trkpt lat="45.6499" lon="5.90509">
        <ele>275</ele>
        <time>2022-05-01T13:57:28.559Z</time>
      </trkpt>
      <trkpt lat="45.64987" lon="5.9051">
        <ele>275</ele>
        <time>2022-05-01T13:57:29.559Z</time>
      </trkpt>
      <trkpt lat="45.64984" lon="5.90511">
        <ele>275</ele>
        <time>2022-05-01T13:57:30.559Z</time>
      </trkpt>
      <trkpt lat="45.64982" lon="5.90512">
        <ele>275</ele>
        <time>2022-05-01T13:57:31.559Z</time>
      </trkpt>
      <trkpt lat="45.6498" lon="5.90513">
        <ele>275</ele>
        <time>2022-05-01T13:57:32.559Z</time>
      </trkpt>
      <trkpt lat="45.64977" lon="5.90513">
        <ele>275</ele>
        <time>2022-05-01T13:57:33.559Z</time>
      </trkpt>
      <trkpt lat="45.64974" lon="5.90514">
        <ele>275</ele>
        <time>2022-05-01T13:57:34.558Z</time>
      </trkpt>
      <trkpt lat="45.64971" lon="5.90515">
        <ele>275</ele>
        <time>2022-05-01T13:57:35.559Z</time>
      </trkpt>
      <trkpt lat="45.64969" lon="5.90516">
        <ele>275</ele>
        <time>2022-05-01T13:57:36.558Z</time>
      </trkpt>
      <trkpt lat="45.64966" lon="5.90517">
        <ele>275</ele>
        <time>2022-05-01T13:57:37.559Z</time>
      </trkpt>
      <trkpt lat="45.64963" lon="5.90519">
        <ele>275</ele>
        <time>2022-05-01T13:57:38.559Z</time>
      </trkpt>
      <trkpt lat="45.64962" lon="5.90523">
        <ele>275</ele>
        <time>2022-05-01T13:57:39.559Z</time>
      </trkpt>
      <trkpt lat="45.64961" lon="5.90526">
        <ele>276</ele>
        <time>2022-05-01T13:57:40.559Z</time>
      </trkpt>
      <trkpt lat="45.64961" lon="5.9053">
        <ele>277</ele>
        <time>2022-05-01T13:57:41.558Z</time>
      </trkpt>
      <trkpt lat="45.64961" lon="5.90534">
        <ele>277</ele>
        <time>2022-05-01T13:57:42.559Z</time>
      </trkpt>
      <trkpt lat="45.64961" lon="5.90538">
        <ele>277</ele>
        <time>2022-05-01T13:57:43.559Z</time>
      </trkpt>
      <trkpt lat="45.6496" lon="5.90542">
        <ele>278</ele>
        <time>2022-05-01T13:57:44.559Z</time>
      </trkpt>
      <trkpt lat="45.64961" lon="5.90547">
        <ele>278</ele>
        <time>2022-05-01T13:57:45.559Z</time>
      </trkpt>
      <trkpt lat="45.64961" lon="5.90551">
        <ele>278</ele>
        <time>2022-05-01T13:57:46.559Z</time>
      </trkpt>
      <trkpt lat="45.64961" lon="5.90555">
        <ele>279</ele>
        <time>2022-05-01T13:57:47.559Z</time>
      </trkpt>
      <trkpt lat="45.64961" lon="5.90559">
        <ele>279</ele>
        <time>2022-05-01T13:57:48.559Z</time>
      </trkpt>
      <trkpt lat="45.64961" lon="5.90564">
        <ele>280</ele>
        <time>2022-05-01T13:57:49.559Z</time>
      </trkpt>
      <trkpt lat="45.64961" lon="5.90568">
        <ele>281</ele>
        <time>2022-05-01T13:57:50.559Z</time>
      </trkpt>
      <trkpt lat="45.64962" lon="5.90572">
        <ele>281</ele>
        <time>2022-05-01T13:57:51.559Z</time>
      </trkpt>
      <trkpt lat="45.64961" lon="5.90576">
        <ele>281</ele>
        <time>2022-05-01T13:57:52.558Z</time>
      </trkpt>
      <trkpt lat="45.64962" lon="5.90581">
        <ele>281</ele>
        <time>2022-05-01T13:57:53.559Z</time>
      </trkpt>
      <trkpt lat="45.64962" lon="5.90585">
        <ele>281</ele>
        <time>2022-05-01T13:57:54.559Z</time>
      </trkpt>
      <trkpt lat="45.64962" lon="5.90589">
        <ele>282</ele>
        <time>2022-05-01T13:57:55.559Z</time>
      </trkpt>
      <trkpt lat="45.64963" lon="5.90594">
        <ele>282</ele>
        <time>2022-05-01T13:57:56.558Z</time>
      </trkpt>
      <trkpt lat="45.64963" lon="5.90598">
        <ele>282</ele>
        <time>2022-05-01T13:57:57.559Z</time>
      </trkpt>
      <trkpt lat="45.64964" lon="5.90603">
        <ele>282</ele>
        <time>2022-05-01T13:57:58.559Z</time>
      </trkpt>
      <trkpt lat="45.64964" lon="5.90607">
        <ele>281</ele>
        <time>2022-05-01T13:57:59.559Z</time>
      </trkpt>
      <trkpt lat="45.64965" lon="5.90612">
        <ele>282</ele>
        <time>2022-05-01T13:58:00.559Z</time>
      </trkpt>
      <trkpt lat="45.64965" lon="5.90616">
        <ele>281</ele>
        <time>2022-05-01T13:58:01.559Z</time>
      </trkpt>
      <trkpt lat="45.64966" lon="5.90621">
        <ele>281</ele>
        <time>2022-05-01T13:58:02.559Z</time>
      </trkpt>
      <trkpt lat="45.64966" lon="5.90626">
        <ele>281</ele>
        <time>2022-05-01T13:58:03.559Z</time>
      </trkpt>
      <trkpt lat="45.64966" lon="5.9063">
        <ele>281</ele>
        <time>2022-05-01T13:58:04.559Z</time>
      </trkpt>
      <trkpt lat="45.64966" lon="5.90635">
        <ele>280</ele>
        <time>2022-05-01T13:58:05.559Z</time>
      </trkpt>
      <trkpt lat="45.64966" lon="5.9064">
        <ele>280</ele>
        <time>2022-05-01T13:58:06.559Z</time>
      </trkpt>
      <trkpt lat="45.64966" lon="5.90645">
        <ele>280</ele>
        <time>2022-05-01T13:58:07.559Z</time>
      </trkpt>
      <trkpt lat="45.64966" lon="5.9065">
        <ele>281</ele>
        <time>2022-05-01T13:58:08.559Z</time>
      </trkpt>
      <trkpt lat="45.64966" lon="5.90655">
        <ele>281</ele>
        <time>2022-05-01T13:58:09.559Z</time>
      </trkpt>
      <trkpt lat="45.64967" lon="5.9066">
        <ele>281</ele>
        <time>2022-05-01T13:58:10.559Z</time>
      </trkpt>
      <trkpt lat="45.64967" lon="5.90665">
        <ele>280</ele>
        <time>2022-05-01T13:58:11.559Z</time>
      </trkpt>
      <trkpt lat="45.64967" lon="5.9067">
        <ele>280</ele>
        <time>2022-05-01T13:58:12.559Z</time>
      </trkpt>
      <trkpt lat="45.64967" lon="5.90675">
        <ele>280</ele>
        <time>2022-05-01T13:58:13.558Z</time>
      </trkpt>
      <trkpt lat="45.64967" lon="5.90681">
        <ele>279</ele>
        <time>2022-05-01T13:58:14.559Z</time>
      </trkpt>
      <trkpt lat="45.64967" lon="5.90686">
        <ele>279</ele>
        <time>2022-05-01T13:58:15.559Z</time>
      </trkpt>
      <trkpt lat="45.64966" lon="5.90691">
        <ele>279</ele>
        <time>2022-05-01T13:58:16.558Z</time>
      </trkpt>
      <trkpt lat="45.64967" lon="5.90697">
        <ele>279</ele>
        <time>2022-05-01T13:58:17.559Z</time>
      </trkpt>
      <trkpt lat="45.64967" lon="5.90702">
        <ele>279</ele>
        <time>2022-05-01T13:58:18.559Z</time>
      </trkpt>
      <trkpt lat="45.64967" lon="5.90708">
        <ele>279</ele>
        <time>2022-05-01T13:58:19.559Z</time>
      </trkpt>
      <trkpt lat="45.64967" lon="5.90713">
        <ele>280</ele>
        <time>2022-05-01T13:58:20.559Z</time>
      </trkpt>
      <trkpt lat="45.64967" lon="5.90719">
        <ele>280</ele>
        <time>2022-05-01T13:58:21.559Z</time>
      </trkpt>
      <trkpt lat="45.64968" lon="5.90725">
        <ele>280</ele>
        <time>2022-05-01T13:58:22.559Z</time>
      </trkpt>
      <trkpt lat="45.64968" lon="5.9073">
        <ele>281</ele>
        <time>2022-05-01T13:58:23.559Z</time>
      </trkpt>
      <trkpt lat="45.64968" lon="5.90735">
        <ele>280</ele>
        <time>2022-05-01T13:58:24.559Z</time>
      </trkpt>
      <trkpt lat="45.64968" lon="5.90741">
        <ele>280</ele>
        <time>2022-05-01T13:58:25.559Z</time>
      </trkpt>
      <trkpt lat="45.64969" lon="5.90746">
        <ele>281</ele>
        <time>2022-05-01T13:58:26.558Z</time>
      </trkpt>
      <trkpt lat="45.64969" lon="5.90752">
        <ele>281</ele>
        <time>2022-05-01T13:58:27.559Z</time>
      </trkpt>
      <trkpt lat="45.64969" lon="5.90757">
        <ele>282</ele>
        <time>2022-05-01T13:58:28.559Z</time>
      </trkpt>
      <trkpt lat="45.64969" lon="5.90763">
        <ele>283</ele>
        <time>2022-05-01T13:58:29.559Z</time>
      </trkpt>
      <trkpt lat="45.6497" lon="5.90768">
        <ele>283</ele>
        <time>2022-05-01T13:58:30.559Z</time>
      </trkpt>
      <trkpt lat="45.6497" lon="5.90774">
        <ele>284</ele>
        <time>2022-05-01T13:58:31.559Z</time>
      </trkpt>
      <trkpt lat="45.6497" lon="5.9078">
        <ele>285</ele>
        <time>2022-05-01T13:58:32.559Z</time>
      </trkpt>
      <trkpt lat="45.6497" lon="5.90785">
        <ele>285</ele>
        <time>2022-05-01T13:58:33.559Z</time>
      </trkpt>
      <trkpt lat="45.64971" lon="5.90791">
        <ele>285</ele>
        <time>2022-05-01T13:58:34.559Z</time>
      </trkpt>
      <trkpt lat="45.64971" lon="5.90796">
        <ele>286</ele>
        <time>2022-05-01T13:58:35.559Z</time>
      </trkpt>
      <trkpt lat="45.64971" lon="5.90801">
        <ele>285</ele>
        <time>2022-05-01T13:58:36.559Z</time>
      </trkpt>
      <trkpt lat="45.64972" lon="5.90806">
        <ele>285</ele>
        <time>2022-05-01T13:58:37.558Z</time>
      </trkpt>
      <trkpt lat="45.64972" lon="5.90811">
        <ele>284</ele>
        <time>2022-05-01T13:58:38.559Z</time>
      </trkpt>
      <trkpt lat="45.64972" lon="5.90816">
        <ele>284</ele>
        <time>2022-05-01T13:58:39.558Z</time>
      </trkpt>
      <trkpt lat="45.64972" lon="5.90821">
        <ele>284</ele>
        <time>2022-05-01T13:58:40.558Z</time>
      </trkpt>
      <trkpt lat="45.64973" lon="5.90825">
        <ele>284</ele>
        <time>2022-05-01T13:58:41.559Z</time>
      </trkpt>
      <trkpt lat="45.64973" lon="5.9083">
        <ele>284</ele>
        <time>2022-05-01T13:58:42.558Z</time>
      </trkpt>
      <trkpt lat="45.64974" lon="5.90834">
        <ele>284</ele>
        <time>2022-05-01T13:58:43.558Z</time>
      </trkpt>
      <trkpt lat="45.64974" lon="5.90838">
        <ele>283</ele>
        <time>2022-05-01T13:58:44.559Z</time>
      </trkpt>
      <trkpt lat="45.64975" lon="5.90843">
        <ele>283</ele>
        <time>2022-05-01T13:58:45.559Z</time>
      </trkpt>
      <trkpt lat="45.64975" lon="5.90846">
        <ele>283</ele>
        <time>2022-05-01T13:58:46.558Z</time>
      </trkpt>
      <trkpt lat="45.64976" lon="5.9085">
        <ele>282</ele>
        <time>2022-05-01T13:58:47.559Z</time>
      </trkpt>
      <trkpt lat="45.64977" lon="5.90854">
        <ele>281</ele>
        <time>2022-05-01T13:58:48.559Z</time>
      </trkpt>
      <trkpt lat="45.64977" lon="5.90858">
        <ele>281</ele>
        <time>2022-05-01T13:58:49.558Z</time>
      </trkpt>
      <trkpt lat="45.64978" lon="5.90862">
        <ele>281</ele>
        <time>2022-05-01T13:58:50.559Z</time>
      </trkpt>
      <trkpt lat="45.64978" lon="5.90866">
        <ele>280</ele>
        <time>2022-05-01T13:58:51.559Z</time>
      </trkpt>
      <trkpt lat="45.64979" lon="5.9087">
        <ele>280</ele>
        <time>2022-05-01T13:58:52.558Z</time>
      </trkpt>
      <trkpt lat="45.64979" lon="5.90874">
        <ele>280</ele>
        <time>2022-05-01T13:58:53.559Z</time>
      </trkpt>
      <trkpt lat="45.64979" lon="5.90878">
        <ele>280</ele>
        <time>2022-05-01T13:58:54.559Z</time>
      </trkpt>
      <trkpt lat="45.64979" lon="5.90882">
        <ele>279</ele>
        <time>2022-05-01T13:58:55.559Z</time>
      </trkpt>
      <trkpt lat="45.64979" lon="5.90884">
        <ele>279</ele>
        <time>2022-05-01T13:58:56.559Z</time>
      </trkpt>
      <trkpt lat="45.64979" lon="5.90885">
        <ele>280</ele>
        <time>2022-05-01T13:58:57.559Z</time>
      </trkpt>
      <trkpt lat="45.64979" lon="5.90886">
        <ele>280</ele>
        <time>2022-05-01T13:58:58.559Z</time>
      </trkpt>
      <trkpt lat="45.64979" lon="5.90886">
        <ele>280</ele>
        <time>2022-05-01T13:58:59.558Z</time>
      </trkpt>
      <trkpt lat="45.64982" lon="5.90888">
        <ele>280</ele>
        <time>2022-05-01T13:59:53.595Z</time>
      </trkpt>
      <trkpt lat="45.64984" lon="5.90892">
        <ele>280</ele>
        <time>2022-05-01T13:59:54.595Z</time>
      </trkpt>
      <trkpt lat="45.64986" lon="5.90895">
        <ele>280</ele>
        <time>2022-05-01T13:59:55.594Z</time>
      </trkpt>
      <trkpt lat="45.64988" lon="5.90898">
        <ele>280</ele>
        <time>2022-05-01T13:59:56.595Z</time>
      </trkpt>
      <trkpt lat="45.6499" lon="5.90902">
        <ele>280</ele>
        <time>2022-05-01T13:59:57.594Z</time>
      </trkpt>
      <trkpt lat="45.64992" lon="5.90907">
        <ele>280</ele>
        <time>2022-05-01T13:59:58.595Z</time>
      </trkpt>
      <trkpt lat="45.64994" lon="5.90913">
        <ele>280</ele>
        <time>2022-05-01T13:59:59.594Z</time>
      </trkpt>
      <trkpt lat="45.64995" lon="5.90919">
        <ele>279</ele>
        <time>2022-05-01T14:00:00.595Z</time>
      </trkpt>
      <trkpt lat="45.64996" lon="5.90924">
        <ele>279</ele>
        <time>2022-05-01T14:00:01.595Z</time>
      </trkpt>
      <trkpt lat="45.64998" lon="5.9093">
        <ele>279</ele>
        <time>2022-05-01T14:00:02.594Z</time>
      </trkpt>
      <trkpt lat="45.64999" lon="5.90936">
        <ele>279</ele>
        <time>2022-05-01T14:00:03.595Z</time>
      </trkpt>
      <trkpt lat="45.65" lon="5.90942">
        <ele>279</ele>
        <time>2022-05-01T14:00:04.594Z</time>
      </trkpt>
      <trkpt lat="45.65001" lon="5.90948">
        <ele>279</ele>
        <time>2022-05-01T14:00:05.594Z</time>
      </trkpt>
      <trkpt lat="45.65003" lon="5.90954">
        <ele>278</ele>
        <time>2022-05-01T14:00:06.595Z</time>
      </trkpt>
      <trkpt lat="45.65004" lon="5.9096">
        <ele>278</ele>
        <time>2022-05-01T14:00:07.594Z</time>
      </trkpt>
      <trkpt lat="45.65005" lon="5.90966">
        <ele>279</ele>
        <time>2022-05-01T14:00:08.594Z</time>
      </trkpt>
      <trkpt lat="45.65007" lon="5.90972">
        <ele>279</ele>
        <time>2022-05-01T14:00:09.595Z</time>
      </trkpt>
      <trkpt lat="45.65008" lon="5.90978">
        <ele>279</ele>
        <time>2022-05-01T14:00:10.594Z</time>
      </trkpt>
      <trkpt lat="45.65009" lon="5.90984">
        <ele>280</ele>
        <time>2022-05-01T14:00:11.594Z</time>
      </trkpt>
      <trkpt lat="45.65009" lon="5.90991">
        <ele>280</ele>
        <time>2022-05-01T14:00:12.594Z</time>
      </trkpt>
      <trkpt lat="45.6501" lon="5.90996">
        <ele>281</ele>
        <time>2022-05-01T14:00:13.594Z</time>
      </trkpt>
      <trkpt lat="45.65011" lon="5.91001">
        <ele>281</ele>
        <time>2022-05-01T14:00:14.594Z</time>
      </trkpt>
      <trkpt lat="45.65012" lon="5.91005">
        <ele>282</ele>
        <time>2022-05-01T14:00:15.595Z</time>
      </trkpt>
      <trkpt lat="45.65013" lon="5.9101">
        <ele>282</ele>
        <time>2022-05-01T14:00:16.595Z</time>
      </trkpt>
      <trkpt lat="45.65015" lon="5.91014">
        <ele>282</ele>
        <time>2022-05-01T14:00:17.594Z</time>
      </trkpt>
      <trkpt lat="45.65016" lon="5.91018">
        <ele>282</ele>
        <time>2022-05-01T14:00:18.595Z</time>
      </trkpt>
      <trkpt lat="45.65017" lon="5.91021">
        <ele>282</ele>
        <time>2022-05-01T14:00:19.595Z</time>
      </trkpt>
      <trkpt lat="45.65018" lon="5.91025">
        <ele>282</ele>
        <time>2022-05-01T14:00:20.594Z</time>
      </trkpt>
      <trkpt lat="45.65018" lon="5.9103">
        <ele>282</ele>
        <time>2022-05-01T14:00:21.595Z</time>
      </trkpt>
      <trkpt lat="45.65018" lon="5.91034">
        <ele>281</ele>
        <time>2022-05-01T14:00:22.595Z</time>
      </trkpt>
      <trkpt lat="45.65017" lon="5.91038">
        <ele>281</ele>
        <time>2022-05-01T14:00:23.595Z</time>
      </trkpt>
      <trkpt lat="45.65016" lon="5.91042">
        <ele>281</ele>
        <time>2022-05-01T14:00:24.595Z</time>
      </trkpt>
      <trkpt lat="45.65014" lon="5.91046">
        <ele>281</ele>
        <time>2022-05-01T14:00:25.594Z</time>
      </trkpt>
      <trkpt lat="45.65013" lon="5.9105">
        <ele>281</ele>
        <time>2022-05-01T14:00:26.595Z</time>
      </trkpt>
      <trkpt lat="45.65011" lon="5.91054">
        <ele>280</ele>
        <time>2022-05-01T14:00:27.595Z</time>
      </trkpt>
      <trkpt lat="45.6501" lon="5.91056">
        <ele>280</ele>
        <time>2022-05-01T14:00:28.595Z</time>
      </trkpt>
      <trkpt lat="45.65008" lon="5.9106">
        <ele>280</ele>
        <time>2022-05-01T14:00:29.595Z</time>
      </trkpt>
      <trkpt lat="45.65007" lon="5.91063">
        <ele>280</ele>
        <time>2022-05-01T14:00:30.595Z</time>
      </trkpt>
      <trkpt lat="45.65005" lon="5.91067">
        <ele>280</ele>
        <time>2022-05-01T14:00:31.595Z</time>
      </trkpt>
      <trkpt lat="45.65003" lon="5.91072">
        <ele>280</ele>
        <time>2022-05-01T14:00:32.595Z</time>
      </trkpt>
      <trkpt lat="45.65002" lon="5.91074">
        <ele>280</ele>
        <time>2022-05-01T14:00:33.594Z</time>
      </trkpt>
      <trkpt lat="45.65" lon="5.91078">
        <ele>281</ele>
        <time>2022-05-01T14:00:34.594Z</time>
      </trkpt>
      <trkpt lat="45.64997" lon="5.91081">
        <ele>281</ele>
        <time>2022-05-01T14:00:35.594Z</time>
      </trkpt>
      <trkpt lat="45.64995" lon="5.91085">
        <ele>281</ele>
        <time>2022-05-01T14:00:36.595Z</time>
      </trkpt>
      <trkpt lat="45.64993" lon="5.91089">
        <ele>281</ele>
        <time>2022-05-01T14:00:37.595Z</time>
      </trkpt>
      <trkpt lat="45.64991" lon="5.91092">
        <ele>281</ele>
        <time>2022-05-01T14:00:38.595Z</time>
      </trkpt>
      <trkpt lat="45.64989" lon="5.91096">
        <ele>282</ele>
        <time>2022-05-01T14:00:39.594Z</time>
      </trkpt>
      <trkpt lat="45.64986" lon="5.911">
        <ele>282</ele>
        <time>2022-05-01T14:00:40.595Z</time>
      </trkpt>
      <trkpt lat="45.64984" lon="5.91104">
        <ele>282</ele>
        <time>2022-05-01T14:00:41.594Z</time>
      </trkpt>
      <trkpt lat="45.64982" lon="5.91108">
        <ele>283</ele>
        <time>2022-05-01T14:00:42.594Z</time>
      </trkpt>
      <trkpt lat="45.6498" lon="5.91112">
        <ele>283</ele>
        <time>2022-05-01T14:00:43.595Z</time>
      </trkpt>
      <trkpt lat="45.64977" lon="5.91116">
        <ele>284</ele>
        <time>2022-05-01T14:00:44.595Z</time>
      </trkpt>
      <trkpt lat="45.64975" lon="5.9112">
        <ele>284</ele>
        <time>2022-05-01T14:00:45.595Z</time>
      </trkpt>
      <trkpt lat="45.64973" lon="5.91124">
        <ele>283</ele>
        <time>2022-05-01T14:00:46.595Z</time>
      </trkpt>
      <trkpt lat="45.6497" lon="5.91129">
        <ele>283</ele>
        <time>2022-05-01T14:00:47.595Z</time>
      </trkpt>
      <trkpt lat="45.64968" lon="5.91133">
        <ele>283</ele>
        <time>2022-05-01T14:00:48.594Z</time>
      </trkpt>
      <trkpt lat="45.64966" lon="5.91138">
        <ele>283</ele>
        <time>2022-05-01T14:00:49.595Z</time>
      </trkpt>
      <trkpt lat="45.64964" lon="5.91143">
        <ele>283</ele>
        <time>2022-05-01T14:00:50.594Z</time>
      </trkpt>
      <trkpt lat="45.64962" lon="5.91149">
        <ele>282</ele>
        <time>2022-05-01T14:00:51.594Z</time>
      </trkpt>
      <trkpt lat="45.64961" lon="5.91154">
        <ele>282</ele>
        <time>2022-05-01T14:00:52.594Z</time>
      </trkpt>
      <trkpt lat="45.6496" lon="5.91158">
        <ele>283</ele>
        <time>2022-05-01T14:00:53.595Z</time>
      </trkpt>
      <trkpt lat="45.64959" lon="5.91164">
        <ele>283</ele>
        <time>2022-05-01T14:00:54.595Z</time>
      </trkpt>
      <trkpt lat="45.64958" lon="5.9117">
        <ele>284</ele>
        <time>2022-05-01T14:00:55.594Z</time>
      </trkpt>
      <trkpt lat="45.64958" lon="5.91178">
        <ele>284</ele>
        <time>2022-05-01T14:00:56.595Z</time>
      </trkpt>
      <trkpt lat="45.64958" lon="5.91185">
        <ele>285</ele>
        <time>2022-05-01T14:00:57.595Z</time>
      </trkpt>
      <trkpt lat="45.64958" lon="5.91193">
        <ele>285</ele>
        <time>2022-05-01T14:00:58.595Z</time>
      </trkpt>
      <trkpt lat="45.64958" lon="5.91199">
        <ele>285</ele>
        <time>2022-05-01T14:00:59.594Z</time>
      </trkpt>
      <trkpt lat="45.64959" lon="5.91207">
        <ele>285</ele>
        <time>2022-05-01T14:01:00.595Z</time>
      </trkpt>
      <trkpt lat="45.6496" lon="5.91217">
        <ele>285</ele>
        <time>2022-05-01T14:01:01.595Z</time>
      </trkpt>
      <trkpt lat="45.6496" lon="5.91225">
        <ele>285</ele>
        <time>2022-05-01T14:01:02.595Z</time>
      </trkpt>
      <trkpt lat="45.64961" lon="5.91233">
        <ele>285</ele>
        <time>2022-05-01T14:01:03.595Z</time>
      </trkpt>
      <trkpt lat="45.64962" lon="5.9124">
        <ele>285</ele>
        <time>2022-05-01T14:01:04.595Z</time>
      </trkpt>
      <trkpt lat="45.64963" lon="5.91248">
        <ele>285</ele>
        <time>2022-05-01T14:01:05.595Z</time>
      </trkpt>
      <trkpt lat="45.64963" lon="5.91256">
        <ele>285</ele>
        <time>2022-05-01T14:01:06.595Z</time>
      </trkpt>
      <trkpt lat="45.64963" lon="5.91266">
        <ele>285</ele>
        <time>2022-05-01T14:01:07.595Z</time>
      </trkpt>
      <trkpt lat="45.64963" lon="5.91274">
        <ele>284</ele>
        <time>2022-05-01T14:01:08.595Z</time>
      </trkpt>
      <trkpt lat="45.64963" lon="5.91282">
        <ele>283</ele>
        <time>2022-05-01T14:01:09.595Z</time>
      </trkpt>
      <trkpt lat="45.64963" lon="5.91289">
        <ele>283</ele>
        <time>2022-05-01T14:01:10.594Z</time>
      </trkpt>
      <trkpt lat="45.64962" lon="5.91296">
        <ele>282</ele>
        <time>2022-05-01T14:01:11.595Z</time>
      </trkpt>
      <trkpt lat="45.64962" lon="5.91301">
        <ele>282</ele>
        <time>2022-05-01T14:01:12.595Z</time>
      </trkpt>
      <trkpt lat="45.64962" lon="5.91306">
        <ele>282</ele>
        <time>2022-05-01T14:01:13.594Z</time>
      </trkpt>
      <trkpt lat="45.64963" lon="5.91309">
        <ele>282</ele>
        <time>2022-05-01T14:01:14.595Z</time>
      </trkpt>
      <trkpt lat="45.64964" lon="5.91311">
        <ele>282</ele>
        <time>2022-05-01T14:01:15.595Z</time>
      </trkpt>
      <trkpt lat="45.64965" lon="5.91312">
        <ele>282</ele>
        <time>2022-05-01T14:01:16.595Z</time>
      </trkpt>
      <trkpt lat="45.64966" lon="5.91312">
        <ele>282</ele>
        <time>2022-05-01T14:01:17.595Z</time>
      </trkpt>
      <trkpt lat="45.64966" lon="5.91311">
        <ele>281</ele>
        <time>2022-05-01T14:01:18.595Z</time>
      </trkpt>
    </trkseg>
  </trk>
</gpx>